<?xml version="1.0" encoding="UTF-8" standalone="no" ?>
<gpx xmlns="http://www.topografix.com/GPX/1/1" xmlns:xsi="http://www.w3.org/2001/XMLSchema-instance" xsi:schemaLocation="http://www.topografix.com/GPX/1/1 http://www.topografix.com/GPX/1/1/gpx.xsd" version="1.1" creator="VisuGPX - https://www.visugpx.com">
  <metadata>
    <name>Moret Barbizon</name>
    <desc><![CDATA[Avec route de liaison route du chateau fermée à la circulation]]></desc>
  </metadata>
  <trk>
    <name><![CDATA[Sortie à vélo dans l'après-midi]]></name>
    <trkseg>
      <trkpt lat="48.37108" lon="2.80412">
        <ele>78.3</ele>
        <time>2018-04-15T13:12:42Z</time>
      </trkpt>
      <trkpt lat="48.37108" lon="2.80401">
        <ele>78.3</ele>
        <time>2018-04-15T13:12:43Z</time>
      </trkpt>
      <trkpt lat="48.37098" lon="2.8037">
        <ele>79.2</ele>
        <time>2018-04-15T13:12:46Z</time>
      </trkpt>
      <trkpt lat="48.37107" lon="2.80375">
        <ele>78.7</ele>
        <time>2018-04-15T13:13:47Z</time>
      </trkpt>
      <trkpt lat="48.37109" lon="2.80369">
        <ele>78.8</ele>
        <time>2018-04-15T13:13:51Z</time>
      </trkpt>
      <trkpt lat="48.37109" lon="2.80365">
        <ele>78.9</ele>
        <time>2018-04-15T13:13:56Z</time>
      </trkpt>
      <trkpt lat="48.37109" lon="2.8037">
        <ele>78.8</ele>
        <time>2018-04-15T13:16:11Z</time>
      </trkpt>
      <trkpt lat="48.37111" lon="2.80364">
        <ele>78.9</ele>
        <time>2018-04-15T13:16:18Z</time>
      </trkpt>
      <trkpt lat="48.37114" lon="2.8036">
        <ele>78.9</ele>
        <time>2018-04-15T13:16:26Z</time>
      </trkpt>
      <trkpt lat="48.37116" lon="2.80357">
        <ele>79</ele>
        <time>2018-04-15T13:16:36Z</time>
      </trkpt>
      <trkpt lat="48.37115" lon="2.80365">
        <ele>78.8</ele>
        <time>2018-04-15T13:18:30Z</time>
      </trkpt>
      <trkpt lat="48.37112" lon="2.80368">
        <ele>78.7</ele>
        <time>2018-04-15T13:18:39Z</time>
      </trkpt>
      <trkpt lat="48.37114" lon="2.80364">
        <ele>78.8</ele>
        <time>2018-04-15T13:18:47Z</time>
      </trkpt>
      <trkpt lat="48.37113" lon="2.80368">
        <ele>78.7</ele>
        <time>2018-04-15T13:19:11Z</time>
      </trkpt>
      <trkpt lat="48.37112" lon="2.80373">
        <ele>78.6</ele>
        <time>2018-04-15T13:19:28Z</time>
      </trkpt>
      <trkpt lat="48.37109" lon="2.80379">
        <ele>78.5</ele>
        <time>2018-04-15T13:19:30Z</time>
      </trkpt>
      <trkpt lat="48.37107" lon="2.80383">
        <ele>78.6</ele>
        <time>2018-04-15T13:20:16Z</time>
      </trkpt>
      <trkpt lat="48.37108" lon="2.80379">
        <ele>78.6</ele>
        <time>2018-04-15T13:20:46Z</time>
      </trkpt>
      <trkpt lat="48.37108" lon="2.80383">
        <ele>78.6</ele>
        <time>2018-04-15T13:21:31Z</time>
      </trkpt>
      <trkpt lat="48.37108" lon="2.80379">
        <ele>78.5</ele>
        <time>2018-04-15T13:22:27Z</time>
      </trkpt>
      <trkpt lat="48.37109" lon="2.80376">
        <ele>78.6</ele>
        <time>2018-04-15T13:22:33Z</time>
      </trkpt>
      <trkpt lat="48.37112" lon="2.8037">
        <ele>78.7</ele>
        <time>2018-04-15T13:22:41Z</time>
      </trkpt>
      <trkpt lat="48.37113" lon="2.80365">
        <ele>78.9</ele>
        <time>2018-04-15T13:23:05Z</time>
      </trkpt>
      <trkpt lat="48.37115" lon="2.80361">
        <ele>78.9</ele>
        <time>2018-04-15T13:23:38Z</time>
      </trkpt>
      <trkpt lat="48.37114" lon="2.80355">
        <ele>79.1</ele>
        <time>2018-04-15T13:23:40Z</time>
      </trkpt>
      <trkpt lat="48.37112" lon="2.80351">
        <ele>79.2</ele>
        <time>2018-04-15T13:23:42Z</time>
      </trkpt>
      <trkpt lat="48.3711" lon="2.80348">
        <ele>79.3</ele>
        <time>2018-04-15T13:23:44Z</time>
      </trkpt>
      <trkpt lat="48.37106" lon="2.80346">
        <ele>79.5</ele>
        <time>2018-04-15T13:23:47Z</time>
      </trkpt>
      <trkpt lat="48.37103" lon="2.80342">
        <ele>79.6</ele>
        <time>2018-04-15T13:23:49Z</time>
      </trkpt>
      <trkpt lat="48.37101" lon="2.80338">
        <ele>79.7</ele>
        <time>2018-04-15T13:23:50Z</time>
      </trkpt>
      <trkpt lat="48.37097" lon="2.80331">
        <ele>79.8</ele>
        <time>2018-04-15T13:23:52Z</time>
      </trkpt>
      <trkpt lat="48.37095" lon="2.80327">
        <ele>83.9</ele>
        <time>2018-04-15T13:23:53Z</time>
      </trkpt>
      <trkpt lat="48.37092" lon="2.80321">
        <ele>85.8</ele>
        <time>2018-04-15T13:23:55Z</time>
      </trkpt>
      <trkpt lat="48.37089" lon="2.80313">
        <ele>87.9</ele>
        <time>2018-04-15T13:23:57Z</time>
      </trkpt>
      <trkpt lat="48.37087" lon="2.80308">
        <ele>89.5</ele>
        <time>2018-04-15T13:23:59Z</time>
      </trkpt>
      <trkpt lat="48.37085" lon="2.80301">
        <ele>91.2</ele>
        <time>2018-04-15T13:24:01Z</time>
      </trkpt>
      <trkpt lat="48.37084" lon="2.80295">
        <ele>92.9</ele>
        <time>2018-04-15T13:24:03Z</time>
      </trkpt>
      <trkpt lat="48.37081" lon="2.8029">
        <ele>94.5</ele>
        <time>2018-04-15T13:24:05Z</time>
      </trkpt>
      <trkpt lat="48.37078" lon="2.80289">
        <ele>95.5</ele>
        <time>2018-04-15T13:24:07Z</time>
      </trkpt>
      <trkpt lat="48.37075" lon="2.80289">
        <ele>96.9</ele>
        <time>2018-04-15T13:24:10Z</time>
      </trkpt>
      <trkpt lat="48.37072" lon="2.80289">
        <ele>96.8</ele>
        <time>2018-04-15T13:24:12Z</time>
      </trkpt>
      <trkpt lat="48.37067" lon="2.80288">
        <ele>96.7</ele>
        <time>2018-04-15T13:24:14Z</time>
      </trkpt>
      <trkpt lat="48.37064" lon="2.80288">
        <ele>96.6</ele>
        <time>2018-04-15T13:24:16Z</time>
      </trkpt>
      <trkpt lat="48.3706" lon="2.80289">
        <ele>96.7</ele>
        <time>2018-04-15T13:24:18Z</time>
      </trkpt>
      <trkpt lat="48.37056" lon="2.80289">
        <ele>96.8</ele>
        <time>2018-04-15T13:24:19Z</time>
      </trkpt>
      <trkpt lat="48.37052" lon="2.8029">
        <ele>96.9</ele>
        <time>2018-04-15T13:24:21Z</time>
      </trkpt>
      <trkpt lat="48.37048" lon="2.80291">
        <ele>96.9</ele>
        <time>2018-04-15T13:24:23Z</time>
      </trkpt>
      <trkpt lat="48.37045" lon="2.80291">
        <ele>97</ele>
        <time>2018-04-15T13:24:24Z</time>
      </trkpt>
      <trkpt lat="48.37041" lon="2.80293">
        <ele>97.1</ele>
        <time>2018-04-15T13:24:26Z</time>
      </trkpt>
      <trkpt lat="48.37036" lon="2.80295">
        <ele>97.3</ele>
        <time>2018-04-15T13:24:28Z</time>
      </trkpt>
      <trkpt lat="48.37031" lon="2.80295">
        <ele>97.3</ele>
        <time>2018-04-15T13:24:30Z</time>
      </trkpt>
      <trkpt lat="48.37028" lon="2.80295">
        <ele>97.1</ele>
        <time>2018-04-15T13:24:33Z</time>
      </trkpt>
      <trkpt lat="48.37025" lon="2.80293">
        <ele>97.3</ele>
        <time>2018-04-15T13:24:35Z</time>
      </trkpt>
      <trkpt lat="48.37021" lon="2.80291">
        <ele>97.6</ele>
        <time>2018-04-15T13:24:37Z</time>
      </trkpt>
      <trkpt lat="48.37018" lon="2.8029">
        <ele>97.9</ele>
        <time>2018-04-15T13:24:40Z</time>
      </trkpt>
      <trkpt lat="48.37014" lon="2.80287">
        <ele>98.4</ele>
        <time>2018-04-15T13:24:43Z</time>
      </trkpt>
      <trkpt lat="48.37011" lon="2.80285">
        <ele>98.9</ele>
        <time>2018-04-15T13:24:45Z</time>
      </trkpt>
      <trkpt lat="48.37008" lon="2.80282">
        <ele>99.5</ele>
        <time>2018-04-15T13:24:48Z</time>
      </trkpt>
      <trkpt lat="48.37004" lon="2.80279">
        <ele>99.9</ele>
        <time>2018-04-15T13:24:51Z</time>
      </trkpt>
      <trkpt lat="48.37002" lon="2.80278">
        <ele>100.1</ele>
        <time>2018-04-15T13:24:53Z</time>
      </trkpt>
      <trkpt lat="48.36999" lon="2.80275">
        <ele>100.3</ele>
        <time>2018-04-15T13:24:55Z</time>
      </trkpt>
      <trkpt lat="48.36996" lon="2.80273">
        <ele>100.4</ele>
        <time>2018-04-15T13:24:58Z</time>
      </trkpt>
      <trkpt lat="48.36991" lon="2.80271">
        <ele>100.4</ele>
        <time>2018-04-15T13:25:01Z</time>
      </trkpt>
      <trkpt lat="48.36988" lon="2.80267">
        <ele>100.2</ele>
        <time>2018-04-15T13:25:02Z</time>
      </trkpt>
      <trkpt lat="48.36984" lon="2.80263">
        <ele>100</ele>
        <time>2018-04-15T13:25:03Z</time>
      </trkpt>
      <trkpt lat="48.36981" lon="2.80259">
        <ele>99.8</ele>
        <time>2018-04-15T13:25:04Z</time>
      </trkpt>
      <trkpt lat="48.36978" lon="2.80256">
        <ele>99.6</ele>
        <time>2018-04-15T13:25:05Z</time>
      </trkpt>
      <trkpt lat="48.36974" lon="2.80252">
        <ele>99.4</ele>
        <time>2018-04-15T13:25:06Z</time>
      </trkpt>
      <trkpt lat="48.3697" lon="2.80247">
        <ele>99.2</ele>
        <time>2018-04-15T13:25:08Z</time>
      </trkpt>
      <trkpt lat="48.36966" lon="2.80241">
        <ele>98.4</ele>
        <time>2018-04-15T13:25:10Z</time>
      </trkpt>
      <trkpt lat="48.36963" lon="2.80238">
        <ele>98</ele>
        <time>2018-04-15T13:25:11Z</time>
      </trkpt>
      <trkpt lat="48.36961" lon="2.80234">
        <ele>98</ele>
        <time>2018-04-15T13:25:12Z</time>
      </trkpt>
      <trkpt lat="48.36959" lon="2.80229">
        <ele>98</ele>
        <time>2018-04-15T13:25:13Z</time>
      </trkpt>
      <trkpt lat="48.36955" lon="2.80224">
        <ele>98</ele>
        <time>2018-04-15T13:25:14Z</time>
      </trkpt>
      <trkpt lat="48.36953" lon="2.8022">
        <ele>98</ele>
        <time>2018-04-15T13:25:15Z</time>
      </trkpt>
      <trkpt lat="48.36951" lon="2.80216">
        <ele>98</ele>
        <time>2018-04-15T13:25:16Z</time>
      </trkpt>
      <trkpt lat="48.36949" lon="2.80213">
        <ele>98</ele>
        <time>2018-04-15T13:25:17Z</time>
      </trkpt>
      <trkpt lat="48.36948" lon="2.80208">
        <ele>99.1</ele>
        <time>2018-04-15T13:25:18Z</time>
      </trkpt>
      <trkpt lat="48.36947" lon="2.80204">
        <ele>99.2</ele>
        <time>2018-04-15T13:25:19Z</time>
      </trkpt>
      <trkpt lat="48.36946" lon="2.80198">
        <ele>99.3</ele>
        <time>2018-04-15T13:25:20Z</time>
      </trkpt>
      <trkpt lat="48.36945" lon="2.80191">
        <ele>99.4</ele>
        <time>2018-04-15T13:25:21Z</time>
      </trkpt>
      <trkpt lat="48.36945" lon="2.80186">
        <ele>99.5</ele>
        <time>2018-04-15T13:25:23Z</time>
      </trkpt>
      <trkpt lat="48.36946" lon="2.80178">
        <ele>99.7</ele>
        <time>2018-04-15T13:25:25Z</time>
      </trkpt>
      <trkpt lat="48.36946" lon="2.80174">
        <ele>99.8</ele>
        <time>2018-04-15T13:25:26Z</time>
      </trkpt>
      <trkpt lat="48.36945" lon="2.80167">
        <ele>99.9</ele>
        <time>2018-04-15T13:25:28Z</time>
      </trkpt>
      <trkpt lat="48.36945" lon="2.80162">
        <ele>100</ele>
        <time>2018-04-15T13:25:29Z</time>
      </trkpt>
      <trkpt lat="48.36944" lon="2.80155">
        <ele>100</ele>
        <time>2018-04-15T13:25:31Z</time>
      </trkpt>
      <trkpt lat="48.36943" lon="2.8015">
        <ele>99.9</ele>
        <time>2018-04-15T13:25:33Z</time>
      </trkpt>
      <trkpt lat="48.36942" lon="2.80145">
        <ele>99.9</ele>
        <time>2018-04-15T13:25:34Z</time>
      </trkpt>
      <trkpt lat="48.36941" lon="2.80136">
        <ele>99.8</ele>
        <time>2018-04-15T13:25:36Z</time>
      </trkpt>
      <trkpt lat="48.36941" lon="2.80128">
        <ele>99.7</ele>
        <time>2018-04-15T13:25:37Z</time>
      </trkpt>
      <trkpt lat="48.36939" lon="2.80122">
        <ele>99.6</ele>
        <time>2018-04-15T13:25:38Z</time>
      </trkpt>
      <trkpt lat="48.36938" lon="2.80117">
        <ele>99.6</ele>
        <time>2018-04-15T13:25:39Z</time>
      </trkpt>
      <trkpt lat="48.36937" lon="2.80112">
        <ele>99.6</ele>
        <time>2018-04-15T13:25:40Z</time>
      </trkpt>
      <trkpt lat="48.36936" lon="2.80106">
        <ele>99.6</ele>
        <time>2018-04-15T13:25:41Z</time>
      </trkpt>
      <trkpt lat="48.36936" lon="2.80097">
        <ele>99.5</ele>
        <time>2018-04-15T13:25:42Z</time>
      </trkpt>
      <trkpt lat="48.36936" lon="2.80092">
        <ele>99.5</ele>
        <time>2018-04-15T13:25:43Z</time>
      </trkpt>
      <trkpt lat="48.36936" lon="2.80087">
        <ele>99.5</ele>
        <time>2018-04-15T13:25:44Z</time>
      </trkpt>
      <trkpt lat="48.36934" lon="2.80078">
        <ele>99.4</ele>
        <time>2018-04-15T13:25:46Z</time>
      </trkpt>
      <trkpt lat="48.36935" lon="2.80073">
        <ele>99.4</ele>
        <time>2018-04-15T13:25:47Z</time>
      </trkpt>
      <trkpt lat="48.36935" lon="2.80067">
        <ele>99.3</ele>
        <time>2018-04-15T13:25:48Z</time>
      </trkpt>
      <trkpt lat="48.36935" lon="2.8006">
        <ele>99.3</ele>
        <time>2018-04-15T13:25:50Z</time>
      </trkpt>
      <trkpt lat="48.36933" lon="2.80055">
        <ele>99.3</ele>
        <time>2018-04-15T13:25:51Z</time>
      </trkpt>
      <trkpt lat="48.36932" lon="2.80051">
        <ele>99.3</ele>
        <time>2018-04-15T13:25:52Z</time>
      </trkpt>
      <trkpt lat="48.36931" lon="2.80047">
        <ele>99.3</ele>
        <time>2018-04-15T13:25:53Z</time>
      </trkpt>
      <trkpt lat="48.36929" lon="2.80041">
        <ele>99.3</ele>
        <time>2018-04-15T13:25:54Z</time>
      </trkpt>
      <trkpt lat="48.36927" lon="2.80036">
        <ele>99.4</ele>
        <time>2018-04-15T13:25:55Z</time>
      </trkpt>
      <trkpt lat="48.36925" lon="2.80033">
        <ele>99.4</ele>
        <time>2018-04-15T13:25:56Z</time>
      </trkpt>
      <trkpt lat="48.36921" lon="2.80028">
        <ele>99.4</ele>
        <time>2018-04-15T13:25:57Z</time>
      </trkpt>
      <trkpt lat="48.36918" lon="2.80022">
        <ele>99.5</ele>
        <time>2018-04-15T13:25:58Z</time>
      </trkpt>
      <trkpt lat="48.36916" lon="2.80018">
        <ele>99.5</ele>
        <time>2018-04-15T13:25:59Z</time>
      </trkpt>
      <trkpt lat="48.36914" lon="2.80013">
        <ele>99.6</ele>
        <time>2018-04-15T13:26:00Z</time>
      </trkpt>
      <trkpt lat="48.3691" lon="2.80008">
        <ele>99.6</ele>
        <time>2018-04-15T13:26:02Z</time>
      </trkpt>
      <trkpt lat="48.36909" lon="2.80004">
        <ele>99.7</ele>
        <time>2018-04-15T13:26:03Z</time>
      </trkpt>
      <trkpt lat="48.36907" lon="2.8">
        <ele>99.7</ele>
        <time>2018-04-15T13:26:04Z</time>
      </trkpt>
      <trkpt lat="48.36905" lon="2.79997">
        <ele>99.7</ele>
        <time>2018-04-15T13:26:05Z</time>
      </trkpt>
      <trkpt lat="48.36902" lon="2.79991">
        <ele>99.7</ele>
        <time>2018-04-15T13:26:06Z</time>
      </trkpt>
      <trkpt lat="48.36899" lon="2.79987">
        <ele>99.8</ele>
        <time>2018-04-15T13:26:07Z</time>
      </trkpt>
      <trkpt lat="48.36897" lon="2.79984">
        <ele>99.8</ele>
        <time>2018-04-15T13:26:08Z</time>
      </trkpt>
      <trkpt lat="48.36894" lon="2.7998">
        <ele>99.8</ele>
        <time>2018-04-15T13:26:09Z</time>
      </trkpt>
      <trkpt lat="48.3689" lon="2.79975">
        <ele>99.9</ele>
        <time>2018-04-15T13:26:10Z</time>
      </trkpt>
      <trkpt lat="48.36888" lon="2.7997">
        <ele>99.9</ele>
        <time>2018-04-15T13:26:11Z</time>
      </trkpt>
      <trkpt lat="48.36886" lon="2.79967">
        <ele>99.9</ele>
        <time>2018-04-15T13:26:12Z</time>
      </trkpt>
      <trkpt lat="48.36883" lon="2.79963">
        <ele>99.9</ele>
        <time>2018-04-15T13:26:13Z</time>
      </trkpt>
      <trkpt lat="48.36881" lon="2.79959">
        <ele>99.9</ele>
        <time>2018-04-15T13:26:14Z</time>
      </trkpt>
      <trkpt lat="48.36879" lon="2.79955">
        <ele>100</ele>
        <time>2018-04-15T13:26:15Z</time>
      </trkpt>
      <trkpt lat="48.36877" lon="2.79949">
        <ele>100</ele>
        <time>2018-04-15T13:26:16Z</time>
      </trkpt>
      <trkpt lat="48.36874" lon="2.79941">
        <ele>99.9</ele>
        <time>2018-04-15T13:26:18Z</time>
      </trkpt>
      <trkpt lat="48.36875" lon="2.79935">
        <ele>99.8</ele>
        <time>2018-04-15T13:26:20Z</time>
      </trkpt>
      <trkpt lat="48.36876" lon="2.7993">
        <ele>99.7</ele>
        <time>2018-04-15T13:26:22Z</time>
      </trkpt>
      <trkpt lat="48.36876" lon="2.79923">
        <ele>99.7</ele>
        <time>2018-04-15T13:26:24Z</time>
      </trkpt>
      <trkpt lat="48.36877" lon="2.79918">
        <ele>99.6</ele>
        <time>2018-04-15T13:26:25Z</time>
      </trkpt>
      <trkpt lat="48.36877" lon="2.79914">
        <ele>99.6</ele>
        <time>2018-04-15T13:26:26Z</time>
      </trkpt>
      <trkpt lat="48.36879" lon="2.7991">
        <ele>99.5</ele>
        <time>2018-04-15T13:26:27Z</time>
      </trkpt>
      <trkpt lat="48.3688" lon="2.79902">
        <ele>99.4</ele>
        <time>2018-04-15T13:26:29Z</time>
      </trkpt>
      <trkpt lat="48.36881" lon="2.79896">
        <ele>99.4</ele>
        <time>2018-04-15T13:26:30Z</time>
      </trkpt>
      <trkpt lat="48.36881" lon="2.79891">
        <ele>99.3</ele>
        <time>2018-04-15T13:26:31Z</time>
      </trkpt>
      <trkpt lat="48.36882" lon="2.79886">
        <ele>99.3</ele>
        <time>2018-04-15T13:26:32Z</time>
      </trkpt>
      <trkpt lat="48.36883" lon="2.7988">
        <ele>99.2</ele>
        <time>2018-04-15T13:26:33Z</time>
      </trkpt>
      <trkpt lat="48.36884" lon="2.79875">
        <ele>99.2</ele>
        <time>2018-04-15T13:26:34Z</time>
      </trkpt>
      <trkpt lat="48.36885" lon="2.79869">
        <ele>99.1</ele>
        <time>2018-04-15T13:26:35Z</time>
      </trkpt>
      <trkpt lat="48.36887" lon="2.79864">
        <ele>99.1</ele>
        <time>2018-04-15T13:26:37Z</time>
      </trkpt>
      <trkpt lat="48.36887" lon="2.7986">
        <ele>99</ele>
        <time>2018-04-15T13:26:38Z</time>
      </trkpt>
      <trkpt lat="48.36889" lon="2.79851">
        <ele>98.9</ele>
        <time>2018-04-15T13:26:40Z</time>
      </trkpt>
      <trkpt lat="48.3689" lon="2.79846">
        <ele>98.8</ele>
        <time>2018-04-15T13:26:41Z</time>
      </trkpt>
      <trkpt lat="48.36891" lon="2.7984">
        <ele>98.6</ele>
        <time>2018-04-15T13:26:42Z</time>
      </trkpt>
      <trkpt lat="48.36892" lon="2.79834">
        <ele>98.4</ele>
        <time>2018-04-15T13:26:43Z</time>
      </trkpt>
      <trkpt lat="48.36893" lon="2.79828">
        <ele>98</ele>
        <time>2018-04-15T13:26:44Z</time>
      </trkpt>
      <trkpt lat="48.36894" lon="2.79821">
        <ele>98.1</ele>
        <time>2018-04-15T13:26:45Z</time>
      </trkpt>
      <trkpt lat="48.36895" lon="2.79814">
        <ele>98.1</ele>
        <time>2018-04-15T13:26:46Z</time>
      </trkpt>
      <trkpt lat="48.36896" lon="2.79807">
        <ele>98.2</ele>
        <time>2018-04-15T13:26:47Z</time>
      </trkpt>
      <trkpt lat="48.36897" lon="2.79802">
        <ele>98.3</ele>
        <time>2018-04-15T13:26:48Z</time>
      </trkpt>
      <trkpt lat="48.36898" lon="2.79797">
        <ele>98.3</ele>
        <time>2018-04-15T13:26:49Z</time>
      </trkpt>
      <trkpt lat="48.369" lon="2.79791">
        <ele>98.3</ele>
        <time>2018-04-15T13:26:50Z</time>
      </trkpt>
      <trkpt lat="48.369" lon="2.79786">
        <ele>98.4</ele>
        <time>2018-04-15T13:26:51Z</time>
      </trkpt>
      <trkpt lat="48.36902" lon="2.79781">
        <ele>98.4</ele>
        <time>2018-04-15T13:26:52Z</time>
      </trkpt>
      <trkpt lat="48.36903" lon="2.79775">
        <ele>98.4</ele>
        <time>2018-04-15T13:26:53Z</time>
      </trkpt>
      <trkpt lat="48.36905" lon="2.79769">
        <ele>98.4</ele>
        <time>2018-04-15T13:26:54Z</time>
      </trkpt>
      <trkpt lat="48.36906" lon="2.79762">
        <ele>98.4</ele>
        <time>2018-04-15T13:26:55Z</time>
      </trkpt>
      <trkpt lat="48.36907" lon="2.79757">
        <ele>98.4</ele>
        <time>2018-04-15T13:26:56Z</time>
      </trkpt>
      <trkpt lat="48.36909" lon="2.79752">
        <ele>98.4</ele>
        <time>2018-04-15T13:26:57Z</time>
      </trkpt>
      <trkpt lat="48.3691" lon="2.79746">
        <ele>98.4</ele>
        <time>2018-04-15T13:26:58Z</time>
      </trkpt>
      <trkpt lat="48.36912" lon="2.79742">
        <ele>98.4</ele>
        <time>2018-04-15T13:26:59Z</time>
      </trkpt>
      <trkpt lat="48.36914" lon="2.79731">
        <ele>98.3</ele>
        <time>2018-04-15T13:27:01Z</time>
      </trkpt>
      <trkpt lat="48.36915" lon="2.79725">
        <ele>98.3</ele>
        <time>2018-04-15T13:27:02Z</time>
      </trkpt>
      <trkpt lat="48.36916" lon="2.79721">
        <ele>98.3</ele>
        <time>2018-04-15T13:27:03Z</time>
      </trkpt>
      <trkpt lat="48.36916" lon="2.79714">
        <ele>98.2</ele>
        <time>2018-04-15T13:27:04Z</time>
      </trkpt>
      <trkpt lat="48.36918" lon="2.79706">
        <ele>98.2</ele>
        <time>2018-04-15T13:27:05Z</time>
      </trkpt>
      <trkpt lat="48.36919" lon="2.79699">
        <ele>98.3</ele>
        <time>2018-04-15T13:27:06Z</time>
      </trkpt>
      <trkpt lat="48.3692" lon="2.79694">
        <ele>98.3</ele>
        <time>2018-04-15T13:27:07Z</time>
      </trkpt>
      <trkpt lat="48.36921" lon="2.79689">
        <ele>98.3</ele>
        <time>2018-04-15T13:27:08Z</time>
      </trkpt>
      <trkpt lat="48.36922" lon="2.79683">
        <ele>98.4</ele>
        <time>2018-04-15T13:27:09Z</time>
      </trkpt>
      <trkpt lat="48.36923" lon="2.79678">
        <ele>98.4</ele>
        <time>2018-04-15T13:27:10Z</time>
      </trkpt>
      <trkpt lat="48.36925" lon="2.79672">
        <ele>98.5</ele>
        <time>2018-04-15T13:27:11Z</time>
      </trkpt>
      <trkpt lat="48.36926" lon="2.79668">
        <ele>98.6</ele>
        <time>2018-04-15T13:27:12Z</time>
      </trkpt>
      <trkpt lat="48.36927" lon="2.79663">
        <ele>98.7</ele>
        <time>2018-04-15T13:27:13Z</time>
      </trkpt>
      <trkpt lat="48.36928" lon="2.79657">
        <ele>98.8</ele>
        <time>2018-04-15T13:27:14Z</time>
      </trkpt>
      <trkpt lat="48.36928" lon="2.79653">
        <ele>98.9</ele>
        <time>2018-04-15T13:27:15Z</time>
      </trkpt>
      <trkpt lat="48.36929" lon="2.79647">
        <ele>99</ele>
        <time>2018-04-15T13:27:16Z</time>
      </trkpt>
      <trkpt lat="48.3693" lon="2.79642">
        <ele>99.1</ele>
        <time>2018-04-15T13:27:17Z</time>
      </trkpt>
      <trkpt lat="48.36931" lon="2.79637">
        <ele>99.2</ele>
        <time>2018-04-15T13:27:18Z</time>
      </trkpt>
      <trkpt lat="48.36931" lon="2.79632">
        <ele>99.3</ele>
        <time>2018-04-15T13:27:19Z</time>
      </trkpt>
      <trkpt lat="48.36932" lon="2.79626">
        <ele>99.4</ele>
        <time>2018-04-15T13:27:20Z</time>
      </trkpt>
      <trkpt lat="48.36933" lon="2.79621">
        <ele>99.5</ele>
        <time>2018-04-15T13:27:21Z</time>
      </trkpt>
      <trkpt lat="48.36935" lon="2.79615">
        <ele>99.5</ele>
        <time>2018-04-15T13:27:22Z</time>
      </trkpt>
      <trkpt lat="48.36935" lon="2.7961">
        <ele>99.6</ele>
        <time>2018-04-15T13:27:23Z</time>
      </trkpt>
      <trkpt lat="48.36936" lon="2.79605">
        <ele>99.5</ele>
        <time>2018-04-15T13:27:24Z</time>
      </trkpt>
      <trkpt lat="48.36938" lon="2.79597">
        <ele>99.4</ele>
        <time>2018-04-15T13:27:25Z</time>
      </trkpt>
      <trkpt lat="48.36939" lon="2.79589">
        <ele>99.1</ele>
        <time>2018-04-15T13:27:26Z</time>
      </trkpt>
      <trkpt lat="48.3694" lon="2.79583">
        <ele>98.9</ele>
        <time>2018-04-15T13:27:27Z</time>
      </trkpt>
      <trkpt lat="48.3694" lon="2.79578">
        <ele>98.7</ele>
        <time>2018-04-15T13:27:28Z</time>
      </trkpt>
      <trkpt lat="48.36941" lon="2.79571">
        <ele>98.4</ele>
        <time>2018-04-15T13:27:29Z</time>
      </trkpt>
      <trkpt lat="48.36943" lon="2.79564">
        <ele>98.2</ele>
        <time>2018-04-15T13:27:30Z</time>
      </trkpt>
      <trkpt lat="48.36944" lon="2.79557">
        <ele>97.9</ele>
        <time>2018-04-15T13:27:31Z</time>
      </trkpt>
      <trkpt lat="48.36945" lon="2.79551">
        <ele>97.7</ele>
        <time>2018-04-15T13:27:32Z</time>
      </trkpt>
      <trkpt lat="48.36946" lon="2.79546">
        <ele>97.6</ele>
        <time>2018-04-15T13:27:33Z</time>
      </trkpt>
      <trkpt lat="48.36947" lon="2.7954">
        <ele>97.5</ele>
        <time>2018-04-15T13:27:34Z</time>
      </trkpt>
      <trkpt lat="48.36949" lon="2.79534">
        <ele>97.3</ele>
        <time>2018-04-15T13:27:35Z</time>
      </trkpt>
      <trkpt lat="48.36949" lon="2.79529">
        <ele>97.2</ele>
        <time>2018-04-15T13:27:36Z</time>
      </trkpt>
      <trkpt lat="48.36952" lon="2.79523">
        <ele>97.1</ele>
        <time>2018-04-15T13:27:37Z</time>
      </trkpt>
      <trkpt lat="48.36955" lon="2.79516">
        <ele>97.1</ele>
        <time>2018-04-15T13:27:38Z</time>
      </trkpt>
      <trkpt lat="48.36958" lon="2.7951">
        <ele>97</ele>
        <time>2018-04-15T13:27:39Z</time>
      </trkpt>
      <trkpt lat="48.36961" lon="2.79505">
        <ele>97</ele>
        <time>2018-04-15T13:27:40Z</time>
      </trkpt>
      <trkpt lat="48.36964" lon="2.79503">
        <ele>97</ele>
        <time>2018-04-15T13:27:41Z</time>
      </trkpt>
      <trkpt lat="48.36967" lon="2.795">
        <ele>96.9</ele>
        <time>2018-04-15T13:27:42Z</time>
      </trkpt>
      <trkpt lat="48.36969" lon="2.79497">
        <ele>96.9</ele>
        <time>2018-04-15T13:27:43Z</time>
      </trkpt>
      <trkpt lat="48.36971" lon="2.79493">
        <ele>96.9</ele>
        <time>2018-04-15T13:27:44Z</time>
      </trkpt>
      <trkpt lat="48.36974" lon="2.79488">
        <ele>96.9</ele>
        <time>2018-04-15T13:27:45Z</time>
      </trkpt>
      <trkpt lat="48.36976" lon="2.79485">
        <ele>96.8</ele>
        <time>2018-04-15T13:27:46Z</time>
      </trkpt>
      <trkpt lat="48.3698" lon="2.7948">
        <ele>96.8</ele>
        <time>2018-04-15T13:27:47Z</time>
      </trkpt>
      <trkpt lat="48.36983" lon="2.79473">
        <ele>96.8</ele>
        <time>2018-04-15T13:27:48Z</time>
      </trkpt>
      <trkpt lat="48.36987" lon="2.79467">
        <ele>96.8</ele>
        <time>2018-04-15T13:27:49Z</time>
      </trkpt>
      <trkpt lat="48.3699" lon="2.7946">
        <ele>96.8</ele>
        <time>2018-04-15T13:27:50Z</time>
      </trkpt>
      <trkpt lat="48.36993" lon="2.79455">
        <ele>96.9</ele>
        <time>2018-04-15T13:27:51Z</time>
      </trkpt>
      <trkpt lat="48.36996" lon="2.7945">
        <ele>96.9</ele>
        <time>2018-04-15T13:27:52Z</time>
      </trkpt>
      <trkpt lat="48.36999" lon="2.79446">
        <ele>97</ele>
        <time>2018-04-15T13:27:53Z</time>
      </trkpt>
      <trkpt lat="48.37002" lon="2.79441">
        <ele>97</ele>
        <time>2018-04-15T13:27:54Z</time>
      </trkpt>
      <trkpt lat="48.37003" lon="2.79437">
        <ele>97.1</ele>
        <time>2018-04-15T13:27:55Z</time>
      </trkpt>
      <trkpt lat="48.37005" lon="2.79433">
        <ele>97.2</ele>
        <time>2018-04-15T13:27:56Z</time>
      </trkpt>
      <trkpt lat="48.37006" lon="2.79428">
        <ele>97.3</ele>
        <time>2018-04-15T13:27:57Z</time>
      </trkpt>
      <trkpt lat="48.37008" lon="2.79424">
        <ele>97.4</ele>
        <time>2018-04-15T13:27:58Z</time>
      </trkpt>
      <trkpt lat="48.37011" lon="2.79419">
        <ele>97.5</ele>
        <time>2018-04-15T13:27:59Z</time>
      </trkpt>
      <trkpt lat="48.37014" lon="2.79414">
        <ele>97.7</ele>
        <time>2018-04-15T13:28:00Z</time>
      </trkpt>
      <trkpt lat="48.37016" lon="2.7941">
        <ele>97.8</ele>
        <time>2018-04-15T13:28:01Z</time>
      </trkpt>
      <trkpt lat="48.37019" lon="2.79406">
        <ele>98</ele>
        <time>2018-04-15T13:28:02Z</time>
      </trkpt>
      <trkpt lat="48.37022" lon="2.79401">
        <ele>98.2</ele>
        <time>2018-04-15T13:28:03Z</time>
      </trkpt>
      <trkpt lat="48.37025" lon="2.79396">
        <ele>98.4</ele>
        <time>2018-04-15T13:28:04Z</time>
      </trkpt>
      <trkpt lat="48.37028" lon="2.79393">
        <ele>98.5</ele>
        <time>2018-04-15T13:28:05Z</time>
      </trkpt>
      <trkpt lat="48.3703" lon="2.79389">
        <ele>98.6</ele>
        <time>2018-04-15T13:28:06Z</time>
      </trkpt>
      <trkpt lat="48.37032" lon="2.79386">
        <ele>98.7</ele>
        <time>2018-04-15T13:28:07Z</time>
      </trkpt>
      <trkpt lat="48.37035" lon="2.7938">
        <ele>98.9</ele>
        <time>2018-04-15T13:28:09Z</time>
      </trkpt>
      <trkpt lat="48.37037" lon="2.79375">
        <ele>98.9</ele>
        <time>2018-04-15T13:28:10Z</time>
      </trkpt>
      <trkpt lat="48.37038" lon="2.79371">
        <ele>99</ele>
        <time>2018-04-15T13:28:11Z</time>
      </trkpt>
      <trkpt lat="48.3704" lon="2.79366">
        <ele>99</ele>
        <time>2018-04-15T13:28:12Z</time>
      </trkpt>
      <trkpt lat="48.37041" lon="2.7936">
        <ele>99</ele>
        <time>2018-04-15T13:28:13Z</time>
      </trkpt>
      <trkpt lat="48.37043" lon="2.79354">
        <ele>99.1</ele>
        <time>2018-04-15T13:28:14Z</time>
      </trkpt>
      <trkpt lat="48.37045" lon="2.79346">
        <ele>99.1</ele>
        <time>2018-04-15T13:28:16Z</time>
      </trkpt>
      <trkpt lat="48.37045" lon="2.79342">
        <ele>99.1</ele>
        <time>2018-04-15T13:28:17Z</time>
      </trkpt>
      <trkpt lat="48.37046" lon="2.79337">
        <ele>99.2</ele>
        <time>2018-04-15T13:28:18Z</time>
      </trkpt>
      <trkpt lat="48.37047" lon="2.79331">
        <ele>99.2</ele>
        <time>2018-04-15T13:28:19Z</time>
      </trkpt>
      <trkpt lat="48.37048" lon="2.79325">
        <ele>99.2</ele>
        <time>2018-04-15T13:28:20Z</time>
      </trkpt>
      <trkpt lat="48.37049" lon="2.7932">
        <ele>99.1</ele>
        <time>2018-04-15T13:28:21Z</time>
      </trkpt>
      <trkpt lat="48.3705" lon="2.79315">
        <ele>99.1</ele>
        <time>2018-04-15T13:28:22Z</time>
      </trkpt>
      <trkpt lat="48.37052" lon="2.79309">
        <ele>99</ele>
        <time>2018-04-15T13:28:23Z</time>
      </trkpt>
      <trkpt lat="48.37053" lon="2.79305">
        <ele>98.9</ele>
        <time>2018-04-15T13:28:24Z</time>
      </trkpt>
      <trkpt lat="48.37055" lon="2.793">
        <ele>98.8</ele>
        <time>2018-04-15T13:28:25Z</time>
      </trkpt>
      <trkpt lat="48.37057" lon="2.79296">
        <ele>98.8</ele>
        <time>2018-04-15T13:28:26Z</time>
      </trkpt>
      <trkpt lat="48.37059" lon="2.79291">
        <ele>98.8</ele>
        <time>2018-04-15T13:28:27Z</time>
      </trkpt>
      <trkpt lat="48.37062" lon="2.79285">
        <ele>98.9</ele>
        <time>2018-04-15T13:28:28Z</time>
      </trkpt>
      <trkpt lat="48.37063" lon="2.79281">
        <ele>99</ele>
        <time>2018-04-15T13:28:29Z</time>
      </trkpt>
      <trkpt lat="48.37065" lon="2.79276">
        <ele>99</ele>
        <time>2018-04-15T13:28:30Z</time>
      </trkpt>
      <trkpt lat="48.37067" lon="2.79272">
        <ele>99.1</ele>
        <time>2018-04-15T13:28:31Z</time>
      </trkpt>
      <trkpt lat="48.37068" lon="2.79265">
        <ele>99.3</ele>
        <time>2018-04-15T13:28:32Z</time>
      </trkpt>
      <trkpt lat="48.3707" lon="2.79258">
        <ele>99.3</ele>
        <time>2018-04-15T13:28:33Z</time>
      </trkpt>
      <trkpt lat="48.37072" lon="2.7925">
        <ele>99.4</ele>
        <time>2018-04-15T13:28:34Z</time>
      </trkpt>
      <trkpt lat="48.37073" lon="2.79244">
        <ele>99.6</ele>
        <time>2018-04-15T13:28:35Z</time>
      </trkpt>
      <trkpt lat="48.37074" lon="2.79238">
        <ele>99.7</ele>
        <time>2018-04-15T13:28:36Z</time>
      </trkpt>
      <trkpt lat="48.37075" lon="2.79232">
        <ele>99.8</ele>
        <time>2018-04-15T13:28:37Z</time>
      </trkpt>
      <trkpt lat="48.37076" lon="2.79227">
        <ele>99.9</ele>
        <time>2018-04-15T13:28:38Z</time>
      </trkpt>
      <trkpt lat="48.37077" lon="2.79223">
        <ele>100</ele>
        <time>2018-04-15T13:28:39Z</time>
      </trkpt>
      <trkpt lat="48.37078" lon="2.79217">
        <ele>100.1</ele>
        <time>2018-04-15T13:28:41Z</time>
      </trkpt>
      <trkpt lat="48.37081" lon="2.7921">
        <ele>100.3</ele>
        <time>2018-04-15T13:28:43Z</time>
      </trkpt>
      <trkpt lat="48.37082" lon="2.79207">
        <ele>100.4</ele>
        <time>2018-04-15T13:28:44Z</time>
      </trkpt>
      <trkpt lat="48.37084" lon="2.79201">
        <ele>100.6</ele>
        <time>2018-04-15T13:28:45Z</time>
      </trkpt>
      <trkpt lat="48.37088" lon="2.79193">
        <ele>100.9</ele>
        <time>2018-04-15T13:28:46Z</time>
      </trkpt>
      <trkpt lat="48.37091" lon="2.79187">
        <ele>101</ele>
        <time>2018-04-15T13:28:47Z</time>
      </trkpt>
      <trkpt lat="48.37093" lon="2.79181">
        <ele>101</ele>
        <time>2018-04-15T13:28:48Z</time>
      </trkpt>
      <trkpt lat="48.37095" lon="2.79176">
        <ele>101.1</ele>
        <time>2018-04-15T13:28:49Z</time>
      </trkpt>
      <trkpt lat="48.37097" lon="2.7917">
        <ele>101.2</ele>
        <time>2018-04-15T13:28:50Z</time>
      </trkpt>
      <trkpt lat="48.37099" lon="2.79166">
        <ele>101.3</ele>
        <time>2018-04-15T13:28:51Z</time>
      </trkpt>
      <trkpt lat="48.37101" lon="2.79161">
        <ele>101.4</ele>
        <time>2018-04-15T13:28:52Z</time>
      </trkpt>
      <trkpt lat="48.37106" lon="2.79153">
        <ele>101.6</ele>
        <time>2018-04-15T13:28:54Z</time>
      </trkpt>
      <trkpt lat="48.37108" lon="2.79148">
        <ele>101.8</ele>
        <time>2018-04-15T13:28:55Z</time>
      </trkpt>
      <trkpt lat="48.37111" lon="2.79144">
        <ele>102</ele>
        <time>2018-04-15T13:28:56Z</time>
      </trkpt>
      <trkpt lat="48.37113" lon="2.7914">
        <ele>102.1</ele>
        <time>2018-04-15T13:28:57Z</time>
      </trkpt>
      <trkpt lat="48.37115" lon="2.79136">
        <ele>102.3</ele>
        <time>2018-04-15T13:28:58Z</time>
      </trkpt>
      <trkpt lat="48.37116" lon="2.79132">
        <ele>102.4</ele>
        <time>2018-04-15T13:28:59Z</time>
      </trkpt>
      <trkpt lat="48.37118" lon="2.79128">
        <ele>102.5</ele>
        <time>2018-04-15T13:29:00Z</time>
      </trkpt>
      <trkpt lat="48.37122" lon="2.7912">
        <ele>102.8</ele>
        <time>2018-04-15T13:29:02Z</time>
      </trkpt>
      <trkpt lat="48.37124" lon="2.79115">
        <ele>102.9</ele>
        <time>2018-04-15T13:29:03Z</time>
      </trkpt>
      <trkpt lat="48.37126" lon="2.7911">
        <ele>103</ele>
        <time>2018-04-15T13:29:04Z</time>
      </trkpt>
      <trkpt lat="48.37128" lon="2.79106">
        <ele>103.1</ele>
        <time>2018-04-15T13:29:05Z</time>
      </trkpt>
      <trkpt lat="48.3713" lon="2.791">
        <ele>103.1</ele>
        <time>2018-04-15T13:29:06Z</time>
      </trkpt>
      <trkpt lat="48.37134" lon="2.79095">
        <ele>103.2</ele>
        <time>2018-04-15T13:29:08Z</time>
      </trkpt>
      <trkpt lat="48.37136" lon="2.79091">
        <ele>103.3</ele>
        <time>2018-04-15T13:29:09Z</time>
      </trkpt>
      <trkpt lat="48.37138" lon="2.79087">
        <ele>103.4</ele>
        <time>2018-04-15T13:29:10Z</time>
      </trkpt>
      <trkpt lat="48.37141" lon="2.79083">
        <ele>103.4</ele>
        <time>2018-04-15T13:29:11Z</time>
      </trkpt>
      <trkpt lat="48.37144" lon="2.79079">
        <ele>103.4</ele>
        <time>2018-04-15T13:29:12Z</time>
      </trkpt>
      <trkpt lat="48.37148" lon="2.79075">
        <ele>103.4</ele>
        <time>2018-04-15T13:29:13Z</time>
      </trkpt>
      <trkpt lat="48.37151" lon="2.79069">
        <ele>103.4</ele>
        <time>2018-04-15T13:29:14Z</time>
      </trkpt>
      <trkpt lat="48.37154" lon="2.79064">
        <ele>103.4</ele>
        <time>2018-04-15T13:29:15Z</time>
      </trkpt>
      <trkpt lat="48.37157" lon="2.79058">
        <ele>103.3</ele>
        <time>2018-04-15T13:29:16Z</time>
      </trkpt>
      <trkpt lat="48.3716" lon="2.79053">
        <ele>103.2</ele>
        <time>2018-04-15T13:29:17Z</time>
      </trkpt>
      <trkpt lat="48.37164" lon="2.79048">
        <ele>103.1</ele>
        <time>2018-04-15T13:29:18Z</time>
      </trkpt>
      <trkpt lat="48.37167" lon="2.79043">
        <ele>102.9</ele>
        <time>2018-04-15T13:29:19Z</time>
      </trkpt>
      <trkpt lat="48.3717" lon="2.79038">
        <ele>102.8</ele>
        <time>2018-04-15T13:29:20Z</time>
      </trkpt>
      <trkpt lat="48.37172" lon="2.79035">
        <ele>102.7</ele>
        <time>2018-04-15T13:29:21Z</time>
      </trkpt>
      <trkpt lat="48.37174" lon="2.79032">
        <ele>102.6</ele>
        <time>2018-04-15T13:29:22Z</time>
      </trkpt>
      <trkpt lat="48.37177" lon="2.79026">
        <ele>102.5</ele>
        <time>2018-04-15T13:29:23Z</time>
      </trkpt>
      <trkpt lat="48.37181" lon="2.79022">
        <ele>102.3</ele>
        <time>2018-04-15T13:29:24Z</time>
      </trkpt>
      <trkpt lat="48.37184" lon="2.79017">
        <ele>102.2</ele>
        <time>2018-04-15T13:29:25Z</time>
      </trkpt>
      <trkpt lat="48.37187" lon="2.79014">
        <ele>102.2</ele>
        <time>2018-04-15T13:29:26Z</time>
      </trkpt>
      <trkpt lat="48.3719" lon="2.7901">
        <ele>102.1</ele>
        <time>2018-04-15T13:29:27Z</time>
      </trkpt>
      <trkpt lat="48.37193" lon="2.79005">
        <ele>102</ele>
        <time>2018-04-15T13:29:28Z</time>
      </trkpt>
      <trkpt lat="48.37195" lon="2.78998">
        <ele>102</ele>
        <time>2018-04-15T13:29:29Z</time>
      </trkpt>
      <trkpt lat="48.37198" lon="2.78994">
        <ele>102</ele>
        <time>2018-04-15T13:29:30Z</time>
      </trkpt>
      <trkpt lat="48.37201" lon="2.78989">
        <ele>101.9</ele>
        <time>2018-04-15T13:29:31Z</time>
      </trkpt>
      <trkpt lat="48.37204" lon="2.78985">
        <ele>101.8</ele>
        <time>2018-04-15T13:29:32Z</time>
      </trkpt>
      <trkpt lat="48.37206" lon="2.78981">
        <ele>101.7</ele>
        <time>2018-04-15T13:29:33Z</time>
      </trkpt>
      <trkpt lat="48.37209" lon="2.78978">
        <ele>101.7</ele>
        <time>2018-04-15T13:29:34Z</time>
      </trkpt>
      <trkpt lat="48.37212" lon="2.78974">
        <ele>101.6</ele>
        <time>2018-04-15T13:29:35Z</time>
      </trkpt>
      <trkpt lat="48.37215" lon="2.7897">
        <ele>101.4</ele>
        <time>2018-04-15T13:29:36Z</time>
      </trkpt>
      <trkpt lat="48.37218" lon="2.78966">
        <ele>101.2</ele>
        <time>2018-04-15T13:29:37Z</time>
      </trkpt>
      <trkpt lat="48.37221" lon="2.78961">
        <ele>101.1</ele>
        <time>2018-04-15T13:29:38Z</time>
      </trkpt>
      <trkpt lat="48.37224" lon="2.78958">
        <ele>101</ele>
        <time>2018-04-15T13:29:39Z</time>
      </trkpt>
      <trkpt lat="48.37228" lon="2.78952">
        <ele>100.8</ele>
        <time>2018-04-15T13:29:40Z</time>
      </trkpt>
      <trkpt lat="48.37232" lon="2.78947">
        <ele>100.7</ele>
        <time>2018-04-15T13:29:41Z</time>
      </trkpt>
      <trkpt lat="48.37235" lon="2.78941">
        <ele>100.6</ele>
        <time>2018-04-15T13:29:42Z</time>
      </trkpt>
      <trkpt lat="48.37239" lon="2.78936">
        <ele>100.5</ele>
        <time>2018-04-15T13:29:43Z</time>
      </trkpt>
      <trkpt lat="48.37242" lon="2.7893">
        <ele>100.4</ele>
        <time>2018-04-15T13:29:44Z</time>
      </trkpt>
      <trkpt lat="48.37245" lon="2.78924">
        <ele>100.3</ele>
        <time>2018-04-15T13:29:45Z</time>
      </trkpt>
      <trkpt lat="48.37248" lon="2.7892">
        <ele>100.2</ele>
        <time>2018-04-15T13:29:46Z</time>
      </trkpt>
      <trkpt lat="48.37251" lon="2.78917">
        <ele>100.1</ele>
        <time>2018-04-15T13:29:47Z</time>
      </trkpt>
      <trkpt lat="48.37254" lon="2.78914">
        <ele>100</ele>
        <time>2018-04-15T13:29:48Z</time>
      </trkpt>
      <trkpt lat="48.37257" lon="2.78909">
        <ele>100</ele>
        <time>2018-04-15T13:29:49Z</time>
      </trkpt>
      <trkpt lat="48.3726" lon="2.78904">
        <ele>99.9</ele>
        <time>2018-04-15T13:29:50Z</time>
      </trkpt>
      <trkpt lat="48.37263" lon="2.78901">
        <ele>99.8</ele>
        <time>2018-04-15T13:29:51Z</time>
      </trkpt>
      <trkpt lat="48.37266" lon="2.78898">
        <ele>99.6</ele>
        <time>2018-04-15T13:29:52Z</time>
      </trkpt>
      <trkpt lat="48.37269" lon="2.78895">
        <ele>99.5</ele>
        <time>2018-04-15T13:29:53Z</time>
      </trkpt>
      <trkpt lat="48.37271" lon="2.78891">
        <ele>99.3</ele>
        <time>2018-04-15T13:29:54Z</time>
      </trkpt>
      <trkpt lat="48.37274" lon="2.78888">
        <ele>99.1</ele>
        <time>2018-04-15T13:29:55Z</time>
      </trkpt>
      <trkpt lat="48.37277" lon="2.78885">
        <ele>98.8</ele>
        <time>2018-04-15T13:29:56Z</time>
      </trkpt>
      <trkpt lat="48.37281" lon="2.7888">
        <ele>98.6</ele>
        <time>2018-04-15T13:29:57Z</time>
      </trkpt>
      <trkpt lat="48.37284" lon="2.78877">
        <ele>98.4</ele>
        <time>2018-04-15T13:29:58Z</time>
      </trkpt>
      <trkpt lat="48.37286" lon="2.78874">
        <ele>98.2</ele>
        <time>2018-04-15T13:29:59Z</time>
      </trkpt>
      <trkpt lat="48.37289" lon="2.78871">
        <ele>98</ele>
        <time>2018-04-15T13:30:00Z</time>
      </trkpt>
      <trkpt lat="48.37292" lon="2.78868">
        <ele>97.8</ele>
        <time>2018-04-15T13:30:01Z</time>
      </trkpt>
      <trkpt lat="48.37295" lon="2.78865">
        <ele>97.7</ele>
        <time>2018-04-15T13:30:02Z</time>
      </trkpt>
      <trkpt lat="48.37297" lon="2.78862">
        <ele>97.5</ele>
        <time>2018-04-15T13:30:03Z</time>
      </trkpt>
      <trkpt lat="48.37301" lon="2.78858">
        <ele>97.3</ele>
        <time>2018-04-15T13:30:04Z</time>
      </trkpt>
      <trkpt lat="48.37303" lon="2.78854">
        <ele>97.1</ele>
        <time>2018-04-15T13:30:05Z</time>
      </trkpt>
      <trkpt lat="48.37306" lon="2.7885">
        <ele>96.9</ele>
        <time>2018-04-15T13:30:06Z</time>
      </trkpt>
      <trkpt lat="48.37311" lon="2.78846">
        <ele>96.6</ele>
        <time>2018-04-15T13:30:07Z</time>
      </trkpt>
      <trkpt lat="48.37314" lon="2.78841">
        <ele>96.5</ele>
        <time>2018-04-15T13:30:08Z</time>
      </trkpt>
      <trkpt lat="48.37316" lon="2.78837">
        <ele>96.4</ele>
        <time>2018-04-15T13:30:09Z</time>
      </trkpt>
      <trkpt lat="48.37319" lon="2.78833">
        <ele>96.3</ele>
        <time>2018-04-15T13:30:10Z</time>
      </trkpt>
      <trkpt lat="48.37322" lon="2.78829">
        <ele>96.2</ele>
        <time>2018-04-15T13:30:11Z</time>
      </trkpt>
      <trkpt lat="48.37325" lon="2.78826">
        <ele>96.1</ele>
        <time>2018-04-15T13:30:12Z</time>
      </trkpt>
      <trkpt lat="48.37329" lon="2.78822">
        <ele>96</ele>
        <time>2018-04-15T13:30:13Z</time>
      </trkpt>
      <trkpt lat="48.37333" lon="2.78818">
        <ele>95.9</ele>
        <time>2018-04-15T13:30:15Z</time>
      </trkpt>
      <trkpt lat="48.37336" lon="2.78813">
        <ele>95.7</ele>
        <time>2018-04-15T13:30:17Z</time>
      </trkpt>
      <trkpt lat="48.37339" lon="2.78808">
        <ele>95.5</ele>
        <time>2018-04-15T13:30:19Z</time>
      </trkpt>
      <trkpt lat="48.37342" lon="2.78805">
        <ele>95.4</ele>
        <time>2018-04-15T13:30:20Z</time>
      </trkpt>
      <trkpt lat="48.37346" lon="2.78799">
        <ele>95.2</ele>
        <time>2018-04-15T13:30:22Z</time>
      </trkpt>
      <trkpt lat="48.37349" lon="2.78795">
        <ele>95.1</ele>
        <time>2018-04-15T13:30:24Z</time>
      </trkpt>
      <trkpt lat="48.37352" lon="2.78792">
        <ele>95.1</ele>
        <time>2018-04-15T13:30:26Z</time>
      </trkpt>
      <trkpt lat="48.37356" lon="2.78787">
        <ele>95</ele>
        <time>2018-04-15T13:30:29Z</time>
      </trkpt>
      <trkpt lat="48.37357" lon="2.78784">
        <ele>95</ele>
        <time>2018-04-15T13:30:31Z</time>
      </trkpt>
      <trkpt lat="48.37357" lon="2.7878">
        <ele>95</ele>
        <time>2018-04-15T13:30:37Z</time>
      </trkpt>
      <trkpt lat="48.3736" lon="2.78782">
        <ele>95</ele>
        <time>2018-04-15T13:30:45Z</time>
      </trkpt>
      <trkpt lat="48.37363" lon="2.78786">
        <ele>94.9</ele>
        <time>2018-04-15T13:30:47Z</time>
      </trkpt>
      <trkpt lat="48.37364" lon="2.7879">
        <ele>94.9</ele>
        <time>2018-04-15T13:30:48Z</time>
      </trkpt>
      <trkpt lat="48.37366" lon="2.78794">
        <ele>94.9</ele>
        <time>2018-04-15T13:30:49Z</time>
      </trkpt>
      <trkpt lat="48.37368" lon="2.78798">
        <ele>94.9</ele>
        <time>2018-04-15T13:30:50Z</time>
      </trkpt>
      <trkpt lat="48.37369" lon="2.78803">
        <ele>94.9</ele>
        <time>2018-04-15T13:30:51Z</time>
      </trkpt>
      <trkpt lat="48.37372" lon="2.78809">
        <ele>94.8</ele>
        <time>2018-04-15T13:30:53Z</time>
      </trkpt>
      <trkpt lat="48.37372" lon="2.78814">
        <ele>94.8</ele>
        <time>2018-04-15T13:30:55Z</time>
      </trkpt>
      <trkpt lat="48.37372" lon="2.7881">
        <ele>94.8</ele>
        <time>2018-04-15T13:31:06Z</time>
      </trkpt>
      <trkpt lat="48.37372" lon="2.78803">
        <ele>94.8</ele>
        <time>2018-04-15T13:31:08Z</time>
      </trkpt>
      <trkpt lat="48.3737" lon="2.78799">
        <ele>94.9</ele>
        <time>2018-04-15T13:31:10Z</time>
      </trkpt>
      <trkpt lat="48.37367" lon="2.78796">
        <ele>94.9</ele>
        <time>2018-04-15T13:31:13Z</time>
      </trkpt>
      <trkpt lat="48.37365" lon="2.78792">
        <ele>94.9</ele>
        <time>2018-04-15T13:31:16Z</time>
      </trkpt>
      <trkpt lat="48.37363" lon="2.78789">
        <ele>94.9</ele>
        <time>2018-04-15T13:31:29Z</time>
      </trkpt>
      <trkpt lat="48.37361" lon="2.78786">
        <ele>94.9</ele>
        <time>2018-04-15T13:31:38Z</time>
      </trkpt>
      <trkpt lat="48.37357" lon="2.78785">
        <ele>95</ele>
        <time>2018-04-15T13:31:44Z</time>
      </trkpt>
      <trkpt lat="48.37354" lon="2.78783">
        <ele>95</ele>
        <time>2018-04-15T13:31:47Z</time>
      </trkpt>
      <trkpt lat="48.37351" lon="2.78779">
        <ele>95.1</ele>
        <time>2018-04-15T13:31:50Z</time>
      </trkpt>
      <trkpt lat="48.37348" lon="2.78775">
        <ele>95.2</ele>
        <time>2018-04-15T13:31:53Z</time>
      </trkpt>
      <trkpt lat="48.37336" lon="2.78765">
        <ele>95.8</ele>
        <time>2018-04-15T13:32:22Z</time>
      </trkpt>
      <trkpt lat="48.37329" lon="2.78756">
        <ele>96.2</ele>
        <time>2018-04-15T13:32:24Z</time>
      </trkpt>
      <trkpt lat="48.37323" lon="2.78758">
        <ele>96.4</ele>
        <time>2018-04-15T13:32:25Z</time>
      </trkpt>
      <trkpt lat="48.37319" lon="2.78759">
        <ele>96.6</ele>
        <time>2018-04-15T13:32:26Z</time>
      </trkpt>
      <trkpt lat="48.37314" lon="2.78761">
        <ele>96.8</ele>
        <time>2018-04-15T13:32:27Z</time>
      </trkpt>
      <trkpt lat="48.37315" lon="2.78756">
        <ele>96.9</ele>
        <time>2018-04-15T13:32:29Z</time>
      </trkpt>
      <trkpt lat="48.37318" lon="2.78754">
        <ele>97</ele>
        <time>2018-04-15T13:32:30Z</time>
      </trkpt>
      <trkpt lat="48.37323" lon="2.78757">
        <ele>97.1</ele>
        <time>2018-04-15T13:32:32Z</time>
      </trkpt>
      <trkpt lat="48.3733" lon="2.78758">
        <ele>97.3</ele>
        <time>2018-04-15T13:32:34Z</time>
      </trkpt>
      <trkpt lat="48.37333" lon="2.78758">
        <ele>97.4</ele>
        <time>2018-04-15T13:32:35Z</time>
      </trkpt>
      <trkpt lat="48.37331" lon="2.78754">
        <ele>97.5</ele>
        <time>2018-04-15T13:32:40Z</time>
      </trkpt>
      <trkpt lat="48.37334" lon="2.78753">
        <ele>97.6</ele>
        <time>2018-04-15T13:32:42Z</time>
      </trkpt>
      <trkpt lat="48.37333" lon="2.78748">
        <ele>97.7</ele>
        <time>2018-04-15T13:32:51Z</time>
      </trkpt>
      <trkpt lat="48.37331" lon="2.7874">
        <ele>97.8</ele>
        <time>2018-04-15T13:32:53Z</time>
      </trkpt>
      <trkpt lat="48.37329" lon="2.78734">
        <ele>97.9</ele>
        <time>2018-04-15T13:32:54Z</time>
      </trkpt>
      <trkpt lat="48.37328" lon="2.78731">
        <ele>98</ele>
        <time>2018-04-15T13:32:55Z</time>
      </trkpt>
      <trkpt lat="48.37325" lon="2.78724">
        <ele>98.2</ele>
        <time>2018-04-15T13:32:57Z</time>
      </trkpt>
      <trkpt lat="48.37323" lon="2.78719">
        <ele>99.2</ele>
        <time>2018-04-15T13:32:58Z</time>
      </trkpt>
      <trkpt lat="48.37322" lon="2.78714">
        <ele>99.3</ele>
        <time>2018-04-15T13:32:59Z</time>
      </trkpt>
      <trkpt lat="48.37321" lon="2.7871">
        <ele>99.3</ele>
        <time>2018-04-15T13:33:00Z</time>
      </trkpt>
      <trkpt lat="48.37319" lon="2.78705">
        <ele>99.4</ele>
        <time>2018-04-15T13:33:01Z</time>
      </trkpt>
      <trkpt lat="48.37318" lon="2.787">
        <ele>99.4</ele>
        <time>2018-04-15T13:33:02Z</time>
      </trkpt>
      <trkpt lat="48.37316" lon="2.78697">
        <ele>99.5</ele>
        <time>2018-04-15T13:33:03Z</time>
      </trkpt>
      <trkpt lat="48.37315" lon="2.78692">
        <ele>99.5</ele>
        <time>2018-04-15T13:33:04Z</time>
      </trkpt>
      <trkpt lat="48.37314" lon="2.78687">
        <ele>99.6</ele>
        <time>2018-04-15T13:33:05Z</time>
      </trkpt>
      <trkpt lat="48.37313" lon="2.78683">
        <ele>99.6</ele>
        <time>2018-04-15T13:33:06Z</time>
      </trkpt>
      <trkpt lat="48.37311" lon="2.78677">
        <ele>99.7</ele>
        <time>2018-04-15T13:33:07Z</time>
      </trkpt>
      <trkpt lat="48.3731" lon="2.78673">
        <ele>99.7</ele>
        <time>2018-04-15T13:33:08Z</time>
      </trkpt>
      <trkpt lat="48.37308" lon="2.78668">
        <ele>99.8</ele>
        <time>2018-04-15T13:33:09Z</time>
      </trkpt>
      <trkpt lat="48.37307" lon="2.78662">
        <ele>99.8</ele>
        <time>2018-04-15T13:33:10Z</time>
      </trkpt>
      <trkpt lat="48.37306" lon="2.78658">
        <ele>99.9</ele>
        <time>2018-04-15T13:33:11Z</time>
      </trkpt>
      <trkpt lat="48.37304" lon="2.78652">
        <ele>99.9</ele>
        <time>2018-04-15T13:33:12Z</time>
      </trkpt>
      <trkpt lat="48.37303" lon="2.78647">
        <ele>100</ele>
        <time>2018-04-15T13:33:13Z</time>
      </trkpt>
      <trkpt lat="48.37302" lon="2.78641">
        <ele>99.9</ele>
        <time>2018-04-15T13:33:14Z</time>
      </trkpt>
      <trkpt lat="48.37302" lon="2.78634">
        <ele>99.9</ele>
        <time>2018-04-15T13:33:15Z</time>
      </trkpt>
      <trkpt lat="48.37301" lon="2.78627">
        <ele>99.8</ele>
        <time>2018-04-15T13:33:16Z</time>
      </trkpt>
      <trkpt lat="48.373" lon="2.7862">
        <ele>99.7</ele>
        <time>2018-04-15T13:33:17Z</time>
      </trkpt>
      <trkpt lat="48.373" lon="2.78614">
        <ele>99.6</ele>
        <time>2018-04-15T13:33:18Z</time>
      </trkpt>
      <trkpt lat="48.37299" lon="2.78605">
        <ele>99.5</ele>
        <time>2018-04-15T13:33:19Z</time>
      </trkpt>
      <trkpt lat="48.37298" lon="2.78597">
        <ele>99.4</ele>
        <time>2018-04-15T13:33:20Z</time>
      </trkpt>
      <trkpt lat="48.37297" lon="2.7859">
        <ele>99.3</ele>
        <time>2018-04-15T13:33:21Z</time>
      </trkpt>
      <trkpt lat="48.37296" lon="2.78583">
        <ele>99.2</ele>
        <time>2018-04-15T13:33:22Z</time>
      </trkpt>
      <trkpt lat="48.37294" lon="2.78574">
        <ele>99</ele>
        <time>2018-04-15T13:33:23Z</time>
      </trkpt>
      <trkpt lat="48.37293" lon="2.78566">
        <ele>98.7</ele>
        <time>2018-04-15T13:33:24Z</time>
      </trkpt>
      <trkpt lat="48.37293" lon="2.78559">
        <ele>98.5</ele>
        <time>2018-04-15T13:33:25Z</time>
      </trkpt>
      <trkpt lat="48.37293" lon="2.78552">
        <ele>98.3</ele>
        <time>2018-04-15T13:33:26Z</time>
      </trkpt>
      <trkpt lat="48.37293" lon="2.78544">
        <ele>98.1</ele>
        <time>2018-04-15T13:33:27Z</time>
      </trkpt>
      <trkpt lat="48.37294" lon="2.78538">
        <ele>98</ele>
        <time>2018-04-15T13:33:28Z</time>
      </trkpt>
      <trkpt lat="48.37294" lon="2.78531">
        <ele>98.1</ele>
        <time>2018-04-15T13:33:29Z</time>
      </trkpt>
      <trkpt lat="48.37295" lon="2.78524">
        <ele>98.1</ele>
        <time>2018-04-15T13:33:30Z</time>
      </trkpt>
      <trkpt lat="48.37296" lon="2.78516">
        <ele>98.1</ele>
        <time>2018-04-15T13:33:31Z</time>
      </trkpt>
      <trkpt lat="48.37297" lon="2.78509">
        <ele>98.2</ele>
        <time>2018-04-15T13:33:32Z</time>
      </trkpt>
      <trkpt lat="48.37298" lon="2.78504">
        <ele>98.2</ele>
        <time>2018-04-15T13:33:33Z</time>
      </trkpt>
      <trkpt lat="48.37299" lon="2.78497">
        <ele>98.2</ele>
        <time>2018-04-15T13:33:34Z</time>
      </trkpt>
      <trkpt lat="48.37299" lon="2.78491">
        <ele>98.2</ele>
        <time>2018-04-15T13:33:35Z</time>
      </trkpt>
      <trkpt lat="48.373" lon="2.78484">
        <ele>98.2</ele>
        <time>2018-04-15T13:33:36Z</time>
      </trkpt>
      <trkpt lat="48.37301" lon="2.78479">
        <ele>98.3</ele>
        <time>2018-04-15T13:33:37Z</time>
      </trkpt>
      <trkpt lat="48.37302" lon="2.78472">
        <ele>98.3</ele>
        <time>2018-04-15T13:33:38Z</time>
      </trkpt>
      <trkpt lat="48.37303" lon="2.78464">
        <ele>98.3</ele>
        <time>2018-04-15T13:33:39Z</time>
      </trkpt>
      <trkpt lat="48.37304" lon="2.78458">
        <ele>98.3</ele>
        <time>2018-04-15T13:33:40Z</time>
      </trkpt>
      <trkpt lat="48.37306" lon="2.78449">
        <ele>98.4</ele>
        <time>2018-04-15T13:33:41Z</time>
      </trkpt>
      <trkpt lat="48.37307" lon="2.78443">
        <ele>98.4</ele>
        <time>2018-04-15T13:33:42Z</time>
      </trkpt>
      <trkpt lat="48.37307" lon="2.78438">
        <ele>98.4</ele>
        <time>2018-04-15T13:33:43Z</time>
      </trkpt>
      <trkpt lat="48.37308" lon="2.7843">
        <ele>98.4</ele>
        <time>2018-04-15T13:33:44Z</time>
      </trkpt>
      <trkpt lat="48.37309" lon="2.78421">
        <ele>98.5</ele>
        <time>2018-04-15T13:33:45Z</time>
      </trkpt>
      <trkpt lat="48.3731" lon="2.78411">
        <ele>98.5</ele>
        <time>2018-04-15T13:33:46Z</time>
      </trkpt>
      <trkpt lat="48.37311" lon="2.78403">
        <ele>98.5</ele>
        <time>2018-04-15T13:33:47Z</time>
      </trkpt>
      <trkpt lat="48.37312" lon="2.78396">
        <ele>98.6</ele>
        <time>2018-04-15T13:33:48Z</time>
      </trkpt>
      <trkpt lat="48.37312" lon="2.78387">
        <ele>98.6</ele>
        <time>2018-04-15T13:33:49Z</time>
      </trkpt>
      <trkpt lat="48.37313" lon="2.7838">
        <ele>98.6</ele>
        <time>2018-04-15T13:33:50Z</time>
      </trkpt>
      <trkpt lat="48.37314" lon="2.78373">
        <ele>98.7</ele>
        <time>2018-04-15T13:33:51Z</time>
      </trkpt>
      <trkpt lat="48.37317" lon="2.78365">
        <ele>98.7</ele>
        <time>2018-04-15T13:33:52Z</time>
      </trkpt>
      <trkpt lat="48.37319" lon="2.78355">
        <ele>98.8</ele>
        <time>2018-04-15T13:33:53Z</time>
      </trkpt>
      <trkpt lat="48.37319" lon="2.78349">
        <ele>98.8</ele>
        <time>2018-04-15T13:33:54Z</time>
      </trkpt>
      <trkpt lat="48.3732" lon="2.78342">
        <ele>98.8</ele>
        <time>2018-04-15T13:33:55Z</time>
      </trkpt>
      <trkpt lat="48.37321" lon="2.78334">
        <ele>98.9</ele>
        <time>2018-04-15T13:33:56Z</time>
      </trkpt>
      <trkpt lat="48.37324" lon="2.78324">
        <ele>99</ele>
        <time>2018-04-15T13:33:57Z</time>
      </trkpt>
      <trkpt lat="48.37325" lon="2.78317">
        <ele>99</ele>
        <time>2018-04-15T13:33:58Z</time>
      </trkpt>
      <trkpt lat="48.37326" lon="2.7831">
        <ele>99.1</ele>
        <time>2018-04-15T13:33:59Z</time>
      </trkpt>
      <trkpt lat="48.37327" lon="2.78304">
        <ele>99.1</ele>
        <time>2018-04-15T13:34:00Z</time>
      </trkpt>
      <trkpt lat="48.37327" lon="2.78296">
        <ele>99.2</ele>
        <time>2018-04-15T13:34:01Z</time>
      </trkpt>
      <trkpt lat="48.37328" lon="2.78288">
        <ele>99.2</ele>
        <time>2018-04-15T13:34:02Z</time>
      </trkpt>
      <trkpt lat="48.37329" lon="2.78282">
        <ele>99.3</ele>
        <time>2018-04-15T13:34:03Z</time>
      </trkpt>
      <trkpt lat="48.37331" lon="2.78275">
        <ele>99.4</ele>
        <time>2018-04-15T13:34:04Z</time>
      </trkpt>
      <trkpt lat="48.37331" lon="2.78268">
        <ele>99.5</ele>
        <time>2018-04-15T13:34:05Z</time>
      </trkpt>
      <trkpt lat="48.37332" lon="2.78261">
        <ele>99.7</ele>
        <time>2018-04-15T13:34:06Z</time>
      </trkpt>
      <trkpt lat="48.37333" lon="2.78253">
        <ele>100</ele>
        <time>2018-04-15T13:34:07Z</time>
      </trkpt>
      <trkpt lat="48.37334" lon="2.78248">
        <ele>100.2</ele>
        <time>2018-04-15T13:34:08Z</time>
      </trkpt>
      <trkpt lat="48.37334" lon="2.78241">
        <ele>100.5</ele>
        <time>2018-04-15T13:34:09Z</time>
      </trkpt>
      <trkpt lat="48.37336" lon="2.78233">
        <ele>100.9</ele>
        <time>2018-04-15T13:34:10Z</time>
      </trkpt>
      <trkpt lat="48.37336" lon="2.78224">
        <ele>101.3</ele>
        <time>2018-04-15T13:34:11Z</time>
      </trkpt>
      <trkpt lat="48.37337" lon="2.78217">
        <ele>101.4</ele>
        <time>2018-04-15T13:34:12Z</time>
      </trkpt>
      <trkpt lat="48.37338" lon="2.7821">
        <ele>101.6</ele>
        <time>2018-04-15T13:34:13Z</time>
      </trkpt>
      <trkpt lat="48.37339" lon="2.78204">
        <ele>101.7</ele>
        <time>2018-04-15T13:34:14Z</time>
      </trkpt>
      <trkpt lat="48.3734" lon="2.78198">
        <ele>101.8</ele>
        <time>2018-04-15T13:34:15Z</time>
      </trkpt>
      <trkpt lat="48.37342" lon="2.78189">
        <ele>102</ele>
        <time>2018-04-15T13:34:16Z</time>
      </trkpt>
      <trkpt lat="48.37343" lon="2.78183">
        <ele>101.8</ele>
        <time>2018-04-15T13:34:17Z</time>
      </trkpt>
      <trkpt lat="48.37345" lon="2.78174">
        <ele>101.6</ele>
        <time>2018-04-15T13:34:18Z</time>
      </trkpt>
      <trkpt lat="48.37347" lon="2.78166">
        <ele>101.5</ele>
        <time>2018-04-15T13:34:19Z</time>
      </trkpt>
      <trkpt lat="48.37348" lon="2.78159">
        <ele>101.3</ele>
        <time>2018-04-15T13:34:20Z</time>
      </trkpt>
      <trkpt lat="48.37349" lon="2.78152">
        <ele>101.2</ele>
        <time>2018-04-15T13:34:21Z</time>
      </trkpt>
      <trkpt lat="48.3735" lon="2.78145">
        <ele>101</ele>
        <time>2018-04-15T13:34:22Z</time>
      </trkpt>
      <trkpt lat="48.37352" lon="2.78139">
        <ele>101</ele>
        <time>2018-04-15T13:34:23Z</time>
      </trkpt>
      <trkpt lat="48.37354" lon="2.78132">
        <ele>101</ele>
        <time>2018-04-15T13:34:24Z</time>
      </trkpt>
      <trkpt lat="48.37356" lon="2.78126">
        <ele>101</ele>
        <time>2018-04-15T13:34:25Z</time>
      </trkpt>
      <trkpt lat="48.37359" lon="2.78119">
        <ele>100.9</ele>
        <time>2018-04-15T13:34:26Z</time>
      </trkpt>
      <trkpt lat="48.3736" lon="2.78113">
        <ele>101</ele>
        <time>2018-04-15T13:34:27Z</time>
      </trkpt>
      <trkpt lat="48.37362" lon="2.78107">
        <ele>101</ele>
        <time>2018-04-15T13:34:28Z</time>
      </trkpt>
      <trkpt lat="48.37364" lon="2.78099">
        <ele>101</ele>
        <time>2018-04-15T13:34:29Z</time>
      </trkpt>
      <trkpt lat="48.37366" lon="2.78093">
        <ele>101</ele>
        <time>2018-04-15T13:34:30Z</time>
      </trkpt>
      <trkpt lat="48.37367" lon="2.78087">
        <ele>101</ele>
        <time>2018-04-15T13:34:31Z</time>
      </trkpt>
      <trkpt lat="48.37369" lon="2.78081">
        <ele>101</ele>
        <time>2018-04-15T13:34:32Z</time>
      </trkpt>
      <trkpt lat="48.37371" lon="2.78075">
        <ele>100.9</ele>
        <time>2018-04-15T13:34:33Z</time>
      </trkpt>
      <trkpt lat="48.37372" lon="2.7807">
        <ele>100.9</ele>
        <time>2018-04-15T13:34:34Z</time>
      </trkpt>
      <trkpt lat="48.37374" lon="2.78065">
        <ele>100.9</ele>
        <time>2018-04-15T13:34:35Z</time>
      </trkpt>
      <trkpt lat="48.37377" lon="2.78058">
        <ele>101</ele>
        <time>2018-04-15T13:34:37Z</time>
      </trkpt>
      <trkpt lat="48.37379" lon="2.78053">
        <ele>101</ele>
        <time>2018-04-15T13:34:38Z</time>
      </trkpt>
      <trkpt lat="48.37381" lon="2.78048">
        <ele>101</ele>
        <time>2018-04-15T13:34:39Z</time>
      </trkpt>
      <trkpt lat="48.37383" lon="2.78043">
        <ele>101</ele>
        <time>2018-04-15T13:34:40Z</time>
      </trkpt>
      <trkpt lat="48.37384" lon="2.78038">
        <ele>101</ele>
        <time>2018-04-15T13:34:41Z</time>
      </trkpt>
      <trkpt lat="48.37386" lon="2.78032">
        <ele>101.1</ele>
        <time>2018-04-15T13:34:43Z</time>
      </trkpt>
      <trkpt lat="48.37387" lon="2.78027">
        <ele>101</ele>
        <time>2018-04-15T13:34:44Z</time>
      </trkpt>
      <trkpt lat="48.37389" lon="2.78023">
        <ele>101</ele>
        <time>2018-04-15T13:34:45Z</time>
      </trkpt>
      <trkpt lat="48.3739" lon="2.78019">
        <ele>101</ele>
        <time>2018-04-15T13:34:46Z</time>
      </trkpt>
      <trkpt lat="48.37392" lon="2.78015">
        <ele>101</ele>
        <time>2018-04-15T13:34:47Z</time>
      </trkpt>
      <trkpt lat="48.37394" lon="2.7801">
        <ele>101</ele>
        <time>2018-04-15T13:34:48Z</time>
      </trkpt>
      <trkpt lat="48.37396" lon="2.78006">
        <ele>101</ele>
        <time>2018-04-15T13:34:49Z</time>
      </trkpt>
      <trkpt lat="48.37397" lon="2.78001">
        <ele>101</ele>
        <time>2018-04-15T13:34:50Z</time>
      </trkpt>
      <trkpt lat="48.37399" lon="2.77996">
        <ele>101</ele>
        <time>2018-04-15T13:34:51Z</time>
      </trkpt>
      <trkpt lat="48.374" lon="2.77992">
        <ele>101</ele>
        <time>2018-04-15T13:34:52Z</time>
      </trkpt>
      <trkpt lat="48.37402" lon="2.77988">
        <ele>101</ele>
        <time>2018-04-15T13:34:53Z</time>
      </trkpt>
      <trkpt lat="48.37404" lon="2.77983">
        <ele>101.1</ele>
        <time>2018-04-15T13:34:54Z</time>
      </trkpt>
      <trkpt lat="48.37405" lon="2.77978">
        <ele>101.1</ele>
        <time>2018-04-15T13:34:55Z</time>
      </trkpt>
      <trkpt lat="48.37408" lon="2.77972">
        <ele>101.1</ele>
        <time>2018-04-15T13:34:56Z</time>
      </trkpt>
      <trkpt lat="48.3741" lon="2.77967">
        <ele>101.2</ele>
        <time>2018-04-15T13:34:57Z</time>
      </trkpt>
      <trkpt lat="48.37412" lon="2.77961">
        <ele>101.2</ele>
        <time>2018-04-15T13:34:58Z</time>
      </trkpt>
      <trkpt lat="48.37415" lon="2.77954">
        <ele>101.3</ele>
        <time>2018-04-15T13:34:59Z</time>
      </trkpt>
      <trkpt lat="48.37417" lon="2.77949">
        <ele>101.3</ele>
        <time>2018-04-15T13:35:00Z</time>
      </trkpt>
      <trkpt lat="48.37418" lon="2.77943">
        <ele>101.3</ele>
        <time>2018-04-15T13:35:01Z</time>
      </trkpt>
      <trkpt lat="48.3742" lon="2.77937">
        <ele>101.3</ele>
        <time>2018-04-15T13:35:02Z</time>
      </trkpt>
      <trkpt lat="48.37423" lon="2.7793">
        <ele>101.3</ele>
        <time>2018-04-15T13:35:03Z</time>
      </trkpt>
      <trkpt lat="48.37426" lon="2.77922">
        <ele>101.3</ele>
        <time>2018-04-15T13:35:04Z</time>
      </trkpt>
      <trkpt lat="48.37429" lon="2.77914">
        <ele>101.2</ele>
        <time>2018-04-15T13:35:05Z</time>
      </trkpt>
      <trkpt lat="48.37431" lon="2.77907">
        <ele>101.2</ele>
        <time>2018-04-15T13:35:06Z</time>
      </trkpt>
      <trkpt lat="48.37433" lon="2.77899">
        <ele>101.2</ele>
        <time>2018-04-15T13:35:07Z</time>
      </trkpt>
      <trkpt lat="48.37436" lon="2.77891">
        <ele>101.1</ele>
        <time>2018-04-15T13:35:08Z</time>
      </trkpt>
      <trkpt lat="48.37438" lon="2.77884">
        <ele>101.1</ele>
        <time>2018-04-15T13:35:09Z</time>
      </trkpt>
      <trkpt lat="48.3744" lon="2.77878">
        <ele>101</ele>
        <time>2018-04-15T13:35:10Z</time>
      </trkpt>
      <trkpt lat="48.37442" lon="2.77872">
        <ele>101</ele>
        <time>2018-04-15T13:35:11Z</time>
      </trkpt>
      <trkpt lat="48.37445" lon="2.77865">
        <ele>100.9</ele>
        <time>2018-04-15T13:35:12Z</time>
      </trkpt>
      <trkpt lat="48.37448" lon="2.77861">
        <ele>100.9</ele>
        <time>2018-04-15T13:35:13Z</time>
      </trkpt>
      <trkpt lat="48.37451" lon="2.77855">
        <ele>100.9</ele>
        <time>2018-04-15T13:35:14Z</time>
      </trkpt>
      <trkpt lat="48.37453" lon="2.77849">
        <ele>100.9</ele>
        <time>2018-04-15T13:35:15Z</time>
      </trkpt>
      <trkpt lat="48.37455" lon="2.77841">
        <ele>100.9</ele>
        <time>2018-04-15T13:35:16Z</time>
      </trkpt>
      <trkpt lat="48.37458" lon="2.77835">
        <ele>100.9</ele>
        <time>2018-04-15T13:35:17Z</time>
      </trkpt>
      <trkpt lat="48.3746" lon="2.77827">
        <ele>100.9</ele>
        <time>2018-04-15T13:35:18Z</time>
      </trkpt>
      <trkpt lat="48.37462" lon="2.77822">
        <ele>100.9</ele>
        <time>2018-04-15T13:35:19Z</time>
      </trkpt>
      <trkpt lat="48.37464" lon="2.77817">
        <ele>100.9</ele>
        <time>2018-04-15T13:35:20Z</time>
      </trkpt>
      <trkpt lat="48.37466" lon="2.77812">
        <ele>100.9</ele>
        <time>2018-04-15T13:35:21Z</time>
      </trkpt>
      <trkpt lat="48.37468" lon="2.77805">
        <ele>100.9</ele>
        <time>2018-04-15T13:35:22Z</time>
      </trkpt>
      <trkpt lat="48.37471" lon="2.77799">
        <ele>101</ele>
        <time>2018-04-15T13:35:23Z</time>
      </trkpt>
      <trkpt lat="48.37473" lon="2.77793">
        <ele>101</ele>
        <time>2018-04-15T13:35:24Z</time>
      </trkpt>
      <trkpt lat="48.37476" lon="2.77787">
        <ele>101</ele>
        <time>2018-04-15T13:35:25Z</time>
      </trkpt>
      <trkpt lat="48.37478" lon="2.77781">
        <ele>101.1</ele>
        <time>2018-04-15T13:35:26Z</time>
      </trkpt>
      <trkpt lat="48.3748" lon="2.77776">
        <ele>101.1</ele>
        <time>2018-04-15T13:35:27Z</time>
      </trkpt>
      <trkpt lat="48.37482" lon="2.7777">
        <ele>101.2</ele>
        <time>2018-04-15T13:35:28Z</time>
      </trkpt>
      <trkpt lat="48.37484" lon="2.77764">
        <ele>101.3</ele>
        <time>2018-04-15T13:35:29Z</time>
      </trkpt>
      <trkpt lat="48.37486" lon="2.7776">
        <ele>101.4</ele>
        <time>2018-04-15T13:35:30Z</time>
      </trkpt>
      <trkpt lat="48.37487" lon="2.77755">
        <ele>101.5</ele>
        <time>2018-04-15T13:35:31Z</time>
      </trkpt>
      <trkpt lat="48.37488" lon="2.77751">
        <ele>101.5</ele>
        <time>2018-04-15T13:35:32Z</time>
      </trkpt>
      <trkpt lat="48.37489" lon="2.77746">
        <ele>101.6</ele>
        <time>2018-04-15T13:35:33Z</time>
      </trkpt>
      <trkpt lat="48.37491" lon="2.77742">
        <ele>101.7</ele>
        <time>2018-04-15T13:35:34Z</time>
      </trkpt>
      <trkpt lat="48.37491" lon="2.77737">
        <ele>101.7</ele>
        <time>2018-04-15T13:35:35Z</time>
      </trkpt>
      <trkpt lat="48.37492" lon="2.7773">
        <ele>101.8</ele>
        <time>2018-04-15T13:35:36Z</time>
      </trkpt>
      <trkpt lat="48.37492" lon="2.77721">
        <ele>102</ele>
        <time>2018-04-15T13:35:37Z</time>
      </trkpt>
      <trkpt lat="48.37492" lon="2.77712">
        <ele>102</ele>
        <time>2018-04-15T13:35:38Z</time>
      </trkpt>
      <trkpt lat="48.37491" lon="2.77703">
        <ele>102</ele>
        <time>2018-04-15T13:35:39Z</time>
      </trkpt>
      <trkpt lat="48.3749" lon="2.77695">
        <ele>102.1</ele>
        <time>2018-04-15T13:35:40Z</time>
      </trkpt>
      <trkpt lat="48.3749" lon="2.77687">
        <ele>102.1</ele>
        <time>2018-04-15T13:35:41Z</time>
      </trkpt>
      <trkpt lat="48.37489" lon="2.77681">
        <ele>102.1</ele>
        <time>2018-04-15T13:35:42Z</time>
      </trkpt>
      <trkpt lat="48.37488" lon="2.77673">
        <ele>102.2</ele>
        <time>2018-04-15T13:35:43Z</time>
      </trkpt>
      <trkpt lat="48.37487" lon="2.77665">
        <ele>102.2</ele>
        <time>2018-04-15T13:35:44Z</time>
      </trkpt>
      <trkpt lat="48.37486" lon="2.77659">
        <ele>102.3</ele>
        <time>2018-04-15T13:35:45Z</time>
      </trkpt>
      <trkpt lat="48.37486" lon="2.77652">
        <ele>102.3</ele>
        <time>2018-04-15T13:35:46Z</time>
      </trkpt>
      <trkpt lat="48.37486" lon="2.77645">
        <ele>102.4</ele>
        <time>2018-04-15T13:35:47Z</time>
      </trkpt>
      <trkpt lat="48.37485" lon="2.77639">
        <ele>102.4</ele>
        <time>2018-04-15T13:35:48Z</time>
      </trkpt>
      <trkpt lat="48.37484" lon="2.77633">
        <ele>102.5</ele>
        <time>2018-04-15T13:35:49Z</time>
      </trkpt>
      <trkpt lat="48.37484" lon="2.77626">
        <ele>102.5</ele>
        <time>2018-04-15T13:35:50Z</time>
      </trkpt>
      <trkpt lat="48.37483" lon="2.77619">
        <ele>102.6</ele>
        <time>2018-04-15T13:35:51Z</time>
      </trkpt>
      <trkpt lat="48.37482" lon="2.77614">
        <ele>102.6</ele>
        <time>2018-04-15T13:35:52Z</time>
      </trkpt>
      <trkpt lat="48.37481" lon="2.77608">
        <ele>102.6</ele>
        <time>2018-04-15T13:35:53Z</time>
      </trkpt>
      <trkpt lat="48.3748" lon="2.77602">
        <ele>102.7</ele>
        <time>2018-04-15T13:35:54Z</time>
      </trkpt>
      <trkpt lat="48.37479" lon="2.77595">
        <ele>102.7</ele>
        <time>2018-04-15T13:35:55Z</time>
      </trkpt>
      <trkpt lat="48.37477" lon="2.77587">
        <ele>102.7</ele>
        <time>2018-04-15T13:35:56Z</time>
      </trkpt>
      <trkpt lat="48.37476" lon="2.77581">
        <ele>102.7</ele>
        <time>2018-04-15T13:35:57Z</time>
      </trkpt>
      <trkpt lat="48.37475" lon="2.77573">
        <ele>102.8</ele>
        <time>2018-04-15T13:35:58Z</time>
      </trkpt>
      <trkpt lat="48.37474" lon="2.77565">
        <ele>102.8</ele>
        <time>2018-04-15T13:35:59Z</time>
      </trkpt>
      <trkpt lat="48.37473" lon="2.77557">
        <ele>102.8</ele>
        <time>2018-04-15T13:36:00Z</time>
      </trkpt>
      <trkpt lat="48.37473" lon="2.77549">
        <ele>102.8</ele>
        <time>2018-04-15T13:36:01Z</time>
      </trkpt>
      <trkpt lat="48.37474" lon="2.77542">
        <ele>102.8</ele>
        <time>2018-04-15T13:36:02Z</time>
      </trkpt>
      <trkpt lat="48.37475" lon="2.77534">
        <ele>102.8</ele>
        <time>2018-04-15T13:36:03Z</time>
      </trkpt>
      <trkpt lat="48.37475" lon="2.77526">
        <ele>102.8</ele>
        <time>2018-04-15T13:36:04Z</time>
      </trkpt>
      <trkpt lat="48.37475" lon="2.77518">
        <ele>102.7</ele>
        <time>2018-04-15T13:36:05Z</time>
      </trkpt>
      <trkpt lat="48.37476" lon="2.77511">
        <ele>102.7</ele>
        <time>2018-04-15T13:36:06Z</time>
      </trkpt>
      <trkpt lat="48.37476" lon="2.77505">
        <ele>102.6</ele>
        <time>2018-04-15T13:36:07Z</time>
      </trkpt>
      <trkpt lat="48.37477" lon="2.77497">
        <ele>102.5</ele>
        <time>2018-04-15T13:36:08Z</time>
      </trkpt>
      <trkpt lat="48.37478" lon="2.7749">
        <ele>102.5</ele>
        <time>2018-04-15T13:36:09Z</time>
      </trkpt>
      <trkpt lat="48.37479" lon="2.77482">
        <ele>102.4</ele>
        <time>2018-04-15T13:36:10Z</time>
      </trkpt>
      <trkpt lat="48.3748" lon="2.77476">
        <ele>102.3</ele>
        <time>2018-04-15T13:36:11Z</time>
      </trkpt>
      <trkpt lat="48.37482" lon="2.77469">
        <ele>102.2</ele>
        <time>2018-04-15T13:36:12Z</time>
      </trkpt>
      <trkpt lat="48.37483" lon="2.77462">
        <ele>102.1</ele>
        <time>2018-04-15T13:36:13Z</time>
      </trkpt>
      <trkpt lat="48.37484" lon="2.77453">
        <ele>102</ele>
        <time>2018-04-15T13:36:14Z</time>
      </trkpt>
      <trkpt lat="48.37485" lon="2.77445">
        <ele>101.9</ele>
        <time>2018-04-15T13:36:15Z</time>
      </trkpt>
      <trkpt lat="48.37487" lon="2.77438">
        <ele>101.8</ele>
        <time>2018-04-15T13:36:16Z</time>
      </trkpt>
      <trkpt lat="48.37489" lon="2.77431">
        <ele>101.8</ele>
        <time>2018-04-15T13:36:17Z</time>
      </trkpt>
      <trkpt lat="48.37493" lon="2.77422">
        <ele>101.7</ele>
        <time>2018-04-15T13:36:18Z</time>
      </trkpt>
      <trkpt lat="48.37496" lon="2.77416">
        <ele>101.7</ele>
        <time>2018-04-15T13:36:19Z</time>
      </trkpt>
      <trkpt lat="48.375" lon="2.7741">
        <ele>101.7</ele>
        <time>2018-04-15T13:36:20Z</time>
      </trkpt>
      <trkpt lat="48.37503" lon="2.77405">
        <ele>101.7</ele>
        <time>2018-04-15T13:36:21Z</time>
      </trkpt>
      <trkpt lat="48.37506" lon="2.774">
        <ele>101.7</ele>
        <time>2018-04-15T13:36:22Z</time>
      </trkpt>
      <trkpt lat="48.3751" lon="2.77394">
        <ele>101.7</ele>
        <time>2018-04-15T13:36:23Z</time>
      </trkpt>
      <trkpt lat="48.37513" lon="2.77388">
        <ele>101.7</ele>
        <time>2018-04-15T13:36:24Z</time>
      </trkpt>
      <trkpt lat="48.37516" lon="2.77383">
        <ele>101.7</ele>
        <time>2018-04-15T13:36:25Z</time>
      </trkpt>
      <trkpt lat="48.3752" lon="2.77377">
        <ele>101.6</ele>
        <time>2018-04-15T13:36:26Z</time>
      </trkpt>
      <trkpt lat="48.37524" lon="2.77371">
        <ele>101.6</ele>
        <time>2018-04-15T13:36:27Z</time>
      </trkpt>
      <trkpt lat="48.37527" lon="2.77366">
        <ele>101.6</ele>
        <time>2018-04-15T13:36:28Z</time>
      </trkpt>
      <trkpt lat="48.3753" lon="2.77361">
        <ele>101.6</ele>
        <time>2018-04-15T13:36:29Z</time>
      </trkpt>
      <trkpt lat="48.37533" lon="2.77356">
        <ele>101.6</ele>
        <time>2018-04-15T13:36:30Z</time>
      </trkpt>
      <trkpt lat="48.37535" lon="2.7735">
        <ele>101.6</ele>
        <time>2018-04-15T13:36:31Z</time>
      </trkpt>
      <trkpt lat="48.37537" lon="2.77346">
        <ele>101.6</ele>
        <time>2018-04-15T13:36:32Z</time>
      </trkpt>
      <trkpt lat="48.37539" lon="2.77341">
        <ele>101.6</ele>
        <time>2018-04-15T13:36:33Z</time>
      </trkpt>
      <trkpt lat="48.37542" lon="2.77335">
        <ele>101.7</ele>
        <time>2018-04-15T13:36:34Z</time>
      </trkpt>
      <trkpt lat="48.37544" lon="2.77328">
        <ele>101.8</ele>
        <time>2018-04-15T13:36:35Z</time>
      </trkpt>
      <trkpt lat="48.37548" lon="2.77324">
        <ele>101.9</ele>
        <time>2018-04-15T13:36:36Z</time>
      </trkpt>
      <trkpt lat="48.37552" lon="2.77321">
        <ele>102</ele>
        <time>2018-04-15T13:36:37Z</time>
      </trkpt>
      <trkpt lat="48.37556" lon="2.77319">
        <ele>102.1</ele>
        <time>2018-04-15T13:36:38Z</time>
      </trkpt>
      <trkpt lat="48.37561" lon="2.77315">
        <ele>102.2</ele>
        <time>2018-04-15T13:36:39Z</time>
      </trkpt>
      <trkpt lat="48.37565" lon="2.77312">
        <ele>102.2</ele>
        <time>2018-04-15T13:36:40Z</time>
      </trkpt>
      <trkpt lat="48.37568" lon="2.77309">
        <ele>102.2</ele>
        <time>2018-04-15T13:36:41Z</time>
      </trkpt>
      <trkpt lat="48.37571" lon="2.77305">
        <ele>102.2</ele>
        <time>2018-04-15T13:36:42Z</time>
      </trkpt>
      <trkpt lat="48.37572" lon="2.77301">
        <ele>102.2</ele>
        <time>2018-04-15T13:36:43Z</time>
      </trkpt>
      <trkpt lat="48.37574" lon="2.77295">
        <ele>102.2</ele>
        <time>2018-04-15T13:36:44Z</time>
      </trkpt>
      <trkpt lat="48.37576" lon="2.77289">
        <ele>102.1</ele>
        <time>2018-04-15T13:36:45Z</time>
      </trkpt>
      <trkpt lat="48.37576" lon="2.77283">
        <ele>102.1</ele>
        <time>2018-04-15T13:36:46Z</time>
      </trkpt>
      <trkpt lat="48.37577" lon="2.77278">
        <ele>102</ele>
        <time>2018-04-15T13:36:47Z</time>
      </trkpt>
      <trkpt lat="48.37577" lon="2.77273">
        <ele>102</ele>
        <time>2018-04-15T13:36:48Z</time>
      </trkpt>
      <trkpt lat="48.37578" lon="2.77268">
        <ele>102</ele>
        <time>2018-04-15T13:36:49Z</time>
      </trkpt>
      <trkpt lat="48.37579" lon="2.77263">
        <ele>102.1</ele>
        <time>2018-04-15T13:36:51Z</time>
      </trkpt>
      <trkpt lat="48.37578" lon="2.77258">
        <ele>102.2</ele>
        <time>2018-04-15T13:36:53Z</time>
      </trkpt>
      <trkpt lat="48.37574" lon="2.77255">
        <ele>102.3</ele>
        <time>2018-04-15T13:36:57Z</time>
      </trkpt>
      <trkpt lat="48.37572" lon="2.77253">
        <ele>102.3</ele>
        <time>2018-04-15T13:36:58Z</time>
      </trkpt>
      <trkpt lat="48.37566" lon="2.77251">
        <ele>102.4</ele>
        <time>2018-04-15T13:37:00Z</time>
      </trkpt>
      <trkpt lat="48.37562" lon="2.77251">
        <ele>102.5</ele>
        <time>2018-04-15T13:37:01Z</time>
      </trkpt>
      <trkpt lat="48.37558" lon="2.7725">
        <ele>102.6</ele>
        <time>2018-04-15T13:37:02Z</time>
      </trkpt>
      <trkpt lat="48.37553" lon="2.77249">
        <ele>102.6</ele>
        <time>2018-04-15T13:37:03Z</time>
      </trkpt>
      <trkpt lat="48.37548" lon="2.77249">
        <ele>102.7</ele>
        <time>2018-04-15T13:37:04Z</time>
      </trkpt>
      <trkpt lat="48.37544" lon="2.77248">
        <ele>102.8</ele>
        <time>2018-04-15T13:37:05Z</time>
      </trkpt>
      <trkpt lat="48.37539" lon="2.77248">
        <ele>102.9</ele>
        <time>2018-04-15T13:37:06Z</time>
      </trkpt>
      <trkpt lat="48.37535" lon="2.77248">
        <ele>102.9</ele>
        <time>2018-04-15T13:37:07Z</time>
      </trkpt>
      <trkpt lat="48.3753" lon="2.77248">
        <ele>103</ele>
        <time>2018-04-15T13:37:08Z</time>
      </trkpt>
      <trkpt lat="48.37525" lon="2.77248">
        <ele>103.1</ele>
        <time>2018-04-15T13:37:09Z</time>
      </trkpt>
      <trkpt lat="48.37521" lon="2.77248">
        <ele>103.2</ele>
        <time>2018-04-15T13:37:10Z</time>
      </trkpt>
      <trkpt lat="48.37515" lon="2.77248">
        <ele>103.3</ele>
        <time>2018-04-15T13:37:11Z</time>
      </trkpt>
      <trkpt lat="48.37509" lon="2.77247">
        <ele>103.3</ele>
        <time>2018-04-15T13:37:12Z</time>
      </trkpt>
      <trkpt lat="48.37503" lon="2.77244">
        <ele>103.4</ele>
        <time>2018-04-15T13:37:13Z</time>
      </trkpt>
      <trkpt lat="48.37501" lon="2.77243">
        <ele>103.5</ele>
        <time>2018-04-15T13:37:14Z</time>
      </trkpt>
      <trkpt lat="48.37499" lon="2.7724">
        <ele>103.5</ele>
        <time>2018-04-15T13:37:15Z</time>
      </trkpt>
      <trkpt lat="48.37496" lon="2.77234">
        <ele>103.6</ele>
        <time>2018-04-15T13:37:17Z</time>
      </trkpt>
      <trkpt lat="48.37496" lon="2.7723">
        <ele>103.7</ele>
        <time>2018-04-15T13:37:18Z</time>
      </trkpt>
      <trkpt lat="48.37495" lon="2.77223">
        <ele>103.9</ele>
        <time>2018-04-15T13:37:19Z</time>
      </trkpt>
      <trkpt lat="48.37494" lon="2.77217">
        <ele>103.8</ele>
        <time>2018-04-15T13:37:20Z</time>
      </trkpt>
      <trkpt lat="48.37493" lon="2.7721">
        <ele>103.8</ele>
        <time>2018-04-15T13:37:21Z</time>
      </trkpt>
      <trkpt lat="48.37493" lon="2.77204">
        <ele>103.8</ele>
        <time>2018-04-15T13:37:22Z</time>
      </trkpt>
      <trkpt lat="48.37493" lon="2.77194">
        <ele>103.7</ele>
        <time>2018-04-15T13:37:23Z</time>
      </trkpt>
      <trkpt lat="48.37494" lon="2.77185">
        <ele>103.6</ele>
        <time>2018-04-15T13:37:24Z</time>
      </trkpt>
      <trkpt lat="48.37494" lon="2.77177">
        <ele>103.6</ele>
        <time>2018-04-15T13:37:25Z</time>
      </trkpt>
      <trkpt lat="48.37495" lon="2.77169">
        <ele>103.5</ele>
        <time>2018-04-15T13:37:26Z</time>
      </trkpt>
      <trkpt lat="48.37496" lon="2.77161">
        <ele>103.4</ele>
        <time>2018-04-15T13:37:27Z</time>
      </trkpt>
      <trkpt lat="48.37497" lon="2.77153">
        <ele>103.4</ele>
        <time>2018-04-15T13:37:28Z</time>
      </trkpt>
      <trkpt lat="48.37498" lon="2.77143">
        <ele>103.3</ele>
        <time>2018-04-15T13:37:29Z</time>
      </trkpt>
      <trkpt lat="48.37499" lon="2.77136">
        <ele>103.3</ele>
        <time>2018-04-15T13:37:30Z</time>
      </trkpt>
      <trkpt lat="48.37499" lon="2.77126">
        <ele>103.3</ele>
        <time>2018-04-15T13:37:31Z</time>
      </trkpt>
      <trkpt lat="48.37501" lon="2.77116">
        <ele>103.2</ele>
        <time>2018-04-15T13:37:32Z</time>
      </trkpt>
      <trkpt lat="48.37502" lon="2.77108">
        <ele>103.2</ele>
        <time>2018-04-15T13:37:33Z</time>
      </trkpt>
      <trkpt lat="48.37503" lon="2.77101">
        <ele>103.2</ele>
        <time>2018-04-15T13:37:34Z</time>
      </trkpt>
      <trkpt lat="48.37504" lon="2.77094">
        <ele>103.1</ele>
        <time>2018-04-15T13:37:35Z</time>
      </trkpt>
      <trkpt lat="48.37505" lon="2.77087">
        <ele>103.1</ele>
        <time>2018-04-15T13:37:36Z</time>
      </trkpt>
      <trkpt lat="48.37506" lon="2.77081">
        <ele>103.1</ele>
        <time>2018-04-15T13:37:37Z</time>
      </trkpt>
      <trkpt lat="48.37507" lon="2.77074">
        <ele>103.1</ele>
        <time>2018-04-15T13:37:38Z</time>
      </trkpt>
      <trkpt lat="48.37509" lon="2.77067">
        <ele>103.1</ele>
        <time>2018-04-15T13:37:39Z</time>
      </trkpt>
      <trkpt lat="48.3751" lon="2.77062">
        <ele>103</ele>
        <time>2018-04-15T13:37:40Z</time>
      </trkpt>
      <trkpt lat="48.37511" lon="2.77053">
        <ele>103</ele>
        <time>2018-04-15T13:37:41Z</time>
      </trkpt>
      <trkpt lat="48.37512" lon="2.77043">
        <ele>103</ele>
        <time>2018-04-15T13:37:42Z</time>
      </trkpt>
      <trkpt lat="48.37513" lon="2.77035">
        <ele>103</ele>
        <time>2018-04-15T13:37:43Z</time>
      </trkpt>
      <trkpt lat="48.37514" lon="2.77029">
        <ele>103</ele>
        <time>2018-04-15T13:37:44Z</time>
      </trkpt>
      <trkpt lat="48.37515" lon="2.77022">
        <ele>103</ele>
        <time>2018-04-15T13:37:45Z</time>
      </trkpt>
      <trkpt lat="48.37517" lon="2.77015">
        <ele>103</ele>
        <time>2018-04-15T13:37:46Z</time>
      </trkpt>
      <trkpt lat="48.37517" lon="2.77009">
        <ele>103</ele>
        <time>2018-04-15T13:37:47Z</time>
      </trkpt>
      <trkpt lat="48.37518" lon="2.77001">
        <ele>103</ele>
        <time>2018-04-15T13:37:48Z</time>
      </trkpt>
      <trkpt lat="48.37519" lon="2.76993">
        <ele>103</ele>
        <time>2018-04-15T13:37:49Z</time>
      </trkpt>
      <trkpt lat="48.37521" lon="2.76986">
        <ele>103</ele>
        <time>2018-04-15T13:37:50Z</time>
      </trkpt>
      <trkpt lat="48.37522" lon="2.7698">
        <ele>103.1</ele>
        <time>2018-04-15T13:37:51Z</time>
      </trkpt>
      <trkpt lat="48.37523" lon="2.76972">
        <ele>103.2</ele>
        <time>2018-04-15T13:37:52Z</time>
      </trkpt>
      <trkpt lat="48.37523" lon="2.76966">
        <ele>103.3</ele>
        <time>2018-04-15T13:37:53Z</time>
      </trkpt>
      <trkpt lat="48.37524" lon="2.76961">
        <ele>103.4</ele>
        <time>2018-04-15T13:37:54Z</time>
      </trkpt>
      <trkpt lat="48.37525" lon="2.76955">
        <ele>103.4</ele>
        <time>2018-04-15T13:37:55Z</time>
      </trkpt>
      <trkpt lat="48.37526" lon="2.76948">
        <ele>103.5</ele>
        <time>2018-04-15T13:37:56Z</time>
      </trkpt>
      <trkpt lat="48.37527" lon="2.76941">
        <ele>103.6</ele>
        <time>2018-04-15T13:37:57Z</time>
      </trkpt>
      <trkpt lat="48.37528" lon="2.76935">
        <ele>103.6</ele>
        <time>2018-04-15T13:37:58Z</time>
      </trkpt>
      <trkpt lat="48.37529" lon="2.76929">
        <ele>103.6</ele>
        <time>2018-04-15T13:37:59Z</time>
      </trkpt>
      <trkpt lat="48.3753" lon="2.76924">
        <ele>103.6</ele>
        <time>2018-04-15T13:38:00Z</time>
      </trkpt>
      <trkpt lat="48.37531" lon="2.76918">
        <ele>103.6</ele>
        <time>2018-04-15T13:38:01Z</time>
      </trkpt>
      <trkpt lat="48.37532" lon="2.7691">
        <ele>103.6</ele>
        <time>2018-04-15T13:38:02Z</time>
      </trkpt>
      <trkpt lat="48.37534" lon="2.76903">
        <ele>103.6</ele>
        <time>2018-04-15T13:38:03Z</time>
      </trkpt>
      <trkpt lat="48.37535" lon="2.76897">
        <ele>103.6</ele>
        <time>2018-04-15T13:38:04Z</time>
      </trkpt>
      <trkpt lat="48.37536" lon="2.7689">
        <ele>103.5</ele>
        <time>2018-04-15T13:38:05Z</time>
      </trkpt>
      <trkpt lat="48.37537" lon="2.76883">
        <ele>103.4</ele>
        <time>2018-04-15T13:38:06Z</time>
      </trkpt>
      <trkpt lat="48.37538" lon="2.76877">
        <ele>103.3</ele>
        <time>2018-04-15T13:38:07Z</time>
      </trkpt>
      <trkpt lat="48.37539" lon="2.7687">
        <ele>103.3</ele>
        <time>2018-04-15T13:38:08Z</time>
      </trkpt>
      <trkpt lat="48.37541" lon="2.7686">
        <ele>103.1</ele>
        <time>2018-04-15T13:38:09Z</time>
      </trkpt>
      <trkpt lat="48.37542" lon="2.76852">
        <ele>102.9</ele>
        <time>2018-04-15T13:38:10Z</time>
      </trkpt>
      <trkpt lat="48.37543" lon="2.76848">
        <ele>102.8</ele>
        <time>2018-04-15T13:38:11Z</time>
      </trkpt>
      <trkpt lat="48.37544" lon="2.76839">
        <ele>102.7</ele>
        <time>2018-04-15T13:38:12Z</time>
      </trkpt>
      <trkpt lat="48.37545" lon="2.76834">
        <ele>102.6</ele>
        <time>2018-04-15T13:38:13Z</time>
      </trkpt>
      <trkpt lat="48.37546" lon="2.76826">
        <ele>102.3</ele>
        <time>2018-04-15T13:38:14Z</time>
      </trkpt>
      <trkpt lat="48.37547" lon="2.76817">
        <ele>101.7</ele>
        <time>2018-04-15T13:38:15Z</time>
      </trkpt>
      <trkpt lat="48.37548" lon="2.76811">
        <ele>101.2</ele>
        <time>2018-04-15T13:38:16Z</time>
      </trkpt>
      <trkpt lat="48.37549" lon="2.76805">
        <ele>100.6</ele>
        <time>2018-04-15T13:38:17Z</time>
      </trkpt>
      <trkpt lat="48.37552" lon="2.76797">
        <ele>100</ele>
        <time>2018-04-15T13:38:18Z</time>
      </trkpt>
      <trkpt lat="48.37555" lon="2.7679">
        <ele>100</ele>
        <time>2018-04-15T13:38:19Z</time>
      </trkpt>
      <trkpt lat="48.37559" lon="2.76784">
        <ele>99.8</ele>
        <time>2018-04-15T13:38:20Z</time>
      </trkpt>
      <trkpt lat="48.37564" lon="2.7678">
        <ele>99.5</ele>
        <time>2018-04-15T13:38:21Z</time>
      </trkpt>
      <trkpt lat="48.3757" lon="2.76777">
        <ele>99.3</ele>
        <time>2018-04-15T13:38:22Z</time>
      </trkpt>
      <trkpt lat="48.37574" lon="2.76775">
        <ele>99.1</ele>
        <time>2018-04-15T13:38:23Z</time>
      </trkpt>
      <trkpt lat="48.37578" lon="2.76774">
        <ele>98.9</ele>
        <time>2018-04-15T13:38:24Z</time>
      </trkpt>
      <trkpt lat="48.37582" lon="2.76774">
        <ele>98.7</ele>
        <time>2018-04-15T13:38:25Z</time>
      </trkpt>
      <trkpt lat="48.37586" lon="2.76773">
        <ele>98.6</ele>
        <time>2018-04-15T13:38:26Z</time>
      </trkpt>
      <trkpt lat="48.3759" lon="2.76772">
        <ele>98.4</ele>
        <time>2018-04-15T13:38:27Z</time>
      </trkpt>
      <trkpt lat="48.37593" lon="2.76769">
        <ele>98</ele>
        <time>2018-04-15T13:38:28Z</time>
      </trkpt>
      <trkpt lat="48.37595" lon="2.76762">
        <ele>98</ele>
        <time>2018-04-15T13:38:30Z</time>
      </trkpt>
      <trkpt lat="48.37596" lon="2.76757">
        <ele>98.4</ele>
        <time>2018-04-15T13:38:31Z</time>
      </trkpt>
      <trkpt lat="48.37595" lon="2.76752">
        <ele>99.2</ele>
        <time>2018-04-15T13:38:32Z</time>
      </trkpt>
      <trkpt lat="48.37595" lon="2.76747">
        <ele>99.8</ele>
        <time>2018-04-15T13:38:33Z</time>
      </trkpt>
      <trkpt lat="48.37594" lon="2.7674">
        <ele>100.5</ele>
        <time>2018-04-15T13:38:34Z</time>
      </trkpt>
      <trkpt lat="48.37592" lon="2.76734">
        <ele>101.3</ele>
        <time>2018-04-15T13:38:35Z</time>
      </trkpt>
      <trkpt lat="48.3759" lon="2.76726">
        <ele>102.2</ele>
        <time>2018-04-15T13:38:36Z</time>
      </trkpt>
      <trkpt lat="48.37587" lon="2.76717">
        <ele>103.5</ele>
        <time>2018-04-15T13:38:37Z</time>
      </trkpt>
      <trkpt lat="48.37584" lon="2.76707">
        <ele>104.9</ele>
        <time>2018-04-15T13:38:38Z</time>
      </trkpt>
      <trkpt lat="48.37581" lon="2.76697">
        <ele>105.6</ele>
        <time>2018-04-15T13:38:39Z</time>
      </trkpt>
      <trkpt lat="48.3758" lon="2.76689">
        <ele>105.4</ele>
        <time>2018-04-15T13:38:40Z</time>
      </trkpt>
      <trkpt lat="48.3758" lon="2.76684">
        <ele>105.3</ele>
        <time>2018-04-15T13:38:41Z</time>
      </trkpt>
      <trkpt lat="48.3758" lon="2.76678">
        <ele>105.2</ele>
        <time>2018-04-15T13:38:42Z</time>
      </trkpt>
      <trkpt lat="48.3758" lon="2.7667">
        <ele>105.1</ele>
        <time>2018-04-15T13:38:43Z</time>
      </trkpt>
      <trkpt lat="48.37581" lon="2.76662">
        <ele>105</ele>
        <time>2018-04-15T13:38:44Z</time>
      </trkpt>
      <trkpt lat="48.37582" lon="2.76655">
        <ele>105</ele>
        <time>2018-04-15T13:38:45Z</time>
      </trkpt>
      <trkpt lat="48.37584" lon="2.76649">
        <ele>104.9</ele>
        <time>2018-04-15T13:38:46Z</time>
      </trkpt>
      <trkpt lat="48.37585" lon="2.76641">
        <ele>104.9</ele>
        <time>2018-04-15T13:38:47Z</time>
      </trkpt>
      <trkpt lat="48.37586" lon="2.76634">
        <ele>104.9</ele>
        <time>2018-04-15T13:38:48Z</time>
      </trkpt>
      <trkpt lat="48.37587" lon="2.76626">
        <ele>104.8</ele>
        <time>2018-04-15T13:38:49Z</time>
      </trkpt>
      <trkpt lat="48.37588" lon="2.76619">
        <ele>104.8</ele>
        <time>2018-04-15T13:38:50Z</time>
      </trkpt>
      <trkpt lat="48.3759" lon="2.7661">
        <ele>104.8</ele>
        <time>2018-04-15T13:38:51Z</time>
      </trkpt>
      <trkpt lat="48.37591" lon="2.76601">
        <ele>104.7</ele>
        <time>2018-04-15T13:38:52Z</time>
      </trkpt>
      <trkpt lat="48.37592" lon="2.76592">
        <ele>104.7</ele>
        <time>2018-04-15T13:38:53Z</time>
      </trkpt>
      <trkpt lat="48.37593" lon="2.76581">
        <ele>104.7</ele>
        <time>2018-04-15T13:38:54Z</time>
      </trkpt>
      <trkpt lat="48.37595" lon="2.7657">
        <ele>104.6</ele>
        <time>2018-04-15T13:38:55Z</time>
      </trkpt>
      <trkpt lat="48.37597" lon="2.76561">
        <ele>104.6</ele>
        <time>2018-04-15T13:38:56Z</time>
      </trkpt>
      <trkpt lat="48.37598" lon="2.76552">
        <ele>104.5</ele>
        <time>2018-04-15T13:38:57Z</time>
      </trkpt>
      <trkpt lat="48.37599" lon="2.76541">
        <ele>104.5</ele>
        <time>2018-04-15T13:38:58Z</time>
      </trkpt>
      <trkpt lat="48.37599" lon="2.76533">
        <ele>104.5</ele>
        <time>2018-04-15T13:38:59Z</time>
      </trkpt>
      <trkpt lat="48.376" lon="2.76524">
        <ele>104.5</ele>
        <time>2018-04-15T13:39:00Z</time>
      </trkpt>
      <trkpt lat="48.37601" lon="2.76516">
        <ele>104.4</ele>
        <time>2018-04-15T13:39:01Z</time>
      </trkpt>
      <trkpt lat="48.37601" lon="2.76509">
        <ele>104.4</ele>
        <time>2018-04-15T13:39:02Z</time>
      </trkpt>
      <trkpt lat="48.37601" lon="2.765">
        <ele>104.4</ele>
        <time>2018-04-15T13:39:03Z</time>
      </trkpt>
      <trkpt lat="48.37602" lon="2.76491">
        <ele>104.4</ele>
        <time>2018-04-15T13:39:04Z</time>
      </trkpt>
      <trkpt lat="48.37602" lon="2.76482">
        <ele>104.4</ele>
        <time>2018-04-15T13:39:05Z</time>
      </trkpt>
      <trkpt lat="48.37603" lon="2.76474">
        <ele>104.3</ele>
        <time>2018-04-15T13:39:06Z</time>
      </trkpt>
      <trkpt lat="48.37604" lon="2.76465">
        <ele>104.3</ele>
        <time>2018-04-15T13:39:07Z</time>
      </trkpt>
      <trkpt lat="48.37605" lon="2.76456">
        <ele>104.3</ele>
        <time>2018-04-15T13:39:08Z</time>
      </trkpt>
      <trkpt lat="48.37605" lon="2.76447">
        <ele>104.3</ele>
        <time>2018-04-15T13:39:09Z</time>
      </trkpt>
      <trkpt lat="48.37607" lon="2.76438">
        <ele>104.3</ele>
        <time>2018-04-15T13:39:10Z</time>
      </trkpt>
      <trkpt lat="48.37608" lon="2.7643">
        <ele>104.2</ele>
        <time>2018-04-15T13:39:11Z</time>
      </trkpt>
      <trkpt lat="48.37609" lon="2.76421">
        <ele>104.2</ele>
        <time>2018-04-15T13:39:12Z</time>
      </trkpt>
      <trkpt lat="48.3761" lon="2.76412">
        <ele>104.1</ele>
        <time>2018-04-15T13:39:13Z</time>
      </trkpt>
      <trkpt lat="48.37611" lon="2.76402">
        <ele>104.1</ele>
        <time>2018-04-15T13:39:14Z</time>
      </trkpt>
      <trkpt lat="48.37613" lon="2.76392">
        <ele>104</ele>
        <time>2018-04-15T13:39:15Z</time>
      </trkpt>
      <trkpt lat="48.37615" lon="2.76383">
        <ele>104</ele>
        <time>2018-04-15T13:39:16Z</time>
      </trkpt>
      <trkpt lat="48.37616" lon="2.76377">
        <ele>103.9</ele>
        <time>2018-04-15T13:39:17Z</time>
      </trkpt>
      <trkpt lat="48.37619" lon="2.7637">
        <ele>103.8</ele>
        <time>2018-04-15T13:39:18Z</time>
      </trkpt>
      <trkpt lat="48.37622" lon="2.76365">
        <ele>103.7</ele>
        <time>2018-04-15T13:39:19Z</time>
      </trkpt>
      <trkpt lat="48.37625" lon="2.7636">
        <ele>103.6</ele>
        <time>2018-04-15T13:39:20Z</time>
      </trkpt>
      <trkpt lat="48.37629" lon="2.76354">
        <ele>103.6</ele>
        <time>2018-04-15T13:39:21Z</time>
      </trkpt>
      <trkpt lat="48.37633" lon="2.76348">
        <ele>103.5</ele>
        <time>2018-04-15T13:39:22Z</time>
      </trkpt>
      <trkpt lat="48.37637" lon="2.76343">
        <ele>103.5</ele>
        <time>2018-04-15T13:39:23Z</time>
      </trkpt>
      <trkpt lat="48.37641" lon="2.76337">
        <ele>103.5</ele>
        <time>2018-04-15T13:39:24Z</time>
      </trkpt>
      <trkpt lat="48.37645" lon="2.76332">
        <ele>103.6</ele>
        <time>2018-04-15T13:39:25Z</time>
      </trkpt>
      <trkpt lat="48.37649" lon="2.76326">
        <ele>103.6</ele>
        <time>2018-04-15T13:39:26Z</time>
      </trkpt>
      <trkpt lat="48.37652" lon="2.76321">
        <ele>103.7</ele>
        <time>2018-04-15T13:39:27Z</time>
      </trkpt>
      <trkpt lat="48.37655" lon="2.76315">
        <ele>103.7</ele>
        <time>2018-04-15T13:39:28Z</time>
      </trkpt>
      <trkpt lat="48.37656" lon="2.76307">
        <ele>103.8</ele>
        <time>2018-04-15T13:39:29Z</time>
      </trkpt>
      <trkpt lat="48.37657" lon="2.763">
        <ele>103.9</ele>
        <time>2018-04-15T13:39:30Z</time>
      </trkpt>
      <trkpt lat="48.37659" lon="2.76293">
        <ele>103.9</ele>
        <time>2018-04-15T13:39:31Z</time>
      </trkpt>
      <trkpt lat="48.37659" lon="2.76285">
        <ele>104</ele>
        <time>2018-04-15T13:39:32Z</time>
      </trkpt>
      <trkpt lat="48.37659" lon="2.76279">
        <ele>104</ele>
        <time>2018-04-15T13:39:33Z</time>
      </trkpt>
      <trkpt lat="48.37659" lon="2.76271">
        <ele>103.9</ele>
        <time>2018-04-15T13:39:34Z</time>
      </trkpt>
      <trkpt lat="48.37659" lon="2.76264">
        <ele>103.9</ele>
        <time>2018-04-15T13:39:35Z</time>
      </trkpt>
      <trkpt lat="48.37658" lon="2.76258">
        <ele>103.9</ele>
        <time>2018-04-15T13:39:36Z</time>
      </trkpt>
      <trkpt lat="48.37657" lon="2.76252">
        <ele>103.9</ele>
        <time>2018-04-15T13:39:37Z</time>
      </trkpt>
      <trkpt lat="48.37658" lon="2.76245">
        <ele>103.9</ele>
        <time>2018-04-15T13:39:38Z</time>
      </trkpt>
      <trkpt lat="48.37658" lon="2.76238">
        <ele>103.8</ele>
        <time>2018-04-15T13:39:39Z</time>
      </trkpt>
      <trkpt lat="48.37658" lon="2.76232">
        <ele>103.8</ele>
        <time>2018-04-15T13:39:40Z</time>
      </trkpt>
      <trkpt lat="48.37658" lon="2.76226">
        <ele>103.8</ele>
        <time>2018-04-15T13:39:41Z</time>
      </trkpt>
      <trkpt lat="48.37658" lon="2.76219">
        <ele>103.8</ele>
        <time>2018-04-15T13:39:42Z</time>
      </trkpt>
      <trkpt lat="48.37658" lon="2.76213">
        <ele>103.8</ele>
        <time>2018-04-15T13:39:43Z</time>
      </trkpt>
      <trkpt lat="48.37658" lon="2.76206">
        <ele>103.7</ele>
        <time>2018-04-15T13:39:44Z</time>
      </trkpt>
      <trkpt lat="48.37658" lon="2.76199">
        <ele>103.7</ele>
        <time>2018-04-15T13:39:45Z</time>
      </trkpt>
      <trkpt lat="48.37657" lon="2.76191">
        <ele>103.7</ele>
        <time>2018-04-15T13:39:46Z</time>
      </trkpt>
      <trkpt lat="48.37657" lon="2.76184">
        <ele>103.7</ele>
        <time>2018-04-15T13:39:47Z</time>
      </trkpt>
      <trkpt lat="48.37657" lon="2.76177">
        <ele>103.6</ele>
        <time>2018-04-15T13:39:48Z</time>
      </trkpt>
      <trkpt lat="48.37657" lon="2.7617">
        <ele>103.6</ele>
        <time>2018-04-15T13:39:49Z</time>
      </trkpt>
      <trkpt lat="48.37658" lon="2.76162">
        <ele>103.6</ele>
        <time>2018-04-15T13:39:50Z</time>
      </trkpt>
      <trkpt lat="48.37658" lon="2.76154">
        <ele>103.6</ele>
        <time>2018-04-15T13:39:51Z</time>
      </trkpt>
      <trkpt lat="48.37658" lon="2.76147">
        <ele>103.5</ele>
        <time>2018-04-15T13:39:52Z</time>
      </trkpt>
      <trkpt lat="48.37658" lon="2.76139">
        <ele>103.5</ele>
        <time>2018-04-15T13:39:53Z</time>
      </trkpt>
      <trkpt lat="48.37658" lon="2.76131">
        <ele>103.5</ele>
        <time>2018-04-15T13:39:54Z</time>
      </trkpt>
      <trkpt lat="48.37659" lon="2.76124">
        <ele>103.4</ele>
        <time>2018-04-15T13:39:55Z</time>
      </trkpt>
      <trkpt lat="48.37659" lon="2.76117">
        <ele>103.4</ele>
        <time>2018-04-15T13:39:56Z</time>
      </trkpt>
      <trkpt lat="48.37659" lon="2.7611">
        <ele>103.4</ele>
        <time>2018-04-15T13:39:57Z</time>
      </trkpt>
      <trkpt lat="48.3766" lon="2.76104">
        <ele>103.4</ele>
        <time>2018-04-15T13:39:58Z</time>
      </trkpt>
      <trkpt lat="48.37661" lon="2.76097">
        <ele>103.4</ele>
        <time>2018-04-15T13:39:59Z</time>
      </trkpt>
      <trkpt lat="48.37662" lon="2.76092">
        <ele>103.3</ele>
        <time>2018-04-15T13:40:00Z</time>
      </trkpt>
      <trkpt lat="48.37663" lon="2.76087">
        <ele>103.3</ele>
        <time>2018-04-15T13:40:01Z</time>
      </trkpt>
      <trkpt lat="48.37663" lon="2.76082">
        <ele>103.3</ele>
        <time>2018-04-15T13:40:02Z</time>
      </trkpt>
      <trkpt lat="48.37662" lon="2.76077">
        <ele>103.2</ele>
        <time>2018-04-15T13:40:03Z</time>
      </trkpt>
      <trkpt lat="48.37662" lon="2.7607">
        <ele>103.2</ele>
        <time>2018-04-15T13:40:04Z</time>
      </trkpt>
      <trkpt lat="48.37661" lon="2.76063">
        <ele>103.1</ele>
        <time>2018-04-15T13:40:05Z</time>
      </trkpt>
      <trkpt lat="48.37661" lon="2.76056">
        <ele>103.1</ele>
        <time>2018-04-15T13:40:06Z</time>
      </trkpt>
      <trkpt lat="48.37661" lon="2.76049">
        <ele>103.1</ele>
        <time>2018-04-15T13:40:07Z</time>
      </trkpt>
      <trkpt lat="48.3766" lon="2.76042">
        <ele>103</ele>
        <time>2018-04-15T13:40:08Z</time>
      </trkpt>
      <trkpt lat="48.3766" lon="2.76036">
        <ele>103</ele>
        <time>2018-04-15T13:40:09Z</time>
      </trkpt>
      <trkpt lat="48.3766" lon="2.76029">
        <ele>103</ele>
        <time>2018-04-15T13:40:10Z</time>
      </trkpt>
      <trkpt lat="48.37661" lon="2.76023">
        <ele>102.9</ele>
        <time>2018-04-15T13:40:11Z</time>
      </trkpt>
      <trkpt lat="48.37661" lon="2.76016">
        <ele>102.9</ele>
        <time>2018-04-15T13:40:12Z</time>
      </trkpt>
      <trkpt lat="48.37662" lon="2.76009">
        <ele>102.9</ele>
        <time>2018-04-15T13:40:13Z</time>
      </trkpt>
      <trkpt lat="48.37663" lon="2.76002">
        <ele>102.8</ele>
        <time>2018-04-15T13:40:14Z</time>
      </trkpt>
      <trkpt lat="48.37664" lon="2.75994">
        <ele>102.8</ele>
        <time>2018-04-15T13:40:15Z</time>
      </trkpt>
      <trkpt lat="48.37665" lon="2.75987">
        <ele>102.7</ele>
        <time>2018-04-15T13:40:16Z</time>
      </trkpt>
      <trkpt lat="48.37666" lon="2.7598">
        <ele>102.7</ele>
        <time>2018-04-15T13:40:17Z</time>
      </trkpt>
      <trkpt lat="48.37667" lon="2.75972">
        <ele>102.7</ele>
        <time>2018-04-15T13:40:18Z</time>
      </trkpt>
      <trkpt lat="48.37668" lon="2.75966">
        <ele>102.6</ele>
        <time>2018-04-15T13:40:19Z</time>
      </trkpt>
      <trkpt lat="48.37669" lon="2.75958">
        <ele>102.6</ele>
        <time>2018-04-15T13:40:20Z</time>
      </trkpt>
      <trkpt lat="48.37669" lon="2.75952">
        <ele>102.6</ele>
        <time>2018-04-15T13:40:21Z</time>
      </trkpt>
      <trkpt lat="48.37671" lon="2.75945">
        <ele>102.6</ele>
        <time>2018-04-15T13:40:22Z</time>
      </trkpt>
      <trkpt lat="48.37672" lon="2.75937">
        <ele>102.5</ele>
        <time>2018-04-15T13:40:23Z</time>
      </trkpt>
      <trkpt lat="48.37673" lon="2.75929">
        <ele>102.5</ele>
        <time>2018-04-15T13:40:24Z</time>
      </trkpt>
      <trkpt lat="48.37675" lon="2.7592">
        <ele>102.5</ele>
        <time>2018-04-15T13:40:25Z</time>
      </trkpt>
      <trkpt lat="48.37677" lon="2.75912">
        <ele>102.5</ele>
        <time>2018-04-15T13:40:26Z</time>
      </trkpt>
      <trkpt lat="48.37678" lon="2.75906">
        <ele>102.4</ele>
        <time>2018-04-15T13:40:27Z</time>
      </trkpt>
      <trkpt lat="48.37679" lon="2.75898">
        <ele>102.4</ele>
        <time>2018-04-15T13:40:28Z</time>
      </trkpt>
      <trkpt lat="48.37679" lon="2.7589">
        <ele>102.4</ele>
        <time>2018-04-15T13:40:29Z</time>
      </trkpt>
      <trkpt lat="48.3768" lon="2.75884">
        <ele>102.3</ele>
        <time>2018-04-15T13:40:30Z</time>
      </trkpt>
      <trkpt lat="48.37681" lon="2.75877">
        <ele>102.3</ele>
        <time>2018-04-15T13:40:31Z</time>
      </trkpt>
      <trkpt lat="48.37682" lon="2.7587">
        <ele>102.3</ele>
        <time>2018-04-15T13:40:32Z</time>
      </trkpt>
      <trkpt lat="48.37683" lon="2.75863">
        <ele>102.3</ele>
        <time>2018-04-15T13:40:33Z</time>
      </trkpt>
      <trkpt lat="48.37684" lon="2.75857">
        <ele>102.2</ele>
        <time>2018-04-15T13:40:34Z</time>
      </trkpt>
      <trkpt lat="48.37685" lon="2.7585">
        <ele>102.2</ele>
        <time>2018-04-15T13:40:35Z</time>
      </trkpt>
      <trkpt lat="48.37686" lon="2.75844">
        <ele>102.1</ele>
        <time>2018-04-15T13:40:36Z</time>
      </trkpt>
      <trkpt lat="48.37688" lon="2.75836">
        <ele>102.1</ele>
        <time>2018-04-15T13:40:37Z</time>
      </trkpt>
      <trkpt lat="48.37689" lon="2.75826">
        <ele>102.1</ele>
        <time>2018-04-15T13:40:38Z</time>
      </trkpt>
      <trkpt lat="48.3769" lon="2.75819">
        <ele>102.1</ele>
        <time>2018-04-15T13:40:39Z</time>
      </trkpt>
      <trkpt lat="48.3769" lon="2.75812">
        <ele>102</ele>
        <time>2018-04-15T13:40:40Z</time>
      </trkpt>
      <trkpt lat="48.37692" lon="2.75805">
        <ele>102</ele>
        <time>2018-04-15T13:40:41Z</time>
      </trkpt>
      <trkpt lat="48.37693" lon="2.75799">
        <ele>102</ele>
        <time>2018-04-15T13:40:42Z</time>
      </trkpt>
      <trkpt lat="48.37694" lon="2.7579">
        <ele>101.8</ele>
        <time>2018-04-15T13:40:43Z</time>
      </trkpt>
      <trkpt lat="48.37695" lon="2.75783">
        <ele>101.7</ele>
        <time>2018-04-15T13:40:44Z</time>
      </trkpt>
      <trkpt lat="48.37696" lon="2.75776">
        <ele>101.6</ele>
        <time>2018-04-15T13:40:45Z</time>
      </trkpt>
      <trkpt lat="48.37697" lon="2.7577">
        <ele>101.6</ele>
        <time>2018-04-15T13:40:46Z</time>
      </trkpt>
      <trkpt lat="48.37698" lon="2.75764">
        <ele>101.7</ele>
        <time>2018-04-15T13:40:47Z</time>
      </trkpt>
      <trkpt lat="48.377" lon="2.75755">
        <ele>101.7</ele>
        <time>2018-04-15T13:40:48Z</time>
      </trkpt>
      <trkpt lat="48.37701" lon="2.75748">
        <ele>101.8</ele>
        <time>2018-04-15T13:40:49Z</time>
      </trkpt>
      <trkpt lat="48.37703" lon="2.75739">
        <ele>101.8</ele>
        <time>2018-04-15T13:40:50Z</time>
      </trkpt>
      <trkpt lat="48.37705" lon="2.75729">
        <ele>101.8</ele>
        <time>2018-04-15T13:40:51Z</time>
      </trkpt>
      <trkpt lat="48.37706" lon="2.75719">
        <ele>101.8</ele>
        <time>2018-04-15T13:40:52Z</time>
      </trkpt>
      <trkpt lat="48.37708" lon="2.75708">
        <ele>101.9</ele>
        <time>2018-04-15T13:40:53Z</time>
      </trkpt>
      <trkpt lat="48.3771" lon="2.75699">
        <ele>102</ele>
        <time>2018-04-15T13:40:54Z</time>
      </trkpt>
      <trkpt lat="48.37712" lon="2.75689">
        <ele>101.9</ele>
        <time>2018-04-15T13:40:55Z</time>
      </trkpt>
      <trkpt lat="48.37716" lon="2.75681">
        <ele>101.9</ele>
        <time>2018-04-15T13:40:56Z</time>
      </trkpt>
      <trkpt lat="48.37719" lon="2.75674">
        <ele>101.8</ele>
        <time>2018-04-15T13:40:57Z</time>
      </trkpt>
      <trkpt lat="48.37721" lon="2.75668">
        <ele>101.8</ele>
        <time>2018-04-15T13:40:58Z</time>
      </trkpt>
      <trkpt lat="48.37724" lon="2.7566">
        <ele>101.7</ele>
        <time>2018-04-15T13:40:59Z</time>
      </trkpt>
      <trkpt lat="48.37725" lon="2.75652">
        <ele>101.7</ele>
        <time>2018-04-15T13:41:00Z</time>
      </trkpt>
      <trkpt lat="48.37725" lon="2.75644">
        <ele>101.6</ele>
        <time>2018-04-15T13:41:01Z</time>
      </trkpt>
      <trkpt lat="48.37727" lon="2.75637">
        <ele>101.5</ele>
        <time>2018-04-15T13:41:02Z</time>
      </trkpt>
      <trkpt lat="48.37728" lon="2.75629">
        <ele>101.2</ele>
        <time>2018-04-15T13:41:03Z</time>
      </trkpt>
      <trkpt lat="48.37729" lon="2.75623">
        <ele>101</ele>
        <time>2018-04-15T13:41:04Z</time>
      </trkpt>
      <trkpt lat="48.3773" lon="2.75615">
        <ele>100.6</ele>
        <time>2018-04-15T13:41:05Z</time>
      </trkpt>
      <trkpt lat="48.37731" lon="2.75607">
        <ele>100.3</ele>
        <time>2018-04-15T13:41:06Z</time>
      </trkpt>
      <trkpt lat="48.37733" lon="2.75598">
        <ele>100</ele>
        <time>2018-04-15T13:41:07Z</time>
      </trkpt>
      <trkpt lat="48.37734" lon="2.75588">
        <ele>99.8</ele>
        <time>2018-04-15T13:41:08Z</time>
      </trkpt>
      <trkpt lat="48.37736" lon="2.7558">
        <ele>99.7</ele>
        <time>2018-04-15T13:41:09Z</time>
      </trkpt>
      <trkpt lat="48.37737" lon="2.75573">
        <ele>99.6</ele>
        <time>2018-04-15T13:41:10Z</time>
      </trkpt>
      <trkpt lat="48.37738" lon="2.75566">
        <ele>99.5</ele>
        <time>2018-04-15T13:41:11Z</time>
      </trkpt>
      <trkpt lat="48.37739" lon="2.75557">
        <ele>99.4</ele>
        <time>2018-04-15T13:41:12Z</time>
      </trkpt>
      <trkpt lat="48.3774" lon="2.75549">
        <ele>99.4</ele>
        <time>2018-04-15T13:41:13Z</time>
      </trkpt>
      <trkpt lat="48.37741" lon="2.75541">
        <ele>99.4</ele>
        <time>2018-04-15T13:41:14Z</time>
      </trkpt>
      <trkpt lat="48.37743" lon="2.75534">
        <ele>99.4</ele>
        <time>2018-04-15T13:41:15Z</time>
      </trkpt>
      <trkpt lat="48.37744" lon="2.75525">
        <ele>99.3</ele>
        <time>2018-04-15T13:41:16Z</time>
      </trkpt>
      <trkpt lat="48.37745" lon="2.75517">
        <ele>99.3</ele>
        <time>2018-04-15T13:41:17Z</time>
      </trkpt>
      <trkpt lat="48.37747" lon="2.7551">
        <ele>99.3</ele>
        <time>2018-04-15T13:41:18Z</time>
      </trkpt>
      <trkpt lat="48.37748" lon="2.75503">
        <ele>99.3</ele>
        <time>2018-04-15T13:41:19Z</time>
      </trkpt>
      <trkpt lat="48.37749" lon="2.75495">
        <ele>99.3</ele>
        <time>2018-04-15T13:41:20Z</time>
      </trkpt>
      <trkpt lat="48.37751" lon="2.75488">
        <ele>99.3</ele>
        <time>2018-04-15T13:41:21Z</time>
      </trkpt>
      <trkpt lat="48.37752" lon="2.7548">
        <ele>99.3</ele>
        <time>2018-04-15T13:41:22Z</time>
      </trkpt>
      <trkpt lat="48.37755" lon="2.75472">
        <ele>99.2</ele>
        <time>2018-04-15T13:41:23Z</time>
      </trkpt>
      <trkpt lat="48.37757" lon="2.75465">
        <ele>99.2</ele>
        <time>2018-04-15T13:41:24Z</time>
      </trkpt>
      <trkpt lat="48.37759" lon="2.75457">
        <ele>99.2</ele>
        <time>2018-04-15T13:41:25Z</time>
      </trkpt>
      <trkpt lat="48.37762" lon="2.75451">
        <ele>99.2</ele>
        <time>2018-04-15T13:41:26Z</time>
      </trkpt>
      <trkpt lat="48.37765" lon="2.75444">
        <ele>99.2</ele>
        <time>2018-04-15T13:41:27Z</time>
      </trkpt>
      <trkpt lat="48.37767" lon="2.75438">
        <ele>99.1</ele>
        <time>2018-04-15T13:41:28Z</time>
      </trkpt>
      <trkpt lat="48.3777" lon="2.75431">
        <ele>99.1</ele>
        <time>2018-04-15T13:41:29Z</time>
      </trkpt>
      <trkpt lat="48.37772" lon="2.75422">
        <ele>99</ele>
        <time>2018-04-15T13:41:30Z</time>
      </trkpt>
      <trkpt lat="48.37775" lon="2.75416">
        <ele>99.1</ele>
        <time>2018-04-15T13:41:31Z</time>
      </trkpt>
      <trkpt lat="48.37777" lon="2.75409">
        <ele>99.1</ele>
        <time>2018-04-15T13:41:32Z</time>
      </trkpt>
      <trkpt lat="48.37779" lon="2.75403">
        <ele>99.1</ele>
        <time>2018-04-15T13:41:33Z</time>
      </trkpt>
      <trkpt lat="48.37782" lon="2.75396">
        <ele>99.1</ele>
        <time>2018-04-15T13:41:34Z</time>
      </trkpt>
      <trkpt lat="48.37784" lon="2.75389">
        <ele>99.2</ele>
        <time>2018-04-15T13:41:35Z</time>
      </trkpt>
      <trkpt lat="48.37787" lon="2.75382">
        <ele>99.2</ele>
        <time>2018-04-15T13:41:36Z</time>
      </trkpt>
      <trkpt lat="48.37789" lon="2.75376">
        <ele>99.3</ele>
        <time>2018-04-15T13:41:37Z</time>
      </trkpt>
      <trkpt lat="48.37792" lon="2.75371">
        <ele>99.4</ele>
        <time>2018-04-15T13:41:38Z</time>
      </trkpt>
      <trkpt lat="48.37793" lon="2.75366">
        <ele>99.4</ele>
        <time>2018-04-15T13:41:39Z</time>
      </trkpt>
      <trkpt lat="48.37795" lon="2.75361">
        <ele>99.4</ele>
        <time>2018-04-15T13:41:40Z</time>
      </trkpt>
      <trkpt lat="48.37796" lon="2.75356">
        <ele>99.4</ele>
        <time>2018-04-15T13:41:41Z</time>
      </trkpt>
      <trkpt lat="48.37797" lon="2.75351">
        <ele>99.4</ele>
        <time>2018-04-15T13:41:42Z</time>
      </trkpt>
      <trkpt lat="48.37798" lon="2.75346">
        <ele>99.5</ele>
        <time>2018-04-15T13:41:43Z</time>
      </trkpt>
      <trkpt lat="48.37799" lon="2.7534">
        <ele>99.5</ele>
        <time>2018-04-15T13:41:44Z</time>
      </trkpt>
      <trkpt lat="48.378" lon="2.75335">
        <ele>99.5</ele>
        <time>2018-04-15T13:41:45Z</time>
      </trkpt>
      <trkpt lat="48.37801" lon="2.75329">
        <ele>99.5</ele>
        <time>2018-04-15T13:41:46Z</time>
      </trkpt>
      <trkpt lat="48.37801" lon="2.75323">
        <ele>99.6</ele>
        <time>2018-04-15T13:41:47Z</time>
      </trkpt>
      <trkpt lat="48.37801" lon="2.75318">
        <ele>99.6</ele>
        <time>2018-04-15T13:41:48Z</time>
      </trkpt>
      <trkpt lat="48.37801" lon="2.75312">
        <ele>99.6</ele>
        <time>2018-04-15T13:41:49Z</time>
      </trkpt>
      <trkpt lat="48.37801" lon="2.75307">
        <ele>99.7</ele>
        <time>2018-04-15T13:41:50Z</time>
      </trkpt>
      <trkpt lat="48.37801" lon="2.75301">
        <ele>99.8</ele>
        <time>2018-04-15T13:41:51Z</time>
      </trkpt>
      <trkpt lat="48.37801" lon="2.75295">
        <ele>99.9</ele>
        <time>2018-04-15T13:41:52Z</time>
      </trkpt>
      <trkpt lat="48.37801" lon="2.75289">
        <ele>100</ele>
        <time>2018-04-15T13:41:53Z</time>
      </trkpt>
      <trkpt lat="48.37802" lon="2.75282">
        <ele>100</ele>
        <time>2018-04-15T13:41:54Z</time>
      </trkpt>
      <trkpt lat="48.37801" lon="2.75276">
        <ele>100.1</ele>
        <time>2018-04-15T13:41:55Z</time>
      </trkpt>
      <trkpt lat="48.37801" lon="2.7527">
        <ele>100.2</ele>
        <time>2018-04-15T13:41:56Z</time>
      </trkpt>
      <trkpt lat="48.378" lon="2.75263">
        <ele>100.3</ele>
        <time>2018-04-15T13:41:57Z</time>
      </trkpt>
      <trkpt lat="48.378" lon="2.75257">
        <ele>100.2</ele>
        <time>2018-04-15T13:41:58Z</time>
      </trkpt>
      <trkpt lat="48.37799" lon="2.75249">
        <ele>100.2</ele>
        <time>2018-04-15T13:41:59Z</time>
      </trkpt>
      <trkpt lat="48.37799" lon="2.75243">
        <ele>100.2</ele>
        <time>2018-04-15T13:42:00Z</time>
      </trkpt>
      <trkpt lat="48.37798" lon="2.75237">
        <ele>100.2</ele>
        <time>2018-04-15T13:42:01Z</time>
      </trkpt>
      <trkpt lat="48.37798" lon="2.75229">
        <ele>100.1</ele>
        <time>2018-04-15T13:42:02Z</time>
      </trkpt>
      <trkpt lat="48.37798" lon="2.75221">
        <ele>100.1</ele>
        <time>2018-04-15T13:42:03Z</time>
      </trkpt>
      <trkpt lat="48.37798" lon="2.75214">
        <ele>100</ele>
        <time>2018-04-15T13:42:04Z</time>
      </trkpt>
      <trkpt lat="48.37799" lon="2.75205">
        <ele>99.9</ele>
        <time>2018-04-15T13:42:05Z</time>
      </trkpt>
      <trkpt lat="48.37799" lon="2.75197">
        <ele>99.9</ele>
        <time>2018-04-15T13:42:06Z</time>
      </trkpt>
      <trkpt lat="48.37799" lon="2.75189">
        <ele>99.8</ele>
        <time>2018-04-15T13:42:07Z</time>
      </trkpt>
      <trkpt lat="48.37799" lon="2.75182">
        <ele>99.8</ele>
        <time>2018-04-15T13:42:08Z</time>
      </trkpt>
      <trkpt lat="48.37799" lon="2.75174">
        <ele>99.7</ele>
        <time>2018-04-15T13:42:09Z</time>
      </trkpt>
      <trkpt lat="48.37799" lon="2.75165">
        <ele>99.5</ele>
        <time>2018-04-15T13:42:10Z</time>
      </trkpt>
      <trkpt lat="48.378" lon="2.75157">
        <ele>99.4</ele>
        <time>2018-04-15T13:42:11Z</time>
      </trkpt>
      <trkpt lat="48.378" lon="2.75148">
        <ele>99.2</ele>
        <time>2018-04-15T13:42:12Z</time>
      </trkpt>
      <trkpt lat="48.378" lon="2.7514">
        <ele>99.1</ele>
        <time>2018-04-15T13:42:13Z</time>
      </trkpt>
      <trkpt lat="48.37801" lon="2.75133">
        <ele>99</ele>
        <time>2018-04-15T13:42:14Z</time>
      </trkpt>
      <trkpt lat="48.37801" lon="2.75126">
        <ele>98.9</ele>
        <time>2018-04-15T13:42:15Z</time>
      </trkpt>
      <trkpt lat="48.37802" lon="2.75118">
        <ele>98.8</ele>
        <time>2018-04-15T13:42:16Z</time>
      </trkpt>
      <trkpt lat="48.37803" lon="2.75111">
        <ele>98.8</ele>
        <time>2018-04-15T13:42:17Z</time>
      </trkpt>
      <trkpt lat="48.37805" lon="2.75104">
        <ele>98.7</ele>
        <time>2018-04-15T13:42:18Z</time>
      </trkpt>
      <trkpt lat="48.37806" lon="2.75098">
        <ele>98.8</ele>
        <time>2018-04-15T13:42:19Z</time>
      </trkpt>
      <trkpt lat="48.37808" lon="2.7509">
        <ele>98.8</ele>
        <time>2018-04-15T13:42:20Z</time>
      </trkpt>
      <trkpt lat="48.3781" lon="2.75081">
        <ele>98.9</ele>
        <time>2018-04-15T13:42:21Z</time>
      </trkpt>
      <trkpt lat="48.37812" lon="2.75075">
        <ele>99</ele>
        <time>2018-04-15T13:42:22Z</time>
      </trkpt>
      <trkpt lat="48.37813" lon="2.75068">
        <ele>99.1</ele>
        <time>2018-04-15T13:42:23Z</time>
      </trkpt>
      <trkpt lat="48.37815" lon="2.7506">
        <ele>99.4</ele>
        <time>2018-04-15T13:42:24Z</time>
      </trkpt>
      <trkpt lat="48.37817" lon="2.75053">
        <ele>99.5</ele>
        <time>2018-04-15T13:42:25Z</time>
      </trkpt>
      <trkpt lat="48.37819" lon="2.75045">
        <ele>99.7</ele>
        <time>2018-04-15T13:42:26Z</time>
      </trkpt>
      <trkpt lat="48.37821" lon="2.75038">
        <ele>99.9</ele>
        <time>2018-04-15T13:42:27Z</time>
      </trkpt>
      <trkpt lat="48.37823" lon="2.7503">
        <ele>100.1</ele>
        <time>2018-04-15T13:42:28Z</time>
      </trkpt>
      <trkpt lat="48.37825" lon="2.75023">
        <ele>100.3</ele>
        <time>2018-04-15T13:42:29Z</time>
      </trkpt>
      <trkpt lat="48.37829" lon="2.75016">
        <ele>100.6</ele>
        <time>2018-04-15T13:42:30Z</time>
      </trkpt>
      <trkpt lat="48.37833" lon="2.75009">
        <ele>100.8</ele>
        <time>2018-04-15T13:42:31Z</time>
      </trkpt>
      <trkpt lat="48.37837" lon="2.75003">
        <ele>101</ele>
        <time>2018-04-15T13:42:32Z</time>
      </trkpt>
      <trkpt lat="48.37841" lon="2.74998">
        <ele>101.2</ele>
        <time>2018-04-15T13:42:33Z</time>
      </trkpt>
      <trkpt lat="48.37846" lon="2.74993">
        <ele>101.3</ele>
        <time>2018-04-15T13:42:34Z</time>
      </trkpt>
      <trkpt lat="48.37849" lon="2.74987">
        <ele>101.5</ele>
        <time>2018-04-15T13:42:35Z</time>
      </trkpt>
      <trkpt lat="48.37853" lon="2.74982">
        <ele>101.5</ele>
        <time>2018-04-15T13:42:36Z</time>
      </trkpt>
      <trkpt lat="48.37857" lon="2.74976">
        <ele>101.5</ele>
        <time>2018-04-15T13:42:37Z</time>
      </trkpt>
      <trkpt lat="48.37861" lon="2.74971">
        <ele>101.5</ele>
        <time>2018-04-15T13:42:38Z</time>
      </trkpt>
      <trkpt lat="48.37865" lon="2.74965">
        <ele>101.5</ele>
        <time>2018-04-15T13:42:39Z</time>
      </trkpt>
      <trkpt lat="48.37868" lon="2.7496">
        <ele>101.4</ele>
        <time>2018-04-15T13:42:40Z</time>
      </trkpt>
      <trkpt lat="48.37871" lon="2.74955">
        <ele>101.4</ele>
        <time>2018-04-15T13:42:41Z</time>
      </trkpt>
      <trkpt lat="48.37874" lon="2.74951">
        <ele>101.3</ele>
        <time>2018-04-15T13:42:42Z</time>
      </trkpt>
      <trkpt lat="48.37877" lon="2.74945">
        <ele>101.1</ele>
        <time>2018-04-15T13:42:43Z</time>
      </trkpt>
      <trkpt lat="48.3788" lon="2.74941">
        <ele>101</ele>
        <time>2018-04-15T13:42:44Z</time>
      </trkpt>
      <trkpt lat="48.37883" lon="2.74936">
        <ele>100.9</ele>
        <time>2018-04-15T13:42:45Z</time>
      </trkpt>
      <trkpt lat="48.37886" lon="2.74932">
        <ele>100.8</ele>
        <time>2018-04-15T13:42:46Z</time>
      </trkpt>
      <trkpt lat="48.37889" lon="2.74926">
        <ele>100.7</ele>
        <time>2018-04-15T13:42:47Z</time>
      </trkpt>
      <trkpt lat="48.37892" lon="2.74921">
        <ele>100.6</ele>
        <time>2018-04-15T13:42:48Z</time>
      </trkpt>
      <trkpt lat="48.37895" lon="2.74915">
        <ele>100.5</ele>
        <time>2018-04-15T13:42:49Z</time>
      </trkpt>
      <trkpt lat="48.37897" lon="2.7491">
        <ele>100.4</ele>
        <time>2018-04-15T13:42:50Z</time>
      </trkpt>
      <trkpt lat="48.37899" lon="2.74903">
        <ele>100.3</ele>
        <time>2018-04-15T13:42:51Z</time>
      </trkpt>
      <trkpt lat="48.37901" lon="2.74897">
        <ele>100.1</ele>
        <time>2018-04-15T13:42:52Z</time>
      </trkpt>
      <trkpt lat="48.37902" lon="2.74889">
        <ele>100</ele>
        <time>2018-04-15T13:42:53Z</time>
      </trkpt>
      <trkpt lat="48.37903" lon="2.7488">
        <ele>99.9</ele>
        <time>2018-04-15T13:42:54Z</time>
      </trkpt>
      <trkpt lat="48.37904" lon="2.7487">
        <ele>99.8</ele>
        <time>2018-04-15T13:42:55Z</time>
      </trkpt>
      <trkpt lat="48.37904" lon="2.74859">
        <ele>99.6</ele>
        <time>2018-04-15T13:42:56Z</time>
      </trkpt>
      <trkpt lat="48.37904" lon="2.74849">
        <ele>99.5</ele>
        <time>2018-04-15T13:42:57Z</time>
      </trkpt>
      <trkpt lat="48.37905" lon="2.74838">
        <ele>99.3</ele>
        <time>2018-04-15T13:42:58Z</time>
      </trkpt>
      <trkpt lat="48.37906" lon="2.74826">
        <ele>99.2</ele>
        <time>2018-04-15T13:42:59Z</time>
      </trkpt>
      <trkpt lat="48.37907" lon="2.74816">
        <ele>99</ele>
        <time>2018-04-15T13:43:00Z</time>
      </trkpt>
      <trkpt lat="48.37908" lon="2.74807">
        <ele>98.7</ele>
        <time>2018-04-15T13:43:01Z</time>
      </trkpt>
      <trkpt lat="48.37908" lon="2.74797">
        <ele>98.3</ele>
        <time>2018-04-15T13:43:02Z</time>
      </trkpt>
      <trkpt lat="48.37909" lon="2.74787">
        <ele>97.9</ele>
        <time>2018-04-15T13:43:03Z</time>
      </trkpt>
      <trkpt lat="48.3791" lon="2.74777">
        <ele>97.6</ele>
        <time>2018-04-15T13:43:04Z</time>
      </trkpt>
      <trkpt lat="48.37911" lon="2.74767">
        <ele>97.5</ele>
        <time>2018-04-15T13:43:05Z</time>
      </trkpt>
      <trkpt lat="48.37912" lon="2.74757">
        <ele>97.3</ele>
        <time>2018-04-15T13:43:06Z</time>
      </trkpt>
      <trkpt lat="48.37913" lon="2.74745">
        <ele>97</ele>
        <time>2018-04-15T13:43:07Z</time>
      </trkpt>
      <trkpt lat="48.37914" lon="2.74732">
        <ele>96.6</ele>
        <time>2018-04-15T13:43:08Z</time>
      </trkpt>
      <trkpt lat="48.37916" lon="2.74719">
        <ele>96.1</ele>
        <time>2018-04-15T13:43:09Z</time>
      </trkpt>
      <trkpt lat="48.37917" lon="2.74707">
        <ele>95.6</ele>
        <time>2018-04-15T13:43:10Z</time>
      </trkpt>
      <trkpt lat="48.37919" lon="2.74695">
        <ele>95.2</ele>
        <time>2018-04-15T13:43:11Z</time>
      </trkpt>
      <trkpt lat="48.37921" lon="2.74684">
        <ele>95</ele>
        <time>2018-04-15T13:43:12Z</time>
      </trkpt>
      <trkpt lat="48.37924" lon="2.74672">
        <ele>94.7</ele>
        <time>2018-04-15T13:43:13Z</time>
      </trkpt>
      <trkpt lat="48.37925" lon="2.74662">
        <ele>94.5</ele>
        <time>2018-04-15T13:43:14Z</time>
      </trkpt>
      <trkpt lat="48.37927" lon="2.7465">
        <ele>94.1</ele>
        <time>2018-04-15T13:43:15Z</time>
      </trkpt>
      <trkpt lat="48.37928" lon="2.7464">
        <ele>93.7</ele>
        <time>2018-04-15T13:43:16Z</time>
      </trkpt>
      <trkpt lat="48.3793" lon="2.7463">
        <ele>93.4</ele>
        <time>2018-04-15T13:43:17Z</time>
      </trkpt>
      <trkpt lat="48.37933" lon="2.74621">
        <ele>93.2</ele>
        <time>2018-04-15T13:43:18Z</time>
      </trkpt>
      <trkpt lat="48.37934" lon="2.7461">
        <ele>93</ele>
        <time>2018-04-15T13:43:19Z</time>
      </trkpt>
      <trkpt lat="48.37935" lon="2.74599">
        <ele>92.9</ele>
        <time>2018-04-15T13:43:20Z</time>
      </trkpt>
      <trkpt lat="48.37937" lon="2.74588">
        <ele>92.8</ele>
        <time>2018-04-15T13:43:21Z</time>
      </trkpt>
      <trkpt lat="48.37939" lon="2.74577">
        <ele>92.6</ele>
        <time>2018-04-15T13:43:22Z</time>
      </trkpt>
      <trkpt lat="48.37939" lon="2.74565">
        <ele>92.4</ele>
        <time>2018-04-15T13:43:23Z</time>
      </trkpt>
      <trkpt lat="48.37939" lon="2.74551">
        <ele>92.2</ele>
        <time>2018-04-15T13:43:24Z</time>
      </trkpt>
      <trkpt lat="48.3794" lon="2.74536">
        <ele>92</ele>
        <time>2018-04-15T13:43:25Z</time>
      </trkpt>
      <trkpt lat="48.37941" lon="2.74524">
        <ele>91.6</ele>
        <time>2018-04-15T13:43:26Z</time>
      </trkpt>
      <trkpt lat="48.37942" lon="2.74512">
        <ele>91.2</ele>
        <time>2018-04-15T13:43:27Z</time>
      </trkpt>
      <trkpt lat="48.37942" lon="2.74501">
        <ele>90.8</ele>
        <time>2018-04-15T13:43:28Z</time>
      </trkpt>
      <trkpt lat="48.37943" lon="2.74491">
        <ele>90.6</ele>
        <time>2018-04-15T13:43:29Z</time>
      </trkpt>
      <trkpt lat="48.37944" lon="2.7448">
        <ele>90.4</ele>
        <time>2018-04-15T13:43:30Z</time>
      </trkpt>
      <trkpt lat="48.37944" lon="2.7447">
        <ele>90.3</ele>
        <time>2018-04-15T13:43:31Z</time>
      </trkpt>
      <trkpt lat="48.37944" lon="2.74461">
        <ele>90.2</ele>
        <time>2018-04-15T13:43:32Z</time>
      </trkpt>
      <trkpt lat="48.37945" lon="2.74452">
        <ele>90.1</ele>
        <time>2018-04-15T13:43:33Z</time>
      </trkpt>
      <trkpt lat="48.37946" lon="2.74443">
        <ele>90</ele>
        <time>2018-04-15T13:43:34Z</time>
      </trkpt>
      <trkpt lat="48.37946" lon="2.74435">
        <ele>90</ele>
        <time>2018-04-15T13:43:35Z</time>
      </trkpt>
      <trkpt lat="48.37947" lon="2.74427">
        <ele>89.9</ele>
        <time>2018-04-15T13:43:36Z</time>
      </trkpt>
      <trkpt lat="48.37947" lon="2.74418">
        <ele>89.8</ele>
        <time>2018-04-15T13:43:37Z</time>
      </trkpt>
      <trkpt lat="48.37947" lon="2.74409">
        <ele>89.7</ele>
        <time>2018-04-15T13:43:38Z</time>
      </trkpt>
      <trkpt lat="48.37948" lon="2.74402">
        <ele>89.7</ele>
        <time>2018-04-15T13:43:39Z</time>
      </trkpt>
      <trkpt lat="48.37948" lon="2.74395">
        <ele>89.6</ele>
        <time>2018-04-15T13:43:40Z</time>
      </trkpt>
      <trkpt lat="48.37949" lon="2.74389">
        <ele>89.5</ele>
        <time>2018-04-15T13:43:41Z</time>
      </trkpt>
      <trkpt lat="48.3795" lon="2.74383">
        <ele>89.5</ele>
        <time>2018-04-15T13:43:43Z</time>
      </trkpt>
      <trkpt lat="48.37949" lon="2.74369">
        <ele>89.4</ele>
        <time>2018-04-15T13:47:56Z</time>
      </trkpt>
      <trkpt lat="48.37949" lon="2.74365">
        <ele>89.3</ele>
        <time>2018-04-15T13:47:58Z</time>
      </trkpt>
      <trkpt lat="48.37951" lon="2.74362">
        <ele>89.2</ele>
        <time>2018-04-15T13:48:00Z</time>
      </trkpt>
      <trkpt lat="48.37953" lon="2.74359">
        <ele>89.1</ele>
        <time>2018-04-15T13:48:02Z</time>
      </trkpt>
      <trkpt lat="48.37956" lon="2.74354">
        <ele>89</ele>
        <time>2018-04-15T13:48:04Z</time>
      </trkpt>
      <trkpt lat="48.37958" lon="2.74348">
        <ele>88.8</ele>
        <time>2018-04-15T13:48:06Z</time>
      </trkpt>
      <trkpt lat="48.37961" lon="2.74338">
        <ele>88.4</ele>
        <time>2018-04-15T13:48:11Z</time>
      </trkpt>
      <trkpt lat="48.37967" lon="2.74336">
        <ele>88.1</ele>
        <time>2018-04-15T13:48:13Z</time>
      </trkpt>
      <trkpt lat="48.37971" lon="2.74335">
        <ele>87.9</ele>
        <time>2018-04-15T13:48:14Z</time>
      </trkpt>
      <trkpt lat="48.37975" lon="2.74334">
        <ele>87.7</ele>
        <time>2018-04-15T13:48:15Z</time>
      </trkpt>
      <trkpt lat="48.37979" lon="2.74333">
        <ele>87.6</ele>
        <time>2018-04-15T13:48:16Z</time>
      </trkpt>
      <trkpt lat="48.37983" lon="2.74332">
        <ele>87.4</ele>
        <time>2018-04-15T13:48:17Z</time>
      </trkpt>
      <trkpt lat="48.37987" lon="2.74332">
        <ele>87.3</ele>
        <time>2018-04-15T13:48:18Z</time>
      </trkpt>
      <trkpt lat="48.37991" lon="2.74332">
        <ele>87.1</ele>
        <time>2018-04-15T13:48:19Z</time>
      </trkpt>
      <trkpt lat="48.37994" lon="2.74332">
        <ele>87</ele>
        <time>2018-04-15T13:48:20Z</time>
      </trkpt>
      <trkpt lat="48.37998" lon="2.74332">
        <ele>86.8</ele>
        <time>2018-04-15T13:48:21Z</time>
      </trkpt>
      <trkpt lat="48.38002" lon="2.74332">
        <ele>86.6</ele>
        <time>2018-04-15T13:48:22Z</time>
      </trkpt>
      <trkpt lat="48.38006" lon="2.74332">
        <ele>86.4</ele>
        <time>2018-04-15T13:48:23Z</time>
      </trkpt>
      <trkpt lat="48.3801" lon="2.74332">
        <ele>86.2</ele>
        <time>2018-04-15T13:48:24Z</time>
      </trkpt>
      <trkpt lat="48.38015" lon="2.74331">
        <ele>86</ele>
        <time>2018-04-15T13:48:25Z</time>
      </trkpt>
      <trkpt lat="48.38019" lon="2.74331">
        <ele>85.8</ele>
        <time>2018-04-15T13:48:26Z</time>
      </trkpt>
      <trkpt lat="48.38024" lon="2.7433">
        <ele>85.6</ele>
        <time>2018-04-15T13:48:27Z</time>
      </trkpt>
      <trkpt lat="48.38029" lon="2.7433">
        <ele>85.3</ele>
        <time>2018-04-15T13:48:28Z</time>
      </trkpt>
      <trkpt lat="48.38033" lon="2.7433">
        <ele>85.1</ele>
        <time>2018-04-15T13:48:29Z</time>
      </trkpt>
      <trkpt lat="48.38037" lon="2.74329">
        <ele>84.8</ele>
        <time>2018-04-15T13:48:30Z</time>
      </trkpt>
      <trkpt lat="48.3804" lon="2.74329">
        <ele>84.6</ele>
        <time>2018-04-15T13:48:31Z</time>
      </trkpt>
      <trkpt lat="48.38045" lon="2.7433">
        <ele>84.3</ele>
        <time>2018-04-15T13:48:32Z</time>
      </trkpt>
      <trkpt lat="48.38049" lon="2.74331">
        <ele>83.9</ele>
        <time>2018-04-15T13:48:33Z</time>
      </trkpt>
      <trkpt lat="48.38053" lon="2.74332">
        <ele>83.5</ele>
        <time>2018-04-15T13:48:34Z</time>
      </trkpt>
      <trkpt lat="48.38057" lon="2.74333">
        <ele>83</ele>
        <time>2018-04-15T13:48:35Z</time>
      </trkpt>
      <trkpt lat="48.38062" lon="2.74333">
        <ele>82.6</ele>
        <time>2018-04-15T13:48:36Z</time>
      </trkpt>
      <trkpt lat="48.38068" lon="2.74334">
        <ele>82.3</ele>
        <time>2018-04-15T13:48:37Z</time>
      </trkpt>
      <trkpt lat="48.38073" lon="2.74334">
        <ele>81.9</ele>
        <time>2018-04-15T13:48:38Z</time>
      </trkpt>
      <trkpt lat="48.38079" lon="2.74334">
        <ele>81.7</ele>
        <time>2018-04-15T13:48:39Z</time>
      </trkpt>
      <trkpt lat="48.38085" lon="2.74333">
        <ele>81.5</ele>
        <time>2018-04-15T13:48:40Z</time>
      </trkpt>
      <trkpt lat="48.38091" lon="2.74334">
        <ele>81.4</ele>
        <time>2018-04-15T13:48:41Z</time>
      </trkpt>
      <trkpt lat="48.38096" lon="2.74334">
        <ele>81.4</ele>
        <time>2018-04-15T13:48:42Z</time>
      </trkpt>
      <trkpt lat="48.38101" lon="2.74335">
        <ele>81.4</ele>
        <time>2018-04-15T13:48:43Z</time>
      </trkpt>
      <trkpt lat="48.38106" lon="2.74335">
        <ele>81.5</ele>
        <time>2018-04-15T13:48:44Z</time>
      </trkpt>
      <trkpt lat="48.3811" lon="2.74334">
        <ele>81.5</ele>
        <time>2018-04-15T13:48:45Z</time>
      </trkpt>
      <trkpt lat="48.38115" lon="2.74333">
        <ele>81.7</ele>
        <time>2018-04-15T13:48:46Z</time>
      </trkpt>
      <trkpt lat="48.3812" lon="2.74335">
        <ele>81.8</ele>
        <time>2018-04-15T13:48:47Z</time>
      </trkpt>
      <trkpt lat="48.38123" lon="2.74335">
        <ele>81.9</ele>
        <time>2018-04-15T13:48:48Z</time>
      </trkpt>
      <trkpt lat="48.38128" lon="2.74334">
        <ele>82</ele>
        <time>2018-04-15T13:48:49Z</time>
      </trkpt>
      <trkpt lat="48.38133" lon="2.74332">
        <ele>82.1</ele>
        <time>2018-04-15T13:48:50Z</time>
      </trkpt>
      <trkpt lat="48.38138" lon="2.74332">
        <ele>82.2</ele>
        <time>2018-04-15T13:48:51Z</time>
      </trkpt>
      <trkpt lat="48.38143" lon="2.74333">
        <ele>82.4</ele>
        <time>2018-04-15T13:48:52Z</time>
      </trkpt>
      <trkpt lat="48.38148" lon="2.74334">
        <ele>82.5</ele>
        <time>2018-04-15T13:48:53Z</time>
      </trkpt>
      <trkpt lat="48.38152" lon="2.74334">
        <ele>82.6</ele>
        <time>2018-04-15T13:48:54Z</time>
      </trkpt>
      <trkpt lat="48.38157" lon="2.74334">
        <ele>82.7</ele>
        <time>2018-04-15T13:48:55Z</time>
      </trkpt>
      <trkpt lat="48.38162" lon="2.74334">
        <ele>82.9</ele>
        <time>2018-04-15T13:48:56Z</time>
      </trkpt>
      <trkpt lat="48.38167" lon="2.74333">
        <ele>83.1</ele>
        <time>2018-04-15T13:48:57Z</time>
      </trkpt>
      <trkpt lat="48.38171" lon="2.74333">
        <ele>83.3</ele>
        <time>2018-04-15T13:48:58Z</time>
      </trkpt>
      <trkpt lat="48.38175" lon="2.74332">
        <ele>83.5</ele>
        <time>2018-04-15T13:48:59Z</time>
      </trkpt>
      <trkpt lat="48.38178" lon="2.74334">
        <ele>83.7</ele>
        <time>2018-04-15T13:49:00Z</time>
      </trkpt>
      <trkpt lat="48.38182" lon="2.74334">
        <ele>83.8</ele>
        <time>2018-04-15T13:49:01Z</time>
      </trkpt>
      <trkpt lat="48.38186" lon="2.74334">
        <ele>83.9</ele>
        <time>2018-04-15T13:49:02Z</time>
      </trkpt>
      <trkpt lat="48.3819" lon="2.74333">
        <ele>84</ele>
        <time>2018-04-15T13:49:03Z</time>
      </trkpt>
      <trkpt lat="48.38193" lon="2.74333">
        <ele>84</ele>
        <time>2018-04-15T13:49:04Z</time>
      </trkpt>
      <trkpt lat="48.38195" lon="2.74331">
        <ele>84</ele>
        <time>2018-04-15T13:49:05Z</time>
      </trkpt>
      <trkpt lat="48.382" lon="2.74329">
        <ele>84.2</ele>
        <time>2018-04-15T13:49:07Z</time>
      </trkpt>
      <trkpt lat="48.38204" lon="2.74326">
        <ele>84.6</ele>
        <time>2018-04-15T13:49:09Z</time>
      </trkpt>
      <trkpt lat="48.38207" lon="2.74323">
        <ele>84.8</ele>
        <time>2018-04-15T13:49:11Z</time>
      </trkpt>
      <trkpt lat="48.38211" lon="2.74318">
        <ele>85.2</ele>
        <time>2018-04-15T13:49:13Z</time>
      </trkpt>
      <trkpt lat="48.38215" lon="2.74314">
        <ele>85.6</ele>
        <time>2018-04-15T13:49:15Z</time>
      </trkpt>
      <trkpt lat="48.38217" lon="2.74311">
        <ele>85.8</ele>
        <time>2018-04-15T13:49:16Z</time>
      </trkpt>
      <trkpt lat="48.38219" lon="2.74307">
        <ele>86.1</ele>
        <time>2018-04-15T13:49:17Z</time>
      </trkpt>
      <trkpt lat="48.38222" lon="2.74303">
        <ele>86.5</ele>
        <time>2018-04-15T13:49:18Z</time>
      </trkpt>
      <trkpt lat="48.38225" lon="2.74299">
        <ele>86.9</ele>
        <time>2018-04-15T13:49:19Z</time>
      </trkpt>
      <trkpt lat="48.38227" lon="2.74295">
        <ele>87.1</ele>
        <time>2018-04-15T13:49:20Z</time>
      </trkpt>
      <trkpt lat="48.3823" lon="2.74292">
        <ele>87.3</ele>
        <time>2018-04-15T13:49:21Z</time>
      </trkpt>
      <trkpt lat="48.38234" lon="2.74287">
        <ele>87.6</ele>
        <time>2018-04-15T13:49:22Z</time>
      </trkpt>
      <trkpt lat="48.38237" lon="2.74283">
        <ele>87.8</ele>
        <time>2018-04-15T13:49:23Z</time>
      </trkpt>
      <trkpt lat="48.3824" lon="2.74278">
        <ele>88.1</ele>
        <time>2018-04-15T13:49:24Z</time>
      </trkpt>
      <trkpt lat="48.38243" lon="2.74274">
        <ele>88.3</ele>
        <time>2018-04-15T13:49:25Z</time>
      </trkpt>
      <trkpt lat="48.38246" lon="2.7427">
        <ele>88.4</ele>
        <time>2018-04-15T13:49:26Z</time>
      </trkpt>
      <trkpt lat="48.3825" lon="2.74265">
        <ele>88.6</ele>
        <time>2018-04-15T13:49:27Z</time>
      </trkpt>
      <trkpt lat="48.38253" lon="2.74261">
        <ele>88.7</ele>
        <time>2018-04-15T13:49:28Z</time>
      </trkpt>
      <trkpt lat="48.38256" lon="2.74256">
        <ele>88.8</ele>
        <time>2018-04-15T13:49:29Z</time>
      </trkpt>
      <trkpt lat="48.38259" lon="2.74251">
        <ele>88.9</ele>
        <time>2018-04-15T13:49:30Z</time>
      </trkpt>
      <trkpt lat="48.38262" lon="2.74247">
        <ele>89</ele>
        <time>2018-04-15T13:49:31Z</time>
      </trkpt>
      <trkpt lat="48.38265" lon="2.74243">
        <ele>89</ele>
        <time>2018-04-15T13:49:32Z</time>
      </trkpt>
      <trkpt lat="48.38268" lon="2.7424">
        <ele>89</ele>
        <time>2018-04-15T13:49:33Z</time>
      </trkpt>
      <trkpt lat="48.38271" lon="2.74236">
        <ele>89</ele>
        <time>2018-04-15T13:49:34Z</time>
      </trkpt>
      <trkpt lat="48.38274" lon="2.74232">
        <ele>89</ele>
        <time>2018-04-15T13:49:35Z</time>
      </trkpt>
      <trkpt lat="48.38277" lon="2.74229">
        <ele>88.9</ele>
        <time>2018-04-15T13:49:36Z</time>
      </trkpt>
      <trkpt lat="48.38281" lon="2.74224">
        <ele>88.9</ele>
        <time>2018-04-15T13:49:37Z</time>
      </trkpt>
      <trkpt lat="48.38285" lon="2.74219">
        <ele>88.8</ele>
        <time>2018-04-15T13:49:38Z</time>
      </trkpt>
      <trkpt lat="48.3829" lon="2.74213">
        <ele>88.7</ele>
        <time>2018-04-15T13:49:39Z</time>
      </trkpt>
      <trkpt lat="48.38294" lon="2.74208">
        <ele>88.7</ele>
        <time>2018-04-15T13:49:40Z</time>
      </trkpt>
      <trkpt lat="48.38298" lon="2.74203">
        <ele>88.6</ele>
        <time>2018-04-15T13:49:41Z</time>
      </trkpt>
      <trkpt lat="48.38302" lon="2.74196">
        <ele>88.5</ele>
        <time>2018-04-15T13:49:42Z</time>
      </trkpt>
      <trkpt lat="48.38306" lon="2.7419">
        <ele>88.4</ele>
        <time>2018-04-15T13:49:43Z</time>
      </trkpt>
      <trkpt lat="48.38311" lon="2.74184">
        <ele>88.3</ele>
        <time>2018-04-15T13:49:44Z</time>
      </trkpt>
      <trkpt lat="48.38315" lon="2.74177">
        <ele>88.1</ele>
        <time>2018-04-15T13:49:45Z</time>
      </trkpt>
      <trkpt lat="48.3832" lon="2.7417">
        <ele>87.9</ele>
        <time>2018-04-15T13:49:46Z</time>
      </trkpt>
      <trkpt lat="48.38325" lon="2.74163">
        <ele>87.8</ele>
        <time>2018-04-15T13:49:47Z</time>
      </trkpt>
      <trkpt lat="48.38329" lon="2.74158">
        <ele>87.6</ele>
        <time>2018-04-15T13:49:48Z</time>
      </trkpt>
      <trkpt lat="48.38333" lon="2.74154">
        <ele>87.5</ele>
        <time>2018-04-15T13:49:49Z</time>
      </trkpt>
      <trkpt lat="48.38336" lon="2.74148">
        <ele>87.4</ele>
        <time>2018-04-15T13:49:50Z</time>
      </trkpt>
      <trkpt lat="48.3834" lon="2.74143">
        <ele>87.3</ele>
        <time>2018-04-15T13:49:51Z</time>
      </trkpt>
      <trkpt lat="48.38344" lon="2.74138">
        <ele>87.2</ele>
        <time>2018-04-15T13:49:52Z</time>
      </trkpt>
      <trkpt lat="48.38348" lon="2.74134">
        <ele>87.2</ele>
        <time>2018-04-15T13:49:53Z</time>
      </trkpt>
      <trkpt lat="48.38351" lon="2.74128">
        <ele>87.1</ele>
        <time>2018-04-15T13:49:54Z</time>
      </trkpt>
      <trkpt lat="48.38355" lon="2.74124">
        <ele>87</ele>
        <time>2018-04-15T13:49:55Z</time>
      </trkpt>
      <trkpt lat="48.38358" lon="2.74121">
        <ele>87</ele>
        <time>2018-04-15T13:49:56Z</time>
      </trkpt>
      <trkpt lat="48.38362" lon="2.74116">
        <ele>87</ele>
        <time>2018-04-15T13:49:57Z</time>
      </trkpt>
      <trkpt lat="48.38366" lon="2.74111">
        <ele>86.9</ele>
        <time>2018-04-15T13:49:58Z</time>
      </trkpt>
      <trkpt lat="48.38369" lon="2.74106">
        <ele>86.8</ele>
        <time>2018-04-15T13:49:59Z</time>
      </trkpt>
      <trkpt lat="48.38372" lon="2.74102">
        <ele>86.7</ele>
        <time>2018-04-15T13:50:00Z</time>
      </trkpt>
      <trkpt lat="48.38376" lon="2.74098">
        <ele>86.6</ele>
        <time>2018-04-15T13:50:01Z</time>
      </trkpt>
      <trkpt lat="48.38379" lon="2.74094">
        <ele>86.6</ele>
        <time>2018-04-15T13:50:02Z</time>
      </trkpt>
      <trkpt lat="48.38381" lon="2.74091">
        <ele>86.6</ele>
        <time>2018-04-15T13:50:03Z</time>
      </trkpt>
      <trkpt lat="48.38384" lon="2.74087">
        <ele>86.5</ele>
        <time>2018-04-15T13:50:04Z</time>
      </trkpt>
      <trkpt lat="48.38388" lon="2.74082">
        <ele>86.4</ele>
        <time>2018-04-15T13:50:05Z</time>
      </trkpt>
      <trkpt lat="48.38392" lon="2.74077">
        <ele>86.2</ele>
        <time>2018-04-15T13:50:06Z</time>
      </trkpt>
      <trkpt lat="48.38395" lon="2.74073">
        <ele>86</ele>
        <time>2018-04-15T13:50:07Z</time>
      </trkpt>
      <trkpt lat="48.384" lon="2.74068">
        <ele>85.7</ele>
        <time>2018-04-15T13:50:08Z</time>
      </trkpt>
      <trkpt lat="48.38402" lon="2.74065">
        <ele>85.6</ele>
        <time>2018-04-15T13:50:09Z</time>
      </trkpt>
      <trkpt lat="48.38406" lon="2.7406">
        <ele>85.2</ele>
        <time>2018-04-15T13:50:10Z</time>
      </trkpt>
      <trkpt lat="48.38408" lon="2.74055">
        <ele>84.9</ele>
        <time>2018-04-15T13:50:11Z</time>
      </trkpt>
      <trkpt lat="48.3841" lon="2.74051">
        <ele>84.7</ele>
        <time>2018-04-15T13:50:12Z</time>
      </trkpt>
      <trkpt lat="48.38413" lon="2.74048">
        <ele>84.4</ele>
        <time>2018-04-15T13:50:13Z</time>
      </trkpt>
      <trkpt lat="48.38415" lon="2.74045">
        <ele>84.2</ele>
        <time>2018-04-15T13:50:14Z</time>
      </trkpt>
      <trkpt lat="48.38418" lon="2.74042">
        <ele>84</ele>
        <time>2018-04-15T13:50:15Z</time>
      </trkpt>
      <trkpt lat="48.3842" lon="2.74038">
        <ele>83.7</ele>
        <time>2018-04-15T13:50:16Z</time>
      </trkpt>
      <trkpt lat="48.38423" lon="2.74035">
        <ele>83.4</ele>
        <time>2018-04-15T13:50:17Z</time>
      </trkpt>
      <trkpt lat="48.38425" lon="2.74032">
        <ele>83.1</ele>
        <time>2018-04-15T13:50:18Z</time>
      </trkpt>
      <trkpt lat="48.38429" lon="2.74028">
        <ele>82.7</ele>
        <time>2018-04-15T13:50:19Z</time>
      </trkpt>
      <trkpt lat="48.38432" lon="2.74023">
        <ele>82.5</ele>
        <time>2018-04-15T13:50:20Z</time>
      </trkpt>
      <trkpt lat="48.38436" lon="2.74018">
        <ele>82.2</ele>
        <time>2018-04-15T13:50:21Z</time>
      </trkpt>
      <trkpt lat="48.38441" lon="2.74013">
        <ele>82</ele>
        <time>2018-04-15T13:50:22Z</time>
      </trkpt>
      <trkpt lat="48.38444" lon="2.74009">
        <ele>81.8</ele>
        <time>2018-04-15T13:50:23Z</time>
      </trkpt>
      <trkpt lat="48.38447" lon="2.74006">
        <ele>81.6</ele>
        <time>2018-04-15T13:50:24Z</time>
      </trkpt>
      <trkpt lat="48.38449" lon="2.74002">
        <ele>81.4</ele>
        <time>2018-04-15T13:50:25Z</time>
      </trkpt>
      <trkpt lat="48.38452" lon="2.73999">
        <ele>81.3</ele>
        <time>2018-04-15T13:50:26Z</time>
      </trkpt>
      <trkpt lat="48.38454" lon="2.73996">
        <ele>81.3</ele>
        <time>2018-04-15T13:50:27Z</time>
      </trkpt>
      <trkpt lat="48.38457" lon="2.73993">
        <ele>81.2</ele>
        <time>2018-04-15T13:50:28Z</time>
      </trkpt>
      <trkpt lat="48.3846" lon="2.7399">
        <ele>81.1</ele>
        <time>2018-04-15T13:50:29Z</time>
      </trkpt>
      <trkpt lat="48.38463" lon="2.73986">
        <ele>81</ele>
        <time>2018-04-15T13:50:30Z</time>
      </trkpt>
      <trkpt lat="48.38466" lon="2.73982">
        <ele>81</ele>
        <time>2018-04-15T13:50:31Z</time>
      </trkpt>
      <trkpt lat="48.3847" lon="2.73978">
        <ele>80.9</ele>
        <time>2018-04-15T13:50:32Z</time>
      </trkpt>
      <trkpt lat="48.38473" lon="2.73974">
        <ele>80.9</ele>
        <time>2018-04-15T13:50:33Z</time>
      </trkpt>
      <trkpt lat="48.38475" lon="2.7397">
        <ele>80.9</ele>
        <time>2018-04-15T13:50:34Z</time>
      </trkpt>
      <trkpt lat="48.38477" lon="2.73967">
        <ele>80.9</ele>
        <time>2018-04-15T13:50:35Z</time>
      </trkpt>
      <trkpt lat="48.38481" lon="2.73963">
        <ele>80.9</ele>
        <time>2018-04-15T13:50:36Z</time>
      </trkpt>
      <trkpt lat="48.38483" lon="2.73959">
        <ele>81</ele>
        <time>2018-04-15T13:50:37Z</time>
      </trkpt>
      <trkpt lat="48.38486" lon="2.73956">
        <ele>81</ele>
        <time>2018-04-15T13:50:38Z</time>
      </trkpt>
      <trkpt lat="48.38488" lon="2.73953">
        <ele>81.1</ele>
        <time>2018-04-15T13:50:39Z</time>
      </trkpt>
      <trkpt lat="48.38491" lon="2.73949">
        <ele>81.1</ele>
        <time>2018-04-15T13:50:40Z</time>
      </trkpt>
      <trkpt lat="48.38494" lon="2.73945">
        <ele>81.2</ele>
        <time>2018-04-15T13:50:41Z</time>
      </trkpt>
      <trkpt lat="48.38496" lon="2.73942">
        <ele>81.3</ele>
        <time>2018-04-15T13:50:42Z</time>
      </trkpt>
      <trkpt lat="48.38499" lon="2.73938">
        <ele>81.4</ele>
        <time>2018-04-15T13:50:43Z</time>
      </trkpt>
      <trkpt lat="48.38502" lon="2.73933">
        <ele>81.5</ele>
        <time>2018-04-15T13:50:44Z</time>
      </trkpt>
      <trkpt lat="48.38506" lon="2.73928">
        <ele>81.6</ele>
        <time>2018-04-15T13:50:45Z</time>
      </trkpt>
      <trkpt lat="48.3851" lon="2.73922">
        <ele>81.7</ele>
        <time>2018-04-15T13:50:46Z</time>
      </trkpt>
      <trkpt lat="48.38513" lon="2.73918">
        <ele>81.8</ele>
        <time>2018-04-15T13:50:47Z</time>
      </trkpt>
      <trkpt lat="48.38516" lon="2.73915">
        <ele>81.9</ele>
        <time>2018-04-15T13:50:48Z</time>
      </trkpt>
      <trkpt lat="48.38519" lon="2.73911">
        <ele>82</ele>
        <time>2018-04-15T13:50:49Z</time>
      </trkpt>
      <trkpt lat="48.38522" lon="2.73908">
        <ele>82.1</ele>
        <time>2018-04-15T13:50:50Z</time>
      </trkpt>
      <trkpt lat="48.38525" lon="2.73903">
        <ele>82.2</ele>
        <time>2018-04-15T13:50:51Z</time>
      </trkpt>
      <trkpt lat="48.38528" lon="2.73898">
        <ele>82.3</ele>
        <time>2018-04-15T13:50:52Z</time>
      </trkpt>
      <trkpt lat="48.38531" lon="2.73894">
        <ele>82.4</ele>
        <time>2018-04-15T13:50:53Z</time>
      </trkpt>
      <trkpt lat="48.38535" lon="2.7389">
        <ele>82.5</ele>
        <time>2018-04-15T13:50:54Z</time>
      </trkpt>
      <trkpt lat="48.38538" lon="2.73887">
        <ele>82.5</ele>
        <time>2018-04-15T13:50:55Z</time>
      </trkpt>
      <trkpt lat="48.38541" lon="2.73883">
        <ele>82.6</ele>
        <time>2018-04-15T13:50:56Z</time>
      </trkpt>
      <trkpt lat="48.38543" lon="2.73879">
        <ele>82.7</ele>
        <time>2018-04-15T13:50:57Z</time>
      </trkpt>
      <trkpt lat="48.38546" lon="2.73876">
        <ele>82.8</ele>
        <time>2018-04-15T13:50:58Z</time>
      </trkpt>
      <trkpt lat="48.38549" lon="2.73872">
        <ele>83</ele>
        <time>2018-04-15T13:50:59Z</time>
      </trkpt>
      <trkpt lat="48.38552" lon="2.73868">
        <ele>83.1</ele>
        <time>2018-04-15T13:51:00Z</time>
      </trkpt>
      <trkpt lat="48.38555" lon="2.73863">
        <ele>83.3</ele>
        <time>2018-04-15T13:51:01Z</time>
      </trkpt>
      <trkpt lat="48.38558" lon="2.73858">
        <ele>83.5</ele>
        <time>2018-04-15T13:51:02Z</time>
      </trkpt>
      <trkpt lat="48.38562" lon="2.73852">
        <ele>83.7</ele>
        <time>2018-04-15T13:51:03Z</time>
      </trkpt>
      <trkpt lat="48.38565" lon="2.73849">
        <ele>83.9</ele>
        <time>2018-04-15T13:51:04Z</time>
      </trkpt>
      <trkpt lat="48.38567" lon="2.73846">
        <ele>84.1</ele>
        <time>2018-04-15T13:51:05Z</time>
      </trkpt>
      <trkpt lat="48.3857" lon="2.73841">
        <ele>84.2</ele>
        <time>2018-04-15T13:51:06Z</time>
      </trkpt>
      <trkpt lat="48.38573" lon="2.73837">
        <ele>84.5</ele>
        <time>2018-04-15T13:51:07Z</time>
      </trkpt>
      <trkpt lat="48.38576" lon="2.73833">
        <ele>84.7</ele>
        <time>2018-04-15T13:51:08Z</time>
      </trkpt>
      <trkpt lat="48.38579" lon="2.73829">
        <ele>84.9</ele>
        <time>2018-04-15T13:51:09Z</time>
      </trkpt>
      <trkpt lat="48.38582" lon="2.73825">
        <ele>85.1</ele>
        <time>2018-04-15T13:51:10Z</time>
      </trkpt>
      <trkpt lat="48.38584" lon="2.73822">
        <ele>85.3</ele>
        <time>2018-04-15T13:51:11Z</time>
      </trkpt>
      <trkpt lat="48.38586" lon="2.73818">
        <ele>85.5</ele>
        <time>2018-04-15T13:51:12Z</time>
      </trkpt>
      <trkpt lat="48.38589" lon="2.73814">
        <ele>85.7</ele>
        <time>2018-04-15T13:51:13Z</time>
      </trkpt>
      <trkpt lat="48.38593" lon="2.73809">
        <ele>86.1</ele>
        <time>2018-04-15T13:51:15Z</time>
      </trkpt>
      <trkpt lat="48.38596" lon="2.73805">
        <ele>86.4</ele>
        <time>2018-04-15T13:51:17Z</time>
      </trkpt>
      <trkpt lat="48.38599" lon="2.73804">
        <ele>86.6</ele>
        <time>2018-04-15T13:51:19Z</time>
      </trkpt>
      <trkpt lat="48.38601" lon="2.738">
        <ele>86.8</ele>
        <time>2018-04-15T13:51:21Z</time>
      </trkpt>
      <trkpt lat="48.38604" lon="2.73796">
        <ele>87</ele>
        <time>2018-04-15T13:51:24Z</time>
      </trkpt>
      <trkpt lat="48.38607" lon="2.73792">
        <ele>87</ele>
        <time>2018-04-15T13:51:26Z</time>
      </trkpt>
      <trkpt lat="48.38609" lon="2.7379">
        <ele>87</ele>
        <time>2018-04-15T13:51:28Z</time>
      </trkpt>
      <trkpt lat="48.38608" lon="2.73795">
        <ele>87</ele>
        <time>2018-04-15T13:51:34Z</time>
      </trkpt>
      <trkpt lat="48.38607" lon="2.738">
        <ele>87</ele>
        <time>2018-04-15T13:51:36Z</time>
      </trkpt>
      <trkpt lat="48.38609" lon="2.73796">
        <ele>87</ele>
        <time>2018-04-15T13:52:05Z</time>
      </trkpt>
      <trkpt lat="48.38612" lon="2.73792">
        <ele>87.1</ele>
        <time>2018-04-15T13:52:35Z</time>
      </trkpt>
      <trkpt lat="48.38614" lon="2.7379">
        <ele>87.1</ele>
        <time>2018-04-15T13:52:42Z</time>
      </trkpt>
      <trkpt lat="48.38617" lon="2.73789">
        <ele>87.1</ele>
        <time>2018-04-15T13:53:59Z</time>
      </trkpt>
      <trkpt lat="48.38621" lon="2.73786">
        <ele>87.2</ele>
        <time>2018-04-15T13:54:02Z</time>
      </trkpt>
      <trkpt lat="48.38624" lon="2.73783">
        <ele>87.1</ele>
        <time>2018-04-15T13:54:04Z</time>
      </trkpt>
      <trkpt lat="48.38629" lon="2.7378">
        <ele>87.1</ele>
        <time>2018-04-15T13:54:06Z</time>
      </trkpt>
      <trkpt lat="48.38633" lon="2.73776">
        <ele>87</ele>
        <time>2018-04-15T13:54:08Z</time>
      </trkpt>
      <trkpt lat="48.38637" lon="2.73772">
        <ele>86.9</ele>
        <time>2018-04-15T13:54:10Z</time>
      </trkpt>
      <trkpt lat="48.38642" lon="2.73769">
        <ele>86.8</ele>
        <time>2018-04-15T13:54:12Z</time>
      </trkpt>
      <trkpt lat="48.38645" lon="2.73767">
        <ele>86.7</ele>
        <time>2018-04-15T13:54:13Z</time>
      </trkpt>
      <trkpt lat="48.38648" lon="2.73765">
        <ele>86.6</ele>
        <time>2018-04-15T13:54:14Z</time>
      </trkpt>
      <trkpt lat="48.38652" lon="2.73762">
        <ele>86.4</ele>
        <time>2018-04-15T13:54:16Z</time>
      </trkpt>
      <trkpt lat="48.38655" lon="2.73759">
        <ele>86.3</ele>
        <time>2018-04-15T13:54:17Z</time>
      </trkpt>
      <trkpt lat="48.38657" lon="2.73757">
        <ele>86.1</ele>
        <time>2018-04-15T13:54:18Z</time>
      </trkpt>
      <trkpt lat="48.3866" lon="2.73755">
        <ele>86</ele>
        <time>2018-04-15T13:54:19Z</time>
      </trkpt>
      <trkpt lat="48.38663" lon="2.73752">
        <ele>85.9</ele>
        <time>2018-04-15T13:54:20Z</time>
      </trkpt>
      <trkpt lat="48.38665" lon="2.7375">
        <ele>85.7</ele>
        <time>2018-04-15T13:54:21Z</time>
      </trkpt>
      <trkpt lat="48.38668" lon="2.73748">
        <ele>85.6</ele>
        <time>2018-04-15T13:54:22Z</time>
      </trkpt>
      <trkpt lat="48.38673" lon="2.73745">
        <ele>85.3</ele>
        <time>2018-04-15T13:54:24Z</time>
      </trkpt>
      <trkpt lat="48.38676" lon="2.73744">
        <ele>85.1</ele>
        <time>2018-04-15T13:54:25Z</time>
      </trkpt>
      <trkpt lat="48.38682" lon="2.7374">
        <ele>84.9</ele>
        <time>2018-04-15T13:54:27Z</time>
      </trkpt>
      <trkpt lat="48.38685" lon="2.73738">
        <ele>84.9</ele>
        <time>2018-04-15T13:54:28Z</time>
      </trkpt>
      <trkpt lat="48.38688" lon="2.73734">
        <ele>84.7</ele>
        <time>2018-04-15T13:54:29Z</time>
      </trkpt>
      <trkpt lat="48.38693" lon="2.7373">
        <ele>84.5</ele>
        <time>2018-04-15T13:54:31Z</time>
      </trkpt>
      <trkpt lat="48.38696" lon="2.73728">
        <ele>84.4</ele>
        <time>2018-04-15T13:54:32Z</time>
      </trkpt>
      <trkpt lat="48.38699" lon="2.73725">
        <ele>84.3</ele>
        <time>2018-04-15T13:54:33Z</time>
      </trkpt>
      <trkpt lat="48.38702" lon="2.73723">
        <ele>84.2</ele>
        <time>2018-04-15T13:54:34Z</time>
      </trkpt>
      <trkpt lat="48.38705" lon="2.7372">
        <ele>84.1</ele>
        <time>2018-04-15T13:54:35Z</time>
      </trkpt>
      <trkpt lat="48.38708" lon="2.73717">
        <ele>84</ele>
        <time>2018-04-15T13:54:36Z</time>
      </trkpt>
      <trkpt lat="48.38712" lon="2.73714">
        <ele>83.9</ele>
        <time>2018-04-15T13:54:37Z</time>
      </trkpt>
      <trkpt lat="48.38715" lon="2.73711">
        <ele>83.8</ele>
        <time>2018-04-15T13:54:38Z</time>
      </trkpt>
      <trkpt lat="48.38719" lon="2.73708">
        <ele>83.7</ele>
        <time>2018-04-15T13:54:39Z</time>
      </trkpt>
      <trkpt lat="48.38722" lon="2.73704">
        <ele>83.7</ele>
        <time>2018-04-15T13:54:40Z</time>
      </trkpt>
      <trkpt lat="48.38725" lon="2.73701">
        <ele>83.6</ele>
        <time>2018-04-15T13:54:41Z</time>
      </trkpt>
      <trkpt lat="48.38728" lon="2.73699">
        <ele>83.6</ele>
        <time>2018-04-15T13:54:42Z</time>
      </trkpt>
      <trkpt lat="48.38732" lon="2.73697">
        <ele>83.6</ele>
        <time>2018-04-15T13:54:43Z</time>
      </trkpt>
      <trkpt lat="48.38737" lon="2.73691">
        <ele>83.6</ele>
        <time>2018-04-15T13:54:45Z</time>
      </trkpt>
      <trkpt lat="48.3874" lon="2.73689">
        <ele>83.6</ele>
        <time>2018-04-15T13:54:46Z</time>
      </trkpt>
      <trkpt lat="48.38743" lon="2.73687">
        <ele>83.6</ele>
        <time>2018-04-15T13:54:47Z</time>
      </trkpt>
      <trkpt lat="48.38745" lon="2.73684">
        <ele>83.7</ele>
        <time>2018-04-15T13:54:48Z</time>
      </trkpt>
      <trkpt lat="48.3875" lon="2.7368">
        <ele>83.7</ele>
        <time>2018-04-15T13:54:50Z</time>
      </trkpt>
      <trkpt lat="48.38752" lon="2.73677">
        <ele>83.7</ele>
        <time>2018-04-15T13:54:51Z</time>
      </trkpt>
      <trkpt lat="48.38755" lon="2.73675">
        <ele>83.8</ele>
        <time>2018-04-15T13:54:52Z</time>
      </trkpt>
      <trkpt lat="48.38758" lon="2.73672">
        <ele>83.8</ele>
        <time>2018-04-15T13:54:53Z</time>
      </trkpt>
      <trkpt lat="48.38764" lon="2.73669">
        <ele>83.9</ele>
        <time>2018-04-15T13:54:55Z</time>
      </trkpt>
      <trkpt lat="48.38767" lon="2.73668">
        <ele>84</ele>
        <time>2018-04-15T13:54:56Z</time>
      </trkpt>
      <trkpt lat="48.38771" lon="2.73664">
        <ele>84</ele>
        <time>2018-04-15T13:54:57Z</time>
      </trkpt>
      <trkpt lat="48.38776" lon="2.7366">
        <ele>84.1</ele>
        <time>2018-04-15T13:54:58Z</time>
      </trkpt>
      <trkpt lat="48.3878" lon="2.73658">
        <ele>84.2</ele>
        <time>2018-04-15T13:54:59Z</time>
      </trkpt>
      <trkpt lat="48.38785" lon="2.73655">
        <ele>84.3</ele>
        <time>2018-04-15T13:55:00Z</time>
      </trkpt>
      <trkpt lat="48.38789" lon="2.73651">
        <ele>84.4</ele>
        <time>2018-04-15T13:55:01Z</time>
      </trkpt>
      <trkpt lat="48.38793" lon="2.73647">
        <ele>84.4</ele>
        <time>2018-04-15T13:55:02Z</time>
      </trkpt>
      <trkpt lat="48.38797" lon="2.73644">
        <ele>84.5</ele>
        <time>2018-04-15T13:55:03Z</time>
      </trkpt>
      <trkpt lat="48.38801" lon="2.73642">
        <ele>84.5</ele>
        <time>2018-04-15T13:55:04Z</time>
      </trkpt>
      <trkpt lat="48.38804" lon="2.7364">
        <ele>84.5</ele>
        <time>2018-04-15T13:55:05Z</time>
      </trkpt>
      <trkpt lat="48.38808" lon="2.73638">
        <ele>84.5</ele>
        <time>2018-04-15T13:55:06Z</time>
      </trkpt>
      <trkpt lat="48.38812" lon="2.73635">
        <ele>84.6</ele>
        <time>2018-04-15T13:55:07Z</time>
      </trkpt>
      <trkpt lat="48.38815" lon="2.73632">
        <ele>84.6</ele>
        <time>2018-04-15T13:55:08Z</time>
      </trkpt>
      <trkpt lat="48.38818" lon="2.73629">
        <ele>84.6</ele>
        <time>2018-04-15T13:55:09Z</time>
      </trkpt>
      <trkpt lat="48.38822" lon="2.73625">
        <ele>84.6</ele>
        <time>2018-04-15T13:55:10Z</time>
      </trkpt>
      <trkpt lat="48.38826" lon="2.73621">
        <ele>84.6</ele>
        <time>2018-04-15T13:55:11Z</time>
      </trkpt>
      <trkpt lat="48.3883" lon="2.73619">
        <ele>84.7</ele>
        <time>2018-04-15T13:55:12Z</time>
      </trkpt>
      <trkpt lat="48.38833" lon="2.73616">
        <ele>84.7</ele>
        <time>2018-04-15T13:55:13Z</time>
      </trkpt>
      <trkpt lat="48.38837" lon="2.73613">
        <ele>84.8</ele>
        <time>2018-04-15T13:55:14Z</time>
      </trkpt>
      <trkpt lat="48.38839" lon="2.73611">
        <ele>84.8</ele>
        <time>2018-04-15T13:55:15Z</time>
      </trkpt>
      <trkpt lat="48.38842" lon="2.73609">
        <ele>84.8</ele>
        <time>2018-04-15T13:55:16Z</time>
      </trkpt>
      <trkpt lat="48.38846" lon="2.73605">
        <ele>85</ele>
        <time>2018-04-15T13:55:17Z</time>
      </trkpt>
      <trkpt lat="48.38849" lon="2.73603">
        <ele>85</ele>
        <time>2018-04-15T13:55:18Z</time>
      </trkpt>
      <trkpt lat="48.38852" lon="2.736">
        <ele>85.1</ele>
        <time>2018-04-15T13:55:19Z</time>
      </trkpt>
      <trkpt lat="48.38855" lon="2.73597">
        <ele>85.2</ele>
        <time>2018-04-15T13:55:20Z</time>
      </trkpt>
      <trkpt lat="48.38858" lon="2.73594">
        <ele>85.2</ele>
        <time>2018-04-15T13:55:21Z</time>
      </trkpt>
      <trkpt lat="48.38861" lon="2.73591">
        <ele>85.3</ele>
        <time>2018-04-15T13:55:22Z</time>
      </trkpt>
      <trkpt lat="48.38864" lon="2.73588">
        <ele>85.3</ele>
        <time>2018-04-15T13:55:23Z</time>
      </trkpt>
      <trkpt lat="48.38868" lon="2.73586">
        <ele>85.5</ele>
        <time>2018-04-15T13:55:24Z</time>
      </trkpt>
      <trkpt lat="48.38872" lon="2.73582">
        <ele>85.6</ele>
        <time>2018-04-15T13:55:26Z</time>
      </trkpt>
      <trkpt lat="48.38875" lon="2.7358">
        <ele>85.7</ele>
        <time>2018-04-15T13:55:27Z</time>
      </trkpt>
      <trkpt lat="48.38878" lon="2.73578">
        <ele>85.7</ele>
        <time>2018-04-15T13:55:28Z</time>
      </trkpt>
      <trkpt lat="48.38881" lon="2.73575">
        <ele>85.7</ele>
        <time>2018-04-15T13:55:29Z</time>
      </trkpt>
      <trkpt lat="48.38885" lon="2.73571">
        <ele>85.8</ele>
        <time>2018-04-15T13:55:30Z</time>
      </trkpt>
      <trkpt lat="48.38888" lon="2.73569">
        <ele>85.8</ele>
        <time>2018-04-15T13:55:31Z</time>
      </trkpt>
      <trkpt lat="48.38891" lon="2.73566">
        <ele>85.9</ele>
        <time>2018-04-15T13:55:32Z</time>
      </trkpt>
      <trkpt lat="48.38894" lon="2.73563">
        <ele>85.9</ele>
        <time>2018-04-15T13:55:33Z</time>
      </trkpt>
      <trkpt lat="48.38897" lon="2.73561">
        <ele>86</ele>
        <time>2018-04-15T13:55:34Z</time>
      </trkpt>
      <trkpt lat="48.389" lon="2.73559">
        <ele>86.1</ele>
        <time>2018-04-15T13:55:35Z</time>
      </trkpt>
      <trkpt lat="48.38903" lon="2.73557">
        <ele>86.2</ele>
        <time>2018-04-15T13:55:36Z</time>
      </trkpt>
      <trkpt lat="48.38906" lon="2.73554">
        <ele>86.3</ele>
        <time>2018-04-15T13:55:37Z</time>
      </trkpt>
      <trkpt lat="48.3891" lon="2.73551">
        <ele>86.3</ele>
        <time>2018-04-15T13:55:38Z</time>
      </trkpt>
      <trkpt lat="48.38913" lon="2.73548">
        <ele>86.4</ele>
        <time>2018-04-15T13:55:39Z</time>
      </trkpt>
      <trkpt lat="48.38917" lon="2.73545">
        <ele>86.6</ele>
        <time>2018-04-15T13:55:41Z</time>
      </trkpt>
      <trkpt lat="48.3892" lon="2.73542">
        <ele>86.7</ele>
        <time>2018-04-15T13:55:42Z</time>
      </trkpt>
      <trkpt lat="48.38922" lon="2.73541">
        <ele>86.8</ele>
        <time>2018-04-15T13:55:43Z</time>
      </trkpt>
      <trkpt lat="48.38926" lon="2.73539">
        <ele>86.9</ele>
        <time>2018-04-15T13:55:44Z</time>
      </trkpt>
      <trkpt lat="48.38928" lon="2.73537">
        <ele>87.1</ele>
        <time>2018-04-15T13:55:45Z</time>
      </trkpt>
      <trkpt lat="48.38933" lon="2.73535">
        <ele>87.2</ele>
        <time>2018-04-15T13:55:47Z</time>
      </trkpt>
      <trkpt lat="48.38937" lon="2.73532">
        <ele>87.3</ele>
        <time>2018-04-15T13:55:49Z</time>
      </trkpt>
      <trkpt lat="48.38941" lon="2.7353">
        <ele>87.3</ele>
        <time>2018-04-15T13:55:50Z</time>
      </trkpt>
      <trkpt lat="48.38944" lon="2.73528">
        <ele>87.3</ele>
        <time>2018-04-15T13:55:51Z</time>
      </trkpt>
      <trkpt lat="48.38947" lon="2.73527">
        <ele>87.2</ele>
        <time>2018-04-15T13:55:52Z</time>
      </trkpt>
      <trkpt lat="48.38952" lon="2.73527">
        <ele>87.2</ele>
        <time>2018-04-15T13:55:54Z</time>
      </trkpt>
      <trkpt lat="48.38956" lon="2.73527">
        <ele>87.2</ele>
        <time>2018-04-15T13:55:56Z</time>
      </trkpt>
      <trkpt lat="48.38959" lon="2.73528">
        <ele>87.1</ele>
        <time>2018-04-15T13:55:58Z</time>
      </trkpt>
      <trkpt lat="48.38965" lon="2.73528">
        <ele>87.1</ele>
        <time>2018-04-15T13:56:00Z</time>
      </trkpt>
      <trkpt lat="48.38967" lon="2.73529">
        <ele>87.1</ele>
        <time>2018-04-15T13:56:01Z</time>
      </trkpt>
      <trkpt lat="48.3897" lon="2.73529">
        <ele>87</ele>
        <time>2018-04-15T13:56:02Z</time>
      </trkpt>
      <trkpt lat="48.38973" lon="2.7353">
        <ele>87.2</ele>
        <time>2018-04-15T13:56:03Z</time>
      </trkpt>
      <trkpt lat="48.38978" lon="2.73532">
        <ele>87.3</ele>
        <time>2018-04-15T13:56:05Z</time>
      </trkpt>
      <trkpt lat="48.38981" lon="2.73533">
        <ele>87.5</ele>
        <time>2018-04-15T13:56:06Z</time>
      </trkpt>
      <trkpt lat="48.38985" lon="2.73535">
        <ele>87.6</ele>
        <time>2018-04-15T13:56:08Z</time>
      </trkpt>
      <trkpt lat="48.3899" lon="2.73536">
        <ele>87.8</ele>
        <time>2018-04-15T13:56:10Z</time>
      </trkpt>
      <trkpt lat="48.38993" lon="2.73538">
        <ele>87.9</ele>
        <time>2018-04-15T13:56:11Z</time>
      </trkpt>
      <trkpt lat="48.38999" lon="2.73541">
        <ele>88.1</ele>
        <time>2018-04-15T13:56:13Z</time>
      </trkpt>
      <trkpt lat="48.39003" lon="2.73542">
        <ele>88.2</ele>
        <time>2018-04-15T13:56:14Z</time>
      </trkpt>
      <trkpt lat="48.39006" lon="2.73544">
        <ele>88.3</ele>
        <time>2018-04-15T13:56:15Z</time>
      </trkpt>
      <trkpt lat="48.39008" lon="2.73545">
        <ele>88.4</ele>
        <time>2018-04-15T13:56:16Z</time>
      </trkpt>
      <trkpt lat="48.39011" lon="2.73546">
        <ele>88.5</ele>
        <time>2018-04-15T13:56:17Z</time>
      </trkpt>
      <trkpt lat="48.39013" lon="2.73548">
        <ele>88.6</ele>
        <time>2018-04-15T13:56:18Z</time>
      </trkpt>
      <trkpt lat="48.39018" lon="2.73553">
        <ele>88.9</ele>
        <time>2018-04-15T13:56:20Z</time>
      </trkpt>
      <trkpt lat="48.3902" lon="2.73555">
        <ele>89.1</ele>
        <time>2018-04-15T13:56:21Z</time>
      </trkpt>
      <trkpt lat="48.39023" lon="2.73557">
        <ele>89.2</ele>
        <time>2018-04-15T13:56:22Z</time>
      </trkpt>
      <trkpt lat="48.39027" lon="2.7356">
        <ele>89.4</ele>
        <time>2018-04-15T13:56:24Z</time>
      </trkpt>
      <trkpt lat="48.39031" lon="2.73564">
        <ele>89.7</ele>
        <time>2018-04-15T13:56:26Z</time>
      </trkpt>
      <trkpt lat="48.39036" lon="2.73569">
        <ele>90.1</ele>
        <time>2018-04-15T13:56:28Z</time>
      </trkpt>
      <trkpt lat="48.39039" lon="2.73572">
        <ele>90.3</ele>
        <time>2018-04-15T13:56:30Z</time>
      </trkpt>
      <trkpt lat="48.39043" lon="2.73575">
        <ele>90.6</ele>
        <time>2018-04-15T13:56:32Z</time>
      </trkpt>
      <trkpt lat="48.39048" lon="2.73578">
        <ele>90.9</ele>
        <time>2018-04-15T13:56:34Z</time>
      </trkpt>
      <trkpt lat="48.39053" lon="2.73578">
        <ele>91.2</ele>
        <time>2018-04-15T13:56:36Z</time>
      </trkpt>
      <trkpt lat="48.39057" lon="2.73577">
        <ele>91.4</ele>
        <time>2018-04-15T13:56:38Z</time>
      </trkpt>
      <trkpt lat="48.39061" lon="2.73575">
        <ele>91.7</ele>
        <time>2018-04-15T13:56:40Z</time>
      </trkpt>
      <trkpt lat="48.39064" lon="2.73574">
        <ele>91.8</ele>
        <time>2018-04-15T13:56:41Z</time>
      </trkpt>
      <trkpt lat="48.39067" lon="2.73573">
        <ele>92</ele>
        <time>2018-04-15T13:56:42Z</time>
      </trkpt>
      <trkpt lat="48.3907" lon="2.73571">
        <ele>92.2</ele>
        <time>2018-04-15T13:56:43Z</time>
      </trkpt>
      <trkpt lat="48.39073" lon="2.73569">
        <ele>92.4</ele>
        <time>2018-04-15T13:56:45Z</time>
      </trkpt>
      <trkpt lat="48.39077" lon="2.73564">
        <ele>92.7</ele>
        <time>2018-04-15T13:56:47Z</time>
      </trkpt>
      <trkpt lat="48.3908" lon="2.73562">
        <ele>92.9</ele>
        <time>2018-04-15T13:56:48Z</time>
      </trkpt>
      <trkpt lat="48.39084" lon="2.73558">
        <ele>93.1</ele>
        <time>2018-04-15T13:56:50Z</time>
      </trkpt>
      <trkpt lat="48.39087" lon="2.73554">
        <ele>93.4</ele>
        <time>2018-04-15T13:56:52Z</time>
      </trkpt>
      <trkpt lat="48.39091" lon="2.73549">
        <ele>93.6</ele>
        <time>2018-04-15T13:56:54Z</time>
      </trkpt>
      <trkpt lat="48.39093" lon="2.73547">
        <ele>93.7</ele>
        <time>2018-04-15T13:56:55Z</time>
      </trkpt>
      <trkpt lat="48.39095" lon="2.73544">
        <ele>93.8</ele>
        <time>2018-04-15T13:56:56Z</time>
      </trkpt>
      <trkpt lat="48.39099" lon="2.73539">
        <ele>94.1</ele>
        <time>2018-04-15T13:56:58Z</time>
      </trkpt>
      <trkpt lat="48.39102" lon="2.73533">
        <ele>94.3</ele>
        <time>2018-04-15T13:57:00Z</time>
      </trkpt>
      <trkpt lat="48.39105" lon="2.73527">
        <ele>94.4</ele>
        <time>2018-04-15T13:57:02Z</time>
      </trkpt>
      <trkpt lat="48.39108" lon="2.73521">
        <ele>94.6</ele>
        <time>2018-04-15T13:57:04Z</time>
      </trkpt>
      <trkpt lat="48.3911" lon="2.73518">
        <ele>94.7</ele>
        <time>2018-04-15T13:57:05Z</time>
      </trkpt>
      <trkpt lat="48.39114" lon="2.73512">
        <ele>94.9</ele>
        <time>2018-04-15T13:57:07Z</time>
      </trkpt>
      <trkpt lat="48.39116" lon="2.7351">
        <ele>94.9</ele>
        <time>2018-04-15T13:57:08Z</time>
      </trkpt>
      <trkpt lat="48.39118" lon="2.73506">
        <ele>95.1</ele>
        <time>2018-04-15T13:57:09Z</time>
      </trkpt>
      <trkpt lat="48.3912" lon="2.73502">
        <ele>95.2</ele>
        <time>2018-04-15T13:57:10Z</time>
      </trkpt>
      <trkpt lat="48.39121" lon="2.73498">
        <ele>95.3</ele>
        <time>2018-04-15T13:57:11Z</time>
      </trkpt>
      <trkpt lat="48.39125" lon="2.73492">
        <ele>95.6</ele>
        <time>2018-04-15T13:57:13Z</time>
      </trkpt>
      <trkpt lat="48.39127" lon="2.73488">
        <ele>95.7</ele>
        <time>2018-04-15T13:57:14Z</time>
      </trkpt>
      <trkpt lat="48.39129" lon="2.73485">
        <ele>95.9</ele>
        <time>2018-04-15T13:57:15Z</time>
      </trkpt>
      <trkpt lat="48.39131" lon="2.73481">
        <ele>96</ele>
        <time>2018-04-15T13:57:16Z</time>
      </trkpt>
      <trkpt lat="48.39134" lon="2.73477">
        <ele>96.2</ele>
        <time>2018-04-15T13:57:17Z</time>
      </trkpt>
      <trkpt lat="48.39137" lon="2.73471">
        <ele>96.5</ele>
        <time>2018-04-15T13:57:19Z</time>
      </trkpt>
      <trkpt lat="48.39141" lon="2.73465">
        <ele>96.7</ele>
        <time>2018-04-15T13:57:21Z</time>
      </trkpt>
      <trkpt lat="48.39144" lon="2.73462">
        <ele>96.9</ele>
        <time>2018-04-15T13:57:22Z</time>
      </trkpt>
      <trkpt lat="48.39146" lon="2.7346">
        <ele>97</ele>
        <time>2018-04-15T13:57:23Z</time>
      </trkpt>
      <trkpt lat="48.3915" lon="2.73459">
        <ele>97.2</ele>
        <time>2018-04-15T13:57:24Z</time>
      </trkpt>
      <trkpt lat="48.39155" lon="2.73459">
        <ele>97.3</ele>
        <time>2018-04-15T13:57:25Z</time>
      </trkpt>
      <trkpt lat="48.39159" lon="2.73459">
        <ele>97.4</ele>
        <time>2018-04-15T13:57:26Z</time>
      </trkpt>
      <trkpt lat="48.39164" lon="2.7346">
        <ele>97.5</ele>
        <time>2018-04-15T13:57:27Z</time>
      </trkpt>
      <trkpt lat="48.39169" lon="2.73461">
        <ele>97.5</ele>
        <time>2018-04-15T13:57:28Z</time>
      </trkpt>
      <trkpt lat="48.39174" lon="2.73461">
        <ele>97.5</ele>
        <time>2018-04-15T13:57:29Z</time>
      </trkpt>
      <trkpt lat="48.39179" lon="2.73462">
        <ele>97.5</ele>
        <time>2018-04-15T13:57:30Z</time>
      </trkpt>
      <trkpt lat="48.39183" lon="2.73463">
        <ele>97.5</ele>
        <time>2018-04-15T13:57:31Z</time>
      </trkpt>
      <trkpt lat="48.39187" lon="2.73463">
        <ele>97.4</ele>
        <time>2018-04-15T13:57:32Z</time>
      </trkpt>
      <trkpt lat="48.39189" lon="2.7346">
        <ele>97.4</ele>
        <time>2018-04-15T13:57:33Z</time>
      </trkpt>
      <trkpt lat="48.39193" lon="2.73454">
        <ele>97.4</ele>
        <time>2018-04-15T13:57:35Z</time>
      </trkpt>
      <trkpt lat="48.39196" lon="2.73449">
        <ele>97.4</ele>
        <time>2018-04-15T13:57:36Z</time>
      </trkpt>
      <trkpt lat="48.39198" lon="2.73444">
        <ele>97.5</ele>
        <time>2018-04-15T13:57:37Z</time>
      </trkpt>
      <trkpt lat="48.39201" lon="2.73437">
        <ele>97.5</ele>
        <time>2018-04-15T13:57:38Z</time>
      </trkpt>
      <trkpt lat="48.39204" lon="2.73433">
        <ele>97.6</ele>
        <time>2018-04-15T13:57:39Z</time>
      </trkpt>
      <trkpt lat="48.39208" lon="2.73427">
        <ele>97.7</ele>
        <time>2018-04-15T13:57:40Z</time>
      </trkpt>
      <trkpt lat="48.39212" lon="2.73422">
        <ele>97.8</ele>
        <time>2018-04-15T13:57:41Z</time>
      </trkpt>
      <trkpt lat="48.39215" lon="2.73418">
        <ele>97.9</ele>
        <time>2018-04-15T13:57:42Z</time>
      </trkpt>
      <trkpt lat="48.39218" lon="2.73413">
        <ele>98</ele>
        <time>2018-04-15T13:57:43Z</time>
      </trkpt>
      <trkpt lat="48.39222" lon="2.7341">
        <ele>98.1</ele>
        <time>2018-04-15T13:57:44Z</time>
      </trkpt>
      <trkpt lat="48.39225" lon="2.73406">
        <ele>98.2</ele>
        <time>2018-04-15T13:57:45Z</time>
      </trkpt>
      <trkpt lat="48.39227" lon="2.73403">
        <ele>98.3</ele>
        <time>2018-04-15T13:57:46Z</time>
      </trkpt>
      <trkpt lat="48.39229" lon="2.734">
        <ele>98.5</ele>
        <time>2018-04-15T13:57:47Z</time>
      </trkpt>
      <trkpt lat="48.39231" lon="2.73397">
        <ele>98.6</ele>
        <time>2018-04-15T13:57:48Z</time>
      </trkpt>
      <trkpt lat="48.39236" lon="2.7339">
        <ele>98.9</ele>
        <time>2018-04-15T13:57:49Z</time>
      </trkpt>
      <trkpt lat="48.3924" lon="2.73384">
        <ele>98.8</ele>
        <time>2018-04-15T13:57:50Z</time>
      </trkpt>
      <trkpt lat="48.39244" lon="2.7338">
        <ele>98.6</ele>
        <time>2018-04-15T13:57:51Z</time>
      </trkpt>
      <trkpt lat="48.39246" lon="2.73377">
        <ele>98.4</ele>
        <time>2018-04-15T13:57:52Z</time>
      </trkpt>
      <trkpt lat="48.39252" lon="2.7337">
        <ele>98.1</ele>
        <time>2018-04-15T13:57:54Z</time>
      </trkpt>
      <trkpt lat="48.39255" lon="2.73366">
        <ele>98</ele>
        <time>2018-04-15T13:57:55Z</time>
      </trkpt>
      <trkpt lat="48.39258" lon="2.7336">
        <ele>97.8</ele>
        <time>2018-04-15T13:57:56Z</time>
      </trkpt>
      <trkpt lat="48.39261" lon="2.73356">
        <ele>97.7</ele>
        <time>2018-04-15T13:57:57Z</time>
      </trkpt>
      <trkpt lat="48.39264" lon="2.73352">
        <ele>97.6</ele>
        <time>2018-04-15T13:57:58Z</time>
      </trkpt>
      <trkpt lat="48.39267" lon="2.73348">
        <ele>97.5</ele>
        <time>2018-04-15T13:57:59Z</time>
      </trkpt>
      <trkpt lat="48.3927" lon="2.73343">
        <ele>97.3</ele>
        <time>2018-04-15T13:58:00Z</time>
      </trkpt>
      <trkpt lat="48.39274" lon="2.73339">
        <ele>97.2</ele>
        <time>2018-04-15T13:58:01Z</time>
      </trkpt>
      <trkpt lat="48.39278" lon="2.73333">
        <ele>96.9</ele>
        <time>2018-04-15T13:58:02Z</time>
      </trkpt>
      <trkpt lat="48.39283" lon="2.73327">
        <ele>96.6</ele>
        <time>2018-04-15T13:58:03Z</time>
      </trkpt>
      <trkpt lat="48.39287" lon="2.73321">
        <ele>96.2</ele>
        <time>2018-04-15T13:58:04Z</time>
      </trkpt>
      <trkpt lat="48.39291" lon="2.73316">
        <ele>96</ele>
        <time>2018-04-15T13:58:05Z</time>
      </trkpt>
      <trkpt lat="48.39295" lon="2.73311">
        <ele>95.6</ele>
        <time>2018-04-15T13:58:06Z</time>
      </trkpt>
      <trkpt lat="48.39298" lon="2.73307">
        <ele>95.5</ele>
        <time>2018-04-15T13:58:07Z</time>
      </trkpt>
      <trkpt lat="48.39302" lon="2.73303">
        <ele>95.3</ele>
        <time>2018-04-15T13:58:08Z</time>
      </trkpt>
      <trkpt lat="48.39306" lon="2.73298">
        <ele>95.2</ele>
        <time>2018-04-15T13:58:09Z</time>
      </trkpt>
      <trkpt lat="48.39309" lon="2.73294">
        <ele>95</ele>
        <time>2018-04-15T13:58:10Z</time>
      </trkpt>
      <trkpt lat="48.39313" lon="2.73288">
        <ele>94.8</ele>
        <time>2018-04-15T13:58:11Z</time>
      </trkpt>
      <trkpt lat="48.39317" lon="2.73284">
        <ele>94.7</ele>
        <time>2018-04-15T13:58:12Z</time>
      </trkpt>
      <trkpt lat="48.3932" lon="2.73279">
        <ele>94.5</ele>
        <time>2018-04-15T13:58:13Z</time>
      </trkpt>
      <trkpt lat="48.39323" lon="2.73275">
        <ele>94.4</ele>
        <time>2018-04-15T13:58:14Z</time>
      </trkpt>
      <trkpt lat="48.39325" lon="2.73269">
        <ele>94.2</ele>
        <time>2018-04-15T13:58:15Z</time>
      </trkpt>
      <trkpt lat="48.39329" lon="2.73263">
        <ele>94</ele>
        <time>2018-04-15T13:58:17Z</time>
      </trkpt>
      <trkpt lat="48.39332" lon="2.73257">
        <ele>93.8</ele>
        <time>2018-04-15T13:58:18Z</time>
      </trkpt>
      <trkpt lat="48.39336" lon="2.73252">
        <ele>93.7</ele>
        <time>2018-04-15T13:58:19Z</time>
      </trkpt>
      <trkpt lat="48.3934" lon="2.73247">
        <ele>93.6</ele>
        <time>2018-04-15T13:58:20Z</time>
      </trkpt>
      <trkpt lat="48.39343" lon="2.73241">
        <ele>93.5</ele>
        <time>2018-04-15T13:58:21Z</time>
      </trkpt>
      <trkpt lat="48.39346" lon="2.73237">
        <ele>93.4</ele>
        <time>2018-04-15T13:58:22Z</time>
      </trkpt>
      <trkpt lat="48.39349" lon="2.73232">
        <ele>93.3</ele>
        <time>2018-04-15T13:58:23Z</time>
      </trkpt>
      <trkpt lat="48.39352" lon="2.73227">
        <ele>93.2</ele>
        <time>2018-04-15T13:58:24Z</time>
      </trkpt>
      <trkpt lat="48.39355" lon="2.7322">
        <ele>93</ele>
        <time>2018-04-15T13:58:25Z</time>
      </trkpt>
      <trkpt lat="48.39358" lon="2.73215">
        <ele>92.8</ele>
        <time>2018-04-15T13:58:26Z</time>
      </trkpt>
      <trkpt lat="48.3936" lon="2.73212">
        <ele>92.7</ele>
        <time>2018-04-15T13:58:27Z</time>
      </trkpt>
      <trkpt lat="48.39363" lon="2.73207">
        <ele>92.6</ele>
        <time>2018-04-15T13:58:28Z</time>
      </trkpt>
      <trkpt lat="48.39366" lon="2.73203">
        <ele>92.4</ele>
        <time>2018-04-15T13:58:29Z</time>
      </trkpt>
      <trkpt lat="48.39367" lon="2.73198">
        <ele>92.3</ele>
        <time>2018-04-15T13:58:30Z</time>
      </trkpt>
      <trkpt lat="48.39369" lon="2.73194">
        <ele>92.2</ele>
        <time>2018-04-15T13:58:31Z</time>
      </trkpt>
      <trkpt lat="48.39371" lon="2.7319">
        <ele>92.1</ele>
        <time>2018-04-15T13:58:32Z</time>
      </trkpt>
      <trkpt lat="48.39372" lon="2.73184">
        <ele>92.2</ele>
        <time>2018-04-15T13:58:33Z</time>
      </trkpt>
      <trkpt lat="48.39373" lon="2.73176">
        <ele>92.5</ele>
        <time>2018-04-15T13:58:34Z</time>
      </trkpt>
      <trkpt lat="48.39373" lon="2.73171">
        <ele>92.7</ele>
        <time>2018-04-15T13:58:35Z</time>
      </trkpt>
      <trkpt lat="48.39374" lon="2.73165">
        <ele>93</ele>
        <time>2018-04-15T13:58:36Z</time>
      </trkpt>
      <trkpt lat="48.39375" lon="2.73161">
        <ele>93.2</ele>
        <time>2018-04-15T13:58:37Z</time>
      </trkpt>
      <trkpt lat="48.39376" lon="2.73156">
        <ele>93.4</ele>
        <time>2018-04-15T13:58:38Z</time>
      </trkpt>
      <trkpt lat="48.39377" lon="2.7315">
        <ele>93.6</ele>
        <time>2018-04-15T13:58:39Z</time>
      </trkpt>
      <trkpt lat="48.39377" lon="2.73142">
        <ele>93.8</ele>
        <time>2018-04-15T13:58:40Z</time>
      </trkpt>
      <trkpt lat="48.39378" lon="2.73134">
        <ele>94.1</ele>
        <time>2018-04-15T13:58:42Z</time>
      </trkpt>
      <trkpt lat="48.39379" lon="2.73129">
        <ele>94.2</ele>
        <time>2018-04-15T13:58:43Z</time>
      </trkpt>
      <trkpt lat="48.3938" lon="2.73123">
        <ele>94.4</ele>
        <time>2018-04-15T13:58:44Z</time>
      </trkpt>
      <trkpt lat="48.39381" lon="2.73118">
        <ele>94.6</ele>
        <time>2018-04-15T13:58:45Z</time>
      </trkpt>
      <trkpt lat="48.39382" lon="2.73112">
        <ele>94.8</ele>
        <time>2018-04-15T13:58:46Z</time>
      </trkpt>
      <trkpt lat="48.39384" lon="2.73107">
        <ele>94.9</ele>
        <time>2018-04-15T13:58:47Z</time>
      </trkpt>
      <trkpt lat="48.39386" lon="2.73098">
        <ele>95.2</ele>
        <time>2018-04-15T13:58:48Z</time>
      </trkpt>
      <trkpt lat="48.39387" lon="2.73091">
        <ele>95.4</ele>
        <time>2018-04-15T13:58:49Z</time>
      </trkpt>
      <trkpt lat="48.39387" lon="2.73082">
        <ele>95.7</ele>
        <time>2018-04-15T13:58:50Z</time>
      </trkpt>
      <trkpt lat="48.39387" lon="2.73076">
        <ele>95.9</ele>
        <time>2018-04-15T13:58:51Z</time>
      </trkpt>
      <trkpt lat="48.39388" lon="2.73071">
        <ele>96</ele>
        <time>2018-04-15T13:58:52Z</time>
      </trkpt>
      <trkpt lat="48.39388" lon="2.73065">
        <ele>96.2</ele>
        <time>2018-04-15T13:58:53Z</time>
      </trkpt>
      <trkpt lat="48.39388" lon="2.7306">
        <ele>96.3</ele>
        <time>2018-04-15T13:58:54Z</time>
      </trkpt>
      <trkpt lat="48.39389" lon="2.73054">
        <ele>96.5</ele>
        <time>2018-04-15T13:58:55Z</time>
      </trkpt>
      <trkpt lat="48.39389" lon="2.73046">
        <ele>96.7</ele>
        <time>2018-04-15T13:58:56Z</time>
      </trkpt>
      <trkpt lat="48.3939" lon="2.73039">
        <ele>96.9</ele>
        <time>2018-04-15T13:58:57Z</time>
      </trkpt>
      <trkpt lat="48.39391" lon="2.73032">
        <ele>97.1</ele>
        <time>2018-04-15T13:58:58Z</time>
      </trkpt>
      <trkpt lat="48.39392" lon="2.73026">
        <ele>97.2</ele>
        <time>2018-04-15T13:58:59Z</time>
      </trkpt>
      <trkpt lat="48.39392" lon="2.73022">
        <ele>97.3</ele>
        <time>2018-04-15T13:59:00Z</time>
      </trkpt>
      <trkpt lat="48.39393" lon="2.73016">
        <ele>97.5</ele>
        <time>2018-04-15T13:59:01Z</time>
      </trkpt>
      <trkpt lat="48.39395" lon="2.73007">
        <ele>97.7</ele>
        <time>2018-04-15T13:59:02Z</time>
      </trkpt>
      <trkpt lat="48.39396" lon="2.73">
        <ele>97.8</ele>
        <time>2018-04-15T13:59:03Z</time>
      </trkpt>
      <trkpt lat="48.39397" lon="2.72994">
        <ele>98</ele>
        <time>2018-04-15T13:59:04Z</time>
      </trkpt>
      <trkpt lat="48.39397" lon="2.72989">
        <ele>98.1</ele>
        <time>2018-04-15T13:59:05Z</time>
      </trkpt>
      <trkpt lat="48.39397" lon="2.72983">
        <ele>98.3</ele>
        <time>2018-04-15T13:59:06Z</time>
      </trkpt>
      <trkpt lat="48.39397" lon="2.72978">
        <ele>98.4</ele>
        <time>2018-04-15T13:59:07Z</time>
      </trkpt>
      <trkpt lat="48.39397" lon="2.72973">
        <ele>98.5</ele>
        <time>2018-04-15T13:59:08Z</time>
      </trkpt>
      <trkpt lat="48.39398" lon="2.72965">
        <ele>98.7</ele>
        <time>2018-04-15T13:59:10Z</time>
      </trkpt>
      <trkpt lat="48.39399" lon="2.72961">
        <ele>98.8</ele>
        <time>2018-04-15T13:59:11Z</time>
      </trkpt>
      <trkpt lat="48.39399" lon="2.72954">
        <ele>98.9</ele>
        <time>2018-04-15T13:59:12Z</time>
      </trkpt>
      <trkpt lat="48.39399" lon="2.72947">
        <ele>99.1</ele>
        <time>2018-04-15T13:59:13Z</time>
      </trkpt>
      <trkpt lat="48.394" lon="2.72942">
        <ele>99.2</ele>
        <time>2018-04-15T13:59:14Z</time>
      </trkpt>
      <trkpt lat="48.39401" lon="2.72938">
        <ele>99.4</ele>
        <time>2018-04-15T13:59:15Z</time>
      </trkpt>
      <trkpt lat="48.39405" lon="2.7293">
        <ele>99.6</ele>
        <time>2018-04-15T13:59:17Z</time>
      </trkpt>
      <trkpt lat="48.39408" lon="2.72925">
        <ele>99.8</ele>
        <time>2018-04-15T13:59:18Z</time>
      </trkpt>
      <trkpt lat="48.39411" lon="2.7292">
        <ele>99.9</ele>
        <time>2018-04-15T13:59:19Z</time>
      </trkpt>
      <trkpt lat="48.39413" lon="2.72916">
        <ele>100.1</ele>
        <time>2018-04-15T13:59:20Z</time>
      </trkpt>
      <trkpt lat="48.39416" lon="2.72911">
        <ele>100.2</ele>
        <time>2018-04-15T13:59:21Z</time>
      </trkpt>
      <trkpt lat="48.39418" lon="2.72906">
        <ele>100.4</ele>
        <time>2018-04-15T13:59:22Z</time>
      </trkpt>
      <trkpt lat="48.39421" lon="2.72902">
        <ele>100.5</ele>
        <time>2018-04-15T13:59:23Z</time>
      </trkpt>
      <trkpt lat="48.39424" lon="2.72899">
        <ele>100.6</ele>
        <time>2018-04-15T13:59:24Z</time>
      </trkpt>
      <trkpt lat="48.39426" lon="2.72894">
        <ele>100.8</ele>
        <time>2018-04-15T13:59:25Z</time>
      </trkpt>
      <trkpt lat="48.39428" lon="2.7289">
        <ele>100.9</ele>
        <time>2018-04-15T13:59:26Z</time>
      </trkpt>
      <trkpt lat="48.39431" lon="2.72887">
        <ele>101</ele>
        <time>2018-04-15T13:59:27Z</time>
      </trkpt>
      <trkpt lat="48.39433" lon="2.72883">
        <ele>99.9</ele>
        <time>2018-04-15T13:59:28Z</time>
      </trkpt>
      <trkpt lat="48.39436" lon="2.72878">
        <ele>99.8</ele>
        <time>2018-04-15T13:59:29Z</time>
      </trkpt>
      <trkpt lat="48.3944" lon="2.72874">
        <ele>99.7</ele>
        <time>2018-04-15T13:59:30Z</time>
      </trkpt>
      <trkpt lat="48.39445" lon="2.72868">
        <ele>99.4</ele>
        <time>2018-04-15T13:59:31Z</time>
      </trkpt>
      <trkpt lat="48.39448" lon="2.72864">
        <ele>99.3</ele>
        <time>2018-04-15T13:59:32Z</time>
      </trkpt>
      <trkpt lat="48.39449" lon="2.7286">
        <ele>99.2</ele>
        <time>2018-04-15T13:59:33Z</time>
      </trkpt>
      <trkpt lat="48.39453" lon="2.72853">
        <ele>98.9</ele>
        <time>2018-04-15T13:59:35Z</time>
      </trkpt>
      <trkpt lat="48.39456" lon="2.72849">
        <ele>98.8</ele>
        <time>2018-04-15T13:59:36Z</time>
      </trkpt>
      <trkpt lat="48.3946" lon="2.72843">
        <ele>98.6</ele>
        <time>2018-04-15T13:59:37Z</time>
      </trkpt>
      <trkpt lat="48.39463" lon="2.72838">
        <ele>98.4</ele>
        <time>2018-04-15T13:59:38Z</time>
      </trkpt>
      <trkpt lat="48.39466" lon="2.72833">
        <ele>98.3</ele>
        <time>2018-04-15T13:59:39Z</time>
      </trkpt>
      <trkpt lat="48.39469" lon="2.72829">
        <ele>98</ele>
        <time>2018-04-15T13:59:40Z</time>
      </trkpt>
      <trkpt lat="48.39473" lon="2.72825">
        <ele>97.7</ele>
        <time>2018-04-15T13:59:41Z</time>
      </trkpt>
      <trkpt lat="48.39476" lon="2.7282">
        <ele>97.4</ele>
        <time>2018-04-15T13:59:42Z</time>
      </trkpt>
      <trkpt lat="48.39479" lon="2.72815">
        <ele>97.1</ele>
        <time>2018-04-15T13:59:43Z</time>
      </trkpt>
      <trkpt lat="48.39482" lon="2.7281">
        <ele>96.9</ele>
        <time>2018-04-15T13:59:44Z</time>
      </trkpt>
      <trkpt lat="48.39485" lon="2.72806">
        <ele>96.7</ele>
        <time>2018-04-15T13:59:45Z</time>
      </trkpt>
      <trkpt lat="48.39487" lon="2.72802">
        <ele>96.5</ele>
        <time>2018-04-15T13:59:46Z</time>
      </trkpt>
      <trkpt lat="48.3949" lon="2.72799">
        <ele>96.3</ele>
        <time>2018-04-15T13:59:47Z</time>
      </trkpt>
      <trkpt lat="48.39494" lon="2.72793">
        <ele>96</ele>
        <time>2018-04-15T13:59:48Z</time>
      </trkpt>
      <trkpt lat="48.39497" lon="2.72789">
        <ele>95.7</ele>
        <time>2018-04-15T13:59:49Z</time>
      </trkpt>
      <trkpt lat="48.39501" lon="2.72784">
        <ele>95.1</ele>
        <time>2018-04-15T13:59:50Z</time>
      </trkpt>
      <trkpt lat="48.39504" lon="2.7278">
        <ele>95</ele>
        <time>2018-04-15T13:59:51Z</time>
      </trkpt>
      <trkpt lat="48.39507" lon="2.72774">
        <ele>95</ele>
        <time>2018-04-15T13:59:52Z</time>
      </trkpt>
      <trkpt lat="48.3951" lon="2.7277">
        <ele>95.1</ele>
        <time>2018-04-15T13:59:53Z</time>
      </trkpt>
      <trkpt lat="48.39514" lon="2.7277">
        <ele>95.1</ele>
        <time>2018-04-15T13:59:54Z</time>
      </trkpt>
      <trkpt lat="48.39517" lon="2.7277">
        <ele>95.1</ele>
        <time>2018-04-15T13:59:55Z</time>
      </trkpt>
      <trkpt lat="48.39521" lon="2.7277">
        <ele>95.2</ele>
        <time>2018-04-15T13:59:56Z</time>
      </trkpt>
      <trkpt lat="48.39524" lon="2.7277">
        <ele>95.2</ele>
        <time>2018-04-15T13:59:57Z</time>
      </trkpt>
      <trkpt lat="48.39528" lon="2.72772">
        <ele>95.2</ele>
        <time>2018-04-15T13:59:58Z</time>
      </trkpt>
      <trkpt lat="48.39532" lon="2.72773">
        <ele>95.3</ele>
        <time>2018-04-15T13:59:59Z</time>
      </trkpt>
      <trkpt lat="48.39536" lon="2.72772">
        <ele>95.3</ele>
        <time>2018-04-15T14:00:00Z</time>
      </trkpt>
      <trkpt lat="48.39539" lon="2.7277">
        <ele>95.3</ele>
        <time>2018-04-15T14:00:01Z</time>
      </trkpt>
      <trkpt lat="48.39543" lon="2.72767">
        <ele>95.3</ele>
        <time>2018-04-15T14:00:02Z</time>
      </trkpt>
      <trkpt lat="48.39546" lon="2.72767">
        <ele>95.4</ele>
        <time>2018-04-15T14:00:03Z</time>
      </trkpt>
      <trkpt lat="48.3955" lon="2.72766">
        <ele>95.4</ele>
        <time>2018-04-15T14:00:04Z</time>
      </trkpt>
      <trkpt lat="48.39554" lon="2.72764">
        <ele>95.5</ele>
        <time>2018-04-15T14:00:05Z</time>
      </trkpt>
      <trkpt lat="48.39558" lon="2.72764">
        <ele>95.5</ele>
        <time>2018-04-15T14:00:06Z</time>
      </trkpt>
      <trkpt lat="48.39562" lon="2.72763">
        <ele>95.5</ele>
        <time>2018-04-15T14:00:07Z</time>
      </trkpt>
      <trkpt lat="48.39564" lon="2.72762">
        <ele>95.5</ele>
        <time>2018-04-15T14:00:08Z</time>
      </trkpt>
      <trkpt lat="48.39568" lon="2.72759">
        <ele>95.5</ele>
        <time>2018-04-15T14:00:09Z</time>
      </trkpt>
      <trkpt lat="48.39571" lon="2.72758">
        <ele>95.6</ele>
        <time>2018-04-15T14:00:10Z</time>
      </trkpt>
      <trkpt lat="48.39574" lon="2.72756">
        <ele>95.6</ele>
        <time>2018-04-15T14:00:11Z</time>
      </trkpt>
      <trkpt lat="48.39577" lon="2.72756">
        <ele>95.6</ele>
        <time>2018-04-15T14:00:12Z</time>
      </trkpt>
      <trkpt lat="48.3958" lon="2.72755">
        <ele>95.6</ele>
        <time>2018-04-15T14:00:13Z</time>
      </trkpt>
      <trkpt lat="48.39584" lon="2.72752">
        <ele>95.6</ele>
        <time>2018-04-15T14:00:15Z</time>
      </trkpt>
      <trkpt lat="48.39589" lon="2.72749">
        <ele>95.7</ele>
        <time>2018-04-15T14:00:17Z</time>
      </trkpt>
      <trkpt lat="48.39594" lon="2.72748">
        <ele>95.7</ele>
        <time>2018-04-15T14:00:19Z</time>
      </trkpt>
      <trkpt lat="48.39596" lon="2.72747">
        <ele>95.7</ele>
        <time>2018-04-15T14:00:20Z</time>
      </trkpt>
      <trkpt lat="48.39599" lon="2.72747">
        <ele>95.7</ele>
        <time>2018-04-15T14:00:26Z</time>
      </trkpt>
      <trkpt lat="48.39599" lon="2.72751">
        <ele>95.7</ele>
        <time>2018-04-15T14:01:30Z</time>
      </trkpt>
      <trkpt lat="48.39597" lon="2.72752">
        <ele>95.7</ele>
        <time>2018-04-15T14:03:55Z</time>
      </trkpt>
      <trkpt lat="48.396" lon="2.72749">
        <ele>95.8</ele>
        <time>2018-04-15T14:05:18Z</time>
      </trkpt>
      <trkpt lat="48.39604" lon="2.72745">
        <ele>95.8</ele>
        <time>2018-04-15T14:05:21Z</time>
      </trkpt>
      <trkpt lat="48.39607" lon="2.72742">
        <ele>95.9</ele>
        <time>2018-04-15T14:05:23Z</time>
      </trkpt>
      <trkpt lat="48.3961" lon="2.72739">
        <ele>95.9</ele>
        <time>2018-04-15T14:05:26Z</time>
      </trkpt>
      <trkpt lat="48.39613" lon="2.72736">
        <ele>95.9</ele>
        <time>2018-04-15T14:05:28Z</time>
      </trkpt>
      <trkpt lat="48.39617" lon="2.72731">
        <ele>96</ele>
        <time>2018-04-15T14:05:30Z</time>
      </trkpt>
      <trkpt lat="48.3962" lon="2.72728">
        <ele>96</ele>
        <time>2018-04-15T14:05:31Z</time>
      </trkpt>
      <trkpt lat="48.39624" lon="2.72725">
        <ele>96</ele>
        <time>2018-04-15T14:05:32Z</time>
      </trkpt>
      <trkpt lat="48.39627" lon="2.72722">
        <ele>95.9</ele>
        <time>2018-04-15T14:05:33Z</time>
      </trkpt>
      <trkpt lat="48.3963" lon="2.72719">
        <ele>95.9</ele>
        <time>2018-04-15T14:05:34Z</time>
      </trkpt>
      <trkpt lat="48.39633" lon="2.72716">
        <ele>95.9</ele>
        <time>2018-04-15T14:05:36Z</time>
      </trkpt>
      <trkpt lat="48.39636" lon="2.72713">
        <ele>95.8</ele>
        <time>2018-04-15T14:05:39Z</time>
      </trkpt>
      <trkpt lat="48.3964" lon="2.7271">
        <ele>95.8</ele>
        <time>2018-04-15T14:05:41Z</time>
      </trkpt>
      <trkpt lat="48.39643" lon="2.72709">
        <ele>95.8</ele>
        <time>2018-04-15T14:05:42Z</time>
      </trkpt>
      <trkpt lat="48.39647" lon="2.72708">
        <ele>95.9</ele>
        <time>2018-04-15T14:05:43Z</time>
      </trkpt>
      <trkpt lat="48.39651" lon="2.72705">
        <ele>95.9</ele>
        <time>2018-04-15T14:05:44Z</time>
      </trkpt>
      <trkpt lat="48.39654" lon="2.72702">
        <ele>95.9</ele>
        <time>2018-04-15T14:05:45Z</time>
      </trkpt>
      <trkpt lat="48.39658" lon="2.72699">
        <ele>96</ele>
        <time>2018-04-15T14:05:46Z</time>
      </trkpt>
      <trkpt lat="48.39662" lon="2.72695">
        <ele>96</ele>
        <time>2018-04-15T14:05:47Z</time>
      </trkpt>
      <trkpt lat="48.39666" lon="2.72692">
        <ele>96</ele>
        <time>2018-04-15T14:05:48Z</time>
      </trkpt>
      <trkpt lat="48.39671" lon="2.72688">
        <ele>95.3</ele>
        <time>2018-04-15T14:05:49Z</time>
      </trkpt>
      <trkpt lat="48.39676" lon="2.72683">
        <ele>94.3</ele>
        <time>2018-04-15T14:05:50Z</time>
      </trkpt>
      <trkpt lat="48.39681" lon="2.72678">
        <ele>93.3</ele>
        <time>2018-04-15T14:05:51Z</time>
      </trkpt>
      <trkpt lat="48.39685" lon="2.72673">
        <ele>92.5</ele>
        <time>2018-04-15T14:05:52Z</time>
      </trkpt>
      <trkpt lat="48.39689" lon="2.72669">
        <ele>91.7</ele>
        <time>2018-04-15T14:05:53Z</time>
      </trkpt>
      <trkpt lat="48.39694" lon="2.72665">
        <ele>90.9</ele>
        <time>2018-04-15T14:05:54Z</time>
      </trkpt>
      <trkpt lat="48.39698" lon="2.7266">
        <ele>90</ele>
        <time>2018-04-15T14:05:55Z</time>
      </trkpt>
      <trkpt lat="48.39702" lon="2.72655">
        <ele>89.1</ele>
        <time>2018-04-15T14:05:56Z</time>
      </trkpt>
      <trkpt lat="48.39707" lon="2.72651">
        <ele>88.5</ele>
        <time>2018-04-15T14:05:57Z</time>
      </trkpt>
      <trkpt lat="48.39711" lon="2.72647">
        <ele>87.9</ele>
        <time>2018-04-15T14:05:58Z</time>
      </trkpt>
      <trkpt lat="48.39716" lon="2.72642">
        <ele>87.2</ele>
        <time>2018-04-15T14:05:59Z</time>
      </trkpt>
      <trkpt lat="48.39721" lon="2.72637">
        <ele>86.5</ele>
        <time>2018-04-15T14:06:00Z</time>
      </trkpt>
      <trkpt lat="48.39726" lon="2.72632">
        <ele>85.8</ele>
        <time>2018-04-15T14:06:01Z</time>
      </trkpt>
      <trkpt lat="48.39732" lon="2.72626">
        <ele>85</ele>
        <time>2018-04-15T14:06:02Z</time>
      </trkpt>
      <trkpt lat="48.39738" lon="2.72621">
        <ele>84.2</ele>
        <time>2018-04-15T14:06:03Z</time>
      </trkpt>
      <trkpt lat="48.39743" lon="2.72615">
        <ele>83.4</ele>
        <time>2018-04-15T14:06:04Z</time>
      </trkpt>
      <trkpt lat="48.39749" lon="2.72609">
        <ele>82.6</ele>
        <time>2018-04-15T14:06:05Z</time>
      </trkpt>
      <trkpt lat="48.39755" lon="2.72603">
        <ele>82</ele>
        <time>2018-04-15T14:06:06Z</time>
      </trkpt>
      <trkpt lat="48.39761" lon="2.72596">
        <ele>82</ele>
        <time>2018-04-15T14:06:07Z</time>
      </trkpt>
      <trkpt lat="48.39766" lon="2.72591">
        <ele>82</ele>
        <time>2018-04-15T14:06:08Z</time>
      </trkpt>
      <trkpt lat="48.39772" lon="2.72585">
        <ele>82</ele>
        <time>2018-04-15T14:06:09Z</time>
      </trkpt>
      <trkpt lat="48.39777" lon="2.7258">
        <ele>82</ele>
        <time>2018-04-15T14:06:10Z</time>
      </trkpt>
      <trkpt lat="48.39782" lon="2.72574">
        <ele>82</ele>
        <time>2018-04-15T14:06:11Z</time>
      </trkpt>
      <trkpt lat="48.39788" lon="2.72569">
        <ele>82</ele>
        <time>2018-04-15T14:06:12Z</time>
      </trkpt>
      <trkpt lat="48.39794" lon="2.72563">
        <ele>82</ele>
        <time>2018-04-15T14:06:13Z</time>
      </trkpt>
      <trkpt lat="48.39799" lon="2.72558">
        <ele>82</ele>
        <time>2018-04-15T14:06:14Z</time>
      </trkpt>
      <trkpt lat="48.39805" lon="2.72552">
        <ele>81.9</ele>
        <time>2018-04-15T14:06:15Z</time>
      </trkpt>
      <trkpt lat="48.39811" lon="2.72546">
        <ele>81.9</ele>
        <time>2018-04-15T14:06:16Z</time>
      </trkpt>
      <trkpt lat="48.39816" lon="2.72541">
        <ele>81.9</ele>
        <time>2018-04-15T14:06:17Z</time>
      </trkpt>
      <trkpt lat="48.39821" lon="2.72536">
        <ele>81.8</ele>
        <time>2018-04-15T14:06:18Z</time>
      </trkpt>
      <trkpt lat="48.39826" lon="2.72531">
        <ele>81.7</ele>
        <time>2018-04-15T14:06:19Z</time>
      </trkpt>
      <trkpt lat="48.39831" lon="2.72526">
        <ele>81.5</ele>
        <time>2018-04-15T14:06:20Z</time>
      </trkpt>
      <trkpt lat="48.39836" lon="2.72521">
        <ele>81.4</ele>
        <time>2018-04-15T14:06:21Z</time>
      </trkpt>
      <trkpt lat="48.39841" lon="2.72515">
        <ele>81.4</ele>
        <time>2018-04-15T14:06:22Z</time>
      </trkpt>
      <trkpt lat="48.39846" lon="2.7251">
        <ele>81.4</ele>
        <time>2018-04-15T14:06:23Z</time>
      </trkpt>
      <trkpt lat="48.39851" lon="2.72505">
        <ele>81.4</ele>
        <time>2018-04-15T14:06:24Z</time>
      </trkpt>
      <trkpt lat="48.39856" lon="2.725">
        <ele>81.4</ele>
        <time>2018-04-15T14:06:25Z</time>
      </trkpt>
      <trkpt lat="48.39861" lon="2.72496">
        <ele>81.4</ele>
        <time>2018-04-15T14:06:26Z</time>
      </trkpt>
      <trkpt lat="48.39867" lon="2.72491">
        <ele>81.4</ele>
        <time>2018-04-15T14:06:27Z</time>
      </trkpt>
      <trkpt lat="48.39872" lon="2.72486">
        <ele>81.4</ele>
        <time>2018-04-15T14:06:28Z</time>
      </trkpt>
      <trkpt lat="48.39877" lon="2.72481">
        <ele>81.5</ele>
        <time>2018-04-15T14:06:29Z</time>
      </trkpt>
      <trkpt lat="48.39882" lon="2.72477">
        <ele>81.6</ele>
        <time>2018-04-15T14:06:30Z</time>
      </trkpt>
      <trkpt lat="48.39887" lon="2.72472">
        <ele>81.9</ele>
        <time>2018-04-15T14:06:31Z</time>
      </trkpt>
      <trkpt lat="48.39892" lon="2.72467">
        <ele>82.3</ele>
        <time>2018-04-15T14:06:32Z</time>
      </trkpt>
      <trkpt lat="48.39897" lon="2.72461">
        <ele>82.9</ele>
        <time>2018-04-15T14:06:33Z</time>
      </trkpt>
      <trkpt lat="48.39902" lon="2.72456">
        <ele>83</ele>
        <time>2018-04-15T14:06:34Z</time>
      </trkpt>
      <trkpt lat="48.39907" lon="2.72452">
        <ele>83</ele>
        <time>2018-04-15T14:06:35Z</time>
      </trkpt>
      <trkpt lat="48.39912" lon="2.72447">
        <ele>83.1</ele>
        <time>2018-04-15T14:06:36Z</time>
      </trkpt>
      <trkpt lat="48.39917" lon="2.72441">
        <ele>83.1</ele>
        <time>2018-04-15T14:06:37Z</time>
      </trkpt>
      <trkpt lat="48.39922" lon="2.72437">
        <ele>83.1</ele>
        <time>2018-04-15T14:06:38Z</time>
      </trkpt>
      <trkpt lat="48.39926" lon="2.72431">
        <ele>83.1</ele>
        <time>2018-04-15T14:06:39Z</time>
      </trkpt>
      <trkpt lat="48.39931" lon="2.72425">
        <ele>83.1</ele>
        <time>2018-04-15T14:06:40Z</time>
      </trkpt>
      <trkpt lat="48.39935" lon="2.7242">
        <ele>83.2</ele>
        <time>2018-04-15T14:06:41Z</time>
      </trkpt>
      <trkpt lat="48.39939" lon="2.72415">
        <ele>83.2</ele>
        <time>2018-04-15T14:06:42Z</time>
      </trkpt>
      <trkpt lat="48.39944" lon="2.72409">
        <ele>83.1</ele>
        <time>2018-04-15T14:06:43Z</time>
      </trkpt>
      <trkpt lat="48.39949" lon="2.72404">
        <ele>83.1</ele>
        <time>2018-04-15T14:06:44Z</time>
      </trkpt>
      <trkpt lat="48.39954" lon="2.72398">
        <ele>83.1</ele>
        <time>2018-04-15T14:06:45Z</time>
      </trkpt>
      <trkpt lat="48.39958" lon="2.72394">
        <ele>83.1</ele>
        <time>2018-04-15T14:06:46Z</time>
      </trkpt>
      <trkpt lat="48.39963" lon="2.72389">
        <ele>83</ele>
        <time>2018-04-15T14:06:47Z</time>
      </trkpt>
      <trkpt lat="48.39968" lon="2.72384">
        <ele>83</ele>
        <time>2018-04-15T14:06:48Z</time>
      </trkpt>
      <trkpt lat="48.39972" lon="2.72379">
        <ele>82.9</ele>
        <time>2018-04-15T14:06:49Z</time>
      </trkpt>
      <trkpt lat="48.39977" lon="2.72374">
        <ele>82.7</ele>
        <time>2018-04-15T14:06:50Z</time>
      </trkpt>
      <trkpt lat="48.39981" lon="2.72369">
        <ele>82.5</ele>
        <time>2018-04-15T14:06:51Z</time>
      </trkpt>
      <trkpt lat="48.39986" lon="2.72365">
        <ele>82.2</ele>
        <time>2018-04-15T14:06:52Z</time>
      </trkpt>
      <trkpt lat="48.39991" lon="2.72359">
        <ele>82</ele>
        <time>2018-04-15T14:06:53Z</time>
      </trkpt>
      <trkpt lat="48.39996" lon="2.72355">
        <ele>81.8</ele>
        <time>2018-04-15T14:06:54Z</time>
      </trkpt>
      <trkpt lat="48.4" lon="2.7235">
        <ele>81.6</ele>
        <time>2018-04-15T14:06:55Z</time>
      </trkpt>
      <trkpt lat="48.40005" lon="2.72346">
        <ele>81.4</ele>
        <time>2018-04-15T14:06:56Z</time>
      </trkpt>
      <trkpt lat="48.40009" lon="2.72342">
        <ele>81.2</ele>
        <time>2018-04-15T14:06:57Z</time>
      </trkpt>
      <trkpt lat="48.40014" lon="2.72337">
        <ele>81</ele>
        <time>2018-04-15T14:06:58Z</time>
      </trkpt>
      <trkpt lat="48.40018" lon="2.72333">
        <ele>80.9</ele>
        <time>2018-04-15T14:06:59Z</time>
      </trkpt>
      <trkpt lat="48.40023" lon="2.72329">
        <ele>80.9</ele>
        <time>2018-04-15T14:07:00Z</time>
      </trkpt>
      <trkpt lat="48.40028" lon="2.72326">
        <ele>80.8</ele>
        <time>2018-04-15T14:07:01Z</time>
      </trkpt>
      <trkpt lat="48.40032" lon="2.72321">
        <ele>80.7</ele>
        <time>2018-04-15T14:07:02Z</time>
      </trkpt>
      <trkpt lat="48.40035" lon="2.72317">
        <ele>80.7</ele>
        <time>2018-04-15T14:07:03Z</time>
      </trkpt>
      <trkpt lat="48.40039" lon="2.72312">
        <ele>80.6</ele>
        <time>2018-04-15T14:07:04Z</time>
      </trkpt>
      <trkpt lat="48.40043" lon="2.72308">
        <ele>80.6</ele>
        <time>2018-04-15T14:07:05Z</time>
      </trkpt>
      <trkpt lat="48.40048" lon="2.72304">
        <ele>80.5</ele>
        <time>2018-04-15T14:07:06Z</time>
      </trkpt>
      <trkpt lat="48.40052" lon="2.723">
        <ele>80.4</ele>
        <time>2018-04-15T14:07:07Z</time>
      </trkpt>
      <trkpt lat="48.40057" lon="2.72295">
        <ele>80.3</ele>
        <time>2018-04-15T14:07:08Z</time>
      </trkpt>
      <trkpt lat="48.40061" lon="2.72291">
        <ele>80.3</ele>
        <time>2018-04-15T14:07:09Z</time>
      </trkpt>
      <trkpt lat="48.40067" lon="2.72285">
        <ele>80.2</ele>
        <time>2018-04-15T14:07:10Z</time>
      </trkpt>
      <trkpt lat="48.40071" lon="2.72281">
        <ele>80.1</ele>
        <time>2018-04-15T14:07:11Z</time>
      </trkpt>
      <trkpt lat="48.40075" lon="2.72276">
        <ele>80.1</ele>
        <time>2018-04-15T14:07:12Z</time>
      </trkpt>
      <trkpt lat="48.4008" lon="2.72272">
        <ele>79.9</ele>
        <time>2018-04-15T14:07:13Z</time>
      </trkpt>
      <trkpt lat="48.40084" lon="2.72268">
        <ele>79.7</ele>
        <time>2018-04-15T14:07:14Z</time>
      </trkpt>
      <trkpt lat="48.40089" lon="2.72263">
        <ele>79.4</ele>
        <time>2018-04-15T14:07:15Z</time>
      </trkpt>
      <trkpt lat="48.40093" lon="2.72259">
        <ele>79.1</ele>
        <time>2018-04-15T14:07:16Z</time>
      </trkpt>
      <trkpt lat="48.40099" lon="2.72254">
        <ele>78.8</ele>
        <time>2018-04-15T14:07:17Z</time>
      </trkpt>
      <trkpt lat="48.40103" lon="2.7225">
        <ele>78.5</ele>
        <time>2018-04-15T14:07:18Z</time>
      </trkpt>
      <trkpt lat="48.40108" lon="2.72245">
        <ele>78.2</ele>
        <time>2018-04-15T14:07:19Z</time>
      </trkpt>
      <trkpt lat="48.40113" lon="2.7224">
        <ele>78</ele>
        <time>2018-04-15T14:07:20Z</time>
      </trkpt>
      <trkpt lat="48.40116" lon="2.72236">
        <ele>77.8</ele>
        <time>2018-04-15T14:07:21Z</time>
      </trkpt>
      <trkpt lat="48.40121" lon="2.72232">
        <ele>77.5</ele>
        <time>2018-04-15T14:07:22Z</time>
      </trkpt>
      <trkpt lat="48.40125" lon="2.72229">
        <ele>77.3</ele>
        <time>2018-04-15T14:07:23Z</time>
      </trkpt>
      <trkpt lat="48.4013" lon="2.72225">
        <ele>77</ele>
        <time>2018-04-15T14:07:24Z</time>
      </trkpt>
      <trkpt lat="48.40135" lon="2.7222">
        <ele>77.3</ele>
        <time>2018-04-15T14:07:25Z</time>
      </trkpt>
      <trkpt lat="48.4014" lon="2.72216">
        <ele>77.5</ele>
        <time>2018-04-15T14:07:26Z</time>
      </trkpt>
      <trkpt lat="48.40145" lon="2.72213">
        <ele>77.7</ele>
        <time>2018-04-15T14:07:27Z</time>
      </trkpt>
      <trkpt lat="48.4015" lon="2.72209">
        <ele>78</ele>
        <time>2018-04-15T14:07:28Z</time>
      </trkpt>
      <trkpt lat="48.40153" lon="2.72206">
        <ele>78.2</ele>
        <time>2018-04-15T14:07:29Z</time>
      </trkpt>
      <trkpt lat="48.40156" lon="2.72203">
        <ele>78.3</ele>
        <time>2018-04-15T14:07:30Z</time>
      </trkpt>
      <trkpt lat="48.40159" lon="2.722">
        <ele>78.5</ele>
        <time>2018-04-15T14:07:31Z</time>
      </trkpt>
      <trkpt lat="48.40161" lon="2.72198">
        <ele>78.6</ele>
        <time>2018-04-15T14:07:32Z</time>
      </trkpt>
      <trkpt lat="48.40165" lon="2.72194">
        <ele>78.8</ele>
        <time>2018-04-15T14:07:34Z</time>
      </trkpt>
      <trkpt lat="48.40168" lon="2.72191">
        <ele>79</ele>
        <time>2018-04-15T14:07:36Z</time>
      </trkpt>
      <trkpt lat="48.40171" lon="2.72184">
        <ele>79</ele>
        <time>2018-04-15T14:07:40Z</time>
      </trkpt>
      <trkpt lat="48.40171" lon="2.7218">
        <ele>78.1</ele>
        <time>2018-04-15T14:07:41Z</time>
      </trkpt>
      <trkpt lat="48.40171" lon="2.72176">
        <ele>77.3</ele>
        <time>2018-04-15T14:07:42Z</time>
      </trkpt>
      <trkpt lat="48.40169" lon="2.72166">
        <ele>77.1</ele>
        <time>2018-04-15T14:07:44Z</time>
      </trkpt>
      <trkpt lat="48.40167" lon="2.72161">
        <ele>77.2</ele>
        <time>2018-04-15T14:07:45Z</time>
      </trkpt>
      <trkpt lat="48.40166" lon="2.72154">
        <ele>77.4</ele>
        <time>2018-04-15T14:07:46Z</time>
      </trkpt>
      <trkpt lat="48.40164" lon="2.72147">
        <ele>77.4</ele>
        <time>2018-04-15T14:07:47Z</time>
      </trkpt>
      <trkpt lat="48.40163" lon="2.72139">
        <ele>77.5</ele>
        <time>2018-04-15T14:07:48Z</time>
      </trkpt>
      <trkpt lat="48.40162" lon="2.72132">
        <ele>77.6</ele>
        <time>2018-04-15T14:07:49Z</time>
      </trkpt>
      <trkpt lat="48.4016" lon="2.72124">
        <ele>77.6</ele>
        <time>2018-04-15T14:07:50Z</time>
      </trkpt>
      <trkpt lat="48.40159" lon="2.72115">
        <ele>77.7</ele>
        <time>2018-04-15T14:07:51Z</time>
      </trkpt>
      <trkpt lat="48.40157" lon="2.72107">
        <ele>77.8</ele>
        <time>2018-04-15T14:07:52Z</time>
      </trkpt>
      <trkpt lat="48.40155" lon="2.721">
        <ele>77.9</ele>
        <time>2018-04-15T14:07:53Z</time>
      </trkpt>
      <trkpt lat="48.40153" lon="2.72091">
        <ele>77.9</ele>
        <time>2018-04-15T14:07:54Z</time>
      </trkpt>
      <trkpt lat="48.40151" lon="2.72084">
        <ele>78</ele>
        <time>2018-04-15T14:07:55Z</time>
      </trkpt>
      <trkpt lat="48.40149" lon="2.72076">
        <ele>78</ele>
        <time>2018-04-15T14:07:56Z</time>
      </trkpt>
      <trkpt lat="48.40148" lon="2.72068">
        <ele>78.1</ele>
        <time>2018-04-15T14:07:57Z</time>
      </trkpt>
      <trkpt lat="48.40145" lon="2.7206">
        <ele>78.2</ele>
        <time>2018-04-15T14:07:58Z</time>
      </trkpt>
      <trkpt lat="48.40143" lon="2.72053">
        <ele>78.2</ele>
        <time>2018-04-15T14:07:59Z</time>
      </trkpt>
      <trkpt lat="48.40141" lon="2.72045">
        <ele>78.3</ele>
        <time>2018-04-15T14:08:00Z</time>
      </trkpt>
      <trkpt lat="48.40139" lon="2.72038">
        <ele>78.3</ele>
        <time>2018-04-15T14:08:01Z</time>
      </trkpt>
      <trkpt lat="48.40137" lon="2.7203">
        <ele>78.4</ele>
        <time>2018-04-15T14:08:02Z</time>
      </trkpt>
      <trkpt lat="48.40135" lon="2.72023">
        <ele>78.4</ele>
        <time>2018-04-15T14:08:03Z</time>
      </trkpt>
      <trkpt lat="48.40133" lon="2.72015">
        <ele>78.4</ele>
        <time>2018-04-15T14:08:04Z</time>
      </trkpt>
      <trkpt lat="48.40131" lon="2.72007">
        <ele>78.5</ele>
        <time>2018-04-15T14:08:05Z</time>
      </trkpt>
      <trkpt lat="48.40129" lon="2.71999">
        <ele>78.5</ele>
        <time>2018-04-15T14:08:06Z</time>
      </trkpt>
      <trkpt lat="48.40127" lon="2.71991">
        <ele>78.6</ele>
        <time>2018-04-15T14:08:07Z</time>
      </trkpt>
      <trkpt lat="48.40125" lon="2.71984">
        <ele>78.6</ele>
        <time>2018-04-15T14:08:08Z</time>
      </trkpt>
      <trkpt lat="48.40123" lon="2.71977">
        <ele>78.6</ele>
        <time>2018-04-15T14:08:09Z</time>
      </trkpt>
      <trkpt lat="48.40121" lon="2.71969">
        <ele>78.7</ele>
        <time>2018-04-15T14:08:10Z</time>
      </trkpt>
      <trkpt lat="48.40119" lon="2.71961">
        <ele>78.8</ele>
        <time>2018-04-15T14:08:11Z</time>
      </trkpt>
      <trkpt lat="48.40117" lon="2.71954">
        <ele>78.9</ele>
        <time>2018-04-15T14:08:12Z</time>
      </trkpt>
      <trkpt lat="48.40114" lon="2.71947">
        <ele>78.9</ele>
        <time>2018-04-15T14:08:13Z</time>
      </trkpt>
      <trkpt lat="48.40112" lon="2.71941">
        <ele>79</ele>
        <time>2018-04-15T14:08:14Z</time>
      </trkpt>
      <trkpt lat="48.4011" lon="2.71935">
        <ele>79</ele>
        <time>2018-04-15T14:08:15Z</time>
      </trkpt>
      <trkpt lat="48.40107" lon="2.71928">
        <ele>79</ele>
        <time>2018-04-15T14:08:16Z</time>
      </trkpt>
      <trkpt lat="48.40105" lon="2.71923">
        <ele>79</ele>
        <time>2018-04-15T14:08:17Z</time>
      </trkpt>
      <trkpt lat="48.40103" lon="2.71917">
        <ele>79</ele>
        <time>2018-04-15T14:08:18Z</time>
      </trkpt>
      <trkpt lat="48.40101" lon="2.71911">
        <ele>79</ele>
        <time>2018-04-15T14:08:19Z</time>
      </trkpt>
      <trkpt lat="48.401" lon="2.71906">
        <ele>79</ele>
        <time>2018-04-15T14:08:20Z</time>
      </trkpt>
      <trkpt lat="48.40099" lon="2.71901">
        <ele>78.9</ele>
        <time>2018-04-15T14:08:21Z</time>
      </trkpt>
      <trkpt lat="48.40096" lon="2.71894">
        <ele>78.7</ele>
        <time>2018-04-15T14:08:23Z</time>
      </trkpt>
      <trkpt lat="48.40094" lon="2.71888">
        <ele>78.6</ele>
        <time>2018-04-15T14:08:24Z</time>
      </trkpt>
      <trkpt lat="48.40093" lon="2.71883">
        <ele>78.5</ele>
        <time>2018-04-15T14:08:25Z</time>
      </trkpt>
      <trkpt lat="48.40091" lon="2.71875">
        <ele>78.4</ele>
        <time>2018-04-15T14:08:26Z</time>
      </trkpt>
      <trkpt lat="48.40089" lon="2.71868">
        <ele>78.2</ele>
        <time>2018-04-15T14:08:27Z</time>
      </trkpt>
      <trkpt lat="48.40087" lon="2.71861">
        <ele>78.1</ele>
        <time>2018-04-15T14:08:28Z</time>
      </trkpt>
      <trkpt lat="48.40086" lon="2.71855">
        <ele>78</ele>
        <time>2018-04-15T14:08:29Z</time>
      </trkpt>
      <trkpt lat="48.40084" lon="2.71848">
        <ele>77.8</ele>
        <time>2018-04-15T14:08:30Z</time>
      </trkpt>
      <trkpt lat="48.40081" lon="2.71839">
        <ele>77.7</ele>
        <time>2018-04-15T14:08:31Z</time>
      </trkpt>
      <trkpt lat="48.40079" lon="2.7183">
        <ele>77.2</ele>
        <time>2018-04-15T14:08:32Z</time>
      </trkpt>
      <trkpt lat="48.40076" lon="2.7182">
        <ele>76.7</ele>
        <time>2018-04-15T14:08:33Z</time>
      </trkpt>
      <trkpt lat="48.40073" lon="2.71809">
        <ele>76.3</ele>
        <time>2018-04-15T14:08:34Z</time>
      </trkpt>
      <trkpt lat="48.40071" lon="2.718">
        <ele>76.1</ele>
        <time>2018-04-15T14:08:35Z</time>
      </trkpt>
      <trkpt lat="48.40069" lon="2.71792">
        <ele>76</ele>
        <time>2018-04-15T14:08:36Z</time>
      </trkpt>
      <trkpt lat="48.40067" lon="2.71783">
        <ele>75.9</ele>
        <time>2018-04-15T14:08:37Z</time>
      </trkpt>
      <trkpt lat="48.40065" lon="2.71776">
        <ele>75.8</ele>
        <time>2018-04-15T14:08:38Z</time>
      </trkpt>
      <trkpt lat="48.40062" lon="2.71769">
        <ele>75.7</ele>
        <time>2018-04-15T14:08:39Z</time>
      </trkpt>
      <trkpt lat="48.4006" lon="2.71762">
        <ele>75.6</ele>
        <time>2018-04-15T14:08:40Z</time>
      </trkpt>
      <trkpt lat="48.40058" lon="2.71754">
        <ele>75.6</ele>
        <time>2018-04-15T14:08:41Z</time>
      </trkpt>
      <trkpt lat="48.40056" lon="2.71745">
        <ele>75.5</ele>
        <time>2018-04-15T14:08:42Z</time>
      </trkpt>
      <trkpt lat="48.40053" lon="2.71736">
        <ele>75.5</ele>
        <time>2018-04-15T14:08:43Z</time>
      </trkpt>
      <trkpt lat="48.4005" lon="2.71727">
        <ele>75.4</ele>
        <time>2018-04-15T14:08:44Z</time>
      </trkpt>
      <trkpt lat="48.40048" lon="2.71718">
        <ele>75.4</ele>
        <time>2018-04-15T14:08:45Z</time>
      </trkpt>
      <trkpt lat="48.40046" lon="2.7171">
        <ele>75.3</ele>
        <time>2018-04-15T14:08:46Z</time>
      </trkpt>
      <trkpt lat="48.40043" lon="2.71701">
        <ele>75.3</ele>
        <time>2018-04-15T14:08:47Z</time>
      </trkpt>
      <trkpt lat="48.40041" lon="2.71691">
        <ele>75.2</ele>
        <time>2018-04-15T14:08:48Z</time>
      </trkpt>
      <trkpt lat="48.40039" lon="2.71682">
        <ele>75.2</ele>
        <time>2018-04-15T14:08:49Z</time>
      </trkpt>
      <trkpt lat="48.40036" lon="2.71672">
        <ele>75.1</ele>
        <time>2018-04-15T14:08:50Z</time>
      </trkpt>
      <trkpt lat="48.40033" lon="2.71663">
        <ele>75.1</ele>
        <time>2018-04-15T14:08:51Z</time>
      </trkpt>
      <trkpt lat="48.4003" lon="2.71655">
        <ele>75.1</ele>
        <time>2018-04-15T14:08:52Z</time>
      </trkpt>
      <trkpt lat="48.40028" lon="2.71648">
        <ele>75</ele>
        <time>2018-04-15T14:08:53Z</time>
      </trkpt>
      <trkpt lat="48.40025" lon="2.71639">
        <ele>75</ele>
        <time>2018-04-15T14:08:54Z</time>
      </trkpt>
      <trkpt lat="48.40023" lon="2.7163">
        <ele>75.1</ele>
        <time>2018-04-15T14:08:55Z</time>
      </trkpt>
      <trkpt lat="48.40021" lon="2.71622">
        <ele>75.2</ele>
        <time>2018-04-15T14:08:56Z</time>
      </trkpt>
      <trkpt lat="48.40019" lon="2.71612">
        <ele>75.3</ele>
        <time>2018-04-15T14:08:57Z</time>
      </trkpt>
      <trkpt lat="48.40018" lon="2.71601">
        <ele>75.3</ele>
        <time>2018-04-15T14:08:58Z</time>
      </trkpt>
      <trkpt lat="48.40017" lon="2.71592">
        <ele>75.4</ele>
        <time>2018-04-15T14:08:59Z</time>
      </trkpt>
      <trkpt lat="48.40015" lon="2.71583">
        <ele>75.4</ele>
        <time>2018-04-15T14:09:00Z</time>
      </trkpt>
      <trkpt lat="48.40014" lon="2.71573">
        <ele>75.5</ele>
        <time>2018-04-15T14:09:01Z</time>
      </trkpt>
      <trkpt lat="48.40013" lon="2.71562">
        <ele>75.6</ele>
        <time>2018-04-15T14:09:02Z</time>
      </trkpt>
      <trkpt lat="48.40013" lon="2.71552">
        <ele>75.6</ele>
        <time>2018-04-15T14:09:03Z</time>
      </trkpt>
      <trkpt lat="48.40012" lon="2.71542">
        <ele>75.7</ele>
        <time>2018-04-15T14:09:04Z</time>
      </trkpt>
      <trkpt lat="48.40011" lon="2.71532">
        <ele>75.8</ele>
        <time>2018-04-15T14:09:05Z</time>
      </trkpt>
      <trkpt lat="48.40011" lon="2.7152">
        <ele>75.8</ele>
        <time>2018-04-15T14:09:06Z</time>
      </trkpt>
      <trkpt lat="48.4001" lon="2.71508">
        <ele>75.9</ele>
        <time>2018-04-15T14:09:07Z</time>
      </trkpt>
      <trkpt lat="48.4001" lon="2.71498">
        <ele>75.9</ele>
        <time>2018-04-15T14:09:08Z</time>
      </trkpt>
      <trkpt lat="48.40009" lon="2.71488">
        <ele>75.9</ele>
        <time>2018-04-15T14:09:09Z</time>
      </trkpt>
      <trkpt lat="48.40008" lon="2.71478">
        <ele>76</ele>
        <time>2018-04-15T14:09:10Z</time>
      </trkpt>
      <trkpt lat="48.40006" lon="2.71467">
        <ele>76.1</ele>
        <time>2018-04-15T14:09:11Z</time>
      </trkpt>
      <trkpt lat="48.40005" lon="2.71457">
        <ele>76.7</ele>
        <time>2018-04-15T14:09:12Z</time>
      </trkpt>
      <trkpt lat="48.40004" lon="2.71446">
        <ele>77</ele>
        <time>2018-04-15T14:09:13Z</time>
      </trkpt>
      <trkpt lat="48.40003" lon="2.71435">
        <ele>77.3</ele>
        <time>2018-04-15T14:09:14Z</time>
      </trkpt>
      <trkpt lat="48.40002" lon="2.71425">
        <ele>77.6</ele>
        <time>2018-04-15T14:09:15Z</time>
      </trkpt>
      <trkpt lat="48.40001" lon="2.71416">
        <ele>77.9</ele>
        <time>2018-04-15T14:09:16Z</time>
      </trkpt>
      <trkpt lat="48.40001" lon="2.71406">
        <ele>78.3</ele>
        <time>2018-04-15T14:09:17Z</time>
      </trkpt>
      <trkpt lat="48.4" lon="2.71397">
        <ele>78.3</ele>
        <time>2018-04-15T14:09:18Z</time>
      </trkpt>
      <trkpt lat="48.39998" lon="2.71389">
        <ele>78.4</ele>
        <time>2018-04-15T14:09:19Z</time>
      </trkpt>
      <trkpt lat="48.39997" lon="2.7138">
        <ele>78.5</ele>
        <time>2018-04-15T14:09:20Z</time>
      </trkpt>
      <trkpt lat="48.39996" lon="2.71369">
        <ele>78.6</ele>
        <time>2018-04-15T14:09:21Z</time>
      </trkpt>
      <trkpt lat="48.39995" lon="2.71358">
        <ele>78.8</ele>
        <time>2018-04-15T14:09:22Z</time>
      </trkpt>
      <trkpt lat="48.39994" lon="2.71346">
        <ele>78.9</ele>
        <time>2018-04-15T14:09:23Z</time>
      </trkpt>
      <trkpt lat="48.39994" lon="2.71335">
        <ele>79</ele>
        <time>2018-04-15T14:09:24Z</time>
      </trkpt>
      <trkpt lat="48.39993" lon="2.71324">
        <ele>78.9</ele>
        <time>2018-04-15T14:09:25Z</time>
      </trkpt>
      <trkpt lat="48.39993" lon="2.71313">
        <ele>78.8</ele>
        <time>2018-04-15T14:09:26Z</time>
      </trkpt>
      <trkpt lat="48.39991" lon="2.71301">
        <ele>78.7</ele>
        <time>2018-04-15T14:09:27Z</time>
      </trkpt>
      <trkpt lat="48.39991" lon="2.71289">
        <ele>78.6</ele>
        <time>2018-04-15T14:09:28Z</time>
      </trkpt>
      <trkpt lat="48.39991" lon="2.71279">
        <ele>78.5</ele>
        <time>2018-04-15T14:09:29Z</time>
      </trkpt>
      <trkpt lat="48.39991" lon="2.7127">
        <ele>78.5</ele>
        <time>2018-04-15T14:09:30Z</time>
      </trkpt>
      <trkpt lat="48.3999" lon="2.71261">
        <ele>78.4</ele>
        <time>2018-04-15T14:09:31Z</time>
      </trkpt>
      <trkpt lat="48.3999" lon="2.7125">
        <ele>78.3</ele>
        <time>2018-04-15T14:09:32Z</time>
      </trkpt>
      <trkpt lat="48.39989" lon="2.71239">
        <ele>78.2</ele>
        <time>2018-04-15T14:09:33Z</time>
      </trkpt>
      <trkpt lat="48.39989" lon="2.71228">
        <ele>78.2</ele>
        <time>2018-04-15T14:09:34Z</time>
      </trkpt>
      <trkpt lat="48.39988" lon="2.71217">
        <ele>78.1</ele>
        <time>2018-04-15T14:09:35Z</time>
      </trkpt>
      <trkpt lat="48.39987" lon="2.71206">
        <ele>78.1</ele>
        <time>2018-04-15T14:09:36Z</time>
      </trkpt>
      <trkpt lat="48.39987" lon="2.71197">
        <ele>78</ele>
        <time>2018-04-15T14:09:37Z</time>
      </trkpt>
      <trkpt lat="48.39985" lon="2.71186">
        <ele>79.1</ele>
        <time>2018-04-15T14:09:38Z</time>
      </trkpt>
      <trkpt lat="48.39984" lon="2.71175">
        <ele>80.7</ele>
        <time>2018-04-15T14:09:39Z</time>
      </trkpt>
      <trkpt lat="48.39982" lon="2.71164">
        <ele>82.1</ele>
        <time>2018-04-15T14:09:40Z</time>
      </trkpt>
      <trkpt lat="48.39982" lon="2.71154">
        <ele>83.3</ele>
        <time>2018-04-15T14:09:41Z</time>
      </trkpt>
      <trkpt lat="48.39982" lon="2.71143">
        <ele>84</ele>
        <time>2018-04-15T14:09:42Z</time>
      </trkpt>
      <trkpt lat="48.39981" lon="2.71132">
        <ele>84.5</ele>
        <time>2018-04-15T14:09:43Z</time>
      </trkpt>
      <trkpt lat="48.3998" lon="2.71121">
        <ele>85</ele>
        <time>2018-04-15T14:09:44Z</time>
      </trkpt>
      <trkpt lat="48.39979" lon="2.71111">
        <ele>85.5</ele>
        <time>2018-04-15T14:09:45Z</time>
      </trkpt>
      <trkpt lat="48.39979" lon="2.71101">
        <ele>85.9</ele>
        <time>2018-04-15T14:09:46Z</time>
      </trkpt>
      <trkpt lat="48.39978" lon="2.71092">
        <ele>86.2</ele>
        <time>2018-04-15T14:09:47Z</time>
      </trkpt>
      <trkpt lat="48.39977" lon="2.71082">
        <ele>86.5</ele>
        <time>2018-04-15T14:09:48Z</time>
      </trkpt>
      <trkpt lat="48.39975" lon="2.71072">
        <ele>86.9</ele>
        <time>2018-04-15T14:09:49Z</time>
      </trkpt>
      <trkpt lat="48.39974" lon="2.71061">
        <ele>87.2</ele>
        <time>2018-04-15T14:09:50Z</time>
      </trkpt>
      <trkpt lat="48.39974" lon="2.71052">
        <ele>87.5</ele>
        <time>2018-04-15T14:09:51Z</time>
      </trkpt>
      <trkpt lat="48.39972" lon="2.71044">
        <ele>87.8</ele>
        <time>2018-04-15T14:09:52Z</time>
      </trkpt>
      <trkpt lat="48.39971" lon="2.71036">
        <ele>88</ele>
        <time>2018-04-15T14:09:53Z</time>
      </trkpt>
      <trkpt lat="48.39969" lon="2.71028">
        <ele>87.9</ele>
        <time>2018-04-15T14:09:54Z</time>
      </trkpt>
      <trkpt lat="48.39966" lon="2.71019">
        <ele>87.8</ele>
        <time>2018-04-15T14:09:55Z</time>
      </trkpt>
      <trkpt lat="48.39964" lon="2.71011">
        <ele>87.8</ele>
        <time>2018-04-15T14:09:56Z</time>
      </trkpt>
      <trkpt lat="48.39962" lon="2.71003">
        <ele>87.7</ele>
        <time>2018-04-15T14:09:57Z</time>
      </trkpt>
      <trkpt lat="48.39961" lon="2.70997">
        <ele>87.6</ele>
        <time>2018-04-15T14:09:58Z</time>
      </trkpt>
      <trkpt lat="48.39959" lon="2.70992">
        <ele>87.5</ele>
        <time>2018-04-15T14:09:59Z</time>
      </trkpt>
      <trkpt lat="48.39957" lon="2.70987">
        <ele>87.5</ele>
        <time>2018-04-15T14:10:00Z</time>
      </trkpt>
      <trkpt lat="48.39955" lon="2.70982">
        <ele>87.4</ele>
        <time>2018-04-15T14:10:01Z</time>
      </trkpt>
      <trkpt lat="48.39954" lon="2.70976">
        <ele>87.4</ele>
        <time>2018-04-15T14:10:02Z</time>
      </trkpt>
      <trkpt lat="48.39952" lon="2.70971">
        <ele>87.3</ele>
        <time>2018-04-15T14:10:03Z</time>
      </trkpt>
      <trkpt lat="48.39951" lon="2.70965">
        <ele>87.2</ele>
        <time>2018-04-15T14:10:04Z</time>
      </trkpt>
      <trkpt lat="48.39949" lon="2.70958">
        <ele>87.2</ele>
        <time>2018-04-15T14:10:05Z</time>
      </trkpt>
      <trkpt lat="48.39946" lon="2.7095">
        <ele>87.1</ele>
        <time>2018-04-15T14:10:06Z</time>
      </trkpt>
      <trkpt lat="48.39943" lon="2.70943">
        <ele>87.1</ele>
        <time>2018-04-15T14:10:07Z</time>
      </trkpt>
      <trkpt lat="48.3994" lon="2.70936">
        <ele>87.1</ele>
        <time>2018-04-15T14:10:08Z</time>
      </trkpt>
      <trkpt lat="48.39937" lon="2.70928">
        <ele>87</ele>
        <time>2018-04-15T14:10:09Z</time>
      </trkpt>
      <trkpt lat="48.39935" lon="2.70922">
        <ele>87.1</ele>
        <time>2018-04-15T14:10:10Z</time>
      </trkpt>
      <trkpt lat="48.39932" lon="2.70916">
        <ele>87.2</ele>
        <time>2018-04-15T14:10:11Z</time>
      </trkpt>
      <trkpt lat="48.39929" lon="2.70908">
        <ele>87.3</ele>
        <time>2018-04-15T14:10:12Z</time>
      </trkpt>
      <trkpt lat="48.39928" lon="2.70899">
        <ele>87.4</ele>
        <time>2018-04-15T14:10:13Z</time>
      </trkpt>
      <trkpt lat="48.39927" lon="2.7089">
        <ele>87.5</ele>
        <time>2018-04-15T14:10:14Z</time>
      </trkpt>
      <trkpt lat="48.39927" lon="2.70881">
        <ele>87.6</ele>
        <time>2018-04-15T14:10:15Z</time>
      </trkpt>
      <trkpt lat="48.39929" lon="2.70873">
        <ele>87.7</ele>
        <time>2018-04-15T14:10:16Z</time>
      </trkpt>
      <trkpt lat="48.39931" lon="2.70866">
        <ele>87.8</ele>
        <time>2018-04-15T14:10:17Z</time>
      </trkpt>
      <trkpt lat="48.39934" lon="2.70859">
        <ele>87.9</ele>
        <time>2018-04-15T14:10:18Z</time>
      </trkpt>
      <trkpt lat="48.3994" lon="2.70853">
        <ele>88</ele>
        <time>2018-04-15T14:10:19Z</time>
      </trkpt>
      <trkpt lat="48.39945" lon="2.70847">
        <ele>88</ele>
        <time>2018-04-15T14:10:20Z</time>
      </trkpt>
      <trkpt lat="48.3995" lon="2.70843">
        <ele>88</ele>
        <time>2018-04-15T14:10:21Z</time>
      </trkpt>
      <trkpt lat="48.39954" lon="2.70839">
        <ele>87.9</ele>
        <time>2018-04-15T14:10:22Z</time>
      </trkpt>
      <trkpt lat="48.39959" lon="2.70834">
        <ele>87.9</ele>
        <time>2018-04-15T14:10:23Z</time>
      </trkpt>
      <trkpt lat="48.39964" lon="2.70828">
        <ele>87.8</ele>
        <time>2018-04-15T14:10:24Z</time>
      </trkpt>
      <trkpt lat="48.39971" lon="2.70822">
        <ele>87.6</ele>
        <time>2018-04-15T14:10:25Z</time>
      </trkpt>
      <trkpt lat="48.39976" lon="2.70816">
        <ele>87.3</ele>
        <time>2018-04-15T14:10:26Z</time>
      </trkpt>
      <trkpt lat="48.39981" lon="2.70811">
        <ele>87</ele>
        <time>2018-04-15T14:10:27Z</time>
      </trkpt>
      <trkpt lat="48.39987" lon="2.70808">
        <ele>87</ele>
        <time>2018-04-15T14:10:28Z</time>
      </trkpt>
      <trkpt lat="48.39994" lon="2.70802">
        <ele>86</ele>
        <time>2018-04-15T14:10:29Z</time>
      </trkpt>
      <trkpt lat="48.4" lon="2.70796">
        <ele>84.7</ele>
        <time>2018-04-15T14:10:30Z</time>
      </trkpt>
      <trkpt lat="48.40007" lon="2.7079">
        <ele>83.3</ele>
        <time>2018-04-15T14:10:31Z</time>
      </trkpt>
      <trkpt lat="48.40015" lon="2.70784">
        <ele>81.9</ele>
        <time>2018-04-15T14:10:32Z</time>
      </trkpt>
      <trkpt lat="48.40023" lon="2.70778">
        <ele>80.5</ele>
        <time>2018-04-15T14:10:33Z</time>
      </trkpt>
      <trkpt lat="48.40029" lon="2.70773">
        <ele>79</ele>
        <time>2018-04-15T14:10:34Z</time>
      </trkpt>
      <trkpt lat="48.40036" lon="2.70767">
        <ele>78</ele>
        <time>2018-04-15T14:10:35Z</time>
      </trkpt>
      <trkpt lat="48.40043" lon="2.7076">
        <ele>78</ele>
        <time>2018-04-15T14:10:36Z</time>
      </trkpt>
      <trkpt lat="48.40051" lon="2.70754">
        <ele>78</ele>
        <time>2018-04-15T14:10:37Z</time>
      </trkpt>
      <trkpt lat="48.40058" lon="2.70748">
        <ele>77.5</ele>
        <time>2018-04-15T14:10:38Z</time>
      </trkpt>
      <trkpt lat="48.40065" lon="2.70742">
        <ele>76.6</ele>
        <time>2018-04-15T14:10:39Z</time>
      </trkpt>
      <trkpt lat="48.40073" lon="2.70736">
        <ele>75.9</ele>
        <time>2018-04-15T14:10:40Z</time>
      </trkpt>
      <trkpt lat="48.4008" lon="2.7073">
        <ele>75.2</ele>
        <time>2018-04-15T14:10:41Z</time>
      </trkpt>
      <trkpt lat="48.40087" lon="2.70725">
        <ele>74.5</ele>
        <time>2018-04-15T14:10:42Z</time>
      </trkpt>
      <trkpt lat="48.40094" lon="2.70719">
        <ele>73.8</ele>
        <time>2018-04-15T14:10:43Z</time>
      </trkpt>
      <trkpt lat="48.40102" lon="2.70713">
        <ele>73.1</ele>
        <time>2018-04-15T14:10:44Z</time>
      </trkpt>
      <trkpt lat="48.40109" lon="2.70706">
        <ele>72.3</ele>
        <time>2018-04-15T14:10:45Z</time>
      </trkpt>
      <trkpt lat="48.40116" lon="2.707">
        <ele>71.6</ele>
        <time>2018-04-15T14:10:46Z</time>
      </trkpt>
      <trkpt lat="48.40123" lon="2.70694">
        <ele>70.9</ele>
        <time>2018-04-15T14:10:47Z</time>
      </trkpt>
      <trkpt lat="48.40131" lon="2.70687">
        <ele>70.2</ele>
        <time>2018-04-15T14:10:48Z</time>
      </trkpt>
      <trkpt lat="48.40138" lon="2.70682">
        <ele>69.6</ele>
        <time>2018-04-15T14:10:49Z</time>
      </trkpt>
      <trkpt lat="48.40146" lon="2.70676">
        <ele>68.9</ele>
        <time>2018-04-15T14:10:50Z</time>
      </trkpt>
      <trkpt lat="48.40153" lon="2.7067">
        <ele>68.3</ele>
        <time>2018-04-15T14:10:51Z</time>
      </trkpt>
      <trkpt lat="48.40161" lon="2.70663">
        <ele>67.6</ele>
        <time>2018-04-15T14:10:52Z</time>
      </trkpt>
      <trkpt lat="48.40169" lon="2.70656">
        <ele>66.9</ele>
        <time>2018-04-15T14:10:53Z</time>
      </trkpt>
      <trkpt lat="48.40177" lon="2.7065">
        <ele>66.2</ele>
        <time>2018-04-15T14:10:54Z</time>
      </trkpt>
      <trkpt lat="48.40185" lon="2.70643">
        <ele>65.4</ele>
        <time>2018-04-15T14:10:55Z</time>
      </trkpt>
      <trkpt lat="48.40193" lon="2.70637">
        <ele>65.2</ele>
        <time>2018-04-15T14:10:56Z</time>
      </trkpt>
      <trkpt lat="48.40201" lon="2.7063">
        <ele>65.5</ele>
        <time>2018-04-15T14:10:57Z</time>
      </trkpt>
      <trkpt lat="48.40209" lon="2.70624">
        <ele>65.7</ele>
        <time>2018-04-15T14:10:58Z</time>
      </trkpt>
      <trkpt lat="48.40217" lon="2.70618">
        <ele>65.9</ele>
        <time>2018-04-15T14:10:59Z</time>
      </trkpt>
      <trkpt lat="48.40224" lon="2.70612">
        <ele>66</ele>
        <time>2018-04-15T14:11:00Z</time>
      </trkpt>
      <trkpt lat="48.40232" lon="2.70605">
        <ele>66.3</ele>
        <time>2018-04-15T14:11:01Z</time>
      </trkpt>
      <trkpt lat="48.4024" lon="2.70599">
        <ele>66.5</ele>
        <time>2018-04-15T14:11:02Z</time>
      </trkpt>
      <trkpt lat="48.40248" lon="2.70592">
        <ele>66.8</ele>
        <time>2018-04-15T14:11:03Z</time>
      </trkpt>
      <trkpt lat="48.40256" lon="2.70586">
        <ele>67</ele>
        <time>2018-04-15T14:11:04Z</time>
      </trkpt>
      <trkpt lat="48.40263" lon="2.70579">
        <ele>67.2</ele>
        <time>2018-04-15T14:11:05Z</time>
      </trkpt>
      <trkpt lat="48.40271" lon="2.70573">
        <ele>67.3</ele>
        <time>2018-04-15T14:11:06Z</time>
      </trkpt>
      <trkpt lat="48.40279" lon="2.70567">
        <ele>67.5</ele>
        <time>2018-04-15T14:11:07Z</time>
      </trkpt>
      <trkpt lat="48.40286" lon="2.70561">
        <ele>67.7</ele>
        <time>2018-04-15T14:11:08Z</time>
      </trkpt>
      <trkpt lat="48.40293" lon="2.70556">
        <ele>67.8</ele>
        <time>2018-04-15T14:11:09Z</time>
      </trkpt>
      <trkpt lat="48.403" lon="2.7055">
        <ele>68</ele>
        <time>2018-04-15T14:11:10Z</time>
      </trkpt>
      <trkpt lat="48.40306" lon="2.70545">
        <ele>68.2</ele>
        <time>2018-04-15T14:11:11Z</time>
      </trkpt>
      <trkpt lat="48.40312" lon="2.7054">
        <ele>68.7</ele>
        <time>2018-04-15T14:11:12Z</time>
      </trkpt>
      <trkpt lat="48.40318" lon="2.70535">
        <ele>69.3</ele>
        <time>2018-04-15T14:11:13Z</time>
      </trkpt>
      <trkpt lat="48.40323" lon="2.7053">
        <ele>70</ele>
        <time>2018-04-15T14:11:14Z</time>
      </trkpt>
      <trkpt lat="48.40328" lon="2.70526">
        <ele>70.4</ele>
        <time>2018-04-15T14:11:15Z</time>
      </trkpt>
      <trkpt lat="48.40333" lon="2.70522">
        <ele>70.9</ele>
        <time>2018-04-15T14:11:16Z</time>
      </trkpt>
      <trkpt lat="48.40338" lon="2.70518">
        <ele>71.7</ele>
        <time>2018-04-15T14:11:17Z</time>
      </trkpt>
      <trkpt lat="48.40342" lon="2.70514">
        <ele>72.5</ele>
        <time>2018-04-15T14:11:18Z</time>
      </trkpt>
      <trkpt lat="48.40346" lon="2.7051">
        <ele>73</ele>
        <time>2018-04-15T14:11:19Z</time>
      </trkpt>
      <trkpt lat="48.4035" lon="2.70507">
        <ele>73</ele>
        <time>2018-04-15T14:11:20Z</time>
      </trkpt>
      <trkpt lat="48.40354" lon="2.70504">
        <ele>73.1</ele>
        <time>2018-04-15T14:11:21Z</time>
      </trkpt>
      <trkpt lat="48.40357" lon="2.705">
        <ele>73.2</ele>
        <time>2018-04-15T14:11:22Z</time>
      </trkpt>
      <trkpt lat="48.4036" lon="2.70496">
        <ele>73.3</ele>
        <time>2018-04-15T14:11:23Z</time>
      </trkpt>
      <trkpt lat="48.40361" lon="2.70492">
        <ele>73.3</ele>
        <time>2018-04-15T14:11:24Z</time>
      </trkpt>
      <trkpt lat="48.40362" lon="2.70487">
        <ele>73.4</ele>
        <time>2018-04-15T14:11:25Z</time>
      </trkpt>
      <trkpt lat="48.40363" lon="2.70481">
        <ele>73.5</ele>
        <time>2018-04-15T14:11:26Z</time>
      </trkpt>
      <trkpt lat="48.40364" lon="2.70475">
        <ele>73.6</ele>
        <time>2018-04-15T14:11:27Z</time>
      </trkpt>
      <trkpt lat="48.40362" lon="2.70468">
        <ele>73.7</ele>
        <time>2018-04-15T14:11:28Z</time>
      </trkpt>
      <trkpt lat="48.40361" lon="2.70462">
        <ele>73.8</ele>
        <time>2018-04-15T14:11:29Z</time>
      </trkpt>
      <trkpt lat="48.40359" lon="2.70456">
        <ele>73.9</ele>
        <time>2018-04-15T14:11:30Z</time>
      </trkpt>
      <trkpt lat="48.40357" lon="2.70451">
        <ele>74</ele>
        <time>2018-04-15T14:11:31Z</time>
      </trkpt>
      <trkpt lat="48.40356" lon="2.70446">
        <ele>74</ele>
        <time>2018-04-15T14:11:32Z</time>
      </trkpt>
      <trkpt lat="48.40354" lon="2.70441">
        <ele>74</ele>
        <time>2018-04-15T14:11:33Z</time>
      </trkpt>
      <trkpt lat="48.40354" lon="2.70437">
        <ele>74</ele>
        <time>2018-04-15T14:11:34Z</time>
      </trkpt>
      <trkpt lat="48.40354" lon="2.70431">
        <ele>74</ele>
        <time>2018-04-15T14:11:35Z</time>
      </trkpt>
      <trkpt lat="48.40356" lon="2.70425">
        <ele>74</ele>
        <time>2018-04-15T14:11:36Z</time>
      </trkpt>
      <trkpt lat="48.40359" lon="2.70421">
        <ele>74.2</ele>
        <time>2018-04-15T14:11:37Z</time>
      </trkpt>
      <trkpt lat="48.40362" lon="2.70418">
        <ele>74.3</ele>
        <time>2018-04-15T14:11:38Z</time>
      </trkpt>
      <trkpt lat="48.40365" lon="2.70414">
        <ele>74.4</ele>
        <time>2018-04-15T14:11:39Z</time>
      </trkpt>
      <trkpt lat="48.40369" lon="2.7041">
        <ele>74.5</ele>
        <time>2018-04-15T14:11:40Z</time>
      </trkpt>
      <trkpt lat="48.40372" lon="2.70405">
        <ele>74.7</ele>
        <time>2018-04-15T14:11:41Z</time>
      </trkpt>
      <trkpt lat="48.40376" lon="2.70402">
        <ele>74.8</ele>
        <time>2018-04-15T14:11:42Z</time>
      </trkpt>
      <trkpt lat="48.4038" lon="2.70397">
        <ele>74.9</ele>
        <time>2018-04-15T14:11:43Z</time>
      </trkpt>
      <trkpt lat="48.40384" lon="2.70392">
        <ele>75.1</ele>
        <time>2018-04-15T14:11:44Z</time>
      </trkpt>
      <trkpt lat="48.40387" lon="2.70386">
        <ele>75.2</ele>
        <time>2018-04-15T14:11:45Z</time>
      </trkpt>
      <trkpt lat="48.4039" lon="2.70382">
        <ele>75.3</ele>
        <time>2018-04-15T14:11:46Z</time>
      </trkpt>
      <trkpt lat="48.40394" lon="2.70377">
        <ele>75.4</ele>
        <time>2018-04-15T14:11:47Z</time>
      </trkpt>
      <trkpt lat="48.40397" lon="2.70371">
        <ele>75.5</ele>
        <time>2018-04-15T14:11:48Z</time>
      </trkpt>
      <trkpt lat="48.404" lon="2.70367">
        <ele>75.7</ele>
        <time>2018-04-15T14:11:49Z</time>
      </trkpt>
      <trkpt lat="48.40403" lon="2.70362">
        <ele>75.8</ele>
        <time>2018-04-15T14:11:50Z</time>
      </trkpt>
      <trkpt lat="48.40407" lon="2.70358">
        <ele>75.9</ele>
        <time>2018-04-15T14:11:51Z</time>
      </trkpt>
      <trkpt lat="48.40411" lon="2.70354">
        <ele>76</ele>
        <time>2018-04-15T14:11:52Z</time>
      </trkpt>
      <trkpt lat="48.40414" lon="2.70349">
        <ele>76.2</ele>
        <time>2018-04-15T14:11:53Z</time>
      </trkpt>
      <trkpt lat="48.40417" lon="2.70344">
        <ele>76.4</ele>
        <time>2018-04-15T14:11:54Z</time>
      </trkpt>
      <trkpt lat="48.4042" lon="2.7034">
        <ele>76.6</ele>
        <time>2018-04-15T14:11:55Z</time>
      </trkpt>
      <trkpt lat="48.40423" lon="2.70335">
        <ele>76.9</ele>
        <time>2018-04-15T14:11:56Z</time>
      </trkpt>
      <trkpt lat="48.40426" lon="2.7033">
        <ele>77.1</ele>
        <time>2018-04-15T14:11:57Z</time>
      </trkpt>
      <trkpt lat="48.40429" lon="2.70325">
        <ele>77.3</ele>
        <time>2018-04-15T14:11:58Z</time>
      </trkpt>
      <trkpt lat="48.40432" lon="2.7032">
        <ele>77.6</ele>
        <time>2018-04-15T14:11:59Z</time>
      </trkpt>
      <trkpt lat="48.40436" lon="2.70314">
        <ele>77.8</ele>
        <time>2018-04-15T14:12:00Z</time>
      </trkpt>
      <trkpt lat="48.40439" lon="2.70309">
        <ele>78.1</ele>
        <time>2018-04-15T14:12:01Z</time>
      </trkpt>
      <trkpt lat="48.40442" lon="2.70304">
        <ele>78.3</ele>
        <time>2018-04-15T14:12:02Z</time>
      </trkpt>
      <trkpt lat="48.40445" lon="2.70298">
        <ele>78.5</ele>
        <time>2018-04-15T14:12:03Z</time>
      </trkpt>
      <trkpt lat="48.40448" lon="2.70295">
        <ele>78.7</ele>
        <time>2018-04-15T14:12:04Z</time>
      </trkpt>
      <trkpt lat="48.4045" lon="2.70293">
        <ele>78.9</ele>
        <time>2018-04-15T14:12:05Z</time>
      </trkpt>
      <trkpt lat="48.40453" lon="2.70289">
        <ele>79.1</ele>
        <time>2018-04-15T14:12:06Z</time>
      </trkpt>
      <trkpt lat="48.40455" lon="2.70286">
        <ele>79.3</ele>
        <time>2018-04-15T14:12:07Z</time>
      </trkpt>
      <trkpt lat="48.40458" lon="2.70281">
        <ele>79.5</ele>
        <time>2018-04-15T14:12:08Z</time>
      </trkpt>
      <trkpt lat="48.4046" lon="2.70276">
        <ele>79.6</ele>
        <time>2018-04-15T14:12:09Z</time>
      </trkpt>
      <trkpt lat="48.40463" lon="2.7027">
        <ele>79.8</ele>
        <time>2018-04-15T14:12:10Z</time>
      </trkpt>
      <trkpt lat="48.40465" lon="2.70264">
        <ele>79.9</ele>
        <time>2018-04-15T14:12:11Z</time>
      </trkpt>
      <trkpt lat="48.40467" lon="2.70258">
        <ele>80.1</ele>
        <time>2018-04-15T14:12:12Z</time>
      </trkpt>
      <trkpt lat="48.40469" lon="2.70252">
        <ele>80.2</ele>
        <time>2018-04-15T14:12:13Z</time>
      </trkpt>
      <trkpt lat="48.40472" lon="2.70247">
        <ele>80.4</ele>
        <time>2018-04-15T14:12:14Z</time>
      </trkpt>
      <trkpt lat="48.40474" lon="2.70242">
        <ele>80.5</ele>
        <time>2018-04-15T14:12:15Z</time>
      </trkpt>
      <trkpt lat="48.40477" lon="2.70237">
        <ele>80.6</ele>
        <time>2018-04-15T14:12:16Z</time>
      </trkpt>
      <trkpt lat="48.40479" lon="2.70231">
        <ele>80.8</ele>
        <time>2018-04-15T14:12:17Z</time>
      </trkpt>
      <trkpt lat="48.40482" lon="2.70227">
        <ele>80.9</ele>
        <time>2018-04-15T14:12:18Z</time>
      </trkpt>
      <trkpt lat="48.40484" lon="2.70222">
        <ele>81</ele>
        <time>2018-04-15T14:12:19Z</time>
      </trkpt>
      <trkpt lat="48.40486" lon="2.70218">
        <ele>81.2</ele>
        <time>2018-04-15T14:12:20Z</time>
      </trkpt>
      <trkpt lat="48.40488" lon="2.70213">
        <ele>81.3</ele>
        <time>2018-04-15T14:12:21Z</time>
      </trkpt>
      <trkpt lat="48.4049" lon="2.70206">
        <ele>81.5</ele>
        <time>2018-04-15T14:12:22Z</time>
      </trkpt>
      <trkpt lat="48.40492" lon="2.70201">
        <ele>81.7</ele>
        <time>2018-04-15T14:12:23Z</time>
      </trkpt>
      <trkpt lat="48.40495" lon="2.70196">
        <ele>81.9</ele>
        <time>2018-04-15T14:12:24Z</time>
      </trkpt>
      <trkpt lat="48.40497" lon="2.70191">
        <ele>82</ele>
        <time>2018-04-15T14:12:25Z</time>
      </trkpt>
      <trkpt lat="48.40499" lon="2.70186">
        <ele>82.2</ele>
        <time>2018-04-15T14:12:26Z</time>
      </trkpt>
      <trkpt lat="48.40502" lon="2.70182">
        <ele>82.4</ele>
        <time>2018-04-15T14:12:27Z</time>
      </trkpt>
      <trkpt lat="48.40505" lon="2.70177">
        <ele>82.9</ele>
        <time>2018-04-15T14:12:28Z</time>
      </trkpt>
      <trkpt lat="48.40507" lon="2.70172">
        <ele>83</ele>
        <time>2018-04-15T14:12:29Z</time>
      </trkpt>
      <trkpt lat="48.40508" lon="2.70168">
        <ele>83.2</ele>
        <time>2018-04-15T14:12:30Z</time>
      </trkpt>
      <trkpt lat="48.4051" lon="2.70163">
        <ele>83.3</ele>
        <time>2018-04-15T14:12:31Z</time>
      </trkpt>
      <trkpt lat="48.40512" lon="2.70157">
        <ele>83.4</ele>
        <time>2018-04-15T14:12:32Z</time>
      </trkpt>
      <trkpt lat="48.40514" lon="2.70152">
        <ele>83.6</ele>
        <time>2018-04-15T14:12:33Z</time>
      </trkpt>
      <trkpt lat="48.40516" lon="2.70149">
        <ele>83.7</ele>
        <time>2018-04-15T14:12:34Z</time>
      </trkpt>
      <trkpt lat="48.40517" lon="2.70141">
        <ele>83.8</ele>
        <time>2018-04-15T14:12:36Z</time>
      </trkpt>
      <trkpt lat="48.40513" lon="2.70139">
        <ele>84</ele>
        <time>2018-04-15T14:12:37Z</time>
      </trkpt>
      <trkpt lat="48.4051" lon="2.70136">
        <ele>84</ele>
        <time>2018-04-15T14:12:38Z</time>
      </trkpt>
      <trkpt lat="48.40507" lon="2.70133">
        <ele>83.7</ele>
        <time>2018-04-15T14:12:39Z</time>
      </trkpt>
      <trkpt lat="48.40502" lon="2.70129">
        <ele>83.5</ele>
        <time>2018-04-15T14:12:40Z</time>
      </trkpt>
      <trkpt lat="48.40498" lon="2.70127">
        <ele>83.2</ele>
        <time>2018-04-15T14:12:41Z</time>
      </trkpt>
      <trkpt lat="48.40494" lon="2.70123">
        <ele>83</ele>
        <time>2018-04-15T14:12:42Z</time>
      </trkpt>
      <trkpt lat="48.4049" lon="2.70119">
        <ele>82.8</ele>
        <time>2018-04-15T14:12:43Z</time>
      </trkpt>
      <trkpt lat="48.40486" lon="2.70115">
        <ele>82.5</ele>
        <time>2018-04-15T14:12:44Z</time>
      </trkpt>
      <trkpt lat="48.40484" lon="2.70112">
        <ele>82.4</ele>
        <time>2018-04-15T14:12:45Z</time>
      </trkpt>
      <trkpt lat="48.4048" lon="2.70108">
        <ele>82.1</ele>
        <time>2018-04-15T14:12:47Z</time>
      </trkpt>
      <trkpt lat="48.40477" lon="2.70105">
        <ele>82</ele>
        <time>2018-04-15T14:12:49Z</time>
      </trkpt>
      <trkpt lat="48.40472" lon="2.70103">
        <ele>82</ele>
        <time>2018-04-15T14:12:52Z</time>
      </trkpt>
      <trkpt lat="48.40468" lon="2.701">
        <ele>82</ele>
        <time>2018-04-15T14:12:54Z</time>
      </trkpt>
      <trkpt lat="48.40464" lon="2.70098">
        <ele>82</ele>
        <time>2018-04-15T14:12:55Z</time>
      </trkpt>
      <trkpt lat="48.40461" lon="2.70095">
        <ele>82</ele>
        <time>2018-04-15T14:12:56Z</time>
      </trkpt>
      <trkpt lat="48.40457" lon="2.70091">
        <ele>82</ele>
        <time>2018-04-15T14:12:57Z</time>
      </trkpt>
      <trkpt lat="48.40454" lon="2.70085">
        <ele>82</ele>
        <time>2018-04-15T14:12:58Z</time>
      </trkpt>
      <trkpt lat="48.4045" lon="2.70081">
        <ele>82</ele>
        <time>2018-04-15T14:12:59Z</time>
      </trkpt>
      <trkpt lat="48.40447" lon="2.70078">
        <ele>82</ele>
        <time>2018-04-15T14:13:00Z</time>
      </trkpt>
      <trkpt lat="48.40444" lon="2.70074">
        <ele>82</ele>
        <time>2018-04-15T14:13:01Z</time>
      </trkpt>
      <trkpt lat="48.4044" lon="2.7007">
        <ele>82</ele>
        <time>2018-04-15T14:13:02Z</time>
      </trkpt>
      <trkpt lat="48.40436" lon="2.70065">
        <ele>82</ele>
        <time>2018-04-15T14:13:03Z</time>
      </trkpt>
      <trkpt lat="48.40432" lon="2.70061">
        <ele>82</ele>
        <time>2018-04-15T14:13:04Z</time>
      </trkpt>
      <trkpt lat="48.40429" lon="2.70057">
        <ele>81.9</ele>
        <time>2018-04-15T14:13:05Z</time>
      </trkpt>
      <trkpt lat="48.40424" lon="2.70053">
        <ele>81.8</ele>
        <time>2018-04-15T14:13:06Z</time>
      </trkpt>
      <trkpt lat="48.4042" lon="2.70048">
        <ele>81.7</ele>
        <time>2018-04-15T14:13:07Z</time>
      </trkpt>
      <trkpt lat="48.40415" lon="2.70043">
        <ele>81.6</ele>
        <time>2018-04-15T14:13:08Z</time>
      </trkpt>
      <trkpt lat="48.40411" lon="2.70036">
        <ele>81.5</ele>
        <time>2018-04-15T14:13:09Z</time>
      </trkpt>
      <trkpt lat="48.40406" lon="2.70029">
        <ele>81.3</ele>
        <time>2018-04-15T14:13:10Z</time>
      </trkpt>
      <trkpt lat="48.40402" lon="2.70022">
        <ele>80.8</ele>
        <time>2018-04-15T14:13:11Z</time>
      </trkpt>
      <trkpt lat="48.40399" lon="2.70013">
        <ele>80.1</ele>
        <time>2018-04-15T14:13:12Z</time>
      </trkpt>
      <trkpt lat="48.40397" lon="2.70005">
        <ele>80</ele>
        <time>2018-04-15T14:13:13Z</time>
      </trkpt>
      <trkpt lat="48.40394" lon="2.69998">
        <ele>80</ele>
        <time>2018-04-15T14:13:14Z</time>
      </trkpt>
      <trkpt lat="48.40392" lon="2.69992">
        <ele>80</ele>
        <time>2018-04-15T14:13:15Z</time>
      </trkpt>
      <trkpt lat="48.4039" lon="2.69985">
        <ele>80</ele>
        <time>2018-04-15T14:13:16Z</time>
      </trkpt>
      <trkpt lat="48.40388" lon="2.69979">
        <ele>80</ele>
        <time>2018-04-15T14:13:17Z</time>
      </trkpt>
      <trkpt lat="48.40385" lon="2.69973">
        <ele>80</ele>
        <time>2018-04-15T14:13:18Z</time>
      </trkpt>
      <trkpt lat="48.40381" lon="2.69966">
        <ele>80</ele>
        <time>2018-04-15T14:13:19Z</time>
      </trkpt>
      <trkpt lat="48.40379" lon="2.69959">
        <ele>80</ele>
        <time>2018-04-15T14:13:20Z</time>
      </trkpt>
      <trkpt lat="48.40376" lon="2.69952">
        <ele>80.1</ele>
        <time>2018-04-15T14:13:21Z</time>
      </trkpt>
      <trkpt lat="48.40374" lon="2.69945">
        <ele>80.1</ele>
        <time>2018-04-15T14:13:22Z</time>
      </trkpt>
      <trkpt lat="48.40371" lon="2.69939">
        <ele>80.1</ele>
        <time>2018-04-15T14:13:23Z</time>
      </trkpt>
      <trkpt lat="48.40368" lon="2.69932">
        <ele>80.1</ele>
        <time>2018-04-15T14:13:24Z</time>
      </trkpt>
      <trkpt lat="48.40365" lon="2.69925">
        <ele>80.1</ele>
        <time>2018-04-15T14:13:25Z</time>
      </trkpt>
      <trkpt lat="48.40362" lon="2.69918">
        <ele>80.1</ele>
        <time>2018-04-15T14:13:26Z</time>
      </trkpt>
      <trkpt lat="48.40359" lon="2.69911">
        <ele>80</ele>
        <time>2018-04-15T14:13:27Z</time>
      </trkpt>
      <trkpt lat="48.40356" lon="2.69905">
        <ele>80.1</ele>
        <time>2018-04-15T14:13:28Z</time>
      </trkpt>
      <trkpt lat="48.40353" lon="2.69898">
        <ele>80.1</ele>
        <time>2018-04-15T14:13:29Z</time>
      </trkpt>
      <trkpt lat="48.40349" lon="2.69891">
        <ele>80</ele>
        <time>2018-04-15T14:13:30Z</time>
      </trkpt>
      <trkpt lat="48.40346" lon="2.69884">
        <ele>80</ele>
        <time>2018-04-15T14:13:31Z</time>
      </trkpt>
      <trkpt lat="48.40343" lon="2.69878">
        <ele>79.9</ele>
        <time>2018-04-15T14:13:32Z</time>
      </trkpt>
      <trkpt lat="48.40341" lon="2.69871">
        <ele>79.7</ele>
        <time>2018-04-15T14:13:33Z</time>
      </trkpt>
      <trkpt lat="48.40337" lon="2.69864">
        <ele>79.4</ele>
        <time>2018-04-15T14:13:34Z</time>
      </trkpt>
      <trkpt lat="48.40335" lon="2.69858">
        <ele>79.1</ele>
        <time>2018-04-15T14:13:35Z</time>
      </trkpt>
      <trkpt lat="48.40331" lon="2.69851">
        <ele>78.8</ele>
        <time>2018-04-15T14:13:36Z</time>
      </trkpt>
      <trkpt lat="48.40328" lon="2.69844">
        <ele>78.5</ele>
        <time>2018-04-15T14:13:37Z</time>
      </trkpt>
      <trkpt lat="48.40325" lon="2.69837">
        <ele>78.2</ele>
        <time>2018-04-15T14:13:38Z</time>
      </trkpt>
      <trkpt lat="48.40322" lon="2.69828">
        <ele>77.9</ele>
        <time>2018-04-15T14:13:39Z</time>
      </trkpt>
      <trkpt lat="48.40319" lon="2.6982">
        <ele>77.7</ele>
        <time>2018-04-15T14:13:40Z</time>
      </trkpt>
      <trkpt lat="48.40315" lon="2.69811">
        <ele>77.4</ele>
        <time>2018-04-15T14:13:41Z</time>
      </trkpt>
      <trkpt lat="48.40312" lon="2.69803">
        <ele>77.2</ele>
        <time>2018-04-15T14:13:42Z</time>
      </trkpt>
      <trkpt lat="48.40308" lon="2.69796">
        <ele>77</ele>
        <time>2018-04-15T14:13:43Z</time>
      </trkpt>
      <trkpt lat="48.40305" lon="2.69789">
        <ele>77</ele>
        <time>2018-04-15T14:13:44Z</time>
      </trkpt>
      <trkpt lat="48.40302" lon="2.69783">
        <ele>77</ele>
        <time>2018-04-15T14:13:45Z</time>
      </trkpt>
      <trkpt lat="48.40299" lon="2.69775">
        <ele>76.9</ele>
        <time>2018-04-15T14:13:46Z</time>
      </trkpt>
      <trkpt lat="48.40296" lon="2.69768">
        <ele>76.9</ele>
        <time>2018-04-15T14:13:47Z</time>
      </trkpt>
      <trkpt lat="48.40292" lon="2.6976">
        <ele>76.9</ele>
        <time>2018-04-15T14:13:48Z</time>
      </trkpt>
      <trkpt lat="48.40288" lon="2.69752">
        <ele>76.9</ele>
        <time>2018-04-15T14:13:49Z</time>
      </trkpt>
      <trkpt lat="48.40284" lon="2.69745">
        <ele>76.9</ele>
        <time>2018-04-15T14:13:50Z</time>
      </trkpt>
      <trkpt lat="48.40281" lon="2.69738">
        <ele>76.9</ele>
        <time>2018-04-15T14:13:51Z</time>
      </trkpt>
      <trkpt lat="48.40278" lon="2.69729">
        <ele>76.8</ele>
        <time>2018-04-15T14:13:52Z</time>
      </trkpt>
      <trkpt lat="48.40274" lon="2.69721">
        <ele>76.8</ele>
        <time>2018-04-15T14:13:53Z</time>
      </trkpt>
      <trkpt lat="48.4027" lon="2.69712">
        <ele>76.8</ele>
        <time>2018-04-15T14:13:54Z</time>
      </trkpt>
      <trkpt lat="48.40267" lon="2.69703">
        <ele>76.9</ele>
        <time>2018-04-15T14:13:55Z</time>
      </trkpt>
      <trkpt lat="48.40264" lon="2.69695">
        <ele>77</ele>
        <time>2018-04-15T14:13:56Z</time>
      </trkpt>
      <trkpt lat="48.40261" lon="2.69689">
        <ele>77</ele>
        <time>2018-04-15T14:13:57Z</time>
      </trkpt>
      <trkpt lat="48.40258" lon="2.69683">
        <ele>77.6</ele>
        <time>2018-04-15T14:13:58Z</time>
      </trkpt>
      <trkpt lat="48.40255" lon="2.69679">
        <ele>78.1</ele>
        <time>2018-04-15T14:13:59Z</time>
      </trkpt>
      <trkpt lat="48.40252" lon="2.69674">
        <ele>78.6</ele>
        <time>2018-04-15T14:14:01Z</time>
      </trkpt>
      <trkpt lat="48.40249" lon="2.6967">
        <ele>79.1</ele>
        <time>2018-04-15T14:14:03Z</time>
      </trkpt>
      <trkpt lat="48.40244" lon="2.6967">
        <ele>78.6</ele>
        <time>2018-04-15T14:14:05Z</time>
      </trkpt>
      <trkpt lat="48.4024" lon="2.69671">
        <ele>78.3</ele>
        <time>2018-04-15T14:14:06Z</time>
      </trkpt>
      <trkpt lat="48.40237" lon="2.69672">
        <ele>78</ele>
        <time>2018-04-15T14:14:07Z</time>
      </trkpt>
      <trkpt lat="48.40233" lon="2.69674">
        <ele>77.6</ele>
        <time>2018-04-15T14:14:08Z</time>
      </trkpt>
      <trkpt lat="48.40229" lon="2.69676">
        <ele>77.2</ele>
        <time>2018-04-15T14:14:09Z</time>
      </trkpt>
      <trkpt lat="48.40224" lon="2.69678">
        <ele>76.8</ele>
        <time>2018-04-15T14:14:10Z</time>
      </trkpt>
      <trkpt lat="48.4022" lon="2.6968">
        <ele>76.4</ele>
        <time>2018-04-15T14:14:11Z</time>
      </trkpt>
      <trkpt lat="48.40216" lon="2.69681">
        <ele>76</ele>
        <time>2018-04-15T14:14:12Z</time>
      </trkpt>
      <trkpt lat="48.40211" lon="2.69681">
        <ele>76.1</ele>
        <time>2018-04-15T14:14:13Z</time>
      </trkpt>
      <trkpt lat="48.40206" lon="2.6968">
        <ele>76.3</ele>
        <time>2018-04-15T14:14:14Z</time>
      </trkpt>
      <trkpt lat="48.40201" lon="2.6968">
        <ele>76.4</ele>
        <time>2018-04-15T14:14:15Z</time>
      </trkpt>
      <trkpt lat="48.40196" lon="2.69679">
        <ele>76.5</ele>
        <time>2018-04-15T14:14:16Z</time>
      </trkpt>
      <trkpt lat="48.40191" lon="2.69677">
        <ele>76.5</ele>
        <time>2018-04-15T14:14:17Z</time>
      </trkpt>
      <trkpt lat="48.40186" lon="2.69675">
        <ele>76.6</ele>
        <time>2018-04-15T14:14:18Z</time>
      </trkpt>
      <trkpt lat="48.40182" lon="2.69673">
        <ele>76.7</ele>
        <time>2018-04-15T14:14:19Z</time>
      </trkpt>
      <trkpt lat="48.40177" lon="2.69672">
        <ele>76.7</ele>
        <time>2018-04-15T14:14:20Z</time>
      </trkpt>
      <trkpt lat="48.40172" lon="2.6967">
        <ele>76.8</ele>
        <time>2018-04-15T14:14:21Z</time>
      </trkpt>
      <trkpt lat="48.40168" lon="2.69669">
        <ele>76.8</ele>
        <time>2018-04-15T14:14:22Z</time>
      </trkpt>
      <trkpt lat="48.40164" lon="2.69667">
        <ele>76.9</ele>
        <time>2018-04-15T14:14:23Z</time>
      </trkpt>
      <trkpt lat="48.40161" lon="2.69665">
        <ele>76.9</ele>
        <time>2018-04-15T14:14:24Z</time>
      </trkpt>
      <trkpt lat="48.40156" lon="2.69662">
        <ele>77</ele>
        <time>2018-04-15T14:14:26Z</time>
      </trkpt>
      <trkpt lat="48.40154" lon="2.6966">
        <ele>77</ele>
        <time>2018-04-15T14:14:27Z</time>
      </trkpt>
      <trkpt lat="48.40151" lon="2.69658">
        <ele>76.9</ele>
        <time>2018-04-15T14:14:28Z</time>
      </trkpt>
      <trkpt lat="48.40149" lon="2.69656">
        <ele>76.9</ele>
        <time>2018-04-15T14:14:29Z</time>
      </trkpt>
      <trkpt lat="48.40145" lon="2.69654">
        <ele>76.8</ele>
        <time>2018-04-15T14:14:30Z</time>
      </trkpt>
      <trkpt lat="48.40142" lon="2.69652">
        <ele>76.7</ele>
        <time>2018-04-15T14:14:31Z</time>
      </trkpt>
      <trkpt lat="48.40138" lon="2.69649">
        <ele>76.7</ele>
        <time>2018-04-15T14:14:32Z</time>
      </trkpt>
      <trkpt lat="48.40135" lon="2.69646">
        <ele>76.6</ele>
        <time>2018-04-15T14:14:33Z</time>
      </trkpt>
      <trkpt lat="48.40132" lon="2.69643">
        <ele>76.6</ele>
        <time>2018-04-15T14:14:34Z</time>
      </trkpt>
      <trkpt lat="48.40128" lon="2.6964">
        <ele>76.5</ele>
        <time>2018-04-15T14:14:35Z</time>
      </trkpt>
      <trkpt lat="48.40124" lon="2.69636">
        <ele>76.4</ele>
        <time>2018-04-15T14:14:36Z</time>
      </trkpt>
      <trkpt lat="48.40121" lon="2.69634">
        <ele>76.4</ele>
        <time>2018-04-15T14:14:37Z</time>
      </trkpt>
      <trkpt lat="48.40117" lon="2.69631">
        <ele>76.4</ele>
        <time>2018-04-15T14:14:38Z</time>
      </trkpt>
      <trkpt lat="48.40113" lon="2.69629">
        <ele>76.3</ele>
        <time>2018-04-15T14:14:39Z</time>
      </trkpt>
      <trkpt lat="48.40108" lon="2.69626">
        <ele>76.3</ele>
        <time>2018-04-15T14:14:40Z</time>
      </trkpt>
      <trkpt lat="48.40104" lon="2.69623">
        <ele>76.3</ele>
        <time>2018-04-15T14:14:41Z</time>
      </trkpt>
      <trkpt lat="48.401" lon="2.6962">
        <ele>76.2</ele>
        <time>2018-04-15T14:14:42Z</time>
      </trkpt>
      <trkpt lat="48.40095" lon="2.69617">
        <ele>76.2</ele>
        <time>2018-04-15T14:14:43Z</time>
      </trkpt>
      <trkpt lat="48.40091" lon="2.69614">
        <ele>76.1</ele>
        <time>2018-04-15T14:14:44Z</time>
      </trkpt>
      <trkpt lat="48.40088" lon="2.69611">
        <ele>76.1</ele>
        <time>2018-04-15T14:14:45Z</time>
      </trkpt>
      <trkpt lat="48.40083" lon="2.69608">
        <ele>76.1</ele>
        <time>2018-04-15T14:14:46Z</time>
      </trkpt>
      <trkpt lat="48.40079" lon="2.69604">
        <ele>76</ele>
        <time>2018-04-15T14:14:47Z</time>
      </trkpt>
      <trkpt lat="48.40075" lon="2.696">
        <ele>76</ele>
        <time>2018-04-15T14:14:48Z</time>
      </trkpt>
      <trkpt lat="48.40071" lon="2.69596">
        <ele>76</ele>
        <time>2018-04-15T14:14:49Z</time>
      </trkpt>
      <trkpt lat="48.40067" lon="2.69592">
        <ele>76</ele>
        <time>2018-04-15T14:14:50Z</time>
      </trkpt>
      <trkpt lat="48.40064" lon="2.69588">
        <ele>76.1</ele>
        <time>2018-04-15T14:14:51Z</time>
      </trkpt>
      <trkpt lat="48.4006" lon="2.69583">
        <ele>76.2</ele>
        <time>2018-04-15T14:14:52Z</time>
      </trkpt>
      <trkpt lat="48.40057" lon="2.69579">
        <ele>76.3</ele>
        <time>2018-04-15T14:14:53Z</time>
      </trkpt>
      <trkpt lat="48.40054" lon="2.69575">
        <ele>76.3</ele>
        <time>2018-04-15T14:14:54Z</time>
      </trkpt>
      <trkpt lat="48.4005" lon="2.69572">
        <ele>76.4</ele>
        <time>2018-04-15T14:14:55Z</time>
      </trkpt>
      <trkpt lat="48.40046" lon="2.69569">
        <ele>76.5</ele>
        <time>2018-04-15T14:14:56Z</time>
      </trkpt>
      <trkpt lat="48.40043" lon="2.69566">
        <ele>76.5</ele>
        <time>2018-04-15T14:14:57Z</time>
      </trkpt>
      <trkpt lat="48.4004" lon="2.69562">
        <ele>76.6</ele>
        <time>2018-04-15T14:14:58Z</time>
      </trkpt>
      <trkpt lat="48.40037" lon="2.69559">
        <ele>76.7</ele>
        <time>2018-04-15T14:14:59Z</time>
      </trkpt>
      <trkpt lat="48.40033" lon="2.69555">
        <ele>76.8</ele>
        <time>2018-04-15T14:15:00Z</time>
      </trkpt>
      <trkpt lat="48.40031" lon="2.69552">
        <ele>76.8</ele>
        <time>2018-04-15T14:15:01Z</time>
      </trkpt>
      <trkpt lat="48.40028" lon="2.6955">
        <ele>76.9</ele>
        <time>2018-04-15T14:15:02Z</time>
      </trkpt>
      <trkpt lat="48.40025" lon="2.69546">
        <ele>77</ele>
        <time>2018-04-15T14:15:03Z</time>
      </trkpt>
      <trkpt lat="48.40021" lon="2.69543">
        <ele>77.6</ele>
        <time>2018-04-15T14:15:04Z</time>
      </trkpt>
      <trkpt lat="48.40017" lon="2.69539">
        <ele>78.2</ele>
        <time>2018-04-15T14:15:05Z</time>
      </trkpt>
      <trkpt lat="48.40013" lon="2.69535">
        <ele>78.8</ele>
        <time>2018-04-15T14:15:06Z</time>
      </trkpt>
      <trkpt lat="48.40009" lon="2.69532">
        <ele>79.4</ele>
        <time>2018-04-15T14:15:07Z</time>
      </trkpt>
      <trkpt lat="48.40005" lon="2.69528">
        <ele>80</ele>
        <time>2018-04-15T14:15:08Z</time>
      </trkpt>
      <trkpt lat="48.40001" lon="2.69525">
        <ele>80.6</ele>
        <time>2018-04-15T14:15:09Z</time>
      </trkpt>
      <trkpt lat="48.39997" lon="2.6952">
        <ele>81</ele>
        <time>2018-04-15T14:15:10Z</time>
      </trkpt>
      <trkpt lat="48.39993" lon="2.69516">
        <ele>81</ele>
        <time>2018-04-15T14:15:11Z</time>
      </trkpt>
      <trkpt lat="48.39989" lon="2.69512">
        <ele>81</ele>
        <time>2018-04-15T14:15:12Z</time>
      </trkpt>
      <trkpt lat="48.39984" lon="2.69507">
        <ele>81</ele>
        <time>2018-04-15T14:15:13Z</time>
      </trkpt>
      <trkpt lat="48.3998" lon="2.69503">
        <ele>81</ele>
        <time>2018-04-15T14:15:14Z</time>
      </trkpt>
      <trkpt lat="48.39976" lon="2.69499">
        <ele>81.1</ele>
        <time>2018-04-15T14:15:15Z</time>
      </trkpt>
      <trkpt lat="48.39972" lon="2.69496">
        <ele>81.2</ele>
        <time>2018-04-15T14:15:16Z</time>
      </trkpt>
      <trkpt lat="48.39968" lon="2.69492">
        <ele>81.3</ele>
        <time>2018-04-15T14:15:17Z</time>
      </trkpt>
      <trkpt lat="48.39965" lon="2.6949">
        <ele>81.3</ele>
        <time>2018-04-15T14:15:18Z</time>
      </trkpt>
      <trkpt lat="48.39963" lon="2.69487">
        <ele>81.3</ele>
        <time>2018-04-15T14:15:19Z</time>
      </trkpt>
      <trkpt lat="48.39961" lon="2.69484">
        <ele>81.3</ele>
        <time>2018-04-15T14:15:20Z</time>
      </trkpt>
      <trkpt lat="48.3996" lon="2.6948">
        <ele>81.3</ele>
        <time>2018-04-15T14:15:22Z</time>
      </trkpt>
      <trkpt lat="48.39957" lon="2.69474">
        <ele>81.4</ele>
        <time>2018-04-15T14:15:25Z</time>
      </trkpt>
      <trkpt lat="48.39955" lon="2.69472">
        <ele>81.4</ele>
        <time>2018-04-15T14:15:26Z</time>
      </trkpt>
      <trkpt lat="48.39952" lon="2.6947">
        <ele>81.4</ele>
        <time>2018-04-15T14:15:27Z</time>
      </trkpt>
      <trkpt lat="48.39949" lon="2.69467">
        <ele>81.4</ele>
        <time>2018-04-15T14:15:28Z</time>
      </trkpt>
      <trkpt lat="48.39945" lon="2.69464">
        <ele>81.3</ele>
        <time>2018-04-15T14:15:33Z</time>
      </trkpt>
      <trkpt lat="48.39943" lon="2.69468">
        <ele>81.3</ele>
        <time>2018-04-15T14:15:35Z</time>
      </trkpt>
      <trkpt lat="48.39946" lon="2.69473">
        <ele>81.4</ele>
        <time>2018-04-15T14:15:37Z</time>
      </trkpt>
      <trkpt lat="48.39949" lon="2.69474">
        <ele>81.4</ele>
        <time>2018-04-15T14:15:38Z</time>
      </trkpt>
      <trkpt lat="48.39953" lon="2.69477">
        <ele>81.4</ele>
        <time>2018-04-15T14:15:39Z</time>
      </trkpt>
      <trkpt lat="48.39957" lon="2.69479">
        <ele>81.3</ele>
        <time>2018-04-15T14:15:40Z</time>
      </trkpt>
      <trkpt lat="48.3996" lon="2.69482">
        <ele>81.3</ele>
        <time>2018-04-15T14:15:41Z</time>
      </trkpt>
      <trkpt lat="48.39964" lon="2.69486">
        <ele>81.3</ele>
        <time>2018-04-15T14:15:42Z</time>
      </trkpt>
      <trkpt lat="48.39968" lon="2.6949">
        <ele>81.3</ele>
        <time>2018-04-15T14:15:43Z</time>
      </trkpt>
      <trkpt lat="48.39972" lon="2.69493">
        <ele>81.3</ele>
        <time>2018-04-15T14:15:44Z</time>
      </trkpt>
      <trkpt lat="48.39975" lon="2.69496">
        <ele>81.2</ele>
        <time>2018-04-15T14:15:45Z</time>
      </trkpt>
      <trkpt lat="48.39979" lon="2.695">
        <ele>81.1</ele>
        <time>2018-04-15T14:15:46Z</time>
      </trkpt>
      <trkpt lat="48.39983" lon="2.69504">
        <ele>81</ele>
        <time>2018-04-15T14:15:47Z</time>
      </trkpt>
      <trkpt lat="48.39988" lon="2.69507">
        <ele>81</ele>
        <time>2018-04-15T14:15:48Z</time>
      </trkpt>
      <trkpt lat="48.39992" lon="2.6951">
        <ele>81</ele>
        <time>2018-04-15T14:15:49Z</time>
      </trkpt>
      <trkpt lat="48.39996" lon="2.69513">
        <ele>81</ele>
        <time>2018-04-15T14:15:50Z</time>
      </trkpt>
      <trkpt lat="48.4" lon="2.69516">
        <ele>81</ele>
        <time>2018-04-15T14:15:51Z</time>
      </trkpt>
      <trkpt lat="48.40005" lon="2.6952">
        <ele>80.5</ele>
        <time>2018-04-15T14:15:52Z</time>
      </trkpt>
      <trkpt lat="48.40009" lon="2.69524">
        <ele>79.8</ele>
        <time>2018-04-15T14:15:53Z</time>
      </trkpt>
      <trkpt lat="48.40013" lon="2.69529">
        <ele>79.1</ele>
        <time>2018-04-15T14:15:54Z</time>
      </trkpt>
      <trkpt lat="48.40018" lon="2.69534">
        <ele>78.3</ele>
        <time>2018-04-15T14:15:55Z</time>
      </trkpt>
      <trkpt lat="48.40022" lon="2.69539">
        <ele>77.6</ele>
        <time>2018-04-15T14:15:56Z</time>
      </trkpt>
      <trkpt lat="48.40026" lon="2.69544">
        <ele>77</ele>
        <time>2018-04-15T14:15:57Z</time>
      </trkpt>
      <trkpt lat="48.4003" lon="2.6955">
        <ele>76.8</ele>
        <time>2018-04-15T14:15:58Z</time>
      </trkpt>
      <trkpt lat="48.40035" lon="2.69555">
        <ele>76.7</ele>
        <time>2018-04-15T14:15:59Z</time>
      </trkpt>
      <trkpt lat="48.40039" lon="2.6956">
        <ele>76.6</ele>
        <time>2018-04-15T14:16:00Z</time>
      </trkpt>
      <trkpt lat="48.40043" lon="2.69565">
        <ele>76.5</ele>
        <time>2018-04-15T14:16:01Z</time>
      </trkpt>
      <trkpt lat="48.40048" lon="2.6957">
        <ele>76.5</ele>
        <time>2018-04-15T14:16:02Z</time>
      </trkpt>
      <trkpt lat="48.40053" lon="2.69575">
        <ele>76.4</ele>
        <time>2018-04-15T14:16:03Z</time>
      </trkpt>
      <trkpt lat="48.40057" lon="2.6958">
        <ele>76.3</ele>
        <time>2018-04-15T14:16:04Z</time>
      </trkpt>
      <trkpt lat="48.40062" lon="2.69584">
        <ele>76.2</ele>
        <time>2018-04-15T14:16:05Z</time>
      </trkpt>
      <trkpt lat="48.40067" lon="2.69588">
        <ele>76</ele>
        <time>2018-04-15T14:16:06Z</time>
      </trkpt>
      <trkpt lat="48.40072" lon="2.69591">
        <ele>76</ele>
        <time>2018-04-15T14:16:07Z</time>
      </trkpt>
      <trkpt lat="48.40077" lon="2.69596">
        <ele>76</ele>
        <time>2018-04-15T14:16:08Z</time>
      </trkpt>
      <trkpt lat="48.40082" lon="2.696">
        <ele>76.1</ele>
        <time>2018-04-15T14:16:09Z</time>
      </trkpt>
      <trkpt lat="48.40087" lon="2.69605">
        <ele>76.1</ele>
        <time>2018-04-15T14:16:10Z</time>
      </trkpt>
      <trkpt lat="48.40092" lon="2.69609">
        <ele>76.1</ele>
        <time>2018-04-15T14:16:11Z</time>
      </trkpt>
      <trkpt lat="48.40096" lon="2.69613">
        <ele>76.2</ele>
        <time>2018-04-15T14:16:12Z</time>
      </trkpt>
      <trkpt lat="48.40101" lon="2.69618">
        <ele>76.2</ele>
        <time>2018-04-15T14:16:13Z</time>
      </trkpt>
      <trkpt lat="48.40106" lon="2.69623">
        <ele>76.3</ele>
        <time>2018-04-15T14:16:14Z</time>
      </trkpt>
      <trkpt lat="48.40111" lon="2.69627">
        <ele>76.3</ele>
        <time>2018-04-15T14:16:15Z</time>
      </trkpt>
      <trkpt lat="48.40116" lon="2.69631">
        <ele>76.4</ele>
        <time>2018-04-15T14:16:16Z</time>
      </trkpt>
      <trkpt lat="48.40121" lon="2.69635">
        <ele>76.4</ele>
        <time>2018-04-15T14:16:17Z</time>
      </trkpt>
      <trkpt lat="48.40126" lon="2.6964">
        <ele>76.5</ele>
        <time>2018-04-15T14:16:18Z</time>
      </trkpt>
      <trkpt lat="48.40131" lon="2.69644">
        <ele>76.6</ele>
        <time>2018-04-15T14:16:19Z</time>
      </trkpt>
      <trkpt lat="48.40137" lon="2.69649">
        <ele>76.7</ele>
        <time>2018-04-15T14:16:20Z</time>
      </trkpt>
      <trkpt lat="48.40143" lon="2.69653">
        <ele>76.8</ele>
        <time>2018-04-15T14:16:21Z</time>
      </trkpt>
      <trkpt lat="48.40148" lon="2.69656">
        <ele>76.9</ele>
        <time>2018-04-15T14:16:22Z</time>
      </trkpt>
      <trkpt lat="48.40154" lon="2.6966">
        <ele>77</ele>
        <time>2018-04-15T14:16:23Z</time>
      </trkpt>
      <trkpt lat="48.40159" lon="2.69664">
        <ele>77</ele>
        <time>2018-04-15T14:16:24Z</time>
      </trkpt>
      <trkpt lat="48.40165" lon="2.69668">
        <ele>76.9</ele>
        <time>2018-04-15T14:16:25Z</time>
      </trkpt>
      <trkpt lat="48.40171" lon="2.6967">
        <ele>76.8</ele>
        <time>2018-04-15T14:16:26Z</time>
      </trkpt>
      <trkpt lat="48.40177" lon="2.69672">
        <ele>76.7</ele>
        <time>2018-04-15T14:16:27Z</time>
      </trkpt>
      <trkpt lat="48.40183" lon="2.69674">
        <ele>76.7</ele>
        <time>2018-04-15T14:16:28Z</time>
      </trkpt>
      <trkpt lat="48.40188" lon="2.69676">
        <ele>76.6</ele>
        <time>2018-04-15T14:16:29Z</time>
      </trkpt>
      <trkpt lat="48.40193" lon="2.69677">
        <ele>76.5</ele>
        <time>2018-04-15T14:16:30Z</time>
      </trkpt>
      <trkpt lat="48.40199" lon="2.69679">
        <ele>76.4</ele>
        <time>2018-04-15T14:16:31Z</time>
      </trkpt>
      <trkpt lat="48.40204" lon="2.6968">
        <ele>76.3</ele>
        <time>2018-04-15T14:16:32Z</time>
      </trkpt>
      <trkpt lat="48.4021" lon="2.69681">
        <ele>76.2</ele>
        <time>2018-04-15T14:16:33Z</time>
      </trkpt>
      <trkpt lat="48.40215" lon="2.69681">
        <ele>76</ele>
        <time>2018-04-15T14:16:34Z</time>
      </trkpt>
      <trkpt lat="48.40221" lon="2.69682">
        <ele>76.1</ele>
        <time>2018-04-15T14:16:35Z</time>
      </trkpt>
      <trkpt lat="48.40226" lon="2.69682">
        <ele>76.2</ele>
        <time>2018-04-15T14:16:36Z</time>
      </trkpt>
      <trkpt lat="48.40231" lon="2.69683">
        <ele>76.3</ele>
        <time>2018-04-15T14:16:37Z</time>
      </trkpt>
      <trkpt lat="48.40235" lon="2.69684">
        <ele>76.4</ele>
        <time>2018-04-15T14:16:38Z</time>
      </trkpt>
      <trkpt lat="48.4024" lon="2.69684">
        <ele>76.5</ele>
        <time>2018-04-15T14:16:39Z</time>
      </trkpt>
      <trkpt lat="48.40243" lon="2.69684">
        <ele>76.6</ele>
        <time>2018-04-15T14:16:40Z</time>
      </trkpt>
      <trkpt lat="48.40246" lon="2.69684">
        <ele>76.7</ele>
        <time>2018-04-15T14:16:41Z</time>
      </trkpt>
      <trkpt lat="48.40251" lon="2.69684">
        <ele>76.8</ele>
        <time>2018-04-15T14:16:43Z</time>
      </trkpt>
      <trkpt lat="48.40254" lon="2.69684">
        <ele>76.9</ele>
        <time>2018-04-15T14:16:45Z</time>
      </trkpt>
      <trkpt lat="48.40258" lon="2.69686">
        <ele>77</ele>
        <time>2018-04-15T14:16:47Z</time>
      </trkpt>
      <trkpt lat="48.40262" lon="2.69686">
        <ele>77.1</ele>
        <time>2018-04-15T14:16:49Z</time>
      </trkpt>
      <trkpt lat="48.40263" lon="2.69679">
        <ele>77.8</ele>
        <time>2018-04-15T14:16:51Z</time>
      </trkpt>
      <trkpt lat="48.40261" lon="2.69675">
        <ele>78.2</ele>
        <time>2018-04-15T14:16:52Z</time>
      </trkpt>
      <trkpt lat="48.4026" lon="2.69671">
        <ele>78.6</ele>
        <time>2018-04-15T14:16:53Z</time>
      </trkpt>
      <trkpt lat="48.40259" lon="2.69666">
        <ele>79.1</ele>
        <time>2018-04-15T14:16:54Z</time>
      </trkpt>
      <trkpt lat="48.40258" lon="2.6966">
        <ele>79.6</ele>
        <time>2018-04-15T14:16:55Z</time>
      </trkpt>
      <trkpt lat="48.40257" lon="2.69655">
        <ele>80</ele>
        <time>2018-04-15T14:16:56Z</time>
      </trkpt>
      <trkpt lat="48.40258" lon="2.69649">
        <ele>80</ele>
        <time>2018-04-15T14:16:57Z</time>
      </trkpt>
      <trkpt lat="48.40259" lon="2.69643">
        <ele>80</ele>
        <time>2018-04-15T14:16:58Z</time>
      </trkpt>
      <trkpt lat="48.4026" lon="2.69637">
        <ele>80</ele>
        <time>2018-04-15T14:16:59Z</time>
      </trkpt>
      <trkpt lat="48.40261" lon="2.69631">
        <ele>80</ele>
        <time>2018-04-15T14:17:00Z</time>
      </trkpt>
      <trkpt lat="48.40261" lon="2.69625">
        <ele>80.1</ele>
        <time>2018-04-15T14:17:01Z</time>
      </trkpt>
      <trkpt lat="48.40262" lon="2.69618">
        <ele>80.1</ele>
        <time>2018-04-15T14:17:02Z</time>
      </trkpt>
      <trkpt lat="48.40263" lon="2.69612">
        <ele>80.2</ele>
        <time>2018-04-15T14:17:03Z</time>
      </trkpt>
      <trkpt lat="48.40265" lon="2.69605">
        <ele>80.3</ele>
        <time>2018-04-15T14:17:04Z</time>
      </trkpt>
      <trkpt lat="48.40266" lon="2.69599">
        <ele>80.4</ele>
        <time>2018-04-15T14:17:05Z</time>
      </trkpt>
      <trkpt lat="48.40268" lon="2.69592">
        <ele>80.5</ele>
        <time>2018-04-15T14:17:06Z</time>
      </trkpt>
      <trkpt lat="48.40268" lon="2.69585">
        <ele>80.6</ele>
        <time>2018-04-15T14:17:07Z</time>
      </trkpt>
      <trkpt lat="48.40269" lon="2.69578">
        <ele>80.7</ele>
        <time>2018-04-15T14:17:08Z</time>
      </trkpt>
      <trkpt lat="48.4027" lon="2.69571">
        <ele>80.7</ele>
        <time>2018-04-15T14:17:09Z</time>
      </trkpt>
      <trkpt lat="48.40271" lon="2.69565">
        <ele>80.8</ele>
        <time>2018-04-15T14:17:10Z</time>
      </trkpt>
      <trkpt lat="48.40272" lon="2.69558">
        <ele>80.8</ele>
        <time>2018-04-15T14:17:11Z</time>
      </trkpt>
      <trkpt lat="48.40274" lon="2.6955">
        <ele>80.8</ele>
        <time>2018-04-15T14:17:12Z</time>
      </trkpt>
      <trkpt lat="48.40276" lon="2.69543">
        <ele>80.9</ele>
        <time>2018-04-15T14:17:13Z</time>
      </trkpt>
      <trkpt lat="48.40277" lon="2.69536">
        <ele>80.9</ele>
        <time>2018-04-15T14:17:14Z</time>
      </trkpt>
      <trkpt lat="48.40278" lon="2.69528">
        <ele>80.9</ele>
        <time>2018-04-15T14:17:15Z</time>
      </trkpt>
      <trkpt lat="48.40281" lon="2.69521">
        <ele>80.9</ele>
        <time>2018-04-15T14:17:16Z</time>
      </trkpt>
      <trkpt lat="48.40283" lon="2.69514">
        <ele>80.9</ele>
        <time>2018-04-15T14:17:17Z</time>
      </trkpt>
      <trkpt lat="48.40285" lon="2.69507">
        <ele>81</ele>
        <time>2018-04-15T14:17:18Z</time>
      </trkpt>
      <trkpt lat="48.40288" lon="2.695">
        <ele>81</ele>
        <time>2018-04-15T14:17:19Z</time>
      </trkpt>
      <trkpt lat="48.40291" lon="2.69495">
        <ele>81</ele>
        <time>2018-04-15T14:17:20Z</time>
      </trkpt>
      <trkpt lat="48.40294" lon="2.6949">
        <ele>81</ele>
        <time>2018-04-15T14:17:21Z</time>
      </trkpt>
      <trkpt lat="48.40296" lon="2.69483">
        <ele>80.9</ele>
        <time>2018-04-15T14:17:22Z</time>
      </trkpt>
      <trkpt lat="48.40299" lon="2.69477">
        <ele>80.9</ele>
        <time>2018-04-15T14:17:23Z</time>
      </trkpt>
      <trkpt lat="48.40302" lon="2.69471">
        <ele>80.8</ele>
        <time>2018-04-15T14:17:24Z</time>
      </trkpt>
      <trkpt lat="48.40305" lon="2.69463">
        <ele>80.7</ele>
        <time>2018-04-15T14:17:25Z</time>
      </trkpt>
      <trkpt lat="48.40307" lon="2.69456">
        <ele>80.7</ele>
        <time>2018-04-15T14:17:26Z</time>
      </trkpt>
      <trkpt lat="48.40309" lon="2.69449">
        <ele>80.6</ele>
        <time>2018-04-15T14:17:27Z</time>
      </trkpt>
      <trkpt lat="48.40311" lon="2.69443">
        <ele>80.5</ele>
        <time>2018-04-15T14:17:28Z</time>
      </trkpt>
      <trkpt lat="48.40314" lon="2.69436">
        <ele>80.5</ele>
        <time>2018-04-15T14:17:29Z</time>
      </trkpt>
      <trkpt lat="48.40316" lon="2.69428">
        <ele>80.4</ele>
        <time>2018-04-15T14:17:30Z</time>
      </trkpt>
      <trkpt lat="48.40319" lon="2.69421">
        <ele>80.3</ele>
        <time>2018-04-15T14:17:31Z</time>
      </trkpt>
      <trkpt lat="48.40321" lon="2.69414">
        <ele>80.3</ele>
        <time>2018-04-15T14:17:32Z</time>
      </trkpt>
      <trkpt lat="48.40323" lon="2.69406">
        <ele>80.2</ele>
        <time>2018-04-15T14:17:33Z</time>
      </trkpt>
      <trkpt lat="48.40325" lon="2.69399">
        <ele>80.2</ele>
        <time>2018-04-15T14:17:34Z</time>
      </trkpt>
      <trkpt lat="48.40327" lon="2.69394">
        <ele>80.1</ele>
        <time>2018-04-15T14:17:35Z</time>
      </trkpt>
      <trkpt lat="48.40329" lon="2.69387">
        <ele>80.1</ele>
        <time>2018-04-15T14:17:36Z</time>
      </trkpt>
      <trkpt lat="48.40331" lon="2.6938">
        <ele>80</ele>
        <time>2018-04-15T14:17:37Z</time>
      </trkpt>
      <trkpt lat="48.40333" lon="2.69371">
        <ele>80</ele>
        <time>2018-04-15T14:17:38Z</time>
      </trkpt>
      <trkpt lat="48.40336" lon="2.69362">
        <ele>80.1</ele>
        <time>2018-04-15T14:17:39Z</time>
      </trkpt>
      <trkpt lat="48.40339" lon="2.69355">
        <ele>80.2</ele>
        <time>2018-04-15T14:17:40Z</time>
      </trkpt>
      <trkpt lat="48.40342" lon="2.69347">
        <ele>80.2</ele>
        <time>2018-04-15T14:17:41Z</time>
      </trkpt>
      <trkpt lat="48.40344" lon="2.6934">
        <ele>80.3</ele>
        <time>2018-04-15T14:17:42Z</time>
      </trkpt>
      <trkpt lat="48.40346" lon="2.69332">
        <ele>80.3</ele>
        <time>2018-04-15T14:17:43Z</time>
      </trkpt>
      <trkpt lat="48.40349" lon="2.69325">
        <ele>80.4</ele>
        <time>2018-04-15T14:17:44Z</time>
      </trkpt>
      <trkpt lat="48.40351" lon="2.69317">
        <ele>80.4</ele>
        <time>2018-04-15T14:17:45Z</time>
      </trkpt>
      <trkpt lat="48.40354" lon="2.6931">
        <ele>80.4</ele>
        <time>2018-04-15T14:17:46Z</time>
      </trkpt>
      <trkpt lat="48.40357" lon="2.69303">
        <ele>80.5</ele>
        <time>2018-04-15T14:17:47Z</time>
      </trkpt>
      <trkpt lat="48.4036" lon="2.69295">
        <ele>80.5</ele>
        <time>2018-04-15T14:17:48Z</time>
      </trkpt>
      <trkpt lat="48.40363" lon="2.69289">
        <ele>80.6</ele>
        <time>2018-04-15T14:17:49Z</time>
      </trkpt>
      <trkpt lat="48.40367" lon="2.69282">
        <ele>80.6</ele>
        <time>2018-04-15T14:17:50Z</time>
      </trkpt>
      <trkpt lat="48.4037" lon="2.69275">
        <ele>80.6</ele>
        <time>2018-04-15T14:17:51Z</time>
      </trkpt>
      <trkpt lat="48.40372" lon="2.69266">
        <ele>80.7</ele>
        <time>2018-04-15T14:17:52Z</time>
      </trkpt>
      <trkpt lat="48.40375" lon="2.69258">
        <ele>80.7</ele>
        <time>2018-04-15T14:17:53Z</time>
      </trkpt>
      <trkpt lat="48.40378" lon="2.69249">
        <ele>80.8</ele>
        <time>2018-04-15T14:17:54Z</time>
      </trkpt>
      <trkpt lat="48.40381" lon="2.69242">
        <ele>80.9</ele>
        <time>2018-04-15T14:17:55Z</time>
      </trkpt>
      <trkpt lat="48.40384" lon="2.69232">
        <ele>80.9</ele>
        <time>2018-04-15T14:17:56Z</time>
      </trkpt>
      <trkpt lat="48.40387" lon="2.69221">
        <ele>81</ele>
        <time>2018-04-15T14:17:57Z</time>
      </trkpt>
      <trkpt lat="48.40389" lon="2.69213">
        <ele>80.9</ele>
        <time>2018-04-15T14:17:58Z</time>
      </trkpt>
      <trkpt lat="48.40392" lon="2.69204">
        <ele>80.8</ele>
        <time>2018-04-15T14:17:59Z</time>
      </trkpt>
      <trkpt lat="48.40394" lon="2.69195">
        <ele>80.8</ele>
        <time>2018-04-15T14:18:00Z</time>
      </trkpt>
      <trkpt lat="48.40397" lon="2.69186">
        <ele>80.7</ele>
        <time>2018-04-15T14:18:01Z</time>
      </trkpt>
      <trkpt lat="48.40401" lon="2.69177">
        <ele>80.7</ele>
        <time>2018-04-15T14:18:02Z</time>
      </trkpt>
      <trkpt lat="48.40404" lon="2.69168">
        <ele>80.8</ele>
        <time>2018-04-15T14:18:03Z</time>
      </trkpt>
      <trkpt lat="48.40406" lon="2.69161">
        <ele>80.8</ele>
        <time>2018-04-15T14:18:04Z</time>
      </trkpt>
      <trkpt lat="48.40408" lon="2.69153">
        <ele>80.9</ele>
        <time>2018-04-15T14:18:05Z</time>
      </trkpt>
      <trkpt lat="48.40411" lon="2.69145">
        <ele>80.9</ele>
        <time>2018-04-15T14:18:06Z</time>
      </trkpt>
      <trkpt lat="48.40413" lon="2.69135">
        <ele>81</ele>
        <time>2018-04-15T14:18:07Z</time>
      </trkpt>
      <trkpt lat="48.40416" lon="2.69126">
        <ele>81</ele>
        <time>2018-04-15T14:18:08Z</time>
      </trkpt>
      <trkpt lat="48.40419" lon="2.69117">
        <ele>81</ele>
        <time>2018-04-15T14:18:09Z</time>
      </trkpt>
      <trkpt lat="48.40422" lon="2.69109">
        <ele>81</ele>
        <time>2018-04-15T14:18:10Z</time>
      </trkpt>
      <trkpt lat="48.40425" lon="2.69101">
        <ele>81.1</ele>
        <time>2018-04-15T14:18:11Z</time>
      </trkpt>
      <trkpt lat="48.40428" lon="2.69094">
        <ele>81.4</ele>
        <time>2018-04-15T14:18:12Z</time>
      </trkpt>
      <trkpt lat="48.4043" lon="2.69087">
        <ele>81.6</ele>
        <time>2018-04-15T14:18:13Z</time>
      </trkpt>
      <trkpt lat="48.40432" lon="2.6908">
        <ele>81.8</ele>
        <time>2018-04-15T14:18:14Z</time>
      </trkpt>
      <trkpt lat="48.40434" lon="2.69072">
        <ele>82</ele>
        <time>2018-04-15T14:18:15Z</time>
      </trkpt>
      <trkpt lat="48.40436" lon="2.69064">
        <ele>82</ele>
        <time>2018-04-15T14:18:16Z</time>
      </trkpt>
      <trkpt lat="48.40437" lon="2.69056">
        <ele>82</ele>
        <time>2018-04-15T14:18:17Z</time>
      </trkpt>
      <trkpt lat="48.40439" lon="2.69048">
        <ele>82</ele>
        <time>2018-04-15T14:18:18Z</time>
      </trkpt>
      <trkpt lat="48.4044" lon="2.6904">
        <ele>82.1</ele>
        <time>2018-04-15T14:18:19Z</time>
      </trkpt>
      <trkpt lat="48.40442" lon="2.69032">
        <ele>82.1</ele>
        <time>2018-04-15T14:18:20Z</time>
      </trkpt>
      <trkpt lat="48.40445" lon="2.69024">
        <ele>82.1</ele>
        <time>2018-04-15T14:18:21Z</time>
      </trkpt>
      <trkpt lat="48.40447" lon="2.69016">
        <ele>82.2</ele>
        <time>2018-04-15T14:18:22Z</time>
      </trkpt>
      <trkpt lat="48.40449" lon="2.69008">
        <ele>82.2</ele>
        <time>2018-04-15T14:18:23Z</time>
      </trkpt>
      <trkpt lat="48.40451" lon="2.69">
        <ele>82.3</ele>
        <time>2018-04-15T14:18:24Z</time>
      </trkpt>
      <trkpt lat="48.40453" lon="2.68992">
        <ele>82.3</ele>
        <time>2018-04-15T14:18:25Z</time>
      </trkpt>
      <trkpt lat="48.40455" lon="2.68984">
        <ele>82.5</ele>
        <time>2018-04-15T14:18:26Z</time>
      </trkpt>
      <trkpt lat="48.40458" lon="2.68976">
        <ele>82.7</ele>
        <time>2018-04-15T14:18:27Z</time>
      </trkpt>
      <trkpt lat="48.4046" lon="2.6897">
        <ele>82.9</ele>
        <time>2018-04-15T14:18:28Z</time>
      </trkpt>
      <trkpt lat="48.40463" lon="2.68963">
        <ele>82.9</ele>
        <time>2018-04-15T14:18:29Z</time>
      </trkpt>
      <trkpt lat="48.40465" lon="2.68956">
        <ele>83</ele>
        <time>2018-04-15T14:18:30Z</time>
      </trkpt>
      <trkpt lat="48.40467" lon="2.68949">
        <ele>83</ele>
        <time>2018-04-15T14:18:31Z</time>
      </trkpt>
      <trkpt lat="48.40469" lon="2.68941">
        <ele>83</ele>
        <time>2018-04-15T14:18:32Z</time>
      </trkpt>
      <trkpt lat="48.40471" lon="2.68933">
        <ele>83</ele>
        <time>2018-04-15T14:18:33Z</time>
      </trkpt>
      <trkpt lat="48.40474" lon="2.68925">
        <ele>83</ele>
        <time>2018-04-15T14:18:34Z</time>
      </trkpt>
      <trkpt lat="48.40476" lon="2.68917">
        <ele>83.1</ele>
        <time>2018-04-15T14:18:35Z</time>
      </trkpt>
      <trkpt lat="48.40478" lon="2.68909">
        <ele>83.3</ele>
        <time>2018-04-15T14:18:36Z</time>
      </trkpt>
      <trkpt lat="48.40481" lon="2.68901">
        <ele>83.4</ele>
        <time>2018-04-15T14:18:37Z</time>
      </trkpt>
      <trkpt lat="48.40483" lon="2.68893">
        <ele>83.5</ele>
        <time>2018-04-15T14:18:38Z</time>
      </trkpt>
      <trkpt lat="48.40486" lon="2.68886">
        <ele>83.5</ele>
        <time>2018-04-15T14:18:39Z</time>
      </trkpt>
      <trkpt lat="48.40489" lon="2.68878">
        <ele>83.6</ele>
        <time>2018-04-15T14:18:40Z</time>
      </trkpt>
      <trkpt lat="48.40491" lon="2.6887">
        <ele>83.6</ele>
        <time>2018-04-15T14:18:41Z</time>
      </trkpt>
      <trkpt lat="48.40494" lon="2.68862">
        <ele>83.6</ele>
        <time>2018-04-15T14:18:42Z</time>
      </trkpt>
      <trkpt lat="48.40496" lon="2.68854">
        <ele>83.6</ele>
        <time>2018-04-15T14:18:43Z</time>
      </trkpt>
      <trkpt lat="48.405" lon="2.68847">
        <ele>83.7</ele>
        <time>2018-04-15T14:18:44Z</time>
      </trkpt>
      <trkpt lat="48.40502" lon="2.6884">
        <ele>83.7</ele>
        <time>2018-04-15T14:18:45Z</time>
      </trkpt>
      <trkpt lat="48.40504" lon="2.68833">
        <ele>83.7</ele>
        <time>2018-04-15T14:18:46Z</time>
      </trkpt>
      <trkpt lat="48.40507" lon="2.68825">
        <ele>83.7</ele>
        <time>2018-04-15T14:18:47Z</time>
      </trkpt>
      <trkpt lat="48.4051" lon="2.68819">
        <ele>83.8</ele>
        <time>2018-04-15T14:18:48Z</time>
      </trkpt>
      <trkpt lat="48.40513" lon="2.68812">
        <ele>83.8</ele>
        <time>2018-04-15T14:18:49Z</time>
      </trkpt>
      <trkpt lat="48.40516" lon="2.68805">
        <ele>83.8</ele>
        <time>2018-04-15T14:18:50Z</time>
      </trkpt>
      <trkpt lat="48.40519" lon="2.68798">
        <ele>83.8</ele>
        <time>2018-04-15T14:18:51Z</time>
      </trkpt>
      <trkpt lat="48.40521" lon="2.68791">
        <ele>83.9</ele>
        <time>2018-04-15T14:18:52Z</time>
      </trkpt>
      <trkpt lat="48.40523" lon="2.68784">
        <ele>83.9</ele>
        <time>2018-04-15T14:18:53Z</time>
      </trkpt>
      <trkpt lat="48.40525" lon="2.68777">
        <ele>83.9</ele>
        <time>2018-04-15T14:18:54Z</time>
      </trkpt>
      <trkpt lat="48.40527" lon="2.68771">
        <ele>83.9</ele>
        <time>2018-04-15T14:18:55Z</time>
      </trkpt>
      <trkpt lat="48.40529" lon="2.68765">
        <ele>83.9</ele>
        <time>2018-04-15T14:18:56Z</time>
      </trkpt>
      <trkpt lat="48.40531" lon="2.6876">
        <ele>83.9</ele>
        <time>2018-04-15T14:18:57Z</time>
      </trkpt>
      <trkpt lat="48.40532" lon="2.68754">
        <ele>84</ele>
        <time>2018-04-15T14:18:58Z</time>
      </trkpt>
      <trkpt lat="48.40535" lon="2.68749">
        <ele>84</ele>
        <time>2018-04-15T14:18:59Z</time>
      </trkpt>
      <trkpt lat="48.40537" lon="2.68744">
        <ele>84</ele>
        <time>2018-04-15T14:19:00Z</time>
      </trkpt>
      <trkpt lat="48.4054" lon="2.6874">
        <ele>84</ele>
        <time>2018-04-15T14:19:01Z</time>
      </trkpt>
      <trkpt lat="48.40542" lon="2.68739">
        <ele>84</ele>
        <time>2018-04-15T14:19:02Z</time>
      </trkpt>
      <trkpt lat="48.40547" lon="2.68737">
        <ele>84</ele>
        <time>2018-04-15T14:19:04Z</time>
      </trkpt>
      <trkpt lat="48.40552" lon="2.68735">
        <ele>84</ele>
        <time>2018-04-15T14:19:06Z</time>
      </trkpt>
      <trkpt lat="48.40556" lon="2.68733">
        <ele>84</ele>
        <time>2018-04-15T14:19:08Z</time>
      </trkpt>
      <trkpt lat="48.40558" lon="2.6873">
        <ele>84</ele>
        <time>2018-04-15T14:19:10Z</time>
      </trkpt>
      <trkpt lat="48.40558" lon="2.68724">
        <ele>84</ele>
        <time>2018-04-15T14:19:13Z</time>
      </trkpt>
      <trkpt lat="48.40556" lon="2.68719">
        <ele>84</ele>
        <time>2018-04-15T14:19:15Z</time>
      </trkpt>
      <trkpt lat="48.40554" lon="2.68714">
        <ele>84</ele>
        <time>2018-04-15T14:19:18Z</time>
      </trkpt>
      <trkpt lat="48.40552" lon="2.68709">
        <ele>84</ele>
        <time>2018-04-15T14:19:21Z</time>
      </trkpt>
      <trkpt lat="48.40548" lon="2.68704">
        <ele>84</ele>
        <time>2018-04-15T14:20:21Z</time>
      </trkpt>
      <trkpt lat="48.40548" lon="2.68699">
        <ele>84</ele>
        <time>2018-04-15T14:20:23Z</time>
      </trkpt>
      <trkpt lat="48.40548" lon="2.68695">
        <ele>84</ele>
        <time>2018-04-15T14:20:24Z</time>
      </trkpt>
      <trkpt lat="48.40548" lon="2.6869">
        <ele>84</ele>
        <time>2018-04-15T14:20:25Z</time>
      </trkpt>
      <trkpt lat="48.40548" lon="2.68685">
        <ele>84</ele>
        <time>2018-04-15T14:20:26Z</time>
      </trkpt>
      <trkpt lat="48.4055" lon="2.6868">
        <ele>84</ele>
        <time>2018-04-15T14:20:28Z</time>
      </trkpt>
      <trkpt lat="48.40554" lon="2.68674">
        <ele>84.4</ele>
        <time>2018-04-15T14:20:30Z</time>
      </trkpt>
      <trkpt lat="48.40556" lon="2.68669">
        <ele>84.5</ele>
        <time>2018-04-15T14:20:31Z</time>
      </trkpt>
      <trkpt lat="48.40558" lon="2.68664">
        <ele>84.6</ele>
        <time>2018-04-15T14:20:32Z</time>
      </trkpt>
      <trkpt lat="48.40561" lon="2.68659">
        <ele>84.8</ele>
        <time>2018-04-15T14:20:33Z</time>
      </trkpt>
      <trkpt lat="48.40564" lon="2.68654">
        <ele>84.9</ele>
        <time>2018-04-15T14:20:34Z</time>
      </trkpt>
      <trkpt lat="48.40567" lon="2.68647">
        <ele>85</ele>
        <time>2018-04-15T14:20:35Z</time>
      </trkpt>
      <trkpt lat="48.4057" lon="2.6864">
        <ele>85.1</ele>
        <time>2018-04-15T14:20:36Z</time>
      </trkpt>
      <trkpt lat="48.40572" lon="2.68635">
        <ele>85.3</ele>
        <time>2018-04-15T14:20:37Z</time>
      </trkpt>
      <trkpt lat="48.40575" lon="2.6863">
        <ele>85.4</ele>
        <time>2018-04-15T14:20:38Z</time>
      </trkpt>
      <trkpt lat="48.40578" lon="2.68625">
        <ele>85.5</ele>
        <time>2018-04-15T14:20:39Z</time>
      </trkpt>
      <trkpt lat="48.40581" lon="2.68618">
        <ele>85.6</ele>
        <time>2018-04-15T14:20:40Z</time>
      </trkpt>
      <trkpt lat="48.40584" lon="2.68612">
        <ele>85.7</ele>
        <time>2018-04-15T14:20:41Z</time>
      </trkpt>
      <trkpt lat="48.40586" lon="2.68605">
        <ele>85.8</ele>
        <time>2018-04-15T14:20:42Z</time>
      </trkpt>
      <trkpt lat="48.40588" lon="2.68599">
        <ele>85.9</ele>
        <time>2018-04-15T14:20:43Z</time>
      </trkpt>
      <trkpt lat="48.40589" lon="2.68594">
        <ele>86</ele>
        <time>2018-04-15T14:20:44Z</time>
      </trkpt>
      <trkpt lat="48.40591" lon="2.68587">
        <ele>86</ele>
        <time>2018-04-15T14:20:45Z</time>
      </trkpt>
      <trkpt lat="48.40593" lon="2.68582">
        <ele>86</ele>
        <time>2018-04-15T14:20:46Z</time>
      </trkpt>
      <trkpt lat="48.40595" lon="2.68576">
        <ele>86</ele>
        <time>2018-04-15T14:20:47Z</time>
      </trkpt>
      <trkpt lat="48.40596" lon="2.6857">
        <ele>86</ele>
        <time>2018-04-15T14:20:48Z</time>
      </trkpt>
      <trkpt lat="48.40598" lon="2.68565">
        <ele>86</ele>
        <time>2018-04-15T14:20:49Z</time>
      </trkpt>
      <trkpt lat="48.406" lon="2.68558">
        <ele>86</ele>
        <time>2018-04-15T14:20:50Z</time>
      </trkpt>
      <trkpt lat="48.40603" lon="2.68552">
        <ele>86</ele>
        <time>2018-04-15T14:20:51Z</time>
      </trkpt>
      <trkpt lat="48.40605" lon="2.68545">
        <ele>86</ele>
        <time>2018-04-15T14:20:52Z</time>
      </trkpt>
      <trkpt lat="48.40608" lon="2.6854">
        <ele>86</ele>
        <time>2018-04-15T14:20:53Z</time>
      </trkpt>
      <trkpt lat="48.4061" lon="2.68535">
        <ele>85.8</ele>
        <time>2018-04-15T14:20:54Z</time>
      </trkpt>
      <trkpt lat="48.40612" lon="2.68531">
        <ele>85.7</ele>
        <time>2018-04-15T14:20:55Z</time>
      </trkpt>
      <trkpt lat="48.40614" lon="2.68526">
        <ele>85.6</ele>
        <time>2018-04-15T14:20:56Z</time>
      </trkpt>
      <trkpt lat="48.40615" lon="2.68522">
        <ele>85.5</ele>
        <time>2018-04-15T14:20:57Z</time>
      </trkpt>
      <trkpt lat="48.40618" lon="2.68519">
        <ele>85.4</ele>
        <time>2018-04-15T14:20:58Z</time>
      </trkpt>
      <trkpt lat="48.4062" lon="2.68513">
        <ele>85.3</ele>
        <time>2018-04-15T14:20:59Z</time>
      </trkpt>
      <trkpt lat="48.40622" lon="2.68507">
        <ele>85.2</ele>
        <time>2018-04-15T14:21:00Z</time>
      </trkpt>
      <trkpt lat="48.40624" lon="2.68502">
        <ele>85.1</ele>
        <time>2018-04-15T14:21:01Z</time>
      </trkpt>
      <trkpt lat="48.40625" lon="2.68498">
        <ele>85</ele>
        <time>2018-04-15T14:21:02Z</time>
      </trkpt>
      <trkpt lat="48.40627" lon="2.68493">
        <ele>85</ele>
        <time>2018-04-15T14:21:03Z</time>
      </trkpt>
      <trkpt lat="48.40628" lon="2.68489">
        <ele>85</ele>
        <time>2018-04-15T14:21:04Z</time>
      </trkpt>
      <trkpt lat="48.4063" lon="2.68483">
        <ele>85</ele>
        <time>2018-04-15T14:21:05Z</time>
      </trkpt>
      <trkpt lat="48.40632" lon="2.68478">
        <ele>85</ele>
        <time>2018-04-15T14:21:06Z</time>
      </trkpt>
      <trkpt lat="48.40634" lon="2.68472">
        <ele>85</ele>
        <time>2018-04-15T14:21:07Z</time>
      </trkpt>
      <trkpt lat="48.40636" lon="2.68466">
        <ele>85</ele>
        <time>2018-04-15T14:21:08Z</time>
      </trkpt>
      <trkpt lat="48.40638" lon="2.68458">
        <ele>85</ele>
        <time>2018-04-15T14:21:09Z</time>
      </trkpt>
      <trkpt lat="48.4064" lon="2.68451">
        <ele>85</ele>
        <time>2018-04-15T14:21:10Z</time>
      </trkpt>
      <trkpt lat="48.40643" lon="2.68445">
        <ele>85</ele>
        <time>2018-04-15T14:21:11Z</time>
      </trkpt>
      <trkpt lat="48.40645" lon="2.68441">
        <ele>85</ele>
        <time>2018-04-15T14:21:12Z</time>
      </trkpt>
      <trkpt lat="48.40647" lon="2.68436">
        <ele>85</ele>
        <time>2018-04-15T14:21:13Z</time>
      </trkpt>
      <trkpt lat="48.40648" lon="2.6843">
        <ele>85</ele>
        <time>2018-04-15T14:21:14Z</time>
      </trkpt>
      <trkpt lat="48.40651" lon="2.68425">
        <ele>85</ele>
        <time>2018-04-15T14:21:15Z</time>
      </trkpt>
      <trkpt lat="48.40653" lon="2.68419">
        <ele>85.1</ele>
        <time>2018-04-15T14:21:16Z</time>
      </trkpt>
      <trkpt lat="48.40655" lon="2.68414">
        <ele>85.1</ele>
        <time>2018-04-15T14:21:17Z</time>
      </trkpt>
      <trkpt lat="48.40657" lon="2.6841">
        <ele>85.1</ele>
        <time>2018-04-15T14:21:18Z</time>
      </trkpt>
      <trkpt lat="48.40659" lon="2.68404">
        <ele>85.1</ele>
        <time>2018-04-15T14:21:19Z</time>
      </trkpt>
      <trkpt lat="48.40662" lon="2.68398">
        <ele>85.1</ele>
        <time>2018-04-15T14:21:20Z</time>
      </trkpt>
      <trkpt lat="48.40664" lon="2.68394">
        <ele>85.1</ele>
        <time>2018-04-15T14:21:21Z</time>
      </trkpt>
      <trkpt lat="48.40667" lon="2.68388">
        <ele>85.1</ele>
        <time>2018-04-15T14:21:22Z</time>
      </trkpt>
      <trkpt lat="48.4067" lon="2.6838">
        <ele>85.1</ele>
        <time>2018-04-15T14:21:23Z</time>
      </trkpt>
      <trkpt lat="48.40672" lon="2.68374">
        <ele>85.1</ele>
        <time>2018-04-15T14:21:24Z</time>
      </trkpt>
      <trkpt lat="48.40674" lon="2.68368">
        <ele>85.1</ele>
        <time>2018-04-15T14:21:25Z</time>
      </trkpt>
      <trkpt lat="48.40677" lon="2.6836">
        <ele>85.1</ele>
        <time>2018-04-15T14:21:26Z</time>
      </trkpt>
      <trkpt lat="48.4068" lon="2.68354">
        <ele>85.1</ele>
        <time>2018-04-15T14:21:27Z</time>
      </trkpt>
      <trkpt lat="48.40682" lon="2.68347">
        <ele>85.1</ele>
        <time>2018-04-15T14:21:28Z</time>
      </trkpt>
      <trkpt lat="48.40684" lon="2.68341">
        <ele>85.1</ele>
        <time>2018-04-15T14:21:29Z</time>
      </trkpt>
      <trkpt lat="48.40687" lon="2.68334">
        <ele>85.1</ele>
        <time>2018-04-15T14:21:30Z</time>
      </trkpt>
      <trkpt lat="48.40689" lon="2.68328">
        <ele>85.1</ele>
        <time>2018-04-15T14:21:31Z</time>
      </trkpt>
      <trkpt lat="48.40691" lon="2.68321">
        <ele>85.1</ele>
        <time>2018-04-15T14:21:32Z</time>
      </trkpt>
      <trkpt lat="48.40694" lon="2.68314">
        <ele>85.1</ele>
        <time>2018-04-15T14:21:33Z</time>
      </trkpt>
      <trkpt lat="48.40696" lon="2.68307">
        <ele>85.2</ele>
        <time>2018-04-15T14:21:34Z</time>
      </trkpt>
      <trkpt lat="48.40696" lon="2.68301">
        <ele>85.2</ele>
        <time>2018-04-15T14:21:35Z</time>
      </trkpt>
      <trkpt lat="48.40698" lon="2.68294">
        <ele>85.3</ele>
        <time>2018-04-15T14:21:36Z</time>
      </trkpt>
      <trkpt lat="48.40699" lon="2.68287">
        <ele>85.6</ele>
        <time>2018-04-15T14:21:37Z</time>
      </trkpt>
      <trkpt lat="48.40702" lon="2.68281">
        <ele>85.9</ele>
        <time>2018-04-15T14:21:38Z</time>
      </trkpt>
      <trkpt lat="48.40705" lon="2.68274">
        <ele>86</ele>
        <time>2018-04-15T14:21:39Z</time>
      </trkpt>
      <trkpt lat="48.40708" lon="2.68267">
        <ele>86.2</ele>
        <time>2018-04-15T14:21:40Z</time>
      </trkpt>
      <trkpt lat="48.40711" lon="2.68261">
        <ele>86.4</ele>
        <time>2018-04-15T14:21:41Z</time>
      </trkpt>
      <trkpt lat="48.40713" lon="2.68254">
        <ele>86.6</ele>
        <time>2018-04-15T14:21:42Z</time>
      </trkpt>
      <trkpt lat="48.40716" lon="2.68247">
        <ele>86.2</ele>
        <time>2018-04-15T14:21:43Z</time>
      </trkpt>
      <trkpt lat="48.40717" lon="2.6824">
        <ele>86</ele>
        <time>2018-04-15T14:21:44Z</time>
      </trkpt>
      <trkpt lat="48.40719" lon="2.68233">
        <ele>86</ele>
        <time>2018-04-15T14:21:45Z</time>
      </trkpt>
      <trkpt lat="48.40721" lon="2.68227">
        <ele>86</ele>
        <time>2018-04-15T14:21:46Z</time>
      </trkpt>
      <trkpt lat="48.40722" lon="2.68222">
        <ele>86.1</ele>
        <time>2018-04-15T14:21:47Z</time>
      </trkpt>
      <trkpt lat="48.40724" lon="2.68216">
        <ele>86.2</ele>
        <time>2018-04-15T14:21:48Z</time>
      </trkpt>
      <trkpt lat="48.40726" lon="2.68211">
        <ele>86.3</ele>
        <time>2018-04-15T14:21:49Z</time>
      </trkpt>
      <trkpt lat="48.40728" lon="2.68205">
        <ele>86.4</ele>
        <time>2018-04-15T14:21:50Z</time>
      </trkpt>
      <trkpt lat="48.4073" lon="2.682">
        <ele>86.5</ele>
        <time>2018-04-15T14:21:51Z</time>
      </trkpt>
      <trkpt lat="48.40731" lon="2.68194">
        <ele>86.6</ele>
        <time>2018-04-15T14:21:52Z</time>
      </trkpt>
      <trkpt lat="48.40732" lon="2.68189">
        <ele>86.7</ele>
        <time>2018-04-15T14:21:53Z</time>
      </trkpt>
      <trkpt lat="48.40734" lon="2.68184">
        <ele>86.8</ele>
        <time>2018-04-15T14:21:54Z</time>
      </trkpt>
      <trkpt lat="48.40737" lon="2.68178">
        <ele>86.8</ele>
        <time>2018-04-15T14:21:55Z</time>
      </trkpt>
      <trkpt lat="48.4074" lon="2.68173">
        <ele>86.9</ele>
        <time>2018-04-15T14:21:56Z</time>
      </trkpt>
      <trkpt lat="48.40743" lon="2.68167">
        <ele>87</ele>
        <time>2018-04-15T14:21:57Z</time>
      </trkpt>
      <trkpt lat="48.40746" lon="2.6816">
        <ele>87.1</ele>
        <time>2018-04-15T14:21:58Z</time>
      </trkpt>
      <trkpt lat="48.40749" lon="2.68154">
        <ele>87.2</ele>
        <time>2018-04-15T14:21:59Z</time>
      </trkpt>
      <trkpt lat="48.40751" lon="2.68149">
        <ele>87.3</ele>
        <time>2018-04-15T14:22:00Z</time>
      </trkpt>
      <trkpt lat="48.40753" lon="2.68144">
        <ele>87.5</ele>
        <time>2018-04-15T14:22:01Z</time>
      </trkpt>
      <trkpt lat="48.40755" lon="2.68137">
        <ele>87.8</ele>
        <time>2018-04-15T14:22:02Z</time>
      </trkpt>
      <trkpt lat="48.40758" lon="2.68131">
        <ele>88</ele>
        <time>2018-04-15T14:22:03Z</time>
      </trkpt>
      <trkpt lat="48.4076" lon="2.68124">
        <ele>88.2</ele>
        <time>2018-04-15T14:22:04Z</time>
      </trkpt>
      <trkpt lat="48.40762" lon="2.68118">
        <ele>88.3</ele>
        <time>2018-04-15T14:22:05Z</time>
      </trkpt>
      <trkpt lat="48.40764" lon="2.68113">
        <ele>88.4</ele>
        <time>2018-04-15T14:22:06Z</time>
      </trkpt>
      <trkpt lat="48.40766" lon="2.68108">
        <ele>88.6</ele>
        <time>2018-04-15T14:22:07Z</time>
      </trkpt>
      <trkpt lat="48.40767" lon="2.68104">
        <ele>88.7</ele>
        <time>2018-04-15T14:22:08Z</time>
      </trkpt>
      <trkpt lat="48.40769" lon="2.68099">
        <ele>88.9</ele>
        <time>2018-04-15T14:22:09Z</time>
      </trkpt>
      <trkpt lat="48.40771" lon="2.68093">
        <ele>89.1</ele>
        <time>2018-04-15T14:22:10Z</time>
      </trkpt>
      <trkpt lat="48.40774" lon="2.68085">
        <ele>89.3</ele>
        <time>2018-04-15T14:22:11Z</time>
      </trkpt>
      <trkpt lat="48.40776" lon="2.68079">
        <ele>89.4</ele>
        <time>2018-04-15T14:22:12Z</time>
      </trkpt>
      <trkpt lat="48.40778" lon="2.68075">
        <ele>89.5</ele>
        <time>2018-04-15T14:22:13Z</time>
      </trkpt>
      <trkpt lat="48.40779" lon="2.6807">
        <ele>89.6</ele>
        <time>2018-04-15T14:22:14Z</time>
      </trkpt>
      <trkpt lat="48.40781" lon="2.68066">
        <ele>89.7</ele>
        <time>2018-04-15T14:22:15Z</time>
      </trkpt>
      <trkpt lat="48.40783" lon="2.6806">
        <ele>89.8</ele>
        <time>2018-04-15T14:22:16Z</time>
      </trkpt>
      <trkpt lat="48.40784" lon="2.68055">
        <ele>89.9</ele>
        <time>2018-04-15T14:22:17Z</time>
      </trkpt>
      <trkpt lat="48.40786" lon="2.6805">
        <ele>90</ele>
        <time>2018-04-15T14:22:18Z</time>
      </trkpt>
      <trkpt lat="48.40787" lon="2.68046">
        <ele>90</ele>
        <time>2018-04-15T14:22:19Z</time>
      </trkpt>
      <trkpt lat="48.40789" lon="2.68039">
        <ele>90.1</ele>
        <time>2018-04-15T14:22:20Z</time>
      </trkpt>
      <trkpt lat="48.40792" lon="2.68031">
        <ele>90.3</ele>
        <time>2018-04-15T14:22:21Z</time>
      </trkpt>
      <trkpt lat="48.40794" lon="2.68024">
        <ele>90.4</ele>
        <time>2018-04-15T14:22:22Z</time>
      </trkpt>
      <trkpt lat="48.40796" lon="2.68016">
        <ele>90.5</ele>
        <time>2018-04-15T14:22:23Z</time>
      </trkpt>
      <trkpt lat="48.40798" lon="2.68008">
        <ele>90.7</ele>
        <time>2018-04-15T14:22:24Z</time>
      </trkpt>
      <trkpt lat="48.40801" lon="2.68">
        <ele>90.8</ele>
        <time>2018-04-15T14:22:25Z</time>
      </trkpt>
      <trkpt lat="48.40803" lon="2.67994">
        <ele>90.9</ele>
        <time>2018-04-15T14:22:26Z</time>
      </trkpt>
      <trkpt lat="48.40805" lon="2.67988">
        <ele>91.1</ele>
        <time>2018-04-15T14:22:27Z</time>
      </trkpt>
      <trkpt lat="48.40807" lon="2.67982">
        <ele>91.4</ele>
        <time>2018-04-15T14:22:28Z</time>
      </trkpt>
      <trkpt lat="48.40809" lon="2.67977">
        <ele>91.7</ele>
        <time>2018-04-15T14:22:29Z</time>
      </trkpt>
      <trkpt lat="48.40811" lon="2.67972">
        <ele>91.9</ele>
        <time>2018-04-15T14:22:30Z</time>
      </trkpt>
      <trkpt lat="48.40813" lon="2.67968">
        <ele>92.1</ele>
        <time>2018-04-15T14:22:31Z</time>
      </trkpt>
      <trkpt lat="48.40815" lon="2.67963">
        <ele>92.4</ele>
        <time>2018-04-15T14:22:32Z</time>
      </trkpt>
      <trkpt lat="48.40817" lon="2.67958">
        <ele>92.7</ele>
        <time>2018-04-15T14:22:33Z</time>
      </trkpt>
      <trkpt lat="48.40819" lon="2.67952">
        <ele>93.2</ele>
        <time>2018-04-15T14:22:34Z</time>
      </trkpt>
      <trkpt lat="48.40821" lon="2.67946">
        <ele>93.5</ele>
        <time>2018-04-15T14:22:35Z</time>
      </trkpt>
      <trkpt lat="48.40823" lon="2.67941">
        <ele>93.7</ele>
        <time>2018-04-15T14:22:36Z</time>
      </trkpt>
      <trkpt lat="48.40825" lon="2.67937">
        <ele>93.9</ele>
        <time>2018-04-15T14:22:37Z</time>
      </trkpt>
      <trkpt lat="48.40827" lon="2.67932">
        <ele>94.2</ele>
        <time>2018-04-15T14:22:38Z</time>
      </trkpt>
      <trkpt lat="48.4083" lon="2.67928">
        <ele>94.4</ele>
        <time>2018-04-15T14:22:39Z</time>
      </trkpt>
      <trkpt lat="48.40831" lon="2.67923">
        <ele>94.6</ele>
        <time>2018-04-15T14:22:40Z</time>
      </trkpt>
      <trkpt lat="48.40833" lon="2.67919">
        <ele>94.8</ele>
        <time>2018-04-15T14:22:41Z</time>
      </trkpt>
      <trkpt lat="48.40836" lon="2.67914">
        <ele>95</ele>
        <time>2018-04-15T14:22:43Z</time>
      </trkpt>
      <trkpt lat="48.40837" lon="2.67909">
        <ele>95</ele>
        <time>2018-04-15T14:22:45Z</time>
      </trkpt>
      <trkpt lat="48.40839" lon="2.67902">
        <ele>95</ele>
        <time>2018-04-15T14:22:47Z</time>
      </trkpt>
      <trkpt lat="48.40841" lon="2.67895">
        <ele>95</ele>
        <time>2018-04-15T14:22:49Z</time>
      </trkpt>
      <trkpt lat="48.40842" lon="2.67892">
        <ele>94.9</ele>
        <time>2018-04-15T14:22:50Z</time>
      </trkpt>
      <trkpt lat="48.40843" lon="2.67884">
        <ele>94.9</ele>
        <time>2018-04-15T14:22:52Z</time>
      </trkpt>
      <trkpt lat="48.40844" lon="2.6788">
        <ele>94.9</ele>
        <time>2018-04-15T14:22:53Z</time>
      </trkpt>
      <trkpt lat="48.40846" lon="2.67876">
        <ele>94.9</ele>
        <time>2018-04-15T14:22:54Z</time>
      </trkpt>
      <trkpt lat="48.40848" lon="2.67872">
        <ele>94.9</ele>
        <time>2018-04-15T14:22:55Z</time>
      </trkpt>
      <trkpt lat="48.4085" lon="2.67864">
        <ele>94.9</ele>
        <time>2018-04-15T14:22:57Z</time>
      </trkpt>
      <trkpt lat="48.40851" lon="2.67858">
        <ele>94.9</ele>
        <time>2018-04-15T14:22:58Z</time>
      </trkpt>
      <trkpt lat="48.40854" lon="2.67852">
        <ele>95</ele>
        <time>2018-04-15T14:22:59Z</time>
      </trkpt>
      <trkpt lat="48.40856" lon="2.67845">
        <ele>95</ele>
        <time>2018-04-15T14:23:00Z</time>
      </trkpt>
      <trkpt lat="48.40859" lon="2.67838">
        <ele>95.1</ele>
        <time>2018-04-15T14:23:01Z</time>
      </trkpt>
      <trkpt lat="48.40863" lon="2.6783">
        <ele>95.3</ele>
        <time>2018-04-15T14:23:02Z</time>
      </trkpt>
      <trkpt lat="48.40865" lon="2.67823">
        <ele>95.5</ele>
        <time>2018-04-15T14:23:03Z</time>
      </trkpt>
      <trkpt lat="48.40868" lon="2.67816">
        <ele>95.7</ele>
        <time>2018-04-15T14:23:04Z</time>
      </trkpt>
      <trkpt lat="48.40871" lon="2.6781">
        <ele>96</ele>
        <time>2018-04-15T14:23:05Z</time>
      </trkpt>
      <trkpt lat="48.40874" lon="2.67804">
        <ele>96.2</ele>
        <time>2018-04-15T14:23:06Z</time>
      </trkpt>
      <trkpt lat="48.40876" lon="2.67797">
        <ele>96.3</ele>
        <time>2018-04-15T14:23:07Z</time>
      </trkpt>
      <trkpt lat="48.40879" lon="2.6779">
        <ele>96.6</ele>
        <time>2018-04-15T14:23:08Z</time>
      </trkpt>
      <trkpt lat="48.40881" lon="2.67783">
        <ele>96.8</ele>
        <time>2018-04-15T14:23:09Z</time>
      </trkpt>
      <trkpt lat="48.40883" lon="2.67778">
        <ele>96.9</ele>
        <time>2018-04-15T14:23:10Z</time>
      </trkpt>
      <trkpt lat="48.40885" lon="2.67773">
        <ele>97</ele>
        <time>2018-04-15T14:23:11Z</time>
      </trkpt>
      <trkpt lat="48.40886" lon="2.67768">
        <ele>97.1</ele>
        <time>2018-04-15T14:23:12Z</time>
      </trkpt>
      <trkpt lat="48.40888" lon="2.67763">
        <ele>97.3</ele>
        <time>2018-04-15T14:23:13Z</time>
      </trkpt>
      <trkpt lat="48.4089" lon="2.67757">
        <ele>97.4</ele>
        <time>2018-04-15T14:23:14Z</time>
      </trkpt>
      <trkpt lat="48.40892" lon="2.67751">
        <ele>97.5</ele>
        <time>2018-04-15T14:23:15Z</time>
      </trkpt>
      <trkpt lat="48.40894" lon="2.67746">
        <ele>97.7</ele>
        <time>2018-04-15T14:23:16Z</time>
      </trkpt>
      <trkpt lat="48.40896" lon="2.67742">
        <ele>97.8</ele>
        <time>2018-04-15T14:23:17Z</time>
      </trkpt>
      <trkpt lat="48.40898" lon="2.67735">
        <ele>97.9</ele>
        <time>2018-04-15T14:23:18Z</time>
      </trkpt>
      <trkpt lat="48.409" lon="2.67729">
        <ele>98.1</ele>
        <time>2018-04-15T14:23:19Z</time>
      </trkpt>
      <trkpt lat="48.40902" lon="2.67723">
        <ele>98.2</ele>
        <time>2018-04-15T14:23:20Z</time>
      </trkpt>
      <trkpt lat="48.40904" lon="2.67717">
        <ele>98.4</ele>
        <time>2018-04-15T14:23:21Z</time>
      </trkpt>
      <trkpt lat="48.40906" lon="2.67711">
        <ele>98.5</ele>
        <time>2018-04-15T14:23:22Z</time>
      </trkpt>
      <trkpt lat="48.40908" lon="2.67704">
        <ele>98.7</ele>
        <time>2018-04-15T14:23:23Z</time>
      </trkpt>
      <trkpt lat="48.4091" lon="2.67698">
        <ele>98.9</ele>
        <time>2018-04-15T14:23:24Z</time>
      </trkpt>
      <trkpt lat="48.40912" lon="2.67691">
        <ele>99.1</ele>
        <time>2018-04-15T14:23:25Z</time>
      </trkpt>
      <trkpt lat="48.40915" lon="2.67686">
        <ele>99.3</ele>
        <time>2018-04-15T14:23:26Z</time>
      </trkpt>
      <trkpt lat="48.40918" lon="2.67679">
        <ele>99.6</ele>
        <time>2018-04-15T14:23:28Z</time>
      </trkpt>
      <trkpt lat="48.40919" lon="2.67675">
        <ele>99.8</ele>
        <time>2018-04-15T14:23:29Z</time>
      </trkpt>
      <trkpt lat="48.40921" lon="2.67671">
        <ele>100</ele>
        <time>2018-04-15T14:23:31Z</time>
      </trkpt>
      <trkpt lat="48.40919" lon="2.67675">
        <ele>100.3</ele>
        <time>2018-04-15T14:23:33Z</time>
      </trkpt>
      <trkpt lat="48.40921" lon="2.67671">
        <ele>100.6</ele>
        <time>2018-04-15T14:23:41Z</time>
      </trkpt>
      <trkpt lat="48.40922" lon="2.67667">
        <ele>100.9</ele>
        <time>2018-04-15T14:23:43Z</time>
      </trkpt>
      <trkpt lat="48.40924" lon="2.67663">
        <ele>101.2</ele>
        <time>2018-04-15T14:23:51Z</time>
      </trkpt>
      <trkpt lat="48.40923" lon="2.67667">
        <ele>101.5</ele>
        <time>2018-04-15T14:23:57Z</time>
      </trkpt>
      <trkpt lat="48.40921" lon="2.67671">
        <ele>101.8</ele>
        <time>2018-04-15T14:24:03Z</time>
      </trkpt>
      <trkpt lat="48.40924" lon="2.67669">
        <ele>102</ele>
        <time>2018-04-15T14:24:11Z</time>
      </trkpt>
      <trkpt lat="48.40926" lon="2.67665">
        <ele>102.3</ele>
        <time>2018-04-15T14:24:14Z</time>
      </trkpt>
      <trkpt lat="48.40928" lon="2.6766">
        <ele>102.6</ele>
        <time>2018-04-15T14:24:16Z</time>
      </trkpt>
      <trkpt lat="48.4093" lon="2.67656">
        <ele>102.8</ele>
        <time>2018-04-15T14:24:18Z</time>
      </trkpt>
      <trkpt lat="48.40932" lon="2.67652">
        <ele>103</ele>
        <time>2018-04-15T14:24:20Z</time>
      </trkpt>
      <trkpt lat="48.40935" lon="2.67645">
        <ele>103.2</ele>
        <time>2018-04-15T14:24:22Z</time>
      </trkpt>
      <trkpt lat="48.40938" lon="2.6764">
        <ele>103.4</ele>
        <time>2018-04-15T14:24:24Z</time>
      </trkpt>
      <trkpt lat="48.40941" lon="2.67635">
        <ele>103.5</ele>
        <time>2018-04-15T14:24:26Z</time>
      </trkpt>
      <trkpt lat="48.40943" lon="2.67627">
        <ele>103.7</ele>
        <time>2018-04-15T14:24:28Z</time>
      </trkpt>
      <trkpt lat="48.40947" lon="2.67622">
        <ele>103.9</ele>
        <time>2018-04-15T14:24:30Z</time>
      </trkpt>
      <trkpt lat="48.40948" lon="2.67618">
        <ele>104</ele>
        <time>2018-04-15T14:24:31Z</time>
      </trkpt>
      <trkpt lat="48.4095" lon="2.67614">
        <ele>104.1</ele>
        <time>2018-04-15T14:24:32Z</time>
      </trkpt>
      <trkpt lat="48.40953" lon="2.67607">
        <ele>104.3</ele>
        <time>2018-04-15T14:24:34Z</time>
      </trkpt>
      <trkpt lat="48.40954" lon="2.67604">
        <ele>104.4</ele>
        <time>2018-04-15T14:24:35Z</time>
      </trkpt>
      <trkpt lat="48.40956" lon="2.676">
        <ele>104.5</ele>
        <time>2018-04-15T14:24:36Z</time>
      </trkpt>
      <trkpt lat="48.40958" lon="2.67595">
        <ele>104.7</ele>
        <time>2018-04-15T14:24:38Z</time>
      </trkpt>
      <trkpt lat="48.4096" lon="2.6759">
        <ele>104.8</ele>
        <time>2018-04-15T14:24:40Z</time>
      </trkpt>
      <trkpt lat="48.40963" lon="2.67583">
        <ele>105.1</ele>
        <time>2018-04-15T14:24:42Z</time>
      </trkpt>
      <trkpt lat="48.40966" lon="2.67578">
        <ele>105.4</ele>
        <time>2018-04-15T14:24:43Z</time>
      </trkpt>
      <trkpt lat="48.40969" lon="2.67572">
        <ele>105.7</ele>
        <time>2018-04-15T14:24:45Z</time>
      </trkpt>
      <trkpt lat="48.40971" lon="2.67568">
        <ele>106.1</ele>
        <time>2018-04-15T14:24:46Z</time>
      </trkpt>
      <trkpt lat="48.40972" lon="2.67564">
        <ele>106.3</ele>
        <time>2018-04-15T14:24:47Z</time>
      </trkpt>
      <trkpt lat="48.40974" lon="2.6756">
        <ele>106.6</ele>
        <time>2018-04-15T14:24:48Z</time>
      </trkpt>
      <trkpt lat="48.40976" lon="2.67556">
        <ele>106.9</ele>
        <time>2018-04-15T14:24:49Z</time>
      </trkpt>
      <trkpt lat="48.40979" lon="2.67549">
        <ele>107.4</ele>
        <time>2018-04-15T14:24:51Z</time>
      </trkpt>
      <trkpt lat="48.4098" lon="2.67545">
        <ele>107.7</ele>
        <time>2018-04-15T14:24:53Z</time>
      </trkpt>
      <trkpt lat="48.40983" lon="2.67538">
        <ele>108.2</ele>
        <time>2018-04-15T14:24:56Z</time>
      </trkpt>
      <trkpt lat="48.40985" lon="2.67533">
        <ele>108.4</ele>
        <time>2018-04-15T14:24:58Z</time>
      </trkpt>
      <trkpt lat="48.40987" lon="2.67526">
        <ele>108.7</ele>
        <time>2018-04-15T14:25:00Z</time>
      </trkpt>
      <trkpt lat="48.40988" lon="2.67522">
        <ele>108.8</ele>
        <time>2018-04-15T14:25:01Z</time>
      </trkpt>
      <trkpt lat="48.4099" lon="2.67517">
        <ele>109</ele>
        <time>2018-04-15T14:25:02Z</time>
      </trkpt>
      <trkpt lat="48.40991" lon="2.67513">
        <ele>109.1</ele>
        <time>2018-04-15T14:25:03Z</time>
      </trkpt>
      <trkpt lat="48.40993" lon="2.67504">
        <ele>109.4</ele>
        <time>2018-04-15T14:25:05Z</time>
      </trkpt>
      <trkpt lat="48.40994" lon="2.67499">
        <ele>109.5</ele>
        <time>2018-04-15T14:25:08Z</time>
      </trkpt>
      <trkpt lat="48.40995" lon="2.67492">
        <ele>109.7</ele>
        <time>2018-04-15T14:25:11Z</time>
      </trkpt>
      <trkpt lat="48.40997" lon="2.67486">
        <ele>109.9</ele>
        <time>2018-04-15T14:25:13Z</time>
      </trkpt>
      <trkpt lat="48.40999" lon="2.6748">
        <ele>110</ele>
        <time>2018-04-15T14:25:15Z</time>
      </trkpt>
      <trkpt lat="48.41001" lon="2.67473">
        <ele>109.8</ele>
        <time>2018-04-15T14:25:17Z</time>
      </trkpt>
      <trkpt lat="48.41002" lon="2.67469">
        <ele>109.7</ele>
        <time>2018-04-15T14:25:18Z</time>
      </trkpt>
      <trkpt lat="48.41003" lon="2.67465">
        <ele>109.6</ele>
        <time>2018-04-15T14:25:19Z</time>
      </trkpt>
      <trkpt lat="48.41004" lon="2.6746">
        <ele>109.5</ele>
        <time>2018-04-15T14:25:20Z</time>
      </trkpt>
      <trkpt lat="48.41006" lon="2.67453">
        <ele>109.4</ele>
        <time>2018-04-15T14:25:22Z</time>
      </trkpt>
      <trkpt lat="48.41008" lon="2.6745">
        <ele>109.4</ele>
        <time>2018-04-15T14:25:23Z</time>
      </trkpt>
      <trkpt lat="48.4101" lon="2.67446">
        <ele>109.4</ele>
        <time>2018-04-15T14:25:24Z</time>
      </trkpt>
      <trkpt lat="48.41012" lon="2.67441">
        <ele>109.4</ele>
        <time>2018-04-15T14:25:25Z</time>
      </trkpt>
      <trkpt lat="48.41014" lon="2.67437">
        <ele>109.5</ele>
        <time>2018-04-15T14:25:26Z</time>
      </trkpt>
      <trkpt lat="48.41015" lon="2.67433">
        <ele>109.6</ele>
        <time>2018-04-15T14:25:27Z</time>
      </trkpt>
      <trkpt lat="48.41017" lon="2.67428">
        <ele>109.7</ele>
        <time>2018-04-15T14:25:28Z</time>
      </trkpt>
      <trkpt lat="48.41018" lon="2.67424">
        <ele>109.7</ele>
        <time>2018-04-15T14:25:29Z</time>
      </trkpt>
      <trkpt lat="48.4102" lon="2.67419">
        <ele>109.8</ele>
        <time>2018-04-15T14:25:30Z</time>
      </trkpt>
      <trkpt lat="48.41022" lon="2.67414">
        <ele>109.9</ele>
        <time>2018-04-15T14:25:31Z</time>
      </trkpt>
      <trkpt lat="48.41024" lon="2.67409">
        <ele>109.9</ele>
        <time>2018-04-15T14:25:32Z</time>
      </trkpt>
      <trkpt lat="48.41026" lon="2.67404">
        <ele>109.9</ele>
        <time>2018-04-15T14:25:33Z</time>
      </trkpt>
      <trkpt lat="48.41027" lon="2.674">
        <ele>109.8</ele>
        <time>2018-04-15T14:25:34Z</time>
      </trkpt>
      <trkpt lat="48.41028" lon="2.67397">
        <ele>109.8</ele>
        <time>2018-04-15T14:25:35Z</time>
      </trkpt>
      <trkpt lat="48.4103" lon="2.67392">
        <ele>109.7</ele>
        <time>2018-04-15T14:25:36Z</time>
      </trkpt>
      <trkpt lat="48.41032" lon="2.67388">
        <ele>109.6</ele>
        <time>2018-04-15T14:25:37Z</time>
      </trkpt>
      <trkpt lat="48.41033" lon="2.67383">
        <ele>109.5</ele>
        <time>2018-04-15T14:25:38Z</time>
      </trkpt>
      <trkpt lat="48.41035" lon="2.67379">
        <ele>109.4</ele>
        <time>2018-04-15T14:25:39Z</time>
      </trkpt>
      <trkpt lat="48.41037" lon="2.67372">
        <ele>109.3</ele>
        <time>2018-04-15T14:25:40Z</time>
      </trkpt>
      <trkpt lat="48.41038" lon="2.67367">
        <ele>109.2</ele>
        <time>2018-04-15T14:25:41Z</time>
      </trkpt>
      <trkpt lat="48.41039" lon="2.67362">
        <ele>109</ele>
        <time>2018-04-15T14:25:42Z</time>
      </trkpt>
      <trkpt lat="48.41041" lon="2.67356">
        <ele>108.9</ele>
        <time>2018-04-15T14:25:43Z</time>
      </trkpt>
      <trkpt lat="48.41042" lon="2.67352">
        <ele>108.9</ele>
        <time>2018-04-15T14:25:44Z</time>
      </trkpt>
      <trkpt lat="48.41043" lon="2.67348">
        <ele>108.8</ele>
        <time>2018-04-15T14:25:46Z</time>
      </trkpt>
      <trkpt lat="48.41045" lon="2.67344">
        <ele>108.8</ele>
        <time>2018-04-15T14:25:47Z</time>
      </trkpt>
      <trkpt lat="48.41048" lon="2.67337">
        <ele>108.7</ele>
        <time>2018-04-15T14:25:49Z</time>
      </trkpt>
      <trkpt lat="48.4105" lon="2.67332">
        <ele>108.7</ele>
        <time>2018-04-15T14:25:50Z</time>
      </trkpt>
      <trkpt lat="48.41051" lon="2.67327">
        <ele>108.6</ele>
        <time>2018-04-15T14:25:51Z</time>
      </trkpt>
      <trkpt lat="48.41052" lon="2.67322">
        <ele>108.5</ele>
        <time>2018-04-15T14:25:52Z</time>
      </trkpt>
      <trkpt lat="48.41054" lon="2.67318">
        <ele>108.4</ele>
        <time>2018-04-15T14:25:53Z</time>
      </trkpt>
      <trkpt lat="48.41056" lon="2.67312">
        <ele>107.8</ele>
        <time>2018-04-15T14:25:55Z</time>
      </trkpt>
      <trkpt lat="48.41058" lon="2.67307">
        <ele>107.3</ele>
        <time>2018-04-15T14:25:56Z</time>
      </trkpt>
      <trkpt lat="48.4106" lon="2.67302">
        <ele>106.9</ele>
        <time>2018-04-15T14:25:57Z</time>
      </trkpt>
      <trkpt lat="48.41062" lon="2.67298">
        <ele>106.8</ele>
        <time>2018-04-15T14:25:58Z</time>
      </trkpt>
      <trkpt lat="48.41065" lon="2.67292">
        <ele>106.7</ele>
        <time>2018-04-15T14:25:59Z</time>
      </trkpt>
      <trkpt lat="48.41068" lon="2.67286">
        <ele>106.6</ele>
        <time>2018-04-15T14:26:00Z</time>
      </trkpt>
      <trkpt lat="48.41071" lon="2.67279">
        <ele>106.4</ele>
        <time>2018-04-15T14:26:01Z</time>
      </trkpt>
      <trkpt lat="48.41074" lon="2.67272">
        <ele>106.3</ele>
        <time>2018-04-15T14:26:02Z</time>
      </trkpt>
      <trkpt lat="48.41078" lon="2.67266">
        <ele>106.2</ele>
        <time>2018-04-15T14:26:03Z</time>
      </trkpt>
      <trkpt lat="48.4108" lon="2.6726">
        <ele>106.2</ele>
        <time>2018-04-15T14:26:04Z</time>
      </trkpt>
      <trkpt lat="48.41084" lon="2.67254">
        <ele>106.1</ele>
        <time>2018-04-15T14:26:05Z</time>
      </trkpt>
      <trkpt lat="48.41087" lon="2.67248">
        <ele>106.1</ele>
        <time>2018-04-15T14:26:06Z</time>
      </trkpt>
      <trkpt lat="48.4109" lon="2.67243">
        <ele>106</ele>
        <time>2018-04-15T14:26:07Z</time>
      </trkpt>
      <trkpt lat="48.41093" lon="2.67237">
        <ele>106</ele>
        <time>2018-04-15T14:26:08Z</time>
      </trkpt>
      <trkpt lat="48.41096" lon="2.67231">
        <ele>106</ele>
        <time>2018-04-15T14:26:09Z</time>
      </trkpt>
      <trkpt lat="48.411" lon="2.67224">
        <ele>105.9</ele>
        <time>2018-04-15T14:26:10Z</time>
      </trkpt>
      <trkpt lat="48.41103" lon="2.67217">
        <ele>105.9</ele>
        <time>2018-04-15T14:26:11Z</time>
      </trkpt>
      <trkpt lat="48.41106" lon="2.67211">
        <ele>105.8</ele>
        <time>2018-04-15T14:26:12Z</time>
      </trkpt>
      <trkpt lat="48.41109" lon="2.67205">
        <ele>105.8</ele>
        <time>2018-04-15T14:26:13Z</time>
      </trkpt>
      <trkpt lat="48.41112" lon="2.67199">
        <ele>105.8</ele>
        <time>2018-04-15T14:26:14Z</time>
      </trkpt>
      <trkpt lat="48.41116" lon="2.67193">
        <ele>105.8</ele>
        <time>2018-04-15T14:26:15Z</time>
      </trkpt>
      <trkpt lat="48.41119" lon="2.67187">
        <ele>105.8</ele>
        <time>2018-04-15T14:26:16Z</time>
      </trkpt>
      <trkpt lat="48.41123" lon="2.67181">
        <ele>105.7</ele>
        <time>2018-04-15T14:26:17Z</time>
      </trkpt>
      <trkpt lat="48.41126" lon="2.67176">
        <ele>105.7</ele>
        <time>2018-04-15T14:26:18Z</time>
      </trkpt>
      <trkpt lat="48.41129" lon="2.67172">
        <ele>105.7</ele>
        <time>2018-04-15T14:26:19Z</time>
      </trkpt>
      <trkpt lat="48.41132" lon="2.67167">
        <ele>105.7</ele>
        <time>2018-04-15T14:26:20Z</time>
      </trkpt>
      <trkpt lat="48.41135" lon="2.67161">
        <ele>105.8</ele>
        <time>2018-04-15T14:26:21Z</time>
      </trkpt>
      <trkpt lat="48.41138" lon="2.67154">
        <ele>105.8</ele>
        <time>2018-04-15T14:26:22Z</time>
      </trkpt>
      <trkpt lat="48.41142" lon="2.67146">
        <ele>105.8</ele>
        <time>2018-04-15T14:26:23Z</time>
      </trkpt>
      <trkpt lat="48.41146" lon="2.6714">
        <ele>105.8</ele>
        <time>2018-04-15T14:26:24Z</time>
      </trkpt>
      <trkpt lat="48.4115" lon="2.67132">
        <ele>105.9</ele>
        <time>2018-04-15T14:26:25Z</time>
      </trkpt>
      <trkpt lat="48.41153" lon="2.67124">
        <ele>106.1</ele>
        <time>2018-04-15T14:26:26Z</time>
      </trkpt>
      <trkpt lat="48.41157" lon="2.67116">
        <ele>106.2</ele>
        <time>2018-04-15T14:26:27Z</time>
      </trkpt>
      <trkpt lat="48.41161" lon="2.67109">
        <ele>106.4</ele>
        <time>2018-04-15T14:26:28Z</time>
      </trkpt>
      <trkpt lat="48.41164" lon="2.67104">
        <ele>106.5</ele>
        <time>2018-04-15T14:26:29Z</time>
      </trkpt>
      <trkpt lat="48.41168" lon="2.67097">
        <ele>106.6</ele>
        <time>2018-04-15T14:26:30Z</time>
      </trkpt>
      <trkpt lat="48.41171" lon="2.67089">
        <ele>106.7</ele>
        <time>2018-04-15T14:26:31Z</time>
      </trkpt>
      <trkpt lat="48.41175" lon="2.67082">
        <ele>106.8</ele>
        <time>2018-04-15T14:26:32Z</time>
      </trkpt>
      <trkpt lat="48.41178" lon="2.67074">
        <ele>106.8</ele>
        <time>2018-04-15T14:26:33Z</time>
      </trkpt>
      <trkpt lat="48.41181" lon="2.67068">
        <ele>106.8</ele>
        <time>2018-04-15T14:26:34Z</time>
      </trkpt>
      <trkpt lat="48.41184" lon="2.67062">
        <ele>106.9</ele>
        <time>2018-04-15T14:26:35Z</time>
      </trkpt>
      <trkpt lat="48.41186" lon="2.67059">
        <ele>106.9</ele>
        <time>2018-04-15T14:26:36Z</time>
      </trkpt>
      <trkpt lat="48.41188" lon="2.67055">
        <ele>106.9</ele>
        <time>2018-04-15T14:26:37Z</time>
      </trkpt>
      <trkpt lat="48.41192" lon="2.67047">
        <ele>107</ele>
        <time>2018-04-15T14:26:39Z</time>
      </trkpt>
      <trkpt lat="48.41194" lon="2.67044">
        <ele>107</ele>
        <time>2018-04-15T14:26:40Z</time>
      </trkpt>
      <trkpt lat="48.41196" lon="2.6704">
        <ele>107</ele>
        <time>2018-04-15T14:26:41Z</time>
      </trkpt>
      <trkpt lat="48.41198" lon="2.67034">
        <ele>107</ele>
        <time>2018-04-15T14:26:42Z</time>
      </trkpt>
      <trkpt lat="48.412" lon="2.6703">
        <ele>107</ele>
        <time>2018-04-15T14:26:43Z</time>
      </trkpt>
      <trkpt lat="48.41203" lon="2.67026">
        <ele>107.1</ele>
        <time>2018-04-15T14:26:44Z</time>
      </trkpt>
      <trkpt lat="48.41206" lon="2.67021">
        <ele>107.1</ele>
        <time>2018-04-15T14:26:45Z</time>
      </trkpt>
      <trkpt lat="48.41209" lon="2.67017">
        <ele>107.1</ele>
        <time>2018-04-15T14:26:46Z</time>
      </trkpt>
      <trkpt lat="48.41211" lon="2.67012">
        <ele>107.1</ele>
        <time>2018-04-15T14:26:47Z</time>
      </trkpt>
      <trkpt lat="48.41214" lon="2.67008">
        <ele>107.1</ele>
        <time>2018-04-15T14:26:48Z</time>
      </trkpt>
      <trkpt lat="48.41218" lon="2.67001">
        <ele>107.1</ele>
        <time>2018-04-15T14:26:50Z</time>
      </trkpt>
      <trkpt lat="48.41221" lon="2.66995">
        <ele>107.1</ele>
        <time>2018-04-15T14:26:51Z</time>
      </trkpt>
      <trkpt lat="48.41223" lon="2.6699">
        <ele>107.1</ele>
        <time>2018-04-15T14:26:52Z</time>
      </trkpt>
      <trkpt lat="48.41226" lon="2.66986">
        <ele>107</ele>
        <time>2018-04-15T14:26:53Z</time>
      </trkpt>
      <trkpt lat="48.41229" lon="2.66981">
        <ele>107</ele>
        <time>2018-04-15T14:26:54Z</time>
      </trkpt>
      <trkpt lat="48.41231" lon="2.66978">
        <ele>107</ele>
        <time>2018-04-15T14:26:55Z</time>
      </trkpt>
      <trkpt lat="48.41235" lon="2.66973">
        <ele>107</ele>
        <time>2018-04-15T14:26:56Z</time>
      </trkpt>
      <trkpt lat="48.41237" lon="2.66968">
        <ele>107</ele>
        <time>2018-04-15T14:26:57Z</time>
      </trkpt>
      <trkpt lat="48.4124" lon="2.66965">
        <ele>107</ele>
        <time>2018-04-15T14:26:58Z</time>
      </trkpt>
      <trkpt lat="48.41242" lon="2.6696">
        <ele>107</ele>
        <time>2018-04-15T14:26:59Z</time>
      </trkpt>
      <trkpt lat="48.41246" lon="2.66953">
        <ele>106.4</ele>
        <time>2018-04-15T14:27:00Z</time>
      </trkpt>
      <trkpt lat="48.4125" lon="2.66946">
        <ele>106.4</ele>
        <time>2018-04-15T14:27:01Z</time>
      </trkpt>
      <trkpt lat="48.41252" lon="2.66942">
        <ele>106.4</ele>
        <time>2018-04-15T14:27:02Z</time>
      </trkpt>
      <trkpt lat="48.41255" lon="2.66937">
        <ele>106.4</ele>
        <time>2018-04-15T14:27:03Z</time>
      </trkpt>
      <trkpt lat="48.41259" lon="2.66931">
        <ele>106.3</ele>
        <time>2018-04-15T14:27:04Z</time>
      </trkpt>
      <trkpt lat="48.41262" lon="2.66925">
        <ele>106.3</ele>
        <time>2018-04-15T14:27:05Z</time>
      </trkpt>
      <trkpt lat="48.41265" lon="2.66919">
        <ele>106.3</ele>
        <time>2018-04-15T14:27:06Z</time>
      </trkpt>
      <trkpt lat="48.41267" lon="2.66913">
        <ele>106.3</ele>
        <time>2018-04-15T14:27:07Z</time>
      </trkpt>
      <trkpt lat="48.4127" lon="2.66909">
        <ele>106.4</ele>
        <time>2018-04-15T14:27:08Z</time>
      </trkpt>
      <trkpt lat="48.41273" lon="2.66904">
        <ele>106.5</ele>
        <time>2018-04-15T14:27:09Z</time>
      </trkpt>
      <trkpt lat="48.41274" lon="2.66899">
        <ele>106</ele>
        <time>2018-04-15T14:27:10Z</time>
      </trkpt>
      <trkpt lat="48.41277" lon="2.66893">
        <ele>106</ele>
        <time>2018-04-15T14:27:11Z</time>
      </trkpt>
      <trkpt lat="48.41279" lon="2.66889">
        <ele>105.5</ele>
        <time>2018-04-15T14:27:12Z</time>
      </trkpt>
      <trkpt lat="48.41281" lon="2.66885">
        <ele>105.6</ele>
        <time>2018-04-15T14:27:13Z</time>
      </trkpt>
      <trkpt lat="48.41282" lon="2.66881">
        <ele>105.1</ele>
        <time>2018-04-15T14:27:14Z</time>
      </trkpt>
      <trkpt lat="48.41284" lon="2.66877">
        <ele>105.1</ele>
        <time>2018-04-15T14:27:15Z</time>
      </trkpt>
      <trkpt lat="48.41286" lon="2.66872">
        <ele>105.1</ele>
        <time>2018-04-15T14:27:16Z</time>
      </trkpt>
      <trkpt lat="48.41288" lon="2.66868">
        <ele>104.7</ele>
        <time>2018-04-15T14:27:17Z</time>
      </trkpt>
      <trkpt lat="48.41291" lon="2.66861">
        <ele>105</ele>
        <time>2018-04-15T14:27:19Z</time>
      </trkpt>
      <trkpt lat="48.41295" lon="2.66855">
        <ele>105</ele>
        <time>2018-04-15T14:27:20Z</time>
      </trkpt>
      <trkpt lat="48.41298" lon="2.66848">
        <ele>105</ele>
        <time>2018-04-15T14:27:21Z</time>
      </trkpt>
      <trkpt lat="48.41302" lon="2.66841">
        <ele>105</ele>
        <time>2018-04-15T14:27:22Z</time>
      </trkpt>
      <trkpt lat="48.41304" lon="2.66836">
        <ele>105</ele>
        <time>2018-04-15T14:27:23Z</time>
      </trkpt>
      <trkpt lat="48.41306" lon="2.66832">
        <ele>105</ele>
        <time>2018-04-15T14:27:24Z</time>
      </trkpt>
      <trkpt lat="48.41308" lon="2.66827">
        <ele>105</ele>
        <time>2018-04-15T14:27:25Z</time>
      </trkpt>
      <trkpt lat="48.41311" lon="2.66821">
        <ele>105</ele>
        <time>2018-04-15T14:27:26Z</time>
      </trkpt>
      <trkpt lat="48.41315" lon="2.66816">
        <ele>105</ele>
        <time>2018-04-15T14:27:27Z</time>
      </trkpt>
      <trkpt lat="48.41317" lon="2.66811">
        <ele>105.3</ele>
        <time>2018-04-15T14:27:28Z</time>
      </trkpt>
      <trkpt lat="48.4132" lon="2.66807">
        <ele>105.6</ele>
        <time>2018-04-15T14:27:29Z</time>
      </trkpt>
      <trkpt lat="48.41321" lon="2.66802">
        <ele>105.8</ele>
        <time>2018-04-15T14:27:30Z</time>
      </trkpt>
      <trkpt lat="48.41324" lon="2.66797">
        <ele>106.2</ele>
        <time>2018-04-15T14:27:31Z</time>
      </trkpt>
      <trkpt lat="48.41326" lon="2.66791">
        <ele>106.8</ele>
        <time>2018-04-15T14:27:32Z</time>
      </trkpt>
      <trkpt lat="48.41329" lon="2.66784">
        <ele>107.2</ele>
        <time>2018-04-15T14:27:34Z</time>
      </trkpt>
      <trkpt lat="48.41331" lon="2.66779">
        <ele>107.9</ele>
        <time>2018-04-15T14:27:35Z</time>
      </trkpt>
      <trkpt lat="48.41333" lon="2.66772">
        <ele>108.4</ele>
        <time>2018-04-15T14:27:37Z</time>
      </trkpt>
      <trkpt lat="48.41335" lon="2.66768">
        <ele>108.8</ele>
        <time>2018-04-15T14:27:38Z</time>
      </trkpt>
      <trkpt lat="48.41336" lon="2.66765">
        <ele>109.2</ele>
        <time>2018-04-15T14:27:39Z</time>
      </trkpt>
      <trkpt lat="48.41337" lon="2.66761">
        <ele>109.6</ele>
        <time>2018-04-15T14:27:40Z</time>
      </trkpt>
      <trkpt lat="48.4134" lon="2.66752">
        <ele>110.3</ele>
        <time>2018-04-15T14:27:42Z</time>
      </trkpt>
      <trkpt lat="48.41343" lon="2.66745">
        <ele>110.8</ele>
        <time>2018-04-15T14:27:44Z</time>
      </trkpt>
      <trkpt lat="48.41344" lon="2.66742">
        <ele>111.3</ele>
        <time>2018-04-15T14:27:45Z</time>
      </trkpt>
      <trkpt lat="48.41347" lon="2.66735">
        <ele>112.2</ele>
        <time>2018-04-15T14:27:47Z</time>
      </trkpt>
      <trkpt lat="48.4135" lon="2.66729">
        <ele>112.7</ele>
        <time>2018-04-15T14:27:49Z</time>
      </trkpt>
      <trkpt lat="48.41352" lon="2.66723">
        <ele>113.3</ele>
        <time>2018-04-15T14:27:51Z</time>
      </trkpt>
      <trkpt lat="48.41354" lon="2.66719">
        <ele>114.2</ele>
        <time>2018-04-15T14:27:52Z</time>
      </trkpt>
      <trkpt lat="48.41356" lon="2.66713">
        <ele>114.6</ele>
        <time>2018-04-15T14:27:53Z</time>
      </trkpt>
      <trkpt lat="48.41358" lon="2.66709">
        <ele>115.3</ele>
        <time>2018-04-15T14:27:54Z</time>
      </trkpt>
      <trkpt lat="48.4136" lon="2.66705">
        <ele>115.9</ele>
        <time>2018-04-15T14:27:55Z</time>
      </trkpt>
      <trkpt lat="48.41361" lon="2.66701">
        <ele>116.1</ele>
        <time>2018-04-15T14:27:56Z</time>
      </trkpt>
      <trkpt lat="48.41364" lon="2.66695">
        <ele>116.5</ele>
        <time>2018-04-15T14:27:58Z</time>
      </trkpt>
      <trkpt lat="48.41366" lon="2.6669">
        <ele>116.8</ele>
        <time>2018-04-15T14:28:00Z</time>
      </trkpt>
      <trkpt lat="48.41367" lon="2.66686">
        <ele>117.1</ele>
        <time>2018-04-15T14:28:02Z</time>
      </trkpt>
      <trkpt lat="48.4137" lon="2.66681">
        <ele>117.5</ele>
        <time>2018-04-15T14:28:04Z</time>
      </trkpt>
      <trkpt lat="48.41372" lon="2.66677">
        <ele>118</ele>
        <time>2018-04-15T14:28:05Z</time>
      </trkpt>
      <trkpt lat="48.41374" lon="2.66671">
        <ele>118.9</ele>
        <time>2018-04-15T14:28:07Z</time>
      </trkpt>
      <trkpt lat="48.41375" lon="2.66667">
        <ele>119.4</ele>
        <time>2018-04-15T14:28:09Z</time>
      </trkpt>
      <trkpt lat="48.41376" lon="2.66662">
        <ele>120.1</ele>
        <time>2018-04-15T14:28:11Z</time>
      </trkpt>
      <trkpt lat="48.41379" lon="2.66654">
        <ele>121.1</ele>
        <time>2018-04-15T14:28:13Z</time>
      </trkpt>
      <trkpt lat="48.4138" lon="2.66649">
        <ele>123.6</ele>
        <time>2018-04-15T14:28:15Z</time>
      </trkpt>
      <trkpt lat="48.41381" lon="2.66645">
        <ele>123.8</ele>
        <time>2018-04-15T14:28:16Z</time>
      </trkpt>
      <trkpt lat="48.41382" lon="2.66641">
        <ele>124</ele>
        <time>2018-04-15T14:28:17Z</time>
      </trkpt>
      <trkpt lat="48.41384" lon="2.66633">
        <ele>124.4</ele>
        <time>2018-04-15T14:28:19Z</time>
      </trkpt>
      <trkpt lat="48.41386" lon="2.66628">
        <ele>124.6</ele>
        <time>2018-04-15T14:28:21Z</time>
      </trkpt>
      <trkpt lat="48.41389" lon="2.6662">
        <ele>125</ele>
        <time>2018-04-15T14:28:24Z</time>
      </trkpt>
      <trkpt lat="48.4139" lon="2.66616">
        <ele>125.2</ele>
        <time>2018-04-15T14:28:25Z</time>
      </trkpt>
      <trkpt lat="48.41392" lon="2.66611">
        <ele>125.5</ele>
        <time>2018-04-15T14:28:26Z</time>
      </trkpt>
      <trkpt lat="48.41394" lon="2.66605">
        <ele>125.7</ele>
        <time>2018-04-15T14:28:28Z</time>
      </trkpt>
      <trkpt lat="48.41396" lon="2.666">
        <ele>126</ele>
        <time>2018-04-15T14:28:29Z</time>
      </trkpt>
      <trkpt lat="48.41397" lon="2.66595">
        <ele>126.2</ele>
        <time>2018-04-15T14:28:32Z</time>
      </trkpt>
      <trkpt lat="48.41398" lon="2.66589">
        <ele>126.4</ele>
        <time>2018-04-15T14:28:35Z</time>
      </trkpt>
      <trkpt lat="48.414" lon="2.66583">
        <ele>126.7</ele>
        <time>2018-04-15T14:28:37Z</time>
      </trkpt>
      <trkpt lat="48.41402" lon="2.66578">
        <ele>126.9</ele>
        <time>2018-04-15T14:28:39Z</time>
      </trkpt>
      <trkpt lat="48.41404" lon="2.66573">
        <ele>127.1</ele>
        <time>2018-04-15T14:28:41Z</time>
      </trkpt>
      <trkpt lat="48.41406" lon="2.66568">
        <ele>127.3</ele>
        <time>2018-04-15T14:28:43Z</time>
      </trkpt>
      <trkpt lat="48.41409" lon="2.6656">
        <ele>127.7</ele>
        <time>2018-04-15T14:28:45Z</time>
      </trkpt>
      <trkpt lat="48.4141" lon="2.66556">
        <ele>127.8</ele>
        <time>2018-04-15T14:28:46Z</time>
      </trkpt>
      <trkpt lat="48.41411" lon="2.66552">
        <ele>127.9</ele>
        <time>2018-04-15T14:28:47Z</time>
      </trkpt>
      <trkpt lat="48.41413" lon="2.66547">
        <ele>128.1</ele>
        <time>2018-04-15T14:28:48Z</time>
      </trkpt>
      <trkpt lat="48.41414" lon="2.66543">
        <ele>128.2</ele>
        <time>2018-04-15T14:28:49Z</time>
      </trkpt>
      <trkpt lat="48.41416" lon="2.66539">
        <ele>128.4</ele>
        <time>2018-04-15T14:28:50Z</time>
      </trkpt>
      <trkpt lat="48.41417" lon="2.66535">
        <ele>128.5</ele>
        <time>2018-04-15T14:28:52Z</time>
      </trkpt>
      <trkpt lat="48.41418" lon="2.6653">
        <ele>128.6</ele>
        <time>2018-04-15T14:28:53Z</time>
      </trkpt>
      <trkpt lat="48.4142" lon="2.66524">
        <ele>128.8</ele>
        <time>2018-04-15T14:28:55Z</time>
      </trkpt>
      <trkpt lat="48.41422" lon="2.66518">
        <ele>128.9</ele>
        <time>2018-04-15T14:28:57Z</time>
      </trkpt>
      <trkpt lat="48.41425" lon="2.66511">
        <ele>129.1</ele>
        <time>2018-04-15T14:28:59Z</time>
      </trkpt>
      <trkpt lat="48.41427" lon="2.66507">
        <ele>129.2</ele>
        <time>2018-04-15T14:29:00Z</time>
      </trkpt>
      <trkpt lat="48.41428" lon="2.66502">
        <ele>129.3</ele>
        <time>2018-04-15T14:29:02Z</time>
      </trkpt>
      <trkpt lat="48.4143" lon="2.66495">
        <ele>129.4</ele>
        <time>2018-04-15T14:29:04Z</time>
      </trkpt>
      <trkpt lat="48.41432" lon="2.66487">
        <ele>129.5</ele>
        <time>2018-04-15T14:29:06Z</time>
      </trkpt>
      <trkpt lat="48.41434" lon="2.66481">
        <ele>129.6</ele>
        <time>2018-04-15T14:29:08Z</time>
      </trkpt>
      <trkpt lat="48.41435" lon="2.66477">
        <ele>129.6</ele>
        <time>2018-04-15T14:29:10Z</time>
      </trkpt>
      <trkpt lat="48.41437" lon="2.66471">
        <ele>129.7</ele>
        <time>2018-04-15T14:29:12Z</time>
      </trkpt>
      <trkpt lat="48.41439" lon="2.66467">
        <ele>129.7</ele>
        <time>2018-04-15T14:29:13Z</time>
      </trkpt>
      <trkpt lat="48.41441" lon="2.66461">
        <ele>129.8</ele>
        <time>2018-04-15T14:29:15Z</time>
      </trkpt>
      <trkpt lat="48.41443" lon="2.66455">
        <ele>129.9</ele>
        <time>2018-04-15T14:29:17Z</time>
      </trkpt>
      <trkpt lat="48.41446" lon="2.66446">
        <ele>130</ele>
        <time>2018-04-15T14:29:19Z</time>
      </trkpt>
      <trkpt lat="48.41448" lon="2.66441">
        <ele>130.1</ele>
        <time>2018-04-15T14:29:20Z</time>
      </trkpt>
      <trkpt lat="48.4145" lon="2.66435">
        <ele>130.2</ele>
        <time>2018-04-15T14:29:22Z</time>
      </trkpt>
      <trkpt lat="48.41452" lon="2.6643">
        <ele>130.3</ele>
        <time>2018-04-15T14:29:24Z</time>
      </trkpt>
      <trkpt lat="48.41453" lon="2.66426">
        <ele>130.4</ele>
        <time>2018-04-15T14:29:25Z</time>
      </trkpt>
      <trkpt lat="48.41455" lon="2.6642">
        <ele>130.5</ele>
        <time>2018-04-15T14:29:27Z</time>
      </trkpt>
      <trkpt lat="48.41456" lon="2.66413">
        <ele>130.6</ele>
        <time>2018-04-15T14:29:29Z</time>
      </trkpt>
      <trkpt lat="48.41457" lon="2.66408">
        <ele>130.7</ele>
        <time>2018-04-15T14:29:30Z</time>
      </trkpt>
      <trkpt lat="48.41458" lon="2.66402">
        <ele>130.8</ele>
        <time>2018-04-15T14:29:32Z</time>
      </trkpt>
      <trkpt lat="48.41459" lon="2.66397">
        <ele>130.9</ele>
        <time>2018-04-15T14:29:34Z</time>
      </trkpt>
      <trkpt lat="48.41459" lon="2.66391">
        <ele>131.1</ele>
        <time>2018-04-15T14:29:36Z</time>
      </trkpt>
      <trkpt lat="48.41461" lon="2.66384">
        <ele>131.2</ele>
        <time>2018-04-15T14:29:38Z</time>
      </trkpt>
      <trkpt lat="48.41463" lon="2.66375">
        <ele>131.4</ele>
        <time>2018-04-15T14:29:40Z</time>
      </trkpt>
      <trkpt lat="48.41464" lon="2.66368">
        <ele>131.6</ele>
        <time>2018-04-15T14:29:42Z</time>
      </trkpt>
      <trkpt lat="48.41465" lon="2.6636">
        <ele>131.8</ele>
        <time>2018-04-15T14:29:44Z</time>
      </trkpt>
      <trkpt lat="48.41466" lon="2.66353">
        <ele>132</ele>
        <time>2018-04-15T14:29:45Z</time>
      </trkpt>
      <trkpt lat="48.41467" lon="2.66348">
        <ele>132.2</ele>
        <time>2018-04-15T14:29:46Z</time>
      </trkpt>
      <trkpt lat="48.41468" lon="2.66338">
        <ele>132.4</ele>
        <time>2018-04-15T14:29:48Z</time>
      </trkpt>
      <trkpt lat="48.41468" lon="2.66333">
        <ele>132.6</ele>
        <time>2018-04-15T14:29:50Z</time>
      </trkpt>
      <trkpt lat="48.41468" lon="2.66328">
        <ele>132.7</ele>
        <time>2018-04-15T14:29:53Z</time>
      </trkpt>
      <trkpt lat="48.41469" lon="2.66319">
        <ele>132.9</ele>
        <time>2018-04-15T14:29:55Z</time>
      </trkpt>
      <trkpt lat="48.4147" lon="2.66312">
        <ele>133.1</ele>
        <time>2018-04-15T14:29:57Z</time>
      </trkpt>
      <trkpt lat="48.41471" lon="2.66307">
        <ele>133.3</ele>
        <time>2018-04-15T14:29:59Z</time>
      </trkpt>
      <trkpt lat="48.41472" lon="2.66302">
        <ele>133.4</ele>
        <time>2018-04-15T14:30:00Z</time>
      </trkpt>
      <trkpt lat="48.41473" lon="2.66297">
        <ele>133.5</ele>
        <time>2018-04-15T14:30:01Z</time>
      </trkpt>
      <trkpt lat="48.41474" lon="2.66293">
        <ele>133.6</ele>
        <time>2018-04-15T14:30:03Z</time>
      </trkpt>
      <trkpt lat="48.41477" lon="2.66284">
        <ele>133.7</ele>
        <time>2018-04-15T14:30:05Z</time>
      </trkpt>
      <trkpt lat="48.41479" lon="2.66278">
        <ele>133.8</ele>
        <time>2018-04-15T14:30:06Z</time>
      </trkpt>
      <trkpt lat="48.41481" lon="2.66273">
        <ele>133.8</ele>
        <time>2018-04-15T14:30:07Z</time>
      </trkpt>
      <trkpt lat="48.41483" lon="2.66266">
        <ele>133.9</ele>
        <time>2018-04-15T14:30:08Z</time>
      </trkpt>
      <trkpt lat="48.41486" lon="2.66261">
        <ele>133.9</ele>
        <time>2018-04-15T14:30:09Z</time>
      </trkpt>
      <trkpt lat="48.41488" lon="2.66255">
        <ele>133.9</ele>
        <time>2018-04-15T14:30:10Z</time>
      </trkpt>
      <trkpt lat="48.4149" lon="2.66251">
        <ele>133.9</ele>
        <time>2018-04-15T14:30:11Z</time>
      </trkpt>
      <trkpt lat="48.41494" lon="2.66244">
        <ele>133.9</ele>
        <time>2018-04-15T14:30:12Z</time>
      </trkpt>
      <trkpt lat="48.41496" lon="2.66239">
        <ele>133.9</ele>
        <time>2018-04-15T14:30:13Z</time>
      </trkpt>
      <trkpt lat="48.41498" lon="2.66234">
        <ele>134</ele>
        <time>2018-04-15T14:30:14Z</time>
      </trkpt>
      <trkpt lat="48.415" lon="2.66229">
        <ele>134</ele>
        <time>2018-04-15T14:30:15Z</time>
      </trkpt>
      <trkpt lat="48.41501" lon="2.66226">
        <ele>134</ele>
        <time>2018-04-15T14:30:16Z</time>
      </trkpt>
      <trkpt lat="48.41504" lon="2.66221">
        <ele>134</ele>
        <time>2018-04-15T14:30:17Z</time>
      </trkpt>
      <trkpt lat="48.41506" lon="2.66218">
        <ele>134</ele>
        <time>2018-04-15T14:30:18Z</time>
      </trkpt>
      <trkpt lat="48.41508" lon="2.66213">
        <ele>134.1</ele>
        <time>2018-04-15T14:30:20Z</time>
      </trkpt>
      <trkpt lat="48.41511" lon="2.66207">
        <ele>134.2</ele>
        <time>2018-04-15T14:30:22Z</time>
      </trkpt>
      <trkpt lat="48.41514" lon="2.66206">
        <ele>134.2</ele>
        <time>2018-04-15T14:30:40Z</time>
      </trkpt>
      <trkpt lat="48.41517" lon="2.66204">
        <ele>134.2</ele>
        <time>2018-04-15T14:31:00Z</time>
      </trkpt>
      <trkpt lat="48.41519" lon="2.66201">
        <ele>134.3</ele>
        <time>2018-04-15T14:31:07Z</time>
      </trkpt>
      <trkpt lat="48.41522" lon="2.66201">
        <ele>134.3</ele>
        <time>2018-04-15T14:31:16Z</time>
      </trkpt>
      <trkpt lat="48.41525" lon="2.662">
        <ele>134.4</ele>
        <time>2018-04-15T14:31:26Z</time>
      </trkpt>
      <trkpt lat="48.41522" lon="2.66201">
        <ele>134.3</ele>
        <time>2018-04-15T14:32:29Z</time>
      </trkpt>
      <trkpt lat="48.4152" lon="2.66204">
        <ele>134.3</ele>
        <time>2018-04-15T14:32:42Z</time>
      </trkpt>
      <trkpt lat="48.41517" lon="2.66205">
        <ele>134.2</ele>
        <time>2018-04-15T14:32:48Z</time>
      </trkpt>
      <trkpt lat="48.41515" lon="2.66208">
        <ele>134.2</ele>
        <time>2018-04-15T14:33:28Z</time>
      </trkpt>
      <trkpt lat="48.41514" lon="2.66212">
        <ele>134.2</ele>
        <time>2018-04-15T14:33:43Z</time>
      </trkpt>
      <trkpt lat="48.41517" lon="2.66211">
        <ele>134.2</ele>
        <time>2018-04-15T14:34:24Z</time>
      </trkpt>
      <trkpt lat="48.41519" lon="2.66207">
        <ele>134.3</ele>
        <time>2018-04-15T14:34:35Z</time>
      </trkpt>
      <trkpt lat="48.41521" lon="2.66202">
        <ele>134.3</ele>
        <time>2018-04-15T14:34:37Z</time>
      </trkpt>
      <trkpt lat="48.41523" lon="2.66198">
        <ele>134.4</ele>
        <time>2018-04-15T14:34:38Z</time>
      </trkpt>
      <trkpt lat="48.41526" lon="2.66194">
        <ele>134.4</ele>
        <time>2018-04-15T14:34:39Z</time>
      </trkpt>
      <trkpt lat="48.41528" lon="2.66191">
        <ele>134.5</ele>
        <time>2018-04-15T14:34:41Z</time>
      </trkpt>
      <trkpt lat="48.41531" lon="2.66186">
        <ele>134.6</ele>
        <time>2018-04-15T14:34:43Z</time>
      </trkpt>
      <trkpt lat="48.41534" lon="2.66179">
        <ele>134.7</ele>
        <time>2018-04-15T14:34:45Z</time>
      </trkpt>
      <trkpt lat="48.41536" lon="2.66175">
        <ele>134.8</ele>
        <time>2018-04-15T14:34:46Z</time>
      </trkpt>
      <trkpt lat="48.41538" lon="2.6617">
        <ele>134.8</ele>
        <time>2018-04-15T14:34:47Z</time>
      </trkpt>
      <trkpt lat="48.41541" lon="2.66164">
        <ele>134.9</ele>
        <time>2018-04-15T14:34:49Z</time>
      </trkpt>
      <trkpt lat="48.41544" lon="2.66158">
        <ele>135</ele>
        <time>2018-04-15T14:34:51Z</time>
      </trkpt>
      <trkpt lat="48.41545" lon="2.66153">
        <ele>135</ele>
        <time>2018-04-15T14:34:52Z</time>
      </trkpt>
      <trkpt lat="48.41548" lon="2.66146">
        <ele>135.1</ele>
        <time>2018-04-15T14:34:54Z</time>
      </trkpt>
      <trkpt lat="48.41549" lon="2.66142">
        <ele>135.2</ele>
        <time>2018-04-15T14:34:55Z</time>
      </trkpt>
      <trkpt lat="48.4155" lon="2.66138">
        <ele>135.2</ele>
        <time>2018-04-15T14:34:56Z</time>
      </trkpt>
      <trkpt lat="48.41551" lon="2.66134">
        <ele>135.3</ele>
        <time>2018-04-15T14:34:57Z</time>
      </trkpt>
      <trkpt lat="48.41554" lon="2.66125">
        <ele>135.4</ele>
        <time>2018-04-15T14:34:59Z</time>
      </trkpt>
      <trkpt lat="48.41556" lon="2.66118">
        <ele>135.5</ele>
        <time>2018-04-15T14:35:01Z</time>
      </trkpt>
      <trkpt lat="48.41557" lon="2.66113">
        <ele>135.6</ele>
        <time>2018-04-15T14:35:02Z</time>
      </trkpt>
      <trkpt lat="48.41558" lon="2.66109">
        <ele>135.7</ele>
        <time>2018-04-15T14:35:03Z</time>
      </trkpt>
      <trkpt lat="48.41559" lon="2.66104">
        <ele>135.7</ele>
        <time>2018-04-15T14:35:04Z</time>
      </trkpt>
      <trkpt lat="48.41561" lon="2.661">
        <ele>135.8</ele>
        <time>2018-04-15T14:35:05Z</time>
      </trkpt>
      <trkpt lat="48.41562" lon="2.66095">
        <ele>135.8</ele>
        <time>2018-04-15T14:35:06Z</time>
      </trkpt>
      <trkpt lat="48.41563" lon="2.6609">
        <ele>135.8</ele>
        <time>2018-04-15T14:35:07Z</time>
      </trkpt>
      <trkpt lat="48.41565" lon="2.66084">
        <ele>135.9</ele>
        <time>2018-04-15T14:35:08Z</time>
      </trkpt>
      <trkpt lat="48.41566" lon="2.6608">
        <ele>135.9</ele>
        <time>2018-04-15T14:35:09Z</time>
      </trkpt>
      <trkpt lat="48.41567" lon="2.66076">
        <ele>135.9</ele>
        <time>2018-04-15T14:35:10Z</time>
      </trkpt>
      <trkpt lat="48.41568" lon="2.66071">
        <ele>135.9</ele>
        <time>2018-04-15T14:35:11Z</time>
      </trkpt>
      <trkpt lat="48.41571" lon="2.66063">
        <ele>135.9</ele>
        <time>2018-04-15T14:35:12Z</time>
      </trkpt>
      <trkpt lat="48.41572" lon="2.66057">
        <ele>136</ele>
        <time>2018-04-15T14:35:13Z</time>
      </trkpt>
      <trkpt lat="48.41574" lon="2.66053">
        <ele>136</ele>
        <time>2018-04-15T14:35:14Z</time>
      </trkpt>
      <trkpt lat="48.41576" lon="2.66046">
        <ele>136</ele>
        <time>2018-04-15T14:35:16Z</time>
      </trkpt>
      <trkpt lat="48.41579" lon="2.66041">
        <ele>136</ele>
        <time>2018-04-15T14:35:17Z</time>
      </trkpt>
      <trkpt lat="48.41582" lon="2.66038">
        <ele>136</ele>
        <time>2018-04-15T14:35:18Z</time>
      </trkpt>
      <trkpt lat="48.41585" lon="2.66032">
        <ele>136</ele>
        <time>2018-04-15T14:35:19Z</time>
      </trkpt>
      <trkpt lat="48.41588" lon="2.66027">
        <ele>136</ele>
        <time>2018-04-15T14:35:20Z</time>
      </trkpt>
      <trkpt lat="48.41591" lon="2.66024">
        <ele>136</ele>
        <time>2018-04-15T14:35:21Z</time>
      </trkpt>
      <trkpt lat="48.41595" lon="2.66019">
        <ele>136.1</ele>
        <time>2018-04-15T14:35:22Z</time>
      </trkpt>
      <trkpt lat="48.41598" lon="2.66016">
        <ele>136.1</ele>
        <time>2018-04-15T14:35:23Z</time>
      </trkpt>
      <trkpt lat="48.41603" lon="2.66011">
        <ele>136.1</ele>
        <time>2018-04-15T14:35:25Z</time>
      </trkpt>
      <trkpt lat="48.41606" lon="2.66006">
        <ele>136.1</ele>
        <time>2018-04-15T14:35:26Z</time>
      </trkpt>
      <trkpt lat="48.41609" lon="2.66003">
        <ele>136.1</ele>
        <time>2018-04-15T14:35:27Z</time>
      </trkpt>
      <trkpt lat="48.41613" lon="2.66">
        <ele>136.1</ele>
        <time>2018-04-15T14:35:28Z</time>
      </trkpt>
      <trkpt lat="48.41616" lon="2.65995">
        <ele>136.2</ele>
        <time>2018-04-15T14:35:29Z</time>
      </trkpt>
      <trkpt lat="48.41619" lon="2.65991">
        <ele>136.2</ele>
        <time>2018-04-15T14:35:30Z</time>
      </trkpt>
      <trkpt lat="48.41622" lon="2.65988">
        <ele>136.2</ele>
        <time>2018-04-15T14:35:31Z</time>
      </trkpt>
      <trkpt lat="48.41625" lon="2.65984">
        <ele>136.3</ele>
        <time>2018-04-15T14:35:32Z</time>
      </trkpt>
      <trkpt lat="48.41628" lon="2.6598">
        <ele>136.3</ele>
        <time>2018-04-15T14:35:33Z</time>
      </trkpt>
      <trkpt lat="48.41631" lon="2.65975">
        <ele>136.4</ele>
        <time>2018-04-15T14:35:34Z</time>
      </trkpt>
      <trkpt lat="48.41634" lon="2.65971">
        <ele>136.5</ele>
        <time>2018-04-15T14:35:35Z</time>
      </trkpt>
      <trkpt lat="48.41636" lon="2.65969">
        <ele>136.6</ele>
        <time>2018-04-15T14:35:36Z</time>
      </trkpt>
      <trkpt lat="48.41639" lon="2.65965">
        <ele>136.7</ele>
        <time>2018-04-15T14:35:37Z</time>
      </trkpt>
      <trkpt lat="48.41641" lon="2.65962">
        <ele>136.8</ele>
        <time>2018-04-15T14:35:38Z</time>
      </trkpt>
      <trkpt lat="48.41644" lon="2.65957">
        <ele>136.9</ele>
        <time>2018-04-15T14:35:39Z</time>
      </trkpt>
      <trkpt lat="48.41646" lon="2.65954">
        <ele>137</ele>
        <time>2018-04-15T14:35:40Z</time>
      </trkpt>
      <trkpt lat="48.41648" lon="2.6595">
        <ele>137.1</ele>
        <time>2018-04-15T14:35:41Z</time>
      </trkpt>
      <trkpt lat="48.4165" lon="2.65947">
        <ele>137.3</ele>
        <time>2018-04-15T14:35:42Z</time>
      </trkpt>
      <trkpt lat="48.41654" lon="2.65941">
        <ele>137.4</ele>
        <time>2018-04-15T14:35:44Z</time>
      </trkpt>
      <trkpt lat="48.41656" lon="2.65938">
        <ele>137.5</ele>
        <time>2018-04-15T14:35:45Z</time>
      </trkpt>
      <trkpt lat="48.41658" lon="2.65935">
        <ele>137.5</ele>
        <time>2018-04-15T14:35:46Z</time>
      </trkpt>
      <trkpt lat="48.4166" lon="2.65933">
        <ele>137.6</ele>
        <time>2018-04-15T14:35:47Z</time>
      </trkpt>
      <trkpt lat="48.41663" lon="2.65929">
        <ele>137.7</ele>
        <time>2018-04-15T14:35:48Z</time>
      </trkpt>
      <trkpt lat="48.41665" lon="2.65926">
        <ele>137.7</ele>
        <time>2018-04-15T14:35:49Z</time>
      </trkpt>
      <trkpt lat="48.41669" lon="2.65923">
        <ele>137.8</ele>
        <time>2018-04-15T14:35:50Z</time>
      </trkpt>
      <trkpt lat="48.41672" lon="2.6592">
        <ele>137.8</ele>
        <time>2018-04-15T14:35:51Z</time>
      </trkpt>
      <trkpt lat="48.41674" lon="2.65916">
        <ele>137.9</ele>
        <time>2018-04-15T14:35:52Z</time>
      </trkpt>
      <trkpt lat="48.41677" lon="2.65913">
        <ele>138</ele>
        <time>2018-04-15T14:35:53Z</time>
      </trkpt>
      <trkpt lat="48.41679" lon="2.6591">
        <ele>138</ele>
        <time>2018-04-15T14:35:54Z</time>
      </trkpt>
      <trkpt lat="48.41682" lon="2.65906">
        <ele>138</ele>
        <time>2018-04-15T14:35:55Z</time>
      </trkpt>
      <trkpt lat="48.41685" lon="2.65903">
        <ele>138</ele>
        <time>2018-04-15T14:35:56Z</time>
      </trkpt>
      <trkpt lat="48.41688" lon="2.659">
        <ele>138</ele>
        <time>2018-04-15T14:35:57Z</time>
      </trkpt>
      <trkpt lat="48.4169" lon="2.65897">
        <ele>138</ele>
        <time>2018-04-15T14:35:58Z</time>
      </trkpt>
      <trkpt lat="48.41694" lon="2.65894">
        <ele>138</ele>
        <time>2018-04-15T14:35:59Z</time>
      </trkpt>
      <trkpt lat="48.41696" lon="2.65891">
        <ele>138</ele>
        <time>2018-04-15T14:36:00Z</time>
      </trkpt>
      <trkpt lat="48.41699" lon="2.65888">
        <ele>138.1</ele>
        <time>2018-04-15T14:36:01Z</time>
      </trkpt>
      <trkpt lat="48.41702" lon="2.65885">
        <ele>138.1</ele>
        <time>2018-04-15T14:36:02Z</time>
      </trkpt>
      <trkpt lat="48.41705" lon="2.65882">
        <ele>138.2</ele>
        <time>2018-04-15T14:36:03Z</time>
      </trkpt>
      <trkpt lat="48.41708" lon="2.65879">
        <ele>138.2</ele>
        <time>2018-04-15T14:36:04Z</time>
      </trkpt>
      <trkpt lat="48.41712" lon="2.65876">
        <ele>138.3</ele>
        <time>2018-04-15T14:36:05Z</time>
      </trkpt>
      <trkpt lat="48.41715" lon="2.65871">
        <ele>138.4</ele>
        <time>2018-04-15T14:36:06Z</time>
      </trkpt>
      <trkpt lat="48.41718" lon="2.65868">
        <ele>138.5</ele>
        <time>2018-04-15T14:36:07Z</time>
      </trkpt>
      <trkpt lat="48.4172" lon="2.65865">
        <ele>138.6</ele>
        <time>2018-04-15T14:36:08Z</time>
      </trkpt>
      <trkpt lat="48.41724" lon="2.65861">
        <ele>138.8</ele>
        <time>2018-04-15T14:36:09Z</time>
      </trkpt>
      <trkpt lat="48.41728" lon="2.65855">
        <ele>139</ele>
        <time>2018-04-15T14:36:10Z</time>
      </trkpt>
      <trkpt lat="48.41732" lon="2.65852">
        <ele>139.1</ele>
        <time>2018-04-15T14:36:11Z</time>
      </trkpt>
      <trkpt lat="48.41735" lon="2.65848">
        <ele>139.1</ele>
        <time>2018-04-15T14:36:12Z</time>
      </trkpt>
      <trkpt lat="48.41737" lon="2.65844">
        <ele>139.1</ele>
        <time>2018-04-15T14:36:13Z</time>
      </trkpt>
      <trkpt lat="48.41741" lon="2.65839">
        <ele>139.1</ele>
        <time>2018-04-15T14:36:14Z</time>
      </trkpt>
      <trkpt lat="48.41745" lon="2.65834">
        <ele>139.1</ele>
        <time>2018-04-15T14:36:15Z</time>
      </trkpt>
      <trkpt lat="48.41747" lon="2.65831">
        <ele>139.1</ele>
        <time>2018-04-15T14:36:16Z</time>
      </trkpt>
      <trkpt lat="48.41752" lon="2.65824">
        <ele>139.1</ele>
        <time>2018-04-15T14:36:18Z</time>
      </trkpt>
      <trkpt lat="48.41754" lon="2.65819">
        <ele>139.1</ele>
        <time>2018-04-15T14:36:19Z</time>
      </trkpt>
      <trkpt lat="48.41758" lon="2.65813">
        <ele>139.1</ele>
        <time>2018-04-15T14:36:20Z</time>
      </trkpt>
      <trkpt lat="48.4176" lon="2.65809">
        <ele>139.1</ele>
        <time>2018-04-15T14:36:21Z</time>
      </trkpt>
      <trkpt lat="48.41763" lon="2.65803">
        <ele>139.1</ele>
        <time>2018-04-15T14:36:22Z</time>
      </trkpt>
      <trkpt lat="48.41765" lon="2.65798">
        <ele>139.1</ele>
        <time>2018-04-15T14:36:23Z</time>
      </trkpt>
      <trkpt lat="48.41767" lon="2.65792">
        <ele>139.1</ele>
        <time>2018-04-15T14:36:24Z</time>
      </trkpt>
      <trkpt lat="48.4177" lon="2.65785">
        <ele>139.1</ele>
        <time>2018-04-15T14:36:25Z</time>
      </trkpt>
      <trkpt lat="48.41772" lon="2.6578">
        <ele>139</ele>
        <time>2018-04-15T14:36:26Z</time>
      </trkpt>
      <trkpt lat="48.41774" lon="2.65775">
        <ele>139</ele>
        <time>2018-04-15T14:36:27Z</time>
      </trkpt>
      <trkpt lat="48.41776" lon="2.65769">
        <ele>139</ele>
        <time>2018-04-15T14:36:28Z</time>
      </trkpt>
      <trkpt lat="48.41779" lon="2.65763">
        <ele>139</ele>
        <time>2018-04-15T14:36:30Z</time>
      </trkpt>
      <trkpt lat="48.41781" lon="2.65758">
        <ele>139</ele>
        <time>2018-04-15T14:36:31Z</time>
      </trkpt>
      <trkpt lat="48.41784" lon="2.65752">
        <ele>139</ele>
        <time>2018-04-15T14:36:32Z</time>
      </trkpt>
      <trkpt lat="48.41787" lon="2.65746">
        <ele>139</ele>
        <time>2018-04-15T14:36:33Z</time>
      </trkpt>
      <trkpt lat="48.4179" lon="2.65741">
        <ele>138.9</ele>
        <time>2018-04-15T14:36:34Z</time>
      </trkpt>
      <trkpt lat="48.41792" lon="2.65736">
        <ele>138.9</ele>
        <time>2018-04-15T14:36:35Z</time>
      </trkpt>
      <trkpt lat="48.41794" lon="2.65732">
        <ele>138.9</ele>
        <time>2018-04-15T14:36:36Z</time>
      </trkpt>
      <trkpt lat="48.41797" lon="2.65728">
        <ele>138.9</ele>
        <time>2018-04-15T14:36:37Z</time>
      </trkpt>
      <trkpt lat="48.41799" lon="2.65723">
        <ele>138.9</ele>
        <time>2018-04-15T14:36:38Z</time>
      </trkpt>
      <trkpt lat="48.41803" lon="2.65717">
        <ele>138.9</ele>
        <time>2018-04-15T14:36:39Z</time>
      </trkpt>
      <trkpt lat="48.41807" lon="2.65712">
        <ele>138.9</ele>
        <time>2018-04-15T14:36:40Z</time>
      </trkpt>
      <trkpt lat="48.41811" lon="2.65708">
        <ele>138.9</ele>
        <time>2018-04-15T14:36:41Z</time>
      </trkpt>
      <trkpt lat="48.41815" lon="2.65703">
        <ele>138.9</ele>
        <time>2018-04-15T14:36:42Z</time>
      </trkpt>
      <trkpt lat="48.4182" lon="2.65698">
        <ele>138.9</ele>
        <time>2018-04-15T14:36:43Z</time>
      </trkpt>
      <trkpt lat="48.41824" lon="2.65695">
        <ele>138.9</ele>
        <time>2018-04-15T14:36:44Z</time>
      </trkpt>
      <trkpt lat="48.41829" lon="2.65693">
        <ele>138.9</ele>
        <time>2018-04-15T14:36:45Z</time>
      </trkpt>
      <trkpt lat="48.41833" lon="2.65689">
        <ele>138.9</ele>
        <time>2018-04-15T14:36:46Z</time>
      </trkpt>
      <trkpt lat="48.41838" lon="2.65687">
        <ele>138.8</ele>
        <time>2018-04-15T14:36:47Z</time>
      </trkpt>
      <trkpt lat="48.41842" lon="2.65685">
        <ele>138.8</ele>
        <time>2018-04-15T14:36:48Z</time>
      </trkpt>
      <trkpt lat="48.41846" lon="2.65683">
        <ele>138.8</ele>
        <time>2018-04-15T14:36:49Z</time>
      </trkpt>
      <trkpt lat="48.4185" lon="2.65681">
        <ele>138.8</ele>
        <time>2018-04-15T14:36:50Z</time>
      </trkpt>
      <trkpt lat="48.41855" lon="2.65679">
        <ele>138.8</ele>
        <time>2018-04-15T14:36:51Z</time>
      </trkpt>
      <trkpt lat="48.41858" lon="2.65677">
        <ele>138.8</ele>
        <time>2018-04-15T14:36:52Z</time>
      </trkpt>
      <trkpt lat="48.41864" lon="2.65675">
        <ele>138.8</ele>
        <time>2018-04-15T14:36:53Z</time>
      </trkpt>
      <trkpt lat="48.41868" lon="2.65673">
        <ele>138.8</ele>
        <time>2018-04-15T14:36:54Z</time>
      </trkpt>
      <trkpt lat="48.41872" lon="2.65671">
        <ele>138.8</ele>
        <time>2018-04-15T14:36:55Z</time>
      </trkpt>
      <trkpt lat="48.41876" lon="2.65669">
        <ele>138.8</ele>
        <time>2018-04-15T14:36:56Z</time>
      </trkpt>
      <trkpt lat="48.41882" lon="2.65667">
        <ele>138.8</ele>
        <time>2018-04-15T14:36:57Z</time>
      </trkpt>
      <trkpt lat="48.41886" lon="2.65665">
        <ele>138.7</ele>
        <time>2018-04-15T14:36:58Z</time>
      </trkpt>
      <trkpt lat="48.4189" lon="2.65663">
        <ele>138.7</ele>
        <time>2018-04-15T14:36:59Z</time>
      </trkpt>
      <trkpt lat="48.41895" lon="2.65661">
        <ele>138.7</ele>
        <time>2018-04-15T14:37:00Z</time>
      </trkpt>
      <trkpt lat="48.419" lon="2.65657">
        <ele>138.7</ele>
        <time>2018-04-15T14:37:01Z</time>
      </trkpt>
      <trkpt lat="48.41905" lon="2.65653">
        <ele>138.7</ele>
        <time>2018-04-15T14:37:02Z</time>
      </trkpt>
      <trkpt lat="48.41909" lon="2.65648">
        <ele>138.6</ele>
        <time>2018-04-15T14:37:03Z</time>
      </trkpt>
      <trkpt lat="48.41913" lon="2.65644">
        <ele>138.6</ele>
        <time>2018-04-15T14:37:04Z</time>
      </trkpt>
      <trkpt lat="48.41916" lon="2.65641">
        <ele>138.5</ele>
        <time>2018-04-15T14:37:05Z</time>
      </trkpt>
      <trkpt lat="48.4192" lon="2.65636">
        <ele>138.5</ele>
        <time>2018-04-15T14:37:06Z</time>
      </trkpt>
      <trkpt lat="48.41924" lon="2.65631">
        <ele>138.3</ele>
        <time>2018-04-15T14:37:07Z</time>
      </trkpt>
      <trkpt lat="48.41929" lon="2.65626">
        <ele>138.1</ele>
        <time>2018-04-15T14:37:08Z</time>
      </trkpt>
      <trkpt lat="48.41933" lon="2.65621">
        <ele>137.9</ele>
        <time>2018-04-15T14:37:09Z</time>
      </trkpt>
      <trkpt lat="48.41936" lon="2.65617">
        <ele>137.8</ele>
        <time>2018-04-15T14:37:10Z</time>
      </trkpt>
      <trkpt lat="48.4194" lon="2.65613">
        <ele>137.6</ele>
        <time>2018-04-15T14:37:11Z</time>
      </trkpt>
      <trkpt lat="48.41943" lon="2.6561">
        <ele>137.4</ele>
        <time>2018-04-15T14:37:12Z</time>
      </trkpt>
      <trkpt lat="48.41947" lon="2.65605">
        <ele>137.3</ele>
        <time>2018-04-15T14:37:13Z</time>
      </trkpt>
      <trkpt lat="48.41951" lon="2.65601">
        <ele>137.2</ele>
        <time>2018-04-15T14:37:14Z</time>
      </trkpt>
      <trkpt lat="48.41955" lon="2.65596">
        <ele>137.2</ele>
        <time>2018-04-15T14:37:15Z</time>
      </trkpt>
      <trkpt lat="48.41959" lon="2.6559">
        <ele>137.1</ele>
        <time>2018-04-15T14:37:16Z</time>
      </trkpt>
      <trkpt lat="48.41962" lon="2.65586">
        <ele>137</ele>
        <time>2018-04-15T14:37:17Z</time>
      </trkpt>
      <trkpt lat="48.41967" lon="2.6558">
        <ele>137</ele>
        <time>2018-04-15T14:37:18Z</time>
      </trkpt>
      <trkpt lat="48.41973" lon="2.65573">
        <ele>136.9</ele>
        <time>2018-04-15T14:37:19Z</time>
      </trkpt>
      <trkpt lat="48.41977" lon="2.65568">
        <ele>136.8</ele>
        <time>2018-04-15T14:37:20Z</time>
      </trkpt>
      <trkpt lat="48.41982" lon="2.65562">
        <ele>136.7</ele>
        <time>2018-04-15T14:37:21Z</time>
      </trkpt>
      <trkpt lat="48.41986" lon="2.65555">
        <ele>136.7</ele>
        <time>2018-04-15T14:37:22Z</time>
      </trkpt>
      <trkpt lat="48.41992" lon="2.65548">
        <ele>136.6</ele>
        <time>2018-04-15T14:37:23Z</time>
      </trkpt>
      <trkpt lat="48.41996" lon="2.65542">
        <ele>136.5</ele>
        <time>2018-04-15T14:37:24Z</time>
      </trkpt>
      <trkpt lat="48.42" lon="2.65536">
        <ele>136.5</ele>
        <time>2018-04-15T14:37:25Z</time>
      </trkpt>
      <trkpt lat="48.42004" lon="2.65531">
        <ele>136.4</ele>
        <time>2018-04-15T14:37:26Z</time>
      </trkpt>
      <trkpt lat="48.42009" lon="2.65524">
        <ele>136.4</ele>
        <time>2018-04-15T14:37:27Z</time>
      </trkpt>
      <trkpt lat="48.42015" lon="2.65517">
        <ele>136.4</ele>
        <time>2018-04-15T14:37:28Z</time>
      </trkpt>
      <trkpt lat="48.4202" lon="2.65509">
        <ele>136.4</ele>
        <time>2018-04-15T14:37:29Z</time>
      </trkpt>
      <trkpt lat="48.42025" lon="2.65501">
        <ele>136.4</ele>
        <time>2018-04-15T14:37:30Z</time>
      </trkpt>
      <trkpt lat="48.42029" lon="2.65494">
        <ele>136.3</ele>
        <time>2018-04-15T14:37:31Z</time>
      </trkpt>
      <trkpt lat="48.42034" lon="2.65486">
        <ele>136.3</ele>
        <time>2018-04-15T14:37:32Z</time>
      </trkpt>
      <trkpt lat="48.42039" lon="2.65479">
        <ele>136.3</ele>
        <time>2018-04-15T14:37:33Z</time>
      </trkpt>
      <trkpt lat="48.42043" lon="2.65471">
        <ele>136.3</ele>
        <time>2018-04-15T14:37:34Z</time>
      </trkpt>
      <trkpt lat="48.42048" lon="2.65461">
        <ele>136.3</ele>
        <time>2018-04-15T14:37:35Z</time>
      </trkpt>
      <trkpt lat="48.42052" lon="2.65455">
        <ele>136.3</ele>
        <time>2018-04-15T14:37:36Z</time>
      </trkpt>
      <trkpt lat="48.42055" lon="2.65449">
        <ele>136.3</ele>
        <time>2018-04-15T14:37:37Z</time>
      </trkpt>
      <trkpt lat="48.4206" lon="2.65442">
        <ele>136.3</ele>
        <time>2018-04-15T14:37:38Z</time>
      </trkpt>
      <trkpt lat="48.42063" lon="2.65436">
        <ele>136.2</ele>
        <time>2018-04-15T14:37:39Z</time>
      </trkpt>
      <trkpt lat="48.42068" lon="2.65429">
        <ele>136.2</ele>
        <time>2018-04-15T14:37:40Z</time>
      </trkpt>
      <trkpt lat="48.42072" lon="2.65421">
        <ele>136.2</ele>
        <time>2018-04-15T14:37:41Z</time>
      </trkpt>
      <trkpt lat="48.42076" lon="2.65415">
        <ele>136.2</ele>
        <time>2018-04-15T14:37:42Z</time>
      </trkpt>
      <trkpt lat="48.42079" lon="2.6541">
        <ele>136.2</ele>
        <time>2018-04-15T14:37:43Z</time>
      </trkpt>
      <trkpt lat="48.42083" lon="2.65403">
        <ele>136.2</ele>
        <time>2018-04-15T14:37:44Z</time>
      </trkpt>
      <trkpt lat="48.42086" lon="2.65398">
        <ele>136.2</ele>
        <time>2018-04-15T14:37:45Z</time>
      </trkpt>
      <trkpt lat="48.4209" lon="2.65392">
        <ele>136.2</ele>
        <time>2018-04-15T14:37:46Z</time>
      </trkpt>
      <trkpt lat="48.42093" lon="2.65386">
        <ele>136.1</ele>
        <time>2018-04-15T14:37:47Z</time>
      </trkpt>
      <trkpt lat="48.42096" lon="2.6538">
        <ele>136.1</ele>
        <time>2018-04-15T14:37:48Z</time>
      </trkpt>
      <trkpt lat="48.421" lon="2.65374">
        <ele>136.1</ele>
        <time>2018-04-15T14:37:49Z</time>
      </trkpt>
      <trkpt lat="48.42103" lon="2.6537">
        <ele>136.1</ele>
        <time>2018-04-15T14:37:50Z</time>
      </trkpt>
      <trkpt lat="48.42107" lon="2.65364">
        <ele>136.1</ele>
        <time>2018-04-15T14:37:51Z</time>
      </trkpt>
      <trkpt lat="48.42112" lon="2.65358">
        <ele>136.1</ele>
        <time>2018-04-15T14:37:52Z</time>
      </trkpt>
      <trkpt lat="48.42115" lon="2.65353">
        <ele>136.1</ele>
        <time>2018-04-15T14:37:53Z</time>
      </trkpt>
      <trkpt lat="48.42118" lon="2.65349">
        <ele>136.1</ele>
        <time>2018-04-15T14:37:54Z</time>
      </trkpt>
      <trkpt lat="48.42122" lon="2.65345">
        <ele>136.1</ele>
        <time>2018-04-15T14:37:55Z</time>
      </trkpt>
      <trkpt lat="48.42125" lon="2.65341">
        <ele>136</ele>
        <time>2018-04-15T14:37:56Z</time>
      </trkpt>
      <trkpt lat="48.42128" lon="2.65338">
        <ele>136</ele>
        <time>2018-04-15T14:37:57Z</time>
      </trkpt>
      <trkpt lat="48.42132" lon="2.65332">
        <ele>136</ele>
        <time>2018-04-15T14:37:59Z</time>
      </trkpt>
      <trkpt lat="48.42134" lon="2.65329">
        <ele>136</ele>
        <time>2018-04-15T14:38:00Z</time>
      </trkpt>
      <trkpt lat="48.42138" lon="2.65325">
        <ele>136</ele>
        <time>2018-04-15T14:38:01Z</time>
      </trkpt>
      <trkpt lat="48.4214" lon="2.65322">
        <ele>136</ele>
        <time>2018-04-15T14:38:02Z</time>
      </trkpt>
      <trkpt lat="48.42143" lon="2.65319">
        <ele>136</ele>
        <time>2018-04-15T14:38:03Z</time>
      </trkpt>
      <trkpt lat="48.42146" lon="2.65313">
        <ele>135.9</ele>
        <time>2018-04-15T14:38:05Z</time>
      </trkpt>
      <trkpt lat="48.42148" lon="2.65308">
        <ele>135.9</ele>
        <time>2018-04-15T14:38:06Z</time>
      </trkpt>
      <trkpt lat="48.4215" lon="2.65304">
        <ele>135.9</ele>
        <time>2018-04-15T14:38:07Z</time>
      </trkpt>
      <trkpt lat="48.42152" lon="2.65299">
        <ele>135.9</ele>
        <time>2018-04-15T14:38:08Z</time>
      </trkpt>
      <trkpt lat="48.42153" lon="2.65295">
        <ele>135.9</ele>
        <time>2018-04-15T14:38:09Z</time>
      </trkpt>
      <trkpt lat="48.42155" lon="2.65291">
        <ele>135.9</ele>
        <time>2018-04-15T14:38:10Z</time>
      </trkpt>
      <trkpt lat="48.42156" lon="2.65287">
        <ele>135.9</ele>
        <time>2018-04-15T14:38:11Z</time>
      </trkpt>
      <trkpt lat="48.42157" lon="2.65282">
        <ele>135.9</ele>
        <time>2018-04-15T14:38:12Z</time>
      </trkpt>
      <trkpt lat="48.42159" lon="2.65278">
        <ele>135.9</ele>
        <time>2018-04-15T14:38:13Z</time>
      </trkpt>
      <trkpt lat="48.4216" lon="2.65272">
        <ele>136</ele>
        <time>2018-04-15T14:38:15Z</time>
      </trkpt>
      <trkpt lat="48.42162" lon="2.65267">
        <ele>136</ele>
        <time>2018-04-15T14:38:16Z</time>
      </trkpt>
      <trkpt lat="48.42165" lon="2.65262">
        <ele>135.9</ele>
        <time>2018-04-15T14:38:18Z</time>
      </trkpt>
      <trkpt lat="48.42167" lon="2.65259">
        <ele>135.9</ele>
        <time>2018-04-15T14:38:19Z</time>
      </trkpt>
      <trkpt lat="48.4217" lon="2.65256">
        <ele>135.9</ele>
        <time>2018-04-15T14:38:20Z</time>
      </trkpt>
      <trkpt lat="48.42172" lon="2.65252">
        <ele>135.9</ele>
        <time>2018-04-15T14:38:21Z</time>
      </trkpt>
      <trkpt lat="48.42175" lon="2.65248">
        <ele>135.9</ele>
        <time>2018-04-15T14:38:22Z</time>
      </trkpt>
      <trkpt lat="48.42178" lon="2.65245">
        <ele>135.8</ele>
        <time>2018-04-15T14:38:23Z</time>
      </trkpt>
      <trkpt lat="48.42182" lon="2.65241">
        <ele>135.8</ele>
        <time>2018-04-15T14:38:24Z</time>
      </trkpt>
      <trkpt lat="48.42186" lon="2.65235">
        <ele>135.6</ele>
        <time>2018-04-15T14:38:25Z</time>
      </trkpt>
      <trkpt lat="48.4219" lon="2.65229">
        <ele>135.4</ele>
        <time>2018-04-15T14:38:26Z</time>
      </trkpt>
      <trkpt lat="48.42194" lon="2.65224">
        <ele>135.3</ele>
        <time>2018-04-15T14:38:27Z</time>
      </trkpt>
      <trkpt lat="48.42197" lon="2.65221">
        <ele>135.1</ele>
        <time>2018-04-15T14:38:28Z</time>
      </trkpt>
      <trkpt lat="48.422" lon="2.65217">
        <ele>135</ele>
        <time>2018-04-15T14:38:29Z</time>
      </trkpt>
      <trkpt lat="48.42203" lon="2.65213">
        <ele>135</ele>
        <time>2018-04-15T14:38:30Z</time>
      </trkpt>
      <trkpt lat="48.42206" lon="2.65208">
        <ele>135</ele>
        <time>2018-04-15T14:38:31Z</time>
      </trkpt>
      <trkpt lat="48.4221" lon="2.65204">
        <ele>135</ele>
        <time>2018-04-15T14:38:32Z</time>
      </trkpt>
      <trkpt lat="48.42213" lon="2.652">
        <ele>135</ele>
        <time>2018-04-15T14:38:33Z</time>
      </trkpt>
      <trkpt lat="48.42217" lon="2.65195">
        <ele>135</ele>
        <time>2018-04-15T14:38:34Z</time>
      </trkpt>
      <trkpt lat="48.42221" lon="2.6519">
        <ele>135</ele>
        <time>2018-04-15T14:38:35Z</time>
      </trkpt>
      <trkpt lat="48.42225" lon="2.65185">
        <ele>135</ele>
        <time>2018-04-15T14:38:36Z</time>
      </trkpt>
      <trkpt lat="48.42229" lon="2.6518">
        <ele>135</ele>
        <time>2018-04-15T14:38:37Z</time>
      </trkpt>
      <trkpt lat="48.42232" lon="2.65176">
        <ele>135.1</ele>
        <time>2018-04-15T14:38:38Z</time>
      </trkpt>
      <trkpt lat="48.42236" lon="2.65171">
        <ele>135.1</ele>
        <time>2018-04-15T14:38:39Z</time>
      </trkpt>
      <trkpt lat="48.42239" lon="2.65167">
        <ele>135.1</ele>
        <time>2018-04-15T14:38:40Z</time>
      </trkpt>
      <trkpt lat="48.42243" lon="2.65162">
        <ele>135.1</ele>
        <time>2018-04-15T14:38:41Z</time>
      </trkpt>
      <trkpt lat="48.42247" lon="2.65158">
        <ele>135.2</ele>
        <time>2018-04-15T14:38:42Z</time>
      </trkpt>
      <trkpt lat="48.42251" lon="2.65155">
        <ele>135.2</ele>
        <time>2018-04-15T14:38:43Z</time>
      </trkpt>
      <trkpt lat="48.42255" lon="2.6515">
        <ele>135.2</ele>
        <time>2018-04-15T14:38:44Z</time>
      </trkpt>
      <trkpt lat="48.42259" lon="2.65144">
        <ele>135.3</ele>
        <time>2018-04-15T14:38:45Z</time>
      </trkpt>
      <trkpt lat="48.42263" lon="2.65138">
        <ele>135.4</ele>
        <time>2018-04-15T14:38:46Z</time>
      </trkpt>
      <trkpt lat="48.42266" lon="2.65133">
        <ele>135.4</ele>
        <time>2018-04-15T14:38:47Z</time>
      </trkpt>
      <trkpt lat="48.4227" lon="2.65129">
        <ele>135.4</ele>
        <time>2018-04-15T14:38:48Z</time>
      </trkpt>
      <trkpt lat="48.42273" lon="2.65126">
        <ele>135.4</ele>
        <time>2018-04-15T14:38:49Z</time>
      </trkpt>
      <trkpt lat="48.42276" lon="2.65122">
        <ele>135.4</ele>
        <time>2018-04-15T14:38:50Z</time>
      </trkpt>
      <trkpt lat="48.42278" lon="2.65119">
        <ele>135.4</ele>
        <time>2018-04-15T14:38:51Z</time>
      </trkpt>
      <trkpt lat="48.42281" lon="2.65115">
        <ele>135.4</ele>
        <time>2018-04-15T14:38:52Z</time>
      </trkpt>
      <trkpt lat="48.42285" lon="2.65109">
        <ele>135.5</ele>
        <time>2018-04-15T14:38:53Z</time>
      </trkpt>
      <trkpt lat="48.42289" lon="2.65103">
        <ele>135.5</ele>
        <time>2018-04-15T14:38:54Z</time>
      </trkpt>
      <trkpt lat="48.42292" lon="2.65099">
        <ele>135.5</ele>
        <time>2018-04-15T14:38:55Z</time>
      </trkpt>
      <trkpt lat="48.42296" lon="2.65095">
        <ele>135.5</ele>
        <time>2018-04-15T14:38:56Z</time>
      </trkpt>
      <trkpt lat="48.42299" lon="2.6509">
        <ele>135.6</ele>
        <time>2018-04-15T14:38:57Z</time>
      </trkpt>
      <trkpt lat="48.42302" lon="2.65087">
        <ele>135.6</ele>
        <time>2018-04-15T14:38:58Z</time>
      </trkpt>
      <trkpt lat="48.42306" lon="2.65081">
        <ele>135.6</ele>
        <time>2018-04-15T14:38:59Z</time>
      </trkpt>
      <trkpt lat="48.4231" lon="2.65076">
        <ele>135.6</ele>
        <time>2018-04-15T14:39:00Z</time>
      </trkpt>
      <trkpt lat="48.42315" lon="2.6507">
        <ele>135.7</ele>
        <time>2018-04-15T14:39:01Z</time>
      </trkpt>
      <trkpt lat="48.42319" lon="2.65065">
        <ele>135.7</ele>
        <time>2018-04-15T14:39:02Z</time>
      </trkpt>
      <trkpt lat="48.42324" lon="2.65059">
        <ele>135.8</ele>
        <time>2018-04-15T14:39:03Z</time>
      </trkpt>
      <trkpt lat="48.42328" lon="2.65054">
        <ele>135.8</ele>
        <time>2018-04-15T14:39:04Z</time>
      </trkpt>
      <trkpt lat="48.42334" lon="2.65047">
        <ele>135.8</ele>
        <time>2018-04-15T14:39:05Z</time>
      </trkpt>
      <trkpt lat="48.42338" lon="2.65042">
        <ele>135.8</ele>
        <time>2018-04-15T14:39:06Z</time>
      </trkpt>
      <trkpt lat="48.42342" lon="2.65037">
        <ele>135.9</ele>
        <time>2018-04-15T14:39:07Z</time>
      </trkpt>
      <trkpt lat="48.42346" lon="2.65032">
        <ele>135.9</ele>
        <time>2018-04-15T14:39:08Z</time>
      </trkpt>
      <trkpt lat="48.42351" lon="2.65028">
        <ele>135.9</ele>
        <time>2018-04-15T14:39:09Z</time>
      </trkpt>
      <trkpt lat="48.42355" lon="2.65022">
        <ele>135.9</ele>
        <time>2018-04-15T14:39:10Z</time>
      </trkpt>
      <trkpt lat="48.42359" lon="2.65017">
        <ele>135.9</ele>
        <time>2018-04-15T14:39:11Z</time>
      </trkpt>
      <trkpt lat="48.42363" lon="2.65013">
        <ele>135.9</ele>
        <time>2018-04-15T14:39:12Z</time>
      </trkpt>
      <trkpt lat="48.42368" lon="2.65007">
        <ele>136</ele>
        <time>2018-04-15T14:39:13Z</time>
      </trkpt>
      <trkpt lat="48.42372" lon="2.65001">
        <ele>136</ele>
        <time>2018-04-15T14:39:14Z</time>
      </trkpt>
      <trkpt lat="48.42376" lon="2.64995">
        <ele>136</ele>
        <time>2018-04-15T14:39:15Z</time>
      </trkpt>
      <trkpt lat="48.4238" lon="2.64991">
        <ele>136</ele>
        <time>2018-04-15T14:39:16Z</time>
      </trkpt>
      <trkpt lat="48.42384" lon="2.64986">
        <ele>136</ele>
        <time>2018-04-15T14:39:17Z</time>
      </trkpt>
      <trkpt lat="48.42389" lon="2.6498">
        <ele>136.1</ele>
        <time>2018-04-15T14:39:18Z</time>
      </trkpt>
      <trkpt lat="48.42393" lon="2.64974">
        <ele>136.1</ele>
        <time>2018-04-15T14:39:19Z</time>
      </trkpt>
      <trkpt lat="48.42397" lon="2.64969">
        <ele>136.1</ele>
        <time>2018-04-15T14:39:20Z</time>
      </trkpt>
      <trkpt lat="48.42402" lon="2.64962">
        <ele>136.2</ele>
        <time>2018-04-15T14:39:21Z</time>
      </trkpt>
      <trkpt lat="48.42406" lon="2.64956">
        <ele>136.2</ele>
        <time>2018-04-15T14:39:22Z</time>
      </trkpt>
      <trkpt lat="48.4241" lon="2.64951">
        <ele>136.2</ele>
        <time>2018-04-15T14:39:23Z</time>
      </trkpt>
      <trkpt lat="48.42414" lon="2.64947">
        <ele>136.3</ele>
        <time>2018-04-15T14:39:24Z</time>
      </trkpt>
      <trkpt lat="48.42418" lon="2.64943">
        <ele>136.3</ele>
        <time>2018-04-15T14:39:25Z</time>
      </trkpt>
      <trkpt lat="48.42421" lon="2.64937">
        <ele>136.3</ele>
        <time>2018-04-15T14:39:26Z</time>
      </trkpt>
      <trkpt lat="48.42425" lon="2.64932">
        <ele>136.4</ele>
        <time>2018-04-15T14:39:27Z</time>
      </trkpt>
      <trkpt lat="48.42428" lon="2.64927">
        <ele>136.4</ele>
        <time>2018-04-15T14:39:28Z</time>
      </trkpt>
      <trkpt lat="48.42432" lon="2.64923">
        <ele>136.4</ele>
        <time>2018-04-15T14:39:29Z</time>
      </trkpt>
      <trkpt lat="48.42436" lon="2.64918">
        <ele>136.4</ele>
        <time>2018-04-15T14:39:30Z</time>
      </trkpt>
      <trkpt lat="48.42439" lon="2.64913">
        <ele>136.4</ele>
        <time>2018-04-15T14:39:31Z</time>
      </trkpt>
      <trkpt lat="48.42443" lon="2.64908">
        <ele>136.4</ele>
        <time>2018-04-15T14:39:32Z</time>
      </trkpt>
      <trkpt lat="48.42447" lon="2.64904">
        <ele>136.4</ele>
        <time>2018-04-15T14:39:33Z</time>
      </trkpt>
      <trkpt lat="48.42453" lon="2.64898">
        <ele>136.4</ele>
        <time>2018-04-15T14:39:34Z</time>
      </trkpt>
      <trkpt lat="48.42457" lon="2.64892">
        <ele>136.4</ele>
        <time>2018-04-15T14:39:35Z</time>
      </trkpt>
      <trkpt lat="48.42461" lon="2.64886">
        <ele>136.4</ele>
        <time>2018-04-15T14:39:36Z</time>
      </trkpt>
      <trkpt lat="48.42465" lon="2.64879">
        <ele>136.3</ele>
        <time>2018-04-15T14:39:37Z</time>
      </trkpt>
      <trkpt lat="48.42469" lon="2.64873">
        <ele>136.3</ele>
        <time>2018-04-15T14:39:38Z</time>
      </trkpt>
      <trkpt lat="48.42474" lon="2.64867">
        <ele>136.2</ele>
        <time>2018-04-15T14:39:39Z</time>
      </trkpt>
      <trkpt lat="48.42478" lon="2.64862">
        <ele>136.1</ele>
        <time>2018-04-15T14:39:40Z</time>
      </trkpt>
      <trkpt lat="48.42482" lon="2.64856">
        <ele>135.9</ele>
        <time>2018-04-15T14:39:41Z</time>
      </trkpt>
      <trkpt lat="48.42486" lon="2.6485">
        <ele>135.6</ele>
        <time>2018-04-15T14:39:42Z</time>
      </trkpt>
      <trkpt lat="48.42491" lon="2.64845">
        <ele>135.3</ele>
        <time>2018-04-15T14:39:43Z</time>
      </trkpt>
      <trkpt lat="48.42496" lon="2.6484">
        <ele>135</ele>
        <time>2018-04-15T14:39:44Z</time>
      </trkpt>
      <trkpt lat="48.425" lon="2.64834">
        <ele>134.6</ele>
        <time>2018-04-15T14:39:45Z</time>
      </trkpt>
      <trkpt lat="48.42505" lon="2.64829">
        <ele>134.2</ele>
        <time>2018-04-15T14:39:46Z</time>
      </trkpt>
      <trkpt lat="48.4251" lon="2.64823">
        <ele>133.8</ele>
        <time>2018-04-15T14:39:47Z</time>
      </trkpt>
      <trkpt lat="48.42514" lon="2.64818">
        <ele>133.3</ele>
        <time>2018-04-15T14:39:48Z</time>
      </trkpt>
      <trkpt lat="48.4252" lon="2.6481">
        <ele>132.8</ele>
        <time>2018-04-15T14:39:49Z</time>
      </trkpt>
      <trkpt lat="48.42524" lon="2.64805">
        <ele>132.3</ele>
        <time>2018-04-15T14:39:50Z</time>
      </trkpt>
      <trkpt lat="48.42529" lon="2.64798">
        <ele>131.7</ele>
        <time>2018-04-15T14:39:51Z</time>
      </trkpt>
      <trkpt lat="48.42534" lon="2.64792">
        <ele>131.1</ele>
        <time>2018-04-15T14:39:52Z</time>
      </trkpt>
      <trkpt lat="48.42539" lon="2.64785">
        <ele>130.4</ele>
        <time>2018-04-15T14:39:53Z</time>
      </trkpt>
      <trkpt lat="48.42545" lon="2.64778">
        <ele>129.6</ele>
        <time>2018-04-15T14:39:54Z</time>
      </trkpt>
      <trkpt lat="48.42548" lon="2.64772">
        <ele>129.1</ele>
        <time>2018-04-15T14:39:55Z</time>
      </trkpt>
      <trkpt lat="48.42552" lon="2.64768">
        <ele>128.7</ele>
        <time>2018-04-15T14:39:56Z</time>
      </trkpt>
      <trkpt lat="48.42555" lon="2.64764">
        <ele>128.2</ele>
        <time>2018-04-15T14:39:57Z</time>
      </trkpt>
      <trkpt lat="48.42558" lon="2.64761">
        <ele>127.9</ele>
        <time>2018-04-15T14:39:58Z</time>
      </trkpt>
      <trkpt lat="48.42561" lon="2.64758">
        <ele>127.6</ele>
        <time>2018-04-15T14:39:59Z</time>
      </trkpt>
      <trkpt lat="48.42565" lon="2.64754">
        <ele>127.2</ele>
        <time>2018-04-15T14:40:00Z</time>
      </trkpt>
      <trkpt lat="48.4257" lon="2.64753">
        <ele>126.8</ele>
        <time>2018-04-15T14:40:02Z</time>
      </trkpt>
      <trkpt lat="48.42572" lon="2.64755">
        <ele>126.1</ele>
        <time>2018-04-15T14:40:03Z</time>
      </trkpt>
      <trkpt lat="48.42575" lon="2.64758">
        <ele>126.1</ele>
        <time>2018-04-15T14:40:04Z</time>
      </trkpt>
      <trkpt lat="48.42577" lon="2.64762">
        <ele>126.1</ele>
        <time>2018-04-15T14:40:05Z</time>
      </trkpt>
      <trkpt lat="48.42579" lon="2.64769">
        <ele>126.1</ele>
        <time>2018-04-15T14:40:07Z</time>
      </trkpt>
      <trkpt lat="48.42581" lon="2.64774">
        <ele>126.1</ele>
        <time>2018-04-15T14:40:08Z</time>
      </trkpt>
      <trkpt lat="48.42582" lon="2.64781">
        <ele>126.2</ele>
        <time>2018-04-15T14:40:10Z</time>
      </trkpt>
      <trkpt lat="48.42583" lon="2.64785">
        <ele>126.2</ele>
        <time>2018-04-15T14:40:11Z</time>
      </trkpt>
      <trkpt lat="48.42584" lon="2.64792">
        <ele>126.3</ele>
        <time>2018-04-15T14:40:13Z</time>
      </trkpt>
      <trkpt lat="48.42584" lon="2.64798">
        <ele>126.3</ele>
        <time>2018-04-15T14:40:15Z</time>
      </trkpt>
      <trkpt lat="48.42586" lon="2.64805">
        <ele>126.4</ele>
        <time>2018-04-15T14:40:17Z</time>
      </trkpt>
      <trkpt lat="48.42587" lon="2.6481">
        <ele>126.6</ele>
        <time>2018-04-15T14:40:19Z</time>
      </trkpt>
      <trkpt lat="48.42588" lon="2.64817">
        <ele>126.8</ele>
        <time>2018-04-15T14:40:21Z</time>
      </trkpt>
      <trkpt lat="48.42589" lon="2.64824">
        <ele>127.4</ele>
        <time>2018-04-15T14:40:23Z</time>
      </trkpt>
      <trkpt lat="48.42591" lon="2.6483">
        <ele>127.9</ele>
        <time>2018-04-15T14:40:25Z</time>
      </trkpt>
      <trkpt lat="48.42593" lon="2.64835">
        <ele>128.2</ele>
        <time>2018-04-15T14:40:27Z</time>
      </trkpt>
      <trkpt lat="48.42594" lon="2.64843">
        <ele>128.6</ele>
        <time>2018-04-15T14:40:29Z</time>
      </trkpt>
      <trkpt lat="48.42595" lon="2.6485">
        <ele>128.9</ele>
        <time>2018-04-15T14:40:31Z</time>
      </trkpt>
      <trkpt lat="48.42596" lon="2.64857">
        <ele>129.3</ele>
        <time>2018-04-15T14:40:33Z</time>
      </trkpt>
      <trkpt lat="48.42596" lon="2.64864">
        <ele>130</ele>
        <time>2018-04-15T14:40:35Z</time>
      </trkpt>
      <trkpt lat="48.42598" lon="2.6487">
        <ele>130.4</ele>
        <time>2018-04-15T14:40:37Z</time>
      </trkpt>
      <trkpt lat="48.42599" lon="2.64877">
        <ele>130.7</ele>
        <time>2018-04-15T14:40:39Z</time>
      </trkpt>
      <trkpt lat="48.426" lon="2.64882">
        <ele>131</ele>
        <time>2018-04-15T14:40:41Z</time>
      </trkpt>
      <trkpt lat="48.42601" lon="2.64889">
        <ele>131.4</ele>
        <time>2018-04-15T14:40:43Z</time>
      </trkpt>
      <trkpt lat="48.42602" lon="2.64895">
        <ele>132</ele>
        <time>2018-04-15T14:40:45Z</time>
      </trkpt>
      <trkpt lat="48.42603" lon="2.649">
        <ele>132.5</ele>
        <time>2018-04-15T14:40:46Z</time>
      </trkpt>
      <trkpt lat="48.42605" lon="2.64906">
        <ele>132.8</ele>
        <time>2018-04-15T14:40:48Z</time>
      </trkpt>
      <trkpt lat="48.42606" lon="2.64913">
        <ele>133.3</ele>
        <time>2018-04-15T14:40:50Z</time>
      </trkpt>
      <trkpt lat="48.42607" lon="2.64918">
        <ele>133.7</ele>
        <time>2018-04-15T14:40:52Z</time>
      </trkpt>
      <trkpt lat="48.42607" lon="2.64922">
        <ele>134.2</ele>
        <time>2018-04-15T14:40:55Z</time>
      </trkpt>
      <trkpt lat="48.42608" lon="2.6493">
        <ele>134.6</ele>
        <time>2018-04-15T14:40:57Z</time>
      </trkpt>
      <trkpt lat="48.42608" lon="2.64937">
        <ele>134.8</ele>
        <time>2018-04-15T14:40:59Z</time>
      </trkpt>
      <trkpt lat="48.42609" lon="2.64944">
        <ele>135</ele>
        <time>2018-04-15T14:41:01Z</time>
      </trkpt>
      <trkpt lat="48.42609" lon="2.64951">
        <ele>135</ele>
        <time>2018-04-15T14:41:03Z</time>
      </trkpt>
      <trkpt lat="48.42611" lon="2.64962">
        <ele>135.1</ele>
        <time>2018-04-15T14:41:05Z</time>
      </trkpt>
      <trkpt lat="48.42611" lon="2.64967">
        <ele>135.2</ele>
        <time>2018-04-15T14:41:06Z</time>
      </trkpt>
      <trkpt lat="48.42611" lon="2.64975">
        <ele>135.2</ele>
        <time>2018-04-15T14:41:08Z</time>
      </trkpt>
      <trkpt lat="48.42611" lon="2.6498">
        <ele>135.2</ele>
        <time>2018-04-15T14:41:09Z</time>
      </trkpt>
      <trkpt lat="48.42612" lon="2.64986">
        <ele>135.2</ele>
        <time>2018-04-15T14:41:10Z</time>
      </trkpt>
      <trkpt lat="48.42612" lon="2.6499">
        <ele>135.2</ele>
        <time>2018-04-15T14:41:11Z</time>
      </trkpt>
      <trkpt lat="48.42612" lon="2.64995">
        <ele>135.2</ele>
        <time>2018-04-15T14:41:12Z</time>
      </trkpt>
      <trkpt lat="48.42612" lon="2.64999">
        <ele>135.2</ele>
        <time>2018-04-15T14:41:13Z</time>
      </trkpt>
      <trkpt lat="48.42612" lon="2.65004">
        <ele>135.2</ele>
        <time>2018-04-15T14:41:14Z</time>
      </trkpt>
      <trkpt lat="48.42613" lon="2.65009">
        <ele>135.3</ele>
        <time>2018-04-15T14:41:15Z</time>
      </trkpt>
      <trkpt lat="48.42613" lon="2.65014">
        <ele>135.3</ele>
        <time>2018-04-15T14:41:16Z</time>
      </trkpt>
      <trkpt lat="48.42614" lon="2.65022">
        <ele>135.3</ele>
        <time>2018-04-15T14:41:18Z</time>
      </trkpt>
      <trkpt lat="48.42615" lon="2.6503">
        <ele>135.3</ele>
        <time>2018-04-15T14:41:20Z</time>
      </trkpt>
      <trkpt lat="48.42615" lon="2.65035">
        <ele>135.3</ele>
        <time>2018-04-15T14:41:21Z</time>
      </trkpt>
      <trkpt lat="48.42615" lon="2.6504">
        <ele>135.3</ele>
        <time>2018-04-15T14:41:22Z</time>
      </trkpt>
      <trkpt lat="48.42614" lon="2.65046">
        <ele>135.3</ele>
        <time>2018-04-15T14:41:23Z</time>
      </trkpt>
      <trkpt lat="48.42615" lon="2.65054">
        <ele>135.3</ele>
        <time>2018-04-15T14:41:25Z</time>
      </trkpt>
      <trkpt lat="48.42616" lon="2.65058">
        <ele>135.3</ele>
        <time>2018-04-15T14:41:26Z</time>
      </trkpt>
      <trkpt lat="48.42617" lon="2.65066">
        <ele>135.4</ele>
        <time>2018-04-15T14:41:28Z</time>
      </trkpt>
      <trkpt lat="48.42618" lon="2.65072">
        <ele>135.4</ele>
        <time>2018-04-15T14:41:29Z</time>
      </trkpt>
      <trkpt lat="48.42619" lon="2.65077">
        <ele>135.4</ele>
        <time>2018-04-15T14:41:30Z</time>
      </trkpt>
      <trkpt lat="48.42619" lon="2.65081">
        <ele>135.4</ele>
        <time>2018-04-15T14:41:31Z</time>
      </trkpt>
      <trkpt lat="48.4262" lon="2.65086">
        <ele>135.4</ele>
        <time>2018-04-15T14:41:32Z</time>
      </trkpt>
      <trkpt lat="48.4262" lon="2.6509">
        <ele>135.5</ele>
        <time>2018-04-15T14:41:33Z</time>
      </trkpt>
      <trkpt lat="48.42621" lon="2.65095">
        <ele>135.5</ele>
        <time>2018-04-15T14:41:34Z</time>
      </trkpt>
      <trkpt lat="48.42622" lon="2.65104">
        <ele>135.6</ele>
        <time>2018-04-15T14:41:36Z</time>
      </trkpt>
      <trkpt lat="48.42622" lon="2.65109">
        <ele>135.7</ele>
        <time>2018-04-15T14:41:37Z</time>
      </trkpt>
      <trkpt lat="48.42623" lon="2.65114">
        <ele>135.8</ele>
        <time>2018-04-15T14:41:38Z</time>
      </trkpt>
      <trkpt lat="48.42624" lon="2.65119">
        <ele>135.8</ele>
        <time>2018-04-15T14:41:39Z</time>
      </trkpt>
      <trkpt lat="48.42625" lon="2.65123">
        <ele>136</ele>
        <time>2018-04-15T14:41:40Z</time>
      </trkpt>
      <trkpt lat="48.42625" lon="2.65127">
        <ele>136.2</ele>
        <time>2018-04-15T14:41:41Z</time>
      </trkpt>
      <trkpt lat="48.42625" lon="2.65131">
        <ele>136.5</ele>
        <time>2018-04-15T14:41:42Z</time>
      </trkpt>
      <trkpt lat="48.42626" lon="2.65139">
        <ele>137</ele>
        <time>2018-04-15T14:41:44Z</time>
      </trkpt>
      <trkpt lat="48.42626" lon="2.65143">
        <ele>137.1</ele>
        <time>2018-04-15T14:41:45Z</time>
      </trkpt>
      <trkpt lat="48.42628" lon="2.65151">
        <ele>137.2</ele>
        <time>2018-04-15T14:41:47Z</time>
      </trkpt>
      <trkpt lat="48.42629" lon="2.65156">
        <ele>137.3</ele>
        <time>2018-04-15T14:41:48Z</time>
      </trkpt>
      <trkpt lat="48.42629" lon="2.65162">
        <ele>137.4</ele>
        <time>2018-04-15T14:41:50Z</time>
      </trkpt>
      <trkpt lat="48.42629" lon="2.6517">
        <ele>137.6</ele>
        <time>2018-04-15T14:41:52Z</time>
      </trkpt>
      <trkpt lat="48.4263" lon="2.65176">
        <ele>137.6</ele>
        <time>2018-04-15T14:41:54Z</time>
      </trkpt>
      <trkpt lat="48.42632" lon="2.65183">
        <ele>137.6</ele>
        <time>2018-04-15T14:41:56Z</time>
      </trkpt>
      <trkpt lat="48.42633" lon="2.65191">
        <ele>137.6</ele>
        <time>2018-04-15T14:41:58Z</time>
      </trkpt>
      <trkpt lat="48.42633" lon="2.65197">
        <ele>137.7</ele>
        <time>2018-04-15T14:42:00Z</time>
      </trkpt>
      <trkpt lat="48.42634" lon="2.65205">
        <ele>137.7</ele>
        <time>2018-04-15T14:42:02Z</time>
      </trkpt>
      <trkpt lat="48.42634" lon="2.6521">
        <ele>137.7</ele>
        <time>2018-04-15T14:42:04Z</time>
      </trkpt>
      <trkpt lat="48.42635" lon="2.65214">
        <ele>137.7</ele>
        <time>2018-04-15T14:42:05Z</time>
      </trkpt>
      <trkpt lat="48.42636" lon="2.65223">
        <ele>137.7</ele>
        <time>2018-04-15T14:42:07Z</time>
      </trkpt>
      <trkpt lat="48.42636" lon="2.65229">
        <ele>137.7</ele>
        <time>2018-04-15T14:42:08Z</time>
      </trkpt>
      <trkpt lat="48.42638" lon="2.65234">
        <ele>137.7</ele>
        <time>2018-04-15T14:42:09Z</time>
      </trkpt>
      <trkpt lat="48.42639" lon="2.6524">
        <ele>137.7</ele>
        <time>2018-04-15T14:42:10Z</time>
      </trkpt>
      <trkpt lat="48.42639" lon="2.65246">
        <ele>137.8</ele>
        <time>2018-04-15T14:42:11Z</time>
      </trkpt>
      <trkpt lat="48.42639" lon="2.65251">
        <ele>137.8</ele>
        <time>2018-04-15T14:42:12Z</time>
      </trkpt>
      <trkpt lat="48.4264" lon="2.65258">
        <ele>137.8</ele>
        <time>2018-04-15T14:42:13Z</time>
      </trkpt>
      <trkpt lat="48.42642" lon="2.65264">
        <ele>137.8</ele>
        <time>2018-04-15T14:42:14Z</time>
      </trkpt>
      <trkpt lat="48.42643" lon="2.65271">
        <ele>137.9</ele>
        <time>2018-04-15T14:42:15Z</time>
      </trkpt>
      <trkpt lat="48.42644" lon="2.65278">
        <ele>137.9</ele>
        <time>2018-04-15T14:42:16Z</time>
      </trkpt>
      <trkpt lat="48.42644" lon="2.65283">
        <ele>137.9</ele>
        <time>2018-04-15T14:42:17Z</time>
      </trkpt>
      <trkpt lat="48.42645" lon="2.65288">
        <ele>137.9</ele>
        <time>2018-04-15T14:42:18Z</time>
      </trkpt>
      <trkpt lat="48.42645" lon="2.65295">
        <ele>137.9</ele>
        <time>2018-04-15T14:42:19Z</time>
      </trkpt>
      <trkpt lat="48.42647" lon="2.65302">
        <ele>137.9</ele>
        <time>2018-04-15T14:42:20Z</time>
      </trkpt>
      <trkpt lat="48.42648" lon="2.65309">
        <ele>137.9</ele>
        <time>2018-04-15T14:42:21Z</time>
      </trkpt>
      <trkpt lat="48.42649" lon="2.65314">
        <ele>137.9</ele>
        <time>2018-04-15T14:42:22Z</time>
      </trkpt>
      <trkpt lat="48.42649" lon="2.65318">
        <ele>138</ele>
        <time>2018-04-15T14:42:23Z</time>
      </trkpt>
      <trkpt lat="48.42649" lon="2.65323">
        <ele>138</ele>
        <time>2018-04-15T14:42:24Z</time>
      </trkpt>
      <trkpt lat="48.42649" lon="2.65329">
        <ele>138</ele>
        <time>2018-04-15T14:42:25Z</time>
      </trkpt>
      <trkpt lat="48.42649" lon="2.65336">
        <ele>138</ele>
        <time>2018-04-15T14:42:26Z</time>
      </trkpt>
      <trkpt lat="48.4265" lon="2.65342">
        <ele>138</ele>
        <time>2018-04-15T14:42:27Z</time>
      </trkpt>
      <trkpt lat="48.4265" lon="2.65348">
        <ele>138</ele>
        <time>2018-04-15T14:42:28Z</time>
      </trkpt>
      <trkpt lat="48.42651" lon="2.65353">
        <ele>138.1</ele>
        <time>2018-04-15T14:42:29Z</time>
      </trkpt>
      <trkpt lat="48.42652" lon="2.65358">
        <ele>138.1</ele>
        <time>2018-04-15T14:42:30Z</time>
      </trkpt>
      <trkpt lat="48.42653" lon="2.65364">
        <ele>138.1</ele>
        <time>2018-04-15T14:42:31Z</time>
      </trkpt>
      <trkpt lat="48.42653" lon="2.6537">
        <ele>138.1</ele>
        <time>2018-04-15T14:42:32Z</time>
      </trkpt>
      <trkpt lat="48.42654" lon="2.65376">
        <ele>138.2</ele>
        <time>2018-04-15T14:42:33Z</time>
      </trkpt>
      <trkpt lat="48.42654" lon="2.65381">
        <ele>138.2</ele>
        <time>2018-04-15T14:42:34Z</time>
      </trkpt>
      <trkpt lat="48.42656" lon="2.65386">
        <ele>138.3</ele>
        <time>2018-04-15T14:42:35Z</time>
      </trkpt>
      <trkpt lat="48.42657" lon="2.65392">
        <ele>138.3</ele>
        <time>2018-04-15T14:42:36Z</time>
      </trkpt>
      <trkpt lat="48.42657" lon="2.65398">
        <ele>138.4</ele>
        <time>2018-04-15T14:42:37Z</time>
      </trkpt>
      <trkpt lat="48.42659" lon="2.65408">
        <ele>138.6</ele>
        <time>2018-04-15T14:42:39Z</time>
      </trkpt>
      <trkpt lat="48.42659" lon="2.65415">
        <ele>138.8</ele>
        <time>2018-04-15T14:42:40Z</time>
      </trkpt>
      <trkpt lat="48.42659" lon="2.65419">
        <ele>139.1</ele>
        <time>2018-04-15T14:42:41Z</time>
      </trkpt>
      <trkpt lat="48.42659" lon="2.65425">
        <ele>139.6</ele>
        <time>2018-04-15T14:42:42Z</time>
      </trkpt>
      <trkpt lat="48.42659" lon="2.65431">
        <ele>139.8</ele>
        <time>2018-04-15T14:42:43Z</time>
      </trkpt>
      <trkpt lat="48.42659" lon="2.65437">
        <ele>140</ele>
        <time>2018-04-15T14:42:44Z</time>
      </trkpt>
      <trkpt lat="48.4266" lon="2.65446">
        <ele>140.1</ele>
        <time>2018-04-15T14:42:46Z</time>
      </trkpt>
      <trkpt lat="48.42661" lon="2.65454">
        <ele>140.2</ele>
        <time>2018-04-15T14:42:47Z</time>
      </trkpt>
      <trkpt lat="48.42662" lon="2.65461">
        <ele>140.2</ele>
        <time>2018-04-15T14:42:48Z</time>
      </trkpt>
      <trkpt lat="48.42662" lon="2.65466">
        <ele>140.3</ele>
        <time>2018-04-15T14:42:49Z</time>
      </trkpt>
      <trkpt lat="48.42663" lon="2.65471">
        <ele>140.3</ele>
        <time>2018-04-15T14:42:50Z</time>
      </trkpt>
      <trkpt lat="48.42664" lon="2.65476">
        <ele>140.3</ele>
        <time>2018-04-15T14:42:51Z</time>
      </trkpt>
      <trkpt lat="48.42664" lon="2.6548">
        <ele>140.4</ele>
        <time>2018-04-15T14:42:52Z</time>
      </trkpt>
      <trkpt lat="48.42664" lon="2.65485">
        <ele>140.4</ele>
        <time>2018-04-15T14:42:53Z</time>
      </trkpt>
      <trkpt lat="48.42664" lon="2.65489">
        <ele>140.5</ele>
        <time>2018-04-15T14:42:54Z</time>
      </trkpt>
      <trkpt lat="48.42665" lon="2.65494">
        <ele>140.6</ele>
        <time>2018-04-15T14:42:56Z</time>
      </trkpt>
      <trkpt lat="48.42667" lon="2.65503">
        <ele>141</ele>
        <time>2018-04-15T14:42:58Z</time>
      </trkpt>
      <trkpt lat="48.42667" lon="2.65509">
        <ele>141.5</ele>
        <time>2018-04-15T14:42:59Z</time>
      </trkpt>
      <trkpt lat="48.42669" lon="2.65518">
        <ele>142</ele>
        <time>2018-04-15T14:43:00Z</time>
      </trkpt>
      <trkpt lat="48.42669" lon="2.65524">
        <ele>142.2</ele>
        <time>2018-04-15T14:43:01Z</time>
      </trkpt>
      <trkpt lat="48.4267" lon="2.65531">
        <ele>142.4</ele>
        <time>2018-04-15T14:43:02Z</time>
      </trkpt>
      <trkpt lat="48.4267" lon="2.65537">
        <ele>142.4</ele>
        <time>2018-04-15T14:43:03Z</time>
      </trkpt>
      <trkpt lat="48.42671" lon="2.65543">
        <ele>142.5</ele>
        <time>2018-04-15T14:43:04Z</time>
      </trkpt>
      <trkpt lat="48.42673" lon="2.65548">
        <ele>142.5</ele>
        <time>2018-04-15T14:43:05Z</time>
      </trkpt>
      <trkpt lat="48.42674" lon="2.65554">
        <ele>142.5</ele>
        <time>2018-04-15T14:43:06Z</time>
      </trkpt>
      <trkpt lat="48.42675" lon="2.65562">
        <ele>142.5</ele>
        <time>2018-04-15T14:43:07Z</time>
      </trkpt>
      <trkpt lat="48.42677" lon="2.6557">
        <ele>142.5</ele>
        <time>2018-04-15T14:43:08Z</time>
      </trkpt>
      <trkpt lat="48.42677" lon="2.65577">
        <ele>142.5</ele>
        <time>2018-04-15T14:43:09Z</time>
      </trkpt>
      <trkpt lat="48.42678" lon="2.65581">
        <ele>142.6</ele>
        <time>2018-04-15T14:43:10Z</time>
      </trkpt>
      <trkpt lat="48.42679" lon="2.65587">
        <ele>142.6</ele>
        <time>2018-04-15T14:43:11Z</time>
      </trkpt>
      <trkpt lat="48.42679" lon="2.65593">
        <ele>142.6</ele>
        <time>2018-04-15T14:43:12Z</time>
      </trkpt>
      <trkpt lat="48.4268" lon="2.65598">
        <ele>142.6</ele>
        <time>2018-04-15T14:43:13Z</time>
      </trkpt>
      <trkpt lat="48.42681" lon="2.65603">
        <ele>142.6</ele>
        <time>2018-04-15T14:43:14Z</time>
      </trkpt>
      <trkpt lat="48.42682" lon="2.65608">
        <ele>142.6</ele>
        <time>2018-04-15T14:43:15Z</time>
      </trkpt>
      <trkpt lat="48.42683" lon="2.65615">
        <ele>142.6</ele>
        <time>2018-04-15T14:43:16Z</time>
      </trkpt>
      <trkpt lat="48.42684" lon="2.65621">
        <ele>142.6</ele>
        <time>2018-04-15T14:43:17Z</time>
      </trkpt>
      <trkpt lat="48.42684" lon="2.65627">
        <ele>142.6</ele>
        <time>2018-04-15T14:43:18Z</time>
      </trkpt>
      <trkpt lat="48.42685" lon="2.65635">
        <ele>142.7</ele>
        <time>2018-04-15T14:43:19Z</time>
      </trkpt>
      <trkpt lat="48.42686" lon="2.65641">
        <ele>142.7</ele>
        <time>2018-04-15T14:43:20Z</time>
      </trkpt>
      <trkpt lat="48.42687" lon="2.65646">
        <ele>142.7</ele>
        <time>2018-04-15T14:43:21Z</time>
      </trkpt>
      <trkpt lat="48.42688" lon="2.65652">
        <ele>142.7</ele>
        <time>2018-04-15T14:43:22Z</time>
      </trkpt>
      <trkpt lat="48.42688" lon="2.65658">
        <ele>142.7</ele>
        <time>2018-04-15T14:43:23Z</time>
      </trkpt>
      <trkpt lat="48.42688" lon="2.65662">
        <ele>142.7</ele>
        <time>2018-04-15T14:43:24Z</time>
      </trkpt>
      <trkpt lat="48.42689" lon="2.65668">
        <ele>142.8</ele>
        <time>2018-04-15T14:43:25Z</time>
      </trkpt>
      <trkpt lat="48.4269" lon="2.65673">
        <ele>142.8</ele>
        <time>2018-04-15T14:43:26Z</time>
      </trkpt>
      <trkpt lat="48.42691" lon="2.6568">
        <ele>142.8</ele>
        <time>2018-04-15T14:43:27Z</time>
      </trkpt>
      <trkpt lat="48.42691" lon="2.65687">
        <ele>142.8</ele>
        <time>2018-04-15T14:43:28Z</time>
      </trkpt>
      <trkpt lat="48.42691" lon="2.65693">
        <ele>142.8</ele>
        <time>2018-04-15T14:43:29Z</time>
      </trkpt>
      <trkpt lat="48.42692" lon="2.65699">
        <ele>142.8</ele>
        <time>2018-04-15T14:43:30Z</time>
      </trkpt>
      <trkpt lat="48.42693" lon="2.65704">
        <ele>142.8</ele>
        <time>2018-04-15T14:43:31Z</time>
      </trkpt>
      <trkpt lat="48.42693" lon="2.6571">
        <ele>142.8</ele>
        <time>2018-04-15T14:43:32Z</time>
      </trkpt>
      <trkpt lat="48.42693" lon="2.65716">
        <ele>142.8</ele>
        <time>2018-04-15T14:43:33Z</time>
      </trkpt>
      <trkpt lat="48.42694" lon="2.65722">
        <ele>142.8</ele>
        <time>2018-04-15T14:43:34Z</time>
      </trkpt>
      <trkpt lat="48.42695" lon="2.65728">
        <ele>142.8</ele>
        <time>2018-04-15T14:43:35Z</time>
      </trkpt>
      <trkpt lat="48.42696" lon="2.65735">
        <ele>142.8</ele>
        <time>2018-04-15T14:43:36Z</time>
      </trkpt>
      <trkpt lat="48.42697" lon="2.65741">
        <ele>142.8</ele>
        <time>2018-04-15T14:43:37Z</time>
      </trkpt>
      <trkpt lat="48.42698" lon="2.65746">
        <ele>142.9</ele>
        <time>2018-04-15T14:43:38Z</time>
      </trkpt>
      <trkpt lat="48.42698" lon="2.65751">
        <ele>142.9</ele>
        <time>2018-04-15T14:43:39Z</time>
      </trkpt>
      <trkpt lat="48.42699" lon="2.65755">
        <ele>142.9</ele>
        <time>2018-04-15T14:43:40Z</time>
      </trkpt>
      <trkpt lat="48.427" lon="2.6576">
        <ele>142.9</ele>
        <time>2018-04-15T14:43:41Z</time>
      </trkpt>
      <trkpt lat="48.427" lon="2.65766">
        <ele>142.9</ele>
        <time>2018-04-15T14:43:42Z</time>
      </trkpt>
      <trkpt lat="48.42701" lon="2.65773">
        <ele>142.9</ele>
        <time>2018-04-15T14:43:43Z</time>
      </trkpt>
      <trkpt lat="48.42702" lon="2.65781">
        <ele>142.9</ele>
        <time>2018-04-15T14:43:44Z</time>
      </trkpt>
      <trkpt lat="48.42703" lon="2.65787">
        <ele>142.9</ele>
        <time>2018-04-15T14:43:45Z</time>
      </trkpt>
      <trkpt lat="48.42704" lon="2.65794">
        <ele>142.9</ele>
        <time>2018-04-15T14:43:46Z</time>
      </trkpt>
      <trkpt lat="48.42706" lon="2.658">
        <ele>142.9</ele>
        <time>2018-04-15T14:43:47Z</time>
      </trkpt>
      <trkpt lat="48.42707" lon="2.65804">
        <ele>142.9</ele>
        <time>2018-04-15T14:43:48Z</time>
      </trkpt>
      <trkpt lat="48.42707" lon="2.65809">
        <ele>142.9</ele>
        <time>2018-04-15T14:43:49Z</time>
      </trkpt>
      <trkpt lat="48.42707" lon="2.65814">
        <ele>142.9</ele>
        <time>2018-04-15T14:43:50Z</time>
      </trkpt>
      <trkpt lat="48.42707" lon="2.65818">
        <ele>142.9</ele>
        <time>2018-04-15T14:43:51Z</time>
      </trkpt>
      <trkpt lat="48.42708" lon="2.65823">
        <ele>142.9</ele>
        <time>2018-04-15T14:43:53Z</time>
      </trkpt>
      <trkpt lat="48.42709" lon="2.65828">
        <ele>142.9</ele>
        <time>2018-04-15T14:43:54Z</time>
      </trkpt>
      <trkpt lat="48.42711" lon="2.65834">
        <ele>143</ele>
        <time>2018-04-15T14:43:55Z</time>
      </trkpt>
      <trkpt lat="48.42713" lon="2.65839">
        <ele>143</ele>
        <time>2018-04-15T14:43:57Z</time>
      </trkpt>
      <trkpt lat="48.42715" lon="2.65844">
        <ele>143</ele>
        <time>2018-04-15T14:43:59Z</time>
      </trkpt>
      <trkpt lat="48.42718" lon="2.65851">
        <ele>143</ele>
        <time>2018-04-15T14:44:01Z</time>
      </trkpt>
      <trkpt lat="48.4272" lon="2.65855">
        <ele>143.2</ele>
        <time>2018-04-15T14:44:02Z</time>
      </trkpt>
      <trkpt lat="48.42723" lon="2.65859">
        <ele>143.4</ele>
        <time>2018-04-15T14:44:03Z</time>
      </trkpt>
      <trkpt lat="48.42726" lon="2.65865">
        <ele>143.6</ele>
        <time>2018-04-15T14:44:04Z</time>
      </trkpt>
      <trkpt lat="48.42728" lon="2.65869">
        <ele>143.7</ele>
        <time>2018-04-15T14:44:05Z</time>
      </trkpt>
      <trkpt lat="48.42732" lon="2.65872">
        <ele>143.9</ele>
        <time>2018-04-15T14:44:06Z</time>
      </trkpt>
      <trkpt lat="48.42735" lon="2.65876">
        <ele>144</ele>
        <time>2018-04-15T14:44:07Z</time>
      </trkpt>
      <trkpt lat="48.42739" lon="2.65879">
        <ele>144.2</ele>
        <time>2018-04-15T14:44:08Z</time>
      </trkpt>
      <trkpt lat="48.42743" lon="2.65883">
        <ele>144.4</ele>
        <time>2018-04-15T14:44:09Z</time>
      </trkpt>
      <trkpt lat="48.42747" lon="2.65886">
        <ele>144.5</ele>
        <time>2018-04-15T14:44:10Z</time>
      </trkpt>
      <trkpt lat="48.4275" lon="2.6589">
        <ele>144.7</ele>
        <time>2018-04-15T14:44:11Z</time>
      </trkpt>
      <trkpt lat="48.42754" lon="2.65895">
        <ele>144.9</ele>
        <time>2018-04-15T14:44:12Z</time>
      </trkpt>
      <trkpt lat="48.42758" lon="2.65898">
        <ele>145</ele>
        <time>2018-04-15T14:44:13Z</time>
      </trkpt>
      <trkpt lat="48.42761" lon="2.65902">
        <ele>145.1</ele>
        <time>2018-04-15T14:44:14Z</time>
      </trkpt>
      <trkpt lat="48.42764" lon="2.65904">
        <ele>145.3</ele>
        <time>2018-04-15T14:44:15Z</time>
      </trkpt>
      <trkpt lat="48.42768" lon="2.65906">
        <ele>145.4</ele>
        <time>2018-04-15T14:44:16Z</time>
      </trkpt>
      <trkpt lat="48.42773" lon="2.65907">
        <ele>145.6</ele>
        <time>2018-04-15T14:44:17Z</time>
      </trkpt>
      <trkpt lat="48.4278" lon="2.65913">
        <ele>145.8</ele>
        <time>2018-04-15T14:44:18Z</time>
      </trkpt>
      <trkpt lat="48.42784" lon="2.65917">
        <ele>146</ele>
        <time>2018-04-15T14:44:19Z</time>
      </trkpt>
      <trkpt lat="48.4279" lon="2.65923">
        <ele>146.2</ele>
        <time>2018-04-15T14:44:20Z</time>
      </trkpt>
      <trkpt lat="48.42796" lon="2.65927">
        <ele>146.4</ele>
        <time>2018-04-15T14:44:21Z</time>
      </trkpt>
      <trkpt lat="48.42802" lon="2.65935">
        <ele>146</ele>
        <time>2018-04-15T14:44:22Z</time>
      </trkpt>
      <trkpt lat="48.42805" lon="2.65938">
        <ele>145.6</ele>
        <time>2018-04-15T14:44:23Z</time>
      </trkpt>
      <trkpt lat="48.42809" lon="2.65941">
        <ele>145.3</ele>
        <time>2018-04-15T14:44:24Z</time>
      </trkpt>
      <trkpt lat="48.42813" lon="2.65943">
        <ele>145.2</ele>
        <time>2018-04-15T14:44:25Z</time>
      </trkpt>
      <trkpt lat="48.42816" lon="2.65947">
        <ele>145</ele>
        <time>2018-04-15T14:44:26Z</time>
      </trkpt>
      <trkpt lat="48.42819" lon="2.65951">
        <ele>144.9</ele>
        <time>2018-04-15T14:44:27Z</time>
      </trkpt>
      <trkpt lat="48.42824" lon="2.65952">
        <ele>144.6</ele>
        <time>2018-04-15T14:44:29Z</time>
      </trkpt>
      <trkpt lat="48.42827" lon="2.6595">
        <ele>144.6</ele>
        <time>2018-04-15T14:44:31Z</time>
      </trkpt>
      <trkpt lat="48.4283" lon="2.6595">
        <ele>144.5</ele>
        <time>2018-04-15T14:44:32Z</time>
      </trkpt>
      <trkpt lat="48.42835" lon="2.65951">
        <ele>144.4</ele>
        <time>2018-04-15T14:44:33Z</time>
      </trkpt>
      <trkpt lat="48.42841" lon="2.6595">
        <ele>144.2</ele>
        <time>2018-04-15T14:44:34Z</time>
      </trkpt>
      <trkpt lat="48.42844" lon="2.65951">
        <ele>144.1</ele>
        <time>2018-04-15T14:44:35Z</time>
      </trkpt>
      <trkpt lat="48.42848" lon="2.65948">
        <ele>144</ele>
        <time>2018-04-15T14:44:36Z</time>
      </trkpt>
      <trkpt lat="48.42851" lon="2.65948">
        <ele>143.9</ele>
        <time>2018-04-15T14:44:37Z</time>
      </trkpt>
      <trkpt lat="48.42854" lon="2.65947">
        <ele>143.8</ele>
        <time>2018-04-15T14:44:38Z</time>
      </trkpt>
      <trkpt lat="48.42857" lon="2.65946">
        <ele>143.7</ele>
        <time>2018-04-15T14:44:39Z</time>
      </trkpt>
      <trkpt lat="48.42861" lon="2.65944">
        <ele>143.6</ele>
        <time>2018-04-15T14:44:40Z</time>
      </trkpt>
      <trkpt lat="48.42864" lon="2.65942">
        <ele>143.5</ele>
        <time>2018-04-15T14:44:41Z</time>
      </trkpt>
      <trkpt lat="48.42866" lon="2.6594">
        <ele>143.5</ele>
        <time>2018-04-15T14:44:42Z</time>
      </trkpt>
      <trkpt lat="48.4287" lon="2.65939">
        <ele>143.4</ele>
        <time>2018-04-15T14:44:43Z</time>
      </trkpt>
      <trkpt lat="48.42874" lon="2.65938">
        <ele>143.3</ele>
        <time>2018-04-15T14:44:44Z</time>
      </trkpt>
      <trkpt lat="48.42878" lon="2.65936">
        <ele>143.2</ele>
        <time>2018-04-15T14:44:45Z</time>
      </trkpt>
      <trkpt lat="48.42882" lon="2.65935">
        <ele>143.1</ele>
        <time>2018-04-15T14:44:46Z</time>
      </trkpt>
      <trkpt lat="48.42885" lon="2.65933">
        <ele>143</ele>
        <time>2018-04-15T14:44:47Z</time>
      </trkpt>
      <trkpt lat="48.4289" lon="2.65932">
        <ele>142.7</ele>
        <time>2018-04-15T14:44:48Z</time>
      </trkpt>
      <trkpt lat="48.42895" lon="2.6593">
        <ele>142.4</ele>
        <time>2018-04-15T14:44:49Z</time>
      </trkpt>
      <trkpt lat="48.429" lon="2.65927">
        <ele>142</ele>
        <time>2018-04-15T14:44:50Z</time>
      </trkpt>
      <trkpt lat="48.42904" lon="2.65924">
        <ele>141.7</ele>
        <time>2018-04-15T14:44:51Z</time>
      </trkpt>
      <trkpt lat="48.42908" lon="2.6592">
        <ele>141.5</ele>
        <time>2018-04-15T14:44:52Z</time>
      </trkpt>
      <trkpt lat="48.42912" lon="2.65918">
        <ele>141.1</ele>
        <time>2018-04-15T14:44:53Z</time>
      </trkpt>
      <trkpt lat="48.42918" lon="2.65915">
        <ele>140.7</ele>
        <time>2018-04-15T14:44:54Z</time>
      </trkpt>
      <trkpt lat="48.42922" lon="2.65912">
        <ele>140.3</ele>
        <time>2018-04-15T14:44:55Z</time>
      </trkpt>
      <trkpt lat="48.42926" lon="2.65911">
        <ele>139.9</ele>
        <time>2018-04-15T14:44:56Z</time>
      </trkpt>
      <trkpt lat="48.42933" lon="2.65908">
        <ele>139.4</ele>
        <time>2018-04-15T14:44:57Z</time>
      </trkpt>
      <trkpt lat="48.42939" lon="2.65906">
        <ele>139</ele>
        <time>2018-04-15T14:44:58Z</time>
      </trkpt>
      <trkpt lat="48.42944" lon="2.65904">
        <ele>138.6</ele>
        <time>2018-04-15T14:44:59Z</time>
      </trkpt>
      <trkpt lat="48.42949" lon="2.65901">
        <ele>138.2</ele>
        <time>2018-04-15T14:45:00Z</time>
      </trkpt>
      <trkpt lat="48.42954" lon="2.65896">
        <ele>138</ele>
        <time>2018-04-15T14:45:01Z</time>
      </trkpt>
      <trkpt lat="48.42961" lon="2.6589">
        <ele>137.9</ele>
        <time>2018-04-15T14:45:02Z</time>
      </trkpt>
      <trkpt lat="48.42966" lon="2.65885">
        <ele>137.8</ele>
        <time>2018-04-15T14:45:03Z</time>
      </trkpt>
      <trkpt lat="48.4297" lon="2.6588">
        <ele>137.7</ele>
        <time>2018-04-15T14:45:04Z</time>
      </trkpt>
      <trkpt lat="48.42973" lon="2.65877">
        <ele>137.7</ele>
        <time>2018-04-15T14:45:05Z</time>
      </trkpt>
      <trkpt lat="48.42976" lon="2.65875">
        <ele>137.6</ele>
        <time>2018-04-15T14:45:06Z</time>
      </trkpt>
      <trkpt lat="48.42981" lon="2.65872">
        <ele>137.6</ele>
        <time>2018-04-15T14:45:08Z</time>
      </trkpt>
      <trkpt lat="48.42985" lon="2.65868">
        <ele>137.5</ele>
        <time>2018-04-15T14:45:10Z</time>
      </trkpt>
      <trkpt lat="48.42988" lon="2.65865">
        <ele>137.5</ele>
        <time>2018-04-15T14:45:11Z</time>
      </trkpt>
      <trkpt lat="48.4299" lon="2.65862">
        <ele>137.5</ele>
        <time>2018-04-15T14:45:12Z</time>
      </trkpt>
      <trkpt lat="48.42992" lon="2.65859">
        <ele>137.4</ele>
        <time>2018-04-15T14:45:13Z</time>
      </trkpt>
      <trkpt lat="48.42994" lon="2.65856">
        <ele>137.4</ele>
        <time>2018-04-15T14:45:14Z</time>
      </trkpt>
      <trkpt lat="48.42997" lon="2.65851">
        <ele>137.3</ele>
        <time>2018-04-15T14:45:15Z</time>
      </trkpt>
      <trkpt lat="48.43" lon="2.65847">
        <ele>137.2</ele>
        <time>2018-04-15T14:45:16Z</time>
      </trkpt>
      <trkpt lat="48.43004" lon="2.65845">
        <ele>137.2</ele>
        <time>2018-04-15T14:45:17Z</time>
      </trkpt>
      <trkpt lat="48.43009" lon="2.65847">
        <ele>137.1</ele>
        <time>2018-04-15T14:45:18Z</time>
      </trkpt>
      <trkpt lat="48.43014" lon="2.65849">
        <ele>137</ele>
        <time>2018-04-15T14:45:19Z</time>
      </trkpt>
      <trkpt lat="48.43019" lon="2.65851">
        <ele>137</ele>
        <time>2018-04-15T14:45:20Z</time>
      </trkpt>
      <trkpt lat="48.43023" lon="2.65852">
        <ele>137</ele>
        <time>2018-04-15T14:45:21Z</time>
      </trkpt>
      <trkpt lat="48.43029" lon="2.65854">
        <ele>136.9</ele>
        <time>2018-04-15T14:45:22Z</time>
      </trkpt>
      <trkpt lat="48.43034" lon="2.65854">
        <ele>136.9</ele>
        <time>2018-04-15T14:45:23Z</time>
      </trkpt>
      <trkpt lat="48.43038" lon="2.65855">
        <ele>136.9</ele>
        <time>2018-04-15T14:45:24Z</time>
      </trkpt>
      <trkpt lat="48.43044" lon="2.65857">
        <ele>136.8</ele>
        <time>2018-04-15T14:45:25Z</time>
      </trkpt>
      <trkpt lat="48.43049" lon="2.65859">
        <ele>136.8</ele>
        <time>2018-04-15T14:45:26Z</time>
      </trkpt>
      <trkpt lat="48.43053" lon="2.65861">
        <ele>136.8</ele>
        <time>2018-04-15T14:45:27Z</time>
      </trkpt>
      <trkpt lat="48.43057" lon="2.65863">
        <ele>136.8</ele>
        <time>2018-04-15T14:45:28Z</time>
      </trkpt>
      <trkpt lat="48.43061" lon="2.65865">
        <ele>136.7</ele>
        <time>2018-04-15T14:45:29Z</time>
      </trkpt>
      <trkpt lat="48.43066" lon="2.65867">
        <ele>136.7</ele>
        <time>2018-04-15T14:45:30Z</time>
      </trkpt>
      <trkpt lat="48.43072" lon="2.6587">
        <ele>136.7</ele>
        <time>2018-04-15T14:45:31Z</time>
      </trkpt>
      <trkpt lat="48.43077" lon="2.65873">
        <ele>136.6</ele>
        <time>2018-04-15T14:45:32Z</time>
      </trkpt>
      <trkpt lat="48.43082" lon="2.65876">
        <ele>136.6</ele>
        <time>2018-04-15T14:45:33Z</time>
      </trkpt>
      <trkpt lat="48.43087" lon="2.65879">
        <ele>136.5</ele>
        <time>2018-04-15T14:45:34Z</time>
      </trkpt>
      <trkpt lat="48.43093" lon="2.65882">
        <ele>136.5</ele>
        <time>2018-04-15T14:45:35Z</time>
      </trkpt>
      <trkpt lat="48.43099" lon="2.65885">
        <ele>136.4</ele>
        <time>2018-04-15T14:45:36Z</time>
      </trkpt>
      <trkpt lat="48.43104" lon="2.65886">
        <ele>136.4</ele>
        <time>2018-04-15T14:45:37Z</time>
      </trkpt>
      <trkpt lat="48.43109" lon="2.65888">
        <ele>136.3</ele>
        <time>2018-04-15T14:45:38Z</time>
      </trkpt>
      <trkpt lat="48.43113" lon="2.65892">
        <ele>136.2</ele>
        <time>2018-04-15T14:45:39Z</time>
      </trkpt>
      <trkpt lat="48.43118" lon="2.65895">
        <ele>136.2</ele>
        <time>2018-04-15T14:45:40Z</time>
      </trkpt>
      <trkpt lat="48.43122" lon="2.65895">
        <ele>136.1</ele>
        <time>2018-04-15T14:45:41Z</time>
      </trkpt>
      <trkpt lat="48.43126" lon="2.65894">
        <ele>136</ele>
        <time>2018-04-15T14:45:42Z</time>
      </trkpt>
      <trkpt lat="48.43131" lon="2.65892">
        <ele>136</ele>
        <time>2018-04-15T14:45:43Z</time>
      </trkpt>
      <trkpt lat="48.43135" lon="2.65888">
        <ele>136</ele>
        <time>2018-04-15T14:45:44Z</time>
      </trkpt>
      <trkpt lat="48.43138" lon="2.65883">
        <ele>135.9</ele>
        <time>2018-04-15T14:45:45Z</time>
      </trkpt>
      <trkpt lat="48.4314" lon="2.65878">
        <ele>135.9</ele>
        <time>2018-04-15T14:45:46Z</time>
      </trkpt>
      <trkpt lat="48.43143" lon="2.65872">
        <ele>135.9</ele>
        <time>2018-04-15T14:45:47Z</time>
      </trkpt>
      <trkpt lat="48.43146" lon="2.65862">
        <ele>135.9</ele>
        <time>2018-04-15T14:45:49Z</time>
      </trkpt>
      <trkpt lat="48.43149" lon="2.65856">
        <ele>135.8</ele>
        <time>2018-04-15T14:45:50Z</time>
      </trkpt>
      <trkpt lat="48.43152" lon="2.65851">
        <ele>135.8</ele>
        <time>2018-04-15T14:45:51Z</time>
      </trkpt>
      <trkpt lat="48.43156" lon="2.65842">
        <ele>135.8</ele>
        <time>2018-04-15T14:45:52Z</time>
      </trkpt>
      <trkpt lat="48.43159" lon="2.65834">
        <ele>135.7</ele>
        <time>2018-04-15T14:45:53Z</time>
      </trkpt>
      <trkpt lat="48.43162" lon="2.65827">
        <ele>135.7</ele>
        <time>2018-04-15T14:45:54Z</time>
      </trkpt>
      <trkpt lat="48.43164" lon="2.65822">
        <ele>135.7</ele>
        <time>2018-04-15T14:45:55Z</time>
      </trkpt>
      <trkpt lat="48.43166" lon="2.65818">
        <ele>135.6</ele>
        <time>2018-04-15T14:45:56Z</time>
      </trkpt>
      <trkpt lat="48.43168" lon="2.65814">
        <ele>135.6</ele>
        <time>2018-04-15T14:45:57Z</time>
      </trkpt>
      <trkpt lat="48.43169" lon="2.65811">
        <ele>135.5</ele>
        <time>2018-04-15T14:45:58Z</time>
      </trkpt>
      <trkpt lat="48.43173" lon="2.65804">
        <ele>135.5</ele>
        <time>2018-04-15T14:46:00Z</time>
      </trkpt>
      <trkpt lat="48.43175" lon="2.65798">
        <ele>135.4</ele>
        <time>2018-04-15T14:46:01Z</time>
      </trkpt>
      <trkpt lat="48.43177" lon="2.65795">
        <ele>135.4</ele>
        <time>2018-04-15T14:46:02Z</time>
      </trkpt>
      <trkpt lat="48.43179" lon="2.65789">
        <ele>135.4</ele>
        <time>2018-04-15T14:46:03Z</time>
      </trkpt>
      <trkpt lat="48.43181" lon="2.65782">
        <ele>135.3</ele>
        <time>2018-04-15T14:46:04Z</time>
      </trkpt>
      <trkpt lat="48.43183" lon="2.65777">
        <ele>135.3</ele>
        <time>2018-04-15T14:46:05Z</time>
      </trkpt>
      <trkpt lat="48.43186" lon="2.65769">
        <ele>135.3</ele>
        <time>2018-04-15T14:46:07Z</time>
      </trkpt>
      <trkpt lat="48.43188" lon="2.65766">
        <ele>135.3</ele>
        <time>2018-04-15T14:46:08Z</time>
      </trkpt>
      <trkpt lat="48.4319" lon="2.6576">
        <ele>135.2</ele>
        <time>2018-04-15T14:46:09Z</time>
      </trkpt>
      <trkpt lat="48.43193" lon="2.65755">
        <ele>135.2</ele>
        <time>2018-04-15T14:46:10Z</time>
      </trkpt>
      <trkpt lat="48.43196" lon="2.65748">
        <ele>135.2</ele>
        <time>2018-04-15T14:46:11Z</time>
      </trkpt>
      <trkpt lat="48.43199" lon="2.65744">
        <ele>135.1</ele>
        <time>2018-04-15T14:46:12Z</time>
      </trkpt>
      <trkpt lat="48.43201" lon="2.65737">
        <ele>135.1</ele>
        <time>2018-04-15T14:46:13Z</time>
      </trkpt>
      <trkpt lat="48.43203" lon="2.6573">
        <ele>135.1</ele>
        <time>2018-04-15T14:46:14Z</time>
      </trkpt>
      <trkpt lat="48.43205" lon="2.65723">
        <ele>135.1</ele>
        <time>2018-04-15T14:46:15Z</time>
      </trkpt>
      <trkpt lat="48.43206" lon="2.65717">
        <ele>135</ele>
        <time>2018-04-15T14:46:16Z</time>
      </trkpt>
      <trkpt lat="48.43209" lon="2.65708">
        <ele>135</ele>
        <time>2018-04-15T14:46:18Z</time>
      </trkpt>
      <trkpt lat="48.4321" lon="2.65702">
        <ele>135</ele>
        <time>2018-04-15T14:46:19Z</time>
      </trkpt>
      <trkpt lat="48.43212" lon="2.65696">
        <ele>134.9</ele>
        <time>2018-04-15T14:46:20Z</time>
      </trkpt>
      <trkpt lat="48.43212" lon="2.65692">
        <ele>134.9</ele>
        <time>2018-04-15T14:46:21Z</time>
      </trkpt>
      <trkpt lat="48.43212" lon="2.65686">
        <ele>134.9</ele>
        <time>2018-04-15T14:46:22Z</time>
      </trkpt>
      <trkpt lat="48.43213" lon="2.65679">
        <ele>134.9</ele>
        <time>2018-04-15T14:46:23Z</time>
      </trkpt>
      <trkpt lat="48.43215" lon="2.65671">
        <ele>134.8</ele>
        <time>2018-04-15T14:46:24Z</time>
      </trkpt>
      <trkpt lat="48.43217" lon="2.65665">
        <ele>134.8</ele>
        <time>2018-04-15T14:46:25Z</time>
      </trkpt>
      <trkpt lat="48.43219" lon="2.65658">
        <ele>134.7</ele>
        <time>2018-04-15T14:46:26Z</time>
      </trkpt>
      <trkpt lat="48.43221" lon="2.65649">
        <ele>134.7</ele>
        <time>2018-04-15T14:46:27Z</time>
      </trkpt>
      <trkpt lat="48.43224" lon="2.65643">
        <ele>134.7</ele>
        <time>2018-04-15T14:46:28Z</time>
      </trkpt>
      <trkpt lat="48.43227" lon="2.65636">
        <ele>134.6</ele>
        <time>2018-04-15T14:46:29Z</time>
      </trkpt>
      <trkpt lat="48.43229" lon="2.65629">
        <ele>134.6</ele>
        <time>2018-04-15T14:46:30Z</time>
      </trkpt>
      <trkpt lat="48.43232" lon="2.65625">
        <ele>134.6</ele>
        <time>2018-04-15T14:46:31Z</time>
      </trkpt>
      <trkpt lat="48.43233" lon="2.65621">
        <ele>134.6</ele>
        <time>2018-04-15T14:46:32Z</time>
      </trkpt>
      <trkpt lat="48.43235" lon="2.65617">
        <ele>134.5</ele>
        <time>2018-04-15T14:46:33Z</time>
      </trkpt>
      <trkpt lat="48.43236" lon="2.65614">
        <ele>134.5</ele>
        <time>2018-04-15T14:46:34Z</time>
      </trkpt>
      <trkpt lat="48.43238" lon="2.6561">
        <ele>134.5</ele>
        <time>2018-04-15T14:46:35Z</time>
      </trkpt>
      <trkpt lat="48.43241" lon="2.65605">
        <ele>134.5</ele>
        <time>2018-04-15T14:46:36Z</time>
      </trkpt>
      <trkpt lat="48.43243" lon="2.65601">
        <ele>134.5</ele>
        <time>2018-04-15T14:46:37Z</time>
      </trkpt>
      <trkpt lat="48.43244" lon="2.65597">
        <ele>134.5</ele>
        <time>2018-04-15T14:46:38Z</time>
      </trkpt>
      <trkpt lat="48.43246" lon="2.65593">
        <ele>134.4</ele>
        <time>2018-04-15T14:46:39Z</time>
      </trkpt>
      <trkpt lat="48.43248" lon="2.65589">
        <ele>134.4</ele>
        <time>2018-04-15T14:46:40Z</time>
      </trkpt>
      <trkpt lat="48.43249" lon="2.65582">
        <ele>134.4</ele>
        <time>2018-04-15T14:46:41Z</time>
      </trkpt>
      <trkpt lat="48.43249" lon="2.65577">
        <ele>134.4</ele>
        <time>2018-04-15T14:46:42Z</time>
      </trkpt>
      <trkpt lat="48.43248" lon="2.6557">
        <ele>134.3</ele>
        <time>2018-04-15T14:46:44Z</time>
      </trkpt>
      <trkpt lat="48.43249" lon="2.65565">
        <ele>134.3</ele>
        <time>2018-04-15T14:46:45Z</time>
      </trkpt>
      <trkpt lat="48.43251" lon="2.65559">
        <ele>134.3</ele>
        <time>2018-04-15T14:46:46Z</time>
      </trkpt>
      <trkpt lat="48.43252" lon="2.65552">
        <ele>134.3</ele>
        <time>2018-04-15T14:46:47Z</time>
      </trkpt>
      <trkpt lat="48.43253" lon="2.65542">
        <ele>134.3</ele>
        <time>2018-04-15T14:46:49Z</time>
      </trkpt>
      <trkpt lat="48.43254" lon="2.65538">
        <ele>134.3</ele>
        <time>2018-04-15T14:46:50Z</time>
      </trkpt>
      <trkpt lat="48.43255" lon="2.65533">
        <ele>134.3</ele>
        <time>2018-04-15T14:46:51Z</time>
      </trkpt>
      <trkpt lat="48.43255" lon="2.65528">
        <ele>134.3</ele>
        <time>2018-04-15T14:46:52Z</time>
      </trkpt>
      <trkpt lat="48.43255" lon="2.65523">
        <ele>134.3</ele>
        <time>2018-04-15T14:46:53Z</time>
      </trkpt>
      <trkpt lat="48.43254" lon="2.65518">
        <ele>134.3</ele>
        <time>2018-04-15T14:46:54Z</time>
      </trkpt>
      <trkpt lat="48.43255" lon="2.65513">
        <ele>134.3</ele>
        <time>2018-04-15T14:46:55Z</time>
      </trkpt>
      <trkpt lat="48.43256" lon="2.65506">
        <ele>134.3</ele>
        <time>2018-04-15T14:46:57Z</time>
      </trkpt>
      <trkpt lat="48.43257" lon="2.65502">
        <ele>134.3</ele>
        <time>2018-04-15T14:46:58Z</time>
      </trkpt>
      <trkpt lat="48.43257" lon="2.65497">
        <ele>134.4</ele>
        <time>2018-04-15T14:46:59Z</time>
      </trkpt>
      <trkpt lat="48.43258" lon="2.6549">
        <ele>134.5</ele>
        <time>2018-04-15T14:47:00Z</time>
      </trkpt>
      <trkpt lat="48.43259" lon="2.65486">
        <ele>134.5</ele>
        <time>2018-04-15T14:47:01Z</time>
      </trkpt>
      <trkpt lat="48.43259" lon="2.65481">
        <ele>134.6</ele>
        <time>2018-04-15T14:47:03Z</time>
      </trkpt>
      <trkpt lat="48.43256" lon="2.65477">
        <ele>134.7</ele>
        <time>2018-04-15T14:47:05Z</time>
      </trkpt>
      <trkpt lat="48.43255" lon="2.65473">
        <ele>134.8</ele>
        <time>2018-04-15T14:47:06Z</time>
      </trkpt>
      <trkpt lat="48.43253" lon="2.65468">
        <ele>134.9</ele>
        <time>2018-04-15T14:47:07Z</time>
      </trkpt>
      <trkpt lat="48.43251" lon="2.65465">
        <ele>135</ele>
        <time>2018-04-15T14:47:08Z</time>
      </trkpt>
      <trkpt lat="48.43247" lon="2.65462">
        <ele>134.9</ele>
        <time>2018-04-15T14:47:09Z</time>
      </trkpt>
      <trkpt lat="48.43243" lon="2.65461">
        <ele>134.9</ele>
        <time>2018-04-15T14:47:10Z</time>
      </trkpt>
      <trkpt lat="48.4324" lon="2.65457">
        <ele>134.9</ele>
        <time>2018-04-15T14:47:12Z</time>
      </trkpt>
      <trkpt lat="48.43237" lon="2.65455">
        <ele>134.8</ele>
        <time>2018-04-15T14:47:14Z</time>
      </trkpt>
      <trkpt lat="48.43231" lon="2.65452">
        <ele>134.7</ele>
        <time>2018-04-15T14:47:16Z</time>
      </trkpt>
      <trkpt lat="48.43228" lon="2.65451">
        <ele>134.6</ele>
        <time>2018-04-15T14:47:17Z</time>
      </trkpt>
      <trkpt lat="48.43225" lon="2.65449">
        <ele>134.6</ele>
        <time>2018-04-15T14:47:18Z</time>
      </trkpt>
      <trkpt lat="48.43223" lon="2.65447">
        <ele>134.5</ele>
        <time>2018-04-15T14:47:19Z</time>
      </trkpt>
      <trkpt lat="48.43219" lon="2.65443">
        <ele>134.3</ele>
        <time>2018-04-15T14:47:20Z</time>
      </trkpt>
      <trkpt lat="48.43216" lon="2.65439">
        <ele>134.1</ele>
        <time>2018-04-15T14:47:22Z</time>
      </trkpt>
      <trkpt lat="48.43214" lon="2.65436">
        <ele>133.8</ele>
        <time>2018-04-15T14:47:23Z</time>
      </trkpt>
      <trkpt lat="48.43212" lon="2.65433">
        <ele>133.5</ele>
        <time>2018-04-15T14:47:24Z</time>
      </trkpt>
      <trkpt lat="48.43211" lon="2.65429">
        <ele>133.2</ele>
        <time>2018-04-15T14:47:25Z</time>
      </trkpt>
      <trkpt lat="48.4321" lon="2.65424">
        <ele>133</ele>
        <time>2018-04-15T14:47:26Z</time>
      </trkpt>
      <trkpt lat="48.43211" lon="2.65417">
        <ele>132.8</ele>
        <time>2018-04-15T14:47:28Z</time>
      </trkpt>
      <trkpt lat="48.43211" lon="2.65411">
        <ele>132.6</ele>
        <time>2018-04-15T14:47:30Z</time>
      </trkpt>
      <trkpt lat="48.43211" lon="2.65406">
        <ele>132.5</ele>
        <time>2018-04-15T14:47:33Z</time>
      </trkpt>
      <trkpt lat="48.4321" lon="2.65402">
        <ele>132.3</ele>
        <time>2018-04-15T14:47:35Z</time>
      </trkpt>
      <trkpt lat="48.43208" lon="2.65396">
        <ele>132.1</ele>
        <time>2018-04-15T14:47:39Z</time>
      </trkpt>
      <trkpt lat="48.43208" lon="2.65389">
        <ele>131.1</ele>
        <time>2018-04-15T14:47:42Z</time>
      </trkpt>
      <trkpt lat="48.43209" lon="2.65385">
        <ele>130.6</ele>
        <time>2018-04-15T14:47:57Z</time>
      </trkpt>
      <trkpt lat="48.43206" lon="2.65383">
        <ele>130.3</ele>
        <time>2018-04-15T14:48:05Z</time>
      </trkpt>
      <trkpt lat="48.43206" lon="2.65379">
        <ele>130.1</ele>
        <time>2018-04-15T14:48:27Z</time>
      </trkpt>
      <trkpt lat="48.43208" lon="2.65372">
        <ele>129.8</ele>
        <time>2018-04-15T14:48:29Z</time>
      </trkpt>
      <trkpt lat="48.4321" lon="2.65367">
        <ele>129.5</ele>
        <time>2018-04-15T14:48:31Z</time>
      </trkpt>
      <trkpt lat="48.43212" lon="2.6536">
        <ele>129.3</ele>
        <time>2018-04-15T14:48:33Z</time>
      </trkpt>
      <trkpt lat="48.43212" lon="2.65356">
        <ele>129.1</ele>
        <time>2018-04-15T14:48:34Z</time>
      </trkpt>
      <trkpt lat="48.43211" lon="2.65348">
        <ele>128.4</ele>
        <time>2018-04-15T14:48:36Z</time>
      </trkpt>
      <trkpt lat="48.43211" lon="2.65343">
        <ele>128</ele>
        <time>2018-04-15T14:48:37Z</time>
      </trkpt>
      <trkpt lat="48.4321" lon="2.65338">
        <ele>127.6</ele>
        <time>2018-04-15T14:48:38Z</time>
      </trkpt>
      <trkpt lat="48.43209" lon="2.65328">
        <ele>127.3</ele>
        <time>2018-04-15T14:48:40Z</time>
      </trkpt>
      <trkpt lat="48.4321" lon="2.65322">
        <ele>127.1</ele>
        <time>2018-04-15T14:48:43Z</time>
      </trkpt>
      <trkpt lat="48.43211" lon="2.65317">
        <ele>126.8</ele>
        <time>2018-04-15T14:48:44Z</time>
      </trkpt>
      <trkpt lat="48.4321" lon="2.65311">
        <ele>126.3</ele>
        <time>2018-04-15T14:48:45Z</time>
      </trkpt>
      <trkpt lat="48.4321" lon="2.65306">
        <ele>125.8</ele>
        <time>2018-04-15T14:48:46Z</time>
      </trkpt>
      <trkpt lat="48.43211" lon="2.65301">
        <ele>125.4</ele>
        <time>2018-04-15T14:48:47Z</time>
      </trkpt>
      <trkpt lat="48.43212" lon="2.65293">
        <ele>125.1</ele>
        <time>2018-04-15T14:48:49Z</time>
      </trkpt>
      <trkpt lat="48.43212" lon="2.65288">
        <ele>125</ele>
        <time>2018-04-15T14:48:50Z</time>
      </trkpt>
      <trkpt lat="48.43213" lon="2.65283">
        <ele>124.8</ele>
        <time>2018-04-15T14:48:51Z</time>
      </trkpt>
      <trkpt lat="48.43214" lon="2.65276">
        <ele>124.4</ele>
        <time>2018-04-15T14:48:53Z</time>
      </trkpt>
      <trkpt lat="48.43215" lon="2.65269">
        <ele>123.9</ele>
        <time>2018-04-15T14:48:55Z</time>
      </trkpt>
      <trkpt lat="48.43217" lon="2.65262">
        <ele>123.4</ele>
        <time>2018-04-15T14:48:56Z</time>
      </trkpt>
      <trkpt lat="48.43218" lon="2.65258">
        <ele>123.2</ele>
        <time>2018-04-15T14:48:57Z</time>
      </trkpt>
      <trkpt lat="48.43218" lon="2.65253">
        <ele>123</ele>
        <time>2018-04-15T14:48:58Z</time>
      </trkpt>
      <trkpt lat="48.43219" lon="2.65247">
        <ele>122.8</ele>
        <time>2018-04-15T14:48:59Z</time>
      </trkpt>
      <trkpt lat="48.43222" lon="2.65239">
        <ele>122.6</ele>
        <time>2018-04-15T14:49:01Z</time>
      </trkpt>
      <trkpt lat="48.43223" lon="2.65232">
        <ele>122</ele>
        <time>2018-04-15T14:49:03Z</time>
      </trkpt>
      <trkpt lat="48.43225" lon="2.65225">
        <ele>121.3</ele>
        <time>2018-04-15T14:49:05Z</time>
      </trkpt>
      <trkpt lat="48.43228" lon="2.65221">
        <ele>121.1</ele>
        <time>2018-04-15T14:49:08Z</time>
      </trkpt>
      <trkpt lat="48.4323" lon="2.65217">
        <ele>120.9</ele>
        <time>2018-04-15T14:49:10Z</time>
      </trkpt>
      <trkpt lat="48.43233" lon="2.65212">
        <ele>120.7</ele>
        <time>2018-04-15T14:49:12Z</time>
      </trkpt>
      <trkpt lat="48.43236" lon="2.65205">
        <ele>120.3</ele>
        <time>2018-04-15T14:49:16Z</time>
      </trkpt>
      <trkpt lat="48.43238" lon="2.65201">
        <ele>120.1</ele>
        <time>2018-04-15T14:49:18Z</time>
      </trkpt>
      <trkpt lat="48.43241" lon="2.65196">
        <ele>119.6</ele>
        <time>2018-04-15T14:49:20Z</time>
      </trkpt>
      <trkpt lat="48.43242" lon="2.65192">
        <ele>119.3</ele>
        <time>2018-04-15T14:49:21Z</time>
      </trkpt>
      <trkpt lat="48.43243" lon="2.65187">
        <ele>118.9</ele>
        <time>2018-04-15T14:49:23Z</time>
      </trkpt>
      <trkpt lat="48.43243" lon="2.65181">
        <ele>118.5</ele>
        <time>2018-04-15T14:49:24Z</time>
      </trkpt>
      <trkpt lat="48.43243" lon="2.65176">
        <ele>118.2</ele>
        <time>2018-04-15T14:49:25Z</time>
      </trkpt>
      <trkpt lat="48.43243" lon="2.65171">
        <ele>118</ele>
        <time>2018-04-15T14:49:26Z</time>
      </trkpt>
      <trkpt lat="48.43244" lon="2.65167">
        <ele>117.7</ele>
        <time>2018-04-15T14:49:27Z</time>
      </trkpt>
      <trkpt lat="48.43245" lon="2.65162">
        <ele>117.3</ele>
        <time>2018-04-15T14:49:28Z</time>
      </trkpt>
      <trkpt lat="48.43246" lon="2.65157">
        <ele>116.9</ele>
        <time>2018-04-15T14:49:29Z</time>
      </trkpt>
      <trkpt lat="48.43248" lon="2.65153">
        <ele>116.5</ele>
        <time>2018-04-15T14:49:32Z</time>
      </trkpt>
      <trkpt lat="48.4325" lon="2.6515">
        <ele>116.2</ele>
        <time>2018-04-15T14:49:34Z</time>
      </trkpt>
      <trkpt lat="48.43254" lon="2.65146">
        <ele>115.9</ele>
        <time>2018-04-15T14:49:36Z</time>
      </trkpt>
      <trkpt lat="48.43256" lon="2.6514">
        <ele>115.3</ele>
        <time>2018-04-15T14:49:46Z</time>
      </trkpt>
      <trkpt lat="48.43258" lon="2.65136">
        <ele>114.8</ele>
        <time>2018-04-15T14:49:48Z</time>
      </trkpt>
      <trkpt lat="48.43261" lon="2.65135">
        <ele>114.4</ele>
        <time>2018-04-15T14:49:58Z</time>
      </trkpt>
      <trkpt lat="48.43263" lon="2.65129">
        <ele>114</ele>
        <time>2018-04-15T14:50:12Z</time>
      </trkpt>
      <trkpt lat="48.43264" lon="2.65125">
        <ele>113.9</ele>
        <time>2018-04-15T14:50:14Z</time>
      </trkpt>
      <trkpt lat="48.43267" lon="2.65124">
        <ele>113.8</ele>
        <time>2018-04-15T14:50:20Z</time>
      </trkpt>
      <trkpt lat="48.43268" lon="2.6512">
        <ele>113.7</ele>
        <time>2018-04-15T14:50:23Z</time>
      </trkpt>
      <trkpt lat="48.4327" lon="2.65115">
        <ele>113.6</ele>
        <time>2018-04-15T14:50:25Z</time>
      </trkpt>
      <trkpt lat="48.43274" lon="2.65112">
        <ele>113.4</ele>
        <time>2018-04-15T14:50:27Z</time>
      </trkpt>
      <trkpt lat="48.43277" lon="2.65111">
        <ele>113.3</ele>
        <time>2018-04-15T14:50:28Z</time>
      </trkpt>
      <trkpt lat="48.43281" lon="2.65109">
        <ele>113</ele>
        <time>2018-04-15T14:50:30Z</time>
      </trkpt>
      <trkpt lat="48.43284" lon="2.65107">
        <ele>112.3</ele>
        <time>2018-04-15T14:50:34Z</time>
      </trkpt>
      <trkpt lat="48.43287" lon="2.65106">
        <ele>111.5</ele>
        <time>2018-04-15T14:50:36Z</time>
      </trkpt>
      <trkpt lat="48.43291" lon="2.65105">
        <ele>110.7</ele>
        <time>2018-04-15T14:50:40Z</time>
      </trkpt>
      <trkpt lat="48.43294" lon="2.65103">
        <ele>110.1</ele>
        <time>2018-04-15T14:50:58Z</time>
      </trkpt>
      <trkpt lat="48.4329" lon="2.65101">
        <ele>109.3</ele>
        <time>2018-04-15T14:51:15Z</time>
      </trkpt>
      <trkpt lat="48.43288" lon="2.65098">
        <ele>108.9</ele>
        <time>2018-04-15T14:51:18Z</time>
      </trkpt>
      <trkpt lat="48.43287" lon="2.65092">
        <ele>108.2</ele>
        <time>2018-04-15T14:51:21Z</time>
      </trkpt>
      <trkpt lat="48.43287" lon="2.65087">
        <ele>107.7</ele>
        <time>2018-04-15T14:51:22Z</time>
      </trkpt>
      <trkpt lat="48.43289" lon="2.65082">
        <ele>107</ele>
        <time>2018-04-15T14:51:24Z</time>
      </trkpt>
      <trkpt lat="48.43291" lon="2.65075">
        <ele>106.7</ele>
        <time>2018-04-15T14:51:26Z</time>
      </trkpt>
      <trkpt lat="48.43293" lon="2.65067">
        <ele>106.1</ele>
        <time>2018-04-15T14:51:28Z</time>
      </trkpt>
      <trkpt lat="48.43294" lon="2.65061">
        <ele>105.5</ele>
        <time>2018-04-15T14:51:29Z</time>
      </trkpt>
      <trkpt lat="48.43295" lon="2.65055">
        <ele>104.9</ele>
        <time>2018-04-15T14:51:30Z</time>
      </trkpt>
      <trkpt lat="48.43296" lon="2.65049">
        <ele>104.6</ele>
        <time>2018-04-15T14:51:31Z</time>
      </trkpt>
      <trkpt lat="48.43297" lon="2.65045">
        <ele>104.4</ele>
        <time>2018-04-15T14:51:32Z</time>
      </trkpt>
      <trkpt lat="48.43299" lon="2.65039">
        <ele>103.8</ele>
        <time>2018-04-15T14:51:33Z</time>
      </trkpt>
      <trkpt lat="48.43302" lon="2.65032">
        <ele>103.1</ele>
        <time>2018-04-15T14:51:34Z</time>
      </trkpt>
      <trkpt lat="48.43304" lon="2.65026">
        <ele>102.6</ele>
        <time>2018-04-15T14:51:35Z</time>
      </trkpt>
      <trkpt lat="48.43306" lon="2.6502">
        <ele>102.4</ele>
        <time>2018-04-15T14:51:36Z</time>
      </trkpt>
      <trkpt lat="48.43308" lon="2.65014">
        <ele>102.2</ele>
        <time>2018-04-15T14:51:37Z</time>
      </trkpt>
      <trkpt lat="48.4331" lon="2.65007">
        <ele>102</ele>
        <time>2018-04-15T14:51:38Z</time>
      </trkpt>
      <trkpt lat="48.43312" lon="2.65001">
        <ele>101.6</ele>
        <time>2018-04-15T14:51:39Z</time>
      </trkpt>
      <trkpt lat="48.43313" lon="2.64996">
        <ele>101.2</ele>
        <time>2018-04-15T14:51:40Z</time>
      </trkpt>
      <trkpt lat="48.43315" lon="2.64989">
        <ele>100.6</ele>
        <time>2018-04-15T14:51:41Z</time>
      </trkpt>
      <trkpt lat="48.43315" lon="2.64981">
        <ele>100.1</ele>
        <time>2018-04-15T14:51:42Z</time>
      </trkpt>
      <trkpt lat="48.43315" lon="2.64971">
        <ele>100.1</ele>
        <time>2018-04-15T14:51:43Z</time>
      </trkpt>
      <trkpt lat="48.43315" lon="2.64963">
        <ele>100.2</ele>
        <time>2018-04-15T14:51:44Z</time>
      </trkpt>
      <trkpt lat="48.43314" lon="2.64957">
        <ele>100.1</ele>
        <time>2018-04-15T14:51:45Z</time>
      </trkpt>
      <trkpt lat="48.43312" lon="2.64951">
        <ele>100.1</ele>
        <time>2018-04-15T14:51:46Z</time>
      </trkpt>
      <trkpt lat="48.43311" lon="2.64941">
        <ele>100</ele>
        <time>2018-04-15T14:51:47Z</time>
      </trkpt>
      <trkpt lat="48.4331" lon="2.64933">
        <ele>100</ele>
        <time>2018-04-15T14:51:48Z</time>
      </trkpt>
      <trkpt lat="48.43308" lon="2.64925">
        <ele>100</ele>
        <time>2018-04-15T14:51:49Z</time>
      </trkpt>
      <trkpt lat="48.43307" lon="2.64918">
        <ele>100</ele>
        <time>2018-04-15T14:51:50Z</time>
      </trkpt>
      <trkpt lat="48.43305" lon="2.64912">
        <ele>100</ele>
        <time>2018-04-15T14:51:51Z</time>
      </trkpt>
      <trkpt lat="48.43304" lon="2.64905">
        <ele>100</ele>
        <time>2018-04-15T14:51:52Z</time>
      </trkpt>
      <trkpt lat="48.43303" lon="2.64898">
        <ele>99.9</ele>
        <time>2018-04-15T14:51:53Z</time>
      </trkpt>
      <trkpt lat="48.43303" lon="2.64889">
        <ele>99.8</ele>
        <time>2018-04-15T14:51:54Z</time>
      </trkpt>
      <trkpt lat="48.43302" lon="2.64881">
        <ele>99.8</ele>
        <time>2018-04-15T14:51:55Z</time>
      </trkpt>
      <trkpt lat="48.43301" lon="2.64874">
        <ele>99.7</ele>
        <time>2018-04-15T14:51:56Z</time>
      </trkpt>
      <trkpt lat="48.433" lon="2.64867">
        <ele>99.7</ele>
        <time>2018-04-15T14:51:57Z</time>
      </trkpt>
      <trkpt lat="48.43298" lon="2.6486">
        <ele>99.7</ele>
        <time>2018-04-15T14:51:58Z</time>
      </trkpt>
      <trkpt lat="48.43297" lon="2.64854">
        <ele>99.6</ele>
        <time>2018-04-15T14:51:59Z</time>
      </trkpt>
      <trkpt lat="48.43296" lon="2.64848">
        <ele>99.6</ele>
        <time>2018-04-15T14:52:00Z</time>
      </trkpt>
      <trkpt lat="48.43295" lon="2.64843">
        <ele>99.5</ele>
        <time>2018-04-15T14:52:01Z</time>
      </trkpt>
      <trkpt lat="48.43294" lon="2.64837">
        <ele>99.5</ele>
        <time>2018-04-15T14:52:02Z</time>
      </trkpt>
      <trkpt lat="48.43293" lon="2.64831">
        <ele>99.5</ele>
        <time>2018-04-15T14:52:03Z</time>
      </trkpt>
      <trkpt lat="48.43293" lon="2.64826">
        <ele>99.4</ele>
        <time>2018-04-15T14:52:04Z</time>
      </trkpt>
      <trkpt lat="48.43292" lon="2.64821">
        <ele>99.4</ele>
        <time>2018-04-15T14:52:05Z</time>
      </trkpt>
      <trkpt lat="48.43291" lon="2.64813">
        <ele>99.4</ele>
        <time>2018-04-15T14:52:06Z</time>
      </trkpt>
      <trkpt lat="48.43289" lon="2.64806">
        <ele>99.3</ele>
        <time>2018-04-15T14:52:07Z</time>
      </trkpt>
      <trkpt lat="48.43289" lon="2.64798">
        <ele>99.3</ele>
        <time>2018-04-15T14:52:08Z</time>
      </trkpt>
      <trkpt lat="48.43288" lon="2.64792">
        <ele>99.3</ele>
        <time>2018-04-15T14:52:09Z</time>
      </trkpt>
      <trkpt lat="48.43287" lon="2.64788">
        <ele>99.2</ele>
        <time>2018-04-15T14:52:10Z</time>
      </trkpt>
      <trkpt lat="48.43286" lon="2.64784">
        <ele>99.2</ele>
        <time>2018-04-15T14:52:11Z</time>
      </trkpt>
      <trkpt lat="48.43285" lon="2.64779">
        <ele>99.2</ele>
        <time>2018-04-15T14:52:12Z</time>
      </trkpt>
      <trkpt lat="48.43284" lon="2.64775">
        <ele>99.2</ele>
        <time>2018-04-15T14:52:13Z</time>
      </trkpt>
      <trkpt lat="48.43283" lon="2.64771">
        <ele>99.2</ele>
        <time>2018-04-15T14:52:14Z</time>
      </trkpt>
      <trkpt lat="48.43283" lon="2.64766">
        <ele>99.1</ele>
        <time>2018-04-15T14:52:15Z</time>
      </trkpt>
      <trkpt lat="48.43282" lon="2.64762">
        <ele>99.1</ele>
        <time>2018-04-15T14:52:16Z</time>
      </trkpt>
      <trkpt lat="48.43282" lon="2.64756">
        <ele>99.1</ele>
        <time>2018-04-15T14:52:17Z</time>
      </trkpt>
      <trkpt lat="48.43282" lon="2.64751">
        <ele>99.1</ele>
        <time>2018-04-15T14:52:18Z</time>
      </trkpt>
      <trkpt lat="48.43282" lon="2.64746">
        <ele>99</ele>
        <time>2018-04-15T14:52:19Z</time>
      </trkpt>
      <trkpt lat="48.43282" lon="2.64742">
        <ele>99</ele>
        <time>2018-04-15T14:52:20Z</time>
      </trkpt>
      <trkpt lat="48.43281" lon="2.64735">
        <ele>99.2</ele>
        <time>2018-04-15T14:52:21Z</time>
      </trkpt>
      <trkpt lat="48.4328" lon="2.64728">
        <ele>99.5</ele>
        <time>2018-04-15T14:52:22Z</time>
      </trkpt>
      <trkpt lat="48.4328" lon="2.64722">
        <ele>99.8</ele>
        <time>2018-04-15T14:52:23Z</time>
      </trkpt>
      <trkpt lat="48.43279" lon="2.64716">
        <ele>100.1</ele>
        <time>2018-04-15T14:52:24Z</time>
      </trkpt>
      <trkpt lat="48.43278" lon="2.64709">
        <ele>100.4</ele>
        <time>2018-04-15T14:52:25Z</time>
      </trkpt>
      <trkpt lat="48.43277" lon="2.64702">
        <ele>100.7</ele>
        <time>2018-04-15T14:52:26Z</time>
      </trkpt>
      <trkpt lat="48.43275" lon="2.64696">
        <ele>101.1</ele>
        <time>2018-04-15T14:52:27Z</time>
      </trkpt>
      <trkpt lat="48.43274" lon="2.6469">
        <ele>101.3</ele>
        <time>2018-04-15T14:52:28Z</time>
      </trkpt>
      <trkpt lat="48.43272" lon="2.64685">
        <ele>101.5</ele>
        <time>2018-04-15T14:52:29Z</time>
      </trkpt>
      <trkpt lat="48.4327" lon="2.64676">
        <ele>101.9</ele>
        <time>2018-04-15T14:52:31Z</time>
      </trkpt>
      <trkpt lat="48.43269" lon="2.64671">
        <ele>102.1</ele>
        <time>2018-04-15T14:52:32Z</time>
      </trkpt>
      <trkpt lat="48.43268" lon="2.64665">
        <ele>102.4</ele>
        <time>2018-04-15T14:52:33Z</time>
      </trkpt>
      <trkpt lat="48.43268" lon="2.64658">
        <ele>102.7</ele>
        <time>2018-04-15T14:52:34Z</time>
      </trkpt>
      <trkpt lat="48.43267" lon="2.64649">
        <ele>103.1</ele>
        <time>2018-04-15T14:52:35Z</time>
      </trkpt>
      <trkpt lat="48.43266" lon="2.64641">
        <ele>103.5</ele>
        <time>2018-04-15T14:52:36Z</time>
      </trkpt>
      <trkpt lat="48.43265" lon="2.64633">
        <ele>103.8</ele>
        <time>2018-04-15T14:52:37Z</time>
      </trkpt>
      <trkpt lat="48.43264" lon="2.64628">
        <ele>104</ele>
        <time>2018-04-15T14:52:38Z</time>
      </trkpt>
      <trkpt lat="48.43263" lon="2.64622">
        <ele>104.3</ele>
        <time>2018-04-15T14:52:39Z</time>
      </trkpt>
      <trkpt lat="48.43262" lon="2.64616">
        <ele>104.6</ele>
        <time>2018-04-15T14:52:40Z</time>
      </trkpt>
      <trkpt lat="48.43261" lon="2.64609">
        <ele>104.8</ele>
        <time>2018-04-15T14:52:41Z</time>
      </trkpt>
      <trkpt lat="48.4326" lon="2.64603">
        <ele>105.1</ele>
        <time>2018-04-15T14:52:42Z</time>
      </trkpt>
      <trkpt lat="48.43259" lon="2.64597">
        <ele>105.5</ele>
        <time>2018-04-15T14:52:43Z</time>
      </trkpt>
      <trkpt lat="48.43258" lon="2.64588">
        <ele>105.9</ele>
        <time>2018-04-15T14:52:44Z</time>
      </trkpt>
      <trkpt lat="48.43256" lon="2.64582">
        <ele>106.2</ele>
        <time>2018-04-15T14:52:45Z</time>
      </trkpt>
      <trkpt lat="48.43255" lon="2.64575">
        <ele>106.6</ele>
        <time>2018-04-15T14:52:46Z</time>
      </trkpt>
      <trkpt lat="48.43253" lon="2.6457">
        <ele>106.9</ele>
        <time>2018-04-15T14:52:47Z</time>
      </trkpt>
      <trkpt lat="48.43252" lon="2.64563">
        <ele>107.3</ele>
        <time>2018-04-15T14:52:48Z</time>
      </trkpt>
      <trkpt lat="48.4325" lon="2.64559">
        <ele>107.6</ele>
        <time>2018-04-15T14:52:49Z</time>
      </trkpt>
      <trkpt lat="48.43249" lon="2.64554">
        <ele>108</ele>
        <time>2018-04-15T14:52:50Z</time>
      </trkpt>
      <trkpt lat="48.43249" lon="2.64549">
        <ele>108.4</ele>
        <time>2018-04-15T14:52:51Z</time>
      </trkpt>
      <trkpt lat="48.43248" lon="2.64545">
        <ele>108.7</ele>
        <time>2018-04-15T14:52:52Z</time>
      </trkpt>
      <trkpt lat="48.43248" lon="2.6454">
        <ele>109.2</ele>
        <time>2018-04-15T14:52:54Z</time>
      </trkpt>
      <trkpt lat="48.4325" lon="2.64538">
        <ele>109.7</ele>
        <time>2018-04-15T14:52:56Z</time>
      </trkpt>
      <trkpt lat="48.43255" lon="2.64532">
        <ele>110.1</ele>
        <time>2018-04-15T14:52:58Z</time>
      </trkpt>
      <trkpt lat="48.43258" lon="2.6453">
        <ele>109.8</ele>
        <time>2018-04-15T14:52:59Z</time>
      </trkpt>
      <trkpt lat="48.4326" lon="2.64527">
        <ele>109.5</ele>
        <time>2018-04-15T14:53:00Z</time>
      </trkpt>
      <trkpt lat="48.43266" lon="2.64523">
        <ele>109</ele>
        <time>2018-04-15T14:53:02Z</time>
      </trkpt>
      <trkpt lat="48.4327" lon="2.64521">
        <ele>108.6</ele>
        <time>2018-04-15T14:53:03Z</time>
      </trkpt>
      <trkpt lat="48.43273" lon="2.64517">
        <ele>108.3</ele>
        <time>2018-04-15T14:53:04Z</time>
      </trkpt>
      <trkpt lat="48.43276" lon="2.64514">
        <ele>107.9</ele>
        <time>2018-04-15T14:53:05Z</time>
      </trkpt>
      <trkpt lat="48.43279" lon="2.6451">
        <ele>107.6</ele>
        <time>2018-04-15T14:53:06Z</time>
      </trkpt>
      <trkpt lat="48.43285" lon="2.64504">
        <ele>106.9</ele>
        <time>2018-04-15T14:53:08Z</time>
      </trkpt>
      <trkpt lat="48.43288" lon="2.64501">
        <ele>106.5</ele>
        <time>2018-04-15T14:53:09Z</time>
      </trkpt>
      <trkpt lat="48.43292" lon="2.64496">
        <ele>106</ele>
        <time>2018-04-15T14:53:10Z</time>
      </trkpt>
      <trkpt lat="48.43296" lon="2.64492">
        <ele>105.5</ele>
        <time>2018-04-15T14:53:11Z</time>
      </trkpt>
      <trkpt lat="48.433" lon="2.64488">
        <ele>105.1</ele>
        <time>2018-04-15T14:53:12Z</time>
      </trkpt>
      <trkpt lat="48.43305" lon="2.64484">
        <ele>104.5</ele>
        <time>2018-04-15T14:53:13Z</time>
      </trkpt>
      <trkpt lat="48.43309" lon="2.6448">
        <ele>104.1</ele>
        <time>2018-04-15T14:53:14Z</time>
      </trkpt>
      <trkpt lat="48.43313" lon="2.64477">
        <ele>103.8</ele>
        <time>2018-04-15T14:53:15Z</time>
      </trkpt>
      <trkpt lat="48.43317" lon="2.64475">
        <ele>103.6</ele>
        <time>2018-04-15T14:53:16Z</time>
      </trkpt>
      <trkpt lat="48.4332" lon="2.64473">
        <ele>103.4</ele>
        <time>2018-04-15T14:53:17Z</time>
      </trkpt>
      <trkpt lat="48.43323" lon="2.64471">
        <ele>103.2</ele>
        <time>2018-04-15T14:53:18Z</time>
      </trkpt>
      <trkpt lat="48.43327" lon="2.64467">
        <ele>102.9</ele>
        <time>2018-04-15T14:53:19Z</time>
      </trkpt>
      <trkpt lat="48.43332" lon="2.64463">
        <ele>102.6</ele>
        <time>2018-04-15T14:53:20Z</time>
      </trkpt>
      <trkpt lat="48.43336" lon="2.64457">
        <ele>102.3</ele>
        <time>2018-04-15T14:53:21Z</time>
      </trkpt>
      <trkpt lat="48.43341" lon="2.64452">
        <ele>102</ele>
        <time>2018-04-15T14:53:22Z</time>
      </trkpt>
      <trkpt lat="48.43343" lon="2.64448">
        <ele>101.9</ele>
        <time>2018-04-15T14:53:23Z</time>
      </trkpt>
      <trkpt lat="48.43346" lon="2.64444">
        <ele>101.7</ele>
        <time>2018-04-15T14:53:24Z</time>
      </trkpt>
      <trkpt lat="48.43349" lon="2.6444">
        <ele>101.5</ele>
        <time>2018-04-15T14:53:25Z</time>
      </trkpt>
      <trkpt lat="48.43354" lon="2.64435">
        <ele>101.2</ele>
        <time>2018-04-15T14:53:26Z</time>
      </trkpt>
      <trkpt lat="48.43357" lon="2.64432">
        <ele>101</ele>
        <time>2018-04-15T14:53:27Z</time>
      </trkpt>
      <trkpt lat="48.4336" lon="2.64425">
        <ele>100.7</ele>
        <time>2018-04-15T14:53:28Z</time>
      </trkpt>
      <trkpt lat="48.43362" lon="2.6442">
        <ele>100.5</ele>
        <time>2018-04-15T14:53:29Z</time>
      </trkpt>
      <trkpt lat="48.43365" lon="2.64414">
        <ele>100.2</ele>
        <time>2018-04-15T14:53:31Z</time>
      </trkpt>
      <trkpt lat="48.43366" lon="2.6441">
        <ele>100.1</ele>
        <time>2018-04-15T14:53:33Z</time>
      </trkpt>
      <trkpt lat="48.43368" lon="2.64404">
        <ele>100</ele>
        <time>2018-04-15T14:53:35Z</time>
      </trkpt>
      <trkpt lat="48.43371" lon="2.64402">
        <ele>100</ele>
        <time>2018-04-15T14:53:37Z</time>
      </trkpt>
      <trkpt lat="48.43373" lon="2.64398">
        <ele>100</ele>
        <time>2018-04-15T14:53:39Z</time>
      </trkpt>
      <trkpt lat="48.43376" lon="2.64398">
        <ele>100</ele>
        <time>2018-04-15T14:53:44Z</time>
      </trkpt>
      <trkpt lat="48.43376" lon="2.64402">
        <ele>100</ele>
        <time>2018-04-15T14:53:51Z</time>
      </trkpt>
      <trkpt lat="48.43377" lon="2.64396">
        <ele>100</ele>
        <time>2018-04-15T14:53:55Z</time>
      </trkpt>
      <trkpt lat="48.43379" lon="2.64392">
        <ele>100</ele>
        <time>2018-04-15T14:53:56Z</time>
      </trkpt>
      <trkpt lat="48.43381" lon="2.64389">
        <ele>100.1</ele>
        <time>2018-04-15T14:54:00Z</time>
      </trkpt>
      <trkpt lat="48.43382" lon="2.64383">
        <ele>100.1</ele>
        <time>2018-04-15T14:54:06Z</time>
      </trkpt>
      <trkpt lat="48.43382" lon="2.64377">
        <ele>100.1</ele>
        <time>2018-04-15T14:54:09Z</time>
      </trkpt>
      <trkpt lat="48.43384" lon="2.64373">
        <ele>100.2</ele>
        <time>2018-04-15T14:54:11Z</time>
      </trkpt>
      <trkpt lat="48.43384" lon="2.64367">
        <ele>100.2</ele>
        <time>2018-04-15T14:54:13Z</time>
      </trkpt>
      <trkpt lat="48.43384" lon="2.64362">
        <ele>100.3</ele>
        <time>2018-04-15T14:54:16Z</time>
      </trkpt>
      <trkpt lat="48.43385" lon="2.64357">
        <ele>100.3</ele>
        <time>2018-04-15T14:54:18Z</time>
      </trkpt>
      <trkpt lat="48.43385" lon="2.64353">
        <ele>100.4</ele>
        <time>2018-04-15T14:54:19Z</time>
      </trkpt>
      <trkpt lat="48.43385" lon="2.64348">
        <ele>100.6</ele>
        <time>2018-04-15T14:54:21Z</time>
      </trkpt>
      <trkpt lat="48.43386" lon="2.64343">
        <ele>100.7</ele>
        <time>2018-04-15T14:54:23Z</time>
      </trkpt>
      <trkpt lat="48.43388" lon="2.64336">
        <ele>100.9</ele>
        <time>2018-04-15T14:54:25Z</time>
      </trkpt>
      <trkpt lat="48.43389" lon="2.64332">
        <ele>101</ele>
        <time>2018-04-15T14:54:26Z</time>
      </trkpt>
      <trkpt lat="48.43391" lon="2.64328">
        <ele>101.1</ele>
        <time>2018-04-15T14:54:27Z</time>
      </trkpt>
      <trkpt lat="48.43392" lon="2.64324">
        <ele>101.1</ele>
        <time>2018-04-15T14:54:28Z</time>
      </trkpt>
      <trkpt lat="48.43393" lon="2.6432">
        <ele>101.2</ele>
        <time>2018-04-15T14:54:29Z</time>
      </trkpt>
      <trkpt lat="48.43395" lon="2.64315">
        <ele>101.3</ele>
        <time>2018-04-15T14:54:31Z</time>
      </trkpt>
      <trkpt lat="48.43398" lon="2.64312">
        <ele>101.3</ele>
        <time>2018-04-15T14:54:45Z</time>
      </trkpt>
      <trkpt lat="48.434" lon="2.64308">
        <ele>101.3</ele>
        <time>2018-04-15T14:54:48Z</time>
      </trkpt>
      <trkpt lat="48.43402" lon="2.64306">
        <ele>101.3</ele>
        <time>2018-04-15T14:54:51Z</time>
      </trkpt>
      <trkpt lat="48.43405" lon="2.64304">
        <ele>101.3</ele>
        <time>2018-04-15T14:54:57Z</time>
      </trkpt>
      <trkpt lat="48.43406" lon="2.64299">
        <ele>101.3</ele>
        <time>2018-04-15T14:55:00Z</time>
      </trkpt>
      <trkpt lat="48.43406" lon="2.64294">
        <ele>101.3</ele>
        <time>2018-04-15T14:55:03Z</time>
      </trkpt>
      <trkpt lat="48.43408" lon="2.64291">
        <ele>101.4</ele>
        <time>2018-04-15T14:55:06Z</time>
      </trkpt>
      <trkpt lat="48.43411" lon="2.64285">
        <ele>101.4</ele>
        <time>2018-04-15T14:55:08Z</time>
      </trkpt>
      <trkpt lat="48.43413" lon="2.64281">
        <ele>101.4</ele>
        <time>2018-04-15T14:55:10Z</time>
      </trkpt>
      <trkpt lat="48.43414" lon="2.64276">
        <ele>101.4</ele>
        <time>2018-04-15T14:55:13Z</time>
      </trkpt>
      <trkpt lat="48.43416" lon="2.64269">
        <ele>101.4</ele>
        <time>2018-04-15T14:55:15Z</time>
      </trkpt>
      <trkpt lat="48.43416" lon="2.64264">
        <ele>101.4</ele>
        <time>2018-04-15T14:55:18Z</time>
      </trkpt>
      <trkpt lat="48.43417" lon="2.6426">
        <ele>101.3</ele>
        <time>2018-04-15T14:55:19Z</time>
      </trkpt>
      <trkpt lat="48.43419" lon="2.64253">
        <ele>101.3</ele>
        <time>2018-04-15T14:55:21Z</time>
      </trkpt>
      <trkpt lat="48.4342" lon="2.64248">
        <ele>101.3</ele>
        <time>2018-04-15T14:55:23Z</time>
      </trkpt>
      <trkpt lat="48.43421" lon="2.64242">
        <ele>101.3</ele>
        <time>2018-04-15T14:55:25Z</time>
      </trkpt>
      <trkpt lat="48.43421" lon="2.64234">
        <ele>101.2</ele>
        <time>2018-04-15T14:55:27Z</time>
      </trkpt>
      <trkpt lat="48.43421" lon="2.6423">
        <ele>101.1</ele>
        <time>2018-04-15T14:55:28Z</time>
      </trkpt>
      <trkpt lat="48.43421" lon="2.64221">
        <ele>101</ele>
        <time>2018-04-15T14:55:30Z</time>
      </trkpt>
      <trkpt lat="48.43421" lon="2.64217">
        <ele>101</ele>
        <time>2018-04-15T14:55:31Z</time>
      </trkpt>
      <trkpt lat="48.43421" lon="2.64213">
        <ele>101.1</ele>
        <time>2018-04-15T14:55:32Z</time>
      </trkpt>
      <trkpt lat="48.43421" lon="2.64206">
        <ele>101.2</ele>
        <time>2018-04-15T14:55:33Z</time>
      </trkpt>
      <trkpt lat="48.43422" lon="2.64202">
        <ele>101.3</ele>
        <time>2018-04-15T14:55:34Z</time>
      </trkpt>
      <trkpt lat="48.43422" lon="2.64197">
        <ele>101.4</ele>
        <time>2018-04-15T14:55:35Z</time>
      </trkpt>
      <trkpt lat="48.43423" lon="2.6419">
        <ele>101.5</ele>
        <time>2018-04-15T14:55:37Z</time>
      </trkpt>
      <trkpt lat="48.43424" lon="2.64183">
        <ele>101.6</ele>
        <time>2018-04-15T14:55:39Z</time>
      </trkpt>
      <trkpt lat="48.43424" lon="2.64177">
        <ele>101.7</ele>
        <time>2018-04-15T14:55:41Z</time>
      </trkpt>
      <trkpt lat="48.43425" lon="2.64173">
        <ele>101.8</ele>
        <time>2018-04-15T14:55:42Z</time>
      </trkpt>
      <trkpt lat="48.43425" lon="2.64167">
        <ele>101.9</ele>
        <time>2018-04-15T14:55:44Z</time>
      </trkpt>
      <trkpt lat="48.43423" lon="2.64163">
        <ele>101.7</ele>
        <time>2018-04-15T14:55:47Z</time>
      </trkpt>
      <trkpt lat="48.4342" lon="2.6416">
        <ele>101.5</ele>
        <time>2018-04-15T14:55:50Z</time>
      </trkpt>
      <trkpt lat="48.43416" lon="2.64157">
        <ele>101.4</ele>
        <time>2018-04-15T14:55:52Z</time>
      </trkpt>
      <trkpt lat="48.43411" lon="2.64154">
        <ele>101.2</ele>
        <time>2018-04-15T14:55:54Z</time>
      </trkpt>
      <trkpt lat="48.43408" lon="2.64152">
        <ele>101</ele>
        <time>2018-04-15T14:55:55Z</time>
      </trkpt>
      <trkpt lat="48.43405" lon="2.64151">
        <ele>100.9</ele>
        <time>2018-04-15T14:55:56Z</time>
      </trkpt>
      <trkpt lat="48.43402" lon="2.6415">
        <ele>100.7</ele>
        <time>2018-04-15T14:55:57Z</time>
      </trkpt>
      <trkpt lat="48.43398" lon="2.64149">
        <ele>100.6</ele>
        <time>2018-04-15T14:55:58Z</time>
      </trkpt>
      <trkpt lat="48.43395" lon="2.64149">
        <ele>100.4</ele>
        <time>2018-04-15T14:55:59Z</time>
      </trkpt>
      <trkpt lat="48.4339" lon="2.64149">
        <ele>100.2</ele>
        <time>2018-04-15T14:56:00Z</time>
      </trkpt>
      <trkpt lat="48.43386" lon="2.6415">
        <ele>99.9</ele>
        <time>2018-04-15T14:56:01Z</time>
      </trkpt>
      <trkpt lat="48.43382" lon="2.64152">
        <ele>99.7</ele>
        <time>2018-04-15T14:56:02Z</time>
      </trkpt>
      <trkpt lat="48.43377" lon="2.64154">
        <ele>99.4</ele>
        <time>2018-04-15T14:56:03Z</time>
      </trkpt>
      <trkpt lat="48.43372" lon="2.64156">
        <ele>99</ele>
        <time>2018-04-15T14:56:04Z</time>
      </trkpt>
      <trkpt lat="48.43368" lon="2.64157">
        <ele>98.2</ele>
        <time>2018-04-15T14:56:05Z</time>
      </trkpt>
      <trkpt lat="48.43365" lon="2.6416">
        <ele>98.2</ele>
        <time>2018-04-15T14:56:06Z</time>
      </trkpt>
      <trkpt lat="48.43362" lon="2.64163">
        <ele>98.2</ele>
        <time>2018-04-15T14:56:07Z</time>
      </trkpt>
      <trkpt lat="48.43359" lon="2.64165">
        <ele>98.2</ele>
        <time>2018-04-15T14:56:08Z</time>
      </trkpt>
      <trkpt lat="48.43356" lon="2.64167">
        <ele>98.2</ele>
        <time>2018-04-15T14:56:09Z</time>
      </trkpt>
      <trkpt lat="48.43352" lon="2.6417">
        <ele>98.2</ele>
        <time>2018-04-15T14:56:10Z</time>
      </trkpt>
      <trkpt lat="48.4335" lon="2.64171">
        <ele>98.2</ele>
        <time>2018-04-15T14:56:11Z</time>
      </trkpt>
      <trkpt lat="48.43346" lon="2.64173">
        <ele>98.3</ele>
        <time>2018-04-15T14:56:12Z</time>
      </trkpt>
      <trkpt lat="48.43343" lon="2.64174">
        <ele>98.3</ele>
        <time>2018-04-15T14:56:13Z</time>
      </trkpt>
      <trkpt lat="48.4334" lon="2.64176">
        <ele>98.3</ele>
        <time>2018-04-15T14:56:14Z</time>
      </trkpt>
      <trkpt lat="48.43337" lon="2.64178">
        <ele>98.3</ele>
        <time>2018-04-15T14:56:15Z</time>
      </trkpt>
      <trkpt lat="48.43334" lon="2.64179">
        <ele>98.3</ele>
        <time>2018-04-15T14:56:16Z</time>
      </trkpt>
      <trkpt lat="48.4333" lon="2.6418">
        <ele>98.4</ele>
        <time>2018-04-15T14:56:18Z</time>
      </trkpt>
      <trkpt lat="48.43326" lon="2.64182">
        <ele>98.4</ele>
        <time>2018-04-15T14:56:20Z</time>
      </trkpt>
      <trkpt lat="48.43323" lon="2.64183">
        <ele>98.4</ele>
        <time>2018-04-15T14:56:21Z</time>
      </trkpt>
      <trkpt lat="48.43321" lon="2.64186">
        <ele>98.4</ele>
        <time>2018-04-15T14:56:22Z</time>
      </trkpt>
      <trkpt lat="48.43317" lon="2.64189">
        <ele>98.3</ele>
        <time>2018-04-15T14:56:23Z</time>
      </trkpt>
      <trkpt lat="48.43313" lon="2.6419">
        <ele>98.4</ele>
        <time>2018-04-15T14:56:25Z</time>
      </trkpt>
      <trkpt lat="48.4331" lon="2.64191">
        <ele>98.5</ele>
        <time>2018-04-15T14:56:27Z</time>
      </trkpt>
      <trkpt lat="48.43306" lon="2.64192">
        <ele>98.5</ele>
        <time>2018-04-15T14:56:29Z</time>
      </trkpt>
      <trkpt lat="48.43304" lon="2.64191">
        <ele>98.7</ele>
        <time>2018-04-15T14:56:34Z</time>
      </trkpt>
      <trkpt lat="48.43299" lon="2.64188">
        <ele>98.7</ele>
        <time>2018-04-15T14:56:36Z</time>
      </trkpt>
      <trkpt lat="48.43296" lon="2.64186">
        <ele>98.9</ele>
        <time>2018-04-15T14:56:37Z</time>
      </trkpt>
      <trkpt lat="48.43291" lon="2.64181">
        <ele>99</ele>
        <time>2018-04-15T14:56:39Z</time>
      </trkpt>
      <trkpt lat="48.43289" lon="2.64178">
        <ele>99</ele>
        <time>2018-04-15T14:56:40Z</time>
      </trkpt>
      <trkpt lat="48.43285" lon="2.64173">
        <ele>99.1</ele>
        <time>2018-04-15T14:56:41Z</time>
      </trkpt>
      <trkpt lat="48.43282" lon="2.64169">
        <ele>99.1</ele>
        <time>2018-04-15T14:56:42Z</time>
      </trkpt>
      <trkpt lat="48.43281" lon="2.64164">
        <ele>99.2</ele>
        <time>2018-04-15T14:56:43Z</time>
      </trkpt>
      <trkpt lat="48.43278" lon="2.64159">
        <ele>99.2</ele>
        <time>2018-04-15T14:56:44Z</time>
      </trkpt>
      <trkpt lat="48.43277" lon="2.64155">
        <ele>99.2</ele>
        <time>2018-04-15T14:56:45Z</time>
      </trkpt>
      <trkpt lat="48.43276" lon="2.64145">
        <ele>99.2</ele>
        <time>2018-04-15T14:56:48Z</time>
      </trkpt>
      <trkpt lat="48.43277" lon="2.64139">
        <ele>99.1</ele>
        <time>2018-04-15T14:56:49Z</time>
      </trkpt>
      <trkpt lat="48.43278" lon="2.64134">
        <ele>99.1</ele>
        <time>2018-04-15T14:56:50Z</time>
      </trkpt>
      <trkpt lat="48.43279" lon="2.64129">
        <ele>99.1</ele>
        <time>2018-04-15T14:56:51Z</time>
      </trkpt>
      <trkpt lat="48.43281" lon="2.64124">
        <ele>99.1</ele>
        <time>2018-04-15T14:56:53Z</time>
      </trkpt>
      <trkpt lat="48.43284" lon="2.64119">
        <ele>99.1</ele>
        <time>2018-04-15T14:56:55Z</time>
      </trkpt>
      <trkpt lat="48.43285" lon="2.64115">
        <ele>99.1</ele>
        <time>2018-04-15T14:56:56Z</time>
      </trkpt>
      <trkpt lat="48.43286" lon="2.6411">
        <ele>99.1</ele>
        <time>2018-04-15T14:56:57Z</time>
      </trkpt>
      <trkpt lat="48.43287" lon="2.64103">
        <ele>99.1</ele>
        <time>2018-04-15T14:57:00Z</time>
      </trkpt>
      <trkpt lat="48.43287" lon="2.64098">
        <ele>99.1</ele>
        <time>2018-04-15T14:57:01Z</time>
      </trkpt>
      <trkpt lat="48.43289" lon="2.64093">
        <ele>99.2</ele>
        <time>2018-04-15T14:57:02Z</time>
      </trkpt>
      <trkpt lat="48.43292" lon="2.64089">
        <ele>99.2</ele>
        <time>2018-04-15T14:57:03Z</time>
      </trkpt>
      <trkpt lat="48.43295" lon="2.64084">
        <ele>99.3</ele>
        <time>2018-04-15T14:57:04Z</time>
      </trkpt>
      <trkpt lat="48.43297" lon="2.64081">
        <ele>99.3</ele>
        <time>2018-04-15T14:57:05Z</time>
      </trkpt>
      <trkpt lat="48.433" lon="2.64079">
        <ele>99.3</ele>
        <time>2018-04-15T14:57:06Z</time>
      </trkpt>
      <trkpt lat="48.43305" lon="2.64077">
        <ele>99.3</ele>
        <time>2018-04-15T14:57:08Z</time>
      </trkpt>
      <trkpt lat="48.4331" lon="2.64079">
        <ele>99.2</ele>
        <time>2018-04-15T14:57:09Z</time>
      </trkpt>
      <trkpt lat="48.43314" lon="2.64081">
        <ele>99.2</ele>
        <time>2018-04-15T14:57:10Z</time>
      </trkpt>
      <trkpt lat="48.43317" lon="2.64084">
        <ele>99.1</ele>
        <time>2018-04-15T14:57:11Z</time>
      </trkpt>
      <trkpt lat="48.43321" lon="2.64086">
        <ele>99</ele>
        <time>2018-04-15T14:57:12Z</time>
      </trkpt>
      <trkpt lat="48.43325" lon="2.64089">
        <ele>98.8</ele>
        <time>2018-04-15T14:57:13Z</time>
      </trkpt>
      <trkpt lat="48.43329" lon="2.64092">
        <ele>98.6</ele>
        <time>2018-04-15T14:57:14Z</time>
      </trkpt>
      <trkpt lat="48.43332" lon="2.64094">
        <ele>98.5</ele>
        <time>2018-04-15T14:57:15Z</time>
      </trkpt>
      <trkpt lat="48.43334" lon="2.64098">
        <ele>98.3</ele>
        <time>2018-04-15T14:57:16Z</time>
      </trkpt>
      <trkpt lat="48.43337" lon="2.64102">
        <ele>98.2</ele>
        <time>2018-04-15T14:57:17Z</time>
      </trkpt>
      <trkpt lat="48.43339" lon="2.64106">
        <ele>98.1</ele>
        <time>2018-04-15T14:57:18Z</time>
      </trkpt>
      <trkpt lat="48.43342" lon="2.64109">
        <ele>98.1</ele>
        <time>2018-04-15T14:57:19Z</time>
      </trkpt>
      <trkpt lat="48.43345" lon="2.64112">
        <ele>98.1</ele>
        <time>2018-04-15T14:57:20Z</time>
      </trkpt>
      <trkpt lat="48.43349" lon="2.64115">
        <ele>98.1</ele>
        <time>2018-04-15T14:57:21Z</time>
      </trkpt>
      <trkpt lat="48.43352" lon="2.64118">
        <ele>98.1</ele>
        <time>2018-04-15T14:57:22Z</time>
      </trkpt>
      <trkpt lat="48.43354" lon="2.64121">
        <ele>98</ele>
        <time>2018-04-15T14:57:23Z</time>
      </trkpt>
      <trkpt lat="48.43356" lon="2.64126">
        <ele>98</ele>
        <time>2018-04-15T14:57:24Z</time>
      </trkpt>
      <trkpt lat="48.43358" lon="2.64131">
        <ele>98</ele>
        <time>2018-04-15T14:57:25Z</time>
      </trkpt>
      <trkpt lat="48.43359" lon="2.64136">
        <ele>98</ele>
        <time>2018-04-15T14:57:26Z</time>
      </trkpt>
      <trkpt lat="48.43359" lon="2.64141">
        <ele>98</ele>
        <time>2018-04-15T14:57:27Z</time>
      </trkpt>
      <trkpt lat="48.4336" lon="2.64148">
        <ele>98.1</ele>
        <time>2018-04-15T14:57:29Z</time>
      </trkpt>
      <trkpt lat="48.4336" lon="2.64153">
        <ele>98.2</ele>
        <time>2018-04-15T14:57:30Z</time>
      </trkpt>
      <trkpt lat="48.4336" lon="2.64158">
        <ele>98.2</ele>
        <time>2018-04-15T14:57:31Z</time>
      </trkpt>
      <trkpt lat="48.43361" lon="2.64164">
        <ele>98.2</ele>
        <time>2018-04-15T14:57:32Z</time>
      </trkpt>
      <trkpt lat="48.43361" lon="2.64169">
        <ele>98.2</ele>
        <time>2018-04-15T14:57:33Z</time>
      </trkpt>
      <trkpt lat="48.43362" lon="2.64176">
        <ele>98.3</ele>
        <time>2018-04-15T14:57:34Z</time>
      </trkpt>
      <trkpt lat="48.43363" lon="2.64183">
        <ele>98.3</ele>
        <time>2018-04-15T14:57:35Z</time>
      </trkpt>
      <trkpt lat="48.43364" lon="2.6419">
        <ele>98.4</ele>
        <time>2018-04-15T14:57:36Z</time>
      </trkpt>
      <trkpt lat="48.43364" lon="2.64196">
        <ele>98.4</ele>
        <time>2018-04-15T14:57:37Z</time>
      </trkpt>
      <trkpt lat="48.43365" lon="2.64202">
        <ele>98.4</ele>
        <time>2018-04-15T14:57:38Z</time>
      </trkpt>
      <trkpt lat="48.43366" lon="2.64209">
        <ele>98.5</ele>
        <time>2018-04-15T14:57:39Z</time>
      </trkpt>
      <trkpt lat="48.43367" lon="2.64218">
        <ele>98.5</ele>
        <time>2018-04-15T14:57:40Z</time>
      </trkpt>
      <trkpt lat="48.43367" lon="2.64224">
        <ele>98.5</ele>
        <time>2018-04-15T14:57:41Z</time>
      </trkpt>
      <trkpt lat="48.43368" lon="2.64232">
        <ele>98.6</ele>
        <time>2018-04-15T14:57:42Z</time>
      </trkpt>
      <trkpt lat="48.43368" lon="2.64239">
        <ele>98.6</ele>
        <time>2018-04-15T14:57:43Z</time>
      </trkpt>
      <trkpt lat="48.43368" lon="2.64246">
        <ele>98.7</ele>
        <time>2018-04-15T14:57:44Z</time>
      </trkpt>
      <trkpt lat="48.43368" lon="2.6425">
        <ele>98.7</ele>
        <time>2018-04-15T14:57:45Z</time>
      </trkpt>
      <trkpt lat="48.43368" lon="2.64256">
        <ele>98.7</ele>
        <time>2018-04-15T14:57:46Z</time>
      </trkpt>
      <trkpt lat="48.43368" lon="2.64262">
        <ele>98.7</ele>
        <time>2018-04-15T14:57:47Z</time>
      </trkpt>
      <trkpt lat="48.43368" lon="2.64268">
        <ele>98.8</ele>
        <time>2018-04-15T14:57:48Z</time>
      </trkpt>
      <trkpt lat="48.43368" lon="2.64274">
        <ele>98.8</ele>
        <time>2018-04-15T14:57:49Z</time>
      </trkpt>
      <trkpt lat="48.43369" lon="2.6428">
        <ele>98.8</ele>
        <time>2018-04-15T14:57:50Z</time>
      </trkpt>
      <trkpt lat="48.43369" lon="2.64284">
        <ele>98.9</ele>
        <time>2018-04-15T14:57:51Z</time>
      </trkpt>
      <trkpt lat="48.43369" lon="2.64292">
        <ele>98.9</ele>
        <time>2018-04-15T14:57:53Z</time>
      </trkpt>
      <trkpt lat="48.43368" lon="2.64298">
        <ele>98.9</ele>
        <time>2018-04-15T14:57:54Z</time>
      </trkpt>
      <trkpt lat="48.43368" lon="2.64305">
        <ele>99</ele>
        <time>2018-04-15T14:57:55Z</time>
      </trkpt>
      <trkpt lat="48.43368" lon="2.64312">
        <ele>99</ele>
        <time>2018-04-15T14:57:56Z</time>
      </trkpt>
      <trkpt lat="48.43368" lon="2.64317">
        <ele>99</ele>
        <time>2018-04-15T14:57:57Z</time>
      </trkpt>
      <trkpt lat="48.43367" lon="2.64322">
        <ele>99</ele>
        <time>2018-04-15T14:57:58Z</time>
      </trkpt>
      <trkpt lat="48.43367" lon="2.64327">
        <ele>99.1</ele>
        <time>2018-04-15T14:57:59Z</time>
      </trkpt>
      <trkpt lat="48.43367" lon="2.64333">
        <ele>99.1</ele>
        <time>2018-04-15T14:58:00Z</time>
      </trkpt>
      <trkpt lat="48.43367" lon="2.64339">
        <ele>99.2</ele>
        <time>2018-04-15T14:58:01Z</time>
      </trkpt>
      <trkpt lat="48.43368" lon="2.64347">
        <ele>99.2</ele>
        <time>2018-04-15T14:58:03Z</time>
      </trkpt>
      <trkpt lat="48.43368" lon="2.64351">
        <ele>99.2</ele>
        <time>2018-04-15T14:58:04Z</time>
      </trkpt>
      <trkpt lat="48.43369" lon="2.64357">
        <ele>99.3</ele>
        <time>2018-04-15T14:58:05Z</time>
      </trkpt>
      <trkpt lat="48.43369" lon="2.64364">
        <ele>99.3</ele>
        <time>2018-04-15T14:58:06Z</time>
      </trkpt>
      <trkpt lat="48.43369" lon="2.6437">
        <ele>99.4</ele>
        <time>2018-04-15T14:58:07Z</time>
      </trkpt>
      <trkpt lat="48.4337" lon="2.64375">
        <ele>99.4</ele>
        <time>2018-04-15T14:58:08Z</time>
      </trkpt>
      <trkpt lat="48.4337" lon="2.64382">
        <ele>99.5</ele>
        <time>2018-04-15T14:58:09Z</time>
      </trkpt>
      <trkpt lat="48.43371" lon="2.64387">
        <ele>99.6</ele>
        <time>2018-04-15T14:58:10Z</time>
      </trkpt>
      <trkpt lat="48.43372" lon="2.64392">
        <ele>99.7</ele>
        <time>2018-04-15T14:58:11Z</time>
      </trkpt>
      <trkpt lat="48.43372" lon="2.64397">
        <ele>99.8</ele>
        <time>2018-04-15T14:58:12Z</time>
      </trkpt>
      <trkpt lat="48.4337" lon="2.64403">
        <ele>99.9</ele>
        <time>2018-04-15T14:58:13Z</time>
      </trkpt>
      <trkpt lat="48.43368" lon="2.64408">
        <ele>100</ele>
        <time>2018-04-15T14:58:14Z</time>
      </trkpt>
      <trkpt lat="48.43366" lon="2.64414">
        <ele>100.2</ele>
        <time>2018-04-15T14:58:15Z</time>
      </trkpt>
      <trkpt lat="48.43364" lon="2.64418">
        <ele>100.3</ele>
        <time>2018-04-15T14:58:16Z</time>
      </trkpt>
      <trkpt lat="48.43362" lon="2.64421">
        <ele>100.5</ele>
        <time>2018-04-15T14:58:17Z</time>
      </trkpt>
      <trkpt lat="48.4336" lon="2.64426">
        <ele>100.7</ele>
        <time>2018-04-15T14:58:18Z</time>
      </trkpt>
      <trkpt lat="48.43358" lon="2.64432">
        <ele>101</ele>
        <time>2018-04-15T14:58:19Z</time>
      </trkpt>
      <trkpt lat="48.43355" lon="2.64436">
        <ele>101.1</ele>
        <time>2018-04-15T14:58:20Z</time>
      </trkpt>
      <trkpt lat="48.43353" lon="2.6444">
        <ele>101.3</ele>
        <time>2018-04-15T14:58:21Z</time>
      </trkpt>
      <trkpt lat="48.43351" lon="2.64443">
        <ele>101.4</ele>
        <time>2018-04-15T14:58:22Z</time>
      </trkpt>
      <trkpt lat="48.43348" lon="2.64447">
        <ele>101.6</ele>
        <time>2018-04-15T14:58:24Z</time>
      </trkpt>
      <trkpt lat="48.43346" lon="2.64451">
        <ele>101.8</ele>
        <time>2018-04-15T14:58:25Z</time>
      </trkpt>
      <trkpt lat="48.43344" lon="2.64454">
        <ele>101.9</ele>
        <time>2018-04-15T14:58:26Z</time>
      </trkpt>
      <trkpt lat="48.43341" lon="2.64457">
        <ele>102.1</ele>
        <time>2018-04-15T14:58:27Z</time>
      </trkpt>
      <trkpt lat="48.43338" lon="2.64461">
        <ele>102.3</ele>
        <time>2018-04-15T14:58:28Z</time>
      </trkpt>
      <trkpt lat="48.43334" lon="2.64465">
        <ele>102.5</ele>
        <time>2018-04-15T14:58:29Z</time>
      </trkpt>
      <trkpt lat="48.4333" lon="2.6447">
        <ele>102.8</ele>
        <time>2018-04-15T14:58:31Z</time>
      </trkpt>
      <trkpt lat="48.43327" lon="2.64473">
        <ele>103</ele>
        <time>2018-04-15T14:58:32Z</time>
      </trkpt>
      <trkpt lat="48.43325" lon="2.64476">
        <ele>103.1</ele>
        <time>2018-04-15T14:58:33Z</time>
      </trkpt>
      <trkpt lat="48.43323" lon="2.64479">
        <ele>103.3</ele>
        <time>2018-04-15T14:58:34Z</time>
      </trkpt>
      <trkpt lat="48.43318" lon="2.64484">
        <ele>103.7</ele>
        <time>2018-04-15T14:58:36Z</time>
      </trkpt>
      <trkpt lat="48.43313" lon="2.64488">
        <ele>104</ele>
        <time>2018-04-15T14:58:37Z</time>
      </trkpt>
      <trkpt lat="48.43309" lon="2.64491">
        <ele>104.4</ele>
        <time>2018-04-15T14:58:38Z</time>
      </trkpt>
      <trkpt lat="48.43305" lon="2.64493">
        <ele>104.8</ele>
        <time>2018-04-15T14:58:39Z</time>
      </trkpt>
      <trkpt lat="48.43302" lon="2.64496">
        <ele>105.2</ele>
        <time>2018-04-15T14:58:40Z</time>
      </trkpt>
      <trkpt lat="48.43297" lon="2.64499">
        <ele>105.6</ele>
        <time>2018-04-15T14:58:41Z</time>
      </trkpt>
      <trkpt lat="48.43294" lon="2.64501">
        <ele>106</ele>
        <time>2018-04-15T14:58:42Z</time>
      </trkpt>
      <trkpt lat="48.43291" lon="2.64504">
        <ele>106.3</ele>
        <time>2018-04-15T14:58:43Z</time>
      </trkpt>
      <trkpt lat="48.43288" lon="2.64506">
        <ele>106.6</ele>
        <time>2018-04-15T14:58:44Z</time>
      </trkpt>
      <trkpt lat="48.43285" lon="2.64509">
        <ele>107.1</ele>
        <time>2018-04-15T14:58:45Z</time>
      </trkpt>
      <trkpt lat="48.43281" lon="2.64511">
        <ele>107.4</ele>
        <time>2018-04-15T14:58:46Z</time>
      </trkpt>
      <trkpt lat="48.43279" lon="2.64514">
        <ele>107.7</ele>
        <time>2018-04-15T14:58:47Z</time>
      </trkpt>
      <trkpt lat="48.43277" lon="2.64518">
        <ele>107.9</ele>
        <time>2018-04-15T14:58:48Z</time>
      </trkpt>
      <trkpt lat="48.43275" lon="2.6452">
        <ele>108.2</ele>
        <time>2018-04-15T14:58:49Z</time>
      </trkpt>
      <trkpt lat="48.43272" lon="2.64521">
        <ele>108.5</ele>
        <time>2018-04-15T14:58:50Z</time>
      </trkpt>
      <trkpt lat="48.43269" lon="2.64523">
        <ele>108.7</ele>
        <time>2018-04-15T14:58:51Z</time>
      </trkpt>
      <trkpt lat="48.43267" lon="2.64525">
        <ele>109</ele>
        <time>2018-04-15T14:58:52Z</time>
      </trkpt>
      <trkpt lat="48.43264" lon="2.64527">
        <ele>109.2</ele>
        <time>2018-04-15T14:58:53Z</time>
      </trkpt>
      <trkpt lat="48.43259" lon="2.64531">
        <ele>109.7</ele>
        <time>2018-04-15T14:58:55Z</time>
      </trkpt>
      <trkpt lat="48.43257" lon="2.64533">
        <ele>110</ele>
        <time>2018-04-15T14:58:56Z</time>
      </trkpt>
      <trkpt lat="48.43254" lon="2.64536">
        <ele>109.7</ele>
        <time>2018-04-15T14:58:57Z</time>
      </trkpt>
      <trkpt lat="48.43251" lon="2.64542">
        <ele>108.9</ele>
        <time>2018-04-15T14:58:59Z</time>
      </trkpt>
      <trkpt lat="48.43249" lon="2.64546">
        <ele>108.5</ele>
        <time>2018-04-15T14:59:01Z</time>
      </trkpt>
      <trkpt lat="48.43247" lon="2.6455">
        <ele>108.2</ele>
        <time>2018-04-15T14:59:03Z</time>
      </trkpt>
      <trkpt lat="48.43246" lon="2.64554">
        <ele>107.9</ele>
        <time>2018-04-15T14:59:05Z</time>
      </trkpt>
      <trkpt lat="48.43244" lon="2.64558">
        <ele>107.6</ele>
        <time>2018-04-15T14:59:07Z</time>
      </trkpt>
      <trkpt lat="48.43243" lon="2.64563">
        <ele>107.4</ele>
        <time>2018-04-15T14:59:10Z</time>
      </trkpt>
      <trkpt lat="48.43243" lon="2.64568">
        <ele>107.1</ele>
        <time>2018-04-15T14:59:13Z</time>
      </trkpt>
      <trkpt lat="48.43244" lon="2.64573">
        <ele>106.8</ele>
        <time>2018-04-15T14:59:20Z</time>
      </trkpt>
      <trkpt lat="48.43244" lon="2.64578">
        <ele>106.6</ele>
        <time>2018-04-15T14:59:35Z</time>
      </trkpt>
      <trkpt lat="48.43244" lon="2.64584">
        <ele>106.3</ele>
        <time>2018-04-15T14:59:38Z</time>
      </trkpt>
      <trkpt lat="48.43243" lon="2.64589">
        <ele>106.1</ele>
        <time>2018-04-15T14:59:40Z</time>
      </trkpt>
      <trkpt lat="48.43243" lon="2.64594">
        <ele>105.9</ele>
        <time>2018-04-15T14:59:42Z</time>
      </trkpt>
      <trkpt lat="48.43242" lon="2.646">
        <ele>105.6</ele>
        <time>2018-04-15T14:59:44Z</time>
      </trkpt>
      <trkpt lat="48.43241" lon="2.64607">
        <ele>105.3</ele>
        <time>2018-04-15T14:59:46Z</time>
      </trkpt>
      <trkpt lat="48.43241" lon="2.64613">
        <ele>105.1</ele>
        <time>2018-04-15T14:59:48Z</time>
      </trkpt>
      <trkpt lat="48.43239" lon="2.64621">
        <ele>107.1</ele>
        <time>2018-04-15T14:59:50Z</time>
      </trkpt>
      <trkpt lat="48.43238" lon="2.64626">
        <ele>108.7</ele>
        <time>2018-04-15T14:59:51Z</time>
      </trkpt>
      <trkpt lat="48.43237" lon="2.64635">
        <ele>108.6</ele>
        <time>2018-04-15T14:59:53Z</time>
      </trkpt>
      <trkpt lat="48.43235" lon="2.64639">
        <ele>108.5</ele>
        <time>2018-04-15T14:59:54Z</time>
      </trkpt>
      <trkpt lat="48.43233" lon="2.64643">
        <ele>108.4</ele>
        <time>2018-04-15T14:59:55Z</time>
      </trkpt>
      <trkpt lat="48.43232" lon="2.64647">
        <ele>108.3</ele>
        <time>2018-04-15T14:59:56Z</time>
      </trkpt>
      <trkpt lat="48.43231" lon="2.64653">
        <ele>108.2</ele>
        <time>2018-04-15T14:59:58Z</time>
      </trkpt>
      <trkpt lat="48.43227" lon="2.64662">
        <ele>108</ele>
        <time>2018-04-15T15:00:00Z</time>
      </trkpt>
      <trkpt lat="48.43225" lon="2.64667">
        <ele>107.8</ele>
        <time>2018-04-15T15:00:01Z</time>
      </trkpt>
      <trkpt lat="48.43223" lon="2.64671">
        <ele>107.7</ele>
        <time>2018-04-15T15:00:02Z</time>
      </trkpt>
      <trkpt lat="48.43222" lon="2.64675">
        <ele>107.6</ele>
        <time>2018-04-15T15:00:03Z</time>
      </trkpt>
      <trkpt lat="48.4322" lon="2.6468">
        <ele>107.5</ele>
        <time>2018-04-15T15:00:04Z</time>
      </trkpt>
      <trkpt lat="48.43218" lon="2.64683">
        <ele>107.5</ele>
        <time>2018-04-15T15:00:05Z</time>
      </trkpt>
      <trkpt lat="48.43216" lon="2.64688">
        <ele>107.4</ele>
        <time>2018-04-15T15:00:06Z</time>
      </trkpt>
      <trkpt lat="48.43214" lon="2.64693">
        <ele>107.3</ele>
        <time>2018-04-15T15:00:07Z</time>
      </trkpt>
      <trkpt lat="48.43212" lon="2.64699">
        <ele>107.2</ele>
        <time>2018-04-15T15:00:09Z</time>
      </trkpt>
      <trkpt lat="48.4321" lon="2.64704">
        <ele>107.1</ele>
        <time>2018-04-15T15:00:11Z</time>
      </trkpt>
      <trkpt lat="48.43208" lon="2.64707">
        <ele>107</ele>
        <time>2018-04-15T15:00:13Z</time>
      </trkpt>
      <trkpt lat="48.43207" lon="2.64711">
        <ele>106.8</ele>
        <time>2018-04-15T15:00:15Z</time>
      </trkpt>
      <trkpt lat="48.43204" lon="2.64714">
        <ele>106.6</ele>
        <time>2018-04-15T15:00:20Z</time>
      </trkpt>
      <trkpt lat="48.43202" lon="2.64718">
        <ele>106.4</ele>
        <time>2018-04-15T15:00:36Z</time>
      </trkpt>
      <trkpt lat="48.432" lon="2.64719">
        <ele>106.3</ele>
        <time>2018-04-15T15:00:39Z</time>
      </trkpt>
      <trkpt lat="48.43197" lon="2.64723">
        <ele>106.1</ele>
        <time>2018-04-15T15:00:47Z</time>
      </trkpt>
      <trkpt lat="48.43195" lon="2.64728">
        <ele>105.9</ele>
        <time>2018-04-15T15:00:50Z</time>
      </trkpt>
      <trkpt lat="48.43192" lon="2.64731">
        <ele>105.7</ele>
        <time>2018-04-15T15:00:52Z</time>
      </trkpt>
      <trkpt lat="48.4319" lon="2.64732">
        <ele>105.6</ele>
        <time>2018-04-15T15:01:07Z</time>
      </trkpt>
      <trkpt lat="48.43188" lon="2.64737">
        <ele>105.3</ele>
        <time>2018-04-15T15:01:13Z</time>
      </trkpt>
      <trkpt lat="48.43187" lon="2.64741">
        <ele>105.1</ele>
        <time>2018-04-15T15:01:15Z</time>
      </trkpt>
      <trkpt lat="48.43185" lon="2.64744">
        <ele>104.9</ele>
        <time>2018-04-15T15:01:17Z</time>
      </trkpt>
      <trkpt lat="48.43183" lon="2.64749">
        <ele>104.7</ele>
        <time>2018-04-15T15:01:19Z</time>
      </trkpt>
      <trkpt lat="48.43181" lon="2.64754">
        <ele>104.4</ele>
        <time>2018-04-15T15:01:22Z</time>
      </trkpt>
      <trkpt lat="48.43179" lon="2.64759">
        <ele>104.2</ele>
        <time>2018-04-15T15:01:25Z</time>
      </trkpt>
      <trkpt lat="48.43176" lon="2.64763">
        <ele>104.1</ele>
        <time>2018-04-15T15:01:27Z</time>
      </trkpt>
      <trkpt lat="48.43175" lon="2.64767">
        <ele>103.9</ele>
        <time>2018-04-15T15:01:30Z</time>
      </trkpt>
      <trkpt lat="48.43172" lon="2.64772">
        <ele>103.8</ele>
        <time>2018-04-15T15:01:32Z</time>
      </trkpt>
      <trkpt lat="48.43169" lon="2.64774">
        <ele>103.7</ele>
        <time>2018-04-15T15:01:33Z</time>
      </trkpt>
      <trkpt lat="48.43167" lon="2.64777">
        <ele>103.6</ele>
        <time>2018-04-15T15:01:34Z</time>
      </trkpt>
      <trkpt lat="48.43162" lon="2.64782">
        <ele>103.4</ele>
        <time>2018-04-15T15:01:36Z</time>
      </trkpt>
      <trkpt lat="48.43159" lon="2.64784">
        <ele>103.3</ele>
        <time>2018-04-15T15:01:37Z</time>
      </trkpt>
      <trkpt lat="48.43155" lon="2.64787">
        <ele>103.2</ele>
        <time>2018-04-15T15:01:39Z</time>
      </trkpt>
      <trkpt lat="48.43152" lon="2.64789">
        <ele>103.1</ele>
        <time>2018-04-15T15:01:40Z</time>
      </trkpt>
      <trkpt lat="48.4315" lon="2.64791">
        <ele>103</ele>
        <time>2018-04-15T15:01:41Z</time>
      </trkpt>
      <trkpt lat="48.43147" lon="2.64794">
        <ele>103</ele>
        <time>2018-04-15T15:01:42Z</time>
      </trkpt>
      <trkpt lat="48.43142" lon="2.64798">
        <ele>102.8</ele>
        <time>2018-04-15T15:01:44Z</time>
      </trkpt>
      <trkpt lat="48.43138" lon="2.64802">
        <ele>102.7</ele>
        <time>2018-04-15T15:01:46Z</time>
      </trkpt>
      <trkpt lat="48.43134" lon="2.64807">
        <ele>102.6</ele>
        <time>2018-04-15T15:01:48Z</time>
      </trkpt>
      <trkpt lat="48.43132" lon="2.6481">
        <ele>102.5</ele>
        <time>2018-04-15T15:01:49Z</time>
      </trkpt>
      <trkpt lat="48.4313" lon="2.64814">
        <ele>102.4</ele>
        <time>2018-04-15T15:01:50Z</time>
      </trkpt>
      <trkpt lat="48.43125" lon="2.64818">
        <ele>102.3</ele>
        <time>2018-04-15T15:01:52Z</time>
      </trkpt>
      <trkpt lat="48.43121" lon="2.64819">
        <ele>102.2</ele>
        <time>2018-04-15T15:01:54Z</time>
      </trkpt>
      <trkpt lat="48.43118" lon="2.6482">
        <ele>102.1</ele>
        <time>2018-04-15T15:01:56Z</time>
      </trkpt>
      <trkpt lat="48.43115" lon="2.64819">
        <ele>102</ele>
        <time>2018-04-15T15:01:57Z</time>
      </trkpt>
      <trkpt lat="48.43112" lon="2.64817">
        <ele>101.9</ele>
        <time>2018-04-15T15:01:59Z</time>
      </trkpt>
      <trkpt lat="48.43109" lon="2.64814">
        <ele>101.6</ele>
        <time>2018-04-15T15:02:00Z</time>
      </trkpt>
      <trkpt lat="48.43105" lon="2.64808">
        <ele>101.4</ele>
        <time>2018-04-15T15:02:01Z</time>
      </trkpt>
      <trkpt lat="48.43102" lon="2.64801">
        <ele>101.2</ele>
        <time>2018-04-15T15:02:02Z</time>
      </trkpt>
      <trkpt lat="48.43099" lon="2.64794">
        <ele>100.9</ele>
        <time>2018-04-15T15:02:03Z</time>
      </trkpt>
      <trkpt lat="48.43097" lon="2.64788">
        <ele>101.1</ele>
        <time>2018-04-15T15:02:04Z</time>
      </trkpt>
      <trkpt lat="48.43095" lon="2.64783">
        <ele>101.2</ele>
        <time>2018-04-15T15:02:05Z</time>
      </trkpt>
      <trkpt lat="48.43094" lon="2.64779">
        <ele>101.2</ele>
        <time>2018-04-15T15:02:06Z</time>
      </trkpt>
      <trkpt lat="48.43092" lon="2.64775">
        <ele>101.3</ele>
        <time>2018-04-15T15:02:07Z</time>
      </trkpt>
      <trkpt lat="48.4309" lon="2.64769">
        <ele>101.4</ele>
        <time>2018-04-15T15:02:09Z</time>
      </trkpt>
      <trkpt lat="48.43088" lon="2.64763">
        <ele>101.5</ele>
        <time>2018-04-15T15:02:11Z</time>
      </trkpt>
      <trkpt lat="48.43086" lon="2.64759">
        <ele>101.6</ele>
        <time>2018-04-15T15:02:13Z</time>
      </trkpt>
      <trkpt lat="48.43085" lon="2.64754">
        <ele>101.7</ele>
        <time>2018-04-15T15:02:15Z</time>
      </trkpt>
      <trkpt lat="48.43084" lon="2.6475">
        <ele>101.8</ele>
        <time>2018-04-15T15:02:17Z</time>
      </trkpt>
      <trkpt lat="48.43082" lon="2.64744">
        <ele>102</ele>
        <time>2018-04-15T15:02:19Z</time>
      </trkpt>
      <trkpt lat="48.4308" lon="2.6474">
        <ele>102.1</ele>
        <time>2018-04-15T15:02:20Z</time>
      </trkpt>
      <trkpt lat="48.43078" lon="2.64737">
        <ele>102.2</ele>
        <time>2018-04-15T15:02:21Z</time>
      </trkpt>
      <trkpt lat="48.43075" lon="2.64729">
        <ele>102.4</ele>
        <time>2018-04-15T15:02:23Z</time>
      </trkpt>
      <trkpt lat="48.43074" lon="2.64726">
        <ele>102.4</ele>
        <time>2018-04-15T15:02:24Z</time>
      </trkpt>
      <trkpt lat="48.43072" lon="2.6472">
        <ele>102.6</ele>
        <time>2018-04-15T15:02:26Z</time>
      </trkpt>
      <trkpt lat="48.4307" lon="2.64716">
        <ele>102.7</ele>
        <time>2018-04-15T15:02:28Z</time>
      </trkpt>
      <trkpt lat="48.43068" lon="2.64713">
        <ele>102.8</ele>
        <time>2018-04-15T15:02:29Z</time>
      </trkpt>
      <trkpt lat="48.43066" lon="2.64709">
        <ele>103.1</ele>
        <time>2018-04-15T15:02:30Z</time>
      </trkpt>
      <trkpt lat="48.43062" lon="2.64704">
        <ele>103.8</ele>
        <time>2018-04-15T15:02:32Z</time>
      </trkpt>
      <trkpt lat="48.43059" lon="2.64699">
        <ele>104.4</ele>
        <time>2018-04-15T15:02:34Z</time>
      </trkpt>
      <trkpt lat="48.43056" lon="2.64695">
        <ele>104.9</ele>
        <time>2018-04-15T15:02:36Z</time>
      </trkpt>
      <trkpt lat="48.43053" lon="2.64691">
        <ele>105.2</ele>
        <time>2018-04-15T15:02:37Z</time>
      </trkpt>
      <trkpt lat="48.4305" lon="2.64686">
        <ele>105.5</ele>
        <time>2018-04-15T15:02:39Z</time>
      </trkpt>
      <trkpt lat="48.43046" lon="2.6468">
        <ele>105.7</ele>
        <time>2018-04-15T15:02:41Z</time>
      </trkpt>
      <trkpt lat="48.43044" lon="2.64677">
        <ele>105.9</ele>
        <time>2018-04-15T15:02:43Z</time>
      </trkpt>
      <trkpt lat="48.43041" lon="2.64672">
        <ele>106.1</ele>
        <time>2018-04-15T15:02:45Z</time>
      </trkpt>
      <trkpt lat="48.43039" lon="2.64669">
        <ele>106.2</ele>
        <time>2018-04-15T15:02:46Z</time>
      </trkpt>
      <trkpt lat="48.43036" lon="2.64666">
        <ele>106.4</ele>
        <time>2018-04-15T15:02:47Z</time>
      </trkpt>
      <trkpt lat="48.43034" lon="2.64663">
        <ele>106.5</ele>
        <time>2018-04-15T15:02:48Z</time>
      </trkpt>
      <trkpt lat="48.4303" lon="2.64659">
        <ele>106.7</ele>
        <time>2018-04-15T15:02:50Z</time>
      </trkpt>
      <trkpt lat="48.43027" lon="2.64654">
        <ele>106.9</ele>
        <time>2018-04-15T15:02:52Z</time>
      </trkpt>
      <trkpt lat="48.43021" lon="2.6465">
        <ele>107.1</ele>
        <time>2018-04-15T15:02:54Z</time>
      </trkpt>
      <trkpt lat="48.43017" lon="2.64649">
        <ele>107.3</ele>
        <time>2018-04-15T15:02:56Z</time>
      </trkpt>
      <trkpt lat="48.43013" lon="2.64648">
        <ele>107.4</ele>
        <time>2018-04-15T15:02:58Z</time>
      </trkpt>
      <trkpt lat="48.43009" lon="2.64647">
        <ele>107.6</ele>
        <time>2018-04-15T15:03:00Z</time>
      </trkpt>
      <trkpt lat="48.43006" lon="2.64645">
        <ele>107.7</ele>
        <time>2018-04-15T15:03:02Z</time>
      </trkpt>
      <trkpt lat="48.43003" lon="2.64644">
        <ele>107.8</ele>
        <time>2018-04-15T15:03:04Z</time>
      </trkpt>
      <trkpt lat="48.42999" lon="2.64644">
        <ele>108.2</ele>
        <time>2018-04-15T15:03:07Z</time>
      </trkpt>
      <trkpt lat="48.42996" lon="2.64642">
        <ele>108.6</ele>
        <time>2018-04-15T15:03:09Z</time>
      </trkpt>
      <trkpt lat="48.42993" lon="2.6464">
        <ele>109.2</ele>
        <time>2018-04-15T15:03:12Z</time>
      </trkpt>
      <trkpt lat="48.42988" lon="2.64638">
        <ele>110.1</ele>
        <time>2018-04-15T15:03:14Z</time>
      </trkpt>
      <trkpt lat="48.42985" lon="2.64638">
        <ele>110.7</ele>
        <time>2018-04-15T15:03:15Z</time>
      </trkpt>
      <trkpt lat="48.42982" lon="2.64635">
        <ele>111.3</ele>
        <time>2018-04-15T15:03:17Z</time>
      </trkpt>
      <trkpt lat="48.42978" lon="2.64632">
        <ele>112</ele>
        <time>2018-04-15T15:03:19Z</time>
      </trkpt>
      <trkpt lat="48.42974" lon="2.6463">
        <ele>112.4</ele>
        <time>2018-04-15T15:03:21Z</time>
      </trkpt>
      <trkpt lat="48.42971" lon="2.64628">
        <ele>112.7</ele>
        <time>2018-04-15T15:03:22Z</time>
      </trkpt>
      <trkpt lat="48.42969" lon="2.64626">
        <ele>113</ele>
        <time>2018-04-15T15:03:23Z</time>
      </trkpt>
      <trkpt lat="48.42966" lon="2.64624">
        <ele>113.3</ele>
        <time>2018-04-15T15:03:24Z</time>
      </trkpt>
      <trkpt lat="48.42962" lon="2.64622">
        <ele>113.9</ele>
        <time>2018-04-15T15:03:26Z</time>
      </trkpt>
      <trkpt lat="48.42959" lon="2.6462">
        <ele>115</ele>
        <time>2018-04-15T15:03:28Z</time>
      </trkpt>
      <trkpt lat="48.42955" lon="2.64619">
        <ele>116</ele>
        <time>2018-04-15T15:03:30Z</time>
      </trkpt>
      <trkpt lat="48.42952" lon="2.64618">
        <ele>116.6</ele>
        <time>2018-04-15T15:03:32Z</time>
      </trkpt>
      <trkpt lat="48.42948" lon="2.64617">
        <ele>117.2</ele>
        <time>2018-04-15T15:03:34Z</time>
      </trkpt>
      <trkpt lat="48.42945" lon="2.64616">
        <ele>117.6</ele>
        <time>2018-04-15T15:03:36Z</time>
      </trkpt>
      <trkpt lat="48.42942" lon="2.64615">
        <ele>117.8</ele>
        <time>2018-04-15T15:03:37Z</time>
      </trkpt>
      <trkpt lat="48.42938" lon="2.64615">
        <ele>118.1</ele>
        <time>2018-04-15T15:03:39Z</time>
      </trkpt>
      <trkpt lat="48.42936" lon="2.64614">
        <ele>118.3</ele>
        <time>2018-04-15T15:03:41Z</time>
      </trkpt>
      <trkpt lat="48.42933" lon="2.64612">
        <ele>118.6</ele>
        <time>2018-04-15T15:03:43Z</time>
      </trkpt>
      <trkpt lat="48.42929" lon="2.6461">
        <ele>118.9</ele>
        <time>2018-04-15T15:03:45Z</time>
      </trkpt>
      <trkpt lat="48.42926" lon="2.64608">
        <ele>119.3</ele>
        <time>2018-04-15T15:03:47Z</time>
      </trkpt>
      <trkpt lat="48.42923" lon="2.64606">
        <ele>119.6</ele>
        <time>2018-04-15T15:03:50Z</time>
      </trkpt>
      <trkpt lat="48.42919" lon="2.64602">
        <ele>119.8</ele>
        <time>2018-04-15T15:03:53Z</time>
      </trkpt>
      <trkpt lat="48.42917" lon="2.64599">
        <ele>120</ele>
        <time>2018-04-15T15:03:55Z</time>
      </trkpt>
      <trkpt lat="48.42914" lon="2.64597">
        <ele>120.2</ele>
        <time>2018-04-15T15:03:56Z</time>
      </trkpt>
      <trkpt lat="48.42911" lon="2.64594">
        <ele>120.4</ele>
        <time>2018-04-15T15:03:57Z</time>
      </trkpt>
      <trkpt lat="48.42907" lon="2.64589">
        <ele>120.9</ele>
        <time>2018-04-15T15:03:59Z</time>
      </trkpt>
      <trkpt lat="48.42905" lon="2.64584">
        <ele>121.3</ele>
        <time>2018-04-15T15:04:01Z</time>
      </trkpt>
      <trkpt lat="48.42903" lon="2.6458">
        <ele>121.6</ele>
        <time>2018-04-15T15:04:03Z</time>
      </trkpt>
      <trkpt lat="48.42901" lon="2.64577">
        <ele>122</ele>
        <time>2018-04-15T15:04:05Z</time>
      </trkpt>
      <trkpt lat="48.42898" lon="2.64571">
        <ele>122.5</ele>
        <time>2018-04-15T15:04:07Z</time>
      </trkpt>
      <trkpt lat="48.42895" lon="2.64565">
        <ele>123.1</ele>
        <time>2018-04-15T15:04:09Z</time>
      </trkpt>
      <trkpt lat="48.42892" lon="2.6456">
        <ele>123.7</ele>
        <time>2018-04-15T15:04:11Z</time>
      </trkpt>
      <trkpt lat="48.4289" lon="2.64556">
        <ele>124.3</ele>
        <time>2018-04-15T15:04:13Z</time>
      </trkpt>
      <trkpt lat="48.42888" lon="2.6455">
        <ele>124.9</ele>
        <time>2018-04-15T15:04:15Z</time>
      </trkpt>
      <trkpt lat="48.42886" lon="2.64545">
        <ele>125.5</ele>
        <time>2018-04-15T15:04:17Z</time>
      </trkpt>
      <trkpt lat="48.42885" lon="2.64541">
        <ele>125.8</ele>
        <time>2018-04-15T15:04:18Z</time>
      </trkpt>
      <trkpt lat="48.42884" lon="2.64537">
        <ele>126.2</ele>
        <time>2018-04-15T15:04:20Z</time>
      </trkpt>
      <trkpt lat="48.42881" lon="2.64531">
        <ele>126.8</ele>
        <time>2018-04-15T15:04:22Z</time>
      </trkpt>
      <trkpt lat="48.42877" lon="2.64527">
        <ele>127.3</ele>
        <time>2018-04-15T15:04:23Z</time>
      </trkpt>
      <trkpt lat="48.42875" lon="2.64522">
        <ele>127.7</ele>
        <time>2018-04-15T15:04:25Z</time>
      </trkpt>
      <trkpt lat="48.42874" lon="2.64517">
        <ele>128</ele>
        <time>2018-04-15T15:04:28Z</time>
      </trkpt>
      <trkpt lat="48.42872" lon="2.64513">
        <ele>128.2</ele>
        <time>2018-04-15T15:04:30Z</time>
      </trkpt>
      <trkpt lat="48.4287" lon="2.64508">
        <ele>128.5</ele>
        <time>2018-04-15T15:04:32Z</time>
      </trkpt>
      <trkpt lat="48.4287" lon="2.64504">
        <ele>128.7</ele>
        <time>2018-04-15T15:04:34Z</time>
      </trkpt>
      <trkpt lat="48.42869" lon="2.64499">
        <ele>128.9</ele>
        <time>2018-04-15T15:04:36Z</time>
      </trkpt>
      <trkpt lat="48.42869" lon="2.64491">
        <ele>129.4</ele>
        <time>2018-04-15T15:04:38Z</time>
      </trkpt>
      <trkpt lat="48.42868" lon="2.64487">
        <ele>129.7</ele>
        <time>2018-04-15T15:04:39Z</time>
      </trkpt>
      <trkpt lat="48.42868" lon="2.6448">
        <ele>130.2</ele>
        <time>2018-04-15T15:04:41Z</time>
      </trkpt>
      <trkpt lat="48.42868" lon="2.64475">
        <ele>130.6</ele>
        <time>2018-04-15T15:04:44Z</time>
      </trkpt>
      <trkpt lat="48.42867" lon="2.64469">
        <ele>131.1</ele>
        <time>2018-04-15T15:04:46Z</time>
      </trkpt>
      <trkpt lat="48.42866" lon="2.64462">
        <ele>131.4</ele>
        <time>2018-04-15T15:04:48Z</time>
      </trkpt>
      <trkpt lat="48.42867" lon="2.64456">
        <ele>131.7</ele>
        <time>2018-04-15T15:04:50Z</time>
      </trkpt>
      <trkpt lat="48.42867" lon="2.64451">
        <ele>132</ele>
        <time>2018-04-15T15:04:52Z</time>
      </trkpt>
      <trkpt lat="48.42867" lon="2.64446">
        <ele>132.2</ele>
        <time>2018-04-15T15:04:53Z</time>
      </trkpt>
      <trkpt lat="48.42868" lon="2.64438">
        <ele>132.8</ele>
        <time>2018-04-15T15:04:55Z</time>
      </trkpt>
      <trkpt lat="48.42867" lon="2.64433">
        <ele>133.3</ele>
        <time>2018-04-15T15:04:57Z</time>
      </trkpt>
      <trkpt lat="48.42868" lon="2.64426">
        <ele>134</ele>
        <time>2018-04-15T15:04:59Z</time>
      </trkpt>
      <trkpt lat="48.42868" lon="2.6442">
        <ele>134.6</ele>
        <time>2018-04-15T15:05:00Z</time>
      </trkpt>
      <trkpt lat="48.42868" lon="2.64416">
        <ele>135.1</ele>
        <time>2018-04-15T15:05:01Z</time>
      </trkpt>
      <trkpt lat="48.42868" lon="2.6441">
        <ele>135.7</ele>
        <time>2018-04-15T15:05:03Z</time>
      </trkpt>
      <trkpt lat="48.42867" lon="2.64404">
        <ele>136.2</ele>
        <time>2018-04-15T15:05:05Z</time>
      </trkpt>
      <trkpt lat="48.42867" lon="2.64398">
        <ele>137.2</ele>
        <time>2018-04-15T15:05:07Z</time>
      </trkpt>
      <trkpt lat="48.42867" lon="2.64394">
        <ele>137.5</ele>
        <time>2018-04-15T15:05:09Z</time>
      </trkpt>
      <trkpt lat="48.42868" lon="2.64387">
        <ele>138.2</ele>
        <time>2018-04-15T15:05:11Z</time>
      </trkpt>
      <trkpt lat="48.42869" lon="2.64383">
        <ele>138.5</ele>
        <time>2018-04-15T15:05:13Z</time>
      </trkpt>
      <trkpt lat="48.42869" lon="2.64377">
        <ele>138.8</ele>
        <time>2018-04-15T15:05:16Z</time>
      </trkpt>
      <trkpt lat="48.42871" lon="2.64367">
        <ele>139.4</ele>
        <time>2018-04-15T15:05:18Z</time>
      </trkpt>
      <trkpt lat="48.42872" lon="2.64361">
        <ele>139.7</ele>
        <time>2018-04-15T15:05:20Z</time>
      </trkpt>
      <trkpt lat="48.42873" lon="2.64356">
        <ele>140</ele>
        <time>2018-04-15T15:05:22Z</time>
      </trkpt>
      <trkpt lat="48.42873" lon="2.64349">
        <ele>140.7</ele>
        <time>2018-04-15T15:05:24Z</time>
      </trkpt>
      <trkpt lat="48.42875" lon="2.64342">
        <ele>141.6</ele>
        <time>2018-04-15T15:05:26Z</time>
      </trkpt>
      <trkpt lat="48.42875" lon="2.64337">
        <ele>142.1</ele>
        <time>2018-04-15T15:05:27Z</time>
      </trkpt>
      <trkpt lat="48.42876" lon="2.64332">
        <ele>142.9</ele>
        <time>2018-04-15T15:05:29Z</time>
      </trkpt>
      <trkpt lat="48.42876" lon="2.64325">
        <ele>142.8</ele>
        <time>2018-04-15T15:05:31Z</time>
      </trkpt>
      <trkpt lat="48.42877" lon="2.64319">
        <ele>142.8</ele>
        <time>2018-04-15T15:05:33Z</time>
      </trkpt>
      <trkpt lat="48.42878" lon="2.64314">
        <ele>142.7</ele>
        <time>2018-04-15T15:05:34Z</time>
      </trkpt>
      <trkpt lat="48.42879" lon="2.64309">
        <ele>142.7</ele>
        <time>2018-04-15T15:05:36Z</time>
      </trkpt>
      <trkpt lat="48.4288" lon="2.64304">
        <ele>142.7</ele>
        <time>2018-04-15T15:05:38Z</time>
      </trkpt>
      <trkpt lat="48.42882" lon="2.643">
        <ele>142.7</ele>
        <time>2018-04-15T15:05:41Z</time>
      </trkpt>
      <trkpt lat="48.42883" lon="2.64293">
        <ele>142.9</ele>
        <time>2018-04-15T15:05:43Z</time>
      </trkpt>
      <trkpt lat="48.42884" lon="2.64286">
        <ele>143</ele>
        <time>2018-04-15T15:05:45Z</time>
      </trkpt>
      <trkpt lat="48.42884" lon="2.6428">
        <ele>143.1</ele>
        <time>2018-04-15T15:05:46Z</time>
      </trkpt>
      <trkpt lat="48.42885" lon="2.64275">
        <ele>143.3</ele>
        <time>2018-04-15T15:05:47Z</time>
      </trkpt>
      <trkpt lat="48.42885" lon="2.64267">
        <ele>143.5</ele>
        <time>2018-04-15T15:05:49Z</time>
      </trkpt>
      <trkpt lat="48.42885" lon="2.6426">
        <ele>143.7</ele>
        <time>2018-04-15T15:05:52Z</time>
      </trkpt>
      <trkpt lat="48.42887" lon="2.64253">
        <ele>144</ele>
        <time>2018-04-15T15:05:54Z</time>
      </trkpt>
      <trkpt lat="48.42888" lon="2.64248">
        <ele>144.2</ele>
        <time>2018-04-15T15:05:55Z</time>
      </trkpt>
      <trkpt lat="48.42889" lon="2.64242">
        <ele>144.4</ele>
        <time>2018-04-15T15:05:56Z</time>
      </trkpt>
      <trkpt lat="48.42892" lon="2.64235">
        <ele>144.8</ele>
        <time>2018-04-15T15:05:58Z</time>
      </trkpt>
      <trkpt lat="48.42894" lon="2.64228">
        <ele>145.1</ele>
        <time>2018-04-15T15:06:00Z</time>
      </trkpt>
      <trkpt lat="48.42895" lon="2.64219">
        <ele>144.5</ele>
        <time>2018-04-15T15:06:02Z</time>
      </trkpt>
      <trkpt lat="48.42896" lon="2.64212">
        <ele>144.5</ele>
        <time>2018-04-15T15:06:04Z</time>
      </trkpt>
      <trkpt lat="48.42898" lon="2.64204">
        <ele>144.2</ele>
        <time>2018-04-15T15:06:05Z</time>
      </trkpt>
      <trkpt lat="48.42899" lon="2.64198">
        <ele>144.2</ele>
        <time>2018-04-15T15:06:06Z</time>
      </trkpt>
      <trkpt lat="48.42899" lon="2.64193">
        <ele>144.1</ele>
        <time>2018-04-15T15:06:08Z</time>
      </trkpt>
      <trkpt lat="48.429" lon="2.64188">
        <ele>144.1</ele>
        <time>2018-04-15T15:06:10Z</time>
      </trkpt>
      <trkpt lat="48.42901" lon="2.6418">
        <ele>144</ele>
        <time>2018-04-15T15:06:12Z</time>
      </trkpt>
      <trkpt lat="48.42902" lon="2.64173">
        <ele>144.2</ele>
        <time>2018-04-15T15:06:14Z</time>
      </trkpt>
      <trkpt lat="48.42905" lon="2.64167">
        <ele>143.8</ele>
        <time>2018-04-15T15:06:16Z</time>
      </trkpt>
      <trkpt lat="48.42906" lon="2.64163">
        <ele>143.3</ele>
        <time>2018-04-15T15:06:17Z</time>
      </trkpt>
      <trkpt lat="48.42909" lon="2.64157">
        <ele>143.2</ele>
        <time>2018-04-15T15:06:18Z</time>
      </trkpt>
      <trkpt lat="48.4291" lon="2.64154">
        <ele>142.8</ele>
        <time>2018-04-15T15:06:19Z</time>
      </trkpt>
      <trkpt lat="48.42913" lon="2.64148">
        <ele>142.3</ele>
        <time>2018-04-15T15:06:21Z</time>
      </trkpt>
      <trkpt lat="48.42916" lon="2.64143">
        <ele>142.1</ele>
        <time>2018-04-15T15:06:23Z</time>
      </trkpt>
      <trkpt lat="48.42918" lon="2.64138">
        <ele>141.7</ele>
        <time>2018-04-15T15:06:24Z</time>
      </trkpt>
      <trkpt lat="48.42921" lon="2.64133">
        <ele>141.1</ele>
        <time>2018-04-15T15:06:26Z</time>
      </trkpt>
      <trkpt lat="48.42926" lon="2.64127">
        <ele>141</ele>
        <time>2018-04-15T15:06:28Z</time>
      </trkpt>
      <trkpt lat="48.42928" lon="2.64123">
        <ele>140.4</ele>
        <time>2018-04-15T15:06:29Z</time>
      </trkpt>
      <trkpt lat="48.42931" lon="2.64115">
        <ele>140.4</ele>
        <time>2018-04-15T15:06:31Z</time>
      </trkpt>
      <trkpt lat="48.42932" lon="2.64111">
        <ele>140.6</ele>
        <time>2018-04-15T15:06:32Z</time>
      </trkpt>
      <trkpt lat="48.42934" lon="2.64107">
        <ele>140.9</ele>
        <time>2018-04-15T15:06:33Z</time>
      </trkpt>
      <trkpt lat="48.42936" lon="2.64102">
        <ele>141.3</ele>
        <time>2018-04-15T15:06:35Z</time>
      </trkpt>
      <trkpt lat="48.42939" lon="2.64097">
        <ele>141.7</ele>
        <time>2018-04-15T15:06:37Z</time>
      </trkpt>
      <trkpt lat="48.42941" lon="2.64089">
        <ele>142.3</ele>
        <time>2018-04-15T15:06:39Z</time>
      </trkpt>
      <trkpt lat="48.42942" lon="2.64083">
        <ele>142.6</ele>
        <time>2018-04-15T15:06:41Z</time>
      </trkpt>
      <trkpt lat="48.42942" lon="2.64078">
        <ele>142.8</ele>
        <time>2018-04-15T15:06:42Z</time>
      </trkpt>
      <trkpt lat="48.42943" lon="2.64071">
        <ele>143</ele>
        <time>2018-04-15T15:06:44Z</time>
      </trkpt>
      <trkpt lat="48.42944" lon="2.64067">
        <ele>143.1</ele>
        <time>2018-04-15T15:06:45Z</time>
      </trkpt>
      <trkpt lat="48.42944" lon="2.6406">
        <ele>143.3</ele>
        <time>2018-04-15T15:06:47Z</time>
      </trkpt>
      <trkpt lat="48.42944" lon="2.64053">
        <ele>143.5</ele>
        <time>2018-04-15T15:06:49Z</time>
      </trkpt>
      <trkpt lat="48.42945" lon="2.64046">
        <ele>143.6</ele>
        <time>2018-04-15T15:06:51Z</time>
      </trkpt>
      <trkpt lat="48.42945" lon="2.64042">
        <ele>143.7</ele>
        <time>2018-04-15T15:06:52Z</time>
      </trkpt>
      <trkpt lat="48.42946" lon="2.64037">
        <ele>143.8</ele>
        <time>2018-04-15T15:06:54Z</time>
      </trkpt>
      <trkpt lat="48.42947" lon="2.64032">
        <ele>144.1</ele>
        <time>2018-04-15T15:06:56Z</time>
      </trkpt>
      <trkpt lat="48.42949" lon="2.64025">
        <ele>144.4</ele>
        <time>2018-04-15T15:06:58Z</time>
      </trkpt>
      <trkpt lat="48.4295" lon="2.64018">
        <ele>144.8</ele>
        <time>2018-04-15T15:07:00Z</time>
      </trkpt>
      <trkpt lat="48.42952" lon="2.64012">
        <ele>145.2</ele>
        <time>2018-04-15T15:07:02Z</time>
      </trkpt>
      <trkpt lat="48.42955" lon="2.64005">
        <ele>145.4</ele>
        <time>2018-04-15T15:07:04Z</time>
      </trkpt>
      <trkpt lat="48.42956" lon="2.64">
        <ele>145.5</ele>
        <time>2018-04-15T15:07:05Z</time>
      </trkpt>
      <trkpt lat="48.42957" lon="2.63996">
        <ele>145.6</ele>
        <time>2018-04-15T15:07:07Z</time>
      </trkpt>
      <trkpt lat="48.42959" lon="2.63989">
        <ele>145.7</ele>
        <time>2018-04-15T15:07:09Z</time>
      </trkpt>
      <trkpt lat="48.42961" lon="2.63982">
        <ele>145.8</ele>
        <time>2018-04-15T15:07:11Z</time>
      </trkpt>
      <trkpt lat="48.42962" lon="2.63977">
        <ele>145.9</ele>
        <time>2018-04-15T15:07:12Z</time>
      </trkpt>
      <trkpt lat="48.42962" lon="2.63971">
        <ele>146</ele>
        <time>2018-04-15T15:07:13Z</time>
      </trkpt>
      <trkpt lat="48.42962" lon="2.63964">
        <ele>146.1</ele>
        <time>2018-04-15T15:07:15Z</time>
      </trkpt>
      <trkpt lat="48.42962" lon="2.63956">
        <ele>146.2</ele>
        <time>2018-04-15T15:07:17Z</time>
      </trkpt>
      <trkpt lat="48.42962" lon="2.63952">
        <ele>146.2</ele>
        <time>2018-04-15T15:07:18Z</time>
      </trkpt>
      <trkpt lat="48.42962" lon="2.63947">
        <ele>146.3</ele>
        <time>2018-04-15T15:07:19Z</time>
      </trkpt>
      <trkpt lat="48.42962" lon="2.6394">
        <ele>146.4</ele>
        <time>2018-04-15T15:07:21Z</time>
      </trkpt>
      <trkpt lat="48.4296" lon="2.63935">
        <ele>146.4</ele>
        <time>2018-04-15T15:07:22Z</time>
      </trkpt>
      <trkpt lat="48.4296" lon="2.6393">
        <ele>146.5</ele>
        <time>2018-04-15T15:07:23Z</time>
      </trkpt>
      <trkpt lat="48.42958" lon="2.63925">
        <ele>146.5</ele>
        <time>2018-04-15T15:07:25Z</time>
      </trkpt>
      <trkpt lat="48.42955" lon="2.63919">
        <ele>146.7</ele>
        <time>2018-04-15T15:07:27Z</time>
      </trkpt>
      <trkpt lat="48.42953" lon="2.63915">
        <ele>146.7</ele>
        <time>2018-04-15T15:07:28Z</time>
      </trkpt>
      <trkpt lat="48.42951" lon="2.63912">
        <ele>147.7</ele>
        <time>2018-04-15T15:07:29Z</time>
      </trkpt>
      <trkpt lat="48.42948" lon="2.6391">
        <ele>148.7</ele>
        <time>2018-04-15T15:07:30Z</time>
      </trkpt>
      <trkpt lat="48.42945" lon="2.63907">
        <ele>148.6</ele>
        <time>2018-04-15T15:07:32Z</time>
      </trkpt>
      <trkpt lat="48.42943" lon="2.63901">
        <ele>148.6</ele>
        <time>2018-04-15T15:07:35Z</time>
      </trkpt>
      <trkpt lat="48.42943" lon="2.63894">
        <ele>148.6</ele>
        <time>2018-04-15T15:07:37Z</time>
      </trkpt>
      <trkpt lat="48.42943" lon="2.63887">
        <ele>148.6</ele>
        <time>2018-04-15T15:07:39Z</time>
      </trkpt>
      <trkpt lat="48.42944" lon="2.6388">
        <ele>148.5</ele>
        <time>2018-04-15T15:07:41Z</time>
      </trkpt>
      <trkpt lat="48.42945" lon="2.63874">
        <ele>148.5</ele>
        <time>2018-04-15T15:07:42Z</time>
      </trkpt>
      <trkpt lat="48.42945" lon="2.63868">
        <ele>148.5</ele>
        <time>2018-04-15T15:07:43Z</time>
      </trkpt>
      <trkpt lat="48.42946" lon="2.63863">
        <ele>148.4</ele>
        <time>2018-04-15T15:07:44Z</time>
      </trkpt>
      <trkpt lat="48.42948" lon="2.63856">
        <ele>148.4</ele>
        <time>2018-04-15T15:07:45Z</time>
      </trkpt>
      <trkpt lat="48.4295" lon="2.63848">
        <ele>148.4</ele>
        <time>2018-04-15T15:07:46Z</time>
      </trkpt>
      <trkpt lat="48.42951" lon="2.63842">
        <ele>148.3</ele>
        <time>2018-04-15T15:07:47Z</time>
      </trkpt>
      <trkpt lat="48.42953" lon="2.63834">
        <ele>148.3</ele>
        <time>2018-04-15T15:07:48Z</time>
      </trkpt>
      <trkpt lat="48.42954" lon="2.63829">
        <ele>148.3</ele>
        <time>2018-04-15T15:07:49Z</time>
      </trkpt>
      <trkpt lat="48.42956" lon="2.63823">
        <ele>148.2</ele>
        <time>2018-04-15T15:07:50Z</time>
      </trkpt>
      <trkpt lat="48.42957" lon="2.63818">
        <ele>148.2</ele>
        <time>2018-04-15T15:07:51Z</time>
      </trkpt>
      <trkpt lat="48.42959" lon="2.63811">
        <ele>148.2</ele>
        <time>2018-04-15T15:07:53Z</time>
      </trkpt>
      <trkpt lat="48.4296" lon="2.63807">
        <ele>148.2</ele>
        <time>2018-04-15T15:07:54Z</time>
      </trkpt>
      <trkpt lat="48.42961" lon="2.63802">
        <ele>148.1</ele>
        <time>2018-04-15T15:07:55Z</time>
      </trkpt>
      <trkpt lat="48.42962" lon="2.63798">
        <ele>148.1</ele>
        <time>2018-04-15T15:07:56Z</time>
      </trkpt>
      <trkpt lat="48.42962" lon="2.63792">
        <ele>148.1</ele>
        <time>2018-04-15T15:07:58Z</time>
      </trkpt>
      <trkpt lat="48.42962" lon="2.63783">
        <ele>148</ele>
        <time>2018-04-15T15:08:00Z</time>
      </trkpt>
      <trkpt lat="48.42962" lon="2.63777">
        <ele>148</ele>
        <time>2018-04-15T15:08:01Z</time>
      </trkpt>
      <trkpt lat="48.42962" lon="2.6377">
        <ele>148</ele>
        <time>2018-04-15T15:08:02Z</time>
      </trkpt>
      <trkpt lat="48.42962" lon="2.63763">
        <ele>148</ele>
        <time>2018-04-15T15:08:04Z</time>
      </trkpt>
      <trkpt lat="48.42963" lon="2.63758">
        <ele>148</ele>
        <time>2018-04-15T15:08:05Z</time>
      </trkpt>
      <trkpt lat="48.42963" lon="2.63753">
        <ele>148</ele>
        <time>2018-04-15T15:08:06Z</time>
      </trkpt>
      <trkpt lat="48.42963" lon="2.63747">
        <ele>148</ele>
        <time>2018-04-15T15:08:07Z</time>
      </trkpt>
      <trkpt lat="48.42963" lon="2.63742">
        <ele>147.9</ele>
        <time>2018-04-15T15:08:08Z</time>
      </trkpt>
      <trkpt lat="48.42963" lon="2.63738">
        <ele>147.8</ele>
        <time>2018-04-15T15:08:09Z</time>
      </trkpt>
      <trkpt lat="48.42963" lon="2.63733">
        <ele>147.7</ele>
        <time>2018-04-15T15:08:10Z</time>
      </trkpt>
      <trkpt lat="48.42964" lon="2.63728">
        <ele>147.6</ele>
        <time>2018-04-15T15:08:11Z</time>
      </trkpt>
      <trkpt lat="48.42964" lon="2.63723">
        <ele>147.6</ele>
        <time>2018-04-15T15:08:12Z</time>
      </trkpt>
      <trkpt lat="48.42966" lon="2.63714">
        <ele>147.3</ele>
        <time>2018-04-15T15:08:14Z</time>
      </trkpt>
      <trkpt lat="48.42968" lon="2.63706">
        <ele>147.2</ele>
        <time>2018-04-15T15:08:15Z</time>
      </trkpt>
      <trkpt lat="48.42969" lon="2.63698">
        <ele>147</ele>
        <time>2018-04-15T15:08:17Z</time>
      </trkpt>
      <trkpt lat="48.4297" lon="2.63694">
        <ele>146.9</ele>
        <time>2018-04-15T15:08:18Z</time>
      </trkpt>
      <trkpt lat="48.4297" lon="2.63689">
        <ele>146.9</ele>
        <time>2018-04-15T15:08:19Z</time>
      </trkpt>
      <trkpt lat="48.42971" lon="2.63685">
        <ele>146.8</ele>
        <time>2018-04-15T15:08:20Z</time>
      </trkpt>
      <trkpt lat="48.4297" lon="2.63675">
        <ele>146.6</ele>
        <time>2018-04-15T15:08:22Z</time>
      </trkpt>
      <trkpt lat="48.42971" lon="2.63668">
        <ele>146.5</ele>
        <time>2018-04-15T15:08:23Z</time>
      </trkpt>
      <trkpt lat="48.42971" lon="2.63662">
        <ele>146.4</ele>
        <time>2018-04-15T15:08:24Z</time>
      </trkpt>
      <trkpt lat="48.42972" lon="2.63656">
        <ele>146.3</ele>
        <time>2018-04-15T15:08:25Z</time>
      </trkpt>
      <trkpt lat="48.42972" lon="2.6365">
        <ele>146.2</ele>
        <time>2018-04-15T15:08:26Z</time>
      </trkpt>
      <trkpt lat="48.42973" lon="2.63642">
        <ele>146.1</ele>
        <time>2018-04-15T15:08:27Z</time>
      </trkpt>
      <trkpt lat="48.42976" lon="2.63632">
        <ele>146</ele>
        <time>2018-04-15T15:08:28Z</time>
      </trkpt>
      <trkpt lat="48.42977" lon="2.63624">
        <ele>145.9</ele>
        <time>2018-04-15T15:08:29Z</time>
      </trkpt>
      <trkpt lat="48.42979" lon="2.63616">
        <ele>145.7</ele>
        <time>2018-04-15T15:08:30Z</time>
      </trkpt>
      <trkpt lat="48.42981" lon="2.6361">
        <ele>145.6</ele>
        <time>2018-04-15T15:08:31Z</time>
      </trkpt>
      <trkpt lat="48.42983" lon="2.63602">
        <ele>145.4</ele>
        <time>2018-04-15T15:08:32Z</time>
      </trkpt>
      <trkpt lat="48.42985" lon="2.63595">
        <ele>145.2</ele>
        <time>2018-04-15T15:08:33Z</time>
      </trkpt>
      <trkpt lat="48.42986" lon="2.6359">
        <ele>145.1</ele>
        <time>2018-04-15T15:08:34Z</time>
      </trkpt>
      <trkpt lat="48.42988" lon="2.63584">
        <ele>144.9</ele>
        <time>2018-04-15T15:08:35Z</time>
      </trkpt>
      <trkpt lat="48.42989" lon="2.6358">
        <ele>144.8</ele>
        <time>2018-04-15T15:08:36Z</time>
      </trkpt>
      <trkpt lat="48.4299" lon="2.63575">
        <ele>144.7</ele>
        <time>2018-04-15T15:08:37Z</time>
      </trkpt>
      <trkpt lat="48.42991" lon="2.63569">
        <ele>144.5</ele>
        <time>2018-04-15T15:08:38Z</time>
      </trkpt>
      <trkpt lat="48.42992" lon="2.63563">
        <ele>144.4</ele>
        <time>2018-04-15T15:08:39Z</time>
      </trkpt>
      <trkpt lat="48.42993" lon="2.63558">
        <ele>144.3</ele>
        <time>2018-04-15T15:08:40Z</time>
      </trkpt>
      <trkpt lat="48.42993" lon="2.63551">
        <ele>143.9</ele>
        <time>2018-04-15T15:08:41Z</time>
      </trkpt>
      <trkpt lat="48.42994" lon="2.63543">
        <ele>143.9</ele>
        <time>2018-04-15T15:08:42Z</time>
      </trkpt>
      <trkpt lat="48.42995" lon="2.63538">
        <ele>143.8</ele>
        <time>2018-04-15T15:08:43Z</time>
      </trkpt>
      <trkpt lat="48.42995" lon="2.63532">
        <ele>143.8</ele>
        <time>2018-04-15T15:08:44Z</time>
      </trkpt>
      <trkpt lat="48.42994" lon="2.63525">
        <ele>143.7</ele>
        <time>2018-04-15T15:08:45Z</time>
      </trkpt>
      <trkpt lat="48.42992" lon="2.63517">
        <ele>143.6</ele>
        <time>2018-04-15T15:08:46Z</time>
      </trkpt>
      <trkpt lat="48.42991" lon="2.63513">
        <ele>143.6</ele>
        <time>2018-04-15T15:08:47Z</time>
      </trkpt>
      <trkpt lat="48.42991" lon="2.63506">
        <ele>143.6</ele>
        <time>2018-04-15T15:08:48Z</time>
      </trkpt>
      <trkpt lat="48.4299" lon="2.63501">
        <ele>143.6</ele>
        <time>2018-04-15T15:08:49Z</time>
      </trkpt>
      <trkpt lat="48.42988" lon="2.63494">
        <ele>143.5</ele>
        <time>2018-04-15T15:08:50Z</time>
      </trkpt>
      <trkpt lat="48.42987" lon="2.63489">
        <ele>143.5</ele>
        <time>2018-04-15T15:08:51Z</time>
      </trkpt>
      <trkpt lat="48.42985" lon="2.63484">
        <ele>143.5</ele>
        <time>2018-04-15T15:08:52Z</time>
      </trkpt>
      <trkpt lat="48.42984" lon="2.63479">
        <ele>143.5</ele>
        <time>2018-04-15T15:08:53Z</time>
      </trkpt>
      <trkpt lat="48.42982" lon="2.63473">
        <ele>143.4</ele>
        <time>2018-04-15T15:08:54Z</time>
      </trkpt>
      <trkpt lat="48.42979" lon="2.63468">
        <ele>143.4</ele>
        <time>2018-04-15T15:08:55Z</time>
      </trkpt>
      <trkpt lat="48.42976" lon="2.63463">
        <ele>143.4</ele>
        <time>2018-04-15T15:08:56Z</time>
      </trkpt>
      <trkpt lat="48.42973" lon="2.6346">
        <ele>143.4</ele>
        <time>2018-04-15T15:08:57Z</time>
      </trkpt>
      <trkpt lat="48.42971" lon="2.63456">
        <ele>143.3</ele>
        <time>2018-04-15T15:08:58Z</time>
      </trkpt>
      <trkpt lat="48.4297" lon="2.63452">
        <ele>143.3</ele>
        <time>2018-04-15T15:08:59Z</time>
      </trkpt>
      <trkpt lat="48.42969" lon="2.63448">
        <ele>143.3</ele>
        <time>2018-04-15T15:09:00Z</time>
      </trkpt>
      <trkpt lat="48.42968" lon="2.63444">
        <ele>143.3</ele>
        <time>2018-04-15T15:09:01Z</time>
      </trkpt>
      <trkpt lat="48.42966" lon="2.63439">
        <ele>143.3</ele>
        <time>2018-04-15T15:09:02Z</time>
      </trkpt>
      <trkpt lat="48.42965" lon="2.63435">
        <ele>143.2</ele>
        <time>2018-04-15T15:09:03Z</time>
      </trkpt>
      <trkpt lat="48.42963" lon="2.63429">
        <ele>143.2</ele>
        <time>2018-04-15T15:09:04Z</time>
      </trkpt>
      <trkpt lat="48.42962" lon="2.63425">
        <ele>143.2</ele>
        <time>2018-04-15T15:09:05Z</time>
      </trkpt>
      <trkpt lat="48.42961" lon="2.63421">
        <ele>143.2</ele>
        <time>2018-04-15T15:09:06Z</time>
      </trkpt>
      <trkpt lat="48.42959" lon="2.63416">
        <ele>143.2</ele>
        <time>2018-04-15T15:09:07Z</time>
      </trkpt>
      <trkpt lat="48.42958" lon="2.6341">
        <ele>143.1</ele>
        <time>2018-04-15T15:09:08Z</time>
      </trkpt>
      <trkpt lat="48.42956" lon="2.63404">
        <ele>143.1</ele>
        <time>2018-04-15T15:09:09Z</time>
      </trkpt>
      <trkpt lat="48.42954" lon="2.63397">
        <ele>143.1</ele>
        <time>2018-04-15T15:09:10Z</time>
      </trkpt>
      <trkpt lat="48.4295" lon="2.63388">
        <ele>143.1</ele>
        <time>2018-04-15T15:09:11Z</time>
      </trkpt>
      <trkpt lat="48.42949" lon="2.63383">
        <ele>143</ele>
        <time>2018-04-15T15:09:12Z</time>
      </trkpt>
      <trkpt lat="48.42947" lon="2.63376">
        <ele>143</ele>
        <time>2018-04-15T15:09:13Z</time>
      </trkpt>
      <trkpt lat="48.42945" lon="2.63371">
        <ele>143</ele>
        <time>2018-04-15T15:09:14Z</time>
      </trkpt>
      <trkpt lat="48.42942" lon="2.63365">
        <ele>143</ele>
        <time>2018-04-15T15:09:15Z</time>
      </trkpt>
      <trkpt lat="48.42938" lon="2.63358">
        <ele>142.9</ele>
        <time>2018-04-15T15:09:16Z</time>
      </trkpt>
      <trkpt lat="48.42936" lon="2.63353">
        <ele>142.9</ele>
        <time>2018-04-15T15:09:17Z</time>
      </trkpt>
      <trkpt lat="48.42934" lon="2.63345">
        <ele>142.9</ele>
        <time>2018-04-15T15:09:18Z</time>
      </trkpt>
      <trkpt lat="48.4293" lon="2.63337">
        <ele>142.8</ele>
        <time>2018-04-15T15:09:19Z</time>
      </trkpt>
      <trkpt lat="48.42927" lon="2.6333">
        <ele>142.8</ele>
        <time>2018-04-15T15:09:20Z</time>
      </trkpt>
      <trkpt lat="48.42924" lon="2.63322">
        <ele>142.7</ele>
        <time>2018-04-15T15:09:21Z</time>
      </trkpt>
      <trkpt lat="48.42921" lon="2.63315">
        <ele>142.7</ele>
        <time>2018-04-15T15:09:22Z</time>
      </trkpt>
      <trkpt lat="48.42919" lon="2.63308">
        <ele>142.7</ele>
        <time>2018-04-15T15:09:23Z</time>
      </trkpt>
      <trkpt lat="48.42914" lon="2.63298">
        <ele>142.6</ele>
        <time>2018-04-15T15:09:24Z</time>
      </trkpt>
      <trkpt lat="48.4291" lon="2.63291">
        <ele>142.6</ele>
        <time>2018-04-15T15:09:25Z</time>
      </trkpt>
      <trkpt lat="48.42907" lon="2.63284">
        <ele>142.6</ele>
        <time>2018-04-15T15:09:26Z</time>
      </trkpt>
      <trkpt lat="48.42904" lon="2.63276">
        <ele>142.5</ele>
        <time>2018-04-15T15:09:27Z</time>
      </trkpt>
      <trkpt lat="48.42902" lon="2.63267">
        <ele>142.5</ele>
        <time>2018-04-15T15:09:28Z</time>
      </trkpt>
      <trkpt lat="48.42899" lon="2.63259">
        <ele>142.4</ele>
        <time>2018-04-15T15:09:29Z</time>
      </trkpt>
      <trkpt lat="48.42897" lon="2.63251">
        <ele>142.4</ele>
        <time>2018-04-15T15:09:30Z</time>
      </trkpt>
      <trkpt lat="48.42894" lon="2.63242">
        <ele>142.4</ele>
        <time>2018-04-15T15:09:31Z</time>
      </trkpt>
      <trkpt lat="48.4289" lon="2.63234">
        <ele>142.3</ele>
        <time>2018-04-15T15:09:32Z</time>
      </trkpt>
      <trkpt lat="48.42887" lon="2.63226">
        <ele>142.3</ele>
        <time>2018-04-15T15:09:33Z</time>
      </trkpt>
      <trkpt lat="48.42885" lon="2.63219">
        <ele>142.3</ele>
        <time>2018-04-15T15:09:34Z</time>
      </trkpt>
      <trkpt lat="48.42882" lon="2.63212">
        <ele>142.2</ele>
        <time>2018-04-15T15:09:35Z</time>
      </trkpt>
      <trkpt lat="48.4288" lon="2.63204">
        <ele>142.2</ele>
        <time>2018-04-15T15:09:36Z</time>
      </trkpt>
      <trkpt lat="48.42877" lon="2.63196">
        <ele>142.2</ele>
        <time>2018-04-15T15:09:37Z</time>
      </trkpt>
      <trkpt lat="48.42875" lon="2.6319">
        <ele>142.1</ele>
        <time>2018-04-15T15:09:38Z</time>
      </trkpt>
      <trkpt lat="48.42874" lon="2.63181">
        <ele>142.1</ele>
        <time>2018-04-15T15:09:39Z</time>
      </trkpt>
      <trkpt lat="48.42871" lon="2.63172">
        <ele>142</ele>
        <time>2018-04-15T15:09:40Z</time>
      </trkpt>
      <trkpt lat="48.42867" lon="2.63164">
        <ele>141.9</ele>
        <time>2018-04-15T15:09:41Z</time>
      </trkpt>
      <trkpt lat="48.42864" lon="2.63155">
        <ele>141.9</ele>
        <time>2018-04-15T15:09:42Z</time>
      </trkpt>
      <trkpt lat="48.42861" lon="2.63147">
        <ele>141.8</ele>
        <time>2018-04-15T15:09:43Z</time>
      </trkpt>
      <trkpt lat="48.42858" lon="2.63139">
        <ele>141.7</ele>
        <time>2018-04-15T15:09:44Z</time>
      </trkpt>
      <trkpt lat="48.42855" lon="2.63133">
        <ele>141.6</ele>
        <time>2018-04-15T15:09:45Z</time>
      </trkpt>
      <trkpt lat="48.42852" lon="2.63126">
        <ele>141.6</ele>
        <time>2018-04-15T15:09:46Z</time>
      </trkpt>
      <trkpt lat="48.42849" lon="2.63117">
        <ele>141.5</ele>
        <time>2018-04-15T15:09:47Z</time>
      </trkpt>
      <trkpt lat="48.42845" lon="2.63109">
        <ele>141.5</ele>
        <time>2018-04-15T15:09:48Z</time>
      </trkpt>
      <trkpt lat="48.42842" lon="2.63099">
        <ele>141.4</ele>
        <time>2018-04-15T15:09:49Z</time>
      </trkpt>
      <trkpt lat="48.42838" lon="2.6309">
        <ele>141.3</ele>
        <time>2018-04-15T15:09:50Z</time>
      </trkpt>
      <trkpt lat="48.42834" lon="2.6308">
        <ele>141.2</ele>
        <time>2018-04-15T15:09:51Z</time>
      </trkpt>
      <trkpt lat="48.42831" lon="2.63072">
        <ele>141.1</ele>
        <time>2018-04-15T15:09:52Z</time>
      </trkpt>
      <trkpt lat="48.42828" lon="2.63063">
        <ele>141</ele>
        <time>2018-04-15T15:09:53Z</time>
      </trkpt>
      <trkpt lat="48.42826" lon="2.63054">
        <ele>140.9</ele>
        <time>2018-04-15T15:09:54Z</time>
      </trkpt>
      <trkpt lat="48.42824" lon="2.63045">
        <ele>140.8</ele>
        <time>2018-04-15T15:09:55Z</time>
      </trkpt>
      <trkpt lat="48.42822" lon="2.63038">
        <ele>140.8</ele>
        <time>2018-04-15T15:09:56Z</time>
      </trkpt>
      <trkpt lat="48.4282" lon="2.6303">
        <ele>140.7</ele>
        <time>2018-04-15T15:09:57Z</time>
      </trkpt>
      <trkpt lat="48.42816" lon="2.63021">
        <ele>140.7</ele>
        <time>2018-04-15T15:09:58Z</time>
      </trkpt>
      <trkpt lat="48.42811" lon="2.6301">
        <ele>140.5</ele>
        <time>2018-04-15T15:09:59Z</time>
      </trkpt>
      <trkpt lat="48.42806" lon="2.62997">
        <ele>140.4</ele>
        <time>2018-04-15T15:10:00Z</time>
      </trkpt>
      <trkpt lat="48.42803" lon="2.62988">
        <ele>140.3</ele>
        <time>2018-04-15T15:10:01Z</time>
      </trkpt>
      <trkpt lat="48.428" lon="2.6298">
        <ele>140.2</ele>
        <time>2018-04-15T15:10:02Z</time>
      </trkpt>
      <trkpt lat="48.42798" lon="2.62971">
        <ele>140.1</ele>
        <time>2018-04-15T15:10:03Z</time>
      </trkpt>
      <trkpt lat="48.42798" lon="2.62962">
        <ele>140</ele>
        <time>2018-04-15T15:10:04Z</time>
      </trkpt>
      <trkpt lat="48.42798" lon="2.62953">
        <ele>140</ele>
        <time>2018-04-15T15:10:05Z</time>
      </trkpt>
      <trkpt lat="48.42799" lon="2.62947">
        <ele>140</ele>
        <time>2018-04-15T15:10:06Z</time>
      </trkpt>
      <trkpt lat="48.42799" lon="2.6294">
        <ele>140</ele>
        <time>2018-04-15T15:10:08Z</time>
      </trkpt>
      <trkpt lat="48.42799" lon="2.62936">
        <ele>140</ele>
        <time>2018-04-15T15:10:09Z</time>
      </trkpt>
      <trkpt lat="48.42799" lon="2.62928">
        <ele>140</ele>
        <time>2018-04-15T15:10:11Z</time>
      </trkpt>
      <trkpt lat="48.42798" lon="2.62922">
        <ele>140</ele>
        <time>2018-04-15T15:10:12Z</time>
      </trkpt>
      <trkpt lat="48.42797" lon="2.62918">
        <ele>140</ele>
        <time>2018-04-15T15:10:13Z</time>
      </trkpt>
      <trkpt lat="48.42796" lon="2.62913">
        <ele>140</ele>
        <time>2018-04-15T15:10:14Z</time>
      </trkpt>
      <trkpt lat="48.42795" lon="2.62909">
        <ele>140</ele>
        <time>2018-04-15T15:10:15Z</time>
      </trkpt>
      <trkpt lat="48.42794" lon="2.62902">
        <ele>140</ele>
        <time>2018-04-15T15:10:17Z</time>
      </trkpt>
      <trkpt lat="48.42794" lon="2.62897">
        <ele>140.1</ele>
        <time>2018-04-15T15:10:20Z</time>
      </trkpt>
      <trkpt lat="48.42795" lon="2.6289">
        <ele>140.1</ele>
        <time>2018-04-15T15:10:22Z</time>
      </trkpt>
      <trkpt lat="48.42797" lon="2.62887">
        <ele>140.1</ele>
        <time>2018-04-15T15:10:27Z</time>
      </trkpt>
      <trkpt lat="48.428" lon="2.6289">
        <ele>140.1</ele>
        <time>2018-04-15T15:10:31Z</time>
      </trkpt>
      <trkpt lat="48.42801" lon="2.62894">
        <ele>140.1</ele>
        <time>2018-04-15T15:10:33Z</time>
      </trkpt>
      <trkpt lat="48.42801" lon="2.62899">
        <ele>140.1</ele>
        <time>2018-04-15T15:10:36Z</time>
      </trkpt>
      <trkpt lat="48.428" lon="2.62903">
        <ele>140</ele>
        <time>2018-04-15T15:10:38Z</time>
      </trkpt>
      <trkpt lat="48.428" lon="2.62908">
        <ele>140</ele>
        <time>2018-04-15T15:10:39Z</time>
      </trkpt>
      <trkpt lat="48.428" lon="2.62913">
        <ele>140</ele>
        <time>2018-04-15T15:10:40Z</time>
      </trkpt>
      <trkpt lat="48.428" lon="2.62917">
        <ele>140</ele>
        <time>2018-04-15T15:10:42Z</time>
      </trkpt>
      <trkpt lat="48.42803" lon="2.62921">
        <ele>140</ele>
        <time>2018-04-15T15:10:43Z</time>
      </trkpt>
      <trkpt lat="48.42805" lon="2.62924">
        <ele>140</ele>
        <time>2018-04-15T15:10:44Z</time>
      </trkpt>
      <trkpt lat="48.42808" lon="2.62928">
        <ele>140.2</ele>
        <time>2018-04-15T15:10:45Z</time>
      </trkpt>
      <trkpt lat="48.42809" lon="2.62923">
        <ele>140.3</ele>
        <time>2018-04-15T15:10:49Z</time>
      </trkpt>
      <trkpt lat="48.42812" lon="2.62916">
        <ele>140.3</ele>
        <time>2018-04-15T15:10:51Z</time>
      </trkpt>
      <trkpt lat="48.42813" lon="2.62913">
        <ele>140.4</ele>
        <time>2018-04-15T15:10:52Z</time>
      </trkpt>
      <trkpt lat="48.42815" lon="2.6291">
        <ele>140.4</ele>
        <time>2018-04-15T15:10:53Z</time>
      </trkpt>
      <trkpt lat="48.42818" lon="2.62905">
        <ele>140.4</ele>
        <time>2018-04-15T15:10:54Z</time>
      </trkpt>
      <trkpt lat="48.42821" lon="2.629">
        <ele>140.5</ele>
        <time>2018-04-15T15:10:55Z</time>
      </trkpt>
      <trkpt lat="48.42824" lon="2.62894">
        <ele>140.5</ele>
        <time>2018-04-15T15:10:56Z</time>
      </trkpt>
      <trkpt lat="48.42826" lon="2.62891">
        <ele>140.6</ele>
        <time>2018-04-15T15:10:57Z</time>
      </trkpt>
      <trkpt lat="48.42828" lon="2.62888">
        <ele>140.6</ele>
        <time>2018-04-15T15:10:58Z</time>
      </trkpt>
      <trkpt lat="48.42831" lon="2.62884">
        <ele>140.6</ele>
        <time>2018-04-15T15:10:59Z</time>
      </trkpt>
      <trkpt lat="48.42834" lon="2.62879">
        <ele>140.7</ele>
        <time>2018-04-15T15:11:00Z</time>
      </trkpt>
      <trkpt lat="48.42837" lon="2.62876">
        <ele>140.7</ele>
        <time>2018-04-15T15:11:01Z</time>
      </trkpt>
      <trkpt lat="48.42839" lon="2.62872">
        <ele>140.8</ele>
        <time>2018-04-15T15:11:02Z</time>
      </trkpt>
      <trkpt lat="48.42842" lon="2.62869">
        <ele>140.8</ele>
        <time>2018-04-15T15:11:03Z</time>
      </trkpt>
      <trkpt lat="48.42846" lon="2.62865">
        <ele>140.9</ele>
        <time>2018-04-15T15:11:04Z</time>
      </trkpt>
      <trkpt lat="48.42849" lon="2.62862">
        <ele>140.9</ele>
        <time>2018-04-15T15:11:05Z</time>
      </trkpt>
      <trkpt lat="48.42852" lon="2.62856">
        <ele>141</ele>
        <time>2018-04-15T15:11:07Z</time>
      </trkpt>
      <trkpt lat="48.42855" lon="2.6285">
        <ele>141</ele>
        <time>2018-04-15T15:11:08Z</time>
      </trkpt>
      <trkpt lat="48.42856" lon="2.62847">
        <ele>141</ele>
        <time>2018-04-15T15:11:09Z</time>
      </trkpt>
      <trkpt lat="48.42859" lon="2.62843">
        <ele>141.1</ele>
        <time>2018-04-15T15:11:10Z</time>
      </trkpt>
      <trkpt lat="48.4286" lon="2.62839">
        <ele>141.1</ele>
        <time>2018-04-15T15:11:11Z</time>
      </trkpt>
      <trkpt lat="48.42862" lon="2.62834">
        <ele>141.1</ele>
        <time>2018-04-15T15:11:12Z</time>
      </trkpt>
      <trkpt lat="48.42866" lon="2.62829">
        <ele>141.2</ele>
        <time>2018-04-15T15:11:13Z</time>
      </trkpt>
      <trkpt lat="48.42869" lon="2.62824">
        <ele>141.2</ele>
        <time>2018-04-15T15:11:14Z</time>
      </trkpt>
      <trkpt lat="48.42872" lon="2.6282">
        <ele>141.3</ele>
        <time>2018-04-15T15:11:15Z</time>
      </trkpt>
      <trkpt lat="48.42875" lon="2.62816">
        <ele>141.3</ele>
        <time>2018-04-15T15:11:16Z</time>
      </trkpt>
      <trkpt lat="48.42878" lon="2.62812">
        <ele>141.3</ele>
        <time>2018-04-15T15:11:17Z</time>
      </trkpt>
      <trkpt lat="48.42882" lon="2.62809">
        <ele>141.4</ele>
        <time>2018-04-15T15:11:18Z</time>
      </trkpt>
      <trkpt lat="48.42885" lon="2.62805">
        <ele>141.4</ele>
        <time>2018-04-15T15:11:19Z</time>
      </trkpt>
      <trkpt lat="48.42888" lon="2.62802">
        <ele>141.5</ele>
        <time>2018-04-15T15:11:20Z</time>
      </trkpt>
      <trkpt lat="48.42891" lon="2.62798">
        <ele>141.5</ele>
        <time>2018-04-15T15:11:21Z</time>
      </trkpt>
      <trkpt lat="48.42893" lon="2.62794">
        <ele>141.6</ele>
        <time>2018-04-15T15:11:22Z</time>
      </trkpt>
      <trkpt lat="48.42896" lon="2.62789">
        <ele>141.7</ele>
        <time>2018-04-15T15:11:23Z</time>
      </trkpt>
      <trkpt lat="48.429" lon="2.62783">
        <ele>141.8</ele>
        <time>2018-04-15T15:11:24Z</time>
      </trkpt>
      <trkpt lat="48.42905" lon="2.62777">
        <ele>142</ele>
        <time>2018-04-15T15:11:25Z</time>
      </trkpt>
      <trkpt lat="48.4291" lon="2.6277">
        <ele>142.1</ele>
        <time>2018-04-15T15:11:26Z</time>
      </trkpt>
      <trkpt lat="48.42915" lon="2.62762">
        <ele>142.5</ele>
        <time>2018-04-15T15:11:27Z</time>
      </trkpt>
      <trkpt lat="48.42919" lon="2.62755">
        <ele>142.9</ele>
        <time>2018-04-15T15:11:28Z</time>
      </trkpt>
      <trkpt lat="48.42924" lon="2.62749">
        <ele>143.4</ele>
        <time>2018-04-15T15:11:29Z</time>
      </trkpt>
      <trkpt lat="48.42926" lon="2.62746">
        <ele>143.6</ele>
        <time>2018-04-15T15:11:30Z</time>
      </trkpt>
      <trkpt lat="48.42929" lon="2.62742">
        <ele>143.8</ele>
        <time>2018-04-15T15:11:31Z</time>
      </trkpt>
      <trkpt lat="48.42931" lon="2.62738">
        <ele>144</ele>
        <time>2018-04-15T15:11:32Z</time>
      </trkpt>
      <trkpt lat="48.42934" lon="2.62734">
        <ele>144.1</ele>
        <time>2018-04-15T15:11:33Z</time>
      </trkpt>
      <trkpt lat="48.42937" lon="2.62729">
        <ele>144.2</ele>
        <time>2018-04-15T15:11:34Z</time>
      </trkpt>
      <trkpt lat="48.42941" lon="2.62725">
        <ele>144.3</ele>
        <time>2018-04-15T15:11:35Z</time>
      </trkpt>
      <trkpt lat="48.42944" lon="2.62721">
        <ele>144.4</ele>
        <time>2018-04-15T15:11:36Z</time>
      </trkpt>
      <trkpt lat="48.42946" lon="2.62717">
        <ele>144.5</ele>
        <time>2018-04-15T15:11:37Z</time>
      </trkpt>
      <trkpt lat="48.4295" lon="2.62713">
        <ele>144.5</ele>
        <time>2018-04-15T15:11:38Z</time>
      </trkpt>
      <trkpt lat="48.42952" lon="2.62709">
        <ele>144.6</ele>
        <time>2018-04-15T15:11:39Z</time>
      </trkpt>
      <trkpt lat="48.42956" lon="2.62704">
        <ele>144.7</ele>
        <time>2018-04-15T15:11:40Z</time>
      </trkpt>
      <trkpt lat="48.42961" lon="2.62698">
        <ele>144.8</ele>
        <time>2018-04-15T15:11:41Z</time>
      </trkpt>
      <trkpt lat="48.42967" lon="2.62691">
        <ele>144.9</ele>
        <time>2018-04-15T15:11:42Z</time>
      </trkpt>
      <trkpt lat="48.42972" lon="2.62683">
        <ele>145</ele>
        <time>2018-04-15T15:11:43Z</time>
      </trkpt>
      <trkpt lat="48.42977" lon="2.62677">
        <ele>145</ele>
        <time>2018-04-15T15:11:44Z</time>
      </trkpt>
      <trkpt lat="48.42981" lon="2.62671">
        <ele>145</ele>
        <time>2018-04-15T15:11:45Z</time>
      </trkpt>
      <trkpt lat="48.42985" lon="2.62666">
        <ele>145.1</ele>
        <time>2018-04-15T15:11:46Z</time>
      </trkpt>
      <trkpt lat="48.42988" lon="2.62662">
        <ele>145.1</ele>
        <time>2018-04-15T15:11:47Z</time>
      </trkpt>
      <trkpt lat="48.4299" lon="2.62659">
        <ele>145.1</ele>
        <time>2018-04-15T15:11:48Z</time>
      </trkpt>
      <trkpt lat="48.42993" lon="2.62654">
        <ele>145.1</ele>
        <time>2018-04-15T15:11:49Z</time>
      </trkpt>
      <trkpt lat="48.42996" lon="2.6265">
        <ele>145.1</ele>
        <time>2018-04-15T15:11:50Z</time>
      </trkpt>
      <trkpt lat="48.42999" lon="2.62647">
        <ele>145.2</ele>
        <time>2018-04-15T15:11:51Z</time>
      </trkpt>
      <trkpt lat="48.43002" lon="2.62643">
        <ele>145.2</ele>
        <time>2018-04-15T15:11:52Z</time>
      </trkpt>
      <trkpt lat="48.43005" lon="2.62639">
        <ele>145.2</ele>
        <time>2018-04-15T15:11:53Z</time>
      </trkpt>
      <trkpt lat="48.43008" lon="2.62636">
        <ele>145.2</ele>
        <time>2018-04-15T15:11:54Z</time>
      </trkpt>
      <trkpt lat="48.43011" lon="2.62632">
        <ele>145.3</ele>
        <time>2018-04-15T15:11:55Z</time>
      </trkpt>
      <trkpt lat="48.43015" lon="2.62627">
        <ele>145.3</ele>
        <time>2018-04-15T15:11:56Z</time>
      </trkpt>
      <trkpt lat="48.43017" lon="2.62624">
        <ele>145.3</ele>
        <time>2018-04-15T15:11:57Z</time>
      </trkpt>
      <trkpt lat="48.4302" lon="2.62622">
        <ele>145.3</ele>
        <time>2018-04-15T15:11:58Z</time>
      </trkpt>
      <trkpt lat="48.43024" lon="2.6262">
        <ele>145.3</ele>
        <time>2018-04-15T15:12:00Z</time>
      </trkpt>
      <trkpt lat="48.43026" lon="2.62618">
        <ele>145.4</ele>
        <time>2018-04-15T15:12:03Z</time>
      </trkpt>
      <trkpt lat="48.43029" lon="2.62613">
        <ele>145.4</ele>
        <time>2018-04-15T15:12:06Z</time>
      </trkpt>
      <trkpt lat="48.43032" lon="2.62607">
        <ele>145.4</ele>
        <time>2018-04-15T15:12:08Z</time>
      </trkpt>
      <trkpt lat="48.43036" lon="2.62601">
        <ele>145.4</ele>
        <time>2018-04-15T15:12:10Z</time>
      </trkpt>
      <trkpt lat="48.43039" lon="2.62597">
        <ele>145.5</ele>
        <time>2018-04-15T15:12:11Z</time>
      </trkpt>
      <trkpt lat="48.43041" lon="2.62592">
        <ele>145.5</ele>
        <time>2018-04-15T15:12:12Z</time>
      </trkpt>
      <trkpt lat="48.43045" lon="2.62586">
        <ele>145.5</ele>
        <time>2018-04-15T15:12:13Z</time>
      </trkpt>
      <trkpt lat="48.4305" lon="2.62579">
        <ele>145.6</ele>
        <time>2018-04-15T15:12:14Z</time>
      </trkpt>
      <trkpt lat="48.43054" lon="2.62574">
        <ele>145.6</ele>
        <time>2018-04-15T15:12:15Z</time>
      </trkpt>
      <trkpt lat="48.43058" lon="2.62567">
        <ele>145.7</ele>
        <time>2018-04-15T15:12:16Z</time>
      </trkpt>
      <trkpt lat="48.43062" lon="2.62561">
        <ele>145.7</ele>
        <time>2018-04-15T15:12:17Z</time>
      </trkpt>
      <trkpt lat="48.43066" lon="2.62555">
        <ele>145.7</ele>
        <time>2018-04-15T15:12:18Z</time>
      </trkpt>
      <trkpt lat="48.4307" lon="2.62548">
        <ele>145.8</ele>
        <time>2018-04-15T15:12:19Z</time>
      </trkpt>
      <trkpt lat="48.43074" lon="2.62542">
        <ele>145.8</ele>
        <time>2018-04-15T15:12:20Z</time>
      </trkpt>
      <trkpt lat="48.43077" lon="2.62538">
        <ele>145.8</ele>
        <time>2018-04-15T15:12:21Z</time>
      </trkpt>
      <trkpt lat="48.43081" lon="2.62534">
        <ele>145.9</ele>
        <time>2018-04-15T15:12:22Z</time>
      </trkpt>
      <trkpt lat="48.43085" lon="2.62529">
        <ele>145.8</ele>
        <time>2018-04-15T15:12:23Z</time>
      </trkpt>
      <trkpt lat="48.43089" lon="2.62524">
        <ele>145.8</ele>
        <time>2018-04-15T15:12:24Z</time>
      </trkpt>
      <trkpt lat="48.43093" lon="2.62518">
        <ele>145.8</ele>
        <time>2018-04-15T15:12:25Z</time>
      </trkpt>
      <trkpt lat="48.43096" lon="2.62513">
        <ele>145.7</ele>
        <time>2018-04-15T15:12:26Z</time>
      </trkpt>
      <trkpt lat="48.431" lon="2.62507">
        <ele>145.5</ele>
        <time>2018-04-15T15:12:27Z</time>
      </trkpt>
      <trkpt lat="48.43104" lon="2.62501">
        <ele>145.3</ele>
        <time>2018-04-15T15:12:28Z</time>
      </trkpt>
      <trkpt lat="48.43108" lon="2.62496">
        <ele>145.2</ele>
        <time>2018-04-15T15:12:29Z</time>
      </trkpt>
      <trkpt lat="48.43112" lon="2.62492">
        <ele>145.1</ele>
        <time>2018-04-15T15:12:30Z</time>
      </trkpt>
      <trkpt lat="48.43115" lon="2.62487">
        <ele>145.1</ele>
        <time>2018-04-15T15:12:31Z</time>
      </trkpt>
      <trkpt lat="48.43118" lon="2.62482">
        <ele>145</ele>
        <time>2018-04-15T15:12:32Z</time>
      </trkpt>
      <trkpt lat="48.43121" lon="2.62478">
        <ele>145</ele>
        <time>2018-04-15T15:12:33Z</time>
      </trkpt>
      <trkpt lat="48.43123" lon="2.62474">
        <ele>145</ele>
        <time>2018-04-15T15:12:34Z</time>
      </trkpt>
      <trkpt lat="48.43127" lon="2.62468">
        <ele>145</ele>
        <time>2018-04-15T15:12:35Z</time>
      </trkpt>
      <trkpt lat="48.43131" lon="2.62462">
        <ele>145</ele>
        <time>2018-04-15T15:12:36Z</time>
      </trkpt>
      <trkpt lat="48.43134" lon="2.62457">
        <ele>145</ele>
        <time>2018-04-15T15:12:37Z</time>
      </trkpt>
      <trkpt lat="48.43137" lon="2.62454">
        <ele>145</ele>
        <time>2018-04-15T15:12:38Z</time>
      </trkpt>
      <trkpt lat="48.4314" lon="2.62449">
        <ele>145</ele>
        <time>2018-04-15T15:12:39Z</time>
      </trkpt>
      <trkpt lat="48.43143" lon="2.62446">
        <ele>145</ele>
        <time>2018-04-15T15:12:40Z</time>
      </trkpt>
      <trkpt lat="48.43145" lon="2.62443">
        <ele>145</ele>
        <time>2018-04-15T15:12:41Z</time>
      </trkpt>
      <trkpt lat="48.43148" lon="2.6244">
        <ele>145</ele>
        <time>2018-04-15T15:12:42Z</time>
      </trkpt>
      <trkpt lat="48.43151" lon="2.62437">
        <ele>144.9</ele>
        <time>2018-04-15T15:12:43Z</time>
      </trkpt>
      <trkpt lat="48.43154" lon="2.62434">
        <ele>144.7</ele>
        <time>2018-04-15T15:12:44Z</time>
      </trkpt>
      <trkpt lat="48.43156" lon="2.62431">
        <ele>144.6</ele>
        <time>2018-04-15T15:12:45Z</time>
      </trkpt>
      <trkpt lat="48.43159" lon="2.62428">
        <ele>144.4</ele>
        <time>2018-04-15T15:12:46Z</time>
      </trkpt>
      <trkpt lat="48.43161" lon="2.62425">
        <ele>144.3</ele>
        <time>2018-04-15T15:12:47Z</time>
      </trkpt>
      <trkpt lat="48.43163" lon="2.62422">
        <ele>144.1</ele>
        <time>2018-04-15T15:12:49Z</time>
      </trkpt>
      <trkpt lat="48.43167" lon="2.62418">
        <ele>143.9</ele>
        <time>2018-04-15T15:12:51Z</time>
      </trkpt>
      <trkpt lat="48.43169" lon="2.62416">
        <ele>143.8</ele>
        <time>2018-04-15T15:12:52Z</time>
      </trkpt>
      <trkpt lat="48.43172" lon="2.62412">
        <ele>143.6</ele>
        <time>2018-04-15T15:12:53Z</time>
      </trkpt>
      <trkpt lat="48.43175" lon="2.62409">
        <ele>143.5</ele>
        <time>2018-04-15T15:12:54Z</time>
      </trkpt>
      <trkpt lat="48.43178" lon="2.62408">
        <ele>143.3</ele>
        <time>2018-04-15T15:12:55Z</time>
      </trkpt>
      <trkpt lat="48.43181" lon="2.62405">
        <ele>143.2</ele>
        <time>2018-04-15T15:12:57Z</time>
      </trkpt>
      <trkpt lat="48.43184" lon="2.62402">
        <ele>143</ele>
        <time>2018-04-15T15:13:00Z</time>
      </trkpt>
      <trkpt lat="48.43188" lon="2.62398">
        <ele>142.9</ele>
        <time>2018-04-15T15:13:02Z</time>
      </trkpt>
      <trkpt lat="48.4319" lon="2.62392">
        <ele>142.8</ele>
        <time>2018-04-15T15:13:05Z</time>
      </trkpt>
      <trkpt lat="48.43193" lon="2.62389">
        <ele>142.6</ele>
        <time>2018-04-15T15:13:08Z</time>
      </trkpt>
      <trkpt lat="48.43196" lon="2.62385">
        <ele>142.5</ele>
        <time>2018-04-15T15:13:10Z</time>
      </trkpt>
      <trkpt lat="48.43199" lon="2.6238">
        <ele>142.3</ele>
        <time>2018-04-15T15:13:12Z</time>
      </trkpt>
      <trkpt lat="48.43202" lon="2.62378">
        <ele>142.2</ele>
        <time>2018-04-15T15:13:14Z</time>
      </trkpt>
      <trkpt lat="48.43206" lon="2.62374">
        <ele>141.9</ele>
        <time>2018-04-15T15:13:16Z</time>
      </trkpt>
      <trkpt lat="48.43209" lon="2.62372">
        <ele>141.8</ele>
        <time>2018-04-15T15:13:17Z</time>
      </trkpt>
      <trkpt lat="48.43213" lon="2.62369">
        <ele>141.5</ele>
        <time>2018-04-15T15:13:19Z</time>
      </trkpt>
      <trkpt lat="48.43216" lon="2.62366">
        <ele>141.3</ele>
        <time>2018-04-15T15:13:21Z</time>
      </trkpt>
      <trkpt lat="48.4322" lon="2.62362">
        <ele>141</ele>
        <time>2018-04-15T15:13:23Z</time>
      </trkpt>
      <trkpt lat="48.43223" lon="2.62358">
        <ele>140.7</ele>
        <time>2018-04-15T15:13:25Z</time>
      </trkpt>
      <trkpt lat="48.43227" lon="2.62356">
        <ele>140.4</ele>
        <time>2018-04-15T15:13:27Z</time>
      </trkpt>
      <trkpt lat="48.43231" lon="2.62355">
        <ele>140.1</ele>
        <time>2018-04-15T15:13:31Z</time>
      </trkpt>
      <trkpt lat="48.43235" lon="2.62356">
        <ele>139.9</ele>
        <time>2018-04-15T15:13:33Z</time>
      </trkpt>
      <trkpt lat="48.43239" lon="2.62358">
        <ele>139.5</ele>
        <time>2018-04-15T15:13:35Z</time>
      </trkpt>
      <trkpt lat="48.43241" lon="2.62362">
        <ele>139.3</ele>
        <time>2018-04-15T15:13:37Z</time>
      </trkpt>
      <trkpt lat="48.43242" lon="2.62366">
        <ele>139</ele>
        <time>2018-04-15T15:13:39Z</time>
      </trkpt>
      <trkpt lat="48.43244" lon="2.62374">
        <ele>137.9</ele>
        <time>2018-04-15T15:13:41Z</time>
      </trkpt>
      <trkpt lat="48.43245" lon="2.62379">
        <ele>137.1</ele>
        <time>2018-04-15T15:13:42Z</time>
      </trkpt>
      <trkpt lat="48.43246" lon="2.62387">
        <ele>135.9</ele>
        <time>2018-04-15T15:13:44Z</time>
      </trkpt>
      <trkpt lat="48.43247" lon="2.62391">
        <ele>135.6</ele>
        <time>2018-04-15T15:13:45Z</time>
      </trkpt>
      <trkpt lat="48.43247" lon="2.62397">
        <ele>135.4</ele>
        <time>2018-04-15T15:13:47Z</time>
      </trkpt>
      <trkpt lat="48.43248" lon="2.62404">
        <ele>135.3</ele>
        <time>2018-04-15T15:13:50Z</time>
      </trkpt>
      <trkpt lat="48.43249" lon="2.6241">
        <ele>135.2</ele>
        <time>2018-04-15T15:13:51Z</time>
      </trkpt>
      <trkpt lat="48.43249" lon="2.62417">
        <ele>135.1</ele>
        <time>2018-04-15T15:13:53Z</time>
      </trkpt>
      <trkpt lat="48.4325" lon="2.62421">
        <ele>135</ele>
        <time>2018-04-15T15:13:55Z</time>
      </trkpt>
      <trkpt lat="48.4325" lon="2.62426">
        <ele>134.9</ele>
        <time>2018-04-15T15:13:56Z</time>
      </trkpt>
      <trkpt lat="48.43251" lon="2.62435">
        <ele>134.8</ele>
        <time>2018-04-15T15:13:59Z</time>
      </trkpt>
      <trkpt lat="48.43252" lon="2.6244">
        <ele>134.8</ele>
        <time>2018-04-15T15:14:00Z</time>
      </trkpt>
      <trkpt lat="48.43252" lon="2.62445">
        <ele>134.7</ele>
        <time>2018-04-15T15:14:01Z</time>
      </trkpt>
      <trkpt lat="48.43253" lon="2.62452">
        <ele>134.7</ele>
        <time>2018-04-15T15:14:03Z</time>
      </trkpt>
      <trkpt lat="48.43255" lon="2.62458">
        <ele>134.8</ele>
        <time>2018-04-15T15:14:04Z</time>
      </trkpt>
      <trkpt lat="48.43255" lon="2.62462">
        <ele>134.8</ele>
        <time>2018-04-15T15:14:06Z</time>
      </trkpt>
      <trkpt lat="48.43255" lon="2.62467">
        <ele>134.9</ele>
        <time>2018-04-15T15:14:08Z</time>
      </trkpt>
      <trkpt lat="48.43256" lon="2.62473">
        <ele>135</ele>
        <time>2018-04-15T15:14:11Z</time>
      </trkpt>
      <trkpt lat="48.43256" lon="2.62478">
        <ele>135.1</ele>
        <time>2018-04-15T15:14:17Z</time>
      </trkpt>
      <trkpt lat="48.43255" lon="2.62482">
        <ele>135.2</ele>
        <time>2018-04-15T15:14:22Z</time>
      </trkpt>
      <trkpt lat="48.43254" lon="2.62486">
        <ele>135.6</ele>
        <time>2018-04-15T15:14:29Z</time>
      </trkpt>
      <trkpt lat="48.43254" lon="2.62491">
        <ele>136.2</ele>
        <time>2018-04-15T15:14:38Z</time>
      </trkpt>
      <trkpt lat="48.43255" lon="2.62495">
        <ele>136.7</ele>
        <time>2018-04-15T15:14:41Z</time>
      </trkpt>
      <trkpt lat="48.43256" lon="2.62501">
        <ele>137.8</ele>
        <time>2018-04-15T15:14:45Z</time>
      </trkpt>
      <trkpt lat="48.43257" lon="2.62505">
        <ele>138.8</ele>
        <time>2018-04-15T15:14:47Z</time>
      </trkpt>
      <trkpt lat="48.43258" lon="2.62509">
        <ele>139</ele>
        <time>2018-04-15T15:14:49Z</time>
      </trkpt>
      <trkpt lat="48.43259" lon="2.62514">
        <ele>139.3</ele>
        <time>2018-04-15T15:14:54Z</time>
      </trkpt>
      <trkpt lat="48.43262" lon="2.62516">
        <ele>139.5</ele>
        <time>2018-04-15T15:15:00Z</time>
      </trkpt>
      <trkpt lat="48.43261" lon="2.62513">
        <ele>139.8</ele>
        <time>2018-04-15T15:15:07Z</time>
      </trkpt>
      <trkpt lat="48.43263" lon="2.62517">
        <ele>140</ele>
        <time>2018-04-15T15:15:16Z</time>
      </trkpt>
      <trkpt lat="48.43262" lon="2.62512">
        <ele>139.7</ele>
        <time>2018-04-15T15:15:21Z</time>
      </trkpt>
      <trkpt lat="48.43265" lon="2.62512">
        <ele>139.5</ele>
        <time>2018-04-15T15:15:31Z</time>
      </trkpt>
      <trkpt lat="48.43267" lon="2.62515">
        <ele>139.3</ele>
        <time>2018-04-15T15:15:40Z</time>
      </trkpt>
      <trkpt lat="48.4327" lon="2.62517">
        <ele>139.1</ele>
        <time>2018-04-15T15:15:49Z</time>
      </trkpt>
      <trkpt lat="48.43271" lon="2.62512">
        <ele>138.8</ele>
        <time>2018-04-15T15:15:55Z</time>
      </trkpt>
      <trkpt lat="48.43273" lon="2.62515">
        <ele>138.5</ele>
        <time>2018-04-15T15:16:06Z</time>
      </trkpt>
      <trkpt lat="48.43275" lon="2.6252">
        <ele>138</ele>
        <time>2018-04-15T15:16:10Z</time>
      </trkpt>
      <trkpt lat="48.43277" lon="2.62524">
        <ele>137.2</ele>
        <time>2018-04-15T15:16:13Z</time>
      </trkpt>
      <trkpt lat="48.43279" lon="2.62529">
        <ele>136.3</ele>
        <time>2018-04-15T15:16:19Z</time>
      </trkpt>
      <trkpt lat="48.43282" lon="2.62534">
        <ele>135.3</ele>
        <time>2018-04-15T15:16:23Z</time>
      </trkpt>
      <trkpt lat="48.43285" lon="2.62535">
        <ele>134.4</ele>
        <time>2018-04-15T15:16:25Z</time>
      </trkpt>
      <trkpt lat="48.43289" lon="2.62536">
        <ele>133.4</ele>
        <time>2018-04-15T15:16:27Z</time>
      </trkpt>
      <trkpt lat="48.43292" lon="2.62538">
        <ele>132.8</ele>
        <time>2018-04-15T15:16:28Z</time>
      </trkpt>
      <trkpt lat="48.43294" lon="2.62542">
        <ele>132.2</ele>
        <time>2018-04-15T15:16:29Z</time>
      </trkpt>
      <trkpt lat="48.43296" lon="2.62545">
        <ele>131.6</ele>
        <time>2018-04-15T15:16:30Z</time>
      </trkpt>
      <trkpt lat="48.43299" lon="2.6255">
        <ele>130.8</ele>
        <time>2018-04-15T15:16:32Z</time>
      </trkpt>
      <trkpt lat="48.43303" lon="2.62554">
        <ele>129.8</ele>
        <time>2018-04-15T15:16:34Z</time>
      </trkpt>
      <trkpt lat="48.43305" lon="2.62557">
        <ele>129</ele>
        <time>2018-04-15T15:16:35Z</time>
      </trkpt>
      <trkpt lat="48.43307" lon="2.62562">
        <ele>127.8</ele>
        <time>2018-04-15T15:16:37Z</time>
      </trkpt>
      <trkpt lat="48.43309" lon="2.62568">
        <ele>126.3</ele>
        <time>2018-04-15T15:16:39Z</time>
      </trkpt>
      <trkpt lat="48.4331" lon="2.62572">
        <ele>123.5</ele>
        <time>2018-04-15T15:16:40Z</time>
      </trkpt>
      <trkpt lat="48.43311" lon="2.62576">
        <ele>123.1</ele>
        <time>2018-04-15T15:16:41Z</time>
      </trkpt>
      <trkpt lat="48.43313" lon="2.62582">
        <ele>122.6</ele>
        <time>2018-04-15T15:16:42Z</time>
      </trkpt>
      <trkpt lat="48.43313" lon="2.62588">
        <ele>122.3</ele>
        <time>2018-04-15T15:16:43Z</time>
      </trkpt>
      <trkpt lat="48.43314" lon="2.62593">
        <ele>122.1</ele>
        <time>2018-04-15T15:16:44Z</time>
      </trkpt>
      <trkpt lat="48.43313" lon="2.62598">
        <ele>122</ele>
        <time>2018-04-15T15:16:45Z</time>
      </trkpt>
      <trkpt lat="48.43314" lon="2.62608">
        <ele>121.4</ele>
        <time>2018-04-15T15:16:47Z</time>
      </trkpt>
      <trkpt lat="48.43315" lon="2.62613">
        <ele>121</ele>
        <time>2018-04-15T15:16:49Z</time>
      </trkpt>
      <trkpt lat="48.43316" lon="2.62619">
        <ele>120.6</ele>
        <time>2018-04-15T15:16:51Z</time>
      </trkpt>
      <trkpt lat="48.43316" lon="2.62624">
        <ele>120.3</ele>
        <time>2018-04-15T15:16:54Z</time>
      </trkpt>
      <trkpt lat="48.43315" lon="2.62632">
        <ele>119.6</ele>
        <time>2018-04-15T15:16:56Z</time>
      </trkpt>
      <trkpt lat="48.43315" lon="2.62637">
        <ele>119.3</ele>
        <time>2018-04-15T15:16:57Z</time>
      </trkpt>
      <trkpt lat="48.43314" lon="2.62641">
        <ele>119</ele>
        <time>2018-04-15T15:16:59Z</time>
      </trkpt>
      <trkpt lat="48.43314" lon="2.62646">
        <ele>118.6</ele>
        <time>2018-04-15T15:17:01Z</time>
      </trkpt>
      <trkpt lat="48.43316" lon="2.62649">
        <ele>118.3</ele>
        <time>2018-04-15T15:17:05Z</time>
      </trkpt>
      <trkpt lat="48.43319" lon="2.62652">
        <ele>117.9</ele>
        <time>2018-04-15T15:17:06Z</time>
      </trkpt>
      <trkpt lat="48.4332" lon="2.62656">
        <ele>117.6</ele>
        <time>2018-04-15T15:17:10Z</time>
      </trkpt>
      <trkpt lat="48.43322" lon="2.6266">
        <ele>117.2</ele>
        <time>2018-04-15T15:17:12Z</time>
      </trkpt>
      <trkpt lat="48.43323" lon="2.62663">
        <ele>116.8</ele>
        <time>2018-04-15T15:17:16Z</time>
      </trkpt>
      <trkpt lat="48.43324" lon="2.62668">
        <ele>116.4</ele>
        <time>2018-04-15T15:17:20Z</time>
      </trkpt>
      <trkpt lat="48.43325" lon="2.62674">
        <ele>115.8</ele>
        <time>2018-04-15T15:17:23Z</time>
      </trkpt>
      <trkpt lat="48.43325" lon="2.62681">
        <ele>115.1</ele>
        <time>2018-04-15T15:17:25Z</time>
      </trkpt>
      <trkpt lat="48.43325" lon="2.62688">
        <ele>114.4</ele>
        <time>2018-04-15T15:17:27Z</time>
      </trkpt>
      <trkpt lat="48.43324" lon="2.62692">
        <ele>114</ele>
        <time>2018-04-15T15:17:30Z</time>
      </trkpt>
      <trkpt lat="48.43327" lon="2.62697">
        <ele>113.3</ele>
        <time>2018-04-15T15:17:34Z</time>
      </trkpt>
      <trkpt lat="48.43329" lon="2.627">
        <ele>112.8</ele>
        <time>2018-04-15T15:17:36Z</time>
      </trkpt>
      <trkpt lat="48.43337" lon="2.62701">
        <ele>111.4</ele>
        <time>2018-04-15T15:17:38Z</time>
      </trkpt>
      <trkpt lat="48.43341" lon="2.627">
        <ele>110.9</ele>
        <time>2018-04-15T15:17:39Z</time>
      </trkpt>
      <trkpt lat="48.43343" lon="2.62699">
        <ele>110.5</ele>
        <time>2018-04-15T15:17:40Z</time>
      </trkpt>
      <trkpt lat="48.43347" lon="2.62698">
        <ele>110.1</ele>
        <time>2018-04-15T15:17:41Z</time>
      </trkpt>
      <trkpt lat="48.43352" lon="2.62699">
        <ele>103.5</ele>
        <time>2018-04-15T15:17:43Z</time>
      </trkpt>
      <trkpt lat="48.43356" lon="2.62698">
        <ele>103.1</ele>
        <time>2018-04-15T15:17:44Z</time>
      </trkpt>
      <trkpt lat="48.43359" lon="2.62697">
        <ele>102.8</ele>
        <time>2018-04-15T15:17:45Z</time>
      </trkpt>
      <trkpt lat="48.43363" lon="2.62698">
        <ele>102.5</ele>
        <time>2018-04-15T15:17:47Z</time>
      </trkpt>
      <trkpt lat="48.43366" lon="2.62699">
        <ele>102.2</ele>
        <time>2018-04-15T15:17:48Z</time>
      </trkpt>
      <trkpt lat="48.43369" lon="2.62703">
        <ele>102.2</ele>
        <time>2018-04-15T15:17:52Z</time>
      </trkpt>
      <trkpt lat="48.43372" lon="2.62707">
        <ele>102.3</ele>
        <time>2018-04-15T15:17:54Z</time>
      </trkpt>
      <trkpt lat="48.43373" lon="2.62712">
        <ele>102.4</ele>
        <time>2018-04-15T15:17:55Z</time>
      </trkpt>
      <trkpt lat="48.43376" lon="2.62718">
        <ele>102.5</ele>
        <time>2018-04-15T15:17:56Z</time>
      </trkpt>
      <trkpt lat="48.43377" lon="2.62724">
        <ele>103.2</ele>
        <time>2018-04-15T15:17:57Z</time>
      </trkpt>
      <trkpt lat="48.43378" lon="2.62728">
        <ele>103.2</ele>
        <time>2018-04-15T15:17:58Z</time>
      </trkpt>
      <trkpt lat="48.4338" lon="2.62733">
        <ele>103.1</ele>
        <time>2018-04-15T15:17:59Z</time>
      </trkpt>
      <trkpt lat="48.43381" lon="2.62737">
        <ele>103.1</ele>
        <time>2018-04-15T15:18:00Z</time>
      </trkpt>
      <trkpt lat="48.43382" lon="2.62743">
        <ele>103</ele>
        <time>2018-04-15T15:18:01Z</time>
      </trkpt>
      <trkpt lat="48.43382" lon="2.62749">
        <ele>103</ele>
        <time>2018-04-15T15:18:02Z</time>
      </trkpt>
      <trkpt lat="48.43383" lon="2.62757">
        <ele>103</ele>
        <time>2018-04-15T15:18:03Z</time>
      </trkpt>
      <trkpt lat="48.43384" lon="2.62765">
        <ele>102.9</ele>
        <time>2018-04-15T15:18:04Z</time>
      </trkpt>
      <trkpt lat="48.43384" lon="2.62773">
        <ele>102.5</ele>
        <time>2018-04-15T15:18:05Z</time>
      </trkpt>
      <trkpt lat="48.43386" lon="2.62778">
        <ele>102.2</ele>
        <time>2018-04-15T15:18:07Z</time>
      </trkpt>
      <trkpt lat="48.43391" lon="2.62781">
        <ele>101.7</ele>
        <time>2018-04-15T15:18:09Z</time>
      </trkpt>
      <trkpt lat="48.43395" lon="2.62781">
        <ele>101.4</ele>
        <time>2018-04-15T15:18:10Z</time>
      </trkpt>
      <trkpt lat="48.43401" lon="2.62779">
        <ele>101</ele>
        <time>2018-04-15T15:18:12Z</time>
      </trkpt>
      <trkpt lat="48.43404" lon="2.62777">
        <ele>100.7</ele>
        <time>2018-04-15T15:18:13Z</time>
      </trkpt>
      <trkpt lat="48.43409" lon="2.62775">
        <ele>100.3</ele>
        <time>2018-04-15T15:18:14Z</time>
      </trkpt>
      <trkpt lat="48.43412" lon="2.62773">
        <ele>99.9</ele>
        <time>2018-04-15T15:18:15Z</time>
      </trkpt>
      <trkpt lat="48.43416" lon="2.62772">
        <ele>99.4</ele>
        <time>2018-04-15T15:18:16Z</time>
      </trkpt>
      <trkpt lat="48.43421" lon="2.62771">
        <ele>98.9</ele>
        <time>2018-04-15T15:18:17Z</time>
      </trkpt>
      <trkpt lat="48.43424" lon="2.6277">
        <ele>98.6</ele>
        <time>2018-04-15T15:18:18Z</time>
      </trkpt>
      <trkpt lat="48.43428" lon="2.62769">
        <ele>98.1</ele>
        <time>2018-04-15T15:18:19Z</time>
      </trkpt>
      <trkpt lat="48.43432" lon="2.62769">
        <ele>97.7</ele>
        <time>2018-04-15T15:18:20Z</time>
      </trkpt>
      <trkpt lat="48.43437" lon="2.62768">
        <ele>97.3</ele>
        <time>2018-04-15T15:18:21Z</time>
      </trkpt>
      <trkpt lat="48.43443" lon="2.62768">
        <ele>96.9</ele>
        <time>2018-04-15T15:18:22Z</time>
      </trkpt>
      <trkpt lat="48.43448" lon="2.62769">
        <ele>96.7</ele>
        <time>2018-04-15T15:18:23Z</time>
      </trkpt>
      <trkpt lat="48.43452" lon="2.6277">
        <ele>96.4</ele>
        <time>2018-04-15T15:18:24Z</time>
      </trkpt>
      <trkpt lat="48.43455" lon="2.62772">
        <ele>96</ele>
        <time>2018-04-15T15:18:25Z</time>
      </trkpt>
      <trkpt lat="48.43459" lon="2.62772">
        <ele>96</ele>
        <time>2018-04-15T15:18:26Z</time>
      </trkpt>
      <trkpt lat="48.43461" lon="2.62771">
        <ele>96</ele>
        <time>2018-04-15T15:18:27Z</time>
      </trkpt>
      <trkpt lat="48.43465" lon="2.62769">
        <ele>96</ele>
        <time>2018-04-15T15:18:28Z</time>
      </trkpt>
      <trkpt lat="48.43467" lon="2.62767">
        <ele>96</ele>
        <time>2018-04-15T15:18:29Z</time>
      </trkpt>
      <trkpt lat="48.43471" lon="2.62767">
        <ele>96</ele>
        <time>2018-04-15T15:18:31Z</time>
      </trkpt>
      <trkpt lat="48.43475" lon="2.62767">
        <ele>96</ele>
        <time>2018-04-15T15:18:33Z</time>
      </trkpt>
      <trkpt lat="48.4348" lon="2.62767">
        <ele>96</ele>
        <time>2018-04-15T15:18:35Z</time>
      </trkpt>
      <trkpt lat="48.43484" lon="2.62771">
        <ele>96.2</ele>
        <time>2018-04-15T15:18:37Z</time>
      </trkpt>
      <trkpt lat="48.43487" lon="2.62774">
        <ele>96.5</ele>
        <time>2018-04-15T15:18:39Z</time>
      </trkpt>
      <trkpt lat="48.4349" lon="2.62776">
        <ele>96.6</ele>
        <time>2018-04-15T15:18:40Z</time>
      </trkpt>
      <trkpt lat="48.43493" lon="2.62778">
        <ele>96.7</ele>
        <time>2018-04-15T15:18:41Z</time>
      </trkpt>
      <trkpt lat="48.43496" lon="2.6278">
        <ele>96.8</ele>
        <time>2018-04-15T15:18:42Z</time>
      </trkpt>
      <trkpt lat="48.435" lon="2.62782">
        <ele>97</ele>
        <time>2018-04-15T15:18:43Z</time>
      </trkpt>
      <trkpt lat="48.43505" lon="2.62783">
        <ele>97.2</ele>
        <time>2018-04-15T15:18:44Z</time>
      </trkpt>
      <trkpt lat="48.43509" lon="2.62782">
        <ele>97.2</ele>
        <time>2018-04-15T15:18:45Z</time>
      </trkpt>
      <trkpt lat="48.43512" lon="2.6278">
        <ele>97.3</ele>
        <time>2018-04-15T15:18:46Z</time>
      </trkpt>
      <trkpt lat="48.43518" lon="2.62778">
        <ele>97.5</ele>
        <time>2018-04-15T15:18:48Z</time>
      </trkpt>
      <trkpt lat="48.43523" lon="2.62777">
        <ele>97.6</ele>
        <time>2018-04-15T15:18:49Z</time>
      </trkpt>
      <trkpt lat="48.43528" lon="2.62776">
        <ele>97.7</ele>
        <time>2018-04-15T15:18:50Z</time>
      </trkpt>
      <trkpt lat="48.43531" lon="2.62774">
        <ele>97.7</ele>
        <time>2018-04-15T15:18:51Z</time>
      </trkpt>
      <trkpt lat="48.43534" lon="2.62771">
        <ele>97.8</ele>
        <time>2018-04-15T15:18:52Z</time>
      </trkpt>
      <trkpt lat="48.43538" lon="2.6277">
        <ele>98</ele>
        <time>2018-04-15T15:18:53Z</time>
      </trkpt>
      <trkpt lat="48.43543" lon="2.6277">
        <ele>98.1</ele>
        <time>2018-04-15T15:18:54Z</time>
      </trkpt>
      <trkpt lat="48.43547" lon="2.62768">
        <ele>98.2</ele>
        <time>2018-04-15T15:18:55Z</time>
      </trkpt>
      <trkpt lat="48.4355" lon="2.62767">
        <ele>98.3</ele>
        <time>2018-04-15T15:18:56Z</time>
      </trkpt>
      <trkpt lat="48.43553" lon="2.62765">
        <ele>98.3</ele>
        <time>2018-04-15T15:18:57Z</time>
      </trkpt>
      <trkpt lat="48.43557" lon="2.62761">
        <ele>98.4</ele>
        <time>2018-04-15T15:18:59Z</time>
      </trkpt>
      <trkpt lat="48.43559" lon="2.62755">
        <ele>98.4</ele>
        <time>2018-04-15T15:19:01Z</time>
      </trkpt>
      <trkpt lat="48.43563" lon="2.62747">
        <ele>98.5</ele>
        <time>2018-04-15T15:19:03Z</time>
      </trkpt>
      <trkpt lat="48.43565" lon="2.6274">
        <ele>98.5</ele>
        <time>2018-04-15T15:19:05Z</time>
      </trkpt>
      <trkpt lat="48.43567" lon="2.62736">
        <ele>98.6</ele>
        <time>2018-04-15T15:19:06Z</time>
      </trkpt>
      <trkpt lat="48.43569" lon="2.62729">
        <ele>98.6</ele>
        <time>2018-04-15T15:19:07Z</time>
      </trkpt>
      <trkpt lat="48.43572" lon="2.62722">
        <ele>98.6</ele>
        <time>2018-04-15T15:19:08Z</time>
      </trkpt>
      <trkpt lat="48.43575" lon="2.62714">
        <ele>98.5</ele>
        <time>2018-04-15T15:19:09Z</time>
      </trkpt>
      <trkpt lat="48.43577" lon="2.62707">
        <ele>98.3</ele>
        <time>2018-04-15T15:19:10Z</time>
      </trkpt>
      <trkpt lat="48.43579" lon="2.62701">
        <ele>98.2</ele>
        <time>2018-04-15T15:19:11Z</time>
      </trkpt>
      <trkpt lat="48.43582" lon="2.62693">
        <ele>98</ele>
        <time>2018-04-15T15:19:12Z</time>
      </trkpt>
      <trkpt lat="48.43586" lon="2.62686">
        <ele>98</ele>
        <time>2018-04-15T15:19:13Z</time>
      </trkpt>
      <trkpt lat="48.43591" lon="2.62682">
        <ele>98.1</ele>
        <time>2018-04-15T15:19:14Z</time>
      </trkpt>
      <trkpt lat="48.43596" lon="2.62679">
        <ele>98.1</ele>
        <time>2018-04-15T15:19:15Z</time>
      </trkpt>
      <trkpt lat="48.43601" lon="2.62676">
        <ele>98.2</ele>
        <time>2018-04-15T15:19:16Z</time>
      </trkpt>
      <trkpt lat="48.43606" lon="2.62673">
        <ele>98.3</ele>
        <time>2018-04-15T15:19:17Z</time>
      </trkpt>
      <trkpt lat="48.43611" lon="2.62671">
        <ele>98.4</ele>
        <time>2018-04-15T15:19:18Z</time>
      </trkpt>
      <trkpt lat="48.43615" lon="2.62668">
        <ele>98.4</ele>
        <time>2018-04-15T15:19:19Z</time>
      </trkpt>
      <trkpt lat="48.4362" lon="2.62665">
        <ele>98.5</ele>
        <time>2018-04-15T15:19:20Z</time>
      </trkpt>
      <trkpt lat="48.43623" lon="2.62663">
        <ele>98.5</ele>
        <time>2018-04-15T15:19:21Z</time>
      </trkpt>
      <trkpt lat="48.43626" lon="2.6266">
        <ele>98.6</ele>
        <time>2018-04-15T15:19:22Z</time>
      </trkpt>
      <trkpt lat="48.43629" lon="2.62655">
        <ele>98.6</ele>
        <time>2018-04-15T15:19:24Z</time>
      </trkpt>
      <trkpt lat="48.43632" lon="2.6265">
        <ele>98.6</ele>
        <time>2018-04-15T15:19:25Z</time>
      </trkpt>
      <trkpt lat="48.43634" lon="2.62645">
        <ele>98.7</ele>
        <time>2018-04-15T15:19:26Z</time>
      </trkpt>
      <trkpt lat="48.43635" lon="2.62642">
        <ele>98.7</ele>
        <time>2018-04-15T15:19:27Z</time>
      </trkpt>
      <trkpt lat="48.43636" lon="2.62637">
        <ele>98.7</ele>
        <time>2018-04-15T15:19:28Z</time>
      </trkpt>
      <trkpt lat="48.43638" lon="2.62633">
        <ele>98.8</ele>
        <time>2018-04-15T15:19:29Z</time>
      </trkpt>
      <trkpt lat="48.43639" lon="2.62629">
        <ele>98.8</ele>
        <time>2018-04-15T15:19:30Z</time>
      </trkpt>
      <trkpt lat="48.4364" lon="2.62624">
        <ele>98.9</ele>
        <time>2018-04-15T15:19:31Z</time>
      </trkpt>
      <trkpt lat="48.43642" lon="2.62619">
        <ele>99</ele>
        <time>2018-04-15T15:19:32Z</time>
      </trkpt>
      <trkpt lat="48.43643" lon="2.62614">
        <ele>99</ele>
        <time>2018-04-15T15:19:33Z</time>
      </trkpt>
      <trkpt lat="48.43646" lon="2.62605">
        <ele>98.9</ele>
        <time>2018-04-15T15:19:34Z</time>
      </trkpt>
      <trkpt lat="48.43647" lon="2.626">
        <ele>98.9</ele>
        <time>2018-04-15T15:19:35Z</time>
      </trkpt>
      <trkpt lat="48.4365" lon="2.62593">
        <ele>98.9</ele>
        <time>2018-04-15T15:19:36Z</time>
      </trkpt>
      <trkpt lat="48.43652" lon="2.62586">
        <ele>98.9</ele>
        <time>2018-04-15T15:19:37Z</time>
      </trkpt>
      <trkpt lat="48.43653" lon="2.62582">
        <ele>98.9</ele>
        <time>2018-04-15T15:19:38Z</time>
      </trkpt>
      <trkpt lat="48.43655" lon="2.62576">
        <ele>98.8</ele>
        <time>2018-04-15T15:19:39Z</time>
      </trkpt>
      <trkpt lat="48.43657" lon="2.62573">
        <ele>98.8</ele>
        <time>2018-04-15T15:19:40Z</time>
      </trkpt>
      <trkpt lat="48.43659" lon="2.62567">
        <ele>98.8</ele>
        <time>2018-04-15T15:19:41Z</time>
      </trkpt>
      <trkpt lat="48.43661" lon="2.62561">
        <ele>98.8</ele>
        <time>2018-04-15T15:19:42Z</time>
      </trkpt>
      <trkpt lat="48.43663" lon="2.62557">
        <ele>98.8</ele>
        <time>2018-04-15T15:19:43Z</time>
      </trkpt>
      <trkpt lat="48.43665" lon="2.62553">
        <ele>98.7</ele>
        <time>2018-04-15T15:19:44Z</time>
      </trkpt>
      <trkpt lat="48.43666" lon="2.62549">
        <ele>98.7</ele>
        <time>2018-04-15T15:19:45Z</time>
      </trkpt>
      <trkpt lat="48.43667" lon="2.62543">
        <ele>98.7</ele>
        <time>2018-04-15T15:19:46Z</time>
      </trkpt>
      <trkpt lat="48.43669" lon="2.62537">
        <ele>98.7</ele>
        <time>2018-04-15T15:19:48Z</time>
      </trkpt>
      <trkpt lat="48.4367" lon="2.62533">
        <ele>98.6</ele>
        <time>2018-04-15T15:19:49Z</time>
      </trkpt>
      <trkpt lat="48.43672" lon="2.62527">
        <ele>98.6</ele>
        <time>2018-04-15T15:19:50Z</time>
      </trkpt>
      <trkpt lat="48.43673" lon="2.62523">
        <ele>98.5</ele>
        <time>2018-04-15T15:19:51Z</time>
      </trkpt>
      <trkpt lat="48.43675" lon="2.62519">
        <ele>98.5</ele>
        <time>2018-04-15T15:19:52Z</time>
      </trkpt>
      <trkpt lat="48.43678" lon="2.62513">
        <ele>98.4</ele>
        <time>2018-04-15T15:19:53Z</time>
      </trkpt>
      <trkpt lat="48.4368" lon="2.62508">
        <ele>98.4</ele>
        <time>2018-04-15T15:19:54Z</time>
      </trkpt>
      <trkpt lat="48.43683" lon="2.62504">
        <ele>98.4</ele>
        <time>2018-04-15T15:19:55Z</time>
      </trkpt>
      <trkpt lat="48.43685" lon="2.62499">
        <ele>98.3</ele>
        <time>2018-04-15T15:19:56Z</time>
      </trkpt>
      <trkpt lat="48.43691" lon="2.62488">
        <ele>98.2</ele>
        <time>2018-04-15T15:19:57Z</time>
      </trkpt>
      <trkpt lat="48.43695" lon="2.6248">
        <ele>98.2</ele>
        <time>2018-04-15T15:19:58Z</time>
      </trkpt>
      <trkpt lat="48.43698" lon="2.62475">
        <ele>98.1</ele>
        <time>2018-04-15T15:19:59Z</time>
      </trkpt>
      <trkpt lat="48.437" lon="2.62471">
        <ele>98.1</ele>
        <time>2018-04-15T15:20:00Z</time>
      </trkpt>
      <trkpt lat="48.43703" lon="2.62467">
        <ele>98</ele>
        <time>2018-04-15T15:20:01Z</time>
      </trkpt>
      <trkpt lat="48.43708" lon="2.62462">
        <ele>97.9</ele>
        <time>2018-04-15T15:20:02Z</time>
      </trkpt>
      <trkpt lat="48.43713" lon="2.62457">
        <ele>97.8</ele>
        <time>2018-04-15T15:20:03Z</time>
      </trkpt>
      <trkpt lat="48.43718" lon="2.62452">
        <ele>97.7</ele>
        <time>2018-04-15T15:20:04Z</time>
      </trkpt>
      <trkpt lat="48.43721" lon="2.62448">
        <ele>97.6</ele>
        <time>2018-04-15T15:20:05Z</time>
      </trkpt>
      <trkpt lat="48.43725" lon="2.62446">
        <ele>97.5</ele>
        <time>2018-04-15T15:20:06Z</time>
      </trkpt>
      <trkpt lat="48.4373" lon="2.62442">
        <ele>97.4</ele>
        <time>2018-04-15T15:20:07Z</time>
      </trkpt>
      <trkpt lat="48.43735" lon="2.62438">
        <ele>97.3</ele>
        <time>2018-04-15T15:20:08Z</time>
      </trkpt>
      <trkpt lat="48.43738" lon="2.62435">
        <ele>97.3</ele>
        <time>2018-04-15T15:20:09Z</time>
      </trkpt>
      <trkpt lat="48.43743" lon="2.62432">
        <ele>97.2</ele>
        <time>2018-04-15T15:20:11Z</time>
      </trkpt>
      <trkpt lat="48.43748" lon="2.62431">
        <ele>97.1</ele>
        <time>2018-04-15T15:20:12Z</time>
      </trkpt>
      <trkpt lat="48.43751" lon="2.62432">
        <ele>97.1</ele>
        <time>2018-04-15T15:20:13Z</time>
      </trkpt>
      <trkpt lat="48.43754" lon="2.62433">
        <ele>97</ele>
        <time>2018-04-15T15:20:14Z</time>
      </trkpt>
      <trkpt lat="48.43758" lon="2.62433">
        <ele>96.9</ele>
        <time>2018-04-15T15:20:15Z</time>
      </trkpt>
      <trkpt lat="48.43761" lon="2.62433">
        <ele>96.9</ele>
        <time>2018-04-15T15:20:16Z</time>
      </trkpt>
      <trkpt lat="48.43764" lon="2.62433">
        <ele>96.8</ele>
        <time>2018-04-15T15:20:17Z</time>
      </trkpt>
      <trkpt lat="48.43768" lon="2.62435">
        <ele>96.7</ele>
        <time>2018-04-15T15:20:18Z</time>
      </trkpt>
      <trkpt lat="48.43772" lon="2.62435">
        <ele>96.7</ele>
        <time>2018-04-15T15:20:19Z</time>
      </trkpt>
      <trkpt lat="48.43775" lon="2.62435">
        <ele>96.6</ele>
        <time>2018-04-15T15:20:20Z</time>
      </trkpt>
      <trkpt lat="48.43779" lon="2.62435">
        <ele>96.6</ele>
        <time>2018-04-15T15:20:21Z</time>
      </trkpt>
      <trkpt lat="48.43782" lon="2.62435">
        <ele>96.5</ele>
        <time>2018-04-15T15:20:22Z</time>
      </trkpt>
      <trkpt lat="48.43785" lon="2.62434">
        <ele>96.5</ele>
        <time>2018-04-15T15:20:23Z</time>
      </trkpt>
      <trkpt lat="48.43789" lon="2.62433">
        <ele>96.5</ele>
        <time>2018-04-15T15:20:24Z</time>
      </trkpt>
      <trkpt lat="48.43792" lon="2.62432">
        <ele>96.4</ele>
        <time>2018-04-15T15:20:25Z</time>
      </trkpt>
      <trkpt lat="48.43796" lon="2.62432">
        <ele>96.4</ele>
        <time>2018-04-15T15:20:26Z</time>
      </trkpt>
      <trkpt lat="48.43801" lon="2.62433">
        <ele>96.3</ele>
        <time>2018-04-15T15:20:27Z</time>
      </trkpt>
      <trkpt lat="48.43805" lon="2.62433">
        <ele>96.2</ele>
        <time>2018-04-15T15:20:28Z</time>
      </trkpt>
      <trkpt lat="48.43809" lon="2.62433">
        <ele>96.2</ele>
        <time>2018-04-15T15:20:29Z</time>
      </trkpt>
      <trkpt lat="48.43815" lon="2.62434">
        <ele>96.1</ele>
        <time>2018-04-15T15:20:31Z</time>
      </trkpt>
      <trkpt lat="48.43821" lon="2.62436">
        <ele>96</ele>
        <time>2018-04-15T15:20:33Z</time>
      </trkpt>
      <trkpt lat="48.43826" lon="2.6244">
        <ele>95.9</ele>
        <time>2018-04-15T15:20:35Z</time>
      </trkpt>
      <trkpt lat="48.43829" lon="2.62443">
        <ele>95.9</ele>
        <time>2018-04-15T15:20:36Z</time>
      </trkpt>
      <trkpt lat="48.43834" lon="2.62448">
        <ele>95.9</ele>
        <time>2018-04-15T15:20:38Z</time>
      </trkpt>
      <trkpt lat="48.43837" lon="2.62451">
        <ele>95.9</ele>
        <time>2018-04-15T15:20:39Z</time>
      </trkpt>
      <trkpt lat="48.43841" lon="2.62455">
        <ele>96.1</ele>
        <time>2018-04-15T15:20:40Z</time>
      </trkpt>
      <trkpt lat="48.43844" lon="2.62457">
        <ele>96.2</ele>
        <time>2018-04-15T15:20:41Z</time>
      </trkpt>
      <trkpt lat="48.43848" lon="2.62461">
        <ele>96.6</ele>
        <time>2018-04-15T15:20:42Z</time>
      </trkpt>
      <trkpt lat="48.43852" lon="2.62464">
        <ele>96.9</ele>
        <time>2018-04-15T15:20:43Z</time>
      </trkpt>
      <trkpt lat="48.43858" lon="2.62465">
        <ele>97.2</ele>
        <time>2018-04-15T15:20:44Z</time>
      </trkpt>
      <trkpt lat="48.43863" lon="2.62468">
        <ele>97.1</ele>
        <time>2018-04-15T15:20:45Z</time>
      </trkpt>
      <trkpt lat="48.43866" lon="2.62471">
        <ele>97</ele>
        <time>2018-04-15T15:20:46Z</time>
      </trkpt>
      <trkpt lat="48.43869" lon="2.62473">
        <ele>97</ele>
        <time>2018-04-15T15:20:47Z</time>
      </trkpt>
      <trkpt lat="48.43872" lon="2.62475">
        <ele>97.1</ele>
        <time>2018-04-15T15:20:48Z</time>
      </trkpt>
      <trkpt lat="48.43875" lon="2.62477">
        <ele>97.4</ele>
        <time>2018-04-15T15:20:49Z</time>
      </trkpt>
      <trkpt lat="48.43879" lon="2.62479">
        <ele>97.8</ele>
        <time>2018-04-15T15:20:50Z</time>
      </trkpt>
      <trkpt lat="48.43884" lon="2.62483">
        <ele>98.3</ele>
        <time>2018-04-15T15:20:51Z</time>
      </trkpt>
      <trkpt lat="48.43889" lon="2.62488">
        <ele>98.9</ele>
        <time>2018-04-15T15:20:52Z</time>
      </trkpt>
      <trkpt lat="48.43892" lon="2.62491">
        <ele>99.2</ele>
        <time>2018-04-15T15:20:53Z</time>
      </trkpt>
      <trkpt lat="48.43896" lon="2.62493">
        <ele>99.5</ele>
        <time>2018-04-15T15:20:54Z</time>
      </trkpt>
      <trkpt lat="48.43901" lon="2.62494">
        <ele>99.8</ele>
        <time>2018-04-15T15:20:55Z</time>
      </trkpt>
      <trkpt lat="48.43904" lon="2.62494">
        <ele>100</ele>
        <time>2018-04-15T15:20:56Z</time>
      </trkpt>
      <trkpt lat="48.4391" lon="2.62492">
        <ele>100.2</ele>
        <time>2018-04-15T15:20:58Z</time>
      </trkpt>
      <trkpt lat="48.43912" lon="2.62492">
        <ele>100.2</ele>
        <time>2018-04-15T15:20:59Z</time>
      </trkpt>
      <trkpt lat="48.43917" lon="2.62489">
        <ele>100</ele>
        <time>2018-04-15T15:21:00Z</time>
      </trkpt>
      <trkpt lat="48.4392" lon="2.62487">
        <ele>99.8</ele>
        <time>2018-04-15T15:21:01Z</time>
      </trkpt>
      <trkpt lat="48.43923" lon="2.62484">
        <ele>99.4</ele>
        <time>2018-04-15T15:21:02Z</time>
      </trkpt>
      <trkpt lat="48.43926" lon="2.62482">
        <ele>99.3</ele>
        <time>2018-04-15T15:21:03Z</time>
      </trkpt>
      <trkpt lat="48.43929" lon="2.62481">
        <ele>99.2</ele>
        <time>2018-04-15T15:21:04Z</time>
      </trkpt>
      <trkpt lat="48.43931" lon="2.6248">
        <ele>99.1</ele>
        <time>2018-04-15T15:21:05Z</time>
      </trkpt>
      <trkpt lat="48.43935" lon="2.6248">
        <ele>98.9</ele>
        <time>2018-04-15T15:21:06Z</time>
      </trkpt>
      <trkpt lat="48.43939" lon="2.6248">
        <ele>98.8</ele>
        <time>2018-04-15T15:21:07Z</time>
      </trkpt>
      <trkpt lat="48.43943" lon="2.62482">
        <ele>98.8</ele>
        <time>2018-04-15T15:21:08Z</time>
      </trkpt>
      <trkpt lat="48.43946" lon="2.62484">
        <ele>98.8</ele>
        <time>2018-04-15T15:21:09Z</time>
      </trkpt>
      <trkpt lat="48.43949" lon="2.62485">
        <ele>98.8</ele>
        <time>2018-04-15T15:21:10Z</time>
      </trkpt>
      <trkpt lat="48.43953" lon="2.62485">
        <ele>98.8</ele>
        <time>2018-04-15T15:21:11Z</time>
      </trkpt>
      <trkpt lat="48.43956" lon="2.62484">
        <ele>98.8</ele>
        <time>2018-04-15T15:21:12Z</time>
      </trkpt>
      <trkpt lat="48.43959" lon="2.62483">
        <ele>98.8</ele>
        <time>2018-04-15T15:21:13Z</time>
      </trkpt>
      <trkpt lat="48.43962" lon="2.62482">
        <ele>98.8</ele>
        <time>2018-04-15T15:21:14Z</time>
      </trkpt>
      <trkpt lat="48.43966" lon="2.62481">
        <ele>98.7</ele>
        <time>2018-04-15T15:21:15Z</time>
      </trkpt>
      <trkpt lat="48.4397" lon="2.62478">
        <ele>98.6</ele>
        <time>2018-04-15T15:21:17Z</time>
      </trkpt>
      <trkpt lat="48.43973" lon="2.62475">
        <ele>98.4</ele>
        <time>2018-04-15T15:21:19Z</time>
      </trkpt>
      <trkpt lat="48.43977" lon="2.62471">
        <ele>98.3</ele>
        <time>2018-04-15T15:21:21Z</time>
      </trkpt>
      <trkpt lat="48.4398" lon="2.62469">
        <ele>98.2</ele>
        <time>2018-04-15T15:21:22Z</time>
      </trkpt>
      <trkpt lat="48.43983" lon="2.62465">
        <ele>98</ele>
        <time>2018-04-15T15:21:23Z</time>
      </trkpt>
      <trkpt lat="48.43988" lon="2.62461">
        <ele>97.9</ele>
        <time>2018-04-15T15:21:25Z</time>
      </trkpt>
      <trkpt lat="48.43991" lon="2.62459">
        <ele>97.8</ele>
        <time>2018-04-15T15:21:26Z</time>
      </trkpt>
      <trkpt lat="48.43994" lon="2.62459">
        <ele>97.7</ele>
        <time>2018-04-15T15:21:27Z</time>
      </trkpt>
      <trkpt lat="48.43997" lon="2.62458">
        <ele>97.7</ele>
        <time>2018-04-15T15:21:30Z</time>
      </trkpt>
      <trkpt lat="48.44" lon="2.62458">
        <ele>97.6</ele>
        <time>2018-04-15T15:21:33Z</time>
      </trkpt>
      <trkpt lat="48.44004" lon="2.62457">
        <ele>97.4</ele>
        <time>2018-04-15T15:21:35Z</time>
      </trkpt>
      <trkpt lat="48.44009" lon="2.62456">
        <ele>97.3</ele>
        <time>2018-04-15T15:21:37Z</time>
      </trkpt>
      <trkpt lat="48.44012" lon="2.62455">
        <ele>97.1</ele>
        <time>2018-04-15T15:21:53Z</time>
      </trkpt>
      <trkpt lat="48.44014" lon="2.62453">
        <ele>97.1</ele>
        <time>2018-04-15T15:22:06Z</time>
      </trkpt>
      <trkpt lat="48.44017" lon="2.62451">
        <ele>97</ele>
        <time>2018-04-15T15:22:14Z</time>
      </trkpt>
      <trkpt lat="48.4402" lon="2.62448">
        <ele>97</ele>
        <time>2018-04-15T15:22:23Z</time>
      </trkpt>
      <trkpt lat="48.44018" lon="2.62451">
        <ele>97</ele>
        <time>2018-04-15T15:22:25Z</time>
      </trkpt>
      <trkpt lat="48.44016" lon="2.62455">
        <ele>96.9</ele>
        <time>2018-04-15T15:22:27Z</time>
      </trkpt>
      <trkpt lat="48.44014" lon="2.62459">
        <ele>96.9</ele>
        <time>2018-04-15T15:22:29Z</time>
      </trkpt>
      <trkpt lat="48.44016" lon="2.62456">
        <ele>96.9</ele>
        <time>2018-04-15T15:22:34Z</time>
      </trkpt>
      <trkpt lat="48.44019" lon="2.62452">
        <ele>96.9</ele>
        <time>2018-04-15T15:22:37Z</time>
      </trkpt>
      <trkpt lat="48.44022" lon="2.62448">
        <ele>96.9</ele>
        <time>2018-04-15T15:22:39Z</time>
      </trkpt>
      <trkpt lat="48.44022" lon="2.62453">
        <ele>96.9</ele>
        <time>2018-04-15T15:22:43Z</time>
      </trkpt>
      <trkpt lat="48.44025" lon="2.62448">
        <ele>96.9</ele>
        <time>2018-04-15T15:22:52Z</time>
      </trkpt>
      <trkpt lat="48.44027" lon="2.62445">
        <ele>96.9</ele>
        <time>2018-04-15T15:22:53Z</time>
      </trkpt>
      <trkpt lat="48.4403" lon="2.62442">
        <ele>96.9</ele>
        <time>2018-04-15T15:22:55Z</time>
      </trkpt>
      <trkpt lat="48.44028" lon="2.62445">
        <ele>96.9</ele>
        <time>2018-04-15T15:23:05Z</time>
      </trkpt>
      <trkpt lat="48.44028" lon="2.62449">
        <ele>96.9</ele>
        <time>2018-04-15T15:23:21Z</time>
      </trkpt>
      <trkpt lat="48.44027" lon="2.62454">
        <ele>97</ele>
        <time>2018-04-15T15:23:26Z</time>
      </trkpt>
      <trkpt lat="48.44024" lon="2.62457">
        <ele>97</ele>
        <time>2018-04-15T15:23:29Z</time>
      </trkpt>
      <trkpt lat="48.44023" lon="2.6246">
        <ele>97</ele>
        <time>2018-04-15T15:23:33Z</time>
      </trkpt>
      <trkpt lat="48.44026" lon="2.62458">
        <ele>97</ele>
        <time>2018-04-15T15:23:42Z</time>
      </trkpt>
      <trkpt lat="48.44029" lon="2.62455">
        <ele>97</ele>
        <time>2018-04-15T15:23:43Z</time>
      </trkpt>
      <trkpt lat="48.44031" lon="2.62454">
        <ele>97</ele>
        <time>2018-04-15T15:23:46Z</time>
      </trkpt>
      <trkpt lat="48.44034" lon="2.62453">
        <ele>97</ele>
        <time>2018-04-15T15:23:52Z</time>
      </trkpt>
      <trkpt lat="48.44031" lon="2.62455">
        <ele>97</ele>
        <time>2018-04-15T15:23:54Z</time>
      </trkpt>
      <trkpt lat="48.44027" lon="2.62457">
        <ele>97</ele>
        <time>2018-04-15T15:23:56Z</time>
      </trkpt>
      <trkpt lat="48.44023" lon="2.62458">
        <ele>97</ele>
        <time>2018-04-15T15:23:57Z</time>
      </trkpt>
      <trkpt lat="48.4402" lon="2.6246">
        <ele>97</ele>
        <time>2018-04-15T15:24:05Z</time>
      </trkpt>
      <trkpt lat="48.44022" lon="2.62457">
        <ele>97</ele>
        <time>2018-04-15T15:24:16Z</time>
      </trkpt>
      <trkpt lat="48.44026" lon="2.62458">
        <ele>97</ele>
        <time>2018-04-15T15:24:24Z</time>
      </trkpt>
      <trkpt lat="48.44029" lon="2.62458">
        <ele>97</ele>
        <time>2018-04-15T15:24:36Z</time>
      </trkpt>
      <trkpt lat="48.44032" lon="2.62456">
        <ele>97.1</ele>
        <time>2018-04-15T15:24:40Z</time>
      </trkpt>
      <trkpt lat="48.44036" lon="2.62453">
        <ele>97.2</ele>
        <time>2018-04-15T15:24:41Z</time>
      </trkpt>
      <trkpt lat="48.4404" lon="2.62451">
        <ele>97.2</ele>
        <time>2018-04-15T15:24:43Z</time>
      </trkpt>
      <trkpt lat="48.44043" lon="2.6245">
        <ele>97.2</ele>
        <time>2018-04-15T15:24:45Z</time>
      </trkpt>
      <trkpt lat="48.44046" lon="2.62449">
        <ele>97.3</ele>
        <time>2018-04-15T15:24:47Z</time>
      </trkpt>
      <trkpt lat="48.44049" lon="2.62449">
        <ele>97.2</ele>
        <time>2018-04-15T15:24:51Z</time>
      </trkpt>
      <trkpt lat="48.4405" lon="2.62454">
        <ele>97.2</ele>
        <time>2018-04-15T15:24:57Z</time>
      </trkpt>
      <trkpt lat="48.44051" lon="2.62457">
        <ele>97.2</ele>
        <time>2018-04-15T15:25:01Z</time>
      </trkpt>
      <trkpt lat="48.44052" lon="2.62462">
        <ele>97.2</ele>
        <time>2018-04-15T15:25:13Z</time>
      </trkpt>
      <trkpt lat="48.4405" lon="2.62465">
        <ele>97.2</ele>
        <time>2018-04-15T15:25:32Z</time>
      </trkpt>
      <trkpt lat="48.44047" lon="2.62467">
        <ele>97.2</ele>
        <time>2018-04-15T15:25:36Z</time>
      </trkpt>
      <trkpt lat="48.44043" lon="2.62467">
        <ele>97.2</ele>
        <time>2018-04-15T15:25:38Z</time>
      </trkpt>
      <trkpt lat="48.4404" lon="2.62468">
        <ele>97.2</ele>
        <time>2018-04-15T15:25:40Z</time>
      </trkpt>
      <trkpt lat="48.44037" lon="2.62469">
        <ele>97.3</ele>
        <time>2018-04-15T15:25:43Z</time>
      </trkpt>
      <trkpt lat="48.44034" lon="2.62468">
        <ele>97.2</ele>
        <time>2018-04-15T15:25:49Z</time>
      </trkpt>
      <trkpt lat="48.44037" lon="2.62464">
        <ele>97.2</ele>
        <time>2018-04-15T15:26:04Z</time>
      </trkpt>
      <trkpt lat="48.44037" lon="2.6246">
        <ele>97.2</ele>
        <time>2018-04-15T15:26:25Z</time>
      </trkpt>
      <trkpt lat="48.4404" lon="2.62459">
        <ele>97.2</ele>
        <time>2018-04-15T15:26:32Z</time>
      </trkpt>
      <trkpt lat="48.44043" lon="2.6246">
        <ele>97.2</ele>
        <time>2018-04-15T15:26:43Z</time>
      </trkpt>
      <trkpt lat="48.44045" lon="2.62458">
        <ele>97.2</ele>
        <time>2018-04-15T15:26:48Z</time>
      </trkpt>
      <trkpt lat="48.44048" lon="2.62456">
        <ele>97.3</ele>
        <time>2018-04-15T15:26:50Z</time>
      </trkpt>
      <trkpt lat="48.44046" lon="2.62457">
        <ele>97.3</ele>
        <time>2018-04-15T15:27:09Z</time>
      </trkpt>
      <trkpt lat="48.44049" lon="2.62459">
        <ele>97.2</ele>
        <time>2018-04-15T15:27:14Z</time>
      </trkpt>
      <trkpt lat="48.44046" lon="2.62458">
        <ele>97.2</ele>
        <time>2018-04-15T15:27:40Z</time>
      </trkpt>
      <trkpt lat="48.44043" lon="2.62456">
        <ele>97.2</ele>
        <time>2018-04-15T15:29:21Z</time>
      </trkpt>
      <trkpt lat="48.44046" lon="2.62457">
        <ele>97.2</ele>
        <time>2018-04-15T15:30:00Z</time>
      </trkpt>
      <trkpt lat="48.44049" lon="2.6246">
        <ele>97.2</ele>
        <time>2018-04-15T15:30:03Z</time>
      </trkpt>
      <trkpt lat="48.44053" lon="2.62463">
        <ele>97.2</ele>
        <time>2018-04-15T15:30:05Z</time>
      </trkpt>
      <trkpt lat="48.44049" lon="2.62464">
        <ele>97.2</ele>
        <time>2018-04-15T15:30:13Z</time>
      </trkpt>
      <trkpt lat="48.44049" lon="2.62464">
        <ele>97.2</ele>
        <time>2018-04-15T15:30:27Z</time>
      </trkpt>
      <trkpt lat="48.44048" lon="2.62464">
        <ele>97.2</ele>
        <time>2018-04-15T15:30:32Z</time>
      </trkpt>
      <trkpt lat="48.44048" lon="2.62464">
        <ele>97.2</ele>
        <time>2018-04-15T15:30:42Z</time>
      </trkpt>
      <trkpt lat="48.44047" lon="2.62464">
        <ele>97.2</ele>
        <time>2018-04-15T15:30:51Z</time>
      </trkpt>
      <trkpt lat="48.44047" lon="2.62464">
        <ele>97.2</ele>
        <time>2018-04-15T15:30:58Z</time>
      </trkpt>
      <trkpt lat="48.44047" lon="2.62465">
        <ele>97.2</ele>
        <time>2018-04-15T15:31:03Z</time>
      </trkpt>
      <trkpt lat="48.44046" lon="2.62465">
        <ele>97.2</ele>
        <time>2018-04-15T15:31:07Z</time>
      </trkpt>
      <trkpt lat="48.44046" lon="2.62465">
        <ele>97.2</ele>
        <time>2018-04-15T15:31:28Z</time>
      </trkpt>
      <trkpt lat="48.44045" lon="2.62465">
        <ele>97.2</ele>
        <time>2018-04-15T15:31:31Z</time>
      </trkpt>
      <trkpt lat="48.44045" lon="2.62465">
        <ele>97.2</ele>
        <time>2018-04-15T15:31:34Z</time>
      </trkpt>
      <trkpt lat="48.44045" lon="2.62465">
        <ele>97.2</ele>
        <time>2018-04-15T15:31:38Z</time>
      </trkpt>
      <trkpt lat="48.44044" lon="2.62466">
        <ele>97.2</ele>
        <time>2018-04-15T15:31:40Z</time>
      </trkpt>
      <trkpt lat="48.44044" lon="2.62466">
        <ele>97.3</ele>
        <time>2018-04-15T15:31:42Z</time>
      </trkpt>
      <trkpt lat="48.44043" lon="2.62466">
        <ele>97.3</ele>
        <time>2018-04-15T15:31:48Z</time>
      </trkpt>
      <trkpt lat="48.44043" lon="2.62466">
        <ele>97.3</ele>
        <time>2018-04-15T15:31:49Z</time>
      </trkpt>
      <trkpt lat="48.44047" lon="2.62469">
        <ele>97.4</ele>
        <time>2018-04-15T15:31:50Z</time>
      </trkpt>
      <trkpt lat="48.44049" lon="2.62471">
        <ele>97.5</ele>
        <time>2018-04-15T15:31:51Z</time>
      </trkpt>
      <trkpt lat="48.44052" lon="2.62473">
        <ele>97.7</ele>
        <time>2018-04-15T15:31:54Z</time>
      </trkpt>
      <trkpt lat="48.44055" lon="2.62475">
        <ele>97.5</ele>
        <time>2018-04-15T15:31:59Z</time>
      </trkpt>
      <trkpt lat="48.44058" lon="2.62476">
        <ele>97.4</ele>
        <time>2018-04-15T15:32:01Z</time>
      </trkpt>
      <trkpt lat="48.44062" lon="2.62478">
        <ele>97.2</ele>
        <time>2018-04-15T15:32:03Z</time>
      </trkpt>
      <trkpt lat="48.4406" lon="2.62474">
        <ele>97.2</ele>
        <time>2018-04-15T15:32:07Z</time>
      </trkpt>
      <trkpt lat="48.44057" lon="2.62474">
        <ele>97.1</ele>
        <time>2018-04-15T15:32:13Z</time>
      </trkpt>
      <trkpt lat="48.44055" lon="2.62471">
        <ele>97.1</ele>
        <time>2018-04-15T15:32:15Z</time>
      </trkpt>
      <trkpt lat="48.44052" lon="2.62466">
        <ele>97.2</ele>
        <time>2018-04-15T15:32:16Z</time>
      </trkpt>
      <trkpt lat="48.4405" lon="2.62462">
        <ele>97.2</ele>
        <time>2018-04-15T15:32:18Z</time>
      </trkpt>
      <trkpt lat="48.44047" lon="2.62459">
        <ele>97.2</ele>
        <time>2018-04-15T15:32:21Z</time>
      </trkpt>
      <trkpt lat="48.44045" lon="2.62458">
        <ele>97.2</ele>
        <time>2018-04-15T15:32:30Z</time>
      </trkpt>
      <trkpt lat="48.44043" lon="2.62461">
        <ele>97.2</ele>
        <time>2018-04-15T15:32:40Z</time>
      </trkpt>
      <trkpt lat="48.44043" lon="2.62467">
        <ele>97.2</ele>
        <time>2018-04-15T15:32:48Z</time>
      </trkpt>
      <trkpt lat="48.44046" lon="2.62473">
        <ele>96.9</ele>
        <time>2018-04-15T15:32:51Z</time>
      </trkpt>
      <trkpt lat="48.44048" lon="2.62476">
        <ele>96.7</ele>
        <time>2018-04-15T15:32:56Z</time>
      </trkpt>
      <trkpt lat="48.44046" lon="2.62471">
        <ele>96.9</ele>
        <time>2018-04-15T15:33:02Z</time>
      </trkpt>
      <trkpt lat="48.44045" lon="2.62468">
        <ele>97.2</ele>
        <time>2018-04-15T15:33:11Z</time>
      </trkpt>
      <trkpt lat="48.44046" lon="2.62472">
        <ele>96.9</ele>
        <time>2018-04-15T15:33:38Z</time>
      </trkpt>
      <trkpt lat="48.44047" lon="2.62476">
        <ele>96.9</ele>
        <time>2018-04-15T15:33:42Z</time>
      </trkpt>
      <trkpt lat="48.44045" lon="2.62479">
        <ele>97.1</ele>
        <time>2018-04-15T15:33:49Z</time>
      </trkpt>
      <trkpt lat="48.44042" lon="2.62474">
        <ele>97.1</ele>
        <time>2018-04-15T15:33:54Z</time>
      </trkpt>
      <trkpt lat="48.44039" lon="2.62471">
        <ele>97.3</ele>
        <time>2018-04-15T15:34:01Z</time>
      </trkpt>
      <trkpt lat="48.4404" lon="2.62466">
        <ele>97.4</ele>
        <time>2018-04-15T15:34:26Z</time>
      </trkpt>
      <trkpt lat="48.44039" lon="2.62461">
        <ele>97.6</ele>
        <time>2018-04-15T15:34:28Z</time>
      </trkpt>
      <trkpt lat="48.44039" lon="2.62456">
        <ele>97.6</ele>
        <time>2018-04-15T15:34:31Z</time>
      </trkpt>
      <trkpt lat="48.44042" lon="2.62458">
        <ele>97.5</ele>
        <time>2018-04-15T15:34:56Z</time>
      </trkpt>
      <trkpt lat="48.44043" lon="2.62462">
        <ele>97.2</ele>
        <time>2018-04-15T15:34:58Z</time>
      </trkpt>
      <trkpt lat="48.44044" lon="2.62466">
        <ele>97.2</ele>
        <time>2018-04-15T15:35:03Z</time>
      </trkpt>
      <trkpt lat="48.44041" lon="2.62467">
        <ele>97.3</ele>
        <time>2018-04-15T15:35:07Z</time>
      </trkpt>
      <trkpt lat="48.44038" lon="2.62464">
        <ele>97.3</ele>
        <time>2018-04-15T15:35:17Z</time>
      </trkpt>
      <trkpt lat="48.44037" lon="2.6246">
        <ele>97.3</ele>
        <time>2018-04-15T15:35:19Z</time>
      </trkpt>
      <trkpt lat="48.44037" lon="2.62464">
        <ele>97.2</ele>
        <time>2018-04-15T15:35:21Z</time>
      </trkpt>
      <trkpt lat="48.44037" lon="2.6246">
        <ele>97.2</ele>
        <time>2018-04-15T15:35:33Z</time>
      </trkpt>
      <trkpt lat="48.44035" lon="2.62464">
        <ele>97.2</ele>
        <time>2018-04-15T15:35:44Z</time>
      </trkpt>
      <trkpt lat="48.44033" lon="2.6246">
        <ele>97.2</ele>
        <time>2018-04-15T15:35:49Z</time>
      </trkpt>
      <trkpt lat="48.44031" lon="2.62456">
        <ele>97.2</ele>
        <time>2018-04-15T15:35:51Z</time>
      </trkpt>
      <trkpt lat="48.4403" lon="2.62451">
        <ele>97.2</ele>
        <time>2018-04-15T15:35:54Z</time>
      </trkpt>
      <trkpt lat="48.44033" lon="2.62453">
        <ele>97.2</ele>
        <time>2018-04-15T15:35:59Z</time>
      </trkpt>
      <trkpt lat="48.44037" lon="2.62455">
        <ele>97.2</ele>
        <time>2018-04-15T15:36:16Z</time>
      </trkpt>
      <trkpt lat="48.44036" lon="2.62451">
        <ele>97.2</ele>
        <time>2018-04-15T15:36:33Z</time>
      </trkpt>
      <trkpt lat="48.44036" lon="2.62455">
        <ele>97.2</ele>
        <time>2018-04-15T15:36:42Z</time>
      </trkpt>
      <trkpt lat="48.44038" lon="2.62459">
        <ele>97.2</ele>
        <time>2018-04-15T15:36:49Z</time>
      </trkpt>
      <trkpt lat="48.44037" lon="2.62463">
        <ele>97.2</ele>
        <time>2018-04-15T15:36:59Z</time>
      </trkpt>
      <trkpt lat="48.44039" lon="2.62459">
        <ele>97.2</ele>
        <time>2018-04-15T15:37:14Z</time>
      </trkpt>
      <trkpt lat="48.4404" lon="2.62454">
        <ele>97.2</ele>
        <time>2018-04-15T15:37:18Z</time>
      </trkpt>
      <trkpt lat="48.44046" lon="2.62444">
        <ele>97.2</ele>
        <time>2018-04-15T15:37:23Z</time>
      </trkpt>
      <trkpt lat="48.44049" lon="2.62441">
        <ele>97.2</ele>
        <time>2018-04-15T15:37:24Z</time>
      </trkpt>
      <trkpt lat="48.44051" lon="2.62438">
        <ele>97.2</ele>
        <time>2018-04-15T15:37:25Z</time>
      </trkpt>
      <trkpt lat="48.44051" lon="2.62443">
        <ele>97.2</ele>
        <time>2018-04-15T15:37:32Z</time>
      </trkpt>
      <trkpt lat="48.44048" lon="2.62443">
        <ele>97.2</ele>
        <time>2018-04-15T15:37:44Z</time>
      </trkpt>
      <trkpt lat="48.44046" lon="2.62446">
        <ele>97.2</ele>
        <time>2018-04-15T15:37:52Z</time>
      </trkpt>
      <trkpt lat="48.44045" lon="2.62452">
        <ele>97.2</ele>
        <time>2018-04-15T15:37:56Z</time>
      </trkpt>
      <trkpt lat="48.44043" lon="2.62457">
        <ele>97.3</ele>
        <time>2018-04-15T15:37:58Z</time>
      </trkpt>
      <trkpt lat="48.44042" lon="2.6246">
        <ele>97.2</ele>
        <time>2018-04-15T15:38:00Z</time>
      </trkpt>
      <trkpt lat="48.44042" lon="2.62456">
        <ele>97.2</ele>
        <time>2018-04-15T15:38:29Z</time>
      </trkpt>
      <trkpt lat="48.44045" lon="2.62456">
        <ele>97.2</ele>
        <time>2018-04-15T15:40:11Z</time>
      </trkpt>
      <trkpt lat="48.44043" lon="2.62461">
        <ele>97.2</ele>
        <time>2018-04-15T15:40:23Z</time>
      </trkpt>
      <trkpt lat="48.44043" lon="2.62466">
        <ele>97.2</ele>
        <time>2018-04-15T15:40:29Z</time>
      </trkpt>
      <trkpt lat="48.44038" lon="2.62466">
        <ele>97.2</ele>
        <time>2018-04-15T15:40:51Z</time>
      </trkpt>
      <trkpt lat="48.44033" lon="2.6247">
        <ele>97.2</ele>
        <time>2018-04-15T15:40:53Z</time>
      </trkpt>
      <trkpt lat="48.44033" lon="2.62465">
        <ele>97.1</ele>
        <time>2018-04-15T15:41:56Z</time>
      </trkpt>
      <trkpt lat="48.44032" lon="2.62461">
        <ele>97.1</ele>
        <time>2018-04-15T15:42:15Z</time>
      </trkpt>
      <trkpt lat="48.44033" lon="2.62457">
        <ele>97.1</ele>
        <time>2018-04-15T15:42:45Z</time>
      </trkpt>
      <trkpt lat="48.44034" lon="2.62453">
        <ele>97.2</ele>
        <time>2018-04-15T15:43:01Z</time>
      </trkpt>
      <trkpt lat="48.44036" lon="2.62448">
        <ele>97.2</ele>
        <time>2018-04-15T15:43:19Z</time>
      </trkpt>
      <trkpt lat="48.44038" lon="2.62444">
        <ele>97.2</ele>
        <time>2018-04-15T15:43:22Z</time>
      </trkpt>
      <trkpt lat="48.44038" lon="2.62449">
        <ele>97.2</ele>
        <time>2018-04-15T15:43:31Z</time>
      </trkpt>
      <trkpt lat="48.44035" lon="2.62452">
        <ele>97.2</ele>
        <time>2018-04-15T15:43:34Z</time>
      </trkpt>
      <trkpt lat="48.44039" lon="2.6245">
        <ele>97.2</ele>
        <time>2018-04-15T15:43:43Z</time>
      </trkpt>
      <trkpt lat="48.44042" lon="2.6245">
        <ele>97.2</ele>
        <time>2018-04-15T15:43:45Z</time>
      </trkpt>
      <trkpt lat="48.44045" lon="2.62451">
        <ele>97.2</ele>
        <time>2018-04-15T15:43:52Z</time>
      </trkpt>
      <trkpt lat="48.44048" lon="2.62451">
        <ele>97.2</ele>
        <time>2018-04-15T15:45:06Z</time>
      </trkpt>
      <trkpt lat="48.44051" lon="2.62451">
        <ele>97.2</ele>
        <time>2018-04-15T15:45:11Z</time>
      </trkpt>
      <trkpt lat="48.44054" lon="2.62452">
        <ele>97.2</ele>
        <time>2018-04-15T15:45:13Z</time>
      </trkpt>
      <trkpt lat="48.44057" lon="2.62451">
        <ele>97.1</ele>
        <time>2018-04-15T15:45:17Z</time>
      </trkpt>
      <trkpt lat="48.44054" lon="2.6245">
        <ele>97.2</ele>
        <time>2018-04-15T15:45:29Z</time>
      </trkpt>
      <trkpt lat="48.44052" lon="2.62449">
        <ele>97.2</ele>
        <time>2018-04-15T15:45:47Z</time>
      </trkpt>
      <trkpt lat="48.44049" lon="2.62447">
        <ele>97.2</ele>
        <time>2018-04-15T15:46:09Z</time>
      </trkpt>
      <trkpt lat="48.44052" lon="2.62445">
        <ele>97.2</ele>
        <time>2018-04-15T15:46:45Z</time>
      </trkpt>
      <trkpt lat="48.44048" lon="2.62445">
        <ele>97.2</ele>
        <time>2018-04-15T15:46:49Z</time>
      </trkpt>
      <trkpt lat="48.44045" lon="2.62444">
        <ele>97.2</ele>
        <time>2018-04-15T15:46:51Z</time>
      </trkpt>
      <trkpt lat="48.44042" lon="2.62444">
        <ele>97.2</ele>
        <time>2018-04-15T15:46:54Z</time>
      </trkpt>
      <trkpt lat="48.44039" lon="2.62444">
        <ele>97.2</ele>
        <time>2018-04-15T15:46:57Z</time>
      </trkpt>
      <trkpt lat="48.44037" lon="2.62446">
        <ele>97.2</ele>
        <time>2018-04-15T15:48:22Z</time>
      </trkpt>
      <trkpt lat="48.44034" lon="2.62448">
        <ele>97.2</ele>
        <time>2018-04-15T15:48:45Z</time>
      </trkpt>
      <trkpt lat="48.44033" lon="2.62452">
        <ele>97.2</ele>
        <time>2018-04-15T15:49:06Z</time>
      </trkpt>
      <trkpt lat="48.44036" lon="2.62452">
        <ele>97.2</ele>
        <time>2018-04-15T15:50:21Z</time>
      </trkpt>
      <trkpt lat="48.44038" lon="2.62449">
        <ele>97.2</ele>
        <time>2018-04-15T15:51:35Z</time>
      </trkpt>
      <trkpt lat="48.44035" lon="2.62448">
        <ele>97.1</ele>
        <time>2018-04-15T15:52:32Z</time>
      </trkpt>
      <trkpt lat="48.44033" lon="2.62453">
        <ele>97.1</ele>
        <time>2018-04-15T15:52:39Z</time>
      </trkpt>
      <trkpt lat="48.44031" lon="2.62456">
        <ele>97</ele>
        <time>2018-04-15T15:52:42Z</time>
      </trkpt>
      <trkpt lat="48.44029" lon="2.62459">
        <ele>97</ele>
        <time>2018-04-15T15:52:51Z</time>
      </trkpt>
      <trkpt lat="48.44026" lon="2.62461">
        <ele>97</ele>
        <time>2018-04-15T15:52:54Z</time>
      </trkpt>
      <trkpt lat="48.44023" lon="2.62461">
        <ele>97</ele>
        <time>2018-04-15T15:53:25Z</time>
      </trkpt>
      <trkpt lat="48.44021" lon="2.62465">
        <ele>97</ele>
        <time>2018-04-15T15:53:27Z</time>
      </trkpt>
      <trkpt lat="48.44023" lon="2.62464">
        <ele>97</ele>
        <time>2018-04-15T15:55:01Z</time>
      </trkpt>
      <trkpt lat="48.44026" lon="2.62462">
        <ele>97</ele>
        <time>2018-04-15T15:55:26Z</time>
      </trkpt>
      <trkpt lat="48.44029" lon="2.62461">
        <ele>97</ele>
        <time>2018-04-15T15:55:30Z</time>
      </trkpt>
      <trkpt lat="48.44032" lon="2.6246">
        <ele>97.1</ele>
        <time>2018-04-15T15:55:33Z</time>
      </trkpt>
      <trkpt lat="48.44035" lon="2.62459">
        <ele>97.1</ele>
        <time>2018-04-15T15:55:43Z</time>
      </trkpt>
      <trkpt lat="48.44038" lon="2.62455">
        <ele>97.2</ele>
        <time>2018-04-15T15:55:48Z</time>
      </trkpt>
      <trkpt lat="48.44039" lon="2.62452">
        <ele>97.2</ele>
        <time>2018-04-15T15:55:50Z</time>
      </trkpt>
      <trkpt lat="48.44041" lon="2.62447">
        <ele>97.2</ele>
        <time>2018-04-15T15:55:53Z</time>
      </trkpt>
      <trkpt lat="48.44041" lon="2.62443">
        <ele>97.2</ele>
        <time>2018-04-15T15:55:56Z</time>
      </trkpt>
      <trkpt lat="48.44038" lon="2.6244">
        <ele>97.2</ele>
        <time>2018-04-15T15:56:00Z</time>
      </trkpt>
      <trkpt lat="48.44035" lon="2.62439">
        <ele>97.1</ele>
        <time>2018-04-15T15:56:02Z</time>
      </trkpt>
      <trkpt lat="48.44032" lon="2.62439">
        <ele>97.1</ele>
        <time>2018-04-15T15:56:05Z</time>
      </trkpt>
      <trkpt lat="48.44029" lon="2.62439">
        <ele>97</ele>
        <time>2018-04-15T15:56:07Z</time>
      </trkpt>
      <trkpt lat="48.44026" lon="2.62441">
        <ele>97</ele>
        <time>2018-04-15T15:56:09Z</time>
      </trkpt>
      <trkpt lat="48.44023" lon="2.62443">
        <ele>97</ele>
        <time>2018-04-15T15:56:11Z</time>
      </trkpt>
      <trkpt lat="48.44019" lon="2.62447">
        <ele>97</ele>
        <time>2018-04-15T15:56:13Z</time>
      </trkpt>
      <trkpt lat="48.44014" lon="2.6245">
        <ele>96.9</ele>
        <time>2018-04-15T15:56:15Z</time>
      </trkpt>
      <trkpt lat="48.4401" lon="2.62452">
        <ele>96.8</ele>
        <time>2018-04-15T15:56:17Z</time>
      </trkpt>
      <trkpt lat="48.44006" lon="2.62453">
        <ele>96.7</ele>
        <time>2018-04-15T15:56:19Z</time>
      </trkpt>
      <trkpt lat="48.44003" lon="2.62453">
        <ele>96.6</ele>
        <time>2018-04-15T15:56:21Z</time>
      </trkpt>
      <trkpt lat="48.44" lon="2.62454">
        <ele>96.5</ele>
        <time>2018-04-15T15:56:24Z</time>
      </trkpt>
      <trkpt lat="48.43994" lon="2.62453">
        <ele>96.4</ele>
        <time>2018-04-15T15:56:26Z</time>
      </trkpt>
      <trkpt lat="48.4399" lon="2.62453">
        <ele>96.3</ele>
        <time>2018-04-15T15:56:28Z</time>
      </trkpt>
      <trkpt lat="48.43986" lon="2.62452">
        <ele>96.3</ele>
        <time>2018-04-15T15:56:29Z</time>
      </trkpt>
      <trkpt lat="48.43982" lon="2.62452">
        <ele>96.2</ele>
        <time>2018-04-15T15:56:30Z</time>
      </trkpt>
      <trkpt lat="48.43978" lon="2.62452">
        <ele>96.2</ele>
        <time>2018-04-15T15:56:31Z</time>
      </trkpt>
      <trkpt lat="48.43975" lon="2.62452">
        <ele>96.1</ele>
        <time>2018-04-15T15:56:32Z</time>
      </trkpt>
      <trkpt lat="48.43971" lon="2.62452">
        <ele>96.1</ele>
        <time>2018-04-15T15:56:34Z</time>
      </trkpt>
      <trkpt lat="48.43967" lon="2.6245">
        <ele>96</ele>
        <time>2018-04-15T15:56:36Z</time>
      </trkpt>
      <trkpt lat="48.43963" lon="2.62448">
        <ele>96</ele>
        <time>2018-04-15T15:56:38Z</time>
      </trkpt>
      <trkpt lat="48.43958" lon="2.62445">
        <ele>95.9</ele>
        <time>2018-04-15T15:56:40Z</time>
      </trkpt>
      <trkpt lat="48.43955" lon="2.62445">
        <ele>95.9</ele>
        <time>2018-04-15T15:56:41Z</time>
      </trkpt>
      <trkpt lat="48.43952" lon="2.62444">
        <ele>95.9</ele>
        <time>2018-04-15T15:56:42Z</time>
      </trkpt>
      <trkpt lat="48.43949" lon="2.62444">
        <ele>95.9</ele>
        <time>2018-04-15T15:56:44Z</time>
      </trkpt>
      <trkpt lat="48.43944" lon="2.62442">
        <ele>95.9</ele>
        <time>2018-04-15T15:56:47Z</time>
      </trkpt>
      <trkpt lat="48.43938" lon="2.6244">
        <ele>95.9</ele>
        <time>2018-04-15T15:56:49Z</time>
      </trkpt>
      <trkpt lat="48.43935" lon="2.62439">
        <ele>95.9</ele>
        <time>2018-04-15T15:56:50Z</time>
      </trkpt>
      <trkpt lat="48.43932" lon="2.62439">
        <ele>95.9</ele>
        <time>2018-04-15T15:56:51Z</time>
      </trkpt>
      <trkpt lat="48.43928" lon="2.62439">
        <ele>95.9</ele>
        <time>2018-04-15T15:56:53Z</time>
      </trkpt>
      <trkpt lat="48.43925" lon="2.62439">
        <ele>95.9</ele>
        <time>2018-04-15T15:56:55Z</time>
      </trkpt>
      <trkpt lat="48.43922" lon="2.62439">
        <ele>95.9</ele>
        <time>2018-04-15T15:56:56Z</time>
      </trkpt>
      <trkpt lat="48.43917" lon="2.62439">
        <ele>96</ele>
        <time>2018-04-15T15:56:58Z</time>
      </trkpt>
      <trkpt lat="48.43913" lon="2.62439">
        <ele>96</ele>
        <time>2018-04-15T15:56:59Z</time>
      </trkpt>
      <trkpt lat="48.43909" lon="2.62437">
        <ele>96.1</ele>
        <time>2018-04-15T15:57:01Z</time>
      </trkpt>
      <trkpt lat="48.43905" lon="2.62436">
        <ele>96.2</ele>
        <time>2018-04-15T15:57:03Z</time>
      </trkpt>
      <trkpt lat="48.43901" lon="2.62435">
        <ele>96.3</ele>
        <time>2018-04-15T15:57:05Z</time>
      </trkpt>
      <trkpt lat="48.43898" lon="2.62435">
        <ele>96.4</ele>
        <time>2018-04-15T15:57:07Z</time>
      </trkpt>
      <trkpt lat="48.43894" lon="2.62436">
        <ele>96.5</ele>
        <time>2018-04-15T15:57:09Z</time>
      </trkpt>
      <trkpt lat="48.43891" lon="2.62436">
        <ele>96.5</ele>
        <time>2018-04-15T15:57:10Z</time>
      </trkpt>
      <trkpt lat="48.43888" lon="2.62436">
        <ele>96.6</ele>
        <time>2018-04-15T15:57:11Z</time>
      </trkpt>
      <trkpt lat="48.43883" lon="2.62437">
        <ele>96.6</ele>
        <time>2018-04-15T15:57:12Z</time>
      </trkpt>
      <trkpt lat="48.43879" lon="2.62436">
        <ele>96.6</ele>
        <time>2018-04-15T15:57:13Z</time>
      </trkpt>
      <trkpt lat="48.43875" lon="2.62433">
        <ele>96.5</ele>
        <time>2018-04-15T15:57:15Z</time>
      </trkpt>
      <trkpt lat="48.43872" lon="2.62432">
        <ele>96.5</ele>
        <time>2018-04-15T15:57:16Z</time>
      </trkpt>
      <trkpt lat="48.43868" lon="2.62431">
        <ele>96.5</ele>
        <time>2018-04-15T15:57:17Z</time>
      </trkpt>
      <trkpt lat="48.43864" lon="2.62431">
        <ele>96.5</ele>
        <time>2018-04-15T15:57:19Z</time>
      </trkpt>
      <trkpt lat="48.43861" lon="2.62431">
        <ele>96.4</ele>
        <time>2018-04-15T15:57:21Z</time>
      </trkpt>
      <trkpt lat="48.43857" lon="2.62432">
        <ele>96.4</ele>
        <time>2018-04-15T15:57:23Z</time>
      </trkpt>
      <trkpt lat="48.43852" lon="2.62432">
        <ele>96.3</ele>
        <time>2018-04-15T15:57:25Z</time>
      </trkpt>
      <trkpt lat="48.43848" lon="2.62434">
        <ele>96.3</ele>
        <time>2018-04-15T15:57:27Z</time>
      </trkpt>
      <trkpt lat="48.43845" lon="2.62435">
        <ele>96.2</ele>
        <time>2018-04-15T15:57:29Z</time>
      </trkpt>
      <trkpt lat="48.43841" lon="2.62436">
        <ele>96.2</ele>
        <time>2018-04-15T15:57:31Z</time>
      </trkpt>
      <trkpt lat="48.43837" lon="2.62437">
        <ele>96.1</ele>
        <time>2018-04-15T15:57:33Z</time>
      </trkpt>
      <trkpt lat="48.43833" lon="2.62439">
        <ele>96.1</ele>
        <time>2018-04-15T15:57:35Z</time>
      </trkpt>
      <trkpt lat="48.4383" lon="2.6244">
        <ele>96.1</ele>
        <time>2018-04-15T15:57:36Z</time>
      </trkpt>
      <trkpt lat="48.43827" lon="2.62441">
        <ele>96.1</ele>
        <time>2018-04-15T15:57:37Z</time>
      </trkpt>
      <trkpt lat="48.43824" lon="2.62441">
        <ele>96</ele>
        <time>2018-04-15T15:57:38Z</time>
      </trkpt>
      <trkpt lat="48.43819" lon="2.62442">
        <ele>96</ele>
        <time>2018-04-15T15:57:40Z</time>
      </trkpt>
      <trkpt lat="48.43814" lon="2.62442">
        <ele>96.1</ele>
        <time>2018-04-15T15:57:42Z</time>
      </trkpt>
      <trkpt lat="48.43811" lon="2.62442">
        <ele>96.2</ele>
        <time>2018-04-15T15:57:44Z</time>
      </trkpt>
      <trkpt lat="48.43807" lon="2.62441">
        <ele>96.2</ele>
        <time>2018-04-15T15:57:46Z</time>
      </trkpt>
      <trkpt lat="48.43803" lon="2.6244">
        <ele>96.3</ele>
        <time>2018-04-15T15:57:48Z</time>
      </trkpt>
      <trkpt lat="48.438" lon="2.6244">
        <ele>96.3</ele>
        <time>2018-04-15T15:57:50Z</time>
      </trkpt>
      <trkpt lat="48.43795" lon="2.62441">
        <ele>96.4</ele>
        <time>2018-04-15T15:57:52Z</time>
      </trkpt>
      <trkpt lat="48.4379" lon="2.6244">
        <ele>96.4</ele>
        <time>2018-04-15T15:57:54Z</time>
      </trkpt>
      <trkpt lat="48.43786" lon="2.62441">
        <ele>96.5</ele>
        <time>2018-04-15T15:57:56Z</time>
      </trkpt>
      <trkpt lat="48.43783" lon="2.62441">
        <ele>96.6</ele>
        <time>2018-04-15T15:57:58Z</time>
      </trkpt>
      <trkpt lat="48.43779" lon="2.62442">
        <ele>96.6</ele>
        <time>2018-04-15T15:57:59Z</time>
      </trkpt>
      <trkpt lat="48.43775" lon="2.62442">
        <ele>96.7</ele>
        <time>2018-04-15T15:58:00Z</time>
      </trkpt>
      <trkpt lat="48.43772" lon="2.62441">
        <ele>96.7</ele>
        <time>2018-04-15T15:58:01Z</time>
      </trkpt>
      <trkpt lat="48.43766" lon="2.62441">
        <ele>96.8</ele>
        <time>2018-04-15T15:58:03Z</time>
      </trkpt>
      <trkpt lat="48.43764" lon="2.6244">
        <ele>96.9</ele>
        <time>2018-04-15T15:58:04Z</time>
      </trkpt>
      <trkpt lat="48.43761" lon="2.62441">
        <ele>96.9</ele>
        <time>2018-04-15T15:58:05Z</time>
      </trkpt>
      <trkpt lat="48.43757" lon="2.62441">
        <ele>97</ele>
        <time>2018-04-15T15:58:06Z</time>
      </trkpt>
      <trkpt lat="48.43754" lon="2.62441">
        <ele>97.1</ele>
        <time>2018-04-15T15:58:08Z</time>
      </trkpt>
      <trkpt lat="48.43747" lon="2.62444">
        <ele>97.2</ele>
        <time>2018-04-15T15:58:10Z</time>
      </trkpt>
      <trkpt lat="48.43744" lon="2.62446">
        <ele>97.2</ele>
        <time>2018-04-15T15:58:11Z</time>
      </trkpt>
      <trkpt lat="48.43741" lon="2.62448">
        <ele>97.3</ele>
        <time>2018-04-15T15:58:12Z</time>
      </trkpt>
      <trkpt lat="48.43738" lon="2.6245">
        <ele>97.3</ele>
        <time>2018-04-15T15:58:13Z</time>
      </trkpt>
      <trkpt lat="48.43735" lon="2.62453">
        <ele>97.4</ele>
        <time>2018-04-15T15:58:14Z</time>
      </trkpt>
      <trkpt lat="48.43731" lon="2.62456">
        <ele>97.4</ele>
        <time>2018-04-15T15:58:15Z</time>
      </trkpt>
      <trkpt lat="48.43728" lon="2.62458">
        <ele>97.5</ele>
        <time>2018-04-15T15:58:16Z</time>
      </trkpt>
      <trkpt lat="48.43722" lon="2.62462">
        <ele>97.7</ele>
        <time>2018-04-15T15:58:18Z</time>
      </trkpt>
      <trkpt lat="48.43718" lon="2.62466">
        <ele>97.8</ele>
        <time>2018-04-15T15:58:20Z</time>
      </trkpt>
      <trkpt lat="48.43715" lon="2.6247">
        <ele>97.9</ele>
        <time>2018-04-15T15:58:22Z</time>
      </trkpt>
      <trkpt lat="48.43713" lon="2.62473">
        <ele>97.9</ele>
        <time>2018-04-15T15:58:23Z</time>
      </trkpt>
      <trkpt lat="48.43711" lon="2.62478">
        <ele>98.1</ele>
        <time>2018-04-15T15:58:24Z</time>
      </trkpt>
      <trkpt lat="48.43708" lon="2.62482">
        <ele>98.1</ele>
        <time>2018-04-15T15:58:26Z</time>
      </trkpt>
      <trkpt lat="48.43704" lon="2.62487">
        <ele>98.2</ele>
        <time>2018-04-15T15:58:28Z</time>
      </trkpt>
      <trkpt lat="48.437" lon="2.62495">
        <ele>98.2</ele>
        <time>2018-04-15T15:58:30Z</time>
      </trkpt>
      <trkpt lat="48.43697" lon="2.62503">
        <ele>98.3</ele>
        <time>2018-04-15T15:58:31Z</time>
      </trkpt>
      <trkpt lat="48.43695" lon="2.62509">
        <ele>98.3</ele>
        <time>2018-04-15T15:58:32Z</time>
      </trkpt>
      <trkpt lat="48.43693" lon="2.62513">
        <ele>98.4</ele>
        <time>2018-04-15T15:58:33Z</time>
      </trkpt>
      <trkpt lat="48.43692" lon="2.62517">
        <ele>98.4</ele>
        <time>2018-04-15T15:58:34Z</time>
      </trkpt>
      <trkpt lat="48.4369" lon="2.62522">
        <ele>98.4</ele>
        <time>2018-04-15T15:58:35Z</time>
      </trkpt>
      <trkpt lat="48.43688" lon="2.62527">
        <ele>98.5</ele>
        <time>2018-04-15T15:58:36Z</time>
      </trkpt>
      <trkpt lat="48.43687" lon="2.62532">
        <ele>98.5</ele>
        <time>2018-04-15T15:58:37Z</time>
      </trkpt>
      <trkpt lat="48.43685" lon="2.62537">
        <ele>98.6</ele>
        <time>2018-04-15T15:58:38Z</time>
      </trkpt>
      <trkpt lat="48.43683" lon="2.62545">
        <ele>98.6</ele>
        <time>2018-04-15T15:58:40Z</time>
      </trkpt>
      <trkpt lat="48.43682" lon="2.6255">
        <ele>98.7</ele>
        <time>2018-04-15T15:58:41Z</time>
      </trkpt>
      <trkpt lat="48.4368" lon="2.62555">
        <ele>98.7</ele>
        <time>2018-04-15T15:58:42Z</time>
      </trkpt>
      <trkpt lat="48.43679" lon="2.62559">
        <ele>98.7</ele>
        <time>2018-04-15T15:58:43Z</time>
      </trkpt>
      <trkpt lat="48.43676" lon="2.62565">
        <ele>98.7</ele>
        <time>2018-04-15T15:58:44Z</time>
      </trkpt>
      <trkpt lat="48.43673" lon="2.6257">
        <ele>98.8</ele>
        <time>2018-04-15T15:58:45Z</time>
      </trkpt>
      <trkpt lat="48.43672" lon="2.62574">
        <ele>98.8</ele>
        <time>2018-04-15T15:58:46Z</time>
      </trkpt>
      <trkpt lat="48.4367" lon="2.62578">
        <ele>98.8</ele>
        <time>2018-04-15T15:58:47Z</time>
      </trkpt>
      <trkpt lat="48.43669" lon="2.62581">
        <ele>98.8</ele>
        <time>2018-04-15T15:58:48Z</time>
      </trkpt>
      <trkpt lat="48.43667" lon="2.62587">
        <ele>98.8</ele>
        <time>2018-04-15T15:58:49Z</time>
      </trkpt>
      <trkpt lat="48.43666" lon="2.62591">
        <ele>98.8</ele>
        <time>2018-04-15T15:58:50Z</time>
      </trkpt>
      <trkpt lat="48.43665" lon="2.62596">
        <ele>98.9</ele>
        <time>2018-04-15T15:58:51Z</time>
      </trkpt>
      <trkpt lat="48.43663" lon="2.62601">
        <ele>98.9</ele>
        <time>2018-04-15T15:58:52Z</time>
      </trkpt>
      <trkpt lat="48.43661" lon="2.62607">
        <ele>98.9</ele>
        <time>2018-04-15T15:58:53Z</time>
      </trkpt>
      <trkpt lat="48.43659" lon="2.62612">
        <ele>98.9</ele>
        <time>2018-04-15T15:58:55Z</time>
      </trkpt>
      <trkpt lat="48.43658" lon="2.62616">
        <ele>98.9</ele>
        <time>2018-04-15T15:58:58Z</time>
      </trkpt>
      <trkpt lat="48.43656" lon="2.62622">
        <ele>99</ele>
        <time>2018-04-15T15:58:59Z</time>
      </trkpt>
      <trkpt lat="48.43654" lon="2.62626">
        <ele>99</ele>
        <time>2018-04-15T15:59:00Z</time>
      </trkpt>
      <trkpt lat="48.4365" lon="2.62631">
        <ele>99</ele>
        <time>2018-04-15T15:59:02Z</time>
      </trkpt>
      <trkpt lat="48.43648" lon="2.62634">
        <ele>98.9</ele>
        <time>2018-04-15T15:59:03Z</time>
      </trkpt>
      <trkpt lat="48.43646" lon="2.6264">
        <ele>98.8</ele>
        <time>2018-04-15T15:59:04Z</time>
      </trkpt>
      <trkpt lat="48.43643" lon="2.62643">
        <ele>98.8</ele>
        <time>2018-04-15T15:59:05Z</time>
      </trkpt>
      <trkpt lat="48.4364" lon="2.62646">
        <ele>98.8</ele>
        <time>2018-04-15T15:59:06Z</time>
      </trkpt>
      <trkpt lat="48.43637" lon="2.62649">
        <ele>98.7</ele>
        <time>2018-04-15T15:59:07Z</time>
      </trkpt>
      <trkpt lat="48.43634" lon="2.62652">
        <ele>98.7</ele>
        <time>2018-04-15T15:59:08Z</time>
      </trkpt>
      <trkpt lat="48.4363" lon="2.62655">
        <ele>98.6</ele>
        <time>2018-04-15T15:59:09Z</time>
      </trkpt>
      <trkpt lat="48.43627" lon="2.62658">
        <ele>98.6</ele>
        <time>2018-04-15T15:59:10Z</time>
      </trkpt>
      <trkpt lat="48.43623" lon="2.62663">
        <ele>98.5</ele>
        <time>2018-04-15T15:59:12Z</time>
      </trkpt>
      <trkpt lat="48.43621" lon="2.62666">
        <ele>98.5</ele>
        <time>2018-04-15T15:59:13Z</time>
      </trkpt>
      <trkpt lat="48.43617" lon="2.62671">
        <ele>98.4</ele>
        <time>2018-04-15T15:59:14Z</time>
      </trkpt>
      <trkpt lat="48.43614" lon="2.62677">
        <ele>98.4</ele>
        <time>2018-04-15T15:59:16Z</time>
      </trkpt>
      <trkpt lat="48.4361" lon="2.62681">
        <ele>98.3</ele>
        <time>2018-04-15T15:59:18Z</time>
      </trkpt>
      <trkpt lat="48.43608" lon="2.62683">
        <ele>98.2</ele>
        <time>2018-04-15T15:59:20Z</time>
      </trkpt>
      <trkpt lat="48.43605" lon="2.62684">
        <ele>98.2</ele>
        <time>2018-04-15T15:59:22Z</time>
      </trkpt>
      <trkpt lat="48.436" lon="2.62686">
        <ele>98.2</ele>
        <time>2018-04-15T15:59:24Z</time>
      </trkpt>
      <trkpt lat="48.43598" lon="2.62688">
        <ele>98.1</ele>
        <time>2018-04-15T15:59:26Z</time>
      </trkpt>
      <trkpt lat="48.43594" lon="2.62691">
        <ele>98.1</ele>
        <time>2018-04-15T15:59:29Z</time>
      </trkpt>
      <trkpt lat="48.43591" lon="2.62696">
        <ele>98</ele>
        <time>2018-04-15T15:59:31Z</time>
      </trkpt>
      <trkpt lat="48.43588" lon="2.62701">
        <ele>98.1</ele>
        <time>2018-04-15T15:59:33Z</time>
      </trkpt>
      <trkpt lat="48.43586" lon="2.62705">
        <ele>98.3</ele>
        <time>2018-04-15T15:59:35Z</time>
      </trkpt>
      <trkpt lat="48.43585" lon="2.62709">
        <ele>98.4</ele>
        <time>2018-04-15T15:59:38Z</time>
      </trkpt>
      <trkpt lat="48.43582" lon="2.62714">
        <ele>98.5</ele>
        <time>2018-04-15T15:59:40Z</time>
      </trkpt>
      <trkpt lat="48.43581" lon="2.62718">
        <ele>98.6</ele>
        <time>2018-04-15T15:59:42Z</time>
      </trkpt>
      <trkpt lat="48.43579" lon="2.62724">
        <ele>98.6</ele>
        <time>2018-04-15T15:59:45Z</time>
      </trkpt>
      <trkpt lat="48.43577" lon="2.62731">
        <ele>98.7</ele>
        <time>2018-04-15T15:59:47Z</time>
      </trkpt>
      <trkpt lat="48.43575" lon="2.62735">
        <ele>98.7</ele>
        <time>2018-04-15T15:59:48Z</time>
      </trkpt>
      <trkpt lat="48.43573" lon="2.6274">
        <ele>98.7</ele>
        <time>2018-04-15T15:59:49Z</time>
      </trkpt>
      <trkpt lat="48.43571" lon="2.62744">
        <ele>98.7</ele>
        <time>2018-04-15T15:59:50Z</time>
      </trkpt>
      <trkpt lat="48.4357" lon="2.62748">
        <ele>98.7</ele>
        <time>2018-04-15T15:59:51Z</time>
      </trkpt>
      <trkpt lat="48.43568" lon="2.62753">
        <ele>98.7</ele>
        <time>2018-04-15T15:59:52Z</time>
      </trkpt>
      <trkpt lat="48.43565" lon="2.62759">
        <ele>98.7</ele>
        <time>2018-04-15T15:59:53Z</time>
      </trkpt>
      <trkpt lat="48.43563" lon="2.62764">
        <ele>98.7</ele>
        <time>2018-04-15T15:59:54Z</time>
      </trkpt>
      <trkpt lat="48.4356" lon="2.62767">
        <ele>98.7</ele>
        <time>2018-04-15T15:59:55Z</time>
      </trkpt>
      <trkpt lat="48.43558" lon="2.6277">
        <ele>98.7</ele>
        <time>2018-04-15T15:59:56Z</time>
      </trkpt>
      <trkpt lat="48.43555" lon="2.62774">
        <ele>98.7</ele>
        <time>2018-04-15T15:59:57Z</time>
      </trkpt>
      <trkpt lat="48.43552" lon="2.62777">
        <ele>98.6</ele>
        <time>2018-04-15T15:59:58Z</time>
      </trkpt>
      <trkpt lat="48.43547" lon="2.62782">
        <ele>98.6</ele>
        <time>2018-04-15T16:00:00Z</time>
      </trkpt>
      <trkpt lat="48.43544" lon="2.62786">
        <ele>98.6</ele>
        <time>2018-04-15T16:00:01Z</time>
      </trkpt>
      <trkpt lat="48.43541" lon="2.62789">
        <ele>98.6</ele>
        <time>2018-04-15T16:00:02Z</time>
      </trkpt>
      <trkpt lat="48.43536" lon="2.62792">
        <ele>98.5</ele>
        <time>2018-04-15T16:00:04Z</time>
      </trkpt>
      <trkpt lat="48.43533" lon="2.62793">
        <ele>98.5</ele>
        <time>2018-04-15T16:00:05Z</time>
      </trkpt>
      <trkpt lat="48.43529" lon="2.62795">
        <ele>98.5</ele>
        <time>2018-04-15T16:00:07Z</time>
      </trkpt>
      <trkpt lat="48.43525" lon="2.62796">
        <ele>98.4</ele>
        <time>2018-04-15T16:00:09Z</time>
      </trkpt>
      <trkpt lat="48.43522" lon="2.62798">
        <ele>98.4</ele>
        <time>2018-04-15T16:00:11Z</time>
      </trkpt>
      <trkpt lat="48.43517" lon="2.628">
        <ele>97.9</ele>
        <time>2018-04-15T16:00:13Z</time>
      </trkpt>
      <trkpt lat="48.43515" lon="2.62801">
        <ele>97.5</ele>
        <time>2018-04-15T16:00:14Z</time>
      </trkpt>
      <trkpt lat="48.43512" lon="2.62803">
        <ele>97</ele>
        <time>2018-04-15T16:00:15Z</time>
      </trkpt>
      <trkpt lat="48.43508" lon="2.62805">
        <ele>96.5</ele>
        <time>2018-04-15T16:00:17Z</time>
      </trkpt>
      <trkpt lat="48.43506" lon="2.6281">
        <ele>96.5</ele>
        <time>2018-04-15T16:00:24Z</time>
      </trkpt>
      <trkpt lat="48.43505" lon="2.62814">
        <ele>96.6</ele>
        <time>2018-04-15T16:00:27Z</time>
      </trkpt>
      <trkpt lat="48.43504" lon="2.62818">
        <ele>96.6</ele>
        <time>2018-04-15T16:00:29Z</time>
      </trkpt>
      <trkpt lat="48.43506" lon="2.62824">
        <ele>96.7</ele>
        <time>2018-04-15T16:00:31Z</time>
      </trkpt>
      <trkpt lat="48.43507" lon="2.6283">
        <ele>96.8</ele>
        <time>2018-04-15T16:00:33Z</time>
      </trkpt>
      <trkpt lat="48.43508" lon="2.62835">
        <ele>96.8</ele>
        <time>2018-04-15T16:00:35Z</time>
      </trkpt>
      <trkpt lat="48.4351" lon="2.62842">
        <ele>96.9</ele>
        <time>2018-04-15T16:00:37Z</time>
      </trkpt>
      <trkpt lat="48.43511" lon="2.62847">
        <ele>97</ele>
        <time>2018-04-15T16:00:39Z</time>
      </trkpt>
      <trkpt lat="48.43512" lon="2.62852">
        <ele>97.1</ele>
        <time>2018-04-15T16:00:42Z</time>
      </trkpt>
      <trkpt lat="48.43513" lon="2.62857">
        <ele>97.1</ele>
        <time>2018-04-15T16:00:44Z</time>
      </trkpt>
      <trkpt lat="48.43513" lon="2.62864">
        <ele>97.2</ele>
        <time>2018-04-15T16:00:46Z</time>
      </trkpt>
      <trkpt lat="48.43513" lon="2.62869">
        <ele>97.3</ele>
        <time>2018-04-15T16:00:48Z</time>
      </trkpt>
      <trkpt lat="48.43513" lon="2.62874">
        <ele>97.4</ele>
        <time>2018-04-15T16:00:50Z</time>
      </trkpt>
      <trkpt lat="48.43512" lon="2.62881">
        <ele>97.5</ele>
        <time>2018-04-15T16:00:52Z</time>
      </trkpt>
      <trkpt lat="48.43511" lon="2.62887">
        <ele>97.7</ele>
        <time>2018-04-15T16:00:54Z</time>
      </trkpt>
      <trkpt lat="48.4351" lon="2.62891">
        <ele>98.3</ele>
        <time>2018-04-15T16:00:56Z</time>
      </trkpt>
      <trkpt lat="48.43509" lon="2.62896">
        <ele>98.4</ele>
        <time>2018-04-15T16:00:58Z</time>
      </trkpt>
      <trkpt lat="48.43508" lon="2.629">
        <ele>98.6</ele>
        <time>2018-04-15T16:01:00Z</time>
      </trkpt>
      <trkpt lat="48.43507" lon="2.62905">
        <ele>98.7</ele>
        <time>2018-04-15T16:01:03Z</time>
      </trkpt>
      <trkpt lat="48.43506" lon="2.62908">
        <ele>98.9</ele>
        <time>2018-04-15T16:01:04Z</time>
      </trkpt>
      <trkpt lat="48.43504" lon="2.62912">
        <ele>99</ele>
        <time>2018-04-15T16:01:06Z</time>
      </trkpt>
      <trkpt lat="48.43501" lon="2.62917">
        <ele>99.3</ele>
        <time>2018-04-15T16:01:08Z</time>
      </trkpt>
      <trkpt lat="48.43498" lon="2.6292">
        <ele>99.5</ele>
        <time>2018-04-15T16:01:10Z</time>
      </trkpt>
      <trkpt lat="48.43495" lon="2.62926">
        <ele>99.7</ele>
        <time>2018-04-15T16:01:12Z</time>
      </trkpt>
      <trkpt lat="48.43493" lon="2.62929">
        <ele>100</ele>
        <time>2018-04-15T16:01:14Z</time>
      </trkpt>
      <trkpt lat="48.43491" lon="2.62932">
        <ele>100.3</ele>
        <time>2018-04-15T16:01:16Z</time>
      </trkpt>
      <trkpt lat="48.43489" lon="2.62936">
        <ele>100.7</ele>
        <time>2018-04-15T16:01:17Z</time>
      </trkpt>
      <trkpt lat="48.43486" lon="2.6294">
        <ele>101.1</ele>
        <time>2018-04-15T16:01:19Z</time>
      </trkpt>
      <trkpt lat="48.43484" lon="2.62944">
        <ele>101.6</ele>
        <time>2018-04-15T16:01:21Z</time>
      </trkpt>
      <trkpt lat="48.43481" lon="2.62947">
        <ele>102</ele>
        <time>2018-04-15T16:01:23Z</time>
      </trkpt>
      <trkpt lat="48.43479" lon="2.62951">
        <ele>102.4</ele>
        <time>2018-04-15T16:01:25Z</time>
      </trkpt>
      <trkpt lat="48.43477" lon="2.62956">
        <ele>102.9</ele>
        <time>2018-04-15T16:01:28Z</time>
      </trkpt>
      <trkpt lat="48.43476" lon="2.6296">
        <ele>103</ele>
        <time>2018-04-15T16:01:30Z</time>
      </trkpt>
      <trkpt lat="48.43474" lon="2.62965">
        <ele>102.9</ele>
        <time>2018-04-15T16:01:33Z</time>
      </trkpt>
      <trkpt lat="48.43473" lon="2.62969">
        <ele>102.9</ele>
        <time>2018-04-15T16:01:36Z</time>
      </trkpt>
      <trkpt lat="48.43471" lon="2.62974">
        <ele>102.8</ele>
        <time>2018-04-15T16:01:39Z</time>
      </trkpt>
      <trkpt lat="48.43471" lon="2.62979">
        <ele>102.8</ele>
        <time>2018-04-15T16:01:42Z</time>
      </trkpt>
      <trkpt lat="48.43471" lon="2.62986">
        <ele>102.7</ele>
        <time>2018-04-15T16:01:45Z</time>
      </trkpt>
      <trkpt lat="48.43471" lon="2.62991">
        <ele>102.7</ele>
        <time>2018-04-15T16:01:47Z</time>
      </trkpt>
      <trkpt lat="48.43471" lon="2.62995">
        <ele>102.7</ele>
        <time>2018-04-15T16:01:49Z</time>
      </trkpt>
      <trkpt lat="48.43471" lon="2.63">
        <ele>102.7</ele>
        <time>2018-04-15T16:01:51Z</time>
      </trkpt>
      <trkpt lat="48.43472" lon="2.63004">
        <ele>102.6</ele>
        <time>2018-04-15T16:01:53Z</time>
      </trkpt>
      <trkpt lat="48.43474" lon="2.63009">
        <ele>102.6</ele>
        <time>2018-04-15T16:01:56Z</time>
      </trkpt>
      <trkpt lat="48.43476" lon="2.63012">
        <ele>102.7</ele>
        <time>2018-04-15T16:01:59Z</time>
      </trkpt>
      <trkpt lat="48.43479" lon="2.63015">
        <ele>102.7</ele>
        <time>2018-04-15T16:02:01Z</time>
      </trkpt>
      <trkpt lat="48.43481" lon="2.63018">
        <ele>102.8</ele>
        <time>2018-04-15T16:02:03Z</time>
      </trkpt>
      <trkpt lat="48.43483" lon="2.6302">
        <ele>102.8</ele>
        <time>2018-04-15T16:02:05Z</time>
      </trkpt>
      <trkpt lat="48.43486" lon="2.63022">
        <ele>102.8</ele>
        <time>2018-04-15T16:02:06Z</time>
      </trkpt>
      <trkpt lat="48.4349" lon="2.63024">
        <ele>102.8</ele>
        <time>2018-04-15T16:02:08Z</time>
      </trkpt>
      <trkpt lat="48.43494" lon="2.63027">
        <ele>102.9</ele>
        <time>2018-04-15T16:02:10Z</time>
      </trkpt>
      <trkpt lat="48.43497" lon="2.63029">
        <ele>102.8</ele>
        <time>2018-04-15T16:02:11Z</time>
      </trkpt>
      <trkpt lat="48.435" lon="2.63031">
        <ele>102.6</ele>
        <time>2018-04-15T16:02:12Z</time>
      </trkpt>
      <trkpt lat="48.43504" lon="2.63033">
        <ele>102.4</ele>
        <time>2018-04-15T16:02:13Z</time>
      </trkpt>
      <trkpt lat="48.43507" lon="2.63037">
        <ele>102.3</ele>
        <time>2018-04-15T16:02:14Z</time>
      </trkpt>
      <trkpt lat="48.4351" lon="2.63042">
        <ele>102.1</ele>
        <time>2018-04-15T16:02:15Z</time>
      </trkpt>
      <trkpt lat="48.43513" lon="2.63048">
        <ele>102</ele>
        <time>2018-04-15T16:02:16Z</time>
      </trkpt>
      <trkpt lat="48.43515" lon="2.63056">
        <ele>101.6</ele>
        <time>2018-04-15T16:02:17Z</time>
      </trkpt>
      <trkpt lat="48.43516" lon="2.63064">
        <ele>101.4</ele>
        <time>2018-04-15T16:02:18Z</time>
      </trkpt>
      <trkpt lat="48.43515" lon="2.63072">
        <ele>101.2</ele>
        <time>2018-04-15T16:02:19Z</time>
      </trkpt>
      <trkpt lat="48.43514" lon="2.63079">
        <ele>101.3</ele>
        <time>2018-04-15T16:02:20Z</time>
      </trkpt>
      <trkpt lat="48.43514" lon="2.63086">
        <ele>101.5</ele>
        <time>2018-04-15T16:02:21Z</time>
      </trkpt>
      <trkpt lat="48.43513" lon="2.63094">
        <ele>101.7</ele>
        <time>2018-04-15T16:02:22Z</time>
      </trkpt>
      <trkpt lat="48.43513" lon="2.631">
        <ele>101.9</ele>
        <time>2018-04-15T16:02:23Z</time>
      </trkpt>
      <trkpt lat="48.43512" lon="2.63106">
        <ele>102.3</ele>
        <time>2018-04-15T16:02:24Z</time>
      </trkpt>
      <trkpt lat="48.43512" lon="2.63112">
        <ele>102.5</ele>
        <time>2018-04-15T16:02:25Z</time>
      </trkpt>
      <trkpt lat="48.43512" lon="2.63117">
        <ele>102.7</ele>
        <time>2018-04-15T16:02:26Z</time>
      </trkpt>
      <trkpt lat="48.43512" lon="2.63122">
        <ele>102.8</ele>
        <time>2018-04-15T16:02:27Z</time>
      </trkpt>
      <trkpt lat="48.43511" lon="2.63127">
        <ele>103</ele>
        <time>2018-04-15T16:02:28Z</time>
      </trkpt>
      <trkpt lat="48.43511" lon="2.63132">
        <ele>103.1</ele>
        <time>2018-04-15T16:02:29Z</time>
      </trkpt>
      <trkpt lat="48.43511" lon="2.63138">
        <ele>103.4</ele>
        <time>2018-04-15T16:02:30Z</time>
      </trkpt>
      <trkpt lat="48.4351" lon="2.63144">
        <ele>103.7</ele>
        <time>2018-04-15T16:02:31Z</time>
      </trkpt>
      <trkpt lat="48.43509" lon="2.6315">
        <ele>103.9</ele>
        <time>2018-04-15T16:02:32Z</time>
      </trkpt>
      <trkpt lat="48.43508" lon="2.63155">
        <ele>104.1</ele>
        <time>2018-04-15T16:02:33Z</time>
      </trkpt>
      <trkpt lat="48.43508" lon="2.6316">
        <ele>104.3</ele>
        <time>2018-04-15T16:02:34Z</time>
      </trkpt>
      <trkpt lat="48.43507" lon="2.63165">
        <ele>104.6</ele>
        <time>2018-04-15T16:02:35Z</time>
      </trkpt>
      <trkpt lat="48.43506" lon="2.6317">
        <ele>104.9</ele>
        <time>2018-04-15T16:02:36Z</time>
      </trkpt>
      <trkpt lat="48.43504" lon="2.63176">
        <ele>105.2</ele>
        <time>2018-04-15T16:02:37Z</time>
      </trkpt>
      <trkpt lat="48.43503" lon="2.63181">
        <ele>105.5</ele>
        <time>2018-04-15T16:02:38Z</time>
      </trkpt>
      <trkpt lat="48.43502" lon="2.63186">
        <ele>105.7</ele>
        <time>2018-04-15T16:02:39Z</time>
      </trkpt>
      <trkpt lat="48.43501" lon="2.63192">
        <ele>105.9</ele>
        <time>2018-04-15T16:02:40Z</time>
      </trkpt>
      <trkpt lat="48.435" lon="2.63197">
        <ele>106.1</ele>
        <time>2018-04-15T16:02:41Z</time>
      </trkpt>
      <trkpt lat="48.43498" lon="2.63201">
        <ele>106.2</ele>
        <time>2018-04-15T16:02:42Z</time>
      </trkpt>
      <trkpt lat="48.43497" lon="2.63205">
        <ele>106.4</ele>
        <time>2018-04-15T16:02:43Z</time>
      </trkpt>
      <trkpt lat="48.43496" lon="2.63209">
        <ele>106.7</ele>
        <time>2018-04-15T16:02:44Z</time>
      </trkpt>
      <trkpt lat="48.43494" lon="2.63216">
        <ele>107.1</ele>
        <time>2018-04-15T16:02:46Z</time>
      </trkpt>
      <trkpt lat="48.43493" lon="2.6322">
        <ele>107.2</ele>
        <time>2018-04-15T16:02:47Z</time>
      </trkpt>
      <trkpt lat="48.43491" lon="2.63228">
        <ele>107.6</ele>
        <time>2018-04-15T16:02:49Z</time>
      </trkpt>
      <trkpt lat="48.43489" lon="2.63234">
        <ele>107.9</ele>
        <time>2018-04-15T16:02:51Z</time>
      </trkpt>
      <trkpt lat="48.43487" lon="2.63239">
        <ele>108.1</ele>
        <time>2018-04-15T16:02:53Z</time>
      </trkpt>
      <trkpt lat="48.43485" lon="2.63246">
        <ele>108.7</ele>
        <time>2018-04-15T16:02:55Z</time>
      </trkpt>
      <trkpt lat="48.43483" lon="2.6325">
        <ele>109</ele>
        <time>2018-04-15T16:02:56Z</time>
      </trkpt>
      <trkpt lat="48.43482" lon="2.63255">
        <ele>109.1</ele>
        <time>2018-04-15T16:02:57Z</time>
      </trkpt>
      <trkpt lat="48.43481" lon="2.6326">
        <ele>109.1</ele>
        <time>2018-04-15T16:02:58Z</time>
      </trkpt>
      <trkpt lat="48.4348" lon="2.63264">
        <ele>109.1</ele>
        <time>2018-04-15T16:02:59Z</time>
      </trkpt>
      <trkpt lat="48.43478" lon="2.63271">
        <ele>109.1</ele>
        <time>2018-04-15T16:03:01Z</time>
      </trkpt>
      <trkpt lat="48.43477" lon="2.63275">
        <ele>109.2</ele>
        <time>2018-04-15T16:03:02Z</time>
      </trkpt>
      <trkpt lat="48.43475" lon="2.63282">
        <ele>109.2</ele>
        <time>2018-04-15T16:03:04Z</time>
      </trkpt>
      <trkpt lat="48.43474" lon="2.63289">
        <ele>109.3</ele>
        <time>2018-04-15T16:03:06Z</time>
      </trkpt>
      <trkpt lat="48.43473" lon="2.63294">
        <ele>109.3</ele>
        <time>2018-04-15T16:03:07Z</time>
      </trkpt>
      <trkpt lat="48.43472" lon="2.63299">
        <ele>109.3</ele>
        <time>2018-04-15T16:03:08Z</time>
      </trkpt>
      <trkpt lat="48.43471" lon="2.63303">
        <ele>109.3</ele>
        <time>2018-04-15T16:03:09Z</time>
      </trkpt>
      <trkpt lat="48.4347" lon="2.63308">
        <ele>109.4</ele>
        <time>2018-04-15T16:03:11Z</time>
      </trkpt>
      <trkpt lat="48.43468" lon="2.63314">
        <ele>109.4</ele>
        <time>2018-04-15T16:03:13Z</time>
      </trkpt>
      <trkpt lat="48.43466" lon="2.63318">
        <ele>109.4</ele>
        <time>2018-04-15T16:03:14Z</time>
      </trkpt>
      <trkpt lat="48.43464" lon="2.63323">
        <ele>109.5</ele>
        <time>2018-04-15T16:03:16Z</time>
      </trkpt>
      <trkpt lat="48.43462" lon="2.63329">
        <ele>109.5</ele>
        <time>2018-04-15T16:03:18Z</time>
      </trkpt>
      <trkpt lat="48.43459" lon="2.63333">
        <ele>109.5</ele>
        <time>2018-04-15T16:03:20Z</time>
      </trkpt>
      <trkpt lat="48.43457" lon="2.63337">
        <ele>109.5</ele>
        <time>2018-04-15T16:03:21Z</time>
      </trkpt>
      <trkpt lat="48.43455" lon="2.63341">
        <ele>109.6</ele>
        <time>2018-04-15T16:03:23Z</time>
      </trkpt>
      <trkpt lat="48.43453" lon="2.63346">
        <ele>109.6</ele>
        <time>2018-04-15T16:03:25Z</time>
      </trkpt>
      <trkpt lat="48.43452" lon="2.6335">
        <ele>109.6</ele>
        <time>2018-04-15T16:03:27Z</time>
      </trkpt>
      <trkpt lat="48.43452" lon="2.63355">
        <ele>109.7</ele>
        <time>2018-04-15T16:03:29Z</time>
      </trkpt>
      <trkpt lat="48.4345" lon="2.63361">
        <ele>109.8</ele>
        <time>2018-04-15T16:03:31Z</time>
      </trkpt>
      <trkpt lat="48.43449" lon="2.63366">
        <ele>109.9</ele>
        <time>2018-04-15T16:03:33Z</time>
      </trkpt>
      <trkpt lat="48.43447" lon="2.63372">
        <ele>110.1</ele>
        <time>2018-04-15T16:03:35Z</time>
      </trkpt>
      <trkpt lat="48.43445" lon="2.63376">
        <ele>110.3</ele>
        <time>2018-04-15T16:03:36Z</time>
      </trkpt>
      <trkpt lat="48.43441" lon="2.63381">
        <ele>110.5</ele>
        <time>2018-04-15T16:03:38Z</time>
      </trkpt>
      <trkpt lat="48.43438" lon="2.63385">
        <ele>110.8</ele>
        <time>2018-04-15T16:03:40Z</time>
      </trkpt>
      <trkpt lat="48.43435" lon="2.63388">
        <ele>111.1</ele>
        <time>2018-04-15T16:03:42Z</time>
      </trkpt>
      <trkpt lat="48.43429" lon="2.63391">
        <ele>111.7</ele>
        <time>2018-04-15T16:03:44Z</time>
      </trkpt>
      <trkpt lat="48.43426" lon="2.63392">
        <ele>111.9</ele>
        <time>2018-04-15T16:03:45Z</time>
      </trkpt>
      <trkpt lat="48.43423" lon="2.63393">
        <ele>112</ele>
        <time>2018-04-15T16:03:46Z</time>
      </trkpt>
      <trkpt lat="48.4342" lon="2.63393">
        <ele>112.1</ele>
        <time>2018-04-15T16:03:47Z</time>
      </trkpt>
      <trkpt lat="48.43416" lon="2.63393">
        <ele>112.3</ele>
        <time>2018-04-15T16:03:49Z</time>
      </trkpt>
      <trkpt lat="48.4341" lon="2.63395">
        <ele>112.4</ele>
        <time>2018-04-15T16:03:51Z</time>
      </trkpt>
      <trkpt lat="48.43408" lon="2.63397">
        <ele>112.5</ele>
        <time>2018-04-15T16:03:52Z</time>
      </trkpt>
      <trkpt lat="48.43405" lon="2.63399">
        <ele>112.5</ele>
        <time>2018-04-15T16:03:53Z</time>
      </trkpt>
      <trkpt lat="48.43401" lon="2.634">
        <ele>112.6</ele>
        <time>2018-04-15T16:03:55Z</time>
      </trkpt>
      <trkpt lat="48.43399" lon="2.63403">
        <ele>112.6</ele>
        <time>2018-04-15T16:03:56Z</time>
      </trkpt>
      <trkpt lat="48.43396" lon="2.63405">
        <ele>112.7</ele>
        <time>2018-04-15T16:03:57Z</time>
      </trkpt>
      <trkpt lat="48.43393" lon="2.63409">
        <ele>112.7</ele>
        <time>2018-04-15T16:03:59Z</time>
      </trkpt>
      <trkpt lat="48.4339" lon="2.63411">
        <ele>112.8</ele>
        <time>2018-04-15T16:04:01Z</time>
      </trkpt>
      <trkpt lat="48.43387" lon="2.63415">
        <ele>112.9</ele>
        <time>2018-04-15T16:04:03Z</time>
      </trkpt>
      <trkpt lat="48.43384" lon="2.6342">
        <ele>113</ele>
        <time>2018-04-15T16:04:05Z</time>
      </trkpt>
      <trkpt lat="48.43381" lon="2.63423">
        <ele>113.1</ele>
        <time>2018-04-15T16:04:06Z</time>
      </trkpt>
      <trkpt lat="48.43379" lon="2.63428">
        <ele>113.3</ele>
        <time>2018-04-15T16:04:08Z</time>
      </trkpt>
      <trkpt lat="48.43377" lon="2.63433">
        <ele>113.4</ele>
        <time>2018-04-15T16:04:10Z</time>
      </trkpt>
      <trkpt lat="48.43375" lon="2.63438">
        <ele>113.5</ele>
        <time>2018-04-15T16:04:12Z</time>
      </trkpt>
      <trkpt lat="48.43373" lon="2.63442">
        <ele>113.5</ele>
        <time>2018-04-15T16:04:14Z</time>
      </trkpt>
      <trkpt lat="48.43371" lon="2.63446">
        <ele>113.6</ele>
        <time>2018-04-15T16:04:16Z</time>
      </trkpt>
      <trkpt lat="48.43369" lon="2.63449">
        <ele>113.8</ele>
        <time>2018-04-15T16:04:18Z</time>
      </trkpt>
      <trkpt lat="48.43367" lon="2.63455">
        <ele>114</ele>
        <time>2018-04-15T16:04:20Z</time>
      </trkpt>
      <trkpt lat="48.43364" lon="2.63461">
        <ele>114.5</ele>
        <time>2018-04-15T16:04:22Z</time>
      </trkpt>
      <trkpt lat="48.43363" lon="2.63465">
        <ele>114.9</ele>
        <time>2018-04-15T16:04:23Z</time>
      </trkpt>
      <trkpt lat="48.4336" lon="2.63469">
        <ele>115.2</ele>
        <time>2018-04-15T16:04:24Z</time>
      </trkpt>
      <trkpt lat="48.43357" lon="2.63473">
        <ele>115.5</ele>
        <time>2018-04-15T16:04:25Z</time>
      </trkpt>
      <trkpt lat="48.43354" lon="2.63477">
        <ele>115.6</ele>
        <time>2018-04-15T16:04:27Z</time>
      </trkpt>
      <trkpt lat="48.43351" lon="2.63481">
        <ele>115.7</ele>
        <time>2018-04-15T16:04:29Z</time>
      </trkpt>
      <trkpt lat="48.43348" lon="2.63484">
        <ele>115.8</ele>
        <time>2018-04-15T16:04:31Z</time>
      </trkpt>
      <trkpt lat="48.43344" lon="2.63488">
        <ele>116.1</ele>
        <time>2018-04-15T16:04:33Z</time>
      </trkpt>
      <trkpt lat="48.43341" lon="2.6349">
        <ele>116.2</ele>
        <time>2018-04-15T16:04:35Z</time>
      </trkpt>
      <trkpt lat="48.43339" lon="2.63492">
        <ele>116.3</ele>
        <time>2018-04-15T16:04:38Z</time>
      </trkpt>
      <trkpt lat="48.43336" lon="2.63494">
        <ele>116.5</ele>
        <time>2018-04-15T16:04:40Z</time>
      </trkpt>
      <trkpt lat="48.43332" lon="2.63497">
        <ele>116.6</ele>
        <time>2018-04-15T16:04:42Z</time>
      </trkpt>
      <trkpt lat="48.43329" lon="2.63497">
        <ele>116.9</ele>
        <time>2018-04-15T16:04:44Z</time>
      </trkpt>
      <trkpt lat="48.43326" lon="2.63497">
        <ele>117.2</ele>
        <time>2018-04-15T16:04:46Z</time>
      </trkpt>
      <trkpt lat="48.43321" lon="2.63496">
        <ele>117.7</ele>
        <time>2018-04-15T16:04:48Z</time>
      </trkpt>
      <trkpt lat="48.43317" lon="2.63495">
        <ele>118</ele>
        <time>2018-04-15T16:04:50Z</time>
      </trkpt>
      <trkpt lat="48.43314" lon="2.63494">
        <ele>118.4</ele>
        <time>2018-04-15T16:04:51Z</time>
      </trkpt>
      <trkpt lat="48.43312" lon="2.63492">
        <ele>118.7</ele>
        <time>2018-04-15T16:04:54Z</time>
      </trkpt>
      <trkpt lat="48.43309" lon="2.63491">
        <ele>119.1</ele>
        <time>2018-04-15T16:04:56Z</time>
      </trkpt>
      <trkpt lat="48.43305" lon="2.6349">
        <ele>119.6</ele>
        <time>2018-04-15T16:04:58Z</time>
      </trkpt>
      <trkpt lat="48.43302" lon="2.63491">
        <ele>119.8</ele>
        <time>2018-04-15T16:05:00Z</time>
      </trkpt>
      <trkpt lat="48.43297" lon="2.6349">
        <ele>120.1</ele>
        <time>2018-04-15T16:05:02Z</time>
      </trkpt>
      <trkpt lat="48.43293" lon="2.63489">
        <ele>121.2</ele>
        <time>2018-04-15T16:05:04Z</time>
      </trkpt>
      <trkpt lat="48.4329" lon="2.63489">
        <ele>121.5</ele>
        <time>2018-04-15T16:05:06Z</time>
      </trkpt>
      <trkpt lat="48.43287" lon="2.63488">
        <ele>121.7</ele>
        <time>2018-04-15T16:05:10Z</time>
      </trkpt>
      <trkpt lat="48.43284" lon="2.63486">
        <ele>121.9</ele>
        <time>2018-04-15T16:05:30Z</time>
      </trkpt>
      <trkpt lat="48.43281" lon="2.63485">
        <ele>122.1</ele>
        <time>2018-04-15T16:05:34Z</time>
      </trkpt>
      <trkpt lat="48.43279" lon="2.63482">
        <ele>122.4</ele>
        <time>2018-04-15T16:05:43Z</time>
      </trkpt>
      <trkpt lat="48.43277" lon="2.63483">
        <ele>122.7</ele>
        <time>2018-04-15T16:05:47Z</time>
      </trkpt>
      <trkpt lat="48.43274" lon="2.63482">
        <ele>123</ele>
        <time>2018-04-15T16:05:54Z</time>
      </trkpt>
      <trkpt lat="48.43271" lon="2.63482">
        <ele>123.2</ele>
        <time>2018-04-15T16:05:58Z</time>
      </trkpt>
      <trkpt lat="48.43268" lon="2.63481">
        <ele>123.4</ele>
        <time>2018-04-15T16:06:02Z</time>
      </trkpt>
      <trkpt lat="48.43265" lon="2.63481">
        <ele>123.6</ele>
        <time>2018-04-15T16:06:06Z</time>
      </trkpt>
      <trkpt lat="48.43262" lon="2.6348">
        <ele>123.8</ele>
        <time>2018-04-15T16:06:16Z</time>
      </trkpt>
      <trkpt lat="48.43259" lon="2.63479">
        <ele>124</ele>
        <time>2018-04-15T16:06:18Z</time>
      </trkpt>
      <trkpt lat="48.43256" lon="2.63478">
        <ele>124.4</ele>
        <time>2018-04-15T16:06:23Z</time>
      </trkpt>
      <trkpt lat="48.43252" lon="2.63476">
        <ele>125.1</ele>
        <time>2018-04-15T16:06:26Z</time>
      </trkpt>
      <trkpt lat="48.43249" lon="2.63474">
        <ele>125.5</ele>
        <time>2018-04-15T16:06:29Z</time>
      </trkpt>
      <trkpt lat="48.43248" lon="2.63469">
        <ele>126.1</ele>
        <time>2018-04-15T16:06:34Z</time>
      </trkpt>
      <trkpt lat="48.43246" lon="2.63465">
        <ele>126.6</ele>
        <time>2018-04-15T16:06:38Z</time>
      </trkpt>
      <trkpt lat="48.43243" lon="2.63464">
        <ele>126.9</ele>
        <time>2018-04-15T16:06:42Z</time>
      </trkpt>
      <trkpt lat="48.4324" lon="2.63463">
        <ele>127.1</ele>
        <time>2018-04-15T16:06:45Z</time>
      </trkpt>
      <trkpt lat="48.43236" lon="2.63464">
        <ele>127.2</ele>
        <time>2018-04-15T16:06:51Z</time>
      </trkpt>
      <trkpt lat="48.43233" lon="2.63465">
        <ele>127.4</ele>
        <time>2018-04-15T16:06:56Z</time>
      </trkpt>
      <trkpt lat="48.43231" lon="2.63465">
        <ele>127.8</ele>
        <time>2018-04-15T16:07:00Z</time>
      </trkpt>
      <trkpt lat="48.43228" lon="2.63465">
        <ele>128.2</ele>
        <time>2018-04-15T16:07:02Z</time>
      </trkpt>
      <trkpt lat="48.43224" lon="2.63465">
        <ele>128.7</ele>
        <time>2018-04-15T16:07:06Z</time>
      </trkpt>
      <trkpt lat="48.43221" lon="2.63465">
        <ele>129</ele>
        <time>2018-04-15T16:07:09Z</time>
      </trkpt>
      <trkpt lat="48.43218" lon="2.63465">
        <ele>129.5</ele>
        <time>2018-04-15T16:07:13Z</time>
      </trkpt>
      <trkpt lat="48.43215" lon="2.63464">
        <ele>130.1</ele>
        <time>2018-04-15T16:07:16Z</time>
      </trkpt>
      <trkpt lat="48.43212" lon="2.63462">
        <ele>130.4</ele>
        <time>2018-04-15T16:07:21Z</time>
      </trkpt>
      <trkpt lat="48.4321" lon="2.6346">
        <ele>131.1</ele>
        <time>2018-04-15T16:07:25Z</time>
      </trkpt>
      <trkpt lat="48.43208" lon="2.63456">
        <ele>131.8</ele>
        <time>2018-04-15T16:07:31Z</time>
      </trkpt>
      <trkpt lat="48.43206" lon="2.63452">
        <ele>132.3</ele>
        <time>2018-04-15T16:07:34Z</time>
      </trkpt>
      <trkpt lat="48.43205" lon="2.63448">
        <ele>132.8</ele>
        <time>2018-04-15T16:07:38Z</time>
      </trkpt>
      <trkpt lat="48.43203" lon="2.63444">
        <ele>133.4</ele>
        <time>2018-04-15T16:07:42Z</time>
      </trkpt>
      <trkpt lat="48.43206" lon="2.63443">
        <ele>133.9</ele>
        <time>2018-04-15T16:08:12Z</time>
      </trkpt>
      <trkpt lat="48.43206" lon="2.63439">
        <ele>134.4</ele>
        <time>2018-04-15T16:08:24Z</time>
      </trkpt>
      <trkpt lat="48.43206" lon="2.63434">
        <ele>135.8</ele>
        <time>2018-04-15T16:08:27Z</time>
      </trkpt>
      <trkpt lat="48.43204" lon="2.63427">
        <ele>136.7</ele>
        <time>2018-04-15T16:08:30Z</time>
      </trkpt>
      <trkpt lat="48.43204" lon="2.63422">
        <ele>137.4</ele>
        <time>2018-04-15T16:08:33Z</time>
      </trkpt>
      <trkpt lat="48.43205" lon="2.63417">
        <ele>137.9</ele>
        <time>2018-04-15T16:08:46Z</time>
      </trkpt>
      <trkpt lat="48.43203" lon="2.63412">
        <ele>138.6</ele>
        <time>2018-04-15T16:09:04Z</time>
      </trkpt>
      <trkpt lat="48.432" lon="2.63409">
        <ele>138.9</ele>
        <time>2018-04-15T16:09:06Z</time>
      </trkpt>
      <trkpt lat="48.43197" lon="2.63409">
        <ele>139</ele>
        <time>2018-04-15T16:09:08Z</time>
      </trkpt>
      <trkpt lat="48.43195" lon="2.63409">
        <ele>139</ele>
        <time>2018-04-15T16:09:10Z</time>
      </trkpt>
      <trkpt lat="48.43191" lon="2.63409">
        <ele>139.1</ele>
        <time>2018-04-15T16:09:13Z</time>
      </trkpt>
      <trkpt lat="48.43188" lon="2.63406">
        <ele>139.1</ele>
        <time>2018-04-15T16:09:15Z</time>
      </trkpt>
      <trkpt lat="48.43185" lon="2.63404">
        <ele>139.1</ele>
        <time>2018-04-15T16:09:17Z</time>
      </trkpt>
      <trkpt lat="48.43181" lon="2.63401">
        <ele>139.1</ele>
        <time>2018-04-15T16:09:19Z</time>
      </trkpt>
      <trkpt lat="48.43178" lon="2.63399">
        <ele>139.1</ele>
        <time>2018-04-15T16:09:20Z</time>
      </trkpt>
      <trkpt lat="48.43174" lon="2.63399">
        <ele>139.1</ele>
        <time>2018-04-15T16:09:22Z</time>
      </trkpt>
      <trkpt lat="48.4317" lon="2.63401">
        <ele>139.1</ele>
        <time>2018-04-15T16:09:24Z</time>
      </trkpt>
      <trkpt lat="48.43168" lon="2.63404">
        <ele>139</ele>
        <time>2018-04-15T16:09:27Z</time>
      </trkpt>
      <trkpt lat="48.43166" lon="2.63407">
        <ele>139</ele>
        <time>2018-04-15T16:09:30Z</time>
      </trkpt>
      <trkpt lat="48.43166" lon="2.63412">
        <ele>139</ele>
        <time>2018-04-15T16:09:33Z</time>
      </trkpt>
      <trkpt lat="48.43164" lon="2.63415">
        <ele>139</ele>
        <time>2018-04-15T16:09:35Z</time>
      </trkpt>
      <trkpt lat="48.43163" lon="2.6342">
        <ele>139</ele>
        <time>2018-04-15T16:09:39Z</time>
      </trkpt>
      <trkpt lat="48.43161" lon="2.63424">
        <ele>139</ele>
        <time>2018-04-15T16:09:41Z</time>
      </trkpt>
      <trkpt lat="48.43159" lon="2.63428">
        <ele>139</ele>
        <time>2018-04-15T16:09:43Z</time>
      </trkpt>
      <trkpt lat="48.43157" lon="2.6343">
        <ele>139</ele>
        <time>2018-04-15T16:09:47Z</time>
      </trkpt>
      <trkpt lat="48.43153" lon="2.63434">
        <ele>139</ele>
        <time>2018-04-15T16:10:04Z</time>
      </trkpt>
      <trkpt lat="48.43151" lon="2.63438">
        <ele>139.1</ele>
        <time>2018-04-15T16:10:06Z</time>
      </trkpt>
      <trkpt lat="48.43148" lon="2.63441">
        <ele>139.1</ele>
        <time>2018-04-15T16:10:09Z</time>
      </trkpt>
      <trkpt lat="48.43145" lon="2.63445">
        <ele>139.1</ele>
        <time>2018-04-15T16:10:11Z</time>
      </trkpt>
      <trkpt lat="48.43143" lon="2.6345">
        <ele>139.1</ele>
        <time>2018-04-15T16:10:13Z</time>
      </trkpt>
      <trkpt lat="48.43143" lon="2.63457">
        <ele>139.1</ele>
        <time>2018-04-15T16:10:15Z</time>
      </trkpt>
      <trkpt lat="48.43143" lon="2.63464">
        <ele>139.1</ele>
        <time>2018-04-15T16:10:17Z</time>
      </trkpt>
      <trkpt lat="48.43143" lon="2.63469">
        <ele>139.1</ele>
        <time>2018-04-15T16:10:19Z</time>
      </trkpt>
      <trkpt lat="48.43143" lon="2.63475">
        <ele>139.1</ele>
        <time>2018-04-15T16:10:21Z</time>
      </trkpt>
      <trkpt lat="48.43145" lon="2.6348">
        <ele>139.1</ele>
        <time>2018-04-15T16:10:23Z</time>
      </trkpt>
      <trkpt lat="48.43146" lon="2.63486">
        <ele>139.1</ele>
        <time>2018-04-15T16:10:25Z</time>
      </trkpt>
      <trkpt lat="48.43148" lon="2.63493">
        <ele>139.1</ele>
        <time>2018-04-15T16:10:27Z</time>
      </trkpt>
      <trkpt lat="48.43149" lon="2.635">
        <ele>139.1</ele>
        <time>2018-04-15T16:10:29Z</time>
      </trkpt>
      <trkpt lat="48.43148" lon="2.63505">
        <ele>139.1</ele>
        <time>2018-04-15T16:10:30Z</time>
      </trkpt>
      <trkpt lat="48.43148" lon="2.6351">
        <ele>139.1</ele>
        <time>2018-04-15T16:10:31Z</time>
      </trkpt>
      <trkpt lat="48.43148" lon="2.63515">
        <ele>139</ele>
        <time>2018-04-15T16:10:32Z</time>
      </trkpt>
      <trkpt lat="48.43148" lon="2.63519">
        <ele>139</ele>
        <time>2018-04-15T16:10:33Z</time>
      </trkpt>
      <trkpt lat="48.43148" lon="2.63524">
        <ele>139</ele>
        <time>2018-04-15T16:10:34Z</time>
      </trkpt>
      <trkpt lat="48.43148" lon="2.63529">
        <ele>138.9</ele>
        <time>2018-04-15T16:10:35Z</time>
      </trkpt>
      <trkpt lat="48.43148" lon="2.63535">
        <ele>138.9</ele>
        <time>2018-04-15T16:10:36Z</time>
      </trkpt>
      <trkpt lat="48.43147" lon="2.6354">
        <ele>138.8</ele>
        <time>2018-04-15T16:10:37Z</time>
      </trkpt>
      <trkpt lat="48.43146" lon="2.63545">
        <ele>138.8</ele>
        <time>2018-04-15T16:10:38Z</time>
      </trkpt>
      <trkpt lat="48.43145" lon="2.63551">
        <ele>138.6</ele>
        <time>2018-04-15T16:10:40Z</time>
      </trkpt>
      <trkpt lat="48.43145" lon="2.63556">
        <ele>138.6</ele>
        <time>2018-04-15T16:10:41Z</time>
      </trkpt>
      <trkpt lat="48.43144" lon="2.63561">
        <ele>138.4</ele>
        <time>2018-04-15T16:10:42Z</time>
      </trkpt>
      <trkpt lat="48.43144" lon="2.63565">
        <ele>138.3</ele>
        <time>2018-04-15T16:10:43Z</time>
      </trkpt>
      <trkpt lat="48.43143" lon="2.6357">
        <ele>138.1</ele>
        <time>2018-04-15T16:10:45Z</time>
      </trkpt>
      <trkpt lat="48.43145" lon="2.63577">
        <ele>137.3</ele>
        <time>2018-04-15T16:10:47Z</time>
      </trkpt>
      <trkpt lat="48.43147" lon="2.63581">
        <ele>136.9</ele>
        <time>2018-04-15T16:10:49Z</time>
      </trkpt>
      <trkpt lat="48.43149" lon="2.63585">
        <ele>136.5</ele>
        <time>2018-04-15T16:10:53Z</time>
      </trkpt>
      <trkpt lat="48.43152" lon="2.63586">
        <ele>136</ele>
        <time>2018-04-15T16:11:01Z</time>
      </trkpt>
      <trkpt lat="48.43155" lon="2.63591">
        <ele>135.5</ele>
        <time>2018-04-15T16:11:05Z</time>
      </trkpt>
      <trkpt lat="48.43157" lon="2.63593">
        <ele>135.1</ele>
        <time>2018-04-15T16:11:07Z</time>
      </trkpt>
      <trkpt lat="48.43159" lon="2.63596">
        <ele>134.7</ele>
        <time>2018-04-15T16:11:10Z</time>
      </trkpt>
      <trkpt lat="48.43161" lon="2.63599">
        <ele>134.4</ele>
        <time>2018-04-15T16:11:13Z</time>
      </trkpt>
      <trkpt lat="48.43165" lon="2.63603">
        <ele>133.9</ele>
        <time>2018-04-15T16:11:15Z</time>
      </trkpt>
      <trkpt lat="48.43167" lon="2.63605">
        <ele>133.4</ele>
        <time>2018-04-15T16:11:18Z</time>
      </trkpt>
      <trkpt lat="48.4317" lon="2.63609">
        <ele>132.9</ele>
        <time>2018-04-15T16:11:21Z</time>
      </trkpt>
      <trkpt lat="48.43172" lon="2.63613">
        <ele>132.5</ele>
        <time>2018-04-15T16:11:24Z</time>
      </trkpt>
      <trkpt lat="48.43174" lon="2.63616">
        <ele>132</ele>
        <time>2018-04-15T16:11:29Z</time>
      </trkpt>
      <trkpt lat="48.43176" lon="2.6362">
        <ele>131.5</ele>
        <time>2018-04-15T16:11:33Z</time>
      </trkpt>
      <trkpt lat="48.43178" lon="2.63623">
        <ele>131.2</ele>
        <time>2018-04-15T16:11:37Z</time>
      </trkpt>
      <trkpt lat="48.4318" lon="2.63627">
        <ele>130.8</ele>
        <time>2018-04-15T16:11:48Z</time>
      </trkpt>
      <trkpt lat="48.43181" lon="2.63631">
        <ele>130.4</ele>
        <time>2018-04-15T16:11:53Z</time>
      </trkpt>
      <trkpt lat="48.43181" lon="2.63635">
        <ele>130.2</ele>
        <time>2018-04-15T16:11:58Z</time>
      </trkpt>
      <trkpt lat="48.43184" lon="2.63635">
        <ele>129.9</ele>
        <time>2018-04-15T16:12:11Z</time>
      </trkpt>
      <trkpt lat="48.43188" lon="2.63638">
        <ele>129.6</ele>
        <time>2018-04-15T16:12:18Z</time>
      </trkpt>
      <trkpt lat="48.43192" lon="2.6364">
        <ele>129.2</ele>
        <time>2018-04-15T16:12:20Z</time>
      </trkpt>
      <trkpt lat="48.43195" lon="2.63641">
        <ele>128.9</ele>
        <time>2018-04-15T16:12:22Z</time>
      </trkpt>
      <trkpt lat="48.43199" lon="2.63645">
        <ele>128.6</ele>
        <time>2018-04-15T16:12:24Z</time>
      </trkpt>
      <trkpt lat="48.43202" lon="2.63646">
        <ele>128.3</ele>
        <time>2018-04-15T16:12:26Z</time>
      </trkpt>
      <trkpt lat="48.43205" lon="2.63649">
        <ele>128.1</ele>
        <time>2018-04-15T16:12:28Z</time>
      </trkpt>
      <trkpt lat="48.43208" lon="2.63651">
        <ele>127.8</ele>
        <time>2018-04-15T16:12:30Z</time>
      </trkpt>
      <trkpt lat="48.43212" lon="2.63655">
        <ele>127.2</ele>
        <time>2018-04-15T16:12:33Z</time>
      </trkpt>
      <trkpt lat="48.43214" lon="2.63658">
        <ele>126.9</ele>
        <time>2018-04-15T16:12:35Z</time>
      </trkpt>
      <trkpt lat="48.43217" lon="2.63661">
        <ele>126.6</ele>
        <time>2018-04-15T16:12:37Z</time>
      </trkpt>
      <trkpt lat="48.43219" lon="2.63665">
        <ele>126.1</ele>
        <time>2018-04-15T16:12:39Z</time>
      </trkpt>
      <trkpt lat="48.43223" lon="2.63666">
        <ele>125.7</ele>
        <time>2018-04-15T16:12:41Z</time>
      </trkpt>
      <trkpt lat="48.43226" lon="2.63665">
        <ele>125.4</ele>
        <time>2018-04-15T16:12:43Z</time>
      </trkpt>
      <trkpt lat="48.43228" lon="2.63665">
        <ele>125.1</ele>
        <time>2018-04-15T16:12:45Z</time>
      </trkpt>
      <trkpt lat="48.43232" lon="2.63666">
        <ele>124.8</ele>
        <time>2018-04-15T16:12:47Z</time>
      </trkpt>
      <trkpt lat="48.43234" lon="2.63668">
        <ele>124.5</ele>
        <time>2018-04-15T16:12:52Z</time>
      </trkpt>
      <trkpt lat="48.43237" lon="2.63668">
        <ele>124.2</ele>
        <time>2018-04-15T16:12:58Z</time>
      </trkpt>
      <trkpt lat="48.4324" lon="2.63671">
        <ele>124</ele>
        <time>2018-04-15T16:13:03Z</time>
      </trkpt>
      <trkpt lat="48.43243" lon="2.63672">
        <ele>123.6</ele>
        <time>2018-04-15T16:13:06Z</time>
      </trkpt>
      <trkpt lat="48.43246" lon="2.63674">
        <ele>123.1</ele>
        <time>2018-04-15T16:13:11Z</time>
      </trkpt>
      <trkpt lat="48.43249" lon="2.63675">
        <ele>122.7</ele>
        <time>2018-04-15T16:13:15Z</time>
      </trkpt>
      <trkpt lat="48.43251" lon="2.63674">
        <ele>122.3</ele>
        <time>2018-04-15T16:13:31Z</time>
      </trkpt>
      <trkpt lat="48.43254" lon="2.63672">
        <ele>121.7</ele>
        <time>2018-04-15T16:13:34Z</time>
      </trkpt>
      <trkpt lat="48.43256" lon="2.63672">
        <ele>121.3</ele>
        <time>2018-04-15T16:13:37Z</time>
      </trkpt>
      <trkpt lat="48.43259" lon="2.63669">
        <ele>121</ele>
        <time>2018-04-15T16:13:39Z</time>
      </trkpt>
      <trkpt lat="48.43263" lon="2.63671">
        <ele>120.4</ele>
        <time>2018-04-15T16:13:42Z</time>
      </trkpt>
      <trkpt lat="48.43268" lon="2.63675">
        <ele>119.7</ele>
        <time>2018-04-15T16:13:44Z</time>
      </trkpt>
      <trkpt lat="48.43273" lon="2.63679">
        <ele>119.3</ele>
        <time>2018-04-15T16:13:46Z</time>
      </trkpt>
      <trkpt lat="48.43276" lon="2.6368">
        <ele>119.1</ele>
        <time>2018-04-15T16:13:48Z</time>
      </trkpt>
      <trkpt lat="48.43278" lon="2.63684">
        <ele>118.9</ele>
        <time>2018-04-15T16:13:49Z</time>
      </trkpt>
      <trkpt lat="48.43281" lon="2.63687">
        <ele>118.7</ele>
        <time>2018-04-15T16:13:50Z</time>
      </trkpt>
      <trkpt lat="48.43285" lon="2.63691">
        <ele>118.5</ele>
        <time>2018-04-15T16:13:52Z</time>
      </trkpt>
      <trkpt lat="48.43289" lon="2.63696">
        <ele>118.2</ele>
        <time>2018-04-15T16:13:54Z</time>
      </trkpt>
      <trkpt lat="48.43291" lon="2.63699">
        <ele>118</ele>
        <time>2018-04-15T16:13:55Z</time>
      </trkpt>
      <trkpt lat="48.43294" lon="2.63704">
        <ele>117.7</ele>
        <time>2018-04-15T16:13:56Z</time>
      </trkpt>
      <trkpt lat="48.43295" lon="2.63708">
        <ele>117.4</ele>
        <time>2018-04-15T16:13:57Z</time>
      </trkpt>
      <trkpt lat="48.43297" lon="2.63713">
        <ele>117.2</ele>
        <time>2018-04-15T16:13:58Z</time>
      </trkpt>
      <trkpt lat="48.43302" lon="2.63719">
        <ele>116.8</ele>
        <time>2018-04-15T16:14:00Z</time>
      </trkpt>
      <trkpt lat="48.43304" lon="2.63724">
        <ele>116.6</ele>
        <time>2018-04-15T16:14:01Z</time>
      </trkpt>
      <trkpt lat="48.43308" lon="2.63728">
        <ele>116.3</ele>
        <time>2018-04-15T16:14:02Z</time>
      </trkpt>
      <trkpt lat="48.43312" lon="2.63731">
        <ele>116</ele>
        <time>2018-04-15T16:14:03Z</time>
      </trkpt>
      <trkpt lat="48.43316" lon="2.63734">
        <ele>115.5</ele>
        <time>2018-04-15T16:14:04Z</time>
      </trkpt>
      <trkpt lat="48.4332" lon="2.63739">
        <ele>115</ele>
        <time>2018-04-15T16:14:05Z</time>
      </trkpt>
      <trkpt lat="48.43321" lon="2.63744">
        <ele>114.6</ele>
        <time>2018-04-15T16:14:06Z</time>
      </trkpt>
      <trkpt lat="48.43323" lon="2.63749">
        <ele>114.2</ele>
        <time>2018-04-15T16:14:07Z</time>
      </trkpt>
      <trkpt lat="48.43325" lon="2.63754">
        <ele>113.7</ele>
        <time>2018-04-15T16:14:08Z</time>
      </trkpt>
      <trkpt lat="48.43328" lon="2.63758">
        <ele>113.2</ele>
        <time>2018-04-15T16:14:09Z</time>
      </trkpt>
      <trkpt lat="48.43331" lon="2.63761">
        <ele>113.1</ele>
        <time>2018-04-15T16:14:10Z</time>
      </trkpt>
      <trkpt lat="48.43333" lon="2.63765">
        <ele>113</ele>
        <time>2018-04-15T16:14:11Z</time>
      </trkpt>
      <trkpt lat="48.43334" lon="2.63769">
        <ele>112.8</ele>
        <time>2018-04-15T16:14:12Z</time>
      </trkpt>
      <trkpt lat="48.43335" lon="2.63774">
        <ele>112.5</ele>
        <time>2018-04-15T16:14:13Z</time>
      </trkpt>
      <trkpt lat="48.43335" lon="2.6378">
        <ele>112.1</ele>
        <time>2018-04-15T16:14:15Z</time>
      </trkpt>
      <trkpt lat="48.43333" lon="2.63786">
        <ele>111.6</ele>
        <time>2018-04-15T16:14:17Z</time>
      </trkpt>
      <trkpt lat="48.43331" lon="2.63793">
        <ele>111</ele>
        <time>2018-04-15T16:14:19Z</time>
      </trkpt>
      <trkpt lat="48.43328" lon="2.63797">
        <ele>110.2</ele>
        <time>2018-04-15T16:14:21Z</time>
      </trkpt>
      <trkpt lat="48.43326" lon="2.63803">
        <ele>109.3</ele>
        <time>2018-04-15T16:14:23Z</time>
      </trkpt>
      <trkpt lat="48.43326" lon="2.63808">
        <ele>108.8</ele>
        <time>2018-04-15T16:14:26Z</time>
      </trkpt>
      <trkpt lat="48.43326" lon="2.63812">
        <ele>108.3</ele>
        <time>2018-04-15T16:14:29Z</time>
      </trkpt>
      <trkpt lat="48.43326" lon="2.63818">
        <ele>107.6</ele>
        <time>2018-04-15T16:14:31Z</time>
      </trkpt>
      <trkpt lat="48.43325" lon="2.63827">
        <ele>106.7</ele>
        <time>2018-04-15T16:14:33Z</time>
      </trkpt>
      <trkpt lat="48.43323" lon="2.63832">
        <ele>106.2</ele>
        <time>2018-04-15T16:14:34Z</time>
      </trkpt>
      <trkpt lat="48.4332" lon="2.63837">
        <ele>105.7</ele>
        <time>2018-04-15T16:14:35Z</time>
      </trkpt>
      <trkpt lat="48.43317" lon="2.63841">
        <ele>105.2</ele>
        <time>2018-04-15T16:14:36Z</time>
      </trkpt>
      <trkpt lat="48.43313" lon="2.63847">
        <ele>104.9</ele>
        <time>2018-04-15T16:14:37Z</time>
      </trkpt>
      <trkpt lat="48.43311" lon="2.63854">
        <ele>104.5</ele>
        <time>2018-04-15T16:14:38Z</time>
      </trkpt>
      <trkpt lat="48.43308" lon="2.63859">
        <ele>104.2</ele>
        <time>2018-04-15T16:14:39Z</time>
      </trkpt>
      <trkpt lat="48.43306" lon="2.63864">
        <ele>103.8</ele>
        <time>2018-04-15T16:14:40Z</time>
      </trkpt>
      <trkpt lat="48.43303" lon="2.63868">
        <ele>103.6</ele>
        <time>2018-04-15T16:14:41Z</time>
      </trkpt>
      <trkpt lat="48.43301" lon="2.63873">
        <ele>103.3</ele>
        <time>2018-04-15T16:14:42Z</time>
      </trkpt>
      <trkpt lat="48.433" lon="2.63878">
        <ele>103.1</ele>
        <time>2018-04-15T16:14:43Z</time>
      </trkpt>
      <trkpt lat="48.43298" lon="2.63881">
        <ele>102.9</ele>
        <time>2018-04-15T16:14:44Z</time>
      </trkpt>
      <trkpt lat="48.43295" lon="2.63888">
        <ele>102.6</ele>
        <time>2018-04-15T16:14:46Z</time>
      </trkpt>
      <trkpt lat="48.43292" lon="2.63894">
        <ele>102.3</ele>
        <time>2018-04-15T16:14:48Z</time>
      </trkpt>
      <trkpt lat="48.4329" lon="2.63899">
        <ele>102.1</ele>
        <time>2018-04-15T16:14:50Z</time>
      </trkpt>
      <trkpt lat="48.43289" lon="2.63902">
        <ele>101.9</ele>
        <time>2018-04-15T16:14:52Z</time>
      </trkpt>
      <trkpt lat="48.43285" lon="2.63907">
        <ele>101.6</ele>
        <time>2018-04-15T16:14:54Z</time>
      </trkpt>
      <trkpt lat="48.43283" lon="2.63912">
        <ele>101.4</ele>
        <time>2018-04-15T16:14:56Z</time>
      </trkpt>
      <trkpt lat="48.43281" lon="2.63917">
        <ele>100.9</ele>
        <time>2018-04-15T16:14:58Z</time>
      </trkpt>
      <trkpt lat="48.4328" lon="2.63924">
        <ele>100.3</ele>
        <time>2018-04-15T16:15:00Z</time>
      </trkpt>
      <trkpt lat="48.4328" lon="2.63932">
        <ele>99</ele>
        <time>2018-04-15T16:15:02Z</time>
      </trkpt>
      <trkpt lat="48.43281" lon="2.63936">
        <ele>99</ele>
        <time>2018-04-15T16:15:03Z</time>
      </trkpt>
      <trkpt lat="48.43284" lon="2.63944">
        <ele>99</ele>
        <time>2018-04-15T16:15:05Z</time>
      </trkpt>
      <trkpt lat="48.43286" lon="2.63947">
        <ele>99</ele>
        <time>2018-04-15T16:15:06Z</time>
      </trkpt>
      <trkpt lat="48.43289" lon="2.63951">
        <ele>99</ele>
        <time>2018-04-15T16:15:07Z</time>
      </trkpt>
      <trkpt lat="48.4329" lon="2.63955">
        <ele>99</ele>
        <time>2018-04-15T16:15:08Z</time>
      </trkpt>
      <trkpt lat="48.43292" lon="2.63958">
        <ele>99</ele>
        <time>2018-04-15T16:15:09Z</time>
      </trkpt>
      <trkpt lat="48.43293" lon="2.63963">
        <ele>99</ele>
        <time>2018-04-15T16:15:10Z</time>
      </trkpt>
      <trkpt lat="48.43295" lon="2.63971">
        <ele>99</ele>
        <time>2018-04-15T16:15:12Z</time>
      </trkpt>
      <trkpt lat="48.43292" lon="2.63977">
        <ele>99</ele>
        <time>2018-04-15T16:15:14Z</time>
      </trkpt>
      <trkpt lat="48.43288" lon="2.63982">
        <ele>99</ele>
        <time>2018-04-15T16:15:16Z</time>
      </trkpt>
      <trkpt lat="48.43287" lon="2.63986">
        <ele>99</ele>
        <time>2018-04-15T16:15:17Z</time>
      </trkpt>
      <trkpt lat="48.43286" lon="2.6399">
        <ele>99</ele>
        <time>2018-04-15T16:15:18Z</time>
      </trkpt>
      <trkpt lat="48.43286" lon="2.63996">
        <ele>99</ele>
        <time>2018-04-15T16:15:20Z</time>
      </trkpt>
      <trkpt lat="48.43285" lon="2.64004">
        <ele>99</ele>
        <time>2018-04-15T16:15:22Z</time>
      </trkpt>
      <trkpt lat="48.43285" lon="2.64011">
        <ele>99.1</ele>
        <time>2018-04-15T16:15:24Z</time>
      </trkpt>
      <trkpt lat="48.43284" lon="2.64018">
        <ele>99.1</ele>
        <time>2018-04-15T16:15:26Z</time>
      </trkpt>
      <trkpt lat="48.43282" lon="2.64021">
        <ele>99.1</ele>
        <time>2018-04-15T16:15:27Z</time>
      </trkpt>
      <trkpt lat="48.43279" lon="2.64026">
        <ele>99.1</ele>
        <time>2018-04-15T16:15:29Z</time>
      </trkpt>
      <trkpt lat="48.43276" lon="2.64032">
        <ele>99.1</ele>
        <time>2018-04-15T16:15:31Z</time>
      </trkpt>
      <trkpt lat="48.43275" lon="2.64036">
        <ele>99.1</ele>
        <time>2018-04-15T16:15:32Z</time>
      </trkpt>
      <trkpt lat="48.43277" lon="2.64041">
        <ele>99</ele>
        <time>2018-04-15T16:15:34Z</time>
      </trkpt>
      <trkpt lat="48.43278" lon="2.64046">
        <ele>99</ele>
        <time>2018-04-15T16:15:35Z</time>
      </trkpt>
      <trkpt lat="48.43278" lon="2.6405">
        <ele>98.9</ele>
        <time>2018-04-15T16:15:36Z</time>
      </trkpt>
      <trkpt lat="48.4328" lon="2.64058">
        <ele>98.9</ele>
        <time>2018-04-15T16:15:38Z</time>
      </trkpt>
      <trkpt lat="48.43281" lon="2.64061">
        <ele>98.8</ele>
        <time>2018-04-15T16:15:39Z</time>
      </trkpt>
      <trkpt lat="48.43281" lon="2.64068">
        <ele>98.7</ele>
        <time>2018-04-15T16:15:41Z</time>
      </trkpt>
      <trkpt lat="48.43281" lon="2.64074">
        <ele>98.7</ele>
        <time>2018-04-15T16:15:43Z</time>
      </trkpt>
      <trkpt lat="48.4328" lon="2.64078">
        <ele>98.6</ele>
        <time>2018-04-15T16:15:45Z</time>
      </trkpt>
      <trkpt lat="48.43279" lon="2.64082">
        <ele>98.6</ele>
        <time>2018-04-15T16:15:53Z</time>
      </trkpt>
      <trkpt lat="48.43277" lon="2.64083">
        <ele>98.6</ele>
        <time>2018-04-15T16:16:00Z</time>
      </trkpt>
      <trkpt lat="48.43276" lon="2.64078">
        <ele>98.6</ele>
        <time>2018-04-15T16:16:08Z</time>
      </trkpt>
      <trkpt lat="48.43275" lon="2.64074">
        <ele>98.6</ele>
        <time>2018-04-15T16:16:19Z</time>
      </trkpt>
      <trkpt lat="48.43276" lon="2.64069">
        <ele>98.6</ele>
        <time>2018-04-15T16:16:25Z</time>
      </trkpt>
      <trkpt lat="48.43276" lon="2.64064">
        <ele>98.7</ele>
        <time>2018-04-15T16:16:27Z</time>
      </trkpt>
      <trkpt lat="48.43278" lon="2.6406">
        <ele>98.7</ele>
        <time>2018-04-15T16:16:29Z</time>
      </trkpt>
      <trkpt lat="48.4328" lon="2.64058">
        <ele>98.7</ele>
        <time>2018-04-15T16:16:34Z</time>
      </trkpt>
      <trkpt lat="48.43283" lon="2.64061">
        <ele>98.7</ele>
        <time>2018-04-15T16:16:37Z</time>
      </trkpt>
      <trkpt lat="48.43285" lon="2.64067">
        <ele>98.6</ele>
        <time>2018-04-15T16:16:39Z</time>
      </trkpt>
      <trkpt lat="48.43286" lon="2.64075">
        <ele>98.5</ele>
        <time>2018-04-15T16:16:41Z</time>
      </trkpt>
      <trkpt lat="48.43286" lon="2.6408">
        <ele>98.5</ele>
        <time>2018-04-15T16:16:43Z</time>
      </trkpt>
      <trkpt lat="48.43287" lon="2.64087">
        <ele>98.4</ele>
        <time>2018-04-15T16:16:45Z</time>
      </trkpt>
      <trkpt lat="48.43287" lon="2.64093">
        <ele>98.4</ele>
        <time>2018-04-15T16:16:47Z</time>
      </trkpt>
      <trkpt lat="48.43287" lon="2.64099">
        <ele>98.4</ele>
        <time>2018-04-15T16:16:49Z</time>
      </trkpt>
      <trkpt lat="48.43287" lon="2.64105">
        <ele>98.3</ele>
        <time>2018-04-15T16:16:51Z</time>
      </trkpt>
      <trkpt lat="48.43287" lon="2.64112">
        <ele>98.4</ele>
        <time>2018-04-15T16:16:53Z</time>
      </trkpt>
      <trkpt lat="48.43287" lon="2.64117">
        <ele>98.4</ele>
        <time>2018-04-15T16:16:55Z</time>
      </trkpt>
      <trkpt lat="48.43286" lon="2.64123">
        <ele>98.4</ele>
        <time>2018-04-15T16:16:57Z</time>
      </trkpt>
      <trkpt lat="48.43286" lon="2.6413">
        <ele>98.4</ele>
        <time>2018-04-15T16:16:59Z</time>
      </trkpt>
      <trkpt lat="48.43285" lon="2.64135">
        <ele>98.4</ele>
        <time>2018-04-15T16:17:01Z</time>
      </trkpt>
      <trkpt lat="48.43285" lon="2.64142">
        <ele>98.4</ele>
        <time>2018-04-15T16:17:04Z</time>
      </trkpt>
      <trkpt lat="48.43284" lon="2.64148">
        <ele>98.4</ele>
        <time>2018-04-15T16:17:06Z</time>
      </trkpt>
      <trkpt lat="48.43283" lon="2.64153">
        <ele>98.5</ele>
        <time>2018-04-15T16:17:08Z</time>
      </trkpt>
      <trkpt lat="48.43282" lon="2.64158">
        <ele>98.5</ele>
        <time>2018-04-15T16:17:10Z</time>
      </trkpt>
      <trkpt lat="48.43283" lon="2.64164">
        <ele>98.5</ele>
        <time>2018-04-15T16:17:12Z</time>
      </trkpt>
      <trkpt lat="48.43283" lon="2.64171">
        <ele>98.5</ele>
        <time>2018-04-15T16:17:14Z</time>
      </trkpt>
      <trkpt lat="48.43286" lon="2.64176">
        <ele>98.5</ele>
        <time>2018-04-15T16:17:16Z</time>
      </trkpt>
      <trkpt lat="48.43289" lon="2.64179">
        <ele>98.4</ele>
        <time>2018-04-15T16:17:17Z</time>
      </trkpt>
      <trkpt lat="48.43292" lon="2.64182">
        <ele>98.4</ele>
        <time>2018-04-15T16:17:18Z</time>
      </trkpt>
      <trkpt lat="48.43297" lon="2.64183">
        <ele>98.3</ele>
        <time>2018-04-15T16:17:20Z</time>
      </trkpt>
      <trkpt lat="48.43302" lon="2.64182">
        <ele>98.2</ele>
        <time>2018-04-15T16:17:22Z</time>
      </trkpt>
      <trkpt lat="48.43306" lon="2.64181">
        <ele>98.2</ele>
        <time>2018-04-15T16:17:24Z</time>
      </trkpt>
      <trkpt lat="48.43311" lon="2.6418">
        <ele>98.1</ele>
        <time>2018-04-15T16:17:26Z</time>
      </trkpt>
      <trkpt lat="48.43315" lon="2.64178">
        <ele>98.1</ele>
        <time>2018-04-15T16:17:27Z</time>
      </trkpt>
      <trkpt lat="48.4332" lon="2.64176">
        <ele>98</ele>
        <time>2018-04-15T16:17:28Z</time>
      </trkpt>
      <trkpt lat="48.43324" lon="2.64175">
        <ele>98</ele>
        <time>2018-04-15T16:17:29Z</time>
      </trkpt>
      <trkpt lat="48.43327" lon="2.64173">
        <ele>98.1</ele>
        <time>2018-04-15T16:17:30Z</time>
      </trkpt>
      <trkpt lat="48.4333" lon="2.64172">
        <ele>98</ele>
        <time>2018-04-15T16:17:31Z</time>
      </trkpt>
      <trkpt lat="48.43335" lon="2.6417">
        <ele>98</ele>
        <time>2018-04-15T16:17:33Z</time>
      </trkpt>
      <trkpt lat="48.43338" lon="2.64168">
        <ele>98</ele>
        <time>2018-04-15T16:17:34Z</time>
      </trkpt>
      <trkpt lat="48.43341" lon="2.64165">
        <ele>98</ele>
        <time>2018-04-15T16:17:36Z</time>
      </trkpt>
      <trkpt lat="48.43344" lon="2.64161">
        <ele>98</ele>
        <time>2018-04-15T16:17:38Z</time>
      </trkpt>
      <trkpt lat="48.43347" lon="2.64159">
        <ele>98</ele>
        <time>2018-04-15T16:17:39Z</time>
      </trkpt>
      <trkpt lat="48.43351" lon="2.64156">
        <ele>98</ele>
        <time>2018-04-15T16:17:40Z</time>
      </trkpt>
      <trkpt lat="48.43354" lon="2.64153">
        <ele>98.1</ele>
        <time>2018-04-15T16:17:41Z</time>
      </trkpt>
      <trkpt lat="48.43357" lon="2.64153">
        <ele>98.2</ele>
        <time>2018-04-15T16:17:44Z</time>
      </trkpt>
      <trkpt lat="48.4336" lon="2.64157">
        <ele>98.2</ele>
        <time>2018-04-15T16:17:48Z</time>
      </trkpt>
      <trkpt lat="48.43362" lon="2.64163">
        <ele>98.2</ele>
        <time>2018-04-15T16:17:50Z</time>
      </trkpt>
      <trkpt lat="48.43362" lon="2.64175">
        <ele>98.3</ele>
        <time>2018-04-15T16:17:52Z</time>
      </trkpt>
      <trkpt lat="48.43362" lon="2.64182">
        <ele>98.4</ele>
        <time>2018-04-15T16:17:53Z</time>
      </trkpt>
      <trkpt lat="48.43363" lon="2.6419">
        <ele>98.4</ele>
        <time>2018-04-15T16:17:54Z</time>
      </trkpt>
      <trkpt lat="48.43363" lon="2.64198">
        <ele>98.4</ele>
        <time>2018-04-15T16:17:55Z</time>
      </trkpt>
      <trkpt lat="48.43364" lon="2.64205">
        <ele>98.5</ele>
        <time>2018-04-15T16:17:56Z</time>
      </trkpt>
      <trkpt lat="48.43364" lon="2.64211">
        <ele>98.5</ele>
        <time>2018-04-15T16:17:57Z</time>
      </trkpt>
      <trkpt lat="48.43365" lon="2.64218">
        <ele>98.5</ele>
        <time>2018-04-15T16:17:58Z</time>
      </trkpt>
      <trkpt lat="48.43366" lon="2.64225">
        <ele>98.6</ele>
        <time>2018-04-15T16:17:59Z</time>
      </trkpt>
      <trkpt lat="48.43366" lon="2.64231">
        <ele>98.6</ele>
        <time>2018-04-15T16:18:00Z</time>
      </trkpt>
      <trkpt lat="48.43366" lon="2.64235">
        <ele>98.6</ele>
        <time>2018-04-15T16:18:01Z</time>
      </trkpt>
      <trkpt lat="48.43368" lon="2.64246">
        <ele>98.7</ele>
        <time>2018-04-15T16:18:03Z</time>
      </trkpt>
      <trkpt lat="48.43368" lon="2.64252">
        <ele>98.7</ele>
        <time>2018-04-15T16:18:04Z</time>
      </trkpt>
      <trkpt lat="48.43369" lon="2.6426">
        <ele>98.8</ele>
        <time>2018-04-15T16:18:05Z</time>
      </trkpt>
      <trkpt lat="48.4337" lon="2.64266">
        <ele>98.8</ele>
        <time>2018-04-15T16:18:06Z</time>
      </trkpt>
      <trkpt lat="48.43371" lon="2.64273">
        <ele>98.8</ele>
        <time>2018-04-15T16:18:07Z</time>
      </trkpt>
      <trkpt lat="48.43372" lon="2.64279">
        <ele>98.9</ele>
        <time>2018-04-15T16:18:08Z</time>
      </trkpt>
      <trkpt lat="48.43373" lon="2.64286">
        <ele>98.9</ele>
        <time>2018-04-15T16:18:10Z</time>
      </trkpt>
      <trkpt lat="48.43373" lon="2.64291">
        <ele>98.9</ele>
        <time>2018-04-15T16:18:11Z</time>
      </trkpt>
      <trkpt lat="48.43373" lon="2.64299">
        <ele>99</ele>
        <time>2018-04-15T16:18:13Z</time>
      </trkpt>
      <trkpt lat="48.43373" lon="2.64304">
        <ele>99</ele>
        <time>2018-04-15T16:18:14Z</time>
      </trkpt>
      <trkpt lat="48.43374" lon="2.64309">
        <ele>99</ele>
        <time>2018-04-15T16:18:15Z</time>
      </trkpt>
      <trkpt lat="48.43374" lon="2.64314">
        <ele>99</ele>
        <time>2018-04-15T16:18:16Z</time>
      </trkpt>
      <trkpt lat="48.43374" lon="2.64319">
        <ele>99.1</ele>
        <time>2018-04-15T16:18:17Z</time>
      </trkpt>
      <trkpt lat="48.43374" lon="2.64326">
        <ele>99.1</ele>
        <time>2018-04-15T16:18:18Z</time>
      </trkpt>
      <trkpt lat="48.43374" lon="2.64332">
        <ele>99.1</ele>
        <time>2018-04-15T16:18:19Z</time>
      </trkpt>
      <trkpt lat="48.43374" lon="2.64336">
        <ele>99.2</ele>
        <time>2018-04-15T16:18:20Z</time>
      </trkpt>
      <trkpt lat="48.43374" lon="2.64341">
        <ele>99.2</ele>
        <time>2018-04-15T16:18:21Z</time>
      </trkpt>
      <trkpt lat="48.43374" lon="2.64345">
        <ele>99.2</ele>
        <time>2018-04-15T16:18:22Z</time>
      </trkpt>
      <trkpt lat="48.43374" lon="2.6435">
        <ele>99.3</ele>
        <time>2018-04-15T16:18:23Z</time>
      </trkpt>
      <trkpt lat="48.43374" lon="2.64355">
        <ele>99.3</ele>
        <time>2018-04-15T16:18:24Z</time>
      </trkpt>
      <trkpt lat="48.43374" lon="2.6436">
        <ele>99.3</ele>
        <time>2018-04-15T16:18:25Z</time>
      </trkpt>
      <trkpt lat="48.43374" lon="2.64365">
        <ele>99.4</ele>
        <time>2018-04-15T16:18:26Z</time>
      </trkpt>
      <trkpt lat="48.43374" lon="2.6437">
        <ele>99.4</ele>
        <time>2018-04-15T16:18:27Z</time>
      </trkpt>
      <trkpt lat="48.43374" lon="2.64376">
        <ele>99.5</ele>
        <time>2018-04-15T16:18:28Z</time>
      </trkpt>
      <trkpt lat="48.43375" lon="2.64382">
        <ele>99.5</ele>
        <time>2018-04-15T16:18:29Z</time>
      </trkpt>
      <trkpt lat="48.43375" lon="2.64387">
        <ele>99.6</ele>
        <time>2018-04-15T16:18:30Z</time>
      </trkpt>
      <trkpt lat="48.43375" lon="2.64396">
        <ele>99.8</ele>
        <time>2018-04-15T16:18:32Z</time>
      </trkpt>
      <trkpt lat="48.43375" lon="2.64401">
        <ele>99.9</ele>
        <time>2018-04-15T16:18:33Z</time>
      </trkpt>
      <trkpt lat="48.43375" lon="2.64407">
        <ele>99.9</ele>
        <time>2018-04-15T16:18:34Z</time>
      </trkpt>
      <trkpt lat="48.43376" lon="2.64412">
        <ele>100</ele>
        <time>2018-04-15T16:18:35Z</time>
      </trkpt>
      <trkpt lat="48.43376" lon="2.6442">
        <ele>99.9</ele>
        <time>2018-04-15T16:18:37Z</time>
      </trkpt>
      <trkpt lat="48.43376" lon="2.64425">
        <ele>99.9</ele>
        <time>2018-04-15T16:18:38Z</time>
      </trkpt>
      <trkpt lat="48.43376" lon="2.6443">
        <ele>99.8</ele>
        <time>2018-04-15T16:18:39Z</time>
      </trkpt>
      <trkpt lat="48.43376" lon="2.64435">
        <ele>99.8</ele>
        <time>2018-04-15T16:18:40Z</time>
      </trkpt>
      <trkpt lat="48.43375" lon="2.64444">
        <ele>99.7</ele>
        <time>2018-04-15T16:18:42Z</time>
      </trkpt>
      <trkpt lat="48.43375" lon="2.6445">
        <ele>99.6</ele>
        <time>2018-04-15T16:18:43Z</time>
      </trkpt>
      <trkpt lat="48.43375" lon="2.64455">
        <ele>99.5</ele>
        <time>2018-04-15T16:18:44Z</time>
      </trkpt>
      <trkpt lat="48.43376" lon="2.6446">
        <ele>99.5</ele>
        <time>2018-04-15T16:18:45Z</time>
      </trkpt>
      <trkpt lat="48.43375" lon="2.64468">
        <ele>99.4</ele>
        <time>2018-04-15T16:18:47Z</time>
      </trkpt>
      <trkpt lat="48.43375" lon="2.64473">
        <ele>99.4</ele>
        <time>2018-04-15T16:18:48Z</time>
      </trkpt>
      <trkpt lat="48.43376" lon="2.64478">
        <ele>99.3</ele>
        <time>2018-04-15T16:18:49Z</time>
      </trkpt>
      <trkpt lat="48.43376" lon="2.64484">
        <ele>99.2</ele>
        <time>2018-04-15T16:18:50Z</time>
      </trkpt>
      <trkpt lat="48.43376" lon="2.64489">
        <ele>99.1</ele>
        <time>2018-04-15T16:18:51Z</time>
      </trkpt>
      <trkpt lat="48.43376" lon="2.64494">
        <ele>99.1</ele>
        <time>2018-04-15T16:18:52Z</time>
      </trkpt>
      <trkpt lat="48.43376" lon="2.64498">
        <ele>99</ele>
        <time>2018-04-15T16:18:53Z</time>
      </trkpt>
      <trkpt lat="48.43377" lon="2.64506">
        <ele>98.9</ele>
        <time>2018-04-15T16:18:55Z</time>
      </trkpt>
      <trkpt lat="48.43378" lon="2.64512">
        <ele>98.8</ele>
        <time>2018-04-15T16:18:56Z</time>
      </trkpt>
      <trkpt lat="48.43379" lon="2.64518">
        <ele>98.8</ele>
        <time>2018-04-15T16:18:57Z</time>
      </trkpt>
      <trkpt lat="48.43379" lon="2.64525">
        <ele>98.7</ele>
        <time>2018-04-15T16:18:58Z</time>
      </trkpt>
      <trkpt lat="48.43379" lon="2.6453">
        <ele>98.7</ele>
        <time>2018-04-15T16:18:59Z</time>
      </trkpt>
      <trkpt lat="48.43379" lon="2.64534">
        <ele>98.6</ele>
        <time>2018-04-15T16:19:00Z</time>
      </trkpt>
      <trkpt lat="48.4338" lon="2.64541">
        <ele>98.6</ele>
        <time>2018-04-15T16:19:01Z</time>
      </trkpt>
      <trkpt lat="48.4338" lon="2.64547">
        <ele>98.5</ele>
        <time>2018-04-15T16:19:02Z</time>
      </trkpt>
      <trkpt lat="48.43381" lon="2.64554">
        <ele>98.5</ele>
        <time>2018-04-15T16:19:03Z</time>
      </trkpt>
      <trkpt lat="48.43381" lon="2.64561">
        <ele>98.4</ele>
        <time>2018-04-15T16:19:04Z</time>
      </trkpt>
      <trkpt lat="48.43381" lon="2.64566">
        <ele>98.3</ele>
        <time>2018-04-15T16:19:05Z</time>
      </trkpt>
      <trkpt lat="48.43382" lon="2.64573">
        <ele>98.2</ele>
        <time>2018-04-15T16:19:06Z</time>
      </trkpt>
      <trkpt lat="48.43382" lon="2.64577">
        <ele>98.2</ele>
        <time>2018-04-15T16:19:07Z</time>
      </trkpt>
      <trkpt lat="48.43382" lon="2.64584">
        <ele>98.1</ele>
        <time>2018-04-15T16:19:08Z</time>
      </trkpt>
      <trkpt lat="48.43381" lon="2.64589">
        <ele>98</ele>
        <time>2018-04-15T16:19:09Z</time>
      </trkpt>
      <trkpt lat="48.43382" lon="2.64594">
        <ele>97.8</ele>
        <time>2018-04-15T16:19:10Z</time>
      </trkpt>
      <trkpt lat="48.43382" lon="2.64599">
        <ele>97.8</ele>
        <time>2018-04-15T16:19:11Z</time>
      </trkpt>
      <trkpt lat="48.43382" lon="2.64604">
        <ele>97.7</ele>
        <time>2018-04-15T16:19:12Z</time>
      </trkpt>
      <trkpt lat="48.43381" lon="2.64609">
        <ele>97.7</ele>
        <time>2018-04-15T16:19:13Z</time>
      </trkpt>
      <trkpt lat="48.43382" lon="2.64615">
        <ele>97.6</ele>
        <time>2018-04-15T16:19:14Z</time>
      </trkpt>
      <trkpt lat="48.43383" lon="2.6462">
        <ele>97.6</ele>
        <time>2018-04-15T16:19:15Z</time>
      </trkpt>
      <trkpt lat="48.43382" lon="2.64628">
        <ele>97.5</ele>
        <time>2018-04-15T16:19:17Z</time>
      </trkpt>
      <trkpt lat="48.43382" lon="2.64632">
        <ele>97.4</ele>
        <time>2018-04-15T16:19:18Z</time>
      </trkpt>
      <trkpt lat="48.43382" lon="2.64637">
        <ele>97.4</ele>
        <time>2018-04-15T16:19:19Z</time>
      </trkpt>
      <trkpt lat="48.43381" lon="2.64643">
        <ele>97.3</ele>
        <time>2018-04-15T16:19:20Z</time>
      </trkpt>
      <trkpt lat="48.43381" lon="2.64648">
        <ele>97.2</ele>
        <time>2018-04-15T16:19:21Z</time>
      </trkpt>
      <trkpt lat="48.43381" lon="2.64655">
        <ele>97.1</ele>
        <time>2018-04-15T16:19:23Z</time>
      </trkpt>
      <trkpt lat="48.43382" lon="2.6466">
        <ele>97</ele>
        <time>2018-04-15T16:19:25Z</time>
      </trkpt>
      <trkpt lat="48.43384" lon="2.64665">
        <ele>96.9</ele>
        <time>2018-04-15T16:19:27Z</time>
      </trkpt>
      <trkpt lat="48.43388" lon="2.64666">
        <ele>96.9</ele>
        <time>2018-04-15T16:19:29Z</time>
      </trkpt>
      <trkpt lat="48.43393" lon="2.64664">
        <ele>96.9</ele>
        <time>2018-04-15T16:19:31Z</time>
      </trkpt>
      <trkpt lat="48.43396" lon="2.64663">
        <ele>96.8</ele>
        <time>2018-04-15T16:19:32Z</time>
      </trkpt>
      <trkpt lat="48.43401" lon="2.64661">
        <ele>96.8</ele>
        <time>2018-04-15T16:19:34Z</time>
      </trkpt>
      <trkpt lat="48.43405" lon="2.64659">
        <ele>96.8</ele>
        <time>2018-04-15T16:19:36Z</time>
      </trkpt>
      <trkpt lat="48.43407" lon="2.64658">
        <ele>96.8</ele>
        <time>2018-04-15T16:19:37Z</time>
      </trkpt>
      <trkpt lat="48.43411" lon="2.64656">
        <ele>96.8</ele>
        <time>2018-04-15T16:19:38Z</time>
      </trkpt>
      <trkpt lat="48.43413" lon="2.64653">
        <ele>96.8</ele>
        <time>2018-04-15T16:19:39Z</time>
      </trkpt>
      <trkpt lat="48.43417" lon="2.6465">
        <ele>96.8</ele>
        <time>2018-04-15T16:19:40Z</time>
      </trkpt>
      <trkpt lat="48.4342" lon="2.64648">
        <ele>96.8</ele>
        <time>2018-04-15T16:19:41Z</time>
      </trkpt>
      <trkpt lat="48.43423" lon="2.64647">
        <ele>96.8</ele>
        <time>2018-04-15T16:19:42Z</time>
      </trkpt>
      <trkpt lat="48.43426" lon="2.64645">
        <ele>96.8</ele>
        <time>2018-04-15T16:19:43Z</time>
      </trkpt>
      <trkpt lat="48.43428" lon="2.64642">
        <ele>96.8</ele>
        <time>2018-04-15T16:19:44Z</time>
      </trkpt>
      <trkpt lat="48.43432" lon="2.6464">
        <ele>96.8</ele>
        <time>2018-04-15T16:19:45Z</time>
      </trkpt>
      <trkpt lat="48.43435" lon="2.64639">
        <ele>96.8</ele>
        <time>2018-04-15T16:19:46Z</time>
      </trkpt>
      <trkpt lat="48.43438" lon="2.64638">
        <ele>96.8</ele>
        <time>2018-04-15T16:19:47Z</time>
      </trkpt>
      <trkpt lat="48.43441" lon="2.64636">
        <ele>96.8</ele>
        <time>2018-04-15T16:19:48Z</time>
      </trkpt>
      <trkpt lat="48.43444" lon="2.64633">
        <ele>96.8</ele>
        <time>2018-04-15T16:19:49Z</time>
      </trkpt>
      <trkpt lat="48.43449" lon="2.6463">
        <ele>96.8</ele>
        <time>2018-04-15T16:19:50Z</time>
      </trkpt>
      <trkpt lat="48.43454" lon="2.64627">
        <ele>96.8</ele>
        <time>2018-04-15T16:19:51Z</time>
      </trkpt>
      <trkpt lat="48.43458" lon="2.64622">
        <ele>96.8</ele>
        <time>2018-04-15T16:19:52Z</time>
      </trkpt>
      <trkpt lat="48.43463" lon="2.64619">
        <ele>96.8</ele>
        <time>2018-04-15T16:19:53Z</time>
      </trkpt>
      <trkpt lat="48.43467" lon="2.64616">
        <ele>96.8</ele>
        <time>2018-04-15T16:19:54Z</time>
      </trkpt>
      <trkpt lat="48.43472" lon="2.64614">
        <ele>96.8</ele>
        <time>2018-04-15T16:19:55Z</time>
      </trkpt>
      <trkpt lat="48.43476" lon="2.64611">
        <ele>96.8</ele>
        <time>2018-04-15T16:19:56Z</time>
      </trkpt>
      <trkpt lat="48.43481" lon="2.64609">
        <ele>96.9</ele>
        <time>2018-04-15T16:19:57Z</time>
      </trkpt>
      <trkpt lat="48.43486" lon="2.64606">
        <ele>97</ele>
        <time>2018-04-15T16:19:58Z</time>
      </trkpt>
      <trkpt lat="48.43492" lon="2.64603">
        <ele>97.1</ele>
        <time>2018-04-15T16:19:59Z</time>
      </trkpt>
      <trkpt lat="48.43496" lon="2.64601">
        <ele>97.3</ele>
        <time>2018-04-15T16:20:00Z</time>
      </trkpt>
      <trkpt lat="48.43502" lon="2.64599">
        <ele>97.5</ele>
        <time>2018-04-15T16:20:01Z</time>
      </trkpt>
      <trkpt lat="48.43506" lon="2.64597">
        <ele>97.6</ele>
        <time>2018-04-15T16:20:02Z</time>
      </trkpt>
      <trkpt lat="48.43509" lon="2.64594">
        <ele>97.7</ele>
        <time>2018-04-15T16:20:03Z</time>
      </trkpt>
      <trkpt lat="48.43513" lon="2.64591">
        <ele>97.7</ele>
        <time>2018-04-15T16:20:04Z</time>
      </trkpt>
      <trkpt lat="48.43517" lon="2.64588">
        <ele>97.8</ele>
        <time>2018-04-15T16:20:05Z</time>
      </trkpt>
      <trkpt lat="48.4352" lon="2.64585">
        <ele>97.8</ele>
        <time>2018-04-15T16:20:06Z</time>
      </trkpt>
      <trkpt lat="48.43524" lon="2.64584">
        <ele>97.9</ele>
        <time>2018-04-15T16:20:07Z</time>
      </trkpt>
      <trkpt lat="48.43527" lon="2.64583">
        <ele>97.9</ele>
        <time>2018-04-15T16:20:08Z</time>
      </trkpt>
      <trkpt lat="48.43531" lon="2.64581">
        <ele>97.9</ele>
        <time>2018-04-15T16:20:09Z</time>
      </trkpt>
      <trkpt lat="48.43535" lon="2.64579">
        <ele>98</ele>
        <time>2018-04-15T16:20:10Z</time>
      </trkpt>
      <trkpt lat="48.43539" lon="2.64575">
        <ele>98</ele>
        <time>2018-04-15T16:20:11Z</time>
      </trkpt>
      <trkpt lat="48.43543" lon="2.64572">
        <ele>98</ele>
        <time>2018-04-15T16:20:12Z</time>
      </trkpt>
      <trkpt lat="48.43547" lon="2.64569">
        <ele>98.7</ele>
        <time>2018-04-15T16:20:13Z</time>
      </trkpt>
      <trkpt lat="48.43551" lon="2.64564">
        <ele>98.9</ele>
        <time>2018-04-15T16:20:14Z</time>
      </trkpt>
      <trkpt lat="48.43554" lon="2.6456">
        <ele>99.1</ele>
        <time>2018-04-15T16:20:15Z</time>
      </trkpt>
      <trkpt lat="48.43557" lon="2.64554">
        <ele>99.2</ele>
        <time>2018-04-15T16:20:16Z</time>
      </trkpt>
      <trkpt lat="48.43559" lon="2.6455">
        <ele>99.4</ele>
        <time>2018-04-15T16:20:17Z</time>
      </trkpt>
      <trkpt lat="48.43561" lon="2.64545">
        <ele>99.5</ele>
        <time>2018-04-15T16:20:18Z</time>
      </trkpt>
      <trkpt lat="48.43563" lon="2.64538">
        <ele>99.7</ele>
        <time>2018-04-15T16:20:19Z</time>
      </trkpt>
      <trkpt lat="48.43565" lon="2.64532">
        <ele>99.9</ele>
        <time>2018-04-15T16:20:20Z</time>
      </trkpt>
      <trkpt lat="48.43567" lon="2.64527">
        <ele>100</ele>
        <time>2018-04-15T16:20:21Z</time>
      </trkpt>
      <trkpt lat="48.43568" lon="2.64523">
        <ele>100.2</ele>
        <time>2018-04-15T16:20:22Z</time>
      </trkpt>
      <trkpt lat="48.43571" lon="2.64517">
        <ele>100.3</ele>
        <time>2018-04-15T16:20:23Z</time>
      </trkpt>
      <trkpt lat="48.43573" lon="2.64512">
        <ele>100.5</ele>
        <time>2018-04-15T16:20:24Z</time>
      </trkpt>
      <trkpt lat="48.43576" lon="2.64505">
        <ele>100.8</ele>
        <time>2018-04-15T16:20:25Z</time>
      </trkpt>
      <trkpt lat="48.43579" lon="2.64497">
        <ele>101.1</ele>
        <time>2018-04-15T16:20:26Z</time>
      </trkpt>
      <trkpt lat="48.43581" lon="2.64492">
        <ele>101.3</ele>
        <time>2018-04-15T16:20:27Z</time>
      </trkpt>
      <trkpt lat="48.43584" lon="2.64485">
        <ele>101.7</ele>
        <time>2018-04-15T16:20:28Z</time>
      </trkpt>
      <trkpt lat="48.43586" lon="2.64479">
        <ele>102.1</ele>
        <time>2018-04-15T16:20:29Z</time>
      </trkpt>
      <trkpt lat="48.43588" lon="2.64472">
        <ele>102.4</ele>
        <time>2018-04-15T16:20:30Z</time>
      </trkpt>
      <trkpt lat="48.4359" lon="2.64465">
        <ele>102.7</ele>
        <time>2018-04-15T16:20:31Z</time>
      </trkpt>
      <trkpt lat="48.43593" lon="2.64459">
        <ele>102.8</ele>
        <time>2018-04-15T16:20:32Z</time>
      </trkpt>
      <trkpt lat="48.43595" lon="2.64454">
        <ele>103</ele>
        <time>2018-04-15T16:20:33Z</time>
      </trkpt>
      <trkpt lat="48.43599" lon="2.64447">
        <ele>103.3</ele>
        <time>2018-04-15T16:20:35Z</time>
      </trkpt>
      <trkpt lat="48.43602" lon="2.64443">
        <ele>103.4</ele>
        <time>2018-04-15T16:20:36Z</time>
      </trkpt>
      <trkpt lat="48.43605" lon="2.64439">
        <ele>103.6</ele>
        <time>2018-04-15T16:20:37Z</time>
      </trkpt>
      <trkpt lat="48.43608" lon="2.64435">
        <ele>103.7</ele>
        <time>2018-04-15T16:20:38Z</time>
      </trkpt>
      <trkpt lat="48.4361" lon="2.6443">
        <ele>103.9</ele>
        <time>2018-04-15T16:20:39Z</time>
      </trkpt>
      <trkpt lat="48.43612" lon="2.64425">
        <ele>104.1</ele>
        <time>2018-04-15T16:20:40Z</time>
      </trkpt>
      <trkpt lat="48.43615" lon="2.6442">
        <ele>104.2</ele>
        <time>2018-04-15T16:20:41Z</time>
      </trkpt>
      <trkpt lat="48.43616" lon="2.64416">
        <ele>104.3</ele>
        <time>2018-04-15T16:20:42Z</time>
      </trkpt>
      <trkpt lat="48.43618" lon="2.64411">
        <ele>104.4</ele>
        <time>2018-04-15T16:20:43Z</time>
      </trkpt>
      <trkpt lat="48.43621" lon="2.64406">
        <ele>104.6</ele>
        <time>2018-04-15T16:20:45Z</time>
      </trkpt>
      <trkpt lat="48.43623" lon="2.64402">
        <ele>105.4</ele>
        <time>2018-04-15T16:20:47Z</time>
      </trkpt>
      <trkpt lat="48.43624" lon="2.64398">
        <ele>105.6</ele>
        <time>2018-04-15T16:20:49Z</time>
      </trkpt>
      <trkpt lat="48.43624" lon="2.64392">
        <ele>105.8</ele>
        <time>2018-04-15T16:20:56Z</time>
      </trkpt>
      <trkpt lat="48.43622" lon="2.64388">
        <ele>106</ele>
        <time>2018-04-15T16:20:58Z</time>
      </trkpt>
      <trkpt lat="48.43619" lon="2.64382">
        <ele>106.1</ele>
        <time>2018-04-15T16:21:00Z</time>
      </trkpt>
      <trkpt lat="48.43617" lon="2.64377">
        <ele>106.1</ele>
        <time>2018-04-15T16:21:02Z</time>
      </trkpt>
      <trkpt lat="48.43615" lon="2.64373">
        <ele>106.2</ele>
        <time>2018-04-15T16:21:04Z</time>
      </trkpt>
      <trkpt lat="48.43614" lon="2.64368">
        <ele>106.3</ele>
        <time>2018-04-15T16:21:06Z</time>
      </trkpt>
      <trkpt lat="48.43612" lon="2.64364">
        <ele>106.3</ele>
        <time>2018-04-15T16:21:08Z</time>
      </trkpt>
      <trkpt lat="48.43609" lon="2.6436">
        <ele>106.4</ele>
        <time>2018-04-15T16:21:10Z</time>
      </trkpt>
      <trkpt lat="48.43607" lon="2.64355">
        <ele>106.4</ele>
        <time>2018-04-15T16:21:12Z</time>
      </trkpt>
      <trkpt lat="48.43606" lon="2.64349">
        <ele>106.5</ele>
        <time>2018-04-15T16:21:14Z</time>
      </trkpt>
      <trkpt lat="48.43605" lon="2.64344">
        <ele>106.6</ele>
        <time>2018-04-15T16:21:16Z</time>
      </trkpt>
      <trkpt lat="48.43603" lon="2.6434">
        <ele>106.6</ele>
        <time>2018-04-15T16:21:18Z</time>
      </trkpt>
      <trkpt lat="48.43601" lon="2.64336">
        <ele>106.8</ele>
        <time>2018-04-15T16:21:20Z</time>
      </trkpt>
      <trkpt lat="48.43598" lon="2.64331">
        <ele>107</ele>
        <time>2018-04-15T16:21:22Z</time>
      </trkpt>
      <trkpt lat="48.43596" lon="2.64327">
        <ele>107.1</ele>
        <time>2018-04-15T16:21:24Z</time>
      </trkpt>
      <trkpt lat="48.43593" lon="2.64324">
        <ele>107.3</ele>
        <time>2018-04-15T16:21:34Z</time>
      </trkpt>
      <trkpt lat="48.43592" lon="2.6432">
        <ele>107.5</ele>
        <time>2018-04-15T16:21:41Z</time>
      </trkpt>
      <trkpt lat="48.43591" lon="2.64316">
        <ele>107.6</ele>
        <time>2018-04-15T16:21:45Z</time>
      </trkpt>
      <trkpt lat="48.43589" lon="2.64312">
        <ele>107.7</ele>
        <time>2018-04-15T16:21:48Z</time>
      </trkpt>
      <trkpt lat="48.43588" lon="2.64307">
        <ele>107.8</ele>
        <time>2018-04-15T16:21:52Z</time>
      </trkpt>
      <trkpt lat="48.43587" lon="2.64303">
        <ele>108</ele>
        <time>2018-04-15T16:21:55Z</time>
      </trkpt>
      <trkpt lat="48.43585" lon="2.64299">
        <ele>108</ele>
        <time>2018-04-15T16:21:58Z</time>
      </trkpt>
      <trkpt lat="48.43584" lon="2.64294">
        <ele>108.1</ele>
        <time>2018-04-15T16:22:08Z</time>
      </trkpt>
      <trkpt lat="48.43583" lon="2.6429">
        <ele>108.1</ele>
        <time>2018-04-15T16:22:10Z</time>
      </trkpt>
      <trkpt lat="48.4358" lon="2.64286">
        <ele>108.1</ele>
        <time>2018-04-15T16:22:12Z</time>
      </trkpt>
      <trkpt lat="48.43578" lon="2.64284">
        <ele>108.2</ele>
        <time>2018-04-15T16:22:15Z</time>
      </trkpt>
      <trkpt lat="48.43575" lon="2.64282">
        <ele>108.2</ele>
        <time>2018-04-15T16:22:17Z</time>
      </trkpt>
      <trkpt lat="48.43573" lon="2.64279">
        <ele>108.2</ele>
        <time>2018-04-15T16:22:31Z</time>
      </trkpt>
      <trkpt lat="48.4357" lon="2.64279">
        <ele>108.3</ele>
        <time>2018-04-15T16:22:43Z</time>
      </trkpt>
      <trkpt lat="48.43566" lon="2.64278">
        <ele>108.4</ele>
        <time>2018-04-15T16:22:47Z</time>
      </trkpt>
      <trkpt lat="48.43563" lon="2.64276">
        <ele>108.5</ele>
        <time>2018-04-15T16:22:49Z</time>
      </trkpt>
      <trkpt lat="48.4356" lon="2.64275">
        <ele>108.7</ele>
        <time>2018-04-15T16:22:51Z</time>
      </trkpt>
      <trkpt lat="48.43556" lon="2.64273">
        <ele>108.7</ele>
        <time>2018-04-15T16:22:53Z</time>
      </trkpt>
      <trkpt lat="48.43553" lon="2.6427">
        <ele>108.7</ele>
        <time>2018-04-15T16:22:55Z</time>
      </trkpt>
      <trkpt lat="48.4355" lon="2.64268">
        <ele>108.7</ele>
        <time>2018-04-15T16:22:57Z</time>
      </trkpt>
      <trkpt lat="48.43547" lon="2.64265">
        <ele>108.7</ele>
        <time>2018-04-15T16:23:00Z</time>
      </trkpt>
      <trkpt lat="48.43544" lon="2.64262">
        <ele>108.7</ele>
        <time>2018-04-15T16:23:02Z</time>
      </trkpt>
      <trkpt lat="48.43541" lon="2.64257">
        <ele>108.6</ele>
        <time>2018-04-15T16:23:04Z</time>
      </trkpt>
      <trkpt lat="48.43538" lon="2.64254">
        <ele>108.7</ele>
        <time>2018-04-15T16:23:06Z</time>
      </trkpt>
      <trkpt lat="48.43536" lon="2.6425">
        <ele>108.7</ele>
        <time>2018-04-15T16:23:09Z</time>
      </trkpt>
      <trkpt lat="48.43534" lon="2.64244">
        <ele>108.7</ele>
        <time>2018-04-15T16:23:12Z</time>
      </trkpt>
      <trkpt lat="48.43533" lon="2.6424">
        <ele>108.8</ele>
        <time>2018-04-15T16:23:14Z</time>
      </trkpt>
      <trkpt lat="48.43531" lon="2.64231">
        <ele>109</ele>
        <time>2018-04-15T16:23:16Z</time>
      </trkpt>
      <trkpt lat="48.4353" lon="2.64226">
        <ele>109.1</ele>
        <time>2018-04-15T16:23:18Z</time>
      </trkpt>
      <trkpt lat="48.43529" lon="2.6422">
        <ele>109.1</ele>
        <time>2018-04-15T16:23:20Z</time>
      </trkpt>
      <trkpt lat="48.43528" lon="2.64214">
        <ele>109.1</ele>
        <time>2018-04-15T16:23:22Z</time>
      </trkpt>
      <trkpt lat="48.43525" lon="2.64208">
        <ele>109.1</ele>
        <time>2018-04-15T16:23:24Z</time>
      </trkpt>
      <trkpt lat="48.43524" lon="2.64204">
        <ele>109.1</ele>
        <time>2018-04-15T16:23:25Z</time>
      </trkpt>
      <trkpt lat="48.43522" lon="2.64197">
        <ele>109.1</ele>
        <time>2018-04-15T16:23:27Z</time>
      </trkpt>
      <trkpt lat="48.43521" lon="2.64193">
        <ele>109.1</ele>
        <time>2018-04-15T16:23:29Z</time>
      </trkpt>
      <trkpt lat="48.43519" lon="2.64187">
        <ele>109</ele>
        <time>2018-04-15T16:23:32Z</time>
      </trkpt>
      <trkpt lat="48.43518" lon="2.6418">
        <ele>109</ele>
        <time>2018-04-15T16:23:34Z</time>
      </trkpt>
      <trkpt lat="48.43517" lon="2.64176">
        <ele>108.9</ele>
        <time>2018-04-15T16:23:35Z</time>
      </trkpt>
      <trkpt lat="48.43516" lon="2.64172">
        <ele>108.9</ele>
        <time>2018-04-15T16:23:36Z</time>
      </trkpt>
      <trkpt lat="48.43514" lon="2.64167">
        <ele>108.8</ele>
        <time>2018-04-15T16:23:40Z</time>
      </trkpt>
      <trkpt lat="48.43511" lon="2.64162">
        <ele>108.7</ele>
        <time>2018-04-15T16:23:42Z</time>
      </trkpt>
      <trkpt lat="48.43507" lon="2.64158">
        <ele>108.6</ele>
        <time>2018-04-15T16:23:44Z</time>
      </trkpt>
      <trkpt lat="48.43505" lon="2.64156">
        <ele>108.5</ele>
        <time>2018-04-15T16:23:47Z</time>
      </trkpt>
      <trkpt lat="48.43501" lon="2.64154">
        <ele>108.2</ele>
        <time>2018-04-15T16:23:52Z</time>
      </trkpt>
      <trkpt lat="48.43497" lon="2.64153">
        <ele>107.8</ele>
        <time>2018-04-15T16:23:54Z</time>
      </trkpt>
      <trkpt lat="48.43492" lon="2.64151">
        <ele>107.4</ele>
        <time>2018-04-15T16:23:56Z</time>
      </trkpt>
      <trkpt lat="48.43487" lon="2.6415">
        <ele>106.9</ele>
        <time>2018-04-15T16:23:58Z</time>
      </trkpt>
      <trkpt lat="48.43482" lon="2.64151">
        <ele>106.3</ele>
        <time>2018-04-15T16:24:00Z</time>
      </trkpt>
      <trkpt lat="48.43477" lon="2.6415">
        <ele>105.8</ele>
        <time>2018-04-15T16:24:02Z</time>
      </trkpt>
      <trkpt lat="48.43474" lon="2.6415">
        <ele>105.5</ele>
        <time>2018-04-15T16:24:03Z</time>
      </trkpt>
      <trkpt lat="48.4347" lon="2.64151">
        <ele>105.2</ele>
        <time>2018-04-15T16:24:05Z</time>
      </trkpt>
      <trkpt lat="48.43464" lon="2.64153">
        <ele>104.7</ele>
        <time>2018-04-15T16:24:07Z</time>
      </trkpt>
      <trkpt lat="48.4346" lon="2.64153">
        <ele>104.3</ele>
        <time>2018-04-15T16:24:08Z</time>
      </trkpt>
      <trkpt lat="48.43455" lon="2.64152">
        <ele>103.9</ele>
        <time>2018-04-15T16:24:09Z</time>
      </trkpt>
      <trkpt lat="48.4345" lon="2.64152">
        <ele>103.4</ele>
        <time>2018-04-15T16:24:10Z</time>
      </trkpt>
      <trkpt lat="48.43447" lon="2.64152">
        <ele>103.1</ele>
        <time>2018-04-15T16:24:11Z</time>
      </trkpt>
      <trkpt lat="48.43442" lon="2.64151">
        <ele>102.6</ele>
        <time>2018-04-15T16:24:13Z</time>
      </trkpt>
      <trkpt lat="48.4344" lon="2.64154">
        <ele>102.4</ele>
        <time>2018-04-15T16:24:14Z</time>
      </trkpt>
      <trkpt lat="48.43436" lon="2.64156">
        <ele>102.2</ele>
        <time>2018-04-15T16:24:16Z</time>
      </trkpt>
      <trkpt lat="48.43434" lon="2.64162">
        <ele>101.9</ele>
        <time>2018-04-15T16:24:18Z</time>
      </trkpt>
      <trkpt lat="48.43433" lon="2.64166">
        <ele>101.9</ele>
        <time>2018-04-15T16:24:19Z</time>
      </trkpt>
      <trkpt lat="48.43432" lon="2.64171">
        <ele>101.8</ele>
        <time>2018-04-15T16:24:20Z</time>
      </trkpt>
      <trkpt lat="48.43433" lon="2.64176">
        <ele>101.8</ele>
        <time>2018-04-15T16:24:21Z</time>
      </trkpt>
      <trkpt lat="48.43432" lon="2.64183">
        <ele>101.6</ele>
        <time>2018-04-15T16:24:22Z</time>
      </trkpt>
      <trkpt lat="48.43432" lon="2.64191">
        <ele>101.5</ele>
        <time>2018-04-15T16:24:23Z</time>
      </trkpt>
      <trkpt lat="48.43431" lon="2.64199">
        <ele>101.3</ele>
        <time>2018-04-15T16:24:24Z</time>
      </trkpt>
      <trkpt lat="48.43431" lon="2.64207">
        <ele>101.2</ele>
        <time>2018-04-15T16:24:25Z</time>
      </trkpt>
      <trkpt lat="48.4343" lon="2.64214">
        <ele>101.1</ele>
        <time>2018-04-15T16:24:26Z</time>
      </trkpt>
      <trkpt lat="48.43429" lon="2.64222">
        <ele>101</ele>
        <time>2018-04-15T16:24:27Z</time>
      </trkpt>
      <trkpt lat="48.43428" lon="2.64229">
        <ele>101.1</ele>
        <time>2018-04-15T16:24:28Z</time>
      </trkpt>
      <trkpt lat="48.43426" lon="2.64235">
        <ele>101.2</ele>
        <time>2018-04-15T16:24:29Z</time>
      </trkpt>
      <trkpt lat="48.43425" lon="2.64242">
        <ele>101.3</ele>
        <time>2018-04-15T16:24:30Z</time>
      </trkpt>
      <trkpt lat="48.43424" lon="2.64248">
        <ele>101.3</ele>
        <time>2018-04-15T16:24:31Z</time>
      </trkpt>
      <trkpt lat="48.43424" lon="2.64254">
        <ele>101.3</ele>
        <time>2018-04-15T16:24:32Z</time>
      </trkpt>
      <trkpt lat="48.43424" lon="2.6426">
        <ele>101.3</ele>
        <time>2018-04-15T16:24:34Z</time>
      </trkpt>
      <trkpt lat="48.43424" lon="2.64266">
        <ele>101.4</ele>
        <time>2018-04-15T16:24:36Z</time>
      </trkpt>
      <trkpt lat="48.43422" lon="2.64273">
        <ele>101.4</ele>
        <time>2018-04-15T16:24:38Z</time>
      </trkpt>
      <trkpt lat="48.4342" lon="2.64281">
        <ele>101.4</ele>
        <time>2018-04-15T16:24:40Z</time>
      </trkpt>
      <trkpt lat="48.43418" lon="2.64287">
        <ele>101.4</ele>
        <time>2018-04-15T16:24:41Z</time>
      </trkpt>
      <trkpt lat="48.43416" lon="2.64293">
        <ele>101.3</ele>
        <time>2018-04-15T16:24:42Z</time>
      </trkpt>
      <trkpt lat="48.43413" lon="2.64299">
        <ele>101.3</ele>
        <time>2018-04-15T16:24:43Z</time>
      </trkpt>
      <trkpt lat="48.43412" lon="2.64304">
        <ele>101.3</ele>
        <time>2018-04-15T16:24:44Z</time>
      </trkpt>
      <trkpt lat="48.4341" lon="2.64309">
        <ele>101.3</ele>
        <time>2018-04-15T16:24:45Z</time>
      </trkpt>
      <trkpt lat="48.43407" lon="2.64314">
        <ele>101.3</ele>
        <time>2018-04-15T16:24:46Z</time>
      </trkpt>
      <trkpt lat="48.43405" lon="2.6432">
        <ele>101.2</ele>
        <time>2018-04-15T16:24:47Z</time>
      </trkpt>
      <trkpt lat="48.43402" lon="2.64328">
        <ele>101.1</ele>
        <time>2018-04-15T16:24:48Z</time>
      </trkpt>
      <trkpt lat="48.43399" lon="2.64335">
        <ele>101</ele>
        <time>2018-04-15T16:24:49Z</time>
      </trkpt>
      <trkpt lat="48.43397" lon="2.64342">
        <ele>100.8</ele>
        <time>2018-04-15T16:24:50Z</time>
      </trkpt>
      <trkpt lat="48.43397" lon="2.64349">
        <ele>100.6</ele>
        <time>2018-04-15T16:24:51Z</time>
      </trkpt>
      <trkpt lat="48.43396" lon="2.64356">
        <ele>100.4</ele>
        <time>2018-04-15T16:24:52Z</time>
      </trkpt>
      <trkpt lat="48.43395" lon="2.64362">
        <ele>100.3</ele>
        <time>2018-04-15T16:24:53Z</time>
      </trkpt>
      <trkpt lat="48.43395" lon="2.64367">
        <ele>100.2</ele>
        <time>2018-04-15T16:24:54Z</time>
      </trkpt>
      <trkpt lat="48.43394" lon="2.64372">
        <ele>100.2</ele>
        <time>2018-04-15T16:24:55Z</time>
      </trkpt>
      <trkpt lat="48.43394" lon="2.64376">
        <ele>100.1</ele>
        <time>2018-04-15T16:24:56Z</time>
      </trkpt>
      <trkpt lat="48.43394" lon="2.64382">
        <ele>100.1</ele>
        <time>2018-04-15T16:24:57Z</time>
      </trkpt>
      <trkpt lat="48.43393" lon="2.64388">
        <ele>100.1</ele>
        <time>2018-04-15T16:24:59Z</time>
      </trkpt>
      <trkpt lat="48.43393" lon="2.64392">
        <ele>100</ele>
        <time>2018-04-15T16:25:00Z</time>
      </trkpt>
      <trkpt lat="48.43392" lon="2.64397">
        <ele>100</ele>
        <time>2018-04-15T16:25:01Z</time>
      </trkpt>
      <trkpt lat="48.43391" lon="2.64401">
        <ele>100</ele>
        <time>2018-04-15T16:25:02Z</time>
      </trkpt>
      <trkpt lat="48.43389" lon="2.64404">
        <ele>100</ele>
        <time>2018-04-15T16:25:03Z</time>
      </trkpt>
      <trkpt lat="48.43387" lon="2.64409">
        <ele>100</ele>
        <time>2018-04-15T16:25:05Z</time>
      </trkpt>
      <trkpt lat="48.43384" lon="2.64413">
        <ele>100</ele>
        <time>2018-04-15T16:25:07Z</time>
      </trkpt>
      <trkpt lat="48.43383" lon="2.64416">
        <ele>99.9</ele>
        <time>2018-04-15T16:25:08Z</time>
      </trkpt>
      <trkpt lat="48.43382" lon="2.6442">
        <ele>99.9</ele>
        <time>2018-04-15T16:25:09Z</time>
      </trkpt>
      <trkpt lat="48.4338" lon="2.64424">
        <ele>99.9</ele>
        <time>2018-04-15T16:25:10Z</time>
      </trkpt>
      <trkpt lat="48.43378" lon="2.64427">
        <ele>99.8</ele>
        <time>2018-04-15T16:25:11Z</time>
      </trkpt>
      <trkpt lat="48.43374" lon="2.64433">
        <ele>99.8</ele>
        <time>2018-04-15T16:25:13Z</time>
      </trkpt>
      <trkpt lat="48.43371" lon="2.6444">
        <ele>99.7</ele>
        <time>2018-04-15T16:25:15Z</time>
      </trkpt>
      <trkpt lat="48.43368" lon="2.64445">
        <ele>99.7</ele>
        <time>2018-04-15T16:25:16Z</time>
      </trkpt>
      <trkpt lat="48.43366" lon="2.64449">
        <ele>99.7</ele>
        <time>2018-04-15T16:25:17Z</time>
      </trkpt>
      <trkpt lat="48.43362" lon="2.64453">
        <ele>99.6</ele>
        <time>2018-04-15T16:25:18Z</time>
      </trkpt>
      <trkpt lat="48.43359" lon="2.64456">
        <ele>99.6</ele>
        <time>2018-04-15T16:25:19Z</time>
      </trkpt>
      <trkpt lat="48.43356" lon="2.64458">
        <ele>99.5</ele>
        <time>2018-04-15T16:25:20Z</time>
      </trkpt>
      <trkpt lat="48.43353" lon="2.64459">
        <ele>99.5</ele>
        <time>2018-04-15T16:25:21Z</time>
      </trkpt>
      <trkpt lat="48.4335" lon="2.64463">
        <ele>100.8</ele>
        <time>2018-04-15T16:25:22Z</time>
      </trkpt>
      <trkpt lat="48.43345" lon="2.64466">
        <ele>102.1</ele>
        <time>2018-04-15T16:25:23Z</time>
      </trkpt>
      <trkpt lat="48.4334" lon="2.6447">
        <ele>102.4</ele>
        <time>2018-04-15T16:25:24Z</time>
      </trkpt>
      <trkpt lat="48.43335" lon="2.64474">
        <ele>102.6</ele>
        <time>2018-04-15T16:25:25Z</time>
      </trkpt>
      <trkpt lat="48.43332" lon="2.64477">
        <ele>102.8</ele>
        <time>2018-04-15T16:25:26Z</time>
      </trkpt>
      <trkpt lat="48.43328" lon="2.64479">
        <ele>103.1</ele>
        <time>2018-04-15T16:25:27Z</time>
      </trkpt>
      <trkpt lat="48.43325" lon="2.64481">
        <ele>103.3</ele>
        <time>2018-04-15T16:25:28Z</time>
      </trkpt>
      <trkpt lat="48.43322" lon="2.64483">
        <ele>103.5</ele>
        <time>2018-04-15T16:25:30Z</time>
      </trkpt>
      <trkpt lat="48.43318" lon="2.64486">
        <ele>103.7</ele>
        <time>2018-04-15T16:25:31Z</time>
      </trkpt>
      <trkpt lat="48.43316" lon="2.64488">
        <ele>103.9</ele>
        <time>2018-04-15T16:25:32Z</time>
      </trkpt>
      <trkpt lat="48.43312" lon="2.6449">
        <ele>104.2</ele>
        <time>2018-04-15T16:25:33Z</time>
      </trkpt>
      <trkpt lat="48.43308" lon="2.64494">
        <ele>104.7</ele>
        <time>2018-04-15T16:25:34Z</time>
      </trkpt>
      <trkpt lat="48.43304" lon="2.64496">
        <ele>105.1</ele>
        <time>2018-04-15T16:25:35Z</time>
      </trkpt>
      <trkpt lat="48.43301" lon="2.64498">
        <ele>105.3</ele>
        <time>2018-04-15T16:25:36Z</time>
      </trkpt>
      <trkpt lat="48.43298" lon="2.64499">
        <ele>105.6</ele>
        <time>2018-04-15T16:25:37Z</time>
      </trkpt>
      <trkpt lat="48.43295" lon="2.645">
        <ele>105.8</ele>
        <time>2018-04-15T16:25:38Z</time>
      </trkpt>
      <trkpt lat="48.43292" lon="2.64503">
        <ele>106.2</ele>
        <time>2018-04-15T16:25:39Z</time>
      </trkpt>
      <trkpt lat="48.43287" lon="2.64505">
        <ele>106.7</ele>
        <time>2018-04-15T16:25:41Z</time>
      </trkpt>
      <trkpt lat="48.43284" lon="2.64507">
        <ele>107.1</ele>
        <time>2018-04-15T16:25:42Z</time>
      </trkpt>
      <trkpt lat="48.43281" lon="2.64509">
        <ele>107.4</ele>
        <time>2018-04-15T16:25:43Z</time>
      </trkpt>
      <trkpt lat="48.43278" lon="2.6451">
        <ele>107.7</ele>
        <time>2018-04-15T16:25:44Z</time>
      </trkpt>
      <trkpt lat="48.43275" lon="2.64513">
        <ele>108.1</ele>
        <time>2018-04-15T16:25:46Z</time>
      </trkpt>
      <trkpt lat="48.43271" lon="2.64517">
        <ele>108.5</ele>
        <time>2018-04-15T16:25:48Z</time>
      </trkpt>
      <trkpt lat="48.43267" lon="2.64519">
        <ele>108.8</ele>
        <time>2018-04-15T16:25:50Z</time>
      </trkpt>
      <trkpt lat="48.43264" lon="2.64521">
        <ele>109.1</ele>
        <time>2018-04-15T16:25:51Z</time>
      </trkpt>
      <trkpt lat="48.43259" lon="2.64524">
        <ele>109.5</ele>
        <time>2018-04-15T16:25:53Z</time>
      </trkpt>
      <trkpt lat="48.43256" lon="2.64527">
        <ele>109.9</ele>
        <time>2018-04-15T16:25:55Z</time>
      </trkpt>
      <trkpt lat="48.43252" lon="2.64533">
        <ele>110.1</ele>
        <time>2018-04-15T16:25:57Z</time>
      </trkpt>
      <trkpt lat="48.4325" lon="2.64537">
        <ele>109.7</ele>
        <time>2018-04-15T16:25:59Z</time>
      </trkpt>
      <trkpt lat="48.43247" lon="2.64542">
        <ele>108.9</ele>
        <time>2018-04-15T16:26:01Z</time>
      </trkpt>
      <trkpt lat="48.43243" lon="2.64547">
        <ele>108.4</ele>
        <time>2018-04-15T16:26:03Z</time>
      </trkpt>
      <trkpt lat="48.43241" lon="2.64552">
        <ele>108</ele>
        <time>2018-04-15T16:26:05Z</time>
      </trkpt>
      <trkpt lat="48.43239" lon="2.64559">
        <ele>107.6</ele>
        <time>2018-04-15T16:26:07Z</time>
      </trkpt>
      <trkpt lat="48.4324" lon="2.64566">
        <ele>107.2</ele>
        <time>2018-04-15T16:26:09Z</time>
      </trkpt>
      <trkpt lat="48.4324" lon="2.64571">
        <ele>107</ele>
        <time>2018-04-15T16:26:10Z</time>
      </trkpt>
      <trkpt lat="48.43241" lon="2.64575">
        <ele>106.8</ele>
        <time>2018-04-15T16:26:11Z</time>
      </trkpt>
      <trkpt lat="48.43241" lon="2.64579">
        <ele>106.6</ele>
        <time>2018-04-15T16:26:12Z</time>
      </trkpt>
      <trkpt lat="48.43241" lon="2.64584">
        <ele>106.4</ele>
        <time>2018-04-15T16:26:13Z</time>
      </trkpt>
      <trkpt lat="48.4324" lon="2.64588">
        <ele>106.2</ele>
        <time>2018-04-15T16:26:14Z</time>
      </trkpt>
      <trkpt lat="48.4324" lon="2.64595">
        <ele>105.9</ele>
        <time>2018-04-15T16:26:16Z</time>
      </trkpt>
      <trkpt lat="48.43239" lon="2.64599">
        <ele>105.7</ele>
        <time>2018-04-15T16:26:17Z</time>
      </trkpt>
      <trkpt lat="48.43239" lon="2.64606">
        <ele>105.4</ele>
        <time>2018-04-15T16:26:19Z</time>
      </trkpt>
      <trkpt lat="48.43239" lon="2.6461">
        <ele>105.2</ele>
        <time>2018-04-15T16:26:20Z</time>
      </trkpt>
      <trkpt lat="48.43238" lon="2.64617">
        <ele>107</ele>
        <time>2018-04-15T16:26:21Z</time>
      </trkpt>
      <trkpt lat="48.43237" lon="2.64623">
        <ele>108.8</ele>
        <time>2018-04-15T16:26:22Z</time>
      </trkpt>
      <trkpt lat="48.43235" lon="2.64629">
        <ele>108.6</ele>
        <time>2018-04-15T16:26:23Z</time>
      </trkpt>
      <trkpt lat="48.43234" lon="2.64634">
        <ele>108.6</ele>
        <time>2018-04-15T16:26:24Z</time>
      </trkpt>
      <trkpt lat="48.43234" lon="2.64638">
        <ele>108.5</ele>
        <time>2018-04-15T16:26:25Z</time>
      </trkpt>
      <trkpt lat="48.43232" lon="2.64646">
        <ele>108.3</ele>
        <time>2018-04-15T16:26:27Z</time>
      </trkpt>
      <trkpt lat="48.43231" lon="2.6465">
        <ele>108.3</ele>
        <time>2018-04-15T16:26:28Z</time>
      </trkpt>
      <trkpt lat="48.43229" lon="2.64654">
        <ele>108.2</ele>
        <time>2018-04-15T16:26:29Z</time>
      </trkpt>
      <trkpt lat="48.43228" lon="2.64661">
        <ele>108</ele>
        <time>2018-04-15T16:26:31Z</time>
      </trkpt>
      <trkpt lat="48.43227" lon="2.64667">
        <ele>107.8</ele>
        <time>2018-04-15T16:26:33Z</time>
      </trkpt>
      <trkpt lat="48.43225" lon="2.64671">
        <ele>107.7</ele>
        <time>2018-04-15T16:26:35Z</time>
      </trkpt>
      <trkpt lat="48.43224" lon="2.64676">
        <ele>107.6</ele>
        <time>2018-04-15T16:26:37Z</time>
      </trkpt>
      <trkpt lat="48.4322" lon="2.64684">
        <ele>107.5</ele>
        <time>2018-04-15T16:26:39Z</time>
      </trkpt>
      <trkpt lat="48.43219" lon="2.64688">
        <ele>107.4</ele>
        <time>2018-04-15T16:26:40Z</time>
      </trkpt>
      <trkpt lat="48.43217" lon="2.64691">
        <ele>107.3</ele>
        <time>2018-04-15T16:26:41Z</time>
      </trkpt>
      <trkpt lat="48.43216" lon="2.64698">
        <ele>107.2</ele>
        <time>2018-04-15T16:26:43Z</time>
      </trkpt>
      <trkpt lat="48.43214" lon="2.64702">
        <ele>107.2</ele>
        <time>2018-04-15T16:26:44Z</time>
      </trkpt>
      <trkpt lat="48.43213" lon="2.64707">
        <ele>107</ele>
        <time>2018-04-15T16:26:45Z</time>
      </trkpt>
      <trkpt lat="48.43211" lon="2.64712">
        <ele>106.8</ele>
        <time>2018-04-15T16:26:47Z</time>
      </trkpt>
      <trkpt lat="48.43209" lon="2.64716">
        <ele>106.6</ele>
        <time>2018-04-15T16:26:49Z</time>
      </trkpt>
      <trkpt lat="48.43206" lon="2.64719">
        <ele>106.4</ele>
        <time>2018-04-15T16:26:55Z</time>
      </trkpt>
      <trkpt lat="48.43204" lon="2.64722">
        <ele>106.3</ele>
        <time>2018-04-15T16:26:57Z</time>
      </trkpt>
      <trkpt lat="48.43201" lon="2.64723">
        <ele>106.1</ele>
        <time>2018-04-15T16:27:05Z</time>
      </trkpt>
      <trkpt lat="48.432" lon="2.64726">
        <ele>106</ele>
        <time>2018-04-15T16:27:08Z</time>
      </trkpt>
      <trkpt lat="48.43198" lon="2.6473">
        <ele>105.8</ele>
        <time>2018-04-15T16:27:12Z</time>
      </trkpt>
      <trkpt lat="48.43195" lon="2.64734">
        <ele>105.5</ele>
        <time>2018-04-15T16:27:31Z</time>
      </trkpt>
      <trkpt lat="48.43193" lon="2.64737">
        <ele>105.3</ele>
        <time>2018-04-15T16:27:35Z</time>
      </trkpt>
      <trkpt lat="48.43191" lon="2.6474">
        <ele>105.1</ele>
        <time>2018-04-15T16:27:39Z</time>
      </trkpt>
      <trkpt lat="48.43189" lon="2.64745">
        <ele>104.9</ele>
        <time>2018-04-15T16:27:41Z</time>
      </trkpt>
      <trkpt lat="48.43188" lon="2.64749">
        <ele>104.7</ele>
        <time>2018-04-15T16:27:43Z</time>
      </trkpt>
      <trkpt lat="48.43187" lon="2.64753">
        <ele>104.5</ele>
        <time>2018-04-15T16:27:45Z</time>
      </trkpt>
      <trkpt lat="48.43186" lon="2.64758">
        <ele>104.3</ele>
        <time>2018-04-15T16:27:48Z</time>
      </trkpt>
      <trkpt lat="48.43184" lon="2.64763">
        <ele>104.1</ele>
        <time>2018-04-15T16:27:50Z</time>
      </trkpt>
      <trkpt lat="48.43181" lon="2.64768">
        <ele>103.9</ele>
        <time>2018-04-15T16:27:53Z</time>
      </trkpt>
      <trkpt lat="48.43179" lon="2.64773">
        <ele>103.8</ele>
        <time>2018-04-15T16:27:56Z</time>
      </trkpt>
      <trkpt lat="48.43177" lon="2.64778">
        <ele>103.7</ele>
        <time>2018-04-15T16:27:57Z</time>
      </trkpt>
      <trkpt lat="48.43172" lon="2.64785">
        <ele>103.5</ele>
        <time>2018-04-15T16:27:59Z</time>
      </trkpt>
      <trkpt lat="48.4317" lon="2.64789">
        <ele>103.3</ele>
        <time>2018-04-15T16:28:00Z</time>
      </trkpt>
      <trkpt lat="48.43165" lon="2.64794">
        <ele>103.2</ele>
        <time>2018-04-15T16:28:01Z</time>
      </trkpt>
      <trkpt lat="48.43161" lon="2.64797">
        <ele>103.1</ele>
        <time>2018-04-15T16:28:02Z</time>
      </trkpt>
      <trkpt lat="48.43156" lon="2.64801">
        <ele>102.9</ele>
        <time>2018-04-15T16:28:03Z</time>
      </trkpt>
      <trkpt lat="48.43152" lon="2.64804">
        <ele>102.8</ele>
        <time>2018-04-15T16:28:04Z</time>
      </trkpt>
      <trkpt lat="48.43148" lon="2.64806">
        <ele>102.7</ele>
        <time>2018-04-15T16:28:05Z</time>
      </trkpt>
      <trkpt lat="48.43143" lon="2.64808">
        <ele>102.6</ele>
        <time>2018-04-15T16:28:06Z</time>
      </trkpt>
      <trkpt lat="48.43139" lon="2.64809">
        <ele>102.5</ele>
        <time>2018-04-15T16:28:07Z</time>
      </trkpt>
      <trkpt lat="48.43135" lon="2.64811">
        <ele>102.3</ele>
        <time>2018-04-15T16:28:08Z</time>
      </trkpt>
      <trkpt lat="48.4313" lon="2.64814">
        <ele>102.2</ele>
        <time>2018-04-15T16:28:09Z</time>
      </trkpt>
      <trkpt lat="48.43126" lon="2.64816">
        <ele>102.1</ele>
        <time>2018-04-15T16:28:10Z</time>
      </trkpt>
      <trkpt lat="48.43123" lon="2.64818">
        <ele>102</ele>
        <time>2018-04-15T16:28:11Z</time>
      </trkpt>
      <trkpt lat="48.43119" lon="2.6482">
        <ele>101.8</ele>
        <time>2018-04-15T16:28:13Z</time>
      </trkpt>
      <trkpt lat="48.43117" lon="2.64824">
        <ele>101.6</ele>
        <time>2018-04-15T16:28:15Z</time>
      </trkpt>
      <trkpt lat="48.43112" lon="2.64828">
        <ele>101.4</ele>
        <time>2018-04-15T16:28:16Z</time>
      </trkpt>
      <trkpt lat="48.43108" lon="2.6483">
        <ele>101.3</ele>
        <time>2018-04-15T16:28:17Z</time>
      </trkpt>
      <trkpt lat="48.43105" lon="2.64831">
        <ele>101.1</ele>
        <time>2018-04-15T16:28:18Z</time>
      </trkpt>
      <trkpt lat="48.43102" lon="2.64831">
        <ele>101</ele>
        <time>2018-04-15T16:28:19Z</time>
      </trkpt>
      <trkpt lat="48.43097" lon="2.64831">
        <ele>100.8</ele>
        <time>2018-04-15T16:28:21Z</time>
      </trkpt>
      <trkpt lat="48.43094" lon="2.64831">
        <ele>100.5</ele>
        <time>2018-04-15T16:28:22Z</time>
      </trkpt>
      <trkpt lat="48.43091" lon="2.64831">
        <ele>100.6</ele>
        <time>2018-04-15T16:28:23Z</time>
      </trkpt>
      <trkpt lat="48.43088" lon="2.6483">
        <ele>100.7</ele>
        <time>2018-04-15T16:28:25Z</time>
      </trkpt>
      <trkpt lat="48.43084" lon="2.64827">
        <ele>100.8</ele>
        <time>2018-04-15T16:28:27Z</time>
      </trkpt>
      <trkpt lat="48.4308" lon="2.64822">
        <ele>100.9</ele>
        <time>2018-04-15T16:28:29Z</time>
      </trkpt>
      <trkpt lat="48.43078" lon="2.64816">
        <ele>101</ele>
        <time>2018-04-15T16:28:31Z</time>
      </trkpt>
      <trkpt lat="48.43075" lon="2.64809">
        <ele>101.2</ele>
        <time>2018-04-15T16:28:33Z</time>
      </trkpt>
      <trkpt lat="48.43074" lon="2.64805">
        <ele>101.2</ele>
        <time>2018-04-15T16:28:34Z</time>
      </trkpt>
      <trkpt lat="48.43072" lon="2.64798">
        <ele>101.4</ele>
        <time>2018-04-15T16:28:36Z</time>
      </trkpt>
      <trkpt lat="48.4307" lon="2.64792">
        <ele>101.5</ele>
        <time>2018-04-15T16:28:38Z</time>
      </trkpt>
      <trkpt lat="48.43068" lon="2.64786">
        <ele>101.6</ele>
        <time>2018-04-15T16:28:40Z</time>
      </trkpt>
      <trkpt lat="48.43066" lon="2.64777">
        <ele>101.8</ele>
        <time>2018-04-15T16:28:42Z</time>
      </trkpt>
      <trkpt lat="48.43065" lon="2.64773">
        <ele>101.9</ele>
        <time>2018-04-15T16:28:43Z</time>
      </trkpt>
      <trkpt lat="48.43063" lon="2.64765">
        <ele>102.1</ele>
        <time>2018-04-15T16:28:45Z</time>
      </trkpt>
      <trkpt lat="48.43061" lon="2.6476">
        <ele>102.2</ele>
        <time>2018-04-15T16:28:47Z</time>
      </trkpt>
      <trkpt lat="48.4306" lon="2.64753">
        <ele>102.4</ele>
        <time>2018-04-15T16:28:49Z</time>
      </trkpt>
      <trkpt lat="48.43058" lon="2.64747">
        <ele>102.5</ele>
        <time>2018-04-15T16:28:51Z</time>
      </trkpt>
      <trkpt lat="48.43056" lon="2.64741">
        <ele>102.7</ele>
        <time>2018-04-15T16:28:53Z</time>
      </trkpt>
      <trkpt lat="48.43055" lon="2.64737">
        <ele>102.8</ele>
        <time>2018-04-15T16:28:54Z</time>
      </trkpt>
      <trkpt lat="48.43054" lon="2.64733">
        <ele>103</ele>
        <time>2018-04-15T16:28:55Z</time>
      </trkpt>
      <trkpt lat="48.43052" lon="2.64726">
        <ele>103.6</ele>
        <time>2018-04-15T16:28:57Z</time>
      </trkpt>
      <trkpt lat="48.43049" lon="2.6472">
        <ele>104.2</ele>
        <time>2018-04-15T16:28:59Z</time>
      </trkpt>
      <trkpt lat="48.43047" lon="2.64717">
        <ele>104.6</ele>
        <time>2018-04-15T16:29:00Z</time>
      </trkpt>
      <trkpt lat="48.43046" lon="2.64713">
        <ele>105</ele>
        <time>2018-04-15T16:29:01Z</time>
      </trkpt>
      <trkpt lat="48.43044" lon="2.6471">
        <ele>105.3</ele>
        <time>2018-04-15T16:29:02Z</time>
      </trkpt>
      <trkpt lat="48.43042" lon="2.64706">
        <ele>105.4</ele>
        <time>2018-04-15T16:29:03Z</time>
      </trkpt>
      <trkpt lat="48.4304" lon="2.64704">
        <ele>105.5</ele>
        <time>2018-04-15T16:29:04Z</time>
      </trkpt>
      <trkpt lat="48.43036" lon="2.64698">
        <ele>105.8</ele>
        <time>2018-04-15T16:29:06Z</time>
      </trkpt>
      <trkpt lat="48.43034" lon="2.64695">
        <ele>106</ele>
        <time>2018-04-15T16:29:07Z</time>
      </trkpt>
      <trkpt lat="48.4303" lon="2.6469">
        <ele>106.2</ele>
        <time>2018-04-15T16:29:09Z</time>
      </trkpt>
      <trkpt lat="48.43028" lon="2.64687">
        <ele>106.3</ele>
        <time>2018-04-15T16:29:10Z</time>
      </trkpt>
      <trkpt lat="48.43024" lon="2.64683">
        <ele>106.5</ele>
        <time>2018-04-15T16:29:12Z</time>
      </trkpt>
      <trkpt lat="48.43021" lon="2.64677">
        <ele>106.7</ele>
        <time>2018-04-15T16:29:14Z</time>
      </trkpt>
      <trkpt lat="48.43017" lon="2.64671">
        <ele>107</ele>
        <time>2018-04-15T16:29:16Z</time>
      </trkpt>
      <trkpt lat="48.43014" lon="2.64668">
        <ele>107.1</ele>
        <time>2018-04-15T16:29:17Z</time>
      </trkpt>
      <trkpt lat="48.43012" lon="2.64665">
        <ele>107.2</ele>
        <time>2018-04-15T16:29:18Z</time>
      </trkpt>
      <trkpt lat="48.43008" lon="2.6466">
        <ele>107.4</ele>
        <time>2018-04-15T16:29:20Z</time>
      </trkpt>
      <trkpt lat="48.43004" lon="2.64656">
        <ele>107.6</ele>
        <time>2018-04-15T16:29:22Z</time>
      </trkpt>
      <trkpt lat="48.43001" lon="2.64654">
        <ele>107.7</ele>
        <time>2018-04-15T16:29:24Z</time>
      </trkpt>
      <trkpt lat="48.42999" lon="2.64653">
        <ele>107.9</ele>
        <time>2018-04-15T16:29:26Z</time>
      </trkpt>
      <trkpt lat="48.42995" lon="2.64651">
        <ele>108.3</ele>
        <time>2018-04-15T16:29:28Z</time>
      </trkpt>
      <trkpt lat="48.42991" lon="2.6465">
        <ele>109</ele>
        <time>2018-04-15T16:29:30Z</time>
      </trkpt>
      <trkpt lat="48.42987" lon="2.64648">
        <ele>109.8</ele>
        <time>2018-04-15T16:29:32Z</time>
      </trkpt>
      <trkpt lat="48.42984" lon="2.64646">
        <ele>110.4</ele>
        <time>2018-04-15T16:29:34Z</time>
      </trkpt>
      <trkpt lat="48.4298" lon="2.64643">
        <ele>111.3</ele>
        <time>2018-04-15T16:29:36Z</time>
      </trkpt>
      <trkpt lat="48.42975" lon="2.6464">
        <ele>112</ele>
        <time>2018-04-15T16:29:38Z</time>
      </trkpt>
      <trkpt lat="48.42971" lon="2.64637">
        <ele>112.5</ele>
        <time>2018-04-15T16:29:40Z</time>
      </trkpt>
      <trkpt lat="48.42968" lon="2.64634">
        <ele>112.9</ele>
        <time>2018-04-15T16:29:42Z</time>
      </trkpt>
      <trkpt lat="48.42964" lon="2.64631">
        <ele>113.4</ele>
        <time>2018-04-15T16:29:44Z</time>
      </trkpt>
      <trkpt lat="48.4296" lon="2.64628">
        <ele>114.3</ele>
        <time>2018-04-15T16:29:46Z</time>
      </trkpt>
      <trkpt lat="48.42955" lon="2.64625">
        <ele>115.7</ele>
        <time>2018-04-15T16:29:48Z</time>
      </trkpt>
      <trkpt lat="48.42951" lon="2.64624">
        <ele>116.7</ele>
        <time>2018-04-15T16:29:50Z</time>
      </trkpt>
      <trkpt lat="48.42946" lon="2.64624">
        <ele>117.3</ele>
        <time>2018-04-15T16:29:52Z</time>
      </trkpt>
      <trkpt lat="48.42942" lon="2.64622">
        <ele>117.7</ele>
        <time>2018-04-15T16:29:54Z</time>
      </trkpt>
      <trkpt lat="48.42938" lon="2.6462">
        <ele>118.1</ele>
        <time>2018-04-15T16:29:56Z</time>
      </trkpt>
      <trkpt lat="48.42934" lon="2.6462">
        <ele>118.4</ele>
        <time>2018-04-15T16:29:58Z</time>
      </trkpt>
      <trkpt lat="48.42931" lon="2.64618">
        <ele>118.7</ele>
        <time>2018-04-15T16:30:00Z</time>
      </trkpt>
      <trkpt lat="48.42928" lon="2.64617">
        <ele>119</ele>
        <time>2018-04-15T16:30:02Z</time>
      </trkpt>
      <trkpt lat="48.42925" lon="2.64614">
        <ele>119</ele>
        <time>2018-04-15T16:30:04Z</time>
      </trkpt>
      <trkpt lat="48.42921" lon="2.64613">
        <ele>119.4</ele>
        <time>2018-04-15T16:30:07Z</time>
      </trkpt>
      <trkpt lat="48.42919" lon="2.64611">
        <ele>119.6</ele>
        <time>2018-04-15T16:30:09Z</time>
      </trkpt>
      <trkpt lat="48.42916" lon="2.64607">
        <ele>119.9</ele>
        <time>2018-04-15T16:30:11Z</time>
      </trkpt>
      <trkpt lat="48.42914" lon="2.64604">
        <ele>120</ele>
        <time>2018-04-15T16:30:13Z</time>
      </trkpt>
      <trkpt lat="48.42911" lon="2.64602">
        <ele>120.2</ele>
        <time>2018-04-15T16:30:16Z</time>
      </trkpt>
      <trkpt lat="48.42908" lon="2.64599">
        <ele>120.4</ele>
        <time>2018-04-15T16:30:18Z</time>
      </trkpt>
      <trkpt lat="48.42905" lon="2.64596">
        <ele>120.8</ele>
        <time>2018-04-15T16:30:21Z</time>
      </trkpt>
      <trkpt lat="48.42903" lon="2.64593">
        <ele>121.1</ele>
        <time>2018-04-15T16:30:23Z</time>
      </trkpt>
      <trkpt lat="48.42901" lon="2.64587">
        <ele>121.5</ele>
        <time>2018-04-15T16:30:26Z</time>
      </trkpt>
      <trkpt lat="48.42899" lon="2.64583">
        <ele>121.9</ele>
        <time>2018-04-15T16:30:28Z</time>
      </trkpt>
      <trkpt lat="48.42897" lon="2.64578">
        <ele>122.4</ele>
        <time>2018-04-15T16:30:30Z</time>
      </trkpt>
      <trkpt lat="48.42896" lon="2.64574">
        <ele>122.7</ele>
        <time>2018-04-15T16:30:32Z</time>
      </trkpt>
      <trkpt lat="48.42894" lon="2.64571">
        <ele>123.1</ele>
        <time>2018-04-15T16:30:34Z</time>
      </trkpt>
      <trkpt lat="48.42892" lon="2.64566">
        <ele>123.6</ele>
        <time>2018-04-15T16:30:36Z</time>
      </trkpt>
      <trkpt lat="48.4289" lon="2.64562">
        <ele>124.2</ele>
        <time>2018-04-15T16:30:38Z</time>
      </trkpt>
      <trkpt lat="48.42887" lon="2.64559">
        <ele>124.7</ele>
        <time>2018-04-15T16:30:40Z</time>
      </trkpt>
      <trkpt lat="48.42885" lon="2.64554">
        <ele>125.2</ele>
        <time>2018-04-15T16:30:42Z</time>
      </trkpt>
      <trkpt lat="48.42884" lon="2.64549">
        <ele>125.7</ele>
        <time>2018-04-15T16:30:44Z</time>
      </trkpt>
      <trkpt lat="48.42883" lon="2.64545">
        <ele>126.1</ele>
        <time>2018-04-15T16:30:46Z</time>
      </trkpt>
      <trkpt lat="48.42882" lon="2.64539">
        <ele>126.5</ele>
        <time>2018-04-15T16:30:48Z</time>
      </trkpt>
      <trkpt lat="48.42882" lon="2.64535">
        <ele>126.9</ele>
        <time>2018-04-15T16:30:51Z</time>
      </trkpt>
      <trkpt lat="48.42881" lon="2.64528">
        <ele>127.4</ele>
        <time>2018-04-15T16:30:54Z</time>
      </trkpt>
      <trkpt lat="48.4288" lon="2.64523">
        <ele>127.8</ele>
        <time>2018-04-15T16:30:57Z</time>
      </trkpt>
      <trkpt lat="48.42879" lon="2.64516">
        <ele>128.1</ele>
        <time>2018-04-15T16:30:59Z</time>
      </trkpt>
      <trkpt lat="48.42879" lon="2.64511">
        <ele>128.4</ele>
        <time>2018-04-15T16:31:01Z</time>
      </trkpt>
      <trkpt lat="48.42878" lon="2.64505">
        <ele>128.7</ele>
        <time>2018-04-15T16:31:03Z</time>
      </trkpt>
      <trkpt lat="48.42877" lon="2.64501">
        <ele>128.9</ele>
        <time>2018-04-15T16:31:05Z</time>
      </trkpt>
      <trkpt lat="48.42876" lon="2.64497">
        <ele>129.1</ele>
        <time>2018-04-15T16:31:07Z</time>
      </trkpt>
      <trkpt lat="48.42877" lon="2.64493">
        <ele>129.5</ele>
        <time>2018-04-15T16:31:09Z</time>
      </trkpt>
      <trkpt lat="48.42878" lon="2.64486">
        <ele>129.9</ele>
        <time>2018-04-15T16:31:11Z</time>
      </trkpt>
      <trkpt lat="48.42879" lon="2.64482">
        <ele>130.3</ele>
        <time>2018-04-15T16:31:12Z</time>
      </trkpt>
      <trkpt lat="48.42879" lon="2.64475">
        <ele>130.8</ele>
        <time>2018-04-15T16:31:15Z</time>
      </trkpt>
      <trkpt lat="48.42879" lon="2.64468">
        <ele>131.2</ele>
        <time>2018-04-15T16:31:17Z</time>
      </trkpt>
      <trkpt lat="48.42879" lon="2.64463">
        <ele>131.5</ele>
        <time>2018-04-15T16:31:18Z</time>
      </trkpt>
      <trkpt lat="48.42879" lon="2.64459">
        <ele>131.7</ele>
        <time>2018-04-15T16:31:20Z</time>
      </trkpt>
      <trkpt lat="48.42879" lon="2.64452">
        <ele>132.1</ele>
        <time>2018-04-15T16:31:22Z</time>
      </trkpt>
      <trkpt lat="48.4288" lon="2.64447">
        <ele>132.3</ele>
        <time>2018-04-15T16:31:24Z</time>
      </trkpt>
      <trkpt lat="48.4288" lon="2.64441">
        <ele>132.9</ele>
        <time>2018-04-15T16:31:26Z</time>
      </trkpt>
      <trkpt lat="48.42881" lon="2.64433">
        <ele>133.6</ele>
        <time>2018-04-15T16:31:28Z</time>
      </trkpt>
      <trkpt lat="48.42882" lon="2.64429">
        <ele>134.1</ele>
        <time>2018-04-15T16:31:30Z</time>
      </trkpt>
      <trkpt lat="48.42882" lon="2.64423">
        <ele>134.7</ele>
        <time>2018-04-15T16:31:32Z</time>
      </trkpt>
      <trkpt lat="48.42883" lon="2.64419">
        <ele>135.2</ele>
        <time>2018-04-15T16:31:34Z</time>
      </trkpt>
      <trkpt lat="48.42883" lon="2.64413">
        <ele>135.7</ele>
        <time>2018-04-15T16:31:35Z</time>
      </trkpt>
      <trkpt lat="48.42882" lon="2.64408">
        <ele>136.2</ele>
        <time>2018-04-15T16:31:36Z</time>
      </trkpt>
      <trkpt lat="48.42882" lon="2.64403">
        <ele>137.1</ele>
        <time>2018-04-15T16:31:38Z</time>
      </trkpt>
      <trkpt lat="48.42881" lon="2.64396">
        <ele>137.8</ele>
        <time>2018-04-15T16:31:40Z</time>
      </trkpt>
      <trkpt lat="48.4288" lon="2.64391">
        <ele>138.3</ele>
        <time>2018-04-15T16:31:43Z</time>
      </trkpt>
      <trkpt lat="48.4288" lon="2.64386">
        <ele>138.6</ele>
        <time>2018-04-15T16:31:46Z</time>
      </trkpt>
      <trkpt lat="48.4288" lon="2.6438">
        <ele>138.9</ele>
        <time>2018-04-15T16:31:48Z</time>
      </trkpt>
      <trkpt lat="48.4288" lon="2.64375">
        <ele>139.2</ele>
        <time>2018-04-15T16:31:50Z</time>
      </trkpt>
      <trkpt lat="48.42881" lon="2.64371">
        <ele>139.4</ele>
        <time>2018-04-15T16:31:52Z</time>
      </trkpt>
      <trkpt lat="48.42883" lon="2.64365">
        <ele>139.8</ele>
        <time>2018-04-15T16:31:54Z</time>
      </trkpt>
      <trkpt lat="48.42884" lon="2.6436">
        <ele>140.2</ele>
        <time>2018-04-15T16:31:56Z</time>
      </trkpt>
      <trkpt lat="48.42886" lon="2.64354">
        <ele>140.9</ele>
        <time>2018-04-15T16:31:59Z</time>
      </trkpt>
      <trkpt lat="48.42886" lon="2.6435">
        <ele>141.4</ele>
        <time>2018-04-15T16:32:01Z</time>
      </trkpt>
      <trkpt lat="48.42887" lon="2.64344">
        <ele>143</ele>
        <time>2018-04-15T16:32:05Z</time>
      </trkpt>
      <trkpt lat="48.42884" lon="2.64344">
        <ele>142.9</ele>
        <time>2018-04-15T16:32:13Z</time>
      </trkpt>
      <trkpt lat="48.42881" lon="2.64345">
        <ele>142.9</ele>
        <time>2018-04-15T16:32:17Z</time>
      </trkpt>
      <trkpt lat="48.42878" lon="2.64348">
        <ele>142.9</ele>
        <time>2018-04-15T16:32:19Z</time>
      </trkpt>
      <trkpt lat="48.42876" lon="2.64352">
        <ele>142.9</ele>
        <time>2018-04-15T16:32:21Z</time>
      </trkpt>
      <trkpt lat="48.42874" lon="2.64356">
        <ele>142.8</ele>
        <time>2018-04-15T16:32:23Z</time>
      </trkpt>
      <trkpt lat="48.42872" lon="2.64361">
        <ele>142.7</ele>
        <time>2018-04-15T16:32:25Z</time>
      </trkpt>
      <trkpt lat="48.42869" lon="2.64367">
        <ele>142.6</ele>
        <time>2018-04-15T16:32:27Z</time>
      </trkpt>
      <trkpt lat="48.42867" lon="2.64371">
        <ele>142.6</ele>
        <time>2018-04-15T16:32:29Z</time>
      </trkpt>
      <trkpt lat="48.42866" lon="2.64376">
        <ele>142.5</ele>
        <time>2018-04-15T16:32:31Z</time>
      </trkpt>
      <trkpt lat="48.42862" lon="2.64383">
        <ele>142.5</ele>
        <time>2018-04-15T16:32:33Z</time>
      </trkpt>
      <trkpt lat="48.42861" lon="2.64387">
        <ele>142.5</ele>
        <time>2018-04-15T16:32:34Z</time>
      </trkpt>
      <trkpt lat="48.42859" lon="2.64392">
        <ele>142.5</ele>
        <time>2018-04-15T16:32:36Z</time>
      </trkpt>
      <trkpt lat="48.42858" lon="2.64399">
        <ele>142.6</ele>
        <time>2018-04-15T16:32:38Z</time>
      </trkpt>
      <trkpt lat="48.42856" lon="2.64405">
        <ele>142.7</ele>
        <time>2018-04-15T16:32:40Z</time>
      </trkpt>
      <trkpt lat="48.42854" lon="2.64409">
        <ele>142.8</ele>
        <time>2018-04-15T16:32:41Z</time>
      </trkpt>
      <trkpt lat="48.42853" lon="2.64413">
        <ele>142.8</ele>
        <time>2018-04-15T16:32:42Z</time>
      </trkpt>
      <trkpt lat="48.42851" lon="2.64418">
        <ele>142.7</ele>
        <time>2018-04-15T16:32:43Z</time>
      </trkpt>
      <trkpt lat="48.4285" lon="2.64422">
        <ele>142.7</ele>
        <time>2018-04-15T16:32:44Z</time>
      </trkpt>
      <trkpt lat="48.42848" lon="2.64426">
        <ele>142.7</ele>
        <time>2018-04-15T16:32:45Z</time>
      </trkpt>
      <trkpt lat="48.42846" lon="2.6443">
        <ele>142.7</ele>
        <time>2018-04-15T16:32:46Z</time>
      </trkpt>
      <trkpt lat="48.42843" lon="2.64436">
        <ele>142.7</ele>
        <time>2018-04-15T16:32:48Z</time>
      </trkpt>
      <trkpt lat="48.42841" lon="2.64438">
        <ele>142.8</ele>
        <time>2018-04-15T16:32:49Z</time>
      </trkpt>
      <trkpt lat="48.42839" lon="2.64442">
        <ele>143</ele>
        <time>2018-04-15T16:32:50Z</time>
      </trkpt>
      <trkpt lat="48.42836" lon="2.64448">
        <ele>143.3</ele>
        <time>2018-04-15T16:32:52Z</time>
      </trkpt>
      <trkpt lat="48.42834" lon="2.64455">
        <ele>143.6</ele>
        <time>2018-04-15T16:32:54Z</time>
      </trkpt>
      <trkpt lat="48.42832" lon="2.64462">
        <ele>143.9</ele>
        <time>2018-04-15T16:32:56Z</time>
      </trkpt>
      <trkpt lat="48.42829" lon="2.64468">
        <ele>144.1</ele>
        <time>2018-04-15T16:32:58Z</time>
      </trkpt>
      <trkpt lat="48.42827" lon="2.64473">
        <ele>144.2</ele>
        <time>2018-04-15T16:33:00Z</time>
      </trkpt>
      <trkpt lat="48.42826" lon="2.6448">
        <ele>144.3</ele>
        <time>2018-04-15T16:33:02Z</time>
      </trkpt>
      <trkpt lat="48.42824" lon="2.64487">
        <ele>144.4</ele>
        <time>2018-04-15T16:33:04Z</time>
      </trkpt>
      <trkpt lat="48.42822" lon="2.6449">
        <ele>144.5</ele>
        <time>2018-04-15T16:33:05Z</time>
      </trkpt>
      <trkpt lat="48.42821" lon="2.64494">
        <ele>144.6</ele>
        <time>2018-04-15T16:33:06Z</time>
      </trkpt>
      <trkpt lat="48.42819" lon="2.64498">
        <ele>144.7</ele>
        <time>2018-04-15T16:33:07Z</time>
      </trkpt>
      <trkpt lat="48.42817" lon="2.64501">
        <ele>144.8</ele>
        <time>2018-04-15T16:33:08Z</time>
      </trkpt>
      <trkpt lat="48.42815" lon="2.64504">
        <ele>144.8</ele>
        <time>2018-04-15T16:33:09Z</time>
      </trkpt>
      <trkpt lat="48.42813" lon="2.64507">
        <ele>144.9</ele>
        <time>2018-04-15T16:33:10Z</time>
      </trkpt>
      <trkpt lat="48.42811" lon="2.64513">
        <ele>145</ele>
        <time>2018-04-15T16:33:12Z</time>
      </trkpt>
      <trkpt lat="48.42809" lon="2.64516">
        <ele>145.1</ele>
        <time>2018-04-15T16:33:14Z</time>
      </trkpt>
      <trkpt lat="48.42808" lon="2.6452">
        <ele>145.2</ele>
        <time>2018-04-15T16:33:15Z</time>
      </trkpt>
      <trkpt lat="48.42806" lon="2.64523">
        <ele>145.2</ele>
        <time>2018-04-15T16:33:16Z</time>
      </trkpt>
      <trkpt lat="48.42805" lon="2.6453">
        <ele>145.3</ele>
        <time>2018-04-15T16:33:18Z</time>
      </trkpt>
      <trkpt lat="48.42803" lon="2.64534">
        <ele>145.4</ele>
        <time>2018-04-15T16:33:19Z</time>
      </trkpt>
      <trkpt lat="48.428" lon="2.64538">
        <ele>145.4</ele>
        <time>2018-04-15T16:33:20Z</time>
      </trkpt>
      <trkpt lat="48.42798" lon="2.64544">
        <ele>145.5</ele>
        <time>2018-04-15T16:33:22Z</time>
      </trkpt>
      <trkpt lat="48.42795" lon="2.64548">
        <ele>145.5</ele>
        <time>2018-04-15T16:33:23Z</time>
      </trkpt>
      <trkpt lat="48.42794" lon="2.64552">
        <ele>145.5</ele>
        <time>2018-04-15T16:33:24Z</time>
      </trkpt>
      <trkpt lat="48.42793" lon="2.64558">
        <ele>145.5</ele>
        <time>2018-04-15T16:33:26Z</time>
      </trkpt>
      <trkpt lat="48.42791" lon="2.64564">
        <ele>145.4</ele>
        <time>2018-04-15T16:33:28Z</time>
      </trkpt>
      <trkpt lat="48.42788" lon="2.6457">
        <ele>145.4</ele>
        <time>2018-04-15T16:33:30Z</time>
      </trkpt>
      <trkpt lat="48.42785" lon="2.64577">
        <ele>145.3</ele>
        <time>2018-04-15T16:33:32Z</time>
      </trkpt>
      <trkpt lat="48.42782" lon="2.64584">
        <ele>145.2</ele>
        <time>2018-04-15T16:33:34Z</time>
      </trkpt>
      <trkpt lat="48.4278" lon="2.64587">
        <ele>145.1</ele>
        <time>2018-04-15T16:33:35Z</time>
      </trkpt>
      <trkpt lat="48.42779" lon="2.64591">
        <ele>145.1</ele>
        <time>2018-04-15T16:33:36Z</time>
      </trkpt>
      <trkpt lat="48.42776" lon="2.64597">
        <ele>145</ele>
        <time>2018-04-15T16:33:38Z</time>
      </trkpt>
      <trkpt lat="48.42774" lon="2.64601">
        <ele>145</ele>
        <time>2018-04-15T16:33:39Z</time>
      </trkpt>
      <trkpt lat="48.42767" lon="2.64601">
        <ele>145</ele>
        <time>2018-04-15T16:33:41Z</time>
      </trkpt>
      <trkpt lat="48.4276" lon="2.64605">
        <ele>145</ele>
        <time>2018-04-15T16:33:42Z</time>
      </trkpt>
      <trkpt lat="48.42754" lon="2.64608">
        <ele>145.1</ele>
        <time>2018-04-15T16:33:43Z</time>
      </trkpt>
      <trkpt lat="48.4275" lon="2.64613">
        <ele>145.2</ele>
        <time>2018-04-15T16:33:45Z</time>
      </trkpt>
      <trkpt lat="48.42746" lon="2.64617">
        <ele>145.2</ele>
        <time>2018-04-15T16:33:47Z</time>
      </trkpt>
      <trkpt lat="48.42742" lon="2.6462">
        <ele>145.3</ele>
        <time>2018-04-15T16:33:48Z</time>
      </trkpt>
      <trkpt lat="48.42738" lon="2.64622">
        <ele>145.3</ele>
        <time>2018-04-15T16:33:50Z</time>
      </trkpt>
      <trkpt lat="48.42734" lon="2.64624">
        <ele>145.2</ele>
        <time>2018-04-15T16:33:52Z</time>
      </trkpt>
      <trkpt lat="48.42729" lon="2.64627">
        <ele>145</ele>
        <time>2018-04-15T16:33:54Z</time>
      </trkpt>
      <trkpt lat="48.42726" lon="2.6463">
        <ele>144.8</ele>
        <time>2018-04-15T16:33:55Z</time>
      </trkpt>
      <trkpt lat="48.42723" lon="2.64633">
        <ele>144.5</ele>
        <time>2018-04-15T16:33:56Z</time>
      </trkpt>
      <trkpt lat="48.42718" lon="2.64637">
        <ele>144.1</ele>
        <time>2018-04-15T16:33:58Z</time>
      </trkpt>
      <trkpt lat="48.42716" lon="2.64639">
        <ele>143.9</ele>
        <time>2018-04-15T16:33:59Z</time>
      </trkpt>
      <trkpt lat="48.42713" lon="2.64643">
        <ele>143.6</ele>
        <time>2018-04-15T16:34:00Z</time>
      </trkpt>
      <trkpt lat="48.42709" lon="2.64645">
        <ele>143.2</ele>
        <time>2018-04-15T16:34:01Z</time>
      </trkpt>
      <trkpt lat="48.42706" lon="2.64647">
        <ele>142.9</ele>
        <time>2018-04-15T16:34:02Z</time>
      </trkpt>
      <trkpt lat="48.42702" lon="2.64651">
        <ele>142.5</ele>
        <time>2018-04-15T16:34:03Z</time>
      </trkpt>
      <trkpt lat="48.42697" lon="2.64655">
        <ele>142</ele>
        <time>2018-04-15T16:34:04Z</time>
      </trkpt>
      <trkpt lat="48.42694" lon="2.64657">
        <ele>141.7</ele>
        <time>2018-04-15T16:34:05Z</time>
      </trkpt>
      <trkpt lat="48.42692" lon="2.64659">
        <ele>141.5</ele>
        <time>2018-04-15T16:34:06Z</time>
      </trkpt>
      <trkpt lat="48.42688" lon="2.64661">
        <ele>141.1</ele>
        <time>2018-04-15T16:34:07Z</time>
      </trkpt>
      <trkpt lat="48.42683" lon="2.64665">
        <ele>140.6</ele>
        <time>2018-04-15T16:34:08Z</time>
      </trkpt>
      <trkpt lat="48.4268" lon="2.64668">
        <ele>140.3</ele>
        <time>2018-04-15T16:34:09Z</time>
      </trkpt>
      <trkpt lat="48.42675" lon="2.64672">
        <ele>139.7</ele>
        <time>2018-04-15T16:34:10Z</time>
      </trkpt>
      <trkpt lat="48.42669" lon="2.64677">
        <ele>139.1</ele>
        <time>2018-04-15T16:34:11Z</time>
      </trkpt>
      <trkpt lat="48.42664" lon="2.6468">
        <ele>138.4</ele>
        <time>2018-04-15T16:34:12Z</time>
      </trkpt>
      <trkpt lat="48.42658" lon="2.64685">
        <ele>137.5</ele>
        <time>2018-04-15T16:34:13Z</time>
      </trkpt>
      <trkpt lat="48.42653" lon="2.64688">
        <ele>136.7</ele>
        <time>2018-04-15T16:34:14Z</time>
      </trkpt>
      <trkpt lat="48.42649" lon="2.6469">
        <ele>135.9</ele>
        <time>2018-04-15T16:34:15Z</time>
      </trkpt>
      <trkpt lat="48.42646" lon="2.64691">
        <ele>135.3</ele>
        <time>2018-04-15T16:34:16Z</time>
      </trkpt>
      <trkpt lat="48.42641" lon="2.64695">
        <ele>134.4</ele>
        <time>2018-04-15T16:34:17Z</time>
      </trkpt>
      <trkpt lat="48.42637" lon="2.64699">
        <ele>133.5</ele>
        <time>2018-04-15T16:34:18Z</time>
      </trkpt>
      <trkpt lat="48.42631" lon="2.64703">
        <ele>132.4</ele>
        <time>2018-04-15T16:34:19Z</time>
      </trkpt>
      <trkpt lat="48.42627" lon="2.64707">
        <ele>131.7</ele>
        <time>2018-04-15T16:34:20Z</time>
      </trkpt>
      <trkpt lat="48.42623" lon="2.64709">
        <ele>131</ele>
        <time>2018-04-15T16:34:22Z</time>
      </trkpt>
      <trkpt lat="48.42619" lon="2.64711">
        <ele>130.5</ele>
        <time>2018-04-15T16:34:23Z</time>
      </trkpt>
      <trkpt lat="48.42615" lon="2.64716">
        <ele>129.9</ele>
        <time>2018-04-15T16:34:25Z</time>
      </trkpt>
      <trkpt lat="48.4261" lon="2.64719">
        <ele>129.2</ele>
        <time>2018-04-15T16:34:27Z</time>
      </trkpt>
      <trkpt lat="48.42607" lon="2.64724">
        <ele>128.8</ele>
        <time>2018-04-15T16:34:28Z</time>
      </trkpt>
      <trkpt lat="48.42602" lon="2.6473">
        <ele>128.2</ele>
        <time>2018-04-15T16:34:29Z</time>
      </trkpt>
      <trkpt lat="48.42598" lon="2.64736">
        <ele>127.7</ele>
        <time>2018-04-15T16:34:30Z</time>
      </trkpt>
      <trkpt lat="48.42594" lon="2.64741">
        <ele>127.3</ele>
        <time>2018-04-15T16:34:31Z</time>
      </trkpt>
      <trkpt lat="48.4259" lon="2.64744">
        <ele>127</ele>
        <time>2018-04-15T16:34:32Z</time>
      </trkpt>
      <trkpt lat="48.42586" lon="2.64747">
        <ele>126.6</ele>
        <time>2018-04-15T16:34:33Z</time>
      </trkpt>
      <trkpt lat="48.42584" lon="2.64748">
        <ele>126.4</ele>
        <time>2018-04-15T16:34:34Z</time>
      </trkpt>
      <trkpt lat="48.42581" lon="2.64748">
        <ele>126.2</ele>
        <time>2018-04-15T16:34:36Z</time>
      </trkpt>
      <trkpt lat="48.42577" lon="2.64748">
        <ele>126.2</ele>
        <time>2018-04-15T16:34:38Z</time>
      </trkpt>
      <trkpt lat="48.42573" lon="2.6475">
        <ele>126.5</ele>
        <time>2018-04-15T16:34:40Z</time>
      </trkpt>
      <trkpt lat="48.4257" lon="2.64754">
        <ele>126.8</ele>
        <time>2018-04-15T16:34:43Z</time>
      </trkpt>
      <trkpt lat="48.42568" lon="2.64757">
        <ele>127.1</ele>
        <time>2018-04-15T16:34:45Z</time>
      </trkpt>
      <trkpt lat="48.42565" lon="2.64762">
        <ele>127.5</ele>
        <time>2018-04-15T16:34:47Z</time>
      </trkpt>
      <trkpt lat="48.42562" lon="2.64765">
        <ele>127.7</ele>
        <time>2018-04-15T16:34:49Z</time>
      </trkpt>
      <trkpt lat="48.4256" lon="2.64768">
        <ele>128</ele>
        <time>2018-04-15T16:34:51Z</time>
      </trkpt>
      <trkpt lat="48.42557" lon="2.64772">
        <ele>128.4</ele>
        <time>2018-04-15T16:34:52Z</time>
      </trkpt>
      <trkpt lat="48.42552" lon="2.64777">
        <ele>129</ele>
        <time>2018-04-15T16:34:55Z</time>
      </trkpt>
      <trkpt lat="48.42549" lon="2.64779">
        <ele>129.3</ele>
        <time>2018-04-15T16:34:56Z</time>
      </trkpt>
      <trkpt lat="48.42547" lon="2.64782">
        <ele>129.6</ele>
        <time>2018-04-15T16:34:57Z</time>
      </trkpt>
      <trkpt lat="48.42544" lon="2.64787">
        <ele>130</ele>
        <time>2018-04-15T16:35:00Z</time>
      </trkpt>
      <trkpt lat="48.42541" lon="2.64789">
        <ele>130.3</ele>
        <time>2018-04-15T16:35:01Z</time>
      </trkpt>
      <trkpt lat="48.42539" lon="2.64792">
        <ele>130.7</ele>
        <time>2018-04-15T16:35:03Z</time>
      </trkpt>
      <trkpt lat="48.42535" lon="2.64797">
        <ele>131.1</ele>
        <time>2018-04-15T16:35:05Z</time>
      </trkpt>
      <trkpt lat="48.42532" lon="2.648">
        <ele>131.5</ele>
        <time>2018-04-15T16:35:07Z</time>
      </trkpt>
      <trkpt lat="48.42528" lon="2.64803">
        <ele>131.9</ele>
        <time>2018-04-15T16:35:09Z</time>
      </trkpt>
      <trkpt lat="48.42526" lon="2.64809">
        <ele>132.3</ele>
        <time>2018-04-15T16:35:11Z</time>
      </trkpt>
      <trkpt lat="48.42523" lon="2.64815">
        <ele>132.7</ele>
        <time>2018-04-15T16:35:13Z</time>
      </trkpt>
      <trkpt lat="48.42519" lon="2.6482">
        <ele>133.1</ele>
        <time>2018-04-15T16:35:15Z</time>
      </trkpt>
      <trkpt lat="48.42516" lon="2.64824">
        <ele>133.5</ele>
        <time>2018-04-15T16:35:16Z</time>
      </trkpt>
      <trkpt lat="48.42514" lon="2.64828">
        <ele>133.7</ele>
        <time>2018-04-15T16:35:17Z</time>
      </trkpt>
      <trkpt lat="48.42512" lon="2.64831">
        <ele>133.9</ele>
        <time>2018-04-15T16:35:18Z</time>
      </trkpt>
      <trkpt lat="48.42509" lon="2.64834">
        <ele>134.2</ele>
        <time>2018-04-15T16:35:19Z</time>
      </trkpt>
      <trkpt lat="48.42507" lon="2.64837">
        <ele>134.4</ele>
        <time>2018-04-15T16:35:21Z</time>
      </trkpt>
      <trkpt lat="48.42504" lon="2.6484">
        <ele>134.6</ele>
        <time>2018-04-15T16:35:23Z</time>
      </trkpt>
      <trkpt lat="48.42502" lon="2.64843">
        <ele>134.8</ele>
        <time>2018-04-15T16:35:24Z</time>
      </trkpt>
      <trkpt lat="48.42499" lon="2.64845">
        <ele>135</ele>
        <time>2018-04-15T16:35:25Z</time>
      </trkpt>
      <trkpt lat="48.42497" lon="2.64849">
        <ele>135.2</ele>
        <time>2018-04-15T16:35:26Z</time>
      </trkpt>
      <trkpt lat="48.42494" lon="2.64852">
        <ele>135.4</ele>
        <time>2018-04-15T16:35:27Z</time>
      </trkpt>
      <trkpt lat="48.42492" lon="2.64854">
        <ele>135.5</ele>
        <time>2018-04-15T16:35:28Z</time>
      </trkpt>
      <trkpt lat="48.42488" lon="2.64858">
        <ele>135.7</ele>
        <time>2018-04-15T16:35:30Z</time>
      </trkpt>
      <trkpt lat="48.42484" lon="2.64862">
        <ele>135.9</ele>
        <time>2018-04-15T16:35:33Z</time>
      </trkpt>
      <trkpt lat="48.42482" lon="2.64866">
        <ele>136</ele>
        <time>2018-04-15T16:35:35Z</time>
      </trkpt>
      <trkpt lat="48.4248" lon="2.64869">
        <ele>136.1</ele>
        <time>2018-04-15T16:35:36Z</time>
      </trkpt>
      <trkpt lat="48.42479" lon="2.64874">
        <ele>136.2</ele>
        <time>2018-04-15T16:35:38Z</time>
      </trkpt>
      <trkpt lat="48.42475" lon="2.6488">
        <ele>136.3</ele>
        <time>2018-04-15T16:35:40Z</time>
      </trkpt>
      <trkpt lat="48.42473" lon="2.64883">
        <ele>136.3</ele>
        <time>2018-04-15T16:35:42Z</time>
      </trkpt>
      <trkpt lat="48.42469" lon="2.64888">
        <ele>136.3</ele>
        <time>2018-04-15T16:35:44Z</time>
      </trkpt>
      <trkpt lat="48.42466" lon="2.64893">
        <ele>136.4</ele>
        <time>2018-04-15T16:35:45Z</time>
      </trkpt>
      <trkpt lat="48.42463" lon="2.64898">
        <ele>136.4</ele>
        <time>2018-04-15T16:35:46Z</time>
      </trkpt>
      <trkpt lat="48.42462" lon="2.64902">
        <ele>136.4</ele>
        <time>2018-04-15T16:35:50Z</time>
      </trkpt>
      <trkpt lat="48.42459" lon="2.64905">
        <ele>136.4</ele>
        <time>2018-04-15T16:35:51Z</time>
      </trkpt>
      <trkpt lat="48.42457" lon="2.64908">
        <ele>136.4</ele>
        <time>2018-04-15T16:35:53Z</time>
      </trkpt>
      <trkpt lat="48.42452" lon="2.64915">
        <ele>136.4</ele>
        <time>2018-04-15T16:35:55Z</time>
      </trkpt>
      <trkpt lat="48.42447" lon="2.64919">
        <ele>136.4</ele>
        <time>2018-04-15T16:35:57Z</time>
      </trkpt>
      <trkpt lat="48.42443" lon="2.64922">
        <ele>136.4</ele>
        <time>2018-04-15T16:35:59Z</time>
      </trkpt>
      <trkpt lat="48.42439" lon="2.64927">
        <ele>136.4</ele>
        <time>2018-04-15T16:36:01Z</time>
      </trkpt>
      <trkpt lat="48.42434" lon="2.64936">
        <ele>136.4</ele>
        <time>2018-04-15T16:36:03Z</time>
      </trkpt>
      <trkpt lat="48.4243" lon="2.6494">
        <ele>136.4</ele>
        <time>2018-04-15T16:36:04Z</time>
      </trkpt>
      <trkpt lat="48.42427" lon="2.64944">
        <ele>136.3</ele>
        <time>2018-04-15T16:36:05Z</time>
      </trkpt>
      <trkpt lat="48.42423" lon="2.64949">
        <ele>136.3</ele>
        <time>2018-04-15T16:36:06Z</time>
      </trkpt>
      <trkpt lat="48.42421" lon="2.64952">
        <ele>136.3</ele>
        <time>2018-04-15T16:36:07Z</time>
      </trkpt>
      <trkpt lat="48.42418" lon="2.64956">
        <ele>136.3</ele>
        <time>2018-04-15T16:36:08Z</time>
      </trkpt>
      <trkpt lat="48.42416" lon="2.64961">
        <ele>136.2</ele>
        <time>2018-04-15T16:36:09Z</time>
      </trkpt>
      <trkpt lat="48.42414" lon="2.64963">
        <ele>136.2</ele>
        <time>2018-04-15T16:36:10Z</time>
      </trkpt>
      <trkpt lat="48.42412" lon="2.64966">
        <ele>136.2</ele>
        <time>2018-04-15T16:36:11Z</time>
      </trkpt>
      <trkpt lat="48.42409" lon="2.6497">
        <ele>136.2</ele>
        <time>2018-04-15T16:36:12Z</time>
      </trkpt>
      <trkpt lat="48.42406" lon="2.64975">
        <ele>136.1</ele>
        <time>2018-04-15T16:36:13Z</time>
      </trkpt>
      <trkpt lat="48.42403" lon="2.64978">
        <ele>136.1</ele>
        <time>2018-04-15T16:36:14Z</time>
      </trkpt>
      <trkpt lat="48.424" lon="2.64981">
        <ele>136.1</ele>
        <time>2018-04-15T16:36:15Z</time>
      </trkpt>
      <trkpt lat="48.42395" lon="2.64985">
        <ele>136.1</ele>
        <time>2018-04-15T16:36:16Z</time>
      </trkpt>
      <trkpt lat="48.42391" lon="2.6499">
        <ele>136.1</ele>
        <time>2018-04-15T16:36:18Z</time>
      </trkpt>
      <trkpt lat="48.42388" lon="2.64993">
        <ele>136</ele>
        <time>2018-04-15T16:36:19Z</time>
      </trkpt>
      <trkpt lat="48.42384" lon="2.64997">
        <ele>136</ele>
        <time>2018-04-15T16:36:20Z</time>
      </trkpt>
      <trkpt lat="48.4238" lon="2.65001">
        <ele>136</ele>
        <time>2018-04-15T16:36:21Z</time>
      </trkpt>
      <trkpt lat="48.42377" lon="2.65005">
        <ele>136</ele>
        <time>2018-04-15T16:36:22Z</time>
      </trkpt>
      <trkpt lat="48.42372" lon="2.65011">
        <ele>136</ele>
        <time>2018-04-15T16:36:24Z</time>
      </trkpt>
      <trkpt lat="48.4237" lon="2.65014">
        <ele>136</ele>
        <time>2018-04-15T16:36:25Z</time>
      </trkpt>
      <trkpt lat="48.42367" lon="2.65017">
        <ele>136</ele>
        <time>2018-04-15T16:36:26Z</time>
      </trkpt>
      <trkpt lat="48.42364" lon="2.65021">
        <ele>135.9</ele>
        <time>2018-04-15T16:36:27Z</time>
      </trkpt>
      <trkpt lat="48.42362" lon="2.65024">
        <ele>135.9</ele>
        <time>2018-04-15T16:36:28Z</time>
      </trkpt>
      <trkpt lat="48.42357" lon="2.65029">
        <ele>135.9</ele>
        <time>2018-04-15T16:36:30Z</time>
      </trkpt>
      <trkpt lat="48.42353" lon="2.65035">
        <ele>135.9</ele>
        <time>2018-04-15T16:36:31Z</time>
      </trkpt>
      <trkpt lat="48.42351" lon="2.65038">
        <ele>135.9</ele>
        <time>2018-04-15T16:36:32Z</time>
      </trkpt>
      <trkpt lat="48.42347" lon="2.65043">
        <ele>135.9</ele>
        <time>2018-04-15T16:36:33Z</time>
      </trkpt>
      <trkpt lat="48.42342" lon="2.65048">
        <ele>135.8</ele>
        <time>2018-04-15T16:36:34Z</time>
      </trkpt>
      <trkpt lat="48.4234" lon="2.65052">
        <ele>135.8</ele>
        <time>2018-04-15T16:36:35Z</time>
      </trkpt>
      <trkpt lat="48.42337" lon="2.65055">
        <ele>135.8</ele>
        <time>2018-04-15T16:36:36Z</time>
      </trkpt>
      <trkpt lat="48.42333" lon="2.6506">
        <ele>135.8</ele>
        <time>2018-04-15T16:36:37Z</time>
      </trkpt>
      <trkpt lat="48.42328" lon="2.65065">
        <ele>135.8</ele>
        <time>2018-04-15T16:36:38Z</time>
      </trkpt>
      <trkpt lat="48.42324" lon="2.65068">
        <ele>135.7</ele>
        <time>2018-04-15T16:36:39Z</time>
      </trkpt>
      <trkpt lat="48.42319" lon="2.65074">
        <ele>135.7</ele>
        <time>2018-04-15T16:36:41Z</time>
      </trkpt>
      <trkpt lat="48.42315" lon="2.65079">
        <ele>135.7</ele>
        <time>2018-04-15T16:36:42Z</time>
      </trkpt>
      <trkpt lat="48.42311" lon="2.65083">
        <ele>135.6</ele>
        <time>2018-04-15T16:36:43Z</time>
      </trkpt>
      <trkpt lat="48.42309" lon="2.65086">
        <ele>135.6</ele>
        <time>2018-04-15T16:36:44Z</time>
      </trkpt>
      <trkpt lat="48.42306" lon="2.65089">
        <ele>135.6</ele>
        <time>2018-04-15T16:36:45Z</time>
      </trkpt>
      <trkpt lat="48.42301" lon="2.65094">
        <ele>135.6</ele>
        <time>2018-04-15T16:36:46Z</time>
      </trkpt>
      <trkpt lat="48.42298" lon="2.65098">
        <ele>135.5</ele>
        <time>2018-04-15T16:36:47Z</time>
      </trkpt>
      <trkpt lat="48.42293" lon="2.65102">
        <ele>135.5</ele>
        <time>2018-04-15T16:36:48Z</time>
      </trkpt>
      <trkpt lat="48.42289" lon="2.65106">
        <ele>135.5</ele>
        <time>2018-04-15T16:36:49Z</time>
      </trkpt>
      <trkpt lat="48.42286" lon="2.65111">
        <ele>135.5</ele>
        <time>2018-04-15T16:36:50Z</time>
      </trkpt>
      <trkpt lat="48.42283" lon="2.65114">
        <ele>135.5</ele>
        <time>2018-04-15T16:36:51Z</time>
      </trkpt>
      <trkpt lat="48.4228" lon="2.65119">
        <ele>135.4</ele>
        <time>2018-04-15T16:36:52Z</time>
      </trkpt>
      <trkpt lat="48.42277" lon="2.65123">
        <ele>135.4</ele>
        <time>2018-04-15T16:36:53Z</time>
      </trkpt>
      <trkpt lat="48.42274" lon="2.65127">
        <ele>135.4</ele>
        <time>2018-04-15T16:36:54Z</time>
      </trkpt>
      <trkpt lat="48.42271" lon="2.65131">
        <ele>135.4</ele>
        <time>2018-04-15T16:36:55Z</time>
      </trkpt>
      <trkpt lat="48.42267" lon="2.65135">
        <ele>135.4</ele>
        <time>2018-04-15T16:36:56Z</time>
      </trkpt>
      <trkpt lat="48.42264" lon="2.65139">
        <ele>135.4</ele>
        <time>2018-04-15T16:36:57Z</time>
      </trkpt>
      <trkpt lat="48.4226" lon="2.65144">
        <ele>135.3</ele>
        <time>2018-04-15T16:36:58Z</time>
      </trkpt>
      <trkpt lat="48.42257" lon="2.65149">
        <ele>135.3</ele>
        <time>2018-04-15T16:36:59Z</time>
      </trkpt>
      <trkpt lat="48.42252" lon="2.65154">
        <ele>135.2</ele>
        <time>2018-04-15T16:37:00Z</time>
      </trkpt>
      <trkpt lat="48.4225" lon="2.65157">
        <ele>135.2</ele>
        <time>2018-04-15T16:37:01Z</time>
      </trkpt>
      <trkpt lat="48.42246" lon="2.6516">
        <ele>135.2</ele>
        <time>2018-04-15T16:37:02Z</time>
      </trkpt>
      <trkpt lat="48.42243" lon="2.65165">
        <ele>135.1</ele>
        <time>2018-04-15T16:37:03Z</time>
      </trkpt>
      <trkpt lat="48.42241" lon="2.65168">
        <ele>135.1</ele>
        <time>2018-04-15T16:37:04Z</time>
      </trkpt>
      <trkpt lat="48.42237" lon="2.65172">
        <ele>135.1</ele>
        <time>2018-04-15T16:37:05Z</time>
      </trkpt>
      <trkpt lat="48.42232" lon="2.65177">
        <ele>135.1</ele>
        <time>2018-04-15T16:37:06Z</time>
      </trkpt>
      <trkpt lat="48.42228" lon="2.65181">
        <ele>135</ele>
        <time>2018-04-15T16:37:07Z</time>
      </trkpt>
      <trkpt lat="48.42223" lon="2.6519">
        <ele>135</ele>
        <time>2018-04-15T16:37:09Z</time>
      </trkpt>
      <trkpt lat="48.42221" lon="2.65193">
        <ele>135</ele>
        <time>2018-04-15T16:37:10Z</time>
      </trkpt>
      <trkpt lat="48.42218" lon="2.65197">
        <ele>135</ele>
        <time>2018-04-15T16:37:11Z</time>
      </trkpt>
      <trkpt lat="48.42215" lon="2.652">
        <ele>135</ele>
        <time>2018-04-15T16:37:12Z</time>
      </trkpt>
      <trkpt lat="48.42211" lon="2.65205">
        <ele>135</ele>
        <time>2018-04-15T16:37:13Z</time>
      </trkpt>
      <trkpt lat="48.42206" lon="2.65211">
        <ele>135</ele>
        <time>2018-04-15T16:37:14Z</time>
      </trkpt>
      <trkpt lat="48.42203" lon="2.65215">
        <ele>135</ele>
        <time>2018-04-15T16:37:15Z</time>
      </trkpt>
      <trkpt lat="48.422" lon="2.65218">
        <ele>135</ele>
        <time>2018-04-15T16:37:16Z</time>
      </trkpt>
      <trkpt lat="48.42197" lon="2.65222">
        <ele>135.1</ele>
        <time>2018-04-15T16:37:17Z</time>
      </trkpt>
      <trkpt lat="48.42195" lon="2.65225">
        <ele>135.2</ele>
        <time>2018-04-15T16:37:18Z</time>
      </trkpt>
      <trkpt lat="48.42187" lon="2.65233">
        <ele>135.6</ele>
        <time>2018-04-15T16:37:20Z</time>
      </trkpt>
      <trkpt lat="48.42183" lon="2.65239">
        <ele>135.7</ele>
        <time>2018-04-15T16:37:21Z</time>
      </trkpt>
      <trkpt lat="48.42179" lon="2.65243">
        <ele>135.8</ele>
        <time>2018-04-15T16:37:22Z</time>
      </trkpt>
      <trkpt lat="48.42178" lon="2.65246">
        <ele>135.8</ele>
        <time>2018-04-15T16:37:23Z</time>
      </trkpt>
      <trkpt lat="48.42175" lon="2.65249">
        <ele>135.9</ele>
        <time>2018-04-15T16:37:24Z</time>
      </trkpt>
      <trkpt lat="48.42173" lon="2.65252">
        <ele>135.9</ele>
        <time>2018-04-15T16:37:25Z</time>
      </trkpt>
      <trkpt lat="48.42171" lon="2.65256">
        <ele>135.9</ele>
        <time>2018-04-15T16:37:26Z</time>
      </trkpt>
      <trkpt lat="48.42168" lon="2.65259">
        <ele>135.9</ele>
        <time>2018-04-15T16:37:27Z</time>
      </trkpt>
      <trkpt lat="48.42166" lon="2.65262">
        <ele>135.9</ele>
        <time>2018-04-15T16:37:29Z</time>
      </trkpt>
      <trkpt lat="48.42164" lon="2.65267">
        <ele>136</ele>
        <time>2018-04-15T16:37:38Z</time>
      </trkpt>
      <trkpt lat="48.42161" lon="2.65273">
        <ele>136</ele>
        <time>2018-04-15T16:37:40Z</time>
      </trkpt>
      <trkpt lat="48.4216" lon="2.65277">
        <ele>135.9</ele>
        <time>2018-04-15T16:37:41Z</time>
      </trkpt>
      <trkpt lat="48.42159" lon="2.65282">
        <ele>135.9</ele>
        <time>2018-04-15T16:37:42Z</time>
      </trkpt>
      <trkpt lat="48.42159" lon="2.65288">
        <ele>135.9</ele>
        <time>2018-04-15T16:37:44Z</time>
      </trkpt>
      <trkpt lat="48.42157" lon="2.65296">
        <ele>135.9</ele>
        <time>2018-04-15T16:37:46Z</time>
      </trkpt>
      <trkpt lat="48.42156" lon="2.65304">
        <ele>135.9</ele>
        <time>2018-04-15T16:37:48Z</time>
      </trkpt>
      <trkpt lat="48.42153" lon="2.65311">
        <ele>135.9</ele>
        <time>2018-04-15T16:37:50Z</time>
      </trkpt>
      <trkpt lat="48.4215" lon="2.65317">
        <ele>135.9</ele>
        <time>2018-04-15T16:37:52Z</time>
      </trkpt>
      <trkpt lat="48.42148" lon="2.6532">
        <ele>135.9</ele>
        <time>2018-04-15T16:37:53Z</time>
      </trkpt>
      <trkpt lat="48.42143" lon="2.65326">
        <ele>136</ele>
        <time>2018-04-15T16:37:55Z</time>
      </trkpt>
      <trkpt lat="48.4214" lon="2.65331">
        <ele>136</ele>
        <time>2018-04-15T16:37:56Z</time>
      </trkpt>
      <trkpt lat="48.42137" lon="2.65337">
        <ele>136</ele>
        <time>2018-04-15T16:37:57Z</time>
      </trkpt>
      <trkpt lat="48.42133" lon="2.65341">
        <ele>136</ele>
        <time>2018-04-15T16:37:58Z</time>
      </trkpt>
      <trkpt lat="48.4213" lon="2.65344">
        <ele>136</ele>
        <time>2018-04-15T16:37:59Z</time>
      </trkpt>
      <trkpt lat="48.42126" lon="2.65347">
        <ele>136</ele>
        <time>2018-04-15T16:38:00Z</time>
      </trkpt>
      <trkpt lat="48.42121" lon="2.6535">
        <ele>136.1</ele>
        <time>2018-04-15T16:38:01Z</time>
      </trkpt>
      <trkpt lat="48.42118" lon="2.65353">
        <ele>136.1</ele>
        <time>2018-04-15T16:38:02Z</time>
      </trkpt>
      <trkpt lat="48.42114" lon="2.65358">
        <ele>136.1</ele>
        <time>2018-04-15T16:38:04Z</time>
      </trkpt>
      <trkpt lat="48.42111" lon="2.65363">
        <ele>136.1</ele>
        <time>2018-04-15T16:38:05Z</time>
      </trkpt>
      <trkpt lat="48.42109" lon="2.65367">
        <ele>136.1</ele>
        <time>2018-04-15T16:38:06Z</time>
      </trkpt>
      <trkpt lat="48.42107" lon="2.65371">
        <ele>136.1</ele>
        <time>2018-04-15T16:38:07Z</time>
      </trkpt>
      <trkpt lat="48.42104" lon="2.65376">
        <ele>136.1</ele>
        <time>2018-04-15T16:38:08Z</time>
      </trkpt>
      <trkpt lat="48.42101" lon="2.65381">
        <ele>136.1</ele>
        <time>2018-04-15T16:38:09Z</time>
      </trkpt>
      <trkpt lat="48.42098" lon="2.65389">
        <ele>136.1</ele>
        <time>2018-04-15T16:38:11Z</time>
      </trkpt>
      <trkpt lat="48.42096" lon="2.65396">
        <ele>136.1</ele>
        <time>2018-04-15T16:38:12Z</time>
      </trkpt>
      <trkpt lat="48.42095" lon="2.65402">
        <ele>136.2</ele>
        <time>2018-04-15T16:38:13Z</time>
      </trkpt>
      <trkpt lat="48.42092" lon="2.6541">
        <ele>136.2</ele>
        <time>2018-04-15T16:38:14Z</time>
      </trkpt>
      <trkpt lat="48.42089" lon="2.65417">
        <ele>136.2</ele>
        <time>2018-04-15T16:38:15Z</time>
      </trkpt>
      <trkpt lat="48.42086" lon="2.65422">
        <ele>136.2</ele>
        <time>2018-04-15T16:38:16Z</time>
      </trkpt>
      <trkpt lat="48.42082" lon="2.65428">
        <ele>136.2</ele>
        <time>2018-04-15T16:38:17Z</time>
      </trkpt>
      <trkpt lat="48.42079" lon="2.65433">
        <ele>136.2</ele>
        <time>2018-04-15T16:38:18Z</time>
      </trkpt>
      <trkpt lat="48.42077" lon="2.65439">
        <ele>136.2</ele>
        <time>2018-04-15T16:38:19Z</time>
      </trkpt>
      <trkpt lat="48.42073" lon="2.65446">
        <ele>136.2</ele>
        <time>2018-04-15T16:38:20Z</time>
      </trkpt>
      <trkpt lat="48.42071" lon="2.65452">
        <ele>136.3</ele>
        <time>2018-04-15T16:38:21Z</time>
      </trkpt>
      <trkpt lat="48.42068" lon="2.65457">
        <ele>136.3</ele>
        <time>2018-04-15T16:38:22Z</time>
      </trkpt>
      <trkpt lat="48.42065" lon="2.65463">
        <ele>136.3</ele>
        <time>2018-04-15T16:38:23Z</time>
      </trkpt>
      <trkpt lat="48.42063" lon="2.65468">
        <ele>136.3</ele>
        <time>2018-04-15T16:38:24Z</time>
      </trkpt>
      <trkpt lat="48.4206" lon="2.65475">
        <ele>136.3</ele>
        <time>2018-04-15T16:38:25Z</time>
      </trkpt>
      <trkpt lat="48.42058" lon="2.65482">
        <ele>136.3</ele>
        <time>2018-04-15T16:38:26Z</time>
      </trkpt>
      <trkpt lat="48.42055" lon="2.65487">
        <ele>136.3</ele>
        <time>2018-04-15T16:38:27Z</time>
      </trkpt>
      <trkpt lat="48.4205" lon="2.65494">
        <ele>136.3</ele>
        <time>2018-04-15T16:38:28Z</time>
      </trkpt>
      <trkpt lat="48.42046" lon="2.65499">
        <ele>136.3</ele>
        <time>2018-04-15T16:38:29Z</time>
      </trkpt>
      <trkpt lat="48.42043" lon="2.65503">
        <ele>136.3</ele>
        <time>2018-04-15T16:38:30Z</time>
      </trkpt>
      <trkpt lat="48.42039" lon="2.65508">
        <ele>136.3</ele>
        <time>2018-04-15T16:38:31Z</time>
      </trkpt>
      <trkpt lat="48.42034" lon="2.65514">
        <ele>136.3</ele>
        <time>2018-04-15T16:38:32Z</time>
      </trkpt>
      <trkpt lat="48.4203" lon="2.6552">
        <ele>136.4</ele>
        <time>2018-04-15T16:38:33Z</time>
      </trkpt>
      <trkpt lat="48.42026" lon="2.65526">
        <ele>136.4</ele>
        <time>2018-04-15T16:38:34Z</time>
      </trkpt>
      <trkpt lat="48.42022" lon="2.65531">
        <ele>136.4</ele>
        <time>2018-04-15T16:38:35Z</time>
      </trkpt>
      <trkpt lat="48.42017" lon="2.65537">
        <ele>136.4</ele>
        <time>2018-04-15T16:38:36Z</time>
      </trkpt>
      <trkpt lat="48.42013" lon="2.65542">
        <ele>136.4</ele>
        <time>2018-04-15T16:38:37Z</time>
      </trkpt>
      <trkpt lat="48.42009" lon="2.65547">
        <ele>136.5</ele>
        <time>2018-04-15T16:38:38Z</time>
      </trkpt>
      <trkpt lat="48.42005" lon="2.65552">
        <ele>136.5</ele>
        <time>2018-04-15T16:38:39Z</time>
      </trkpt>
      <trkpt lat="48.42" lon="2.65558">
        <ele>136.6</ele>
        <time>2018-04-15T16:38:40Z</time>
      </trkpt>
      <trkpt lat="48.41996" lon="2.65564">
        <ele>136.6</ele>
        <time>2018-04-15T16:38:41Z</time>
      </trkpt>
      <trkpt lat="48.41993" lon="2.65568">
        <ele>136.7</ele>
        <time>2018-04-15T16:38:42Z</time>
      </trkpt>
      <trkpt lat="48.41989" lon="2.65573">
        <ele>136.7</ele>
        <time>2018-04-15T16:38:43Z</time>
      </trkpt>
      <trkpt lat="48.41984" lon="2.65579">
        <ele>136.8</ele>
        <time>2018-04-15T16:38:44Z</time>
      </trkpt>
      <trkpt lat="48.41979" lon="2.65585">
        <ele>136.9</ele>
        <time>2018-04-15T16:38:45Z</time>
      </trkpt>
      <trkpt lat="48.41975" lon="2.65589">
        <ele>136.9</ele>
        <time>2018-04-15T16:38:46Z</time>
      </trkpt>
      <trkpt lat="48.41972" lon="2.65593">
        <ele>137</ele>
        <time>2018-04-15T16:38:47Z</time>
      </trkpt>
      <trkpt lat="48.41967" lon="2.65598">
        <ele>137.1</ele>
        <time>2018-04-15T16:38:48Z</time>
      </trkpt>
      <trkpt lat="48.41962" lon="2.65603">
        <ele>137.1</ele>
        <time>2018-04-15T16:38:49Z</time>
      </trkpt>
      <trkpt lat="48.41957" lon="2.65607">
        <ele>137.2</ele>
        <time>2018-04-15T16:38:50Z</time>
      </trkpt>
      <trkpt lat="48.41953" lon="2.65612">
        <ele>137.3</ele>
        <time>2018-04-15T16:38:51Z</time>
      </trkpt>
      <trkpt lat="48.41949" lon="2.65616">
        <ele>137.4</ele>
        <time>2018-04-15T16:38:52Z</time>
      </trkpt>
      <trkpt lat="48.41945" lon="2.6562">
        <ele>137.6</ele>
        <time>2018-04-15T16:38:53Z</time>
      </trkpt>
      <trkpt lat="48.41941" lon="2.65623">
        <ele>137.7</ele>
        <time>2018-04-15T16:38:54Z</time>
      </trkpt>
      <trkpt lat="48.41937" lon="2.65627">
        <ele>138</ele>
        <time>2018-04-15T16:38:55Z</time>
      </trkpt>
      <trkpt lat="48.41932" lon="2.65631">
        <ele>138.2</ele>
        <time>2018-04-15T16:38:56Z</time>
      </trkpt>
      <trkpt lat="48.41928" lon="2.65636">
        <ele>138.3</ele>
        <time>2018-04-15T16:38:57Z</time>
      </trkpt>
      <trkpt lat="48.41924" lon="2.65641">
        <ele>138.5</ele>
        <time>2018-04-15T16:38:58Z</time>
      </trkpt>
      <trkpt lat="48.41919" lon="2.65647">
        <ele>138.5</ele>
        <time>2018-04-15T16:38:59Z</time>
      </trkpt>
      <trkpt lat="48.41913" lon="2.65652">
        <ele>138.6</ele>
        <time>2018-04-15T16:39:00Z</time>
      </trkpt>
      <trkpt lat="48.41908" lon="2.65657">
        <ele>138.7</ele>
        <time>2018-04-15T16:39:01Z</time>
      </trkpt>
      <trkpt lat="48.41905" lon="2.6566">
        <ele>138.7</ele>
        <time>2018-04-15T16:39:02Z</time>
      </trkpt>
      <trkpt lat="48.419" lon="2.65663">
        <ele>138.7</ele>
        <time>2018-04-15T16:39:03Z</time>
      </trkpt>
      <trkpt lat="48.41895" lon="2.65666">
        <ele>138.7</ele>
        <time>2018-04-15T16:39:04Z</time>
      </trkpt>
      <trkpt lat="48.4189" lon="2.65668">
        <ele>138.7</ele>
        <time>2018-04-15T16:39:05Z</time>
      </trkpt>
      <trkpt lat="48.41885" lon="2.65671">
        <ele>138.8</ele>
        <time>2018-04-15T16:39:06Z</time>
      </trkpt>
      <trkpt lat="48.4188" lon="2.65672">
        <ele>138.8</ele>
        <time>2018-04-15T16:39:07Z</time>
      </trkpt>
      <trkpt lat="48.41875" lon="2.65674">
        <ele>138.8</ele>
        <time>2018-04-15T16:39:08Z</time>
      </trkpt>
      <trkpt lat="48.41871" lon="2.65675">
        <ele>138.8</ele>
        <time>2018-04-15T16:39:09Z</time>
      </trkpt>
      <trkpt lat="48.41865" lon="2.65678">
        <ele>138.8</ele>
        <time>2018-04-15T16:39:10Z</time>
      </trkpt>
      <trkpt lat="48.4186" lon="2.6568">
        <ele>138.8</ele>
        <time>2018-04-15T16:39:11Z</time>
      </trkpt>
      <trkpt lat="48.41857" lon="2.65682">
        <ele>138.8</ele>
        <time>2018-04-15T16:39:12Z</time>
      </trkpt>
      <trkpt lat="48.41852" lon="2.65685">
        <ele>138.8</ele>
        <time>2018-04-15T16:39:13Z</time>
      </trkpt>
      <trkpt lat="48.41847" lon="2.65688">
        <ele>138.8</ele>
        <time>2018-04-15T16:39:14Z</time>
      </trkpt>
      <trkpt lat="48.41841" lon="2.65691">
        <ele>138.8</ele>
        <time>2018-04-15T16:39:15Z</time>
      </trkpt>
      <trkpt lat="48.41836" lon="2.65694">
        <ele>138.9</ele>
        <time>2018-04-15T16:39:16Z</time>
      </trkpt>
      <trkpt lat="48.41831" lon="2.65698">
        <ele>138.9</ele>
        <time>2018-04-15T16:39:17Z</time>
      </trkpt>
      <trkpt lat="48.41826" lon="2.65702">
        <ele>138.9</ele>
        <time>2018-04-15T16:39:18Z</time>
      </trkpt>
      <trkpt lat="48.41822" lon="2.65705">
        <ele>138.9</ele>
        <time>2018-04-15T16:39:19Z</time>
      </trkpt>
      <trkpt lat="48.41818" lon="2.65707">
        <ele>138.9</ele>
        <time>2018-04-15T16:39:20Z</time>
      </trkpt>
      <trkpt lat="48.41815" lon="2.65711">
        <ele>138.9</ele>
        <time>2018-04-15T16:39:21Z</time>
      </trkpt>
      <trkpt lat="48.41811" lon="2.65718">
        <ele>138.9</ele>
        <time>2018-04-15T16:39:22Z</time>
      </trkpt>
      <trkpt lat="48.41806" lon="2.65724">
        <ele>138.9</ele>
        <time>2018-04-15T16:39:23Z</time>
      </trkpt>
      <trkpt lat="48.41803" lon="2.65729">
        <ele>138.9</ele>
        <time>2018-04-15T16:39:24Z</time>
      </trkpt>
      <trkpt lat="48.41799" lon="2.65735">
        <ele>138.9</ele>
        <time>2018-04-15T16:39:25Z</time>
      </trkpt>
      <trkpt lat="48.41794" lon="2.65742">
        <ele>138.9</ele>
        <time>2018-04-15T16:39:26Z</time>
      </trkpt>
      <trkpt lat="48.4179" lon="2.65751">
        <ele>139</ele>
        <time>2018-04-15T16:39:27Z</time>
      </trkpt>
      <trkpt lat="48.41785" lon="2.65759">
        <ele>139</ele>
        <time>2018-04-15T16:39:28Z</time>
      </trkpt>
      <trkpt lat="48.41781" lon="2.65765">
        <ele>139</ele>
        <time>2018-04-15T16:39:29Z</time>
      </trkpt>
      <trkpt lat="48.41777" lon="2.65773">
        <ele>139</ele>
        <time>2018-04-15T16:39:30Z</time>
      </trkpt>
      <trkpt lat="48.41774" lon="2.65779">
        <ele>139</ele>
        <time>2018-04-15T16:39:31Z</time>
      </trkpt>
      <trkpt lat="48.41771" lon="2.65786">
        <ele>139.1</ele>
        <time>2018-04-15T16:39:32Z</time>
      </trkpt>
      <trkpt lat="48.41767" lon="2.65794">
        <ele>139.1</ele>
        <time>2018-04-15T16:39:33Z</time>
      </trkpt>
      <trkpt lat="48.41762" lon="2.65802">
        <ele>139.1</ele>
        <time>2018-04-15T16:39:34Z</time>
      </trkpt>
      <trkpt lat="48.41759" lon="2.65809">
        <ele>139.1</ele>
        <time>2018-04-15T16:39:35Z</time>
      </trkpt>
      <trkpt lat="48.41754" lon="2.65817">
        <ele>139.1</ele>
        <time>2018-04-15T16:39:36Z</time>
      </trkpt>
      <trkpt lat="48.41751" lon="2.65823">
        <ele>139.1</ele>
        <time>2018-04-15T16:39:37Z</time>
      </trkpt>
      <trkpt lat="48.41747" lon="2.65831">
        <ele>139.1</ele>
        <time>2018-04-15T16:39:38Z</time>
      </trkpt>
      <trkpt lat="48.41743" lon="2.65839">
        <ele>139.1</ele>
        <time>2018-04-15T16:39:39Z</time>
      </trkpt>
      <trkpt lat="48.41739" lon="2.65845">
        <ele>139.1</ele>
        <time>2018-04-15T16:39:40Z</time>
      </trkpt>
      <trkpt lat="48.41734" lon="2.65852">
        <ele>139.1</ele>
        <time>2018-04-15T16:39:41Z</time>
      </trkpt>
      <trkpt lat="48.4173" lon="2.65858">
        <ele>139</ele>
        <time>2018-04-15T16:39:42Z</time>
      </trkpt>
      <trkpt lat="48.41726" lon="2.65863">
        <ele>138.9</ele>
        <time>2018-04-15T16:39:43Z</time>
      </trkpt>
      <trkpt lat="48.41721" lon="2.65868">
        <ele>138.6</ele>
        <time>2018-04-15T16:39:44Z</time>
      </trkpt>
      <trkpt lat="48.41716" lon="2.65875">
        <ele>138.4</ele>
        <time>2018-04-15T16:39:45Z</time>
      </trkpt>
      <trkpt lat="48.4171" lon="2.65882">
        <ele>138.2</ele>
        <time>2018-04-15T16:39:46Z</time>
      </trkpt>
      <trkpt lat="48.41704" lon="2.65888">
        <ele>138.1</ele>
        <time>2018-04-15T16:39:47Z</time>
      </trkpt>
      <trkpt lat="48.41696" lon="2.65896">
        <ele>138</ele>
        <time>2018-04-15T16:39:48Z</time>
      </trkpt>
      <trkpt lat="48.4169" lon="2.65902">
        <ele>138</ele>
        <time>2018-04-15T16:39:49Z</time>
      </trkpt>
      <trkpt lat="48.41686" lon="2.65907">
        <ele>138</ele>
        <time>2018-04-15T16:39:50Z</time>
      </trkpt>
      <trkpt lat="48.41683" lon="2.65912">
        <ele>138</ele>
        <time>2018-04-15T16:39:51Z</time>
      </trkpt>
      <trkpt lat="48.41677" lon="2.65918">
        <ele>137.9</ele>
        <time>2018-04-15T16:39:52Z</time>
      </trkpt>
      <trkpt lat="48.41672" lon="2.65924">
        <ele>137.8</ele>
        <time>2018-04-15T16:39:53Z</time>
      </trkpt>
      <trkpt lat="48.41667" lon="2.65929">
        <ele>137.7</ele>
        <time>2018-04-15T16:39:54Z</time>
      </trkpt>
      <trkpt lat="48.41662" lon="2.65935">
        <ele>137.6</ele>
        <time>2018-04-15T16:39:55Z</time>
      </trkpt>
      <trkpt lat="48.41656" lon="2.65942">
        <ele>137.5</ele>
        <time>2018-04-15T16:39:56Z</time>
      </trkpt>
      <trkpt lat="48.41651" lon="2.6595">
        <ele>137.2</ele>
        <time>2018-04-15T16:39:57Z</time>
      </trkpt>
      <trkpt lat="48.41646" lon="2.65961">
        <ele>136.9</ele>
        <time>2018-04-15T16:39:58Z</time>
      </trkpt>
      <trkpt lat="48.4164" lon="2.6597">
        <ele>136.6</ele>
        <time>2018-04-15T16:39:59Z</time>
      </trkpt>
      <trkpt lat="48.41635" lon="2.65977">
        <ele>136.5</ele>
        <time>2018-04-15T16:40:00Z</time>
      </trkpt>
      <trkpt lat="48.4163" lon="2.65984">
        <ele>136.3</ele>
        <time>2018-04-15T16:40:01Z</time>
      </trkpt>
      <trkpt lat="48.41625" lon="2.65991">
        <ele>136.2</ele>
        <time>2018-04-15T16:40:02Z</time>
      </trkpt>
      <trkpt lat="48.41618" lon="2.65998">
        <ele>136.2</ele>
        <time>2018-04-15T16:40:03Z</time>
      </trkpt>
      <trkpt lat="48.41612" lon="2.66004">
        <ele>136.1</ele>
        <time>2018-04-15T16:40:04Z</time>
      </trkpt>
      <trkpt lat="48.41606" lon="2.6601">
        <ele>136.1</ele>
        <time>2018-04-15T16:40:05Z</time>
      </trkpt>
      <trkpt lat="48.41601" lon="2.66016">
        <ele>136.1</ele>
        <time>2018-04-15T16:40:06Z</time>
      </trkpt>
      <trkpt lat="48.41598" lon="2.66022">
        <ele>136.1</ele>
        <time>2018-04-15T16:40:07Z</time>
      </trkpt>
      <trkpt lat="48.41593" lon="2.6603">
        <ele>136</ele>
        <time>2018-04-15T16:40:08Z</time>
      </trkpt>
      <trkpt lat="48.41589" lon="2.66039">
        <ele>136</ele>
        <time>2018-04-15T16:40:09Z</time>
      </trkpt>
      <trkpt lat="48.41585" lon="2.66048">
        <ele>136</ele>
        <time>2018-04-15T16:40:10Z</time>
      </trkpt>
      <trkpt lat="48.41581" lon="2.66059">
        <ele>136</ele>
        <time>2018-04-15T16:40:11Z</time>
      </trkpt>
      <trkpt lat="48.41577" lon="2.66069">
        <ele>135.9</ele>
        <time>2018-04-15T16:40:12Z</time>
      </trkpt>
      <trkpt lat="48.41574" lon="2.6608">
        <ele>135.9</ele>
        <time>2018-04-15T16:40:13Z</time>
      </trkpt>
      <trkpt lat="48.41571" lon="2.6609">
        <ele>135.9</ele>
        <time>2018-04-15T16:40:14Z</time>
      </trkpt>
      <trkpt lat="48.41569" lon="2.661">
        <ele>135.8</ele>
        <time>2018-04-15T16:40:15Z</time>
      </trkpt>
      <trkpt lat="48.41565" lon="2.6611">
        <ele>135.7</ele>
        <time>2018-04-15T16:40:16Z</time>
      </trkpt>
      <trkpt lat="48.41562" lon="2.66121">
        <ele>135.6</ele>
        <time>2018-04-15T16:40:17Z</time>
      </trkpt>
      <trkpt lat="48.41558" lon="2.66131">
        <ele>135.4</ele>
        <time>2018-04-15T16:40:18Z</time>
      </trkpt>
      <trkpt lat="48.41554" lon="2.66142">
        <ele>135.3</ele>
        <time>2018-04-15T16:40:19Z</time>
      </trkpt>
      <trkpt lat="48.41551" lon="2.66152">
        <ele>135.1</ele>
        <time>2018-04-15T16:40:20Z</time>
      </trkpt>
      <trkpt lat="48.41546" lon="2.66161">
        <ele>135</ele>
        <time>2018-04-15T16:40:21Z</time>
      </trkpt>
      <trkpt lat="48.41541" lon="2.66169">
        <ele>134.9</ele>
        <time>2018-04-15T16:40:22Z</time>
      </trkpt>
      <trkpt lat="48.41536" lon="2.66176">
        <ele>134.8</ele>
        <time>2018-04-15T16:40:23Z</time>
      </trkpt>
      <trkpt lat="48.41532" lon="2.66185">
        <ele>134.6</ele>
        <time>2018-04-15T16:40:24Z</time>
      </trkpt>
      <trkpt lat="48.41527" lon="2.66194">
        <ele>134.5</ele>
        <time>2018-04-15T16:40:25Z</time>
      </trkpt>
      <trkpt lat="48.41523" lon="2.66203">
        <ele>134.3</ele>
        <time>2018-04-15T16:40:26Z</time>
      </trkpt>
      <trkpt lat="48.41518" lon="2.66213">
        <ele>134.2</ele>
        <time>2018-04-15T16:40:27Z</time>
      </trkpt>
      <trkpt lat="48.41514" lon="2.66223">
        <ele>134.1</ele>
        <time>2018-04-15T16:40:28Z</time>
      </trkpt>
      <trkpt lat="48.41509" lon="2.66233">
        <ele>134</ele>
        <time>2018-04-15T16:40:29Z</time>
      </trkpt>
      <trkpt lat="48.41504" lon="2.66242">
        <ele>134</ele>
        <time>2018-04-15T16:40:30Z</time>
      </trkpt>
      <trkpt lat="48.41499" lon="2.66252">
        <ele>133.9</ele>
        <time>2018-04-15T16:40:31Z</time>
      </trkpt>
      <trkpt lat="48.41495" lon="2.66263">
        <ele>133.9</ele>
        <time>2018-04-15T16:40:32Z</time>
      </trkpt>
      <trkpt lat="48.41491" lon="2.66273">
        <ele>133.9</ele>
        <time>2018-04-15T16:40:33Z</time>
      </trkpt>
      <trkpt lat="48.41488" lon="2.66285">
        <ele>133.8</ele>
        <time>2018-04-15T16:40:34Z</time>
      </trkpt>
      <trkpt lat="48.41485" lon="2.66297">
        <ele>133.7</ele>
        <time>2018-04-15T16:40:35Z</time>
      </trkpt>
      <trkpt lat="48.41481" lon="2.66308">
        <ele>133.4</ele>
        <time>2018-04-15T16:40:36Z</time>
      </trkpt>
      <trkpt lat="48.41477" lon="2.66322">
        <ele>133.1</ele>
        <time>2018-04-15T16:40:37Z</time>
      </trkpt>
      <trkpt lat="48.41474" lon="2.66335">
        <ele>132.7</ele>
        <time>2018-04-15T16:40:38Z</time>
      </trkpt>
      <trkpt lat="48.41471" lon="2.66348">
        <ele>132.3</ele>
        <time>2018-04-15T16:40:39Z</time>
      </trkpt>
      <trkpt lat="48.41468" lon="2.66361">
        <ele>131.9</ele>
        <time>2018-04-15T16:40:40Z</time>
      </trkpt>
      <trkpt lat="48.41465" lon="2.66375">
        <ele>131.6</ele>
        <time>2018-04-15T16:40:41Z</time>
      </trkpt>
      <trkpt lat="48.41462" lon="2.66387">
        <ele>131.2</ele>
        <time>2018-04-15T16:40:42Z</time>
      </trkpt>
      <trkpt lat="48.4146" lon="2.66401">
        <ele>130.9</ele>
        <time>2018-04-15T16:40:43Z</time>
      </trkpt>
      <trkpt lat="48.41456" lon="2.66414">
        <ele>130.6</ele>
        <time>2018-04-15T16:40:44Z</time>
      </trkpt>
      <trkpt lat="48.41451" lon="2.66426">
        <ele>130.4</ele>
        <time>2018-04-15T16:40:45Z</time>
      </trkpt>
      <trkpt lat="48.41446" lon="2.66439">
        <ele>130.1</ele>
        <time>2018-04-15T16:40:46Z</time>
      </trkpt>
      <trkpt lat="48.4144" lon="2.6645">
        <ele>129.9</ele>
        <time>2018-04-15T16:40:47Z</time>
      </trkpt>
      <trkpt lat="48.41435" lon="2.66462">
        <ele>129.8</ele>
        <time>2018-04-15T16:40:48Z</time>
      </trkpt>
      <trkpt lat="48.4143" lon="2.66476">
        <ele>129.6</ele>
        <time>2018-04-15T16:40:49Z</time>
      </trkpt>
      <trkpt lat="48.41426" lon="2.66489">
        <ele>129.5</ele>
        <time>2018-04-15T16:40:50Z</time>
      </trkpt>
      <trkpt lat="48.4142" lon="2.66502">
        <ele>129.2</ele>
        <time>2018-04-15T16:40:51Z</time>
      </trkpt>
      <trkpt lat="48.41416" lon="2.66515">
        <ele>128.9</ele>
        <time>2018-04-15T16:40:52Z</time>
      </trkpt>
      <trkpt lat="48.41411" lon="2.66528">
        <ele>128.6</ele>
        <time>2018-04-15T16:40:53Z</time>
      </trkpt>
      <trkpt lat="48.41407" lon="2.66542">
        <ele>128.2</ele>
        <time>2018-04-15T16:40:54Z</time>
      </trkpt>
      <trkpt lat="48.41403" lon="2.66555">
        <ele>127.7</ele>
        <time>2018-04-15T16:40:55Z</time>
      </trkpt>
      <trkpt lat="48.41399" lon="2.6657">
        <ele>127.1</ele>
        <time>2018-04-15T16:40:56Z</time>
      </trkpt>
      <trkpt lat="48.41395" lon="2.66585">
        <ele>126.5</ele>
        <time>2018-04-15T16:40:57Z</time>
      </trkpt>
      <trkpt lat="48.4139" lon="2.666">
        <ele>125.8</ele>
        <time>2018-04-15T16:40:58Z</time>
      </trkpt>
      <trkpt lat="48.41385" lon="2.66616">
        <ele>125.1</ele>
        <time>2018-04-15T16:40:59Z</time>
      </trkpt>
      <trkpt lat="48.4138" lon="2.66633">
        <ele>124.2</ele>
        <time>2018-04-15T16:41:00Z</time>
      </trkpt>
      <trkpt lat="48.41374" lon="2.6665">
        <ele>123.4</ele>
        <time>2018-04-15T16:41:01Z</time>
      </trkpt>
      <trkpt lat="48.41368" lon="2.66668">
        <ele>122</ele>
        <time>2018-04-15T16:41:02Z</time>
      </trkpt>
      <trkpt lat="48.41362" lon="2.66686">
        <ele>120.3</ele>
        <time>2018-04-15T16:41:03Z</time>
      </trkpt>
      <trkpt lat="48.41354" lon="2.66703">
        <ele>118.6</ele>
        <time>2018-04-15T16:41:04Z</time>
      </trkpt>
      <trkpt lat="48.41346" lon="2.6672">
        <ele>117</ele>
        <time>2018-04-15T16:41:05Z</time>
      </trkpt>
      <trkpt lat="48.41338" lon="2.66737">
        <ele>115.4</ele>
        <time>2018-04-15T16:41:06Z</time>
      </trkpt>
      <trkpt lat="48.4133" lon="2.66753">
        <ele>113.9</ele>
        <time>2018-04-15T16:41:07Z</time>
      </trkpt>
      <trkpt lat="48.41323" lon="2.6677">
        <ele>112.4</ele>
        <time>2018-04-15T16:41:08Z</time>
      </trkpt>
      <trkpt lat="48.41315" lon="2.66787">
        <ele>110.8</ele>
        <time>2018-04-15T16:41:09Z</time>
      </trkpt>
      <trkpt lat="48.41306" lon="2.66803">
        <ele>109.2</ele>
        <time>2018-04-15T16:41:10Z</time>
      </trkpt>
      <trkpt lat="48.41299" lon="2.66818">
        <ele>107.6</ele>
        <time>2018-04-15T16:41:11Z</time>
      </trkpt>
      <trkpt lat="48.41292" lon="2.66834">
        <ele>105.9</ele>
        <time>2018-04-15T16:41:12Z</time>
      </trkpt>
      <trkpt lat="48.41285" lon="2.66849">
        <ele>105.1</ele>
        <time>2018-04-15T16:41:13Z</time>
      </trkpt>
      <trkpt lat="48.41279" lon="2.66863">
        <ele>105.3</ele>
        <time>2018-04-15T16:41:14Z</time>
      </trkpt>
      <trkpt lat="48.41271" lon="2.66877">
        <ele>105.4</ele>
        <time>2018-04-15T16:41:15Z</time>
      </trkpt>
      <trkpt lat="48.41264" lon="2.66891">
        <ele>105.6</ele>
        <time>2018-04-15T16:41:16Z</time>
      </trkpt>
      <trkpt lat="48.41257" lon="2.66905">
        <ele>106</ele>
        <time>2018-04-15T16:41:17Z</time>
      </trkpt>
      <trkpt lat="48.41249" lon="2.66919">
        <ele>106.5</ele>
        <time>2018-04-15T16:41:18Z</time>
      </trkpt>
      <trkpt lat="48.41242" lon="2.66932">
        <ele>107</ele>
        <time>2018-04-15T16:41:19Z</time>
      </trkpt>
      <trkpt lat="48.41236" lon="2.66945">
        <ele>107</ele>
        <time>2018-04-15T16:41:20Z</time>
      </trkpt>
      <trkpt lat="48.4123" lon="2.66957">
        <ele>107</ele>
        <time>2018-04-15T16:41:21Z</time>
      </trkpt>
      <trkpt lat="48.41224" lon="2.66969">
        <ele>107</ele>
        <time>2018-04-15T16:41:22Z</time>
      </trkpt>
      <trkpt lat="48.41217" lon="2.66981">
        <ele>107</ele>
        <time>2018-04-15T16:41:23Z</time>
      </trkpt>
      <trkpt lat="48.41211" lon="2.66992">
        <ele>107.1</ele>
        <time>2018-04-15T16:41:24Z</time>
      </trkpt>
      <trkpt lat="48.41206" lon="2.67004">
        <ele>107.1</ele>
        <time>2018-04-15T16:41:25Z</time>
      </trkpt>
      <trkpt lat="48.412" lon="2.67016">
        <ele>107.1</ele>
        <time>2018-04-15T16:41:26Z</time>
      </trkpt>
      <trkpt lat="48.41195" lon="2.67027">
        <ele>107</ele>
        <time>2018-04-15T16:41:27Z</time>
      </trkpt>
      <trkpt lat="48.4119" lon="2.67038">
        <ele>107</ele>
        <time>2018-04-15T16:41:28Z</time>
      </trkpt>
      <trkpt lat="48.41185" lon="2.6705">
        <ele>106.9</ele>
        <time>2018-04-15T16:41:29Z</time>
      </trkpt>
      <trkpt lat="48.41179" lon="2.67063">
        <ele>106.9</ele>
        <time>2018-04-15T16:41:30Z</time>
      </trkpt>
      <trkpt lat="48.41173" lon="2.67075">
        <ele>106.8</ele>
        <time>2018-04-15T16:41:31Z</time>
      </trkpt>
      <trkpt lat="48.41167" lon="2.67087">
        <ele>106.7</ele>
        <time>2018-04-15T16:41:32Z</time>
      </trkpt>
      <trkpt lat="48.4116" lon="2.67098">
        <ele>106.5</ele>
        <time>2018-04-15T16:41:33Z</time>
      </trkpt>
      <trkpt lat="48.41155" lon="2.67109">
        <ele>106.3</ele>
        <time>2018-04-15T16:41:34Z</time>
      </trkpt>
      <trkpt lat="48.41149" lon="2.67119">
        <ele>106.1</ele>
        <time>2018-04-15T16:41:35Z</time>
      </trkpt>
      <trkpt lat="48.41143" lon="2.67128">
        <ele>105.9</ele>
        <time>2018-04-15T16:41:36Z</time>
      </trkpt>
      <trkpt lat="48.41139" lon="2.67137">
        <ele>105.8</ele>
        <time>2018-04-15T16:41:37Z</time>
      </trkpt>
      <trkpt lat="48.41134" lon="2.67147">
        <ele>105.8</ele>
        <time>2018-04-15T16:41:38Z</time>
      </trkpt>
      <trkpt lat="48.4113" lon="2.67156">
        <ele>105.8</ele>
        <time>2018-04-15T16:41:39Z</time>
      </trkpt>
      <trkpt lat="48.41125" lon="2.67164">
        <ele>105.7</ele>
        <time>2018-04-15T16:41:40Z</time>
      </trkpt>
      <trkpt lat="48.41121" lon="2.67173">
        <ele>105.7</ele>
        <time>2018-04-15T16:41:41Z</time>
      </trkpt>
      <trkpt lat="48.41117" lon="2.67181">
        <ele>105.8</ele>
        <time>2018-04-15T16:41:42Z</time>
      </trkpt>
      <trkpt lat="48.41113" lon="2.6719">
        <ele>105.8</ele>
        <time>2018-04-15T16:41:43Z</time>
      </trkpt>
      <trkpt lat="48.4111" lon="2.67198">
        <ele>105.8</ele>
        <time>2018-04-15T16:41:44Z</time>
      </trkpt>
      <trkpt lat="48.41106" lon="2.67207">
        <ele>105.8</ele>
        <time>2018-04-15T16:41:45Z</time>
      </trkpt>
      <trkpt lat="48.41103" lon="2.67215">
        <ele>105.8</ele>
        <time>2018-04-15T16:41:46Z</time>
      </trkpt>
      <trkpt lat="48.41099" lon="2.67224">
        <ele>105.9</ele>
        <time>2018-04-15T16:41:47Z</time>
      </trkpt>
      <trkpt lat="48.41095" lon="2.67231">
        <ele>105.9</ele>
        <time>2018-04-15T16:41:48Z</time>
      </trkpt>
      <trkpt lat="48.41091" lon="2.67238">
        <ele>106</ele>
        <time>2018-04-15T16:41:49Z</time>
      </trkpt>
      <trkpt lat="48.41088" lon="2.67246">
        <ele>106</ele>
        <time>2018-04-15T16:41:50Z</time>
      </trkpt>
      <trkpt lat="48.41085" lon="2.67254">
        <ele>106.1</ele>
        <time>2018-04-15T16:41:51Z</time>
      </trkpt>
      <trkpt lat="48.41081" lon="2.67263">
        <ele>106.1</ele>
        <time>2018-04-15T16:41:52Z</time>
      </trkpt>
      <trkpt lat="48.41077" lon="2.67271">
        <ele>106.2</ele>
        <time>2018-04-15T16:41:53Z</time>
      </trkpt>
      <trkpt lat="48.41073" lon="2.67279">
        <ele>106.3</ele>
        <time>2018-04-15T16:41:54Z</time>
      </trkpt>
      <trkpt lat="48.4107" lon="2.67284">
        <ele>106.4</ele>
        <time>2018-04-15T16:41:55Z</time>
      </trkpt>
      <trkpt lat="48.41068" lon="2.67287">
        <ele>106.5</ele>
        <time>2018-04-15T16:41:56Z</time>
      </trkpt>
      <trkpt lat="48.41066" lon="2.67289">
        <ele>106.6</ele>
        <time>2018-04-15T16:41:57Z</time>
      </trkpt>
      <trkpt lat="48.41063" lon="2.67292">
        <ele>106.6</ele>
        <time>2018-04-15T16:41:58Z</time>
      </trkpt>
      <trkpt lat="48.41059" lon="2.67295">
        <ele>106.7</ele>
        <time>2018-04-15T16:41:59Z</time>
      </trkpt>
      <trkpt lat="48.41056" lon="2.67297">
        <ele>106.8</ele>
        <time>2018-04-15T16:42:00Z</time>
      </trkpt>
      <trkpt lat="48.41053" lon="2.67299">
        <ele>107</ele>
        <time>2018-04-15T16:42:01Z</time>
      </trkpt>
      <trkpt lat="48.41051" lon="2.67303">
        <ele>107.3</ele>
        <time>2018-04-15T16:42:02Z</time>
      </trkpt>
      <trkpt lat="48.41049" lon="2.67306">
        <ele>107.7</ele>
        <time>2018-04-15T16:42:03Z</time>
      </trkpt>
      <trkpt lat="48.41048" lon="2.67311">
        <ele>108.2</ele>
        <time>2018-04-15T16:42:04Z</time>
      </trkpt>
      <trkpt lat="48.41047" lon="2.67316">
        <ele>108.5</ele>
        <time>2018-04-15T16:42:05Z</time>
      </trkpt>
      <trkpt lat="48.41046" lon="2.67322">
        <ele>108.6</ele>
        <time>2018-04-15T16:42:06Z</time>
      </trkpt>
      <trkpt lat="48.41045" lon="2.67327">
        <ele>108.7</ele>
        <time>2018-04-15T16:42:07Z</time>
      </trkpt>
      <trkpt lat="48.41044" lon="2.67332">
        <ele>108.7</ele>
        <time>2018-04-15T16:42:08Z</time>
      </trkpt>
      <trkpt lat="48.41043" lon="2.67338">
        <ele>108.8</ele>
        <time>2018-04-15T16:42:09Z</time>
      </trkpt>
      <trkpt lat="48.4104" lon="2.67344">
        <ele>108.8</ele>
        <time>2018-04-15T16:42:10Z</time>
      </trkpt>
      <trkpt lat="48.41037" lon="2.67347">
        <ele>108.9</ele>
        <time>2018-04-15T16:42:11Z</time>
      </trkpt>
      <trkpt lat="48.41035" lon="2.67351">
        <ele>108.9</ele>
        <time>2018-04-15T16:42:12Z</time>
      </trkpt>
      <trkpt lat="48.41035" lon="2.67356">
        <ele>109.1</ele>
        <time>2018-04-15T16:42:13Z</time>
      </trkpt>
      <trkpt lat="48.41034" lon="2.67361">
        <ele>109.2</ele>
        <time>2018-04-15T16:42:14Z</time>
      </trkpt>
      <trkpt lat="48.41033" lon="2.67367">
        <ele>109.3</ele>
        <time>2018-04-15T16:42:15Z</time>
      </trkpt>
      <trkpt lat="48.41032" lon="2.67371">
        <ele>109.4</ele>
        <time>2018-04-15T16:42:16Z</time>
      </trkpt>
      <trkpt lat="48.41031" lon="2.67375">
        <ele>109.5</ele>
        <time>2018-04-15T16:42:17Z</time>
      </trkpt>
      <trkpt lat="48.41029" lon="2.67383">
        <ele>109.6</ele>
        <time>2018-04-15T16:42:19Z</time>
      </trkpt>
      <trkpt lat="48.41028" lon="2.67388">
        <ele>109.7</ele>
        <time>2018-04-15T16:42:20Z</time>
      </trkpt>
      <trkpt lat="48.41026" lon="2.67394">
        <ele>109.8</ele>
        <time>2018-04-15T16:42:21Z</time>
      </trkpt>
      <trkpt lat="48.41024" lon="2.674">
        <ele>109.9</ele>
        <time>2018-04-15T16:42:22Z</time>
      </trkpt>
      <trkpt lat="48.41022" lon="2.67407">
        <ele>109.9</ele>
        <time>2018-04-15T16:42:23Z</time>
      </trkpt>
      <trkpt lat="48.41021" lon="2.67413">
        <ele>109.8</ele>
        <time>2018-04-15T16:42:24Z</time>
      </trkpt>
      <trkpt lat="48.41018" lon="2.6742">
        <ele>109.8</ele>
        <time>2018-04-15T16:42:25Z</time>
      </trkpt>
      <trkpt lat="48.41015" lon="2.67426">
        <ele>109.6</ele>
        <time>2018-04-15T16:42:26Z</time>
      </trkpt>
      <trkpt lat="48.41013" lon="2.67433">
        <ele>109.5</ele>
        <time>2018-04-15T16:42:27Z</time>
      </trkpt>
      <trkpt lat="48.41011" lon="2.67439">
        <ele>109.4</ele>
        <time>2018-04-15T16:42:28Z</time>
      </trkpt>
      <trkpt lat="48.41009" lon="2.67445">
        <ele>109.4</ele>
        <time>2018-04-15T16:42:29Z</time>
      </trkpt>
      <trkpt lat="48.41007" lon="2.6745">
        <ele>109.4</ele>
        <time>2018-04-15T16:42:30Z</time>
      </trkpt>
      <trkpt lat="48.41004" lon="2.67455">
        <ele>109.5</ele>
        <time>2018-04-15T16:42:31Z</time>
      </trkpt>
      <trkpt lat="48.41003" lon="2.6746">
        <ele>109.5</ele>
        <time>2018-04-15T16:42:32Z</time>
      </trkpt>
      <trkpt lat="48.41001" lon="2.67465">
        <ele>109.6</ele>
        <time>2018-04-15T16:42:33Z</time>
      </trkpt>
      <trkpt lat="48.40999" lon="2.67471">
        <ele>109.8</ele>
        <time>2018-04-15T16:42:34Z</time>
      </trkpt>
      <trkpt lat="48.40998" lon="2.67475">
        <ele>109.9</ele>
        <time>2018-04-15T16:42:35Z</time>
      </trkpt>
      <trkpt lat="48.40997" lon="2.67479">
        <ele>110</ele>
        <time>2018-04-15T16:42:36Z</time>
      </trkpt>
      <trkpt lat="48.40998" lon="2.67485">
        <ele>109.7</ele>
        <time>2018-04-15T16:42:38Z</time>
      </trkpt>
      <trkpt lat="48.40999" lon="2.6749">
        <ele>109.5</ele>
        <time>2018-04-15T16:42:40Z</time>
      </trkpt>
      <trkpt lat="48.41" lon="2.67495">
        <ele>109.2</ele>
        <time>2018-04-15T16:42:42Z</time>
      </trkpt>
      <trkpt lat="48.41" lon="2.675">
        <ele>109</ele>
        <time>2018-04-15T16:42:44Z</time>
      </trkpt>
      <trkpt lat="48.40999" lon="2.67506">
        <ele>108.6</ele>
        <time>2018-04-15T16:42:46Z</time>
      </trkpt>
      <trkpt lat="48.40998" lon="2.67514">
        <ele>108.1</ele>
        <time>2018-04-15T16:42:48Z</time>
      </trkpt>
      <trkpt lat="48.40998" lon="2.67518">
        <ele>107.8</ele>
        <time>2018-04-15T16:42:49Z</time>
      </trkpt>
      <trkpt lat="48.40996" lon="2.67523">
        <ele>107.5</ele>
        <time>2018-04-15T16:42:50Z</time>
      </trkpt>
      <trkpt lat="48.40995" lon="2.67527">
        <ele>107.2</ele>
        <time>2018-04-15T16:42:51Z</time>
      </trkpt>
      <trkpt lat="48.40993" lon="2.67531">
        <ele>106.9</ele>
        <time>2018-04-15T16:42:52Z</time>
      </trkpt>
      <trkpt lat="48.40992" lon="2.67535">
        <ele>106.6</ele>
        <time>2018-04-15T16:42:53Z</time>
      </trkpt>
      <trkpt lat="48.4099" lon="2.6754">
        <ele>106.3</ele>
        <time>2018-04-15T16:42:54Z</time>
      </trkpt>
      <trkpt lat="48.40989" lon="2.67546">
        <ele>105.9</ele>
        <time>2018-04-15T16:42:55Z</time>
      </trkpt>
      <trkpt lat="48.40988" lon="2.67551">
        <ele>105.7</ele>
        <time>2018-04-15T16:42:56Z</time>
      </trkpt>
      <trkpt lat="48.40986" lon="2.67555">
        <ele>105.5</ele>
        <time>2018-04-15T16:42:57Z</time>
      </trkpt>
      <trkpt lat="48.40984" lon="2.67558">
        <ele>105.3</ele>
        <time>2018-04-15T16:42:58Z</time>
      </trkpt>
      <trkpt lat="48.40983" lon="2.67563">
        <ele>105</ele>
        <time>2018-04-15T16:42:59Z</time>
      </trkpt>
      <trkpt lat="48.40982" lon="2.67567">
        <ele>104.8</ele>
        <time>2018-04-15T16:43:00Z</time>
      </trkpt>
      <trkpt lat="48.40979" lon="2.67574">
        <ele>104.4</ele>
        <time>2018-04-15T16:43:02Z</time>
      </trkpt>
      <trkpt lat="48.40977" lon="2.67579">
        <ele>104.2</ele>
        <time>2018-04-15T16:43:03Z</time>
      </trkpt>
      <trkpt lat="48.40975" lon="2.67583">
        <ele>103.9</ele>
        <time>2018-04-15T16:43:04Z</time>
      </trkpt>
      <trkpt lat="48.40974" lon="2.67589">
        <ele>103.7</ele>
        <time>2018-04-15T16:43:05Z</time>
      </trkpt>
      <trkpt lat="48.40973" lon="2.67595">
        <ele>103.4</ele>
        <time>2018-04-15T16:43:07Z</time>
      </trkpt>
      <trkpt lat="48.40971" lon="2.67603">
        <ele>103.2</ele>
        <time>2018-04-15T16:43:09Z</time>
      </trkpt>
      <trkpt lat="48.40969" lon="2.67607">
        <ele>103</ele>
        <time>2018-04-15T16:43:10Z</time>
      </trkpt>
      <trkpt lat="48.40967" lon="2.6761">
        <ele>102.9</ele>
        <time>2018-04-15T16:43:11Z</time>
      </trkpt>
      <trkpt lat="48.40965" lon="2.67615">
        <ele>102.7</ele>
        <time>2018-04-15T16:43:12Z</time>
      </trkpt>
      <trkpt lat="48.40963" lon="2.67619">
        <ele>102.6</ele>
        <time>2018-04-15T16:43:13Z</time>
      </trkpt>
      <trkpt lat="48.40961" lon="2.67625">
        <ele>102.4</ele>
        <time>2018-04-15T16:43:14Z</time>
      </trkpt>
      <trkpt lat="48.40959" lon="2.6763">
        <ele>102.2</ele>
        <time>2018-04-15T16:43:15Z</time>
      </trkpt>
      <trkpt lat="48.40957" lon="2.67633">
        <ele>102.1</ele>
        <time>2018-04-15T16:43:16Z</time>
      </trkpt>
      <trkpt lat="48.40953" lon="2.67638">
        <ele>101.9</ele>
        <time>2018-04-15T16:43:18Z</time>
      </trkpt>
      <trkpt lat="48.4095" lon="2.67644">
        <ele>101.8</ele>
        <time>2018-04-15T16:43:20Z</time>
      </trkpt>
      <trkpt lat="48.40948" lon="2.67649">
        <ele>101.8</ele>
        <time>2018-04-15T16:43:22Z</time>
      </trkpt>
      <trkpt lat="48.40946" lon="2.67656">
        <ele>101.6</ele>
        <time>2018-04-15T16:43:24Z</time>
      </trkpt>
      <trkpt lat="48.40944" lon="2.6766">
        <ele>101.4</ele>
        <time>2018-04-15T16:43:25Z</time>
      </trkpt>
      <trkpt lat="48.40941" lon="2.67666">
        <ele>101.3</ele>
        <time>2018-04-15T16:43:27Z</time>
      </trkpt>
      <trkpt lat="48.40939" lon="2.6767">
        <ele>101.3</ele>
        <time>2018-04-15T16:43:28Z</time>
      </trkpt>
      <trkpt lat="48.40937" lon="2.67675">
        <ele>101.2</ele>
        <time>2018-04-15T16:43:29Z</time>
      </trkpt>
      <trkpt lat="48.40934" lon="2.67682">
        <ele>100.9</ele>
        <time>2018-04-15T16:43:30Z</time>
      </trkpt>
      <trkpt lat="48.40932" lon="2.67687">
        <ele>100.7</ele>
        <time>2018-04-15T16:43:31Z</time>
      </trkpt>
      <trkpt lat="48.40931" lon="2.67693">
        <ele>100.6</ele>
        <time>2018-04-15T16:43:32Z</time>
      </trkpt>
      <trkpt lat="48.4093" lon="2.67699">
        <ele>100.4</ele>
        <time>2018-04-15T16:43:33Z</time>
      </trkpt>
      <trkpt lat="48.40929" lon="2.67707">
        <ele>100.2</ele>
        <time>2018-04-15T16:43:34Z</time>
      </trkpt>
      <trkpt lat="48.40927" lon="2.67714">
        <ele>100</ele>
        <time>2018-04-15T16:43:35Z</time>
      </trkpt>
      <trkpt lat="48.40926" lon="2.6772">
        <ele>99.8</ele>
        <time>2018-04-15T16:43:36Z</time>
      </trkpt>
      <trkpt lat="48.40925" lon="2.67726">
        <ele>99.7</ele>
        <time>2018-04-15T16:43:37Z</time>
      </trkpt>
      <trkpt lat="48.40924" lon="2.67733">
        <ele>99.4</ele>
        <time>2018-04-15T16:43:38Z</time>
      </trkpt>
      <trkpt lat="48.40923" lon="2.6774">
        <ele>99.2</ele>
        <time>2018-04-15T16:43:39Z</time>
      </trkpt>
      <trkpt lat="48.40922" lon="2.67747">
        <ele>99.1</ele>
        <time>2018-04-15T16:43:40Z</time>
      </trkpt>
      <trkpt lat="48.40921" lon="2.67753">
        <ele>98.9</ele>
        <time>2018-04-15T16:43:41Z</time>
      </trkpt>
      <trkpt lat="48.4092" lon="2.67758">
        <ele>98.7</ele>
        <time>2018-04-15T16:43:42Z</time>
      </trkpt>
      <trkpt lat="48.4092" lon="2.67764">
        <ele>98.6</ele>
        <time>2018-04-15T16:43:43Z</time>
      </trkpt>
      <trkpt lat="48.40919" lon="2.6777">
        <ele>98.4</ele>
        <time>2018-04-15T16:43:44Z</time>
      </trkpt>
      <trkpt lat="48.40919" lon="2.67777">
        <ele>98.2</ele>
        <time>2018-04-15T16:43:45Z</time>
      </trkpt>
      <trkpt lat="48.40918" lon="2.67783">
        <ele>98</ele>
        <time>2018-04-15T16:43:46Z</time>
      </trkpt>
      <trkpt lat="48.40917" lon="2.6779">
        <ele>97.8</ele>
        <time>2018-04-15T16:43:47Z</time>
      </trkpt>
      <trkpt lat="48.40916" lon="2.67796">
        <ele>97.6</ele>
        <time>2018-04-15T16:43:48Z</time>
      </trkpt>
      <trkpt lat="48.40915" lon="2.67804">
        <ele>97.4</ele>
        <time>2018-04-15T16:43:49Z</time>
      </trkpt>
      <trkpt lat="48.40915" lon="2.6781">
        <ele>97.2</ele>
        <time>2018-04-15T16:43:50Z</time>
      </trkpt>
      <trkpt lat="48.40915" lon="2.67817">
        <ele>97</ele>
        <time>2018-04-15T16:43:51Z</time>
      </trkpt>
      <trkpt lat="48.40915" lon="2.67822">
        <ele>96.8</ele>
        <time>2018-04-15T16:43:52Z</time>
      </trkpt>
      <trkpt lat="48.40915" lon="2.67827">
        <ele>96.7</ele>
        <time>2018-04-15T16:43:53Z</time>
      </trkpt>
      <trkpt lat="48.40915" lon="2.67832">
        <ele>96.5</ele>
        <time>2018-04-15T16:43:54Z</time>
      </trkpt>
      <trkpt lat="48.40915" lon="2.67837">
        <ele>96.4</ele>
        <time>2018-04-15T16:43:55Z</time>
      </trkpt>
      <trkpt lat="48.40915" lon="2.67842">
        <ele>96.2</ele>
        <time>2018-04-15T16:43:56Z</time>
      </trkpt>
      <trkpt lat="48.40915" lon="2.67847">
        <ele>96.1</ele>
        <time>2018-04-15T16:43:57Z</time>
      </trkpt>
      <trkpt lat="48.40914" lon="2.67852">
        <ele>95.9</ele>
        <time>2018-04-15T16:43:58Z</time>
      </trkpt>
      <trkpt lat="48.40913" lon="2.67857">
        <ele>95.8</ele>
        <time>2018-04-15T16:43:59Z</time>
      </trkpt>
      <trkpt lat="48.40913" lon="2.67862">
        <ele>95.6</ele>
        <time>2018-04-15T16:44:00Z</time>
      </trkpt>
      <trkpt lat="48.40912" lon="2.67867">
        <ele>95.5</ele>
        <time>2018-04-15T16:44:01Z</time>
      </trkpt>
      <trkpt lat="48.40912" lon="2.67873">
        <ele>95.3</ele>
        <time>2018-04-15T16:44:02Z</time>
      </trkpt>
      <trkpt lat="48.40912" lon="2.67878">
        <ele>95.2</ele>
        <time>2018-04-15T16:44:03Z</time>
      </trkpt>
      <trkpt lat="48.40911" lon="2.67882">
        <ele>95.1</ele>
        <time>2018-04-15T16:44:04Z</time>
      </trkpt>
      <trkpt lat="48.4091" lon="2.67889">
        <ele>94.9</ele>
        <time>2018-04-15T16:44:06Z</time>
      </trkpt>
      <trkpt lat="48.40909" lon="2.67896">
        <ele>94.7</ele>
        <time>2018-04-15T16:44:08Z</time>
      </trkpt>
      <trkpt lat="48.40908" lon="2.67903">
        <ele>94.6</ele>
        <time>2018-04-15T16:44:10Z</time>
      </trkpt>
      <trkpt lat="48.40907" lon="2.67907">
        <ele>94.5</ele>
        <time>2018-04-15T16:44:11Z</time>
      </trkpt>
      <trkpt lat="48.40907" lon="2.67911">
        <ele>94.4</ele>
        <time>2018-04-15T16:44:12Z</time>
      </trkpt>
      <trkpt lat="48.40906" lon="2.67918">
        <ele>94.2</ele>
        <time>2018-04-15T16:44:14Z</time>
      </trkpt>
      <trkpt lat="48.40905" lon="2.67924">
        <ele>94.1</ele>
        <time>2018-04-15T16:44:16Z</time>
      </trkpt>
      <trkpt lat="48.40903" lon="2.67928">
        <ele>94</ele>
        <time>2018-04-15T16:44:18Z</time>
      </trkpt>
      <trkpt lat="48.409" lon="2.6793">
        <ele>94</ele>
        <time>2018-04-15T16:44:20Z</time>
      </trkpt>
      <trkpt lat="48.40895" lon="2.67931">
        <ele>94.1</ele>
        <time>2018-04-15T16:44:22Z</time>
      </trkpt>
      <trkpt lat="48.4089" lon="2.67931">
        <ele>94.1</ele>
        <time>2018-04-15T16:44:24Z</time>
      </trkpt>
      <trkpt lat="48.40887" lon="2.6793">
        <ele>94.2</ele>
        <time>2018-04-15T16:44:25Z</time>
      </trkpt>
      <trkpt lat="48.40883" lon="2.67929">
        <ele>94.2</ele>
        <time>2018-04-15T16:44:26Z</time>
      </trkpt>
      <trkpt lat="48.40879" lon="2.67928">
        <ele>94.3</ele>
        <time>2018-04-15T16:44:27Z</time>
      </trkpt>
      <trkpt lat="48.40875" lon="2.67927">
        <ele>94.3</ele>
        <time>2018-04-15T16:44:28Z</time>
      </trkpt>
      <trkpt lat="48.40872" lon="2.67926">
        <ele>94.4</ele>
        <time>2018-04-15T16:44:29Z</time>
      </trkpt>
      <trkpt lat="48.40868" lon="2.67926">
        <ele>94.4</ele>
        <time>2018-04-15T16:44:30Z</time>
      </trkpt>
      <trkpt lat="48.40865" lon="2.67925">
        <ele>94.5</ele>
        <time>2018-04-15T16:44:31Z</time>
      </trkpt>
      <trkpt lat="48.40861" lon="2.67925">
        <ele>94.5</ele>
        <time>2018-04-15T16:44:32Z</time>
      </trkpt>
      <trkpt lat="48.40858" lon="2.67924">
        <ele>94.6</ele>
        <time>2018-04-15T16:44:33Z</time>
      </trkpt>
      <trkpt lat="48.40855" lon="2.67923">
        <ele>94.6</ele>
        <time>2018-04-15T16:44:34Z</time>
      </trkpt>
      <trkpt lat="48.40852" lon="2.67922">
        <ele>94.7</ele>
        <time>2018-04-15T16:44:35Z</time>
      </trkpt>
      <trkpt lat="48.40849" lon="2.67921">
        <ele>94.7</ele>
        <time>2018-04-15T16:44:36Z</time>
      </trkpt>
      <trkpt lat="48.40846" lon="2.6792">
        <ele>94.8</ele>
        <time>2018-04-15T16:44:37Z</time>
      </trkpt>
      <trkpt lat="48.40842" lon="2.6792">
        <ele>94.9</ele>
        <time>2018-04-15T16:44:38Z</time>
      </trkpt>
      <trkpt lat="48.4084" lon="2.67922">
        <ele>94.9</ele>
        <time>2018-04-15T16:44:39Z</time>
      </trkpt>
      <trkpt lat="48.40836" lon="2.67926">
        <ele>94.6</ele>
        <time>2018-04-15T16:44:41Z</time>
      </trkpt>
      <trkpt lat="48.40834" lon="2.67929">
        <ele>94.5</ele>
        <time>2018-04-15T16:44:42Z</time>
      </trkpt>
      <trkpt lat="48.40832" lon="2.67933">
        <ele>94.3</ele>
        <time>2018-04-15T16:44:43Z</time>
      </trkpt>
      <trkpt lat="48.40831" lon="2.67937">
        <ele>94.1</ele>
        <time>2018-04-15T16:44:44Z</time>
      </trkpt>
      <trkpt lat="48.4083" lon="2.67941">
        <ele>94</ele>
        <time>2018-04-15T16:44:45Z</time>
      </trkpt>
      <trkpt lat="48.40829" lon="2.67946">
        <ele>93.7</ele>
        <time>2018-04-15T16:44:46Z</time>
      </trkpt>
      <trkpt lat="48.40827" lon="2.67952">
        <ele>93.5</ele>
        <time>2018-04-15T16:44:47Z</time>
      </trkpt>
      <trkpt lat="48.40825" lon="2.67957">
        <ele>93.2</ele>
        <time>2018-04-15T16:44:48Z</time>
      </trkpt>
      <trkpt lat="48.40823" lon="2.67963">
        <ele>92.7</ele>
        <time>2018-04-15T16:44:49Z</time>
      </trkpt>
      <trkpt lat="48.4082" lon="2.67968">
        <ele>92.4</ele>
        <time>2018-04-15T16:44:50Z</time>
      </trkpt>
      <trkpt lat="48.40818" lon="2.67974">
        <ele>92.1</ele>
        <time>2018-04-15T16:44:51Z</time>
      </trkpt>
      <trkpt lat="48.40816" lon="2.67979">
        <ele>91.8</ele>
        <time>2018-04-15T16:44:52Z</time>
      </trkpt>
      <trkpt lat="48.40813" lon="2.67985">
        <ele>91.5</ele>
        <time>2018-04-15T16:44:53Z</time>
      </trkpt>
      <trkpt lat="48.40811" lon="2.6799">
        <ele>91.2</ele>
        <time>2018-04-15T16:44:54Z</time>
      </trkpt>
      <trkpt lat="48.4081" lon="2.67996">
        <ele>91</ele>
        <time>2018-04-15T16:44:55Z</time>
      </trkpt>
      <trkpt lat="48.40808" lon="2.68001">
        <ele>90.9</ele>
        <time>2018-04-15T16:44:56Z</time>
      </trkpt>
      <trkpt lat="48.40806" lon="2.68008">
        <ele>90.8</ele>
        <time>2018-04-15T16:44:57Z</time>
      </trkpt>
      <trkpt lat="48.40805" lon="2.68013">
        <ele>90.7</ele>
        <time>2018-04-15T16:44:58Z</time>
      </trkpt>
      <trkpt lat="48.40803" lon="2.68019">
        <ele>90.6</ele>
        <time>2018-04-15T16:44:59Z</time>
      </trkpt>
      <trkpt lat="48.40801" lon="2.68026">
        <ele>90.5</ele>
        <time>2018-04-15T16:45:00Z</time>
      </trkpt>
      <trkpt lat="48.40798" lon="2.68033">
        <ele>90.3</ele>
        <time>2018-04-15T16:45:01Z</time>
      </trkpt>
      <trkpt lat="48.40794" lon="2.68041">
        <ele>90.2</ele>
        <time>2018-04-15T16:45:02Z</time>
      </trkpt>
      <trkpt lat="48.40791" lon="2.68049">
        <ele>90</ele>
        <time>2018-04-15T16:45:03Z</time>
      </trkpt>
      <trkpt lat="48.40789" lon="2.68057">
        <ele>89.9</ele>
        <time>2018-04-15T16:45:04Z</time>
      </trkpt>
      <trkpt lat="48.40786" lon="2.68065">
        <ele>89.8</ele>
        <time>2018-04-15T16:45:05Z</time>
      </trkpt>
      <trkpt lat="48.40782" lon="2.68073">
        <ele>89.6</ele>
        <time>2018-04-15T16:45:06Z</time>
      </trkpt>
      <trkpt lat="48.40778" lon="2.6808">
        <ele>89.4</ele>
        <time>2018-04-15T16:45:07Z</time>
      </trkpt>
      <trkpt lat="48.40775" lon="2.68088">
        <ele>89.3</ele>
        <time>2018-04-15T16:45:08Z</time>
      </trkpt>
      <trkpt lat="48.40772" lon="2.68095">
        <ele>89.1</ele>
        <time>2018-04-15T16:45:09Z</time>
      </trkpt>
      <trkpt lat="48.40769" lon="2.68103">
        <ele>88.8</ele>
        <time>2018-04-15T16:45:10Z</time>
      </trkpt>
      <trkpt lat="48.40766" lon="2.68111">
        <ele>88.5</ele>
        <time>2018-04-15T16:45:11Z</time>
      </trkpt>
      <trkpt lat="48.40763" lon="2.68117">
        <ele>88.3</ele>
        <time>2018-04-15T16:45:12Z</time>
      </trkpt>
      <trkpt lat="48.40761" lon="2.68124">
        <ele>88.2</ele>
        <time>2018-04-15T16:45:13Z</time>
      </trkpt>
      <trkpt lat="48.40758" lon="2.68131">
        <ele>88</ele>
        <time>2018-04-15T16:45:14Z</time>
      </trkpt>
      <trkpt lat="48.40755" lon="2.68138">
        <ele>87.8</ele>
        <time>2018-04-15T16:45:15Z</time>
      </trkpt>
      <trkpt lat="48.40753" lon="2.68145">
        <ele>87.4</ele>
        <time>2018-04-15T16:45:16Z</time>
      </trkpt>
      <trkpt lat="48.4075" lon="2.68152">
        <ele>87.3</ele>
        <time>2018-04-15T16:45:17Z</time>
      </trkpt>
      <trkpt lat="48.40748" lon="2.68158">
        <ele>87.2</ele>
        <time>2018-04-15T16:45:18Z</time>
      </trkpt>
      <trkpt lat="48.40745" lon="2.68165">
        <ele>87.1</ele>
        <time>2018-04-15T16:45:19Z</time>
      </trkpt>
      <trkpt lat="48.40742" lon="2.68171">
        <ele>87</ele>
        <time>2018-04-15T16:45:20Z</time>
      </trkpt>
      <trkpt lat="48.40739" lon="2.68176">
        <ele>86.9</ele>
        <time>2018-04-15T16:45:21Z</time>
      </trkpt>
      <trkpt lat="48.40736" lon="2.68182">
        <ele>86.8</ele>
        <time>2018-04-15T16:45:22Z</time>
      </trkpt>
      <trkpt lat="48.40735" lon="2.68189">
        <ele>86.7</ele>
        <time>2018-04-15T16:45:23Z</time>
      </trkpt>
      <trkpt lat="48.40734" lon="2.68195">
        <ele>86.6</ele>
        <time>2018-04-15T16:45:24Z</time>
      </trkpt>
      <trkpt lat="48.40732" lon="2.682">
        <ele>86.5</ele>
        <time>2018-04-15T16:45:25Z</time>
      </trkpt>
      <trkpt lat="48.4073" lon="2.68206">
        <ele>86.5</ele>
        <time>2018-04-15T16:45:26Z</time>
      </trkpt>
      <trkpt lat="48.40728" lon="2.68212">
        <ele>86.4</ele>
        <time>2018-04-15T16:45:27Z</time>
      </trkpt>
      <trkpt lat="48.40726" lon="2.68217">
        <ele>86.3</ele>
        <time>2018-04-15T16:45:28Z</time>
      </trkpt>
      <trkpt lat="48.40724" lon="2.68222">
        <ele>86.2</ele>
        <time>2018-04-15T16:45:29Z</time>
      </trkpt>
      <trkpt lat="48.40723" lon="2.68226">
        <ele>86.1</ele>
        <time>2018-04-15T16:45:30Z</time>
      </trkpt>
      <trkpt lat="48.4072" lon="2.68233">
        <ele>86</ele>
        <time>2018-04-15T16:45:32Z</time>
      </trkpt>
      <trkpt lat="48.40718" lon="2.68238">
        <ele>86</ele>
        <time>2018-04-15T16:45:34Z</time>
      </trkpt>
      <trkpt lat="48.40716" lon="2.68242">
        <ele>86</ele>
        <time>2018-04-15T16:45:35Z</time>
      </trkpt>
      <trkpt lat="48.40716" lon="2.68246">
        <ele>86.1</ele>
        <time>2018-04-15T16:45:36Z</time>
      </trkpt>
      <trkpt lat="48.40716" lon="2.6825">
        <ele>86.4</ele>
        <time>2018-04-15T16:45:38Z</time>
      </trkpt>
      <trkpt lat="48.40715" lon="2.68257">
        <ele>86.6</ele>
        <time>2018-04-15T16:45:41Z</time>
      </trkpt>
      <trkpt lat="48.40713" lon="2.68263">
        <ele>86.3</ele>
        <time>2018-04-15T16:45:43Z</time>
      </trkpt>
      <trkpt lat="48.40711" lon="2.68272">
        <ele>86.1</ele>
        <time>2018-04-15T16:45:45Z</time>
      </trkpt>
      <trkpt lat="48.40709" lon="2.68278">
        <ele>86</ele>
        <time>2018-04-15T16:45:46Z</time>
      </trkpt>
      <trkpt lat="48.40707" lon="2.68284">
        <ele>85.9</ele>
        <time>2018-04-15T16:45:47Z</time>
      </trkpt>
      <trkpt lat="48.40705" lon="2.6829">
        <ele>85.7</ele>
        <time>2018-04-15T16:45:48Z</time>
      </trkpt>
      <trkpt lat="48.40703" lon="2.68296">
        <ele>85.4</ele>
        <time>2018-04-15T16:45:49Z</time>
      </trkpt>
      <trkpt lat="48.40701" lon="2.68302">
        <ele>85.2</ele>
        <time>2018-04-15T16:45:50Z</time>
      </trkpt>
      <trkpt lat="48.40699" lon="2.68308">
        <ele>85.2</ele>
        <time>2018-04-15T16:45:51Z</time>
      </trkpt>
      <trkpt lat="48.40696" lon="2.68314">
        <ele>85.1</ele>
        <time>2018-04-15T16:45:52Z</time>
      </trkpt>
      <trkpt lat="48.40694" lon="2.68319">
        <ele>85.1</ele>
        <time>2018-04-15T16:45:53Z</time>
      </trkpt>
      <trkpt lat="48.40691" lon="2.68325">
        <ele>85.1</ele>
        <time>2018-04-15T16:45:54Z</time>
      </trkpt>
      <trkpt lat="48.40688" lon="2.68332">
        <ele>85.1</ele>
        <time>2018-04-15T16:45:55Z</time>
      </trkpt>
      <trkpt lat="48.40685" lon="2.68338">
        <ele>85.1</ele>
        <time>2018-04-15T16:45:56Z</time>
      </trkpt>
      <trkpt lat="48.40683" lon="2.68345">
        <ele>85.1</ele>
        <time>2018-04-15T16:45:57Z</time>
      </trkpt>
      <trkpt lat="48.4068" lon="2.68353">
        <ele>85.1</ele>
        <time>2018-04-15T16:45:58Z</time>
      </trkpt>
      <trkpt lat="48.40677" lon="2.68361">
        <ele>85.1</ele>
        <time>2018-04-15T16:45:59Z</time>
      </trkpt>
      <trkpt lat="48.40675" lon="2.68368">
        <ele>85.1</ele>
        <time>2018-04-15T16:46:00Z</time>
      </trkpt>
      <trkpt lat="48.40672" lon="2.68375">
        <ele>85.1</ele>
        <time>2018-04-15T16:46:01Z</time>
      </trkpt>
      <trkpt lat="48.40669" lon="2.68382">
        <ele>85.1</ele>
        <time>2018-04-15T16:46:02Z</time>
      </trkpt>
      <trkpt lat="48.40666" lon="2.68389">
        <ele>85.1</ele>
        <time>2018-04-15T16:46:03Z</time>
      </trkpt>
      <trkpt lat="48.40664" lon="2.68395">
        <ele>85.1</ele>
        <time>2018-04-15T16:46:04Z</time>
      </trkpt>
      <trkpt lat="48.40661" lon="2.68402">
        <ele>85.1</ele>
        <time>2018-04-15T16:46:05Z</time>
      </trkpt>
      <trkpt lat="48.40659" lon="2.68408">
        <ele>85.1</ele>
        <time>2018-04-15T16:46:06Z</time>
      </trkpt>
      <trkpt lat="48.40656" lon="2.68416">
        <ele>85.1</ele>
        <time>2018-04-15T16:46:07Z</time>
      </trkpt>
      <trkpt lat="48.40653" lon="2.68422">
        <ele>85</ele>
        <time>2018-04-15T16:46:08Z</time>
      </trkpt>
      <trkpt lat="48.40651" lon="2.68429">
        <ele>85</ele>
        <time>2018-04-15T16:46:09Z</time>
      </trkpt>
      <trkpt lat="48.40648" lon="2.68436">
        <ele>85</ele>
        <time>2018-04-15T16:46:10Z</time>
      </trkpt>
      <trkpt lat="48.40645" lon="2.68443">
        <ele>85</ele>
        <time>2018-04-15T16:46:11Z</time>
      </trkpt>
      <trkpt lat="48.40643" lon="2.68451">
        <ele>85</ele>
        <time>2018-04-15T16:46:12Z</time>
      </trkpt>
      <trkpt lat="48.40641" lon="2.68459">
        <ele>85</ele>
        <time>2018-04-15T16:46:13Z</time>
      </trkpt>
      <trkpt lat="48.40639" lon="2.68465">
        <ele>85</ele>
        <time>2018-04-15T16:46:14Z</time>
      </trkpt>
      <trkpt lat="48.40637" lon="2.68471">
        <ele>85</ele>
        <time>2018-04-15T16:46:15Z</time>
      </trkpt>
      <trkpt lat="48.40635" lon="2.68478">
        <ele>85</ele>
        <time>2018-04-15T16:46:16Z</time>
      </trkpt>
      <trkpt lat="48.40634" lon="2.68484">
        <ele>85</ele>
        <time>2018-04-15T16:46:17Z</time>
      </trkpt>
      <trkpt lat="48.40632" lon="2.68491">
        <ele>85</ele>
        <time>2018-04-15T16:46:18Z</time>
      </trkpt>
      <trkpt lat="48.40629" lon="2.68499">
        <ele>85</ele>
        <time>2018-04-15T16:46:19Z</time>
      </trkpt>
      <trkpt lat="48.40627" lon="2.68507">
        <ele>85.1</ele>
        <time>2018-04-15T16:46:20Z</time>
      </trkpt>
      <trkpt lat="48.40624" lon="2.68515">
        <ele>85.3</ele>
        <time>2018-04-15T16:46:21Z</time>
      </trkpt>
      <trkpt lat="48.4062" lon="2.68523">
        <ele>85.5</ele>
        <time>2018-04-15T16:46:22Z</time>
      </trkpt>
      <trkpt lat="48.40616" lon="2.68532">
        <ele>85.7</ele>
        <time>2018-04-15T16:46:23Z</time>
      </trkpt>
      <trkpt lat="48.40613" lon="2.6854">
        <ele>85.9</ele>
        <time>2018-04-15T16:46:24Z</time>
      </trkpt>
      <trkpt lat="48.4061" lon="2.68549">
        <ele>86</ele>
        <time>2018-04-15T16:46:25Z</time>
      </trkpt>
      <trkpt lat="48.40607" lon="2.68557">
        <ele>86</ele>
        <time>2018-04-15T16:46:26Z</time>
      </trkpt>
      <trkpt lat="48.40604" lon="2.68566">
        <ele>86</ele>
        <time>2018-04-15T16:46:27Z</time>
      </trkpt>
      <trkpt lat="48.406" lon="2.68574">
        <ele>86</ele>
        <time>2018-04-15T16:46:28Z</time>
      </trkpt>
      <trkpt lat="48.40597" lon="2.68583">
        <ele>86</ele>
        <time>2018-04-15T16:46:29Z</time>
      </trkpt>
      <trkpt lat="48.40594" lon="2.68591">
        <ele>86</ele>
        <time>2018-04-15T16:46:30Z</time>
      </trkpt>
      <trkpt lat="48.40591" lon="2.68599">
        <ele>85.9</ele>
        <time>2018-04-15T16:46:31Z</time>
      </trkpt>
      <trkpt lat="48.40588" lon="2.68607">
        <ele>85.8</ele>
        <time>2018-04-15T16:46:32Z</time>
      </trkpt>
      <trkpt lat="48.40585" lon="2.68614">
        <ele>85.7</ele>
        <time>2018-04-15T16:46:33Z</time>
      </trkpt>
      <trkpt lat="48.40583" lon="2.68621">
        <ele>85.6</ele>
        <time>2018-04-15T16:46:34Z</time>
      </trkpt>
      <trkpt lat="48.40581" lon="2.68627">
        <ele>85.5</ele>
        <time>2018-04-15T16:46:35Z</time>
      </trkpt>
      <trkpt lat="48.40579" lon="2.68632">
        <ele>85.4</ele>
        <time>2018-04-15T16:46:36Z</time>
      </trkpt>
      <trkpt lat="48.40577" lon="2.68636">
        <ele>85.3</ele>
        <time>2018-04-15T16:46:37Z</time>
      </trkpt>
      <trkpt lat="48.40576" lon="2.6864">
        <ele>85.3</ele>
        <time>2018-04-15T16:46:38Z</time>
      </trkpt>
      <trkpt lat="48.40574" lon="2.68645">
        <ele>85.2</ele>
        <time>2018-04-15T16:46:39Z</time>
      </trkpt>
      <trkpt lat="48.40573" lon="2.68649">
        <ele>85.1</ele>
        <time>2018-04-15T16:46:40Z</time>
      </trkpt>
      <trkpt lat="48.40571" lon="2.68652">
        <ele>85.1</ele>
        <time>2018-04-15T16:46:41Z</time>
      </trkpt>
      <trkpt lat="48.40568" lon="2.68657">
        <ele>85</ele>
        <time>2018-04-15T16:46:43Z</time>
      </trkpt>
      <trkpt lat="48.40566" lon="2.68664">
        <ele>84.9</ele>
        <time>2018-04-15T16:46:45Z</time>
      </trkpt>
      <trkpt lat="48.40564" lon="2.6867">
        <ele>84.7</ele>
        <time>2018-04-15T16:46:47Z</time>
      </trkpt>
      <trkpt lat="48.40562" lon="2.68674">
        <ele>84.6</ele>
        <time>2018-04-15T16:46:50Z</time>
      </trkpt>
      <trkpt lat="48.4056" lon="2.68678">
        <ele>84.6</ele>
        <time>2018-04-15T16:47:16Z</time>
      </trkpt>
      <trkpt lat="48.40561" lon="2.68684">
        <ele>84.4</ele>
        <time>2018-04-15T16:47:19Z</time>
      </trkpt>
      <trkpt lat="48.40561" lon="2.6869">
        <ele>84.3</ele>
        <time>2018-04-15T16:47:21Z</time>
      </trkpt>
      <trkpt lat="48.4056" lon="2.68695">
        <ele>84.1</ele>
        <time>2018-04-15T16:47:22Z</time>
      </trkpt>
      <trkpt lat="48.4056" lon="2.68701">
        <ele>84</ele>
        <time>2018-04-15T16:47:23Z</time>
      </trkpt>
      <trkpt lat="48.40559" lon="2.68705">
        <ele>84</ele>
        <time>2018-04-15T16:47:24Z</time>
      </trkpt>
      <trkpt lat="48.40558" lon="2.68711">
        <ele>84</ele>
        <time>2018-04-15T16:47:26Z</time>
      </trkpt>
      <trkpt lat="48.40555" lon="2.68718">
        <ele>84</ele>
        <time>2018-04-15T16:47:28Z</time>
      </trkpt>
      <trkpt lat="48.40555" lon="2.68722">
        <ele>84</ele>
        <time>2018-04-15T16:47:29Z</time>
      </trkpt>
      <trkpt lat="48.40556" lon="2.6873">
        <ele>84</ele>
        <time>2018-04-15T16:47:31Z</time>
      </trkpt>
      <trkpt lat="48.40552" lon="2.68736">
        <ele>84</ele>
        <time>2018-04-15T16:47:33Z</time>
      </trkpt>
      <trkpt lat="48.40549" lon="2.68738">
        <ele>84</ele>
        <time>2018-04-15T16:47:34Z</time>
      </trkpt>
      <trkpt lat="48.40545" lon="2.6874">
        <ele>84</ele>
        <time>2018-04-15T16:47:35Z</time>
      </trkpt>
      <trkpt lat="48.40541" lon="2.68744">
        <ele>84</ele>
        <time>2018-04-15T16:47:36Z</time>
      </trkpt>
      <trkpt lat="48.40539" lon="2.68747">
        <ele>84</ele>
        <time>2018-04-15T16:47:37Z</time>
      </trkpt>
      <trkpt lat="48.40536" lon="2.68752">
        <ele>84</ele>
        <time>2018-04-15T16:47:38Z</time>
      </trkpt>
      <trkpt lat="48.40534" lon="2.68758">
        <ele>84</ele>
        <time>2018-04-15T16:47:39Z</time>
      </trkpt>
      <trkpt lat="48.40531" lon="2.68764">
        <ele>83.9</ele>
        <time>2018-04-15T16:47:40Z</time>
      </trkpt>
      <trkpt lat="48.40529" lon="2.6877">
        <ele>83.9</ele>
        <time>2018-04-15T16:47:41Z</time>
      </trkpt>
      <trkpt lat="48.40527" lon="2.68776">
        <ele>83.9</ele>
        <time>2018-04-15T16:47:42Z</time>
      </trkpt>
      <trkpt lat="48.40525" lon="2.68783">
        <ele>83.9</ele>
        <time>2018-04-15T16:47:43Z</time>
      </trkpt>
      <trkpt lat="48.40523" lon="2.68789">
        <ele>83.9</ele>
        <time>2018-04-15T16:47:44Z</time>
      </trkpt>
      <trkpt lat="48.40521" lon="2.68795">
        <ele>83.8</ele>
        <time>2018-04-15T16:47:45Z</time>
      </trkpt>
      <trkpt lat="48.40519" lon="2.68802">
        <ele>83.8</ele>
        <time>2018-04-15T16:47:46Z</time>
      </trkpt>
      <trkpt lat="48.40516" lon="2.68808">
        <ele>83.8</ele>
        <time>2018-04-15T16:47:47Z</time>
      </trkpt>
      <trkpt lat="48.40514" lon="2.68815">
        <ele>83.8</ele>
        <time>2018-04-15T16:47:48Z</time>
      </trkpt>
      <trkpt lat="48.40512" lon="2.68821">
        <ele>83.8</ele>
        <time>2018-04-15T16:47:49Z</time>
      </trkpt>
      <trkpt lat="48.40509" lon="2.68828">
        <ele>83.7</ele>
        <time>2018-04-15T16:47:50Z</time>
      </trkpt>
      <trkpt lat="48.40506" lon="2.68835">
        <ele>83.8</ele>
        <time>2018-04-15T16:47:51Z</time>
      </trkpt>
      <trkpt lat="48.40503" lon="2.68841">
        <ele>83.7</ele>
        <time>2018-04-15T16:47:52Z</time>
      </trkpt>
      <trkpt lat="48.405" lon="2.68848">
        <ele>83.7</ele>
        <time>2018-04-15T16:47:53Z</time>
      </trkpt>
      <trkpt lat="48.40498" lon="2.68855">
        <ele>83.6</ele>
        <time>2018-04-15T16:47:54Z</time>
      </trkpt>
      <trkpt lat="48.40495" lon="2.68862">
        <ele>83.6</ele>
        <time>2018-04-15T16:47:55Z</time>
      </trkpt>
      <trkpt lat="48.40493" lon="2.68869">
        <ele>83.6</ele>
        <time>2018-04-15T16:47:56Z</time>
      </trkpt>
      <trkpt lat="48.4049" lon="2.68876">
        <ele>83.6</ele>
        <time>2018-04-15T16:47:57Z</time>
      </trkpt>
      <trkpt lat="48.40488" lon="2.68883">
        <ele>83.5</ele>
        <time>2018-04-15T16:47:58Z</time>
      </trkpt>
      <trkpt lat="48.40485" lon="2.6889">
        <ele>83.5</ele>
        <time>2018-04-15T16:47:59Z</time>
      </trkpt>
      <trkpt lat="48.40483" lon="2.68897">
        <ele>83.4</ele>
        <time>2018-04-15T16:48:00Z</time>
      </trkpt>
      <trkpt lat="48.4048" lon="2.68904">
        <ele>83.3</ele>
        <time>2018-04-15T16:48:01Z</time>
      </trkpt>
      <trkpt lat="48.40478" lon="2.68912">
        <ele>83.2</ele>
        <time>2018-04-15T16:48:02Z</time>
      </trkpt>
      <trkpt lat="48.40475" lon="2.6892">
        <ele>83</ele>
        <time>2018-04-15T16:48:03Z</time>
      </trkpt>
      <trkpt lat="48.40472" lon="2.68929">
        <ele>83</ele>
        <time>2018-04-15T16:48:04Z</time>
      </trkpt>
      <trkpt lat="48.40469" lon="2.68936">
        <ele>83</ele>
        <time>2018-04-15T16:48:05Z</time>
      </trkpt>
      <trkpt lat="48.40467" lon="2.68944">
        <ele>83</ele>
        <time>2018-04-15T16:48:06Z</time>
      </trkpt>
      <trkpt lat="48.40464" lon="2.68951">
        <ele>83</ele>
        <time>2018-04-15T16:48:07Z</time>
      </trkpt>
      <trkpt lat="48.40461" lon="2.68958">
        <ele>82.9</ele>
        <time>2018-04-15T16:48:08Z</time>
      </trkpt>
      <trkpt lat="48.40459" lon="2.68966">
        <ele>82.9</ele>
        <time>2018-04-15T16:48:09Z</time>
      </trkpt>
      <trkpt lat="48.40457" lon="2.68973">
        <ele>82.8</ele>
        <time>2018-04-15T16:48:10Z</time>
      </trkpt>
      <trkpt lat="48.40455" lon="2.6898">
        <ele>82.6</ele>
        <time>2018-04-15T16:48:11Z</time>
      </trkpt>
      <trkpt lat="48.40452" lon="2.68987">
        <ele>82.4</ele>
        <time>2018-04-15T16:48:12Z</time>
      </trkpt>
      <trkpt lat="48.4045" lon="2.68995">
        <ele>82.3</ele>
        <time>2018-04-15T16:48:13Z</time>
      </trkpt>
      <trkpt lat="48.40448" lon="2.69002">
        <ele>82.2</ele>
        <time>2018-04-15T16:48:14Z</time>
      </trkpt>
      <trkpt lat="48.40446" lon="2.69009">
        <ele>82.2</ele>
        <time>2018-04-15T16:48:15Z</time>
      </trkpt>
      <trkpt lat="48.40443" lon="2.69016">
        <ele>82.2</ele>
        <time>2018-04-15T16:48:16Z</time>
      </trkpt>
      <trkpt lat="48.40442" lon="2.69022">
        <ele>82.1</ele>
        <time>2018-04-15T16:48:17Z</time>
      </trkpt>
      <trkpt lat="48.40439" lon="2.69029">
        <ele>82.1</ele>
        <time>2018-04-15T16:48:18Z</time>
      </trkpt>
      <trkpt lat="48.40437" lon="2.69036">
        <ele>82.1</ele>
        <time>2018-04-15T16:48:19Z</time>
      </trkpt>
      <trkpt lat="48.40435" lon="2.69042">
        <ele>82</ele>
        <time>2018-04-15T16:48:20Z</time>
      </trkpt>
      <trkpt lat="48.40434" lon="2.69049">
        <ele>82</ele>
        <time>2018-04-15T16:48:21Z</time>
      </trkpt>
      <trkpt lat="48.40432" lon="2.69056">
        <ele>82</ele>
        <time>2018-04-15T16:48:22Z</time>
      </trkpt>
      <trkpt lat="48.40431" lon="2.69063">
        <ele>82</ele>
        <time>2018-04-15T16:48:23Z</time>
      </trkpt>
      <trkpt lat="48.40429" lon="2.69069">
        <ele>82</ele>
        <time>2018-04-15T16:48:24Z</time>
      </trkpt>
      <trkpt lat="48.40427" lon="2.69076">
        <ele>81.7</ele>
        <time>2018-04-15T16:48:25Z</time>
      </trkpt>
      <trkpt lat="48.40425" lon="2.69083">
        <ele>81.5</ele>
        <time>2018-04-15T16:48:26Z</time>
      </trkpt>
      <trkpt lat="48.40423" lon="2.69089">
        <ele>81.3</ele>
        <time>2018-04-15T16:48:27Z</time>
      </trkpt>
      <trkpt lat="48.40421" lon="2.69096">
        <ele>81.1</ele>
        <time>2018-04-15T16:48:28Z</time>
      </trkpt>
      <trkpt lat="48.40419" lon="2.69101">
        <ele>81</ele>
        <time>2018-04-15T16:48:29Z</time>
      </trkpt>
      <trkpt lat="48.40417" lon="2.69108">
        <ele>81</ele>
        <time>2018-04-15T16:48:30Z</time>
      </trkpt>
      <trkpt lat="48.40415" lon="2.69114">
        <ele>81</ele>
        <time>2018-04-15T16:48:31Z</time>
      </trkpt>
      <trkpt lat="48.40413" lon="2.69121">
        <ele>81</ele>
        <time>2018-04-15T16:48:32Z</time>
      </trkpt>
      <trkpt lat="48.4041" lon="2.69128">
        <ele>81</ele>
        <time>2018-04-15T16:48:33Z</time>
      </trkpt>
      <trkpt lat="48.40408" lon="2.69135">
        <ele>81</ele>
        <time>2018-04-15T16:48:34Z</time>
      </trkpt>
      <trkpt lat="48.40406" lon="2.69142">
        <ele>80.9</ele>
        <time>2018-04-15T16:48:35Z</time>
      </trkpt>
      <trkpt lat="48.40403" lon="2.69149">
        <ele>80.9</ele>
        <time>2018-04-15T16:48:36Z</time>
      </trkpt>
      <trkpt lat="48.40402" lon="2.69156">
        <ele>80.8</ele>
        <time>2018-04-15T16:48:37Z</time>
      </trkpt>
      <trkpt lat="48.40399" lon="2.69163">
        <ele>80.8</ele>
        <time>2018-04-15T16:48:38Z</time>
      </trkpt>
      <trkpt lat="48.40397" lon="2.6917">
        <ele>80.7</ele>
        <time>2018-04-15T16:48:39Z</time>
      </trkpt>
      <trkpt lat="48.40394" lon="2.69177">
        <ele>80.7</ele>
        <time>2018-04-15T16:48:40Z</time>
      </trkpt>
      <trkpt lat="48.40391" lon="2.69183">
        <ele>80.7</ele>
        <time>2018-04-15T16:48:41Z</time>
      </trkpt>
      <trkpt lat="48.40388" lon="2.6919">
        <ele>80.8</ele>
        <time>2018-04-15T16:48:42Z</time>
      </trkpt>
      <trkpt lat="48.40385" lon="2.69196">
        <ele>80.8</ele>
        <time>2018-04-15T16:48:43Z</time>
      </trkpt>
      <trkpt lat="48.40383" lon="2.69203">
        <ele>80.8</ele>
        <time>2018-04-15T16:48:44Z</time>
      </trkpt>
      <trkpt lat="48.4038" lon="2.6921">
        <ele>80.9</ele>
        <time>2018-04-15T16:48:45Z</time>
      </trkpt>
      <trkpt lat="48.40378" lon="2.69217">
        <ele>81</ele>
        <time>2018-04-15T16:48:46Z</time>
      </trkpt>
      <trkpt lat="48.40375" lon="2.69223">
        <ele>80.9</ele>
        <time>2018-04-15T16:48:47Z</time>
      </trkpt>
      <trkpt lat="48.40373" lon="2.6923">
        <ele>80.9</ele>
        <time>2018-04-15T16:48:48Z</time>
      </trkpt>
      <trkpt lat="48.4037" lon="2.69237">
        <ele>80.8</ele>
        <time>2018-04-15T16:48:49Z</time>
      </trkpt>
      <trkpt lat="48.40367" lon="2.69244">
        <ele>80.8</ele>
        <time>2018-04-15T16:48:50Z</time>
      </trkpt>
      <trkpt lat="48.40365" lon="2.6925">
        <ele>80.7</ele>
        <time>2018-04-15T16:48:51Z</time>
      </trkpt>
      <trkpt lat="48.40363" lon="2.69257">
        <ele>80.7</ele>
        <time>2018-04-15T16:48:52Z</time>
      </trkpt>
      <trkpt lat="48.4036" lon="2.69265">
        <ele>80.7</ele>
        <time>2018-04-15T16:48:53Z</time>
      </trkpt>
      <trkpt lat="48.40358" lon="2.69272">
        <ele>80.6</ele>
        <time>2018-04-15T16:48:54Z</time>
      </trkpt>
      <trkpt lat="48.40355" lon="2.6928">
        <ele>80.6</ele>
        <time>2018-04-15T16:48:55Z</time>
      </trkpt>
      <trkpt lat="48.40353" lon="2.69288">
        <ele>80.5</ele>
        <time>2018-04-15T16:48:56Z</time>
      </trkpt>
      <trkpt lat="48.40351" lon="2.69294">
        <ele>80.5</ele>
        <time>2018-04-15T16:48:57Z</time>
      </trkpt>
      <trkpt lat="48.40349" lon="2.69302">
        <ele>80.5</ele>
        <time>2018-04-15T16:48:58Z</time>
      </trkpt>
      <trkpt lat="48.40346" lon="2.69309">
        <ele>80.4</ele>
        <time>2018-04-15T16:48:59Z</time>
      </trkpt>
      <trkpt lat="48.40343" lon="2.69317">
        <ele>80.4</ele>
        <time>2018-04-15T16:49:00Z</time>
      </trkpt>
      <trkpt lat="48.40341" lon="2.69325">
        <ele>80.3</ele>
        <time>2018-04-15T16:49:01Z</time>
      </trkpt>
      <trkpt lat="48.40339" lon="2.69334">
        <ele>80.3</ele>
        <time>2018-04-15T16:49:02Z</time>
      </trkpt>
      <trkpt lat="48.40336" lon="2.69343">
        <ele>80.2</ele>
        <time>2018-04-15T16:49:03Z</time>
      </trkpt>
      <trkpt lat="48.40334" lon="2.69351">
        <ele>80.2</ele>
        <time>2018-04-15T16:49:04Z</time>
      </trkpt>
      <trkpt lat="48.40331" lon="2.69359">
        <ele>80.1</ele>
        <time>2018-04-15T16:49:05Z</time>
      </trkpt>
      <trkpt lat="48.4033" lon="2.69368">
        <ele>80</ele>
        <time>2018-04-15T16:49:06Z</time>
      </trkpt>
      <trkpt lat="48.40328" lon="2.69376">
        <ele>80</ele>
        <time>2018-04-15T16:49:07Z</time>
      </trkpt>
      <trkpt lat="48.40326" lon="2.69384">
        <ele>80.1</ele>
        <time>2018-04-15T16:49:08Z</time>
      </trkpt>
      <trkpt lat="48.40323" lon="2.69391">
        <ele>80.1</ele>
        <time>2018-04-15T16:49:09Z</time>
      </trkpt>
      <trkpt lat="48.4032" lon="2.69398">
        <ele>80.2</ele>
        <time>2018-04-15T16:49:10Z</time>
      </trkpt>
      <trkpt lat="48.40318" lon="2.69406">
        <ele>80.2</ele>
        <time>2018-04-15T16:49:11Z</time>
      </trkpt>
      <trkpt lat="48.40316" lon="2.69414">
        <ele>80.3</ele>
        <time>2018-04-15T16:49:12Z</time>
      </trkpt>
      <trkpt lat="48.40314" lon="2.69422">
        <ele>80.3</ele>
        <time>2018-04-15T16:49:13Z</time>
      </trkpt>
      <trkpt lat="48.40311" lon="2.69429">
        <ele>80.4</ele>
        <time>2018-04-15T16:49:14Z</time>
      </trkpt>
      <trkpt lat="48.40308" lon="2.69437">
        <ele>80.5</ele>
        <time>2018-04-15T16:49:15Z</time>
      </trkpt>
      <trkpt lat="48.40305" lon="2.69444">
        <ele>80.6</ele>
        <time>2018-04-15T16:49:16Z</time>
      </trkpt>
      <trkpt lat="48.40303" lon="2.69451">
        <ele>80.7</ele>
        <time>2018-04-15T16:49:17Z</time>
      </trkpt>
      <trkpt lat="48.403" lon="2.69458">
        <ele>80.7</ele>
        <time>2018-04-15T16:49:18Z</time>
      </trkpt>
      <trkpt lat="48.40297" lon="2.69466">
        <ele>80.8</ele>
        <time>2018-04-15T16:49:19Z</time>
      </trkpt>
      <trkpt lat="48.40296" lon="2.69474">
        <ele>80.9</ele>
        <time>2018-04-15T16:49:20Z</time>
      </trkpt>
      <trkpt lat="48.40294" lon="2.69482">
        <ele>80.9</ele>
        <time>2018-04-15T16:49:21Z</time>
      </trkpt>
      <trkpt lat="48.4029" lon="2.69488">
        <ele>81</ele>
        <time>2018-04-15T16:49:22Z</time>
      </trkpt>
      <trkpt lat="48.40287" lon="2.69494">
        <ele>81</ele>
        <time>2018-04-15T16:49:23Z</time>
      </trkpt>
      <trkpt lat="48.40285" lon="2.69501">
        <ele>81</ele>
        <time>2018-04-15T16:49:24Z</time>
      </trkpt>
      <trkpt lat="48.40284" lon="2.69508">
        <ele>80.9</ele>
        <time>2018-04-15T16:49:25Z</time>
      </trkpt>
      <trkpt lat="48.40282" lon="2.69514">
        <ele>80.9</ele>
        <time>2018-04-15T16:49:26Z</time>
      </trkpt>
      <trkpt lat="48.4028" lon="2.69522">
        <ele>80.9</ele>
        <time>2018-04-15T16:49:27Z</time>
      </trkpt>
      <trkpt lat="48.40278" lon="2.6953">
        <ele>80.9</ele>
        <time>2018-04-15T16:49:28Z</time>
      </trkpt>
      <trkpt lat="48.40276" lon="2.69537">
        <ele>80.9</ele>
        <time>2018-04-15T16:49:29Z</time>
      </trkpt>
      <trkpt lat="48.40276" lon="2.69544">
        <ele>80.9</ele>
        <time>2018-04-15T16:49:30Z</time>
      </trkpt>
      <trkpt lat="48.40275" lon="2.69552">
        <ele>80.8</ele>
        <time>2018-04-15T16:49:31Z</time>
      </trkpt>
      <trkpt lat="48.40273" lon="2.69559">
        <ele>80.8</ele>
        <time>2018-04-15T16:49:32Z</time>
      </trkpt>
      <trkpt lat="48.40272" lon="2.69566">
        <ele>80.7</ele>
        <time>2018-04-15T16:49:33Z</time>
      </trkpt>
      <trkpt lat="48.40271" lon="2.69573">
        <ele>80.7</ele>
        <time>2018-04-15T16:49:34Z</time>
      </trkpt>
      <trkpt lat="48.40269" lon="2.69579">
        <ele>80.6</ele>
        <time>2018-04-15T16:49:35Z</time>
      </trkpt>
      <trkpt lat="48.40268" lon="2.69586">
        <ele>80.5</ele>
        <time>2018-04-15T16:49:36Z</time>
      </trkpt>
      <trkpt lat="48.40266" lon="2.69594">
        <ele>80.4</ele>
        <time>2018-04-15T16:49:37Z</time>
      </trkpt>
      <trkpt lat="48.40265" lon="2.69602">
        <ele>80.3</ele>
        <time>2018-04-15T16:49:38Z</time>
      </trkpt>
      <trkpt lat="48.40263" lon="2.6961">
        <ele>80.2</ele>
        <time>2018-04-15T16:49:39Z</time>
      </trkpt>
      <trkpt lat="48.40262" lon="2.69618">
        <ele>80.1</ele>
        <time>2018-04-15T16:49:40Z</time>
      </trkpt>
      <trkpt lat="48.4026" lon="2.69626">
        <ele>80</ele>
        <time>2018-04-15T16:49:41Z</time>
      </trkpt>
      <trkpt lat="48.40259" lon="2.69634">
        <ele>80</ele>
        <time>2018-04-15T16:49:42Z</time>
      </trkpt>
      <trkpt lat="48.40257" lon="2.69641">
        <ele>80</ele>
        <time>2018-04-15T16:49:43Z</time>
      </trkpt>
      <trkpt lat="48.40255" lon="2.69648">
        <ele>80</ele>
        <time>2018-04-15T16:49:44Z</time>
      </trkpt>
      <trkpt lat="48.40253" lon="2.69654">
        <ele>80</ele>
        <time>2018-04-15T16:49:45Z</time>
      </trkpt>
      <trkpt lat="48.40251" lon="2.6966">
        <ele>79.7</ele>
        <time>2018-04-15T16:49:46Z</time>
      </trkpt>
      <trkpt lat="48.40249" lon="2.69666">
        <ele>79.3</ele>
        <time>2018-04-15T16:49:47Z</time>
      </trkpt>
      <trkpt lat="48.40248" lon="2.69672">
        <ele>78.8</ele>
        <time>2018-04-15T16:49:48Z</time>
      </trkpt>
      <trkpt lat="48.40248" lon="2.69678">
        <ele>78.3</ele>
        <time>2018-04-15T16:49:49Z</time>
      </trkpt>
      <trkpt lat="48.4025" lon="2.69685">
        <ele>77.8</ele>
        <time>2018-04-15T16:49:50Z</time>
      </trkpt>
      <trkpt lat="48.40253" lon="2.6969">
        <ele>77.2</ele>
        <time>2018-04-15T16:49:51Z</time>
      </trkpt>
      <trkpt lat="48.40257" lon="2.69695">
        <ele>77</ele>
        <time>2018-04-15T16:49:52Z</time>
      </trkpt>
      <trkpt lat="48.40261" lon="2.69699">
        <ele>77</ele>
        <time>2018-04-15T16:49:53Z</time>
      </trkpt>
      <trkpt lat="48.40265" lon="2.69704">
        <ele>77</ele>
        <time>2018-04-15T16:49:54Z</time>
      </trkpt>
      <trkpt lat="48.40269" lon="2.69709">
        <ele>76.8</ele>
        <time>2018-04-15T16:49:55Z</time>
      </trkpt>
      <trkpt lat="48.40272" lon="2.69714">
        <ele>76.8</ele>
        <time>2018-04-15T16:49:56Z</time>
      </trkpt>
      <trkpt lat="48.40274" lon="2.69721">
        <ele>76.8</ele>
        <time>2018-04-15T16:49:57Z</time>
      </trkpt>
      <trkpt lat="48.40276" lon="2.69727">
        <ele>76.8</ele>
        <time>2018-04-15T16:49:58Z</time>
      </trkpt>
      <trkpt lat="48.40278" lon="2.69733">
        <ele>76.8</ele>
        <time>2018-04-15T16:49:59Z</time>
      </trkpt>
      <trkpt lat="48.4028" lon="2.69738">
        <ele>76.9</ele>
        <time>2018-04-15T16:50:00Z</time>
      </trkpt>
      <trkpt lat="48.40283" lon="2.69744">
        <ele>76.9</ele>
        <time>2018-04-15T16:50:01Z</time>
      </trkpt>
      <trkpt lat="48.40285" lon="2.69748">
        <ele>76.9</ele>
        <time>2018-04-15T16:50:02Z</time>
      </trkpt>
      <trkpt lat="48.40287" lon="2.69754">
        <ele>76.9</ele>
        <time>2018-04-15T16:50:03Z</time>
      </trkpt>
      <trkpt lat="48.4029" lon="2.69759">
        <ele>76.9</ele>
        <time>2018-04-15T16:50:04Z</time>
      </trkpt>
      <trkpt lat="48.40293" lon="2.69765">
        <ele>76.9</ele>
        <time>2018-04-15T16:50:05Z</time>
      </trkpt>
      <trkpt lat="48.40295" lon="2.6977">
        <ele>76.9</ele>
        <time>2018-04-15T16:50:06Z</time>
      </trkpt>
      <trkpt lat="48.40298" lon="2.69775">
        <ele>76.9</ele>
        <time>2018-04-15T16:50:07Z</time>
      </trkpt>
      <trkpt lat="48.403" lon="2.6978">
        <ele>77</ele>
        <time>2018-04-15T16:50:08Z</time>
      </trkpt>
      <trkpt lat="48.40303" lon="2.69786">
        <ele>77</ele>
        <time>2018-04-15T16:50:09Z</time>
      </trkpt>
      <trkpt lat="48.40306" lon="2.69791">
        <ele>77</ele>
        <time>2018-04-15T16:50:10Z</time>
      </trkpt>
      <trkpt lat="48.40309" lon="2.69796">
        <ele>77</ele>
        <time>2018-04-15T16:50:11Z</time>
      </trkpt>
      <trkpt lat="48.40311" lon="2.69801">
        <ele>77.2</ele>
        <time>2018-04-15T16:50:12Z</time>
      </trkpt>
      <trkpt lat="48.40314" lon="2.69807">
        <ele>77.3</ele>
        <time>2018-04-15T16:50:13Z</time>
      </trkpt>
      <trkpt lat="48.40316" lon="2.69813">
        <ele>77.5</ele>
        <time>2018-04-15T16:50:14Z</time>
      </trkpt>
      <trkpt lat="48.40319" lon="2.6982">
        <ele>77.7</ele>
        <time>2018-04-15T16:50:15Z</time>
      </trkpt>
      <trkpt lat="48.40322" lon="2.69825">
        <ele>77.8</ele>
        <time>2018-04-15T16:50:16Z</time>
      </trkpt>
      <trkpt lat="48.40324" lon="2.69831">
        <ele>78</ele>
        <time>2018-04-15T16:50:17Z</time>
      </trkpt>
      <trkpt lat="48.40325" lon="2.69837">
        <ele>78.2</ele>
        <time>2018-04-15T16:50:18Z</time>
      </trkpt>
      <trkpt lat="48.40326" lon="2.69843">
        <ele>78.4</ele>
        <time>2018-04-15T16:50:19Z</time>
      </trkpt>
      <trkpt lat="48.40328" lon="2.69849">
        <ele>78.6</ele>
        <time>2018-04-15T16:50:20Z</time>
      </trkpt>
      <trkpt lat="48.4033" lon="2.69855">
        <ele>78.9</ele>
        <time>2018-04-15T16:50:21Z</time>
      </trkpt>
      <trkpt lat="48.40333" lon="2.6986">
        <ele>79.1</ele>
        <time>2018-04-15T16:50:22Z</time>
      </trkpt>
      <trkpt lat="48.40335" lon="2.69865">
        <ele>79.3</ele>
        <time>2018-04-15T16:50:23Z</time>
      </trkpt>
      <trkpt lat="48.40337" lon="2.6987">
        <ele>79.5</ele>
        <time>2018-04-15T16:50:24Z</time>
      </trkpt>
      <trkpt lat="48.4034" lon="2.69876">
        <ele>79.8</ele>
        <time>2018-04-15T16:50:25Z</time>
      </trkpt>
      <trkpt lat="48.40342" lon="2.69882">
        <ele>80</ele>
        <time>2018-04-15T16:50:26Z</time>
      </trkpt>
      <trkpt lat="48.40343" lon="2.69887">
        <ele>80</ele>
        <time>2018-04-15T16:50:27Z</time>
      </trkpt>
      <trkpt lat="48.40346" lon="2.69893">
        <ele>80</ele>
        <time>2018-04-15T16:50:28Z</time>
      </trkpt>
      <trkpt lat="48.40349" lon="2.69898">
        <ele>80.1</ele>
        <time>2018-04-15T16:50:29Z</time>
      </trkpt>
      <trkpt lat="48.40351" lon="2.69904">
        <ele>80.1</ele>
        <time>2018-04-15T16:50:30Z</time>
      </trkpt>
      <trkpt lat="48.40353" lon="2.69909">
        <ele>80.1</ele>
        <time>2018-04-15T16:50:31Z</time>
      </trkpt>
      <trkpt lat="48.40355" lon="2.69915">
        <ele>80</ele>
        <time>2018-04-15T16:50:32Z</time>
      </trkpt>
      <trkpt lat="48.40358" lon="2.69921">
        <ele>80.1</ele>
        <time>2018-04-15T16:50:33Z</time>
      </trkpt>
      <trkpt lat="48.4036" lon="2.69927">
        <ele>80.1</ele>
        <time>2018-04-15T16:50:34Z</time>
      </trkpt>
      <trkpt lat="48.40363" lon="2.69932">
        <ele>80.1</ele>
        <time>2018-04-15T16:50:35Z</time>
      </trkpt>
      <trkpt lat="48.40365" lon="2.69938">
        <ele>80.1</ele>
        <time>2018-04-15T16:50:36Z</time>
      </trkpt>
      <trkpt lat="48.40368" lon="2.69944">
        <ele>80.1</ele>
        <time>2018-04-15T16:50:37Z</time>
      </trkpt>
      <trkpt lat="48.4037" lon="2.6995">
        <ele>80.1</ele>
        <time>2018-04-15T16:50:38Z</time>
      </trkpt>
      <trkpt lat="48.40372" lon="2.69956">
        <ele>80.1</ele>
        <time>2018-04-15T16:50:39Z</time>
      </trkpt>
      <trkpt lat="48.40375" lon="2.69961">
        <ele>80</ele>
        <time>2018-04-15T16:50:40Z</time>
      </trkpt>
      <trkpt lat="48.40377" lon="2.69966">
        <ele>80</ele>
        <time>2018-04-15T16:50:41Z</time>
      </trkpt>
      <trkpt lat="48.40379" lon="2.69972">
        <ele>80</ele>
        <time>2018-04-15T16:50:42Z</time>
      </trkpt>
      <trkpt lat="48.40382" lon="2.69977">
        <ele>80</ele>
        <time>2018-04-15T16:50:43Z</time>
      </trkpt>
      <trkpt lat="48.40384" lon="2.69983">
        <ele>80</ele>
        <time>2018-04-15T16:50:44Z</time>
      </trkpt>
      <trkpt lat="48.40386" lon="2.69989">
        <ele>80</ele>
        <time>2018-04-15T16:50:45Z</time>
      </trkpt>
      <trkpt lat="48.40389" lon="2.69994">
        <ele>80</ele>
        <time>2018-04-15T16:50:46Z</time>
      </trkpt>
      <trkpt lat="48.40391" lon="2.7">
        <ele>80</ele>
        <time>2018-04-15T16:50:47Z</time>
      </trkpt>
      <trkpt lat="48.40394" lon="2.70004">
        <ele>80</ele>
        <time>2018-04-15T16:50:48Z</time>
      </trkpt>
      <trkpt lat="48.40395" lon="2.7001">
        <ele>80</ele>
        <time>2018-04-15T16:50:49Z</time>
      </trkpt>
      <trkpt lat="48.40395" lon="2.70016">
        <ele>80</ele>
        <time>2018-04-15T16:50:50Z</time>
      </trkpt>
      <trkpt lat="48.40394" lon="2.70022">
        <ele>80</ele>
        <time>2018-04-15T16:50:51Z</time>
      </trkpt>
      <trkpt lat="48.40391" lon="2.70027">
        <ele>80</ele>
        <time>2018-04-15T16:50:52Z</time>
      </trkpt>
      <trkpt lat="48.40388" lon="2.70032">
        <ele>80</ele>
        <time>2018-04-15T16:50:53Z</time>
      </trkpt>
      <trkpt lat="48.40385" lon="2.70038">
        <ele>80</ele>
        <time>2018-04-15T16:50:54Z</time>
      </trkpt>
      <trkpt lat="48.40382" lon="2.70044">
        <ele>80</ele>
        <time>2018-04-15T16:50:55Z</time>
      </trkpt>
      <trkpt lat="48.40379" lon="2.70049">
        <ele>80</ele>
        <time>2018-04-15T16:50:56Z</time>
      </trkpt>
      <trkpt lat="48.40375" lon="2.70056">
        <ele>80</ele>
        <time>2018-04-15T16:50:57Z</time>
      </trkpt>
      <trkpt lat="48.40372" lon="2.70063">
        <ele>80</ele>
        <time>2018-04-15T16:50:58Z</time>
      </trkpt>
      <trkpt lat="48.40369" lon="2.7007">
        <ele>80</ele>
        <time>2018-04-15T16:50:59Z</time>
      </trkpt>
      <trkpt lat="48.40366" lon="2.70078">
        <ele>80</ele>
        <time>2018-04-15T16:51:00Z</time>
      </trkpt>
      <trkpt lat="48.40363" lon="2.70085">
        <ele>80</ele>
        <time>2018-04-15T16:51:01Z</time>
      </trkpt>
      <trkpt lat="48.4036" lon="2.70092">
        <ele>80</ele>
        <time>2018-04-15T16:51:02Z</time>
      </trkpt>
      <trkpt lat="48.40358" lon="2.701">
        <ele>80.1</ele>
        <time>2018-04-15T16:51:03Z</time>
      </trkpt>
      <trkpt lat="48.40356" lon="2.70108">
        <ele>80.1</ele>
        <time>2018-04-15T16:51:04Z</time>
      </trkpt>
      <trkpt lat="48.40353" lon="2.70115">
        <ele>80.1</ele>
        <time>2018-04-15T16:51:05Z</time>
      </trkpt>
      <trkpt lat="48.40351" lon="2.70123">
        <ele>80.1</ele>
        <time>2018-04-15T16:51:06Z</time>
      </trkpt>
      <trkpt lat="48.4035" lon="2.70129">
        <ele>80</ele>
        <time>2018-04-15T16:51:07Z</time>
      </trkpt>
      <trkpt lat="48.40352" lon="2.70136">
        <ele>80</ele>
        <time>2018-04-15T16:51:08Z</time>
      </trkpt>
      <trkpt lat="48.40354" lon="2.70144">
        <ele>80</ele>
        <time>2018-04-15T16:51:09Z</time>
      </trkpt>
      <trkpt lat="48.40357" lon="2.7015">
        <ele>80</ele>
        <time>2018-04-15T16:51:10Z</time>
      </trkpt>
      <trkpt lat="48.40361" lon="2.70156">
        <ele>80</ele>
        <time>2018-04-15T16:51:11Z</time>
      </trkpt>
      <trkpt lat="48.40364" lon="2.70163">
        <ele>80</ele>
        <time>2018-04-15T16:51:12Z</time>
      </trkpt>
      <trkpt lat="48.40367" lon="2.7017">
        <ele>79.4</ele>
        <time>2018-04-15T16:51:13Z</time>
      </trkpt>
      <trkpt lat="48.40368" lon="2.70178">
        <ele>78.8</ele>
        <time>2018-04-15T16:51:14Z</time>
      </trkpt>
      <trkpt lat="48.4037" lon="2.70185">
        <ele>78.2</ele>
        <time>2018-04-15T16:51:15Z</time>
      </trkpt>
      <trkpt lat="48.40371" lon="2.70191">
        <ele>77.6</ele>
        <time>2018-04-15T16:51:16Z</time>
      </trkpt>
      <trkpt lat="48.40371" lon="2.70199">
        <ele>76.8</ele>
        <time>2018-04-15T16:51:17Z</time>
      </trkpt>
      <trkpt lat="48.40369" lon="2.70206">
        <ele>76.6</ele>
        <time>2018-04-15T16:51:18Z</time>
      </trkpt>
      <trkpt lat="48.40367" lon="2.70212">
        <ele>76.3</ele>
        <time>2018-04-15T16:51:19Z</time>
      </trkpt>
      <trkpt lat="48.40365" lon="2.70219">
        <ele>76.1</ele>
        <time>2018-04-15T16:51:20Z</time>
      </trkpt>
      <trkpt lat="48.40363" lon="2.70226">
        <ele>75.8</ele>
        <time>2018-04-15T16:51:21Z</time>
      </trkpt>
      <trkpt lat="48.40361" lon="2.70233">
        <ele>75.6</ele>
        <time>2018-04-15T16:51:22Z</time>
      </trkpt>
      <trkpt lat="48.40359" lon="2.70241">
        <ele>75.4</ele>
        <time>2018-04-15T16:51:23Z</time>
      </trkpt>
      <trkpt lat="48.40356" lon="2.70248">
        <ele>75.2</ele>
        <time>2018-04-15T16:51:24Z</time>
      </trkpt>
      <trkpt lat="48.40355" lon="2.70254">
        <ele>75.1</ele>
        <time>2018-04-15T16:51:25Z</time>
      </trkpt>
      <trkpt lat="48.40354" lon="2.70261">
        <ele>75</ele>
        <time>2018-04-15T16:51:26Z</time>
      </trkpt>
      <trkpt lat="48.40356" lon="2.70266">
        <ele>75</ele>
        <time>2018-04-15T16:51:27Z</time>
      </trkpt>
      <trkpt lat="48.4036" lon="2.7027">
        <ele>75.1</ele>
        <time>2018-04-15T16:51:28Z</time>
      </trkpt>
      <trkpt lat="48.40364" lon="2.70274">
        <ele>75.2</ele>
        <time>2018-04-15T16:51:29Z</time>
      </trkpt>
      <trkpt lat="48.40367" lon="2.70281">
        <ele>75.2</ele>
        <time>2018-04-15T16:51:30Z</time>
      </trkpt>
      <trkpt lat="48.40371" lon="2.70288">
        <ele>75.3</ele>
        <time>2018-04-15T16:51:31Z</time>
      </trkpt>
      <trkpt lat="48.40374" lon="2.70295">
        <ele>75.4</ele>
        <time>2018-04-15T16:51:32Z</time>
      </trkpt>
      <trkpt lat="48.40378" lon="2.70301">
        <ele>75.5</ele>
        <time>2018-04-15T16:51:33Z</time>
      </trkpt>
      <trkpt lat="48.4038" lon="2.70306">
        <ele>75.5</ele>
        <time>2018-04-15T16:51:34Z</time>
      </trkpt>
      <trkpt lat="48.40384" lon="2.70312">
        <ele>75.6</ele>
        <time>2018-04-15T16:51:35Z</time>
      </trkpt>
      <trkpt lat="48.40387" lon="2.70317">
        <ele>75.7</ele>
        <time>2018-04-15T16:51:36Z</time>
      </trkpt>
      <trkpt lat="48.40391" lon="2.70321">
        <ele>75.7</ele>
        <time>2018-04-15T16:51:37Z</time>
      </trkpt>
      <trkpt lat="48.40393" lon="2.70328">
        <ele>75.8</ele>
        <time>2018-04-15T16:51:38Z</time>
      </trkpt>
      <trkpt lat="48.40397" lon="2.70334">
        <ele>75.8</ele>
        <time>2018-04-15T16:51:39Z</time>
      </trkpt>
      <trkpt lat="48.404" lon="2.70339">
        <ele>75.9</ele>
        <time>2018-04-15T16:51:40Z</time>
      </trkpt>
      <trkpt lat="48.40403" lon="2.70343">
        <ele>75.9</ele>
        <time>2018-04-15T16:51:41Z</time>
      </trkpt>
      <trkpt lat="48.40404" lon="2.70346">
        <ele>75.9</ele>
        <time>2018-04-15T16:51:42Z</time>
      </trkpt>
      <trkpt lat="48.40406" lon="2.7035">
        <ele>76</ele>
        <time>2018-04-15T16:51:43Z</time>
      </trkpt>
      <trkpt lat="48.40408" lon="2.70354">
        <ele>75.9</ele>
        <time>2018-04-15T16:51:45Z</time>
      </trkpt>
      <trkpt lat="48.40407" lon="2.70359">
        <ele>75.9</ele>
        <time>2018-04-15T16:51:46Z</time>
      </trkpt>
      <trkpt lat="48.40405" lon="2.70366">
        <ele>75.7</ele>
        <time>2018-04-15T16:51:48Z</time>
      </trkpt>
      <trkpt lat="48.404" lon="2.70371">
        <ele>75.6</ele>
        <time>2018-04-15T16:51:50Z</time>
      </trkpt>
      <trkpt lat="48.40397" lon="2.70374">
        <ele>75.5</ele>
        <time>2018-04-15T16:51:51Z</time>
      </trkpt>
      <trkpt lat="48.40391" lon="2.70378">
        <ele>75.3</ele>
        <time>2018-04-15T16:51:52Z</time>
      </trkpt>
      <trkpt lat="48.40387" lon="2.70382">
        <ele>75.2</ele>
        <time>2018-04-15T16:51:53Z</time>
      </trkpt>
      <trkpt lat="48.40383" lon="2.70387">
        <ele>75.1</ele>
        <time>2018-04-15T16:51:54Z</time>
      </trkpt>
      <trkpt lat="48.4038" lon="2.70392">
        <ele>75</ele>
        <time>2018-04-15T16:51:55Z</time>
      </trkpt>
      <trkpt lat="48.40377" lon="2.70399">
        <ele>74.8</ele>
        <time>2018-04-15T16:51:56Z</time>
      </trkpt>
      <trkpt lat="48.40373" lon="2.70404">
        <ele>74.7</ele>
        <time>2018-04-15T16:51:57Z</time>
      </trkpt>
      <trkpt lat="48.4037" lon="2.70409">
        <ele>74.6</ele>
        <time>2018-04-15T16:51:58Z</time>
      </trkpt>
      <trkpt lat="48.40364" lon="2.70413">
        <ele>74.4</ele>
        <time>2018-04-15T16:51:59Z</time>
      </trkpt>
      <trkpt lat="48.40359" lon="2.70418">
        <ele>74.2</ele>
        <time>2018-04-15T16:52:00Z</time>
      </trkpt>
      <trkpt lat="48.40355" lon="2.70423">
        <ele>74</ele>
        <time>2018-04-15T16:52:01Z</time>
      </trkpt>
      <trkpt lat="48.40352" lon="2.7043">
        <ele>74</ele>
        <time>2018-04-15T16:52:02Z</time>
      </trkpt>
      <trkpt lat="48.40352" lon="2.7044">
        <ele>74</ele>
        <time>2018-04-15T16:52:03Z</time>
      </trkpt>
      <trkpt lat="48.40353" lon="2.70449">
        <ele>74</ele>
        <time>2018-04-15T16:52:04Z</time>
      </trkpt>
      <trkpt lat="48.40355" lon="2.70457">
        <ele>73.9</ele>
        <time>2018-04-15T16:52:05Z</time>
      </trkpt>
      <trkpt lat="48.40357" lon="2.70463">
        <ele>73.8</ele>
        <time>2018-04-15T16:52:06Z</time>
      </trkpt>
      <trkpt lat="48.40359" lon="2.70468">
        <ele>73.7</ele>
        <time>2018-04-15T16:52:07Z</time>
      </trkpt>
      <trkpt lat="48.4036" lon="2.70474">
        <ele>73.6</ele>
        <time>2018-04-15T16:52:08Z</time>
      </trkpt>
      <trkpt lat="48.40361" lon="2.7048">
        <ele>73.5</ele>
        <time>2018-04-15T16:52:09Z</time>
      </trkpt>
      <trkpt lat="48.40361" lon="2.70486">
        <ele>73.4</ele>
        <time>2018-04-15T16:52:10Z</time>
      </trkpt>
      <trkpt lat="48.4036" lon="2.70492">
        <ele>73.3</ele>
        <time>2018-04-15T16:52:11Z</time>
      </trkpt>
      <trkpt lat="48.40358" lon="2.70499">
        <ele>73.2</ele>
        <time>2018-04-15T16:52:12Z</time>
      </trkpt>
      <trkpt lat="48.40356" lon="2.70505">
        <ele>73</ele>
        <time>2018-04-15T16:52:13Z</time>
      </trkpt>
      <trkpt lat="48.40356" lon="2.70512">
        <ele>73</ele>
        <time>2018-04-15T16:52:14Z</time>
      </trkpt>
      <trkpt lat="48.40357" lon="2.7052">
        <ele>73</ele>
        <time>2018-04-15T16:52:15Z</time>
      </trkpt>
      <trkpt lat="48.40357" lon="2.70526">
        <ele>73</ele>
        <time>2018-04-15T16:52:16Z</time>
      </trkpt>
      <trkpt lat="48.40356" lon="2.70533">
        <ele>73</ele>
        <time>2018-04-15T16:52:17Z</time>
      </trkpt>
      <trkpt lat="48.40355" lon="2.70538">
        <ele>73</ele>
        <time>2018-04-15T16:52:18Z</time>
      </trkpt>
      <trkpt lat="48.40353" lon="2.70543">
        <ele>73</ele>
        <time>2018-04-15T16:52:19Z</time>
      </trkpt>
      <trkpt lat="48.40353" lon="2.70548">
        <ele>73</ele>
        <time>2018-04-15T16:52:20Z</time>
      </trkpt>
      <trkpt lat="48.40353" lon="2.70553">
        <ele>72.9</ele>
        <time>2018-04-15T16:52:21Z</time>
      </trkpt>
      <trkpt lat="48.40352" lon="2.70559">
        <ele>72.8</ele>
        <time>2018-04-15T16:52:22Z</time>
      </trkpt>
      <trkpt lat="48.4035" lon="2.70565">
        <ele>72.7</ele>
        <time>2018-04-15T16:52:23Z</time>
      </trkpt>
      <trkpt lat="48.40349" lon="2.70572">
        <ele>72.6</ele>
        <time>2018-04-15T16:52:24Z</time>
      </trkpt>
      <trkpt lat="48.40348" lon="2.70579">
        <ele>72.4</ele>
        <time>2018-04-15T16:52:25Z</time>
      </trkpt>
      <trkpt lat="48.40348" lon="2.70587">
        <ele>72.2</ele>
        <time>2018-04-15T16:52:26Z</time>
      </trkpt>
      <trkpt lat="48.4035" lon="2.70595">
        <ele>72</ele>
        <time>2018-04-15T16:52:27Z</time>
      </trkpt>
      <trkpt lat="48.40349" lon="2.70603">
        <ele>71.8</ele>
        <time>2018-04-15T16:52:28Z</time>
      </trkpt>
      <trkpt lat="48.40348" lon="2.7061">
        <ele>71.6</ele>
        <time>2018-04-15T16:52:29Z</time>
      </trkpt>
      <trkpt lat="48.40347" lon="2.70618">
        <ele>71.4</ele>
        <time>2018-04-15T16:52:30Z</time>
      </trkpt>
      <trkpt lat="48.40345" lon="2.70627">
        <ele>71.2</ele>
        <time>2018-04-15T16:52:31Z</time>
      </trkpt>
      <trkpt lat="48.40341" lon="2.70636">
        <ele>71.1</ele>
        <time>2018-04-15T16:52:32Z</time>
      </trkpt>
      <trkpt lat="48.40337" lon="2.70642">
        <ele>70.9</ele>
        <time>2018-04-15T16:52:33Z</time>
      </trkpt>
      <trkpt lat="48.40335" lon="2.70648">
        <ele>70.9</ele>
        <time>2018-04-15T16:52:34Z</time>
      </trkpt>
      <trkpt lat="48.40332" lon="2.70658">
        <ele>70.9</ele>
        <time>2018-04-15T16:52:35Z</time>
      </trkpt>
      <trkpt lat="48.40329" lon="2.70666">
        <ele>70.8</ele>
        <time>2018-04-15T16:52:36Z</time>
      </trkpt>
      <trkpt lat="48.40326" lon="2.70674">
        <ele>70.8</ele>
        <time>2018-04-15T16:52:37Z</time>
      </trkpt>
      <trkpt lat="48.40323" lon="2.70682">
        <ele>70.3</ele>
        <time>2018-04-15T16:52:38Z</time>
      </trkpt>
      <trkpt lat="48.4032" lon="2.7069">
        <ele>69.7</ele>
        <time>2018-04-15T16:52:39Z</time>
      </trkpt>
      <trkpt lat="48.40317" lon="2.70695">
        <ele>69.2</ele>
        <time>2018-04-15T16:52:40Z</time>
      </trkpt>
      <trkpt lat="48.40313" lon="2.70702">
        <ele>68.6</ele>
        <time>2018-04-15T16:52:41Z</time>
      </trkpt>
      <trkpt lat="48.4031" lon="2.70707">
        <ele>68.7</ele>
        <time>2018-04-15T16:52:42Z</time>
      </trkpt>
      <trkpt lat="48.4031" lon="2.70712">
        <ele>68.7</ele>
        <time>2018-04-15T16:52:43Z</time>
      </trkpt>
      <trkpt lat="48.4031" lon="2.70717">
        <ele>68.8</ele>
        <time>2018-04-15T16:52:44Z</time>
      </trkpt>
      <trkpt lat="48.40313" lon="2.70722">
        <ele>68.8</ele>
        <time>2018-04-15T16:52:45Z</time>
      </trkpt>
      <trkpt lat="48.40315" lon="2.70728">
        <ele>68.9</ele>
        <time>2018-04-15T16:52:46Z</time>
      </trkpt>
      <trkpt lat="48.40317" lon="2.70735">
        <ele>69</ele>
        <time>2018-04-15T16:52:47Z</time>
      </trkpt>
      <trkpt lat="48.4032" lon="2.70742">
        <ele>69</ele>
        <time>2018-04-15T16:52:48Z</time>
      </trkpt>
      <trkpt lat="48.40322" lon="2.70749">
        <ele>69.1</ele>
        <time>2018-04-15T16:52:49Z</time>
      </trkpt>
      <trkpt lat="48.40324" lon="2.70756">
        <ele>69.1</ele>
        <time>2018-04-15T16:52:50Z</time>
      </trkpt>
      <trkpt lat="48.40326" lon="2.70764">
        <ele>69.2</ele>
        <time>2018-04-15T16:52:51Z</time>
      </trkpt>
      <trkpt lat="48.40329" lon="2.70772">
        <ele>69.2</ele>
        <time>2018-04-15T16:52:52Z</time>
      </trkpt>
      <trkpt lat="48.40333" lon="2.70778">
        <ele>69.3</ele>
        <time>2018-04-15T16:52:53Z</time>
      </trkpt>
      <trkpt lat="48.40335" lon="2.70786">
        <ele>69.3</ele>
        <time>2018-04-15T16:52:54Z</time>
      </trkpt>
      <trkpt lat="48.40338" lon="2.70793">
        <ele>69.4</ele>
        <time>2018-04-15T16:52:55Z</time>
      </trkpt>
      <trkpt lat="48.40339" lon="2.70802">
        <ele>69.4</ele>
        <time>2018-04-15T16:52:56Z</time>
      </trkpt>
      <trkpt lat="48.40341" lon="2.7081">
        <ele>69.5</ele>
        <time>2018-04-15T16:52:57Z</time>
      </trkpt>
      <trkpt lat="48.40344" lon="2.70816">
        <ele>69.5</ele>
        <time>2018-04-15T16:52:58Z</time>
      </trkpt>
      <trkpt lat="48.40346" lon="2.70824">
        <ele>69.6</ele>
        <time>2018-04-15T16:52:59Z</time>
      </trkpt>
      <trkpt lat="48.40348" lon="2.70832">
        <ele>69.6</ele>
        <time>2018-04-15T16:53:00Z</time>
      </trkpt>
      <trkpt lat="48.4035" lon="2.70839">
        <ele>69.7</ele>
        <time>2018-04-15T16:53:01Z</time>
      </trkpt>
      <trkpt lat="48.40352" lon="2.70846">
        <ele>69.8</ele>
        <time>2018-04-15T16:53:02Z</time>
      </trkpt>
      <trkpt lat="48.40354" lon="2.70855">
        <ele>69.9</ele>
        <time>2018-04-15T16:53:03Z</time>
      </trkpt>
      <trkpt lat="48.40357" lon="2.70863">
        <ele>70</ele>
        <time>2018-04-15T16:53:04Z</time>
      </trkpt>
      <trkpt lat="48.4036" lon="2.70871">
        <ele>70</ele>
        <time>2018-04-15T16:53:05Z</time>
      </trkpt>
      <trkpt lat="48.40361" lon="2.70879">
        <ele>70.1</ele>
        <time>2018-04-15T16:53:06Z</time>
      </trkpt>
      <trkpt lat="48.40362" lon="2.70887">
        <ele>70.2</ele>
        <time>2018-04-15T16:53:07Z</time>
      </trkpt>
      <trkpt lat="48.40364" lon="2.70894">
        <ele>70.2</ele>
        <time>2018-04-15T16:53:08Z</time>
      </trkpt>
      <trkpt lat="48.40367" lon="2.70901">
        <ele>70.3</ele>
        <time>2018-04-15T16:53:09Z</time>
      </trkpt>
      <trkpt lat="48.4037" lon="2.70909">
        <ele>70.5</ele>
        <time>2018-04-15T16:53:10Z</time>
      </trkpt>
      <trkpt lat="48.40372" lon="2.70916">
        <ele>70.6</ele>
        <time>2018-04-15T16:53:11Z</time>
      </trkpt>
      <trkpt lat="48.40374" lon="2.70923">
        <ele>70.7</ele>
        <time>2018-04-15T16:53:12Z</time>
      </trkpt>
      <trkpt lat="48.40376" lon="2.70931">
        <ele>70.8</ele>
        <time>2018-04-15T16:53:13Z</time>
      </trkpt>
      <trkpt lat="48.40379" lon="2.70937">
        <ele>70.8</ele>
        <time>2018-04-15T16:53:14Z</time>
      </trkpt>
      <trkpt lat="48.40382" lon="2.70944">
        <ele>70.9</ele>
        <time>2018-04-15T16:53:15Z</time>
      </trkpt>
      <trkpt lat="48.40385" lon="2.7095">
        <ele>71</ele>
        <time>2018-04-15T16:53:16Z</time>
      </trkpt>
      <trkpt lat="48.40388" lon="2.70958">
        <ele>71</ele>
        <time>2018-04-15T16:53:17Z</time>
      </trkpt>
      <trkpt lat="48.40391" lon="2.70965">
        <ele>70.7</ele>
        <time>2018-04-15T16:53:18Z</time>
      </trkpt>
      <trkpt lat="48.40394" lon="2.70973">
        <ele>70.4</ele>
        <time>2018-04-15T16:53:19Z</time>
      </trkpt>
      <trkpt lat="48.40396" lon="2.70981">
        <ele>70.3</ele>
        <time>2018-04-15T16:53:20Z</time>
      </trkpt>
      <trkpt lat="48.40399" lon="2.70989">
        <ele>70.1</ele>
        <time>2018-04-15T16:53:21Z</time>
      </trkpt>
      <trkpt lat="48.40402" lon="2.70999">
        <ele>69.9</ele>
        <time>2018-04-15T16:53:22Z</time>
      </trkpt>
      <trkpt lat="48.40405" lon="2.71008">
        <ele>69.7</ele>
        <time>2018-04-15T16:53:23Z</time>
      </trkpt>
      <trkpt lat="48.40408" lon="2.71016">
        <ele>69.4</ele>
        <time>2018-04-15T16:53:24Z</time>
      </trkpt>
      <trkpt lat="48.40411" lon="2.71025">
        <ele>69.1</ele>
        <time>2018-04-15T16:53:25Z</time>
      </trkpt>
      <trkpt lat="48.40413" lon="2.71033">
        <ele>68.9</ele>
        <time>2018-04-15T16:53:26Z</time>
      </trkpt>
      <trkpt lat="48.40416" lon="2.71041">
        <ele>68.4</ele>
        <time>2018-04-15T16:53:27Z</time>
      </trkpt>
      <trkpt lat="48.40419" lon="2.7105">
        <ele>67.9</ele>
        <time>2018-04-15T16:53:28Z</time>
      </trkpt>
      <trkpt lat="48.40422" lon="2.71059">
        <ele>67.4</ele>
        <time>2018-04-15T16:53:29Z</time>
      </trkpt>
      <trkpt lat="48.40425" lon="2.71068">
        <ele>67.2</ele>
        <time>2018-04-15T16:53:30Z</time>
      </trkpt>
      <trkpt lat="48.40428" lon="2.71075">
        <ele>67.1</ele>
        <time>2018-04-15T16:53:31Z</time>
      </trkpt>
      <trkpt lat="48.4043" lon="2.71081">
        <ele>67</ele>
        <time>2018-04-15T16:53:32Z</time>
      </trkpt>
      <trkpt lat="48.40432" lon="2.71089">
        <ele>66.9</ele>
        <time>2018-04-15T16:53:33Z</time>
      </trkpt>
      <trkpt lat="48.40434" lon="2.71096">
        <ele>66.8</ele>
        <time>2018-04-15T16:53:34Z</time>
      </trkpt>
      <trkpt lat="48.40437" lon="2.71103">
        <ele>66.7</ele>
        <time>2018-04-15T16:53:35Z</time>
      </trkpt>
      <trkpt lat="48.4044" lon="2.7111">
        <ele>66.6</ele>
        <time>2018-04-15T16:53:36Z</time>
      </trkpt>
      <trkpt lat="48.40442" lon="2.71116">
        <ele>66.6</ele>
        <time>2018-04-15T16:53:37Z</time>
      </trkpt>
      <trkpt lat="48.40445" lon="2.71122">
        <ele>66.5</ele>
        <time>2018-04-15T16:53:38Z</time>
      </trkpt>
      <trkpt lat="48.40447" lon="2.71129">
        <ele>66.5</ele>
        <time>2018-04-15T16:53:39Z</time>
      </trkpt>
      <trkpt lat="48.40449" lon="2.71137">
        <ele>66.4</ele>
        <time>2018-04-15T16:53:40Z</time>
      </trkpt>
      <trkpt lat="48.40452" lon="2.71144">
        <ele>66.3</ele>
        <time>2018-04-15T16:53:41Z</time>
      </trkpt>
      <trkpt lat="48.40455" lon="2.71153">
        <ele>66.3</ele>
        <time>2018-04-15T16:53:42Z</time>
      </trkpt>
      <trkpt lat="48.40457" lon="2.71161">
        <ele>66.2</ele>
        <time>2018-04-15T16:53:43Z</time>
      </trkpt>
      <trkpt lat="48.4046" lon="2.71169">
        <ele>66.2</ele>
        <time>2018-04-15T16:53:44Z</time>
      </trkpt>
      <trkpt lat="48.40463" lon="2.71177">
        <ele>66.1</ele>
        <time>2018-04-15T16:53:45Z</time>
      </trkpt>
      <trkpt lat="48.40465" lon="2.71184">
        <ele>66.1</ele>
        <time>2018-04-15T16:53:46Z</time>
      </trkpt>
      <trkpt lat="48.40468" lon="2.71192">
        <ele>66</ele>
        <time>2018-04-15T16:53:47Z</time>
      </trkpt>
      <trkpt lat="48.40471" lon="2.71201">
        <ele>66</ele>
        <time>2018-04-15T16:53:48Z</time>
      </trkpt>
      <trkpt lat="48.40473" lon="2.71208">
        <ele>65.9</ele>
        <time>2018-04-15T16:53:49Z</time>
      </trkpt>
      <trkpt lat="48.40476" lon="2.71216">
        <ele>65.8</ele>
        <time>2018-04-15T16:53:50Z</time>
      </trkpt>
      <trkpt lat="48.40478" lon="2.71225">
        <ele>65.8</ele>
        <time>2018-04-15T16:53:51Z</time>
      </trkpt>
      <trkpt lat="48.40481" lon="2.71233">
        <ele>65.7</ele>
        <time>2018-04-15T16:53:52Z</time>
      </trkpt>
      <trkpt lat="48.40483" lon="2.71241">
        <ele>65.7</ele>
        <time>2018-04-15T16:53:53Z</time>
      </trkpt>
      <trkpt lat="48.40486" lon="2.71248">
        <ele>65.6</ele>
        <time>2018-04-15T16:53:54Z</time>
      </trkpt>
      <trkpt lat="48.40489" lon="2.71256">
        <ele>65.5</ele>
        <time>2018-04-15T16:53:55Z</time>
      </trkpt>
      <trkpt lat="48.40492" lon="2.71264">
        <ele>65.4</ele>
        <time>2018-04-15T16:53:56Z</time>
      </trkpt>
      <trkpt lat="48.40494" lon="2.71272">
        <ele>65.4</ele>
        <time>2018-04-15T16:53:57Z</time>
      </trkpt>
      <trkpt lat="48.40497" lon="2.71279">
        <ele>65.3</ele>
        <time>2018-04-15T16:53:58Z</time>
      </trkpt>
      <trkpt lat="48.405" lon="2.71287">
        <ele>65.3</ele>
        <time>2018-04-15T16:53:59Z</time>
      </trkpt>
      <trkpt lat="48.40502" lon="2.71295">
        <ele>65.2</ele>
        <time>2018-04-15T16:54:00Z</time>
      </trkpt>
      <trkpt lat="48.40506" lon="2.71304">
        <ele>65.2</ele>
        <time>2018-04-15T16:54:01Z</time>
      </trkpt>
      <trkpt lat="48.40509" lon="2.71313">
        <ele>65.1</ele>
        <time>2018-04-15T16:54:02Z</time>
      </trkpt>
      <trkpt lat="48.40512" lon="2.71322">
        <ele>65.1</ele>
        <time>2018-04-15T16:54:03Z</time>
      </trkpt>
      <trkpt lat="48.40515" lon="2.71331">
        <ele>65</ele>
        <time>2018-04-15T16:54:04Z</time>
      </trkpt>
      <trkpt lat="48.40518" lon="2.71339">
        <ele>64.9</ele>
        <time>2018-04-15T16:54:05Z</time>
      </trkpt>
      <trkpt lat="48.40522" lon="2.71347">
        <ele>64.9</ele>
        <time>2018-04-15T16:54:06Z</time>
      </trkpt>
      <trkpt lat="48.40524" lon="2.71354">
        <ele>64.9</ele>
        <time>2018-04-15T16:54:07Z</time>
      </trkpt>
      <trkpt lat="48.40527" lon="2.71363">
        <ele>64.8</ele>
        <time>2018-04-15T16:54:08Z</time>
      </trkpt>
      <trkpt lat="48.40529" lon="2.71372">
        <ele>64.8</ele>
        <time>2018-04-15T16:54:09Z</time>
      </trkpt>
      <trkpt lat="48.40533" lon="2.7138">
        <ele>64.7</ele>
        <time>2018-04-15T16:54:10Z</time>
      </trkpt>
      <trkpt lat="48.40536" lon="2.71388">
        <ele>64.7</ele>
        <time>2018-04-15T16:54:11Z</time>
      </trkpt>
      <trkpt lat="48.40538" lon="2.71395">
        <ele>64.6</ele>
        <time>2018-04-15T16:54:12Z</time>
      </trkpt>
      <trkpt lat="48.40541" lon="2.71403">
        <ele>64.6</ele>
        <time>2018-04-15T16:54:13Z</time>
      </trkpt>
      <trkpt lat="48.40543" lon="2.71412">
        <ele>64.6</ele>
        <time>2018-04-15T16:54:14Z</time>
      </trkpt>
      <trkpt lat="48.40545" lon="2.7142">
        <ele>64.6</ele>
        <time>2018-04-15T16:54:15Z</time>
      </trkpt>
      <trkpt lat="48.40548" lon="2.71428">
        <ele>64.6</ele>
        <time>2018-04-15T16:54:16Z</time>
      </trkpt>
      <trkpt lat="48.40551" lon="2.71436">
        <ele>64.6</ele>
        <time>2018-04-15T16:54:17Z</time>
      </trkpt>
      <trkpt lat="48.40553" lon="2.71444">
        <ele>64.6</ele>
        <time>2018-04-15T16:54:18Z</time>
      </trkpt>
      <trkpt lat="48.40555" lon="2.71451">
        <ele>64.6</ele>
        <time>2018-04-15T16:54:19Z</time>
      </trkpt>
      <trkpt lat="48.40558" lon="2.7146">
        <ele>64.7</ele>
        <time>2018-04-15T16:54:20Z</time>
      </trkpt>
      <trkpt lat="48.40562" lon="2.71468">
        <ele>64.7</ele>
        <time>2018-04-15T16:54:21Z</time>
      </trkpt>
      <trkpt lat="48.40564" lon="2.71477">
        <ele>64.7</ele>
        <time>2018-04-15T16:54:22Z</time>
      </trkpt>
      <trkpt lat="48.40566" lon="2.71484">
        <ele>64.8</ele>
        <time>2018-04-15T16:54:23Z</time>
      </trkpt>
      <trkpt lat="48.40569" lon="2.71493">
        <ele>64.9</ele>
        <time>2018-04-15T16:54:24Z</time>
      </trkpt>
      <trkpt lat="48.40572" lon="2.71503">
        <ele>65.1</ele>
        <time>2018-04-15T16:54:25Z</time>
      </trkpt>
      <trkpt lat="48.40574" lon="2.71512">
        <ele>65.3</ele>
        <time>2018-04-15T16:54:26Z</time>
      </trkpt>
      <trkpt lat="48.40577" lon="2.71521">
        <ele>65.3</ele>
        <time>2018-04-15T16:54:27Z</time>
      </trkpt>
      <trkpt lat="48.40579" lon="2.71528">
        <ele>65.3</ele>
        <time>2018-04-15T16:54:28Z</time>
      </trkpt>
      <trkpt lat="48.40582" lon="2.71536">
        <ele>65.3</ele>
        <time>2018-04-15T16:54:29Z</time>
      </trkpt>
      <trkpt lat="48.40584" lon="2.71543">
        <ele>65.3</ele>
        <time>2018-04-15T16:54:30Z</time>
      </trkpt>
      <trkpt lat="48.40586" lon="2.7155">
        <ele>65.3</ele>
        <time>2018-04-15T16:54:31Z</time>
      </trkpt>
      <trkpt lat="48.40588" lon="2.71556">
        <ele>65.3</ele>
        <time>2018-04-15T16:54:32Z</time>
      </trkpt>
      <trkpt lat="48.40591" lon="2.71562">
        <ele>65.2</ele>
        <time>2018-04-15T16:54:33Z</time>
      </trkpt>
      <trkpt lat="48.40593" lon="2.71568">
        <ele>65.2</ele>
        <time>2018-04-15T16:54:34Z</time>
      </trkpt>
      <trkpt lat="48.40595" lon="2.71575">
        <ele>65.2</ele>
        <time>2018-04-15T16:54:35Z</time>
      </trkpt>
      <trkpt lat="48.40597" lon="2.71581">
        <ele>65.2</ele>
        <time>2018-04-15T16:54:36Z</time>
      </trkpt>
      <trkpt lat="48.406" lon="2.71588">
        <ele>65.2</ele>
        <time>2018-04-15T16:54:37Z</time>
      </trkpt>
      <trkpt lat="48.40602" lon="2.71595">
        <ele>65.1</ele>
        <time>2018-04-15T16:54:38Z</time>
      </trkpt>
      <trkpt lat="48.40605" lon="2.71603">
        <ele>65.1</ele>
        <time>2018-04-15T16:54:39Z</time>
      </trkpt>
      <trkpt lat="48.40608" lon="2.71611">
        <ele>65.1</ele>
        <time>2018-04-15T16:54:40Z</time>
      </trkpt>
      <trkpt lat="48.4061" lon="2.71618">
        <ele>65.1</ele>
        <time>2018-04-15T16:54:41Z</time>
      </trkpt>
      <trkpt lat="48.40613" lon="2.71625">
        <ele>65.1</ele>
        <time>2018-04-15T16:54:42Z</time>
      </trkpt>
      <trkpt lat="48.40615" lon="2.71632">
        <ele>65</ele>
        <time>2018-04-15T16:54:43Z</time>
      </trkpt>
      <trkpt lat="48.40618" lon="2.7164">
        <ele>65</ele>
        <time>2018-04-15T16:54:44Z</time>
      </trkpt>
      <trkpt lat="48.40621" lon="2.71648">
        <ele>65</ele>
        <time>2018-04-15T16:54:45Z</time>
      </trkpt>
      <trkpt lat="48.40624" lon="2.71657">
        <ele>65</ele>
        <time>2018-04-15T16:54:46Z</time>
      </trkpt>
      <trkpt lat="48.40627" lon="2.71665">
        <ele>64.9</ele>
        <time>2018-04-15T16:54:47Z</time>
      </trkpt>
      <trkpt lat="48.40629" lon="2.71673">
        <ele>64.9</ele>
        <time>2018-04-15T16:54:48Z</time>
      </trkpt>
      <trkpt lat="48.40631" lon="2.71683">
        <ele>64.9</ele>
        <time>2018-04-15T16:54:49Z</time>
      </trkpt>
      <trkpt lat="48.40633" lon="2.71691">
        <ele>64.8</ele>
        <time>2018-04-15T16:54:50Z</time>
      </trkpt>
      <trkpt lat="48.40635" lon="2.71698">
        <ele>64.8</ele>
        <time>2018-04-15T16:54:51Z</time>
      </trkpt>
      <trkpt lat="48.40638" lon="2.71706">
        <ele>64.8</ele>
        <time>2018-04-15T16:54:52Z</time>
      </trkpt>
      <trkpt lat="48.4064" lon="2.71715">
        <ele>64.8</ele>
        <time>2018-04-15T16:54:53Z</time>
      </trkpt>
      <trkpt lat="48.40643" lon="2.71724">
        <ele>64.7</ele>
        <time>2018-04-15T16:54:54Z</time>
      </trkpt>
      <trkpt lat="48.40646" lon="2.71731">
        <ele>64.7</ele>
        <time>2018-04-15T16:54:55Z</time>
      </trkpt>
      <trkpt lat="48.40648" lon="2.71741">
        <ele>64.7</ele>
        <time>2018-04-15T16:54:56Z</time>
      </trkpt>
      <trkpt lat="48.40651" lon="2.71749">
        <ele>64.6</ele>
        <time>2018-04-15T16:54:57Z</time>
      </trkpt>
      <trkpt lat="48.40654" lon="2.71757">
        <ele>64.6</ele>
        <time>2018-04-15T16:54:58Z</time>
      </trkpt>
      <trkpt lat="48.40657" lon="2.71765">
        <ele>64.6</ele>
        <time>2018-04-15T16:54:59Z</time>
      </trkpt>
      <trkpt lat="48.4066" lon="2.71773">
        <ele>64.5</ele>
        <time>2018-04-15T16:55:00Z</time>
      </trkpt>
      <trkpt lat="48.40663" lon="2.7178">
        <ele>64.5</ele>
        <time>2018-04-15T16:55:01Z</time>
      </trkpt>
      <trkpt lat="48.40666" lon="2.71788">
        <ele>64.4</ele>
        <time>2018-04-15T16:55:02Z</time>
      </trkpt>
      <trkpt lat="48.40669" lon="2.71797">
        <ele>64.4</ele>
        <time>2018-04-15T16:55:03Z</time>
      </trkpt>
      <trkpt lat="48.40671" lon="2.71806">
        <ele>64.4</ele>
        <time>2018-04-15T16:55:04Z</time>
      </trkpt>
      <trkpt lat="48.40675" lon="2.71816">
        <ele>64.3</ele>
        <time>2018-04-15T16:55:05Z</time>
      </trkpt>
      <trkpt lat="48.40678" lon="2.71825">
        <ele>64.3</ele>
        <time>2018-04-15T16:55:06Z</time>
      </trkpt>
      <trkpt lat="48.4068" lon="2.71833">
        <ele>64.2</ele>
        <time>2018-04-15T16:55:07Z</time>
      </trkpt>
      <trkpt lat="48.40683" lon="2.71841">
        <ele>64.2</ele>
        <time>2018-04-15T16:55:08Z</time>
      </trkpt>
      <trkpt lat="48.40686" lon="2.7185">
        <ele>64.1</ele>
        <time>2018-04-15T16:55:09Z</time>
      </trkpt>
      <trkpt lat="48.40688" lon="2.71858">
        <ele>64.1</ele>
        <time>2018-04-15T16:55:10Z</time>
      </trkpt>
      <trkpt lat="48.4069" lon="2.71867">
        <ele>64.1</ele>
        <time>2018-04-15T16:55:11Z</time>
      </trkpt>
      <trkpt lat="48.40693" lon="2.71876">
        <ele>64</ele>
        <time>2018-04-15T16:55:12Z</time>
      </trkpt>
      <trkpt lat="48.40696" lon="2.71884">
        <ele>64</ele>
        <time>2018-04-15T16:55:13Z</time>
      </trkpt>
      <trkpt lat="48.40699" lon="2.71892">
        <ele>63.9</ele>
        <time>2018-04-15T16:55:14Z</time>
      </trkpt>
      <trkpt lat="48.40702" lon="2.719">
        <ele>63.8</ele>
        <time>2018-04-15T16:55:15Z</time>
      </trkpt>
      <trkpt lat="48.40704" lon="2.71908">
        <ele>63.8</ele>
        <time>2018-04-15T16:55:16Z</time>
      </trkpt>
      <trkpt lat="48.40706" lon="2.71916">
        <ele>63.7</ele>
        <time>2018-04-15T16:55:17Z</time>
      </trkpt>
      <trkpt lat="48.40709" lon="2.71923">
        <ele>63.7</ele>
        <time>2018-04-15T16:55:18Z</time>
      </trkpt>
      <trkpt lat="48.40712" lon="2.7193">
        <ele>63.5</ele>
        <time>2018-04-15T16:55:19Z</time>
      </trkpt>
      <trkpt lat="48.40715" lon="2.71938">
        <ele>63.5</ele>
        <time>2018-04-15T16:55:20Z</time>
      </trkpt>
      <trkpt lat="48.40717" lon="2.71946">
        <ele>63.4</ele>
        <time>2018-04-15T16:55:21Z</time>
      </trkpt>
      <trkpt lat="48.40719" lon="2.71954">
        <ele>63.3</ele>
        <time>2018-04-15T16:55:22Z</time>
      </trkpt>
      <trkpt lat="48.40722" lon="2.7196">
        <ele>63.2</ele>
        <time>2018-04-15T16:55:23Z</time>
      </trkpt>
      <trkpt lat="48.40725" lon="2.71966">
        <ele>63.2</ele>
        <time>2018-04-15T16:55:24Z</time>
      </trkpt>
      <trkpt lat="48.40728" lon="2.71975">
        <ele>63.1</ele>
        <time>2018-04-15T16:55:25Z</time>
      </trkpt>
      <trkpt lat="48.4073" lon="2.71984">
        <ele>63.1</ele>
        <time>2018-04-15T16:55:26Z</time>
      </trkpt>
      <trkpt lat="48.40732" lon="2.71992">
        <ele>63</ele>
        <time>2018-04-15T16:55:27Z</time>
      </trkpt>
      <trkpt lat="48.40733" lon="2.72">
        <ele>63</ele>
        <time>2018-04-15T16:55:28Z</time>
      </trkpt>
      <trkpt lat="48.40733" lon="2.72008">
        <ele>63.2</ele>
        <time>2018-04-15T16:55:29Z</time>
      </trkpt>
      <trkpt lat="48.40731" lon="2.72012">
        <ele>63.2</ele>
        <time>2018-04-15T16:55:30Z</time>
      </trkpt>
      <trkpt lat="48.40728" lon="2.72016">
        <ele>63.3</ele>
        <time>2018-04-15T16:55:31Z</time>
      </trkpt>
      <trkpt lat="48.40725" lon="2.72017">
        <ele>63.4</ele>
        <time>2018-04-15T16:55:32Z</time>
      </trkpt>
      <trkpt lat="48.40721" lon="2.7202">
        <ele>63.5</ele>
        <time>2018-04-15T16:55:34Z</time>
      </trkpt>
      <trkpt lat="48.40717" lon="2.72022">
        <ele>63.6</ele>
        <time>2018-04-15T16:55:36Z</time>
      </trkpt>
      <trkpt lat="48.40714" lon="2.72025">
        <ele>63.6</ele>
        <time>2018-04-15T16:55:37Z</time>
      </trkpt>
      <trkpt lat="48.40711" lon="2.72027">
        <ele>63.6</ele>
        <time>2018-04-15T16:55:38Z</time>
      </trkpt>
      <trkpt lat="48.40708" lon="2.72031">
        <ele>63.7</ele>
        <time>2018-04-15T16:55:39Z</time>
      </trkpt>
      <trkpt lat="48.40705" lon="2.72033">
        <ele>63.7</ele>
        <time>2018-04-15T16:55:40Z</time>
      </trkpt>
      <trkpt lat="48.40703" lon="2.72036">
        <ele>63.7</ele>
        <time>2018-04-15T16:55:41Z</time>
      </trkpt>
      <trkpt lat="48.40699" lon="2.7204">
        <ele>63.7</ele>
        <time>2018-04-15T16:55:42Z</time>
      </trkpt>
      <trkpt lat="48.40695" lon="2.72043">
        <ele>63.7</ele>
        <time>2018-04-15T16:55:43Z</time>
      </trkpt>
      <trkpt lat="48.40692" lon="2.72045">
        <ele>63.8</ele>
        <time>2018-04-15T16:55:44Z</time>
      </trkpt>
      <trkpt lat="48.40689" lon="2.72047">
        <ele>63.8</ele>
        <time>2018-04-15T16:55:45Z</time>
      </trkpt>
      <trkpt lat="48.40685" lon="2.7205">
        <ele>63.9</ele>
        <time>2018-04-15T16:55:47Z</time>
      </trkpt>
      <trkpt lat="48.40682" lon="2.72053">
        <ele>63.9</ele>
        <time>2018-04-15T16:55:48Z</time>
      </trkpt>
      <trkpt lat="48.40677" lon="2.72055">
        <ele>64</ele>
        <time>2018-04-15T16:55:49Z</time>
      </trkpt>
      <trkpt lat="48.40673" lon="2.72054">
        <ele>64</ele>
        <time>2018-04-15T16:55:50Z</time>
      </trkpt>
      <trkpt lat="48.40669" lon="2.72051">
        <ele>64</ele>
        <time>2018-04-15T16:55:51Z</time>
      </trkpt>
      <trkpt lat="48.40668" lon="2.72046">
        <ele>64</ele>
        <time>2018-04-15T16:55:52Z</time>
      </trkpt>
      <trkpt lat="48.40667" lon="2.72041">
        <ele>64.1</ele>
        <time>2018-04-15T16:55:53Z</time>
      </trkpt>
      <trkpt lat="48.40666" lon="2.72037">
        <ele>64.1</ele>
        <time>2018-04-15T16:55:54Z</time>
      </trkpt>
      <trkpt lat="48.40664" lon="2.7203">
        <ele>64.2</ele>
        <time>2018-04-15T16:55:56Z</time>
      </trkpt>
      <trkpt lat="48.40662" lon="2.72023">
        <ele>64.4</ele>
        <time>2018-04-15T16:55:58Z</time>
      </trkpt>
      <trkpt lat="48.4066" lon="2.7202">
        <ele>64.4</ele>
        <time>2018-04-15T16:55:59Z</time>
      </trkpt>
      <trkpt lat="48.40658" lon="2.72015">
        <ele>64.5</ele>
        <time>2018-04-15T16:56:00Z</time>
      </trkpt>
      <trkpt lat="48.40655" lon="2.72011">
        <ele>64.6</ele>
        <time>2018-04-15T16:56:01Z</time>
      </trkpt>
      <trkpt lat="48.40652" lon="2.72005">
        <ele>64.7</ele>
        <time>2018-04-15T16:56:02Z</time>
      </trkpt>
      <trkpt lat="48.40649" lon="2.72001">
        <ele>64.7</ele>
        <time>2018-04-15T16:56:03Z</time>
      </trkpt>
      <trkpt lat="48.40647" lon="2.71997">
        <ele>64.8</ele>
        <time>2018-04-15T16:56:04Z</time>
      </trkpt>
      <trkpt lat="48.40645" lon="2.71991">
        <ele>64.9</ele>
        <time>2018-04-15T16:56:06Z</time>
      </trkpt>
      <trkpt lat="48.40643" lon="2.71987">
        <ele>64.9</ele>
        <time>2018-04-15T16:56:07Z</time>
      </trkpt>
      <trkpt lat="48.40641" lon="2.71984">
        <ele>65</ele>
        <time>2018-04-15T16:56:09Z</time>
      </trkpt>
      <trkpt lat="48.40639" lon="2.71977">
        <ele>65.1</ele>
        <time>2018-04-15T16:56:11Z</time>
      </trkpt>
      <trkpt lat="48.40637" lon="2.71974">
        <ele>65.1</ele>
        <time>2018-04-15T16:56:24Z</time>
      </trkpt>
      <trkpt lat="48.40638" lon="2.71971">
        <ele>65.2</ele>
        <time>2018-04-15T16:56:26Z</time>
      </trkpt>
      <trkpt lat="48.40641" lon="2.71969">
        <ele>65.2</ele>
        <time>2018-04-15T16:56:29Z</time>
      </trkpt>
      <trkpt lat="48.4064" lon="2.71965">
        <ele>65.3</ele>
        <time>2018-04-15T16:56:32Z</time>
      </trkpt>
      <trkpt lat="48.40642" lon="2.71968">
        <ele>65.3</ele>
        <time>2018-04-15T16:56:36Z</time>
      </trkpt>
      <trkpt lat="48.40643" lon="2.71972">
        <ele>65.4</ele>
        <time>2018-04-15T16:57:30Z</time>
      </trkpt>
      <trkpt lat="48.4064" lon="2.7197">
        <ele>65.4</ele>
        <time>2018-04-15T16:58:11Z</time>
      </trkpt>
      <trkpt lat="48.40638" lon="2.71968">
        <ele>65.4</ele>
        <time>2018-04-15T16:59:20Z</time>
      </trkpt>
      <trkpt lat="48.40638" lon="2.71972">
        <ele>65.4</ele>
        <time>2018-04-15T17:00:19Z</time>
      </trkpt>
      <trkpt lat="48.40638" lon="2.71976">
        <ele>65.4</ele>
        <time>2018-04-15T17:01:48Z</time>
      </trkpt>
      <trkpt lat="48.40636" lon="2.71979">
        <ele>65.4</ele>
        <time>2018-04-15T17:10:24Z</time>
      </trkpt>
      <trkpt lat="48.40636" lon="2.71983">
        <ele>65.4</ele>
        <time>2018-04-15T17:10:44Z</time>
      </trkpt>
      <trkpt lat="48.40637" lon="2.71987">
        <ele>65.4</ele>
        <time>2018-04-15T17:11:06Z</time>
      </trkpt>
      <trkpt lat="48.40637" lon="2.71983">
        <ele>65.4</ele>
        <time>2018-04-15T17:12:19Z</time>
      </trkpt>
      <trkpt lat="48.40637" lon="2.71979">
        <ele>65.5</ele>
        <time>2018-04-15T17:15:01Z</time>
      </trkpt>
      <trkpt lat="48.40639" lon="2.7198">
        <ele>65.3</ele>
        <time>2018-04-15T17:16:04Z</time>
      </trkpt>
      <trkpt lat="48.4064" lon="2.71974">
        <ele>65.4</ele>
        <time>2018-04-15T17:16:30Z</time>
      </trkpt>
      <trkpt lat="48.40638" lon="2.71969">
        <ele>65.5</ele>
        <time>2018-04-15T17:16:32Z</time>
      </trkpt>
      <trkpt lat="48.40636" lon="2.71961">
        <ele>65.6</ele>
        <time>2018-04-15T17:16:34Z</time>
      </trkpt>
      <trkpt lat="48.40635" lon="2.71955">
        <ele>65.7</ele>
        <time>2018-04-15T17:16:36Z</time>
      </trkpt>
      <trkpt lat="48.40632" lon="2.71948">
        <ele>65.8</ele>
        <time>2018-04-15T17:16:38Z</time>
      </trkpt>
      <trkpt lat="48.40631" lon="2.71942">
        <ele>65.9</ele>
        <time>2018-04-15T17:16:39Z</time>
      </trkpt>
      <trkpt lat="48.4063" lon="2.71938">
        <ele>66</ele>
        <time>2018-04-15T17:16:40Z</time>
      </trkpt>
      <trkpt lat="48.40628" lon="2.71933">
        <ele>66</ele>
        <time>2018-04-15T17:16:41Z</time>
      </trkpt>
      <trkpt lat="48.40626" lon="2.71929">
        <ele>66.1</ele>
        <time>2018-04-15T17:16:42Z</time>
      </trkpt>
      <trkpt lat="48.40625" lon="2.71924">
        <ele>66.2</ele>
        <time>2018-04-15T17:16:43Z</time>
      </trkpt>
      <trkpt lat="48.40623" lon="2.7192">
        <ele>66.3</ele>
        <time>2018-04-15T17:16:44Z</time>
      </trkpt>
      <trkpt lat="48.40622" lon="2.71916">
        <ele>66.3</ele>
        <time>2018-04-15T17:16:45Z</time>
      </trkpt>
      <trkpt lat="48.4062" lon="2.71912">
        <ele>66.4</ele>
        <time>2018-04-15T17:16:46Z</time>
      </trkpt>
      <trkpt lat="48.40619" lon="2.71909">
        <ele>66.4</ele>
        <time>2018-04-15T17:16:47Z</time>
      </trkpt>
      <trkpt lat="48.40617" lon="2.71905">
        <ele>66.5</ele>
        <time>2018-04-15T17:16:48Z</time>
      </trkpt>
      <trkpt lat="48.40616" lon="2.719">
        <ele>66.6</ele>
        <time>2018-04-15T17:16:49Z</time>
      </trkpt>
      <trkpt lat="48.40614" lon="2.71895">
        <ele>66.7</ele>
        <time>2018-04-15T17:16:50Z</time>
      </trkpt>
      <trkpt lat="48.40613" lon="2.71891">
        <ele>66.7</ele>
        <time>2018-04-15T17:16:51Z</time>
      </trkpt>
      <trkpt lat="48.40611" lon="2.71887">
        <ele>66.8</ele>
        <time>2018-04-15T17:16:52Z</time>
      </trkpt>
      <trkpt lat="48.4061" lon="2.71882">
        <ele>66.9</ele>
        <time>2018-04-15T17:16:53Z</time>
      </trkpt>
      <trkpt lat="48.40609" lon="2.71878">
        <ele>66.9</ele>
        <time>2018-04-15T17:16:54Z</time>
      </trkpt>
      <trkpt lat="48.40607" lon="2.71872">
        <ele>67.1</ele>
        <time>2018-04-15T17:16:56Z</time>
      </trkpt>
      <trkpt lat="48.40605" lon="2.71867">
        <ele>67.1</ele>
        <time>2018-04-15T17:16:57Z</time>
      </trkpt>
      <trkpt lat="48.40603" lon="2.71859">
        <ele>67.3</ele>
        <time>2018-04-15T17:16:59Z</time>
      </trkpt>
      <trkpt lat="48.40601" lon="2.71854">
        <ele>67.3</ele>
        <time>2018-04-15T17:17:00Z</time>
      </trkpt>
      <trkpt lat="48.40599" lon="2.71846">
        <ele>67.5</ele>
        <time>2018-04-15T17:17:02Z</time>
      </trkpt>
      <trkpt lat="48.40597" lon="2.71841">
        <ele>67.6</ele>
        <time>2018-04-15T17:17:03Z</time>
      </trkpt>
      <trkpt lat="48.40596" lon="2.71835">
        <ele>67.6</ele>
        <time>2018-04-15T17:17:04Z</time>
      </trkpt>
      <trkpt lat="48.40594" lon="2.71829">
        <ele>67.7</ele>
        <time>2018-04-15T17:17:05Z</time>
      </trkpt>
      <trkpt lat="48.40592" lon="2.71824">
        <ele>67.8</ele>
        <time>2018-04-15T17:17:06Z</time>
      </trkpt>
      <trkpt lat="48.4059" lon="2.71819">
        <ele>67.9</ele>
        <time>2018-04-15T17:17:07Z</time>
      </trkpt>
      <trkpt lat="48.40588" lon="2.71815">
        <ele>67.9</ele>
        <time>2018-04-15T17:17:08Z</time>
      </trkpt>
      <trkpt lat="48.40586" lon="2.7181">
        <ele>68</ele>
        <time>2018-04-15T17:17:09Z</time>
      </trkpt>
      <trkpt lat="48.40584" lon="2.71806">
        <ele>68.1</ele>
        <time>2018-04-15T17:17:10Z</time>
      </trkpt>
      <trkpt lat="48.40582" lon="2.71801">
        <ele>68.1</ele>
        <time>2018-04-15T17:17:11Z</time>
      </trkpt>
      <trkpt lat="48.4058" lon="2.71795">
        <ele>68.2</ele>
        <time>2018-04-15T17:17:12Z</time>
      </trkpt>
      <trkpt lat="48.40578" lon="2.71789">
        <ele>68.3</ele>
        <time>2018-04-15T17:17:13Z</time>
      </trkpt>
      <trkpt lat="48.40576" lon="2.71783">
        <ele>68.4</ele>
        <time>2018-04-15T17:17:14Z</time>
      </trkpt>
      <trkpt lat="48.40575" lon="2.71779">
        <ele>68.4</ele>
        <time>2018-04-15T17:17:15Z</time>
      </trkpt>
      <trkpt lat="48.40573" lon="2.71775">
        <ele>68.5</ele>
        <time>2018-04-15T17:17:16Z</time>
      </trkpt>
      <trkpt lat="48.40571" lon="2.7177">
        <ele>68.6</ele>
        <time>2018-04-15T17:17:17Z</time>
      </trkpt>
      <trkpt lat="48.4057" lon="2.71766">
        <ele>68.6</ele>
        <time>2018-04-15T17:17:18Z</time>
      </trkpt>
      <trkpt lat="48.40568" lon="2.71762">
        <ele>68.7</ele>
        <time>2018-04-15T17:17:19Z</time>
      </trkpt>
      <trkpt lat="48.40566" lon="2.71757">
        <ele>68.7</ele>
        <time>2018-04-15T17:17:20Z</time>
      </trkpt>
      <trkpt lat="48.40564" lon="2.71751">
        <ele>68.8</ele>
        <time>2018-04-15T17:17:21Z</time>
      </trkpt>
      <trkpt lat="48.40563" lon="2.71746">
        <ele>68.9</ele>
        <time>2018-04-15T17:17:22Z</time>
      </trkpt>
      <trkpt lat="48.40561" lon="2.7174">
        <ele>68.9</ele>
        <time>2018-04-15T17:17:23Z</time>
      </trkpt>
      <trkpt lat="48.4056" lon="2.71736">
        <ele>69</ele>
        <time>2018-04-15T17:17:24Z</time>
      </trkpt>
      <trkpt lat="48.40559" lon="2.71732">
        <ele>69</ele>
        <time>2018-04-15T17:17:25Z</time>
      </trkpt>
      <trkpt lat="48.40557" lon="2.71726">
        <ele>69.1</ele>
        <time>2018-04-15T17:17:26Z</time>
      </trkpt>
      <trkpt lat="48.40556" lon="2.71721">
        <ele>69.2</ele>
        <time>2018-04-15T17:17:27Z</time>
      </trkpt>
      <trkpt lat="48.40554" lon="2.71716">
        <ele>69.2</ele>
        <time>2018-04-15T17:17:28Z</time>
      </trkpt>
      <trkpt lat="48.40552" lon="2.7171">
        <ele>69.3</ele>
        <time>2018-04-15T17:17:29Z</time>
      </trkpt>
      <trkpt lat="48.40549" lon="2.71705">
        <ele>69.4</ele>
        <time>2018-04-15T17:17:30Z</time>
      </trkpt>
      <trkpt lat="48.40547" lon="2.71701">
        <ele>69.4</ele>
        <time>2018-04-15T17:17:31Z</time>
      </trkpt>
      <trkpt lat="48.40545" lon="2.71698">
        <ele>69.5</ele>
        <time>2018-04-15T17:17:32Z</time>
      </trkpt>
      <trkpt lat="48.40542" lon="2.71695">
        <ele>69.5</ele>
        <time>2018-04-15T17:17:34Z</time>
      </trkpt>
      <trkpt lat="48.4054" lon="2.71691">
        <ele>69.6</ele>
        <time>2018-04-15T17:17:37Z</time>
      </trkpt>
      <trkpt lat="48.40537" lon="2.71685">
        <ele>69.6</ele>
        <time>2018-04-15T17:17:40Z</time>
      </trkpt>
      <trkpt lat="48.40534" lon="2.71682">
        <ele>69.7</ele>
        <time>2018-04-15T17:17:42Z</time>
      </trkpt>
      <trkpt lat="48.40531" lon="2.7168">
        <ele>69.8</ele>
        <time>2018-04-15T17:17:43Z</time>
      </trkpt>
      <trkpt lat="48.40528" lon="2.71676">
        <ele>69.8</ele>
        <time>2018-04-15T17:17:44Z</time>
      </trkpt>
      <trkpt lat="48.40526" lon="2.71672">
        <ele>69.9</ele>
        <time>2018-04-15T17:17:45Z</time>
      </trkpt>
      <trkpt lat="48.40522" lon="2.71668">
        <ele>70.3</ele>
        <time>2018-04-15T17:17:47Z</time>
      </trkpt>
      <trkpt lat="48.40519" lon="2.71666">
        <ele>70.9</ele>
        <time>2018-04-15T17:17:48Z</time>
      </trkpt>
      <trkpt lat="48.40515" lon="2.71661">
        <ele>71.3</ele>
        <time>2018-04-15T17:17:50Z</time>
      </trkpt>
      <trkpt lat="48.40513" lon="2.71658">
        <ele>71.6</ele>
        <time>2018-04-15T17:17:51Z</time>
      </trkpt>
      <trkpt lat="48.40508" lon="2.71655">
        <ele>71.9</ele>
        <time>2018-04-15T17:17:53Z</time>
      </trkpt>
      <trkpt lat="48.40506" lon="2.71652">
        <ele>72.2</ele>
        <time>2018-04-15T17:17:54Z</time>
      </trkpt>
      <trkpt lat="48.40504" lon="2.71649">
        <ele>72.5</ele>
        <time>2018-04-15T17:17:55Z</time>
      </trkpt>
      <trkpt lat="48.40502" lon="2.71643">
        <ele>72.5</ele>
        <time>2018-04-15T17:17:57Z</time>
      </trkpt>
      <trkpt lat="48.40498" lon="2.71639">
        <ele>72.9</ele>
        <time>2018-04-15T17:17:59Z</time>
      </trkpt>
      <trkpt lat="48.40494" lon="2.71633">
        <ele>73.1</ele>
        <time>2018-04-15T17:18:01Z</time>
      </trkpt>
      <trkpt lat="48.40491" lon="2.71629">
        <ele>73.4</ele>
        <time>2018-04-15T17:18:03Z</time>
      </trkpt>
      <trkpt lat="48.40489" lon="2.71626">
        <ele>73.6</ele>
        <time>2018-04-15T17:18:04Z</time>
      </trkpt>
      <trkpt lat="48.40486" lon="2.71621">
        <ele>73.9</ele>
        <time>2018-04-15T17:18:06Z</time>
      </trkpt>
      <trkpt lat="48.40484" lon="2.71617">
        <ele>74.2</ele>
        <time>2018-04-15T17:18:08Z</time>
      </trkpt>
      <trkpt lat="48.40481" lon="2.71611">
        <ele>74.3</ele>
        <time>2018-04-15T17:18:10Z</time>
      </trkpt>
      <trkpt lat="48.40479" lon="2.71608">
        <ele>74.8</ele>
        <time>2018-04-15T17:18:11Z</time>
      </trkpt>
      <trkpt lat="48.40477" lon="2.71605">
        <ele>74.8</ele>
        <time>2018-04-15T17:18:12Z</time>
      </trkpt>
      <trkpt lat="48.40475" lon="2.71602">
        <ele>75.1</ele>
        <time>2018-04-15T17:18:13Z</time>
      </trkpt>
      <trkpt lat="48.40471" lon="2.71597">
        <ele>75.4</ele>
        <time>2018-04-15T17:18:15Z</time>
      </trkpt>
      <trkpt lat="48.40468" lon="2.71592">
        <ele>76.1</ele>
        <time>2018-04-15T17:18:17Z</time>
      </trkpt>
      <trkpt lat="48.40466" lon="2.71588">
        <ele>76.1</ele>
        <time>2018-04-15T17:18:18Z</time>
      </trkpt>
      <trkpt lat="48.40464" lon="2.71585">
        <ele>76.4</ele>
        <time>2018-04-15T17:18:19Z</time>
      </trkpt>
      <trkpt lat="48.40462" lon="2.71583">
        <ele>76.9</ele>
        <time>2018-04-15T17:18:20Z</time>
      </trkpt>
      <trkpt lat="48.4046" lon="2.7158">
        <ele>76.9</ele>
        <time>2018-04-15T17:18:21Z</time>
      </trkpt>
      <trkpt lat="48.40456" lon="2.71574">
        <ele>77.5</ele>
        <time>2018-04-15T17:18:23Z</time>
      </trkpt>
      <trkpt lat="48.40453" lon="2.71568">
        <ele>77.8</ele>
        <time>2018-04-15T17:18:25Z</time>
      </trkpt>
      <trkpt lat="48.4045" lon="2.71563">
        <ele>78</ele>
        <time>2018-04-15T17:18:27Z</time>
      </trkpt>
      <trkpt lat="48.40447" lon="2.71558">
        <ele>78.3</ele>
        <time>2018-04-15T17:18:29Z</time>
      </trkpt>
      <trkpt lat="48.40444" lon="2.71552">
        <ele>78.3</ele>
        <time>2018-04-15T17:18:31Z</time>
      </trkpt>
      <trkpt lat="48.4044" lon="2.71547">
        <ele>78.3</ele>
        <time>2018-04-15T17:18:33Z</time>
      </trkpt>
      <trkpt lat="48.40438" lon="2.71543">
        <ele>78.3</ele>
        <time>2018-04-15T17:18:35Z</time>
      </trkpt>
      <trkpt lat="48.40436" lon="2.71539">
        <ele>78.4</ele>
        <time>2018-04-15T17:18:37Z</time>
      </trkpt>
      <trkpt lat="48.40434" lon="2.71535">
        <ele>78.4</ele>
        <time>2018-04-15T17:18:39Z</time>
      </trkpt>
      <trkpt lat="48.4043" lon="2.7153">
        <ele>78.4</ele>
        <time>2018-04-15T17:18:41Z</time>
      </trkpt>
      <trkpt lat="48.40427" lon="2.71526">
        <ele>78.5</ele>
        <time>2018-04-15T17:18:43Z</time>
      </trkpt>
      <trkpt lat="48.40425" lon="2.71523">
        <ele>78.6</ele>
        <time>2018-04-15T17:18:44Z</time>
      </trkpt>
      <trkpt lat="48.40422" lon="2.71517">
        <ele>79</ele>
        <time>2018-04-15T17:18:46Z</time>
      </trkpt>
      <trkpt lat="48.40418" lon="2.71511">
        <ele>79</ele>
        <time>2018-04-15T17:18:48Z</time>
      </trkpt>
      <trkpt lat="48.40415" lon="2.71506">
        <ele>79.2</ele>
        <time>2018-04-15T17:18:50Z</time>
      </trkpt>
      <trkpt lat="48.40412" lon="2.71501">
        <ele>79.5</ele>
        <time>2018-04-15T17:18:52Z</time>
      </trkpt>
      <trkpt lat="48.4041" lon="2.71498">
        <ele>79.5</ele>
        <time>2018-04-15T17:18:53Z</time>
      </trkpt>
      <trkpt lat="48.40406" lon="2.71494">
        <ele>79.7</ele>
        <time>2018-04-15T17:18:55Z</time>
      </trkpt>
      <trkpt lat="48.40402" lon="2.7149">
        <ele>80</ele>
        <time>2018-04-15T17:18:57Z</time>
      </trkpt>
      <trkpt lat="48.404" lon="2.71488">
        <ele>80.1</ele>
        <time>2018-04-15T17:18:58Z</time>
      </trkpt>
      <trkpt lat="48.40397" lon="2.71484">
        <ele>80.4</ele>
        <time>2018-04-15T17:19:00Z</time>
      </trkpt>
      <trkpt lat="48.40393" lon="2.7148">
        <ele>80.6</ele>
        <time>2018-04-15T17:19:02Z</time>
      </trkpt>
      <trkpt lat="48.40391" lon="2.71477">
        <ele>80.7</ele>
        <time>2018-04-15T17:19:03Z</time>
      </trkpt>
      <trkpt lat="48.40387" lon="2.71471">
        <ele>81</ele>
        <time>2018-04-15T17:19:05Z</time>
      </trkpt>
      <trkpt lat="48.40385" lon="2.71467">
        <ele>81.2</ele>
        <time>2018-04-15T17:19:06Z</time>
      </trkpt>
      <trkpt lat="48.40382" lon="2.71461">
        <ele>81.5</ele>
        <time>2018-04-15T17:19:08Z</time>
      </trkpt>
      <trkpt lat="48.40379" lon="2.71457">
        <ele>81.7</ele>
        <time>2018-04-15T17:19:09Z</time>
      </trkpt>
      <trkpt lat="48.40377" lon="2.71455">
        <ele>81.7</ele>
        <time>2018-04-15T17:19:10Z</time>
      </trkpt>
      <trkpt lat="48.40375" lon="2.71452">
        <ele>81.7</ele>
        <time>2018-04-15T17:19:11Z</time>
      </trkpt>
      <trkpt lat="48.4037" lon="2.71447">
        <ele>81.8</ele>
        <time>2018-04-15T17:19:13Z</time>
      </trkpt>
      <trkpt lat="48.40367" lon="2.71442">
        <ele>81.9</ele>
        <time>2018-04-15T17:19:14Z</time>
      </trkpt>
      <trkpt lat="48.40363" lon="2.71438">
        <ele>81.9</ele>
        <time>2018-04-15T17:19:15Z</time>
      </trkpt>
      <trkpt lat="48.40361" lon="2.71435">
        <ele>81.9</ele>
        <time>2018-04-15T17:19:16Z</time>
      </trkpt>
      <trkpt lat="48.40358" lon="2.7143">
        <ele>82</ele>
        <time>2018-04-15T17:19:17Z</time>
      </trkpt>
      <trkpt lat="48.40355" lon="2.71426">
        <ele>82.1</ele>
        <time>2018-04-15T17:19:18Z</time>
      </trkpt>
      <trkpt lat="48.40353" lon="2.71422">
        <ele>82.1</ele>
        <time>2018-04-15T17:19:19Z</time>
      </trkpt>
      <trkpt lat="48.4035" lon="2.71417">
        <ele>82</ele>
        <time>2018-04-15T17:19:20Z</time>
      </trkpt>
      <trkpt lat="48.40348" lon="2.71414">
        <ele>81.9</ele>
        <time>2018-04-15T17:19:21Z</time>
      </trkpt>
      <trkpt lat="48.40346" lon="2.71411">
        <ele>81.9</ele>
        <time>2018-04-15T17:19:22Z</time>
      </trkpt>
      <trkpt lat="48.40342" lon="2.71405">
        <ele>81.8</ele>
        <time>2018-04-15T17:19:24Z</time>
      </trkpt>
      <trkpt lat="48.4034" lon="2.71402">
        <ele>81.8</ele>
        <time>2018-04-15T17:19:25Z</time>
      </trkpt>
      <trkpt lat="48.40337" lon="2.71397">
        <ele>81.8</ele>
        <time>2018-04-15T17:19:26Z</time>
      </trkpt>
      <trkpt lat="48.40333" lon="2.7139">
        <ele>81.9</ele>
        <time>2018-04-15T17:19:28Z</time>
      </trkpt>
      <trkpt lat="48.4033" lon="2.71385">
        <ele>82</ele>
        <time>2018-04-15T17:19:29Z</time>
      </trkpt>
      <trkpt lat="48.40326" lon="2.71382">
        <ele>81.9</ele>
        <time>2018-04-15T17:19:30Z</time>
      </trkpt>
      <trkpt lat="48.40323" lon="2.71378">
        <ele>81.9</ele>
        <time>2018-04-15T17:19:31Z</time>
      </trkpt>
      <trkpt lat="48.40321" lon="2.71375">
        <ele>81.8</ele>
        <time>2018-04-15T17:19:32Z</time>
      </trkpt>
      <trkpt lat="48.40318" lon="2.71371">
        <ele>81.7</ele>
        <time>2018-04-15T17:19:33Z</time>
      </trkpt>
      <trkpt lat="48.40315" lon="2.71369">
        <ele>81.6</ele>
        <time>2018-04-15T17:19:34Z</time>
      </trkpt>
      <trkpt lat="48.40312" lon="2.71364">
        <ele>81.5</ele>
        <time>2018-04-15T17:19:35Z</time>
      </trkpt>
      <trkpt lat="48.40311" lon="2.7136">
        <ele>81.4</ele>
        <time>2018-04-15T17:19:36Z</time>
      </trkpt>
      <trkpt lat="48.40308" lon="2.71355">
        <ele>81.2</ele>
        <time>2018-04-15T17:19:38Z</time>
      </trkpt>
      <trkpt lat="48.40305" lon="2.71351">
        <ele>81</ele>
        <time>2018-04-15T17:19:40Z</time>
      </trkpt>
      <trkpt lat="48.40303" lon="2.71344">
        <ele>80.7</ele>
        <time>2018-04-15T17:19:42Z</time>
      </trkpt>
      <trkpt lat="48.40302" lon="2.7134">
        <ele>80.6</ele>
        <time>2018-04-15T17:19:43Z</time>
      </trkpt>
      <trkpt lat="48.403" lon="2.71336">
        <ele>80.4</ele>
        <time>2018-04-15T17:19:44Z</time>
      </trkpt>
      <trkpt lat="48.40298" lon="2.71332">
        <ele>80.2</ele>
        <time>2018-04-15T17:19:45Z</time>
      </trkpt>
      <trkpt lat="48.40295" lon="2.71328">
        <ele>80.1</ele>
        <time>2018-04-15T17:19:46Z</time>
      </trkpt>
      <trkpt lat="48.40294" lon="2.71323">
        <ele>79.9</ele>
        <time>2018-04-15T17:19:47Z</time>
      </trkpt>
      <trkpt lat="48.40293" lon="2.71317">
        <ele>79.7</ele>
        <time>2018-04-15T17:19:48Z</time>
      </trkpt>
      <trkpt lat="48.40292" lon="2.71309">
        <ele>79.3</ele>
        <time>2018-04-15T17:19:49Z</time>
      </trkpt>
      <trkpt lat="48.40291" lon="2.71303">
        <ele>78.9</ele>
        <time>2018-04-15T17:19:50Z</time>
      </trkpt>
      <trkpt lat="48.40289" lon="2.71297">
        <ele>78.5</ele>
        <time>2018-04-15T17:19:51Z</time>
      </trkpt>
      <trkpt lat="48.40287" lon="2.71291">
        <ele>78.1</ele>
        <time>2018-04-15T17:19:52Z</time>
      </trkpt>
      <trkpt lat="48.40286" lon="2.71285">
        <ele>77.8</ele>
        <time>2018-04-15T17:19:53Z</time>
      </trkpt>
      <trkpt lat="48.40284" lon="2.71279">
        <ele>77.4</ele>
        <time>2018-04-15T17:19:54Z</time>
      </trkpt>
      <trkpt lat="48.40281" lon="2.71272">
        <ele>77.1</ele>
        <time>2018-04-15T17:19:55Z</time>
      </trkpt>
      <trkpt lat="48.40278" lon="2.71264">
        <ele>76.7</ele>
        <time>2018-04-15T17:19:56Z</time>
      </trkpt>
      <trkpt lat="48.40275" lon="2.71257">
        <ele>76.5</ele>
        <time>2018-04-15T17:19:57Z</time>
      </trkpt>
      <trkpt lat="48.40273" lon="2.71249">
        <ele>76.2</ele>
        <time>2018-04-15T17:19:58Z</time>
      </trkpt>
      <trkpt lat="48.40271" lon="2.71243">
        <ele>75.9</ele>
        <time>2018-04-15T17:19:59Z</time>
      </trkpt>
      <trkpt lat="48.4027" lon="2.71235">
        <ele>75.6</ele>
        <time>2018-04-15T17:20:00Z</time>
      </trkpt>
      <trkpt lat="48.40268" lon="2.71228">
        <ele>75.3</ele>
        <time>2018-04-15T17:20:01Z</time>
      </trkpt>
      <trkpt lat="48.40266" lon="2.71219">
        <ele>75.1</ele>
        <time>2018-04-15T17:20:02Z</time>
      </trkpt>
      <trkpt lat="48.40263" lon="2.71212">
        <ele>74.9</ele>
        <time>2018-04-15T17:20:03Z</time>
      </trkpt>
      <trkpt lat="48.40261" lon="2.71206">
        <ele>74.7</ele>
        <time>2018-04-15T17:20:04Z</time>
      </trkpt>
      <trkpt lat="48.40259" lon="2.71199">
        <ele>74.5</ele>
        <time>2018-04-15T17:20:05Z</time>
      </trkpt>
      <trkpt lat="48.40257" lon="2.71192">
        <ele>74.3</ele>
        <time>2018-04-15T17:20:06Z</time>
      </trkpt>
      <trkpt lat="48.40254" lon="2.71186">
        <ele>74.1</ele>
        <time>2018-04-15T17:20:07Z</time>
      </trkpt>
      <trkpt lat="48.40251" lon="2.71179">
        <ele>73.8</ele>
        <time>2018-04-15T17:20:08Z</time>
      </trkpt>
      <trkpt lat="48.40249" lon="2.7117">
        <ele>73.6</ele>
        <time>2018-04-15T17:20:09Z</time>
      </trkpt>
      <trkpt lat="48.40247" lon="2.7116">
        <ele>73.4</ele>
        <time>2018-04-15T17:20:10Z</time>
      </trkpt>
      <trkpt lat="48.40244" lon="2.71149">
        <ele>73.2</ele>
        <time>2018-04-15T17:20:11Z</time>
      </trkpt>
      <trkpt lat="48.40239" lon="2.71139">
        <ele>73</ele>
        <time>2018-04-15T17:20:12Z</time>
      </trkpt>
      <trkpt lat="48.40234" lon="2.71126">
        <ele>72.8</ele>
        <time>2018-04-15T17:20:13Z</time>
      </trkpt>
      <trkpt lat="48.4023" lon="2.71117">
        <ele>72.6</ele>
        <time>2018-04-15T17:20:14Z</time>
      </trkpt>
      <trkpt lat="48.40225" lon="2.71106">
        <ele>72.5</ele>
        <time>2018-04-15T17:20:15Z</time>
      </trkpt>
      <trkpt lat="48.4022" lon="2.71095">
        <ele>72.4</ele>
        <time>2018-04-15T17:20:16Z</time>
      </trkpt>
      <trkpt lat="48.40215" lon="2.71083">
        <ele>72.3</ele>
        <time>2018-04-15T17:20:17Z</time>
      </trkpt>
      <trkpt lat="48.40211" lon="2.71071">
        <ele>72.3</ele>
        <time>2018-04-15T17:20:18Z</time>
      </trkpt>
      <trkpt lat="48.40207" lon="2.71062">
        <ele>72.3</ele>
        <time>2018-04-15T17:20:19Z</time>
      </trkpt>
      <trkpt lat="48.40204" lon="2.71052">
        <ele>72.3</ele>
        <time>2018-04-15T17:20:20Z</time>
      </trkpt>
      <trkpt lat="48.40201" lon="2.71044">
        <ele>72.3</ele>
        <time>2018-04-15T17:20:21Z</time>
      </trkpt>
      <trkpt lat="48.40198" lon="2.71036">
        <ele>72.2</ele>
        <time>2018-04-15T17:20:22Z</time>
      </trkpt>
      <trkpt lat="48.40195" lon="2.71027">
        <ele>72.1</ele>
        <time>2018-04-15T17:20:23Z</time>
      </trkpt>
      <trkpt lat="48.40192" lon="2.71018">
        <ele>72</ele>
        <time>2018-04-15T17:20:24Z</time>
      </trkpt>
      <trkpt lat="48.40189" lon="2.71009">
        <ele>71.9</ele>
        <time>2018-04-15T17:20:25Z</time>
      </trkpt>
      <trkpt lat="48.40186" lon="2.71001">
        <ele>71.8</ele>
        <time>2018-04-15T17:20:26Z</time>
      </trkpt>
      <trkpt lat="48.40183" lon="2.70993">
        <ele>71.5</ele>
        <time>2018-04-15T17:20:27Z</time>
      </trkpt>
      <trkpt lat="48.40181" lon="2.70986">
        <ele>71.4</ele>
        <time>2018-04-15T17:20:28Z</time>
      </trkpt>
      <trkpt lat="48.40179" lon="2.70979">
        <ele>71.2</ele>
        <time>2018-04-15T17:20:29Z</time>
      </trkpt>
      <trkpt lat="48.40177" lon="2.70972">
        <ele>71.1</ele>
        <time>2018-04-15T17:20:30Z</time>
      </trkpt>
      <trkpt lat="48.40175" lon="2.70963">
        <ele>70.9</ele>
        <time>2018-04-15T17:20:31Z</time>
      </trkpt>
      <trkpt lat="48.40173" lon="2.70955">
        <ele>70.8</ele>
        <time>2018-04-15T17:20:32Z</time>
      </trkpt>
      <trkpt lat="48.4017" lon="2.70947">
        <ele>70.6</ele>
        <time>2018-04-15T17:20:33Z</time>
      </trkpt>
      <trkpt lat="48.40168" lon="2.70939">
        <ele>70.5</ele>
        <time>2018-04-15T17:20:34Z</time>
      </trkpt>
      <trkpt lat="48.40165" lon="2.7093">
        <ele>70.4</ele>
        <time>2018-04-15T17:20:35Z</time>
      </trkpt>
      <trkpt lat="48.40163" lon="2.70922">
        <ele>70.4</ele>
        <time>2018-04-15T17:20:36Z</time>
      </trkpt>
      <trkpt lat="48.4016" lon="2.70915">
        <ele>70.4</ele>
        <time>2018-04-15T17:20:37Z</time>
      </trkpt>
      <trkpt lat="48.40158" lon="2.70909">
        <ele>70.3</ele>
        <time>2018-04-15T17:20:38Z</time>
      </trkpt>
      <trkpt lat="48.40157" lon="2.70901">
        <ele>70.2</ele>
        <time>2018-04-15T17:20:39Z</time>
      </trkpt>
      <trkpt lat="48.40155" lon="2.70893">
        <ele>70.2</ele>
        <time>2018-04-15T17:20:40Z</time>
      </trkpt>
      <trkpt lat="48.40154" lon="2.70886">
        <ele>70.2</ele>
        <time>2018-04-15T17:20:41Z</time>
      </trkpt>
      <trkpt lat="48.40152" lon="2.7088">
        <ele>70.1</ele>
        <time>2018-04-15T17:20:42Z</time>
      </trkpt>
      <trkpt lat="48.40149" lon="2.70876">
        <ele>70.2</ele>
        <time>2018-04-15T17:20:43Z</time>
      </trkpt>
      <trkpt lat="48.40147" lon="2.70871">
        <ele>70.2</ele>
        <time>2018-04-15T17:20:44Z</time>
      </trkpt>
      <trkpt lat="48.40144" lon="2.70866">
        <ele>70.2</ele>
        <time>2018-04-15T17:20:45Z</time>
      </trkpt>
      <trkpt lat="48.40142" lon="2.70862">
        <ele>70.2</ele>
        <time>2018-04-15T17:20:46Z</time>
      </trkpt>
      <trkpt lat="48.40139" lon="2.70857">
        <ele>70.3</ele>
        <time>2018-04-15T17:20:47Z</time>
      </trkpt>
      <trkpt lat="48.40137" lon="2.70852">
        <ele>70.3</ele>
        <time>2018-04-15T17:20:48Z</time>
      </trkpt>
      <trkpt lat="48.40134" lon="2.70847">
        <ele>70.3</ele>
        <time>2018-04-15T17:20:49Z</time>
      </trkpt>
      <trkpt lat="48.40132" lon="2.70842">
        <ele>70.3</ele>
        <time>2018-04-15T17:20:50Z</time>
      </trkpt>
      <trkpt lat="48.40129" lon="2.70839">
        <ele>70.3</ele>
        <time>2018-04-15T17:20:51Z</time>
      </trkpt>
      <trkpt lat="48.40127" lon="2.70834">
        <ele>70.3</ele>
        <time>2018-04-15T17:20:52Z</time>
      </trkpt>
      <trkpt lat="48.40124" lon="2.70829">
        <ele>70.3</ele>
        <time>2018-04-15T17:20:53Z</time>
      </trkpt>
      <trkpt lat="48.40122" lon="2.70824">
        <ele>70.4</ele>
        <time>2018-04-15T17:20:54Z</time>
      </trkpt>
      <trkpt lat="48.40121" lon="2.70819">
        <ele>70.4</ele>
        <time>2018-04-15T17:20:55Z</time>
      </trkpt>
      <trkpt lat="48.4012" lon="2.70815">
        <ele>70.4</ele>
        <time>2018-04-15T17:20:56Z</time>
      </trkpt>
      <trkpt lat="48.40117" lon="2.7081">
        <ele>70.4</ele>
        <time>2018-04-15T17:20:57Z</time>
      </trkpt>
      <trkpt lat="48.40115" lon="2.70803">
        <ele>70.4</ele>
        <time>2018-04-15T17:20:58Z</time>
      </trkpt>
      <trkpt lat="48.40113" lon="2.70797">
        <ele>70.4</ele>
        <time>2018-04-15T17:20:59Z</time>
      </trkpt>
      <trkpt lat="48.40111" lon="2.70792">
        <ele>70.4</ele>
        <time>2018-04-15T17:21:00Z</time>
      </trkpt>
      <trkpt lat="48.40109" lon="2.70787">
        <ele>70.4</ele>
        <time>2018-04-15T17:21:01Z</time>
      </trkpt>
      <trkpt lat="48.40107" lon="2.70782">
        <ele>70.4</ele>
        <time>2018-04-15T17:21:02Z</time>
      </trkpt>
      <trkpt lat="48.40105" lon="2.70776">
        <ele>70.3</ele>
        <time>2018-04-15T17:21:03Z</time>
      </trkpt>
      <trkpt lat="48.40103" lon="2.70771">
        <ele>70.3</ele>
        <time>2018-04-15T17:21:04Z</time>
      </trkpt>
      <trkpt lat="48.40102" lon="2.70766">
        <ele>70.2</ele>
        <time>2018-04-15T17:21:05Z</time>
      </trkpt>
      <trkpt lat="48.401" lon="2.70761">
        <ele>70.1</ele>
        <time>2018-04-15T17:21:06Z</time>
      </trkpt>
      <trkpt lat="48.40098" lon="2.70756">
        <ele>70</ele>
        <time>2018-04-15T17:21:07Z</time>
      </trkpt>
      <trkpt lat="48.40096" lon="2.70751">
        <ele>70</ele>
        <time>2018-04-15T17:21:08Z</time>
      </trkpt>
      <trkpt lat="48.40094" lon="2.70748">
        <ele>70.7</ele>
        <time>2018-04-15T17:21:09Z</time>
      </trkpt>
      <trkpt lat="48.40091" lon="2.70747">
        <ele>71.1</ele>
        <time>2018-04-15T17:21:10Z</time>
      </trkpt>
      <trkpt lat="48.40089" lon="2.70749">
        <ele>71.6</ele>
        <time>2018-04-15T17:21:11Z</time>
      </trkpt>
      <trkpt lat="48.40086" lon="2.70752">
        <ele>72.2</ele>
        <time>2018-04-15T17:21:12Z</time>
      </trkpt>
      <trkpt lat="48.40083" lon="2.70755">
        <ele>72.8</ele>
        <time>2018-04-15T17:21:13Z</time>
      </trkpt>
      <trkpt lat="48.4008" lon="2.70758">
        <ele>73.3</ele>
        <time>2018-04-15T17:21:14Z</time>
      </trkpt>
      <trkpt lat="48.40078" lon="2.70761">
        <ele>73.8</ele>
        <time>2018-04-15T17:21:15Z</time>
      </trkpt>
      <trkpt lat="48.40075" lon="2.70763">
        <ele>74.4</ele>
        <time>2018-04-15T17:21:16Z</time>
      </trkpt>
      <trkpt lat="48.40072" lon="2.70765">
        <ele>74.9</ele>
        <time>2018-04-15T17:21:17Z</time>
      </trkpt>
      <trkpt lat="48.40068" lon="2.70765">
        <ele>75.7</ele>
        <time>2018-04-15T17:21:19Z</time>
      </trkpt>
      <trkpt lat="48.40065" lon="2.70763">
        <ele>76.2</ele>
        <time>2018-04-15T17:21:21Z</time>
      </trkpt>
      <trkpt lat="48.40061" lon="2.70763">
        <ele>77.9</ele>
        <time>2018-04-15T17:21:23Z</time>
      </trkpt>
      <trkpt lat="48.40059" lon="2.70768">
        <ele>77.6</ele>
        <time>2018-04-15T17:21:25Z</time>
      </trkpt>
      <trkpt lat="48.40055" lon="2.70772">
        <ele>77.7</ele>
        <time>2018-04-15T17:21:27Z</time>
      </trkpt>
      <trkpt lat="48.40052" lon="2.70774">
        <ele>77.8</ele>
        <time>2018-04-15T17:21:28Z</time>
      </trkpt>
      <trkpt lat="48.40048" lon="2.70776">
        <ele>77.9</ele>
        <time>2018-04-15T17:21:30Z</time>
      </trkpt>
      <trkpt lat="48.40046" lon="2.70778">
        <ele>78</ele>
        <time>2018-04-15T17:21:34Z</time>
      </trkpt>
      <trkpt lat="48.40042" lon="2.70782">
        <ele>78.2</ele>
        <time>2018-04-15T17:21:36Z</time>
      </trkpt>
      <trkpt lat="48.4004" lon="2.70785">
        <ele>78.2</ele>
        <time>2018-04-15T17:21:37Z</time>
      </trkpt>
      <trkpt lat="48.40038" lon="2.7079">
        <ele>78.3</ele>
        <time>2018-04-15T17:21:39Z</time>
      </trkpt>
      <trkpt lat="48.40036" lon="2.70794">
        <ele>78.4</ele>
        <time>2018-04-15T17:21:41Z</time>
      </trkpt>
      <trkpt lat="48.40034" lon="2.70799">
        <ele>78.5</ele>
        <time>2018-04-15T17:21:43Z</time>
      </trkpt>
      <trkpt lat="48.40032" lon="2.70805">
        <ele>78.6</ele>
        <time>2018-04-15T17:21:45Z</time>
      </trkpt>
      <trkpt lat="48.40029" lon="2.70811">
        <ele>78.9</ele>
        <time>2018-04-15T17:21:47Z</time>
      </trkpt>
      <trkpt lat="48.40028" lon="2.70815">
        <ele>79</ele>
        <time>2018-04-15T17:21:48Z</time>
      </trkpt>
      <trkpt lat="48.40027" lon="2.70819">
        <ele>79.2</ele>
        <time>2018-04-15T17:21:49Z</time>
      </trkpt>
      <trkpt lat="48.40025" lon="2.70823">
        <ele>79.3</ele>
        <time>2018-04-15T17:21:50Z</time>
      </trkpt>
      <trkpt lat="48.40023" lon="2.70827">
        <ele>79.4</ele>
        <time>2018-04-15T17:21:51Z</time>
      </trkpt>
      <trkpt lat="48.40021" lon="2.7083">
        <ele>79.5</ele>
        <time>2018-04-15T17:21:52Z</time>
      </trkpt>
      <trkpt lat="48.40019" lon="2.70835">
        <ele>79.6</ele>
        <time>2018-04-15T17:21:53Z</time>
      </trkpt>
      <trkpt lat="48.40017" lon="2.70838">
        <ele>79.7</ele>
        <time>2018-04-15T17:21:54Z</time>
      </trkpt>
      <trkpt lat="48.40015" lon="2.70842">
        <ele>79.9</ele>
        <time>2018-04-15T17:21:55Z</time>
      </trkpt>
      <trkpt lat="48.40013" lon="2.70848">
        <ele>80.1</ele>
        <time>2018-04-15T17:21:57Z</time>
      </trkpt>
      <trkpt lat="48.40011" lon="2.70852">
        <ele>80.2</ele>
        <time>2018-04-15T17:21:59Z</time>
      </trkpt>
      <trkpt lat="48.40009" lon="2.70858">
        <ele>80.3</ele>
        <time>2018-04-15T17:22:01Z</time>
      </trkpt>
      <trkpt lat="48.40007" lon="2.70862">
        <ele>80.5</ele>
        <time>2018-04-15T17:22:03Z</time>
      </trkpt>
      <trkpt lat="48.40006" lon="2.70866">
        <ele>80.6</ele>
        <time>2018-04-15T17:22:05Z</time>
      </trkpt>
      <trkpt lat="48.40007" lon="2.70872">
        <ele>80.7</ele>
        <time>2018-04-15T17:22:07Z</time>
      </trkpt>
      <trkpt lat="48.40008" lon="2.70878">
        <ele>80.8</ele>
        <time>2018-04-15T17:22:08Z</time>
      </trkpt>
      <trkpt lat="48.4001" lon="2.70884">
        <ele>81</ele>
        <time>2018-04-15T17:22:09Z</time>
      </trkpt>
      <trkpt lat="48.40012" lon="2.70891">
        <ele>81.1</ele>
        <time>2018-04-15T17:22:10Z</time>
      </trkpt>
      <trkpt lat="48.40013" lon="2.70896">
        <ele>81</ele>
        <time>2018-04-15T17:22:11Z</time>
      </trkpt>
      <trkpt lat="48.40014" lon="2.70903">
        <ele>81</ele>
        <time>2018-04-15T17:22:13Z</time>
      </trkpt>
      <trkpt lat="48.40013" lon="2.7091">
        <ele>81</ele>
        <time>2018-04-15T17:22:53Z</time>
      </trkpt>
      <trkpt lat="48.40016" lon="2.70905">
        <ele>81</ele>
        <time>2018-04-15T17:22:55Z</time>
      </trkpt>
      <trkpt lat="48.40015" lon="2.70898">
        <ele>81</ele>
        <time>2018-04-15T17:22:57Z</time>
      </trkpt>
      <trkpt lat="48.40014" lon="2.70895">
        <ele>81.4</ele>
        <time>2018-04-15T17:22:58Z</time>
      </trkpt>
      <trkpt lat="48.4001" lon="2.70888">
        <ele>82.1</ele>
        <time>2018-04-15T17:23:00Z</time>
      </trkpt>
      <trkpt lat="48.40009" lon="2.70885">
        <ele>82.5</ele>
        <time>2018-04-15T17:23:01Z</time>
      </trkpt>
      <trkpt lat="48.40006" lon="2.70881">
        <ele>83.2</ele>
        <time>2018-04-15T17:23:03Z</time>
      </trkpt>
      <trkpt lat="48.40003" lon="2.70877">
        <ele>83.8</ele>
        <time>2018-04-15T17:23:06Z</time>
      </trkpt>
      <trkpt lat="48.40001" lon="2.70872">
        <ele>84.2</ele>
        <time>2018-04-15T17:23:09Z</time>
      </trkpt>
      <trkpt lat="48.4" lon="2.70868">
        <ele>84.5</ele>
        <time>2018-04-15T17:23:11Z</time>
      </trkpt>
      <trkpt lat="48.39999" lon="2.70863">
        <ele>84.8</ele>
        <time>2018-04-15T17:23:13Z</time>
      </trkpt>
      <trkpt lat="48.39996" lon="2.70856">
        <ele>85.1</ele>
        <time>2018-04-15T17:23:15Z</time>
      </trkpt>
      <trkpt lat="48.39995" lon="2.7085">
        <ele>85.5</ele>
        <time>2018-04-15T17:23:17Z</time>
      </trkpt>
      <trkpt lat="48.39993" lon="2.70846">
        <ele>85.7</ele>
        <time>2018-04-15T17:23:18Z</time>
      </trkpt>
      <trkpt lat="48.3999" lon="2.70842">
        <ele>86</ele>
        <time>2018-04-15T17:23:20Z</time>
      </trkpt>
      <trkpt lat="48.39988" lon="2.70839">
        <ele>86.2</ele>
        <time>2018-04-15T17:23:23Z</time>
      </trkpt>
      <trkpt lat="48.39985" lon="2.70838">
        <ele>86.4</ele>
        <time>2018-04-15T17:23:25Z</time>
      </trkpt>
      <trkpt lat="48.39981" lon="2.70841">
        <ele>87.5</ele>
        <time>2018-04-15T17:23:27Z</time>
      </trkpt>
      <trkpt lat="48.39978" lon="2.70843">
        <ele>87.6</ele>
        <time>2018-04-15T17:23:28Z</time>
      </trkpt>
      <trkpt lat="48.39975" lon="2.70844">
        <ele>87.7</ele>
        <time>2018-04-15T17:23:29Z</time>
      </trkpt>
      <trkpt lat="48.39972" lon="2.70846">
        <ele>87.7</ele>
        <time>2018-04-15T17:23:30Z</time>
      </trkpt>
      <trkpt lat="48.3997" lon="2.70847">
        <ele>87.8</ele>
        <time>2018-04-15T17:23:31Z</time>
      </trkpt>
      <trkpt lat="48.39965" lon="2.7085">
        <ele>87.9</ele>
        <time>2018-04-15T17:23:33Z</time>
      </trkpt>
      <trkpt lat="48.39961" lon="2.70852">
        <ele>87.9</ele>
        <time>2018-04-15T17:23:35Z</time>
      </trkpt>
      <trkpt lat="48.39956" lon="2.70855">
        <ele>88</ele>
        <time>2018-04-15T17:23:37Z</time>
      </trkpt>
      <trkpt lat="48.39951" lon="2.70858">
        <ele>88</ele>
        <time>2018-04-15T17:23:39Z</time>
      </trkpt>
      <trkpt lat="48.39947" lon="2.70861">
        <ele>88</ele>
        <time>2018-04-15T17:23:41Z</time>
      </trkpt>
      <trkpt lat="48.39943" lon="2.70865">
        <ele>87.9</ele>
        <time>2018-04-15T17:23:43Z</time>
      </trkpt>
      <trkpt lat="48.39941" lon="2.70871">
        <ele>87.8</ele>
        <time>2018-04-15T17:23:45Z</time>
      </trkpt>
      <trkpt lat="48.3994" lon="2.70875">
        <ele>87.7</ele>
        <time>2018-04-15T17:23:47Z</time>
      </trkpt>
      <trkpt lat="48.39939" lon="2.70882">
        <ele>87.6</ele>
        <time>2018-04-15T17:23:49Z</time>
      </trkpt>
      <trkpt lat="48.39938" lon="2.70886">
        <ele>87.6</ele>
        <time>2018-04-15T17:23:51Z</time>
      </trkpt>
      <trkpt lat="48.39936" lon="2.70891">
        <ele>87.5</ele>
        <time>2018-04-15T17:23:53Z</time>
      </trkpt>
      <trkpt lat="48.39933" lon="2.70892">
        <ele>88.1</ele>
        <time>2018-04-15T17:23:55Z</time>
      </trkpt>
      <trkpt lat="48.39929" lon="2.70891">
        <ele>88.2</ele>
        <time>2018-04-15T17:23:57Z</time>
      </trkpt>
      <trkpt lat="48.39926" lon="2.70891">
        <ele>88.2</ele>
        <time>2018-04-15T17:23:58Z</time>
      </trkpt>
      <trkpt lat="48.39921" lon="2.70892">
        <ele>88.3</ele>
        <time>2018-04-15T17:24:00Z</time>
      </trkpt>
      <trkpt lat="48.39918" lon="2.70892">
        <ele>88.4</ele>
        <time>2018-04-15T17:24:02Z</time>
      </trkpt>
      <trkpt lat="48.39913" lon="2.70892">
        <ele>88.4</ele>
        <time>2018-04-15T17:24:04Z</time>
      </trkpt>
      <trkpt lat="48.3991" lon="2.70892">
        <ele>88.5</ele>
        <time>2018-04-15T17:24:05Z</time>
      </trkpt>
      <trkpt lat="48.39905" lon="2.70891">
        <ele>89</ele>
        <time>2018-04-15T17:24:07Z</time>
      </trkpt>
      <trkpt lat="48.39899" lon="2.7089">
        <ele>89</ele>
        <time>2018-04-15T17:24:09Z</time>
      </trkpt>
      <trkpt lat="48.39896" lon="2.70892">
        <ele>89</ele>
        <time>2018-04-15T17:24:10Z</time>
      </trkpt>
      <trkpt lat="48.39893" lon="2.70894">
        <ele>89</ele>
        <time>2018-04-15T17:24:11Z</time>
      </trkpt>
      <trkpt lat="48.3989" lon="2.70896">
        <ele>89</ele>
        <time>2018-04-15T17:24:12Z</time>
      </trkpt>
      <trkpt lat="48.39887" lon="2.70898">
        <ele>89</ele>
        <time>2018-04-15T17:24:13Z</time>
      </trkpt>
      <trkpt lat="48.39884" lon="2.709">
        <ele>89</ele>
        <time>2018-04-15T17:24:14Z</time>
      </trkpt>
      <trkpt lat="48.3988" lon="2.70903">
        <ele>88.9</ele>
        <time>2018-04-15T17:24:15Z</time>
      </trkpt>
      <trkpt lat="48.39877" lon="2.70906">
        <ele>88.7</ele>
        <time>2018-04-15T17:24:16Z</time>
      </trkpt>
      <trkpt lat="48.39874" lon="2.7091">
        <ele>88.4</ele>
        <time>2018-04-15T17:24:17Z</time>
      </trkpt>
      <trkpt lat="48.39871" lon="2.70912">
        <ele>88.3</ele>
        <time>2018-04-15T17:24:18Z</time>
      </trkpt>
      <trkpt lat="48.39868" lon="2.70914">
        <ele>88.2</ele>
        <time>2018-04-15T17:24:19Z</time>
      </trkpt>
      <trkpt lat="48.39866" lon="2.70916">
        <ele>88.1</ele>
        <time>2018-04-15T17:24:20Z</time>
      </trkpt>
      <trkpt lat="48.39863" lon="2.70918">
        <ele>88</ele>
        <time>2018-04-15T17:24:21Z</time>
      </trkpt>
      <trkpt lat="48.39859" lon="2.70921">
        <ele>87.9</ele>
        <time>2018-04-15T17:24:22Z</time>
      </trkpt>
      <trkpt lat="48.39857" lon="2.70923">
        <ele>87.8</ele>
        <time>2018-04-15T17:24:23Z</time>
      </trkpt>
      <trkpt lat="48.39853" lon="2.70927">
        <ele>87.6</ele>
        <time>2018-04-15T17:24:25Z</time>
      </trkpt>
      <trkpt lat="48.39851" lon="2.7093">
        <ele>87.5</ele>
        <time>2018-04-15T17:24:26Z</time>
      </trkpt>
      <trkpt lat="48.39848" lon="2.70933">
        <ele>87.4</ele>
        <time>2018-04-15T17:24:27Z</time>
      </trkpt>
      <trkpt lat="48.39845" lon="2.70936">
        <ele>87.3</ele>
        <time>2018-04-15T17:24:28Z</time>
      </trkpt>
      <trkpt lat="48.39842" lon="2.70939">
        <ele>87.2</ele>
        <time>2018-04-15T17:24:29Z</time>
      </trkpt>
      <trkpt lat="48.39839" lon="2.70942">
        <ele>87.1</ele>
        <time>2018-04-15T17:24:30Z</time>
      </trkpt>
      <trkpt lat="48.39835" lon="2.70946">
        <ele>87</ele>
        <time>2018-04-15T17:24:31Z</time>
      </trkpt>
      <trkpt lat="48.39831" lon="2.7095">
        <ele>86.9</ele>
        <time>2018-04-15T17:24:32Z</time>
      </trkpt>
      <trkpt lat="48.39827" lon="2.70953">
        <ele>86.8</ele>
        <time>2018-04-15T17:24:33Z</time>
      </trkpt>
      <trkpt lat="48.39823" lon="2.70956">
        <ele>86.7</ele>
        <time>2018-04-15T17:24:34Z</time>
      </trkpt>
      <trkpt lat="48.3982" lon="2.70958">
        <ele>86.6</ele>
        <time>2018-04-15T17:24:35Z</time>
      </trkpt>
      <trkpt lat="48.39816" lon="2.70962">
        <ele>86.5</ele>
        <time>2018-04-15T17:24:36Z</time>
      </trkpt>
      <trkpt lat="48.39813" lon="2.70965">
        <ele>86.4</ele>
        <time>2018-04-15T17:24:37Z</time>
      </trkpt>
      <trkpt lat="48.39809" lon="2.70967">
        <ele>86.3</ele>
        <time>2018-04-15T17:24:38Z</time>
      </trkpt>
      <trkpt lat="48.39806" lon="2.7097">
        <ele>86.2</ele>
        <time>2018-04-15T17:24:39Z</time>
      </trkpt>
      <trkpt lat="48.39803" lon="2.70973">
        <ele>86.1</ele>
        <time>2018-04-15T17:24:40Z</time>
      </trkpt>
      <trkpt lat="48.39798" lon="2.70977">
        <ele>86</ele>
        <time>2018-04-15T17:24:41Z</time>
      </trkpt>
      <trkpt lat="48.39794" lon="2.70981">
        <ele>85.8</ele>
        <time>2018-04-15T17:24:42Z</time>
      </trkpt>
      <trkpt lat="48.3979" lon="2.70985">
        <ele>85.6</ele>
        <time>2018-04-15T17:24:43Z</time>
      </trkpt>
      <trkpt lat="48.39787" lon="2.70988">
        <ele>85.5</ele>
        <time>2018-04-15T17:24:44Z</time>
      </trkpt>
      <trkpt lat="48.39783" lon="2.70991">
        <ele>85.3</ele>
        <time>2018-04-15T17:24:45Z</time>
      </trkpt>
      <trkpt lat="48.3978" lon="2.70994">
        <ele>85.1</ele>
        <time>2018-04-15T17:24:46Z</time>
      </trkpt>
      <trkpt lat="48.39776" lon="2.70997">
        <ele>84.9</ele>
        <time>2018-04-15T17:24:47Z</time>
      </trkpt>
      <trkpt lat="48.39773" lon="2.71001">
        <ele>84.6</ele>
        <time>2018-04-15T17:24:48Z</time>
      </trkpt>
      <trkpt lat="48.39769" lon="2.71005">
        <ele>84.3</ele>
        <time>2018-04-15T17:24:49Z</time>
      </trkpt>
      <trkpt lat="48.39764" lon="2.71009">
        <ele>84</ele>
        <time>2018-04-15T17:24:50Z</time>
      </trkpt>
      <trkpt lat="48.39761" lon="2.71012">
        <ele>83.9</ele>
        <time>2018-04-15T17:24:51Z</time>
      </trkpt>
      <trkpt lat="48.39758" lon="2.71015">
        <ele>83.8</ele>
        <time>2018-04-15T17:24:52Z</time>
      </trkpt>
      <trkpt lat="48.39753" lon="2.71017">
        <ele>83.7</ele>
        <time>2018-04-15T17:24:53Z</time>
      </trkpt>
      <trkpt lat="48.3975" lon="2.71019">
        <ele>83.6</ele>
        <time>2018-04-15T17:24:54Z</time>
      </trkpt>
      <trkpt lat="48.39746" lon="2.71021">
        <ele>83.5</ele>
        <time>2018-04-15T17:24:55Z</time>
      </trkpt>
      <trkpt lat="48.39742" lon="2.71024">
        <ele>83.4</ele>
        <time>2018-04-15T17:24:56Z</time>
      </trkpt>
      <trkpt lat="48.39739" lon="2.71028">
        <ele>83.3</ele>
        <time>2018-04-15T17:24:57Z</time>
      </trkpt>
      <trkpt lat="48.39736" lon="2.71031">
        <ele>83.2</ele>
        <time>2018-04-15T17:24:58Z</time>
      </trkpt>
      <trkpt lat="48.39733" lon="2.71034">
        <ele>83.1</ele>
        <time>2018-04-15T17:24:59Z</time>
      </trkpt>
      <trkpt lat="48.3973" lon="2.71036">
        <ele>83</ele>
        <time>2018-04-15T17:25:00Z</time>
      </trkpt>
      <trkpt lat="48.39727" lon="2.71039">
        <ele>83</ele>
        <time>2018-04-15T17:25:01Z</time>
      </trkpt>
      <trkpt lat="48.39723" lon="2.71042">
        <ele>83.1</ele>
        <time>2018-04-15T17:25:02Z</time>
      </trkpt>
      <trkpt lat="48.3972" lon="2.71044">
        <ele>83.1</ele>
        <time>2018-04-15T17:25:03Z</time>
      </trkpt>
      <trkpt lat="48.39717" lon="2.71046">
        <ele>83.2</ele>
        <time>2018-04-15T17:25:04Z</time>
      </trkpt>
      <trkpt lat="48.39713" lon="2.71049">
        <ele>83.2</ele>
        <time>2018-04-15T17:25:05Z</time>
      </trkpt>
      <trkpt lat="48.3971" lon="2.71051">
        <ele>83.3</ele>
        <time>2018-04-15T17:25:06Z</time>
      </trkpt>
      <trkpt lat="48.39706" lon="2.71053">
        <ele>83.3</ele>
        <time>2018-04-15T17:25:07Z</time>
      </trkpt>
      <trkpt lat="48.39703" lon="2.71054">
        <ele>83.4</ele>
        <time>2018-04-15T17:25:08Z</time>
      </trkpt>
      <trkpt lat="48.397" lon="2.71057">
        <ele>83.4</ele>
        <time>2018-04-15T17:25:09Z</time>
      </trkpt>
      <trkpt lat="48.39697" lon="2.71059">
        <ele>83.5</ele>
        <time>2018-04-15T17:25:10Z</time>
      </trkpt>
      <trkpt lat="48.39694" lon="2.71062">
        <ele>83.6</ele>
        <time>2018-04-15T17:25:11Z</time>
      </trkpt>
      <trkpt lat="48.39691" lon="2.71065">
        <ele>83.6</ele>
        <time>2018-04-15T17:25:12Z</time>
      </trkpt>
      <trkpt lat="48.39687" lon="2.71066">
        <ele>83.7</ele>
        <time>2018-04-15T17:25:13Z</time>
      </trkpt>
      <trkpt lat="48.39683" lon="2.71066">
        <ele>83.8</ele>
        <time>2018-04-15T17:25:14Z</time>
      </trkpt>
      <trkpt lat="48.3968" lon="2.71066">
        <ele>83.9</ele>
        <time>2018-04-15T17:25:15Z</time>
      </trkpt>
      <trkpt lat="48.39676" lon="2.71066">
        <ele>84</ele>
        <time>2018-04-15T17:25:16Z</time>
      </trkpt>
      <trkpt lat="48.39673" lon="2.71064">
        <ele>84</ele>
        <time>2018-04-15T17:25:17Z</time>
      </trkpt>
      <trkpt lat="48.39671" lon="2.71062">
        <ele>84.1</ele>
        <time>2018-04-15T17:25:18Z</time>
      </trkpt>
      <trkpt lat="48.39668" lon="2.7106">
        <ele>84.4</ele>
        <time>2018-04-15T17:25:25Z</time>
      </trkpt>
      <trkpt lat="48.39665" lon="2.7106">
        <ele>84.6</ele>
        <time>2018-04-15T17:25:27Z</time>
      </trkpt>
      <trkpt lat="48.3966" lon="2.71063">
        <ele>85.2</ele>
        <time>2018-04-15T17:25:29Z</time>
      </trkpt>
      <trkpt lat="48.39655" lon="2.71068">
        <ele>85.6</ele>
        <time>2018-04-15T17:25:31Z</time>
      </trkpt>
      <trkpt lat="48.39654" lon="2.71074">
        <ele>86</ele>
        <time>2018-04-15T17:25:32Z</time>
      </trkpt>
      <trkpt lat="48.39653" lon="2.7108">
        <ele>86.2</ele>
        <time>2018-04-15T17:25:33Z</time>
      </trkpt>
      <trkpt lat="48.39652" lon="2.71086">
        <ele>86.5</ele>
        <time>2018-04-15T17:25:34Z</time>
      </trkpt>
      <trkpt lat="48.39651" lon="2.71092">
        <ele>86.8</ele>
        <time>2018-04-15T17:25:35Z</time>
      </trkpt>
      <trkpt lat="48.39651" lon="2.71099">
        <ele>87.1</ele>
        <time>2018-04-15T17:25:36Z</time>
      </trkpt>
      <trkpt lat="48.3965" lon="2.71105">
        <ele>87.4</ele>
        <time>2018-04-15T17:25:37Z</time>
      </trkpt>
      <trkpt lat="48.3965" lon="2.71111">
        <ele>87.6</ele>
        <time>2018-04-15T17:25:38Z</time>
      </trkpt>
      <trkpt lat="48.39649" lon="2.71118">
        <ele>87.9</ele>
        <time>2018-04-15T17:25:39Z</time>
      </trkpt>
      <trkpt lat="48.39649" lon="2.71125">
        <ele>88.1</ele>
        <time>2018-04-15T17:25:40Z</time>
      </trkpt>
      <trkpt lat="48.39649" lon="2.7113">
        <ele>88.3</ele>
        <time>2018-04-15T17:25:41Z</time>
      </trkpt>
      <trkpt lat="48.39648" lon="2.71136">
        <ele>88.5</ele>
        <time>2018-04-15T17:25:42Z</time>
      </trkpt>
      <trkpt lat="48.39647" lon="2.71142">
        <ele>88.7</ele>
        <time>2018-04-15T17:25:43Z</time>
      </trkpt>
      <trkpt lat="48.39647" lon="2.71147">
        <ele>88.8</ele>
        <time>2018-04-15T17:25:44Z</time>
      </trkpt>
      <trkpt lat="48.39647" lon="2.71151">
        <ele>89</ele>
        <time>2018-04-15T17:25:45Z</time>
      </trkpt>
      <trkpt lat="48.39645" lon="2.71156">
        <ele>89.1</ele>
        <time>2018-04-15T17:25:47Z</time>
      </trkpt>
      <trkpt lat="48.39643" lon="2.71159">
        <ele>89.3</ele>
        <time>2018-04-15T17:25:49Z</time>
      </trkpt>
      <trkpt lat="48.3964" lon="2.71161">
        <ele>89.6</ele>
        <time>2018-04-15T17:25:57Z</time>
      </trkpt>
      <trkpt lat="48.39637" lon="2.71163">
        <ele>89.9</ele>
        <time>2018-04-15T17:26:09Z</time>
      </trkpt>
      <trkpt lat="48.39633" lon="2.71165">
        <ele>90.2</ele>
        <time>2018-04-15T17:26:12Z</time>
      </trkpt>
      <trkpt lat="48.3963" lon="2.71167">
        <ele>90.5</ele>
        <time>2018-04-15T17:26:13Z</time>
      </trkpt>
      <trkpt lat="48.39626" lon="2.71169">
        <ele>90.8</ele>
        <time>2018-04-15T17:26:15Z</time>
      </trkpt>
      <trkpt lat="48.39623" lon="2.71171">
        <ele>91.1</ele>
        <time>2018-04-15T17:26:17Z</time>
      </trkpt>
      <trkpt lat="48.39619" lon="2.71174">
        <ele>91.4</ele>
        <time>2018-04-15T17:26:19Z</time>
      </trkpt>
      <trkpt lat="48.39616" lon="2.71176">
        <ele>91.7</ele>
        <time>2018-04-15T17:26:20Z</time>
      </trkpt>
      <trkpt lat="48.39612" lon="2.71178">
        <ele>92.1</ele>
        <time>2018-04-15T17:26:22Z</time>
      </trkpt>
      <trkpt lat="48.39609" lon="2.7118">
        <ele>92.3</ele>
        <time>2018-04-15T17:26:24Z</time>
      </trkpt>
      <trkpt lat="48.39605" lon="2.71182">
        <ele>92.6</ele>
        <time>2018-04-15T17:26:26Z</time>
      </trkpt>
      <trkpt lat="48.396" lon="2.71185">
        <ele>93.1</ele>
        <time>2018-04-15T17:26:28Z</time>
      </trkpt>
      <trkpt lat="48.39594" lon="2.71187">
        <ele>93.6</ele>
        <time>2018-04-15T17:26:30Z</time>
      </trkpt>
      <trkpt lat="48.39589" lon="2.71189">
        <ele>94</ele>
        <time>2018-04-15T17:26:32Z</time>
      </trkpt>
      <trkpt lat="48.39585" lon="2.71191">
        <ele>94.5</ele>
        <time>2018-04-15T17:26:33Z</time>
      </trkpt>
      <trkpt lat="48.39581" lon="2.71193">
        <ele>94.9</ele>
        <time>2018-04-15T17:26:34Z</time>
      </trkpt>
      <trkpt lat="48.39577" lon="2.71194">
        <ele>95.3</ele>
        <time>2018-04-15T17:26:35Z</time>
      </trkpt>
      <trkpt lat="48.39573" lon="2.71197">
        <ele>95.7</ele>
        <time>2018-04-15T17:26:37Z</time>
      </trkpt>
      <trkpt lat="48.39569" lon="2.71199">
        <ele>96.1</ele>
        <time>2018-04-15T17:26:39Z</time>
      </trkpt>
      <trkpt lat="48.39567" lon="2.71201">
        <ele>96.4</ele>
        <time>2018-04-15T17:26:42Z</time>
      </trkpt>
      <trkpt lat="48.39564" lon="2.71206">
        <ele>96.9</ele>
        <time>2018-04-15T17:26:44Z</time>
      </trkpt>
      <trkpt lat="48.39563" lon="2.71211">
        <ele>96.8</ele>
        <time>2018-04-15T17:26:46Z</time>
      </trkpt>
      <trkpt lat="48.39562" lon="2.71219">
        <ele>96.7</ele>
        <time>2018-04-15T17:26:48Z</time>
      </trkpt>
      <trkpt lat="48.39562" lon="2.71227">
        <ele>96.6</ele>
        <time>2018-04-15T17:26:50Z</time>
      </trkpt>
      <trkpt lat="48.39561" lon="2.71231">
        <ele>96.6</ele>
        <time>2018-04-15T17:26:51Z</time>
      </trkpt>
      <trkpt lat="48.39561" lon="2.71237">
        <ele>96.5</ele>
        <time>2018-04-15T17:26:52Z</time>
      </trkpt>
      <trkpt lat="48.3956" lon="2.71244">
        <ele>96.4</ele>
        <time>2018-04-15T17:26:54Z</time>
      </trkpt>
      <trkpt lat="48.39558" lon="2.71251">
        <ele>96.3</ele>
        <time>2018-04-15T17:26:56Z</time>
      </trkpt>
      <trkpt lat="48.39557" lon="2.71259">
        <ele>96.2</ele>
        <time>2018-04-15T17:26:58Z</time>
      </trkpt>
      <trkpt lat="48.39556" lon="2.71268">
        <ele>96.1</ele>
        <time>2018-04-15T17:27:00Z</time>
      </trkpt>
      <trkpt lat="48.39555" lon="2.71273">
        <ele>96</ele>
        <time>2018-04-15T17:27:01Z</time>
      </trkpt>
      <trkpt lat="48.39555" lon="2.71278">
        <ele>95.9</ele>
        <time>2018-04-15T17:27:02Z</time>
      </trkpt>
      <trkpt lat="48.39554" lon="2.71284">
        <ele>95.9</ele>
        <time>2018-04-15T17:27:03Z</time>
      </trkpt>
      <trkpt lat="48.39553" lon="2.7129">
        <ele>95.8</ele>
        <time>2018-04-15T17:27:04Z</time>
      </trkpt>
      <trkpt lat="48.39552" lon="2.71297">
        <ele>95.7</ele>
        <time>2018-04-15T17:27:05Z</time>
      </trkpt>
      <trkpt lat="48.39551" lon="2.71304">
        <ele>95.6</ele>
        <time>2018-04-15T17:27:06Z</time>
      </trkpt>
      <trkpt lat="48.39551" lon="2.71311">
        <ele>95.5</ele>
        <time>2018-04-15T17:27:07Z</time>
      </trkpt>
      <trkpt lat="48.39551" lon="2.71317">
        <ele>95.4</ele>
        <time>2018-04-15T17:27:08Z</time>
      </trkpt>
      <trkpt lat="48.39551" lon="2.71325">
        <ele>95.3</ele>
        <time>2018-04-15T17:27:09Z</time>
      </trkpt>
      <trkpt lat="48.39551" lon="2.71332">
        <ele>95.2</ele>
        <time>2018-04-15T17:27:10Z</time>
      </trkpt>
      <trkpt lat="48.3955" lon="2.71339">
        <ele>95.1</ele>
        <time>2018-04-15T17:27:11Z</time>
      </trkpt>
      <trkpt lat="48.39549" lon="2.71344">
        <ele>95</ele>
        <time>2018-04-15T17:27:12Z</time>
      </trkpt>
      <trkpt lat="48.39548" lon="2.71351">
        <ele>94.9</ele>
        <time>2018-04-15T17:27:13Z</time>
      </trkpt>
      <trkpt lat="48.39547" lon="2.71357">
        <ele>94.9</ele>
        <time>2018-04-15T17:27:14Z</time>
      </trkpt>
      <trkpt lat="48.39547" lon="2.71363">
        <ele>94.8</ele>
        <time>2018-04-15T17:27:15Z</time>
      </trkpt>
      <trkpt lat="48.39547" lon="2.71368">
        <ele>94.8</ele>
        <time>2018-04-15T17:27:16Z</time>
      </trkpt>
      <trkpt lat="48.39546" lon="2.71373">
        <ele>94.7</ele>
        <time>2018-04-15T17:27:17Z</time>
      </trkpt>
      <trkpt lat="48.39546" lon="2.71379">
        <ele>94.7</ele>
        <time>2018-04-15T17:27:18Z</time>
      </trkpt>
      <trkpt lat="48.39545" lon="2.71391">
        <ele>95</ele>
        <time>2018-04-15T17:27:20Z</time>
      </trkpt>
      <trkpt lat="48.39545" lon="2.71398">
        <ele>95</ele>
        <time>2018-04-15T17:27:21Z</time>
      </trkpt>
      <trkpt lat="48.39545" lon="2.71404">
        <ele>95</ele>
        <time>2018-04-15T17:27:22Z</time>
      </trkpt>
      <trkpt lat="48.39545" lon="2.7141">
        <ele>95</ele>
        <time>2018-04-15T17:27:23Z</time>
      </trkpt>
      <trkpt lat="48.39545" lon="2.71416">
        <ele>95</ele>
        <time>2018-04-15T17:27:24Z</time>
      </trkpt>
      <trkpt lat="48.39545" lon="2.71422">
        <ele>95.2</ele>
        <time>2018-04-15T17:27:25Z</time>
      </trkpt>
      <trkpt lat="48.39544" lon="2.71428">
        <ele>95.3</ele>
        <time>2018-04-15T17:27:26Z</time>
      </trkpt>
      <trkpt lat="48.39544" lon="2.71435">
        <ele>95.5</ele>
        <time>2018-04-15T17:27:27Z</time>
      </trkpt>
      <trkpt lat="48.39543" lon="2.7144">
        <ele>95.6</ele>
        <time>2018-04-15T17:27:28Z</time>
      </trkpt>
      <trkpt lat="48.39543" lon="2.71445">
        <ele>95.7</ele>
        <time>2018-04-15T17:27:29Z</time>
      </trkpt>
      <trkpt lat="48.39542" lon="2.71451">
        <ele>95.8</ele>
        <time>2018-04-15T17:27:30Z</time>
      </trkpt>
      <trkpt lat="48.39541" lon="2.71456">
        <ele>96</ele>
        <time>2018-04-15T17:27:31Z</time>
      </trkpt>
      <trkpt lat="48.39541" lon="2.71461">
        <ele>96.1</ele>
        <time>2018-04-15T17:27:32Z</time>
      </trkpt>
      <trkpt lat="48.39541" lon="2.71468">
        <ele>96.2</ele>
        <time>2018-04-15T17:27:34Z</time>
      </trkpt>
      <trkpt lat="48.39541" lon="2.71473">
        <ele>96.3</ele>
        <time>2018-04-15T17:27:35Z</time>
      </trkpt>
      <trkpt lat="48.39541" lon="2.71477">
        <ele>96.3</ele>
        <time>2018-04-15T17:27:36Z</time>
      </trkpt>
      <trkpt lat="48.39541" lon="2.71484">
        <ele>96.5</ele>
        <time>2018-04-15T17:27:38Z</time>
      </trkpt>
      <trkpt lat="48.39541" lon="2.71488">
        <ele>96.5</ele>
        <time>2018-04-15T17:27:39Z</time>
      </trkpt>
      <trkpt lat="48.3954" lon="2.71497">
        <ele>96.7</ele>
        <time>2018-04-15T17:27:41Z</time>
      </trkpt>
      <trkpt lat="48.39539" lon="2.71506">
        <ele>96.8</ele>
        <time>2018-04-15T17:27:43Z</time>
      </trkpt>
      <trkpt lat="48.39538" lon="2.71514">
        <ele>97</ele>
        <time>2018-04-15T17:27:45Z</time>
      </trkpt>
      <trkpt lat="48.39538" lon="2.71518">
        <ele>97</ele>
        <time>2018-04-15T17:27:46Z</time>
      </trkpt>
      <trkpt lat="48.39537" lon="2.71527">
        <ele>97.2</ele>
        <time>2018-04-15T17:27:48Z</time>
      </trkpt>
      <trkpt lat="48.39537" lon="2.71532">
        <ele>97.3</ele>
        <time>2018-04-15T17:27:49Z</time>
      </trkpt>
      <trkpt lat="48.39537" lon="2.71537">
        <ele>97.3</ele>
        <time>2018-04-15T17:27:50Z</time>
      </trkpt>
      <trkpt lat="48.39536" lon="2.71546">
        <ele>97.5</ele>
        <time>2018-04-15T17:27:52Z</time>
      </trkpt>
      <trkpt lat="48.39535" lon="2.71551">
        <ele>97.6</ele>
        <time>2018-04-15T17:27:53Z</time>
      </trkpt>
      <trkpt lat="48.39534" lon="2.71557">
        <ele>97.6</ele>
        <time>2018-04-15T17:27:54Z</time>
      </trkpt>
      <trkpt lat="48.39534" lon="2.71563">
        <ele>97.7</ele>
        <time>2018-04-15T17:27:55Z</time>
      </trkpt>
      <trkpt lat="48.39535" lon="2.71567">
        <ele>97.8</ele>
        <time>2018-04-15T17:27:56Z</time>
      </trkpt>
      <trkpt lat="48.39534" lon="2.71572">
        <ele>97.9</ele>
        <time>2018-04-15T17:27:57Z</time>
      </trkpt>
      <trkpt lat="48.39534" lon="2.71578">
        <ele>98</ele>
        <time>2018-04-15T17:27:58Z</time>
      </trkpt>
      <trkpt lat="48.39533" lon="2.71583">
        <ele>98</ele>
        <time>2018-04-15T17:27:59Z</time>
      </trkpt>
      <trkpt lat="48.39532" lon="2.71589">
        <ele>98.1</ele>
        <time>2018-04-15T17:28:00Z</time>
      </trkpt>
      <trkpt lat="48.39531" lon="2.71594">
        <ele>98.2</ele>
        <time>2018-04-15T17:28:01Z</time>
      </trkpt>
      <trkpt lat="48.39531" lon="2.71602">
        <ele>98.4</ele>
        <time>2018-04-15T17:28:03Z</time>
      </trkpt>
      <trkpt lat="48.3953" lon="2.71606">
        <ele>98.5</ele>
        <time>2018-04-15T17:28:04Z</time>
      </trkpt>
      <trkpt lat="48.39529" lon="2.71612">
        <ele>98.6</ele>
        <time>2018-04-15T17:28:06Z</time>
      </trkpt>
      <trkpt lat="48.39527" lon="2.71616">
        <ele>98.7</ele>
        <time>2018-04-15T17:28:08Z</time>
      </trkpt>
      <trkpt lat="48.39524" lon="2.71621">
        <ele>99.9</ele>
        <time>2018-04-15T17:28:10Z</time>
      </trkpt>
      <trkpt lat="48.39521" lon="2.71623">
        <ele>100.3</ele>
        <time>2018-04-15T17:28:11Z</time>
      </trkpt>
      <trkpt lat="48.39518" lon="2.71624">
        <ele>100.7</ele>
        <time>2018-04-15T17:28:13Z</time>
      </trkpt>
      <trkpt lat="48.39514" lon="2.71626">
        <ele>101.3</ele>
        <time>2018-04-15T17:28:15Z</time>
      </trkpt>
      <trkpt lat="48.3951" lon="2.71627">
        <ele>101.6</ele>
        <time>2018-04-15T17:28:18Z</time>
      </trkpt>
      <trkpt lat="48.39506" lon="2.71628">
        <ele>101.9</ele>
        <time>2018-04-15T17:28:20Z</time>
      </trkpt>
      <trkpt lat="48.39502" lon="2.71629">
        <ele>102.5</ele>
        <time>2018-04-15T17:28:22Z</time>
      </trkpt>
      <trkpt lat="48.39498" lon="2.71629">
        <ele>103</ele>
        <time>2018-04-15T17:28:24Z</time>
      </trkpt>
      <trkpt lat="48.39494" lon="2.71629">
        <ele>103.4</ele>
        <time>2018-04-15T17:28:26Z</time>
      </trkpt>
      <trkpt lat="48.39492" lon="2.71629">
        <ele>103.7</ele>
        <time>2018-04-15T17:28:28Z</time>
      </trkpt>
      <trkpt lat="48.39487" lon="2.71629">
        <ele>104.1</ele>
        <time>2018-04-15T17:28:30Z</time>
      </trkpt>
      <trkpt lat="48.39484" lon="2.71626">
        <ele>104.3</ele>
        <time>2018-04-15T17:28:32Z</time>
      </trkpt>
      <trkpt lat="48.3948" lon="2.71624">
        <ele>104.7</ele>
        <time>2018-04-15T17:28:34Z</time>
      </trkpt>
      <trkpt lat="48.39477" lon="2.71623">
        <ele>105.1</ele>
        <time>2018-04-15T17:28:35Z</time>
      </trkpt>
      <trkpt lat="48.39474" lon="2.71622">
        <ele>105.4</ele>
        <time>2018-04-15T17:28:36Z</time>
      </trkpt>
      <trkpt lat="48.39472" lon="2.7162">
        <ele>105.7</ele>
        <time>2018-04-15T17:28:37Z</time>
      </trkpt>
      <trkpt lat="48.39469" lon="2.71618">
        <ele>106</ele>
        <time>2018-04-15T17:28:38Z</time>
      </trkpt>
      <trkpt lat="48.39465" lon="2.71617">
        <ele>106.4</ele>
        <time>2018-04-15T17:28:40Z</time>
      </trkpt>
      <trkpt lat="48.39462" lon="2.71615">
        <ele>106.6</ele>
        <time>2018-04-15T17:28:42Z</time>
      </trkpt>
      <trkpt lat="48.39458" lon="2.71615">
        <ele>106.9</ele>
        <time>2018-04-15T17:28:44Z</time>
      </trkpt>
      <trkpt lat="48.39455" lon="2.71615">
        <ele>107.1</ele>
        <time>2018-04-15T17:28:46Z</time>
      </trkpt>
      <trkpt lat="48.39452" lon="2.71614">
        <ele>107.2</ele>
        <time>2018-04-15T17:28:48Z</time>
      </trkpt>
      <trkpt lat="48.39449" lon="2.71614">
        <ele>107.4</ele>
        <time>2018-04-15T17:28:52Z</time>
      </trkpt>
      <trkpt lat="48.39445" lon="2.71616">
        <ele>107.7</ele>
        <time>2018-04-15T17:28:55Z</time>
      </trkpt>
      <trkpt lat="48.39441" lon="2.71618">
        <ele>107.9</ele>
        <time>2018-04-15T17:28:58Z</time>
      </trkpt>
      <trkpt lat="48.39438" lon="2.7162">
        <ele>108.2</ele>
        <time>2018-04-15T17:29:00Z</time>
      </trkpt>
      <trkpt lat="48.39434" lon="2.71623">
        <ele>108.5</ele>
        <time>2018-04-15T17:29:02Z</time>
      </trkpt>
      <trkpt lat="48.39431" lon="2.71626">
        <ele>108.7</ele>
        <time>2018-04-15T17:29:04Z</time>
      </trkpt>
      <trkpt lat="48.39428" lon="2.71628">
        <ele>108.9</ele>
        <time>2018-04-15T17:29:06Z</time>
      </trkpt>
      <trkpt lat="48.39425" lon="2.7163">
        <ele>109.1</ele>
        <time>2018-04-15T17:29:08Z</time>
      </trkpt>
      <trkpt lat="48.39422" lon="2.71632">
        <ele>109.3</ele>
        <time>2018-04-15T17:29:11Z</time>
      </trkpt>
      <trkpt lat="48.39419" lon="2.71635">
        <ele>109.5</ele>
        <time>2018-04-15T17:29:13Z</time>
      </trkpt>
      <trkpt lat="48.39418" lon="2.71638">
        <ele>109.5</ele>
        <time>2018-04-15T17:29:18Z</time>
      </trkpt>
      <trkpt lat="48.39416" lon="2.71642">
        <ele>109.6</ele>
        <time>2018-04-15T17:29:22Z</time>
      </trkpt>
      <trkpt lat="48.39414" lon="2.71647">
        <ele>109.6</ele>
        <time>2018-04-15T17:29:24Z</time>
      </trkpt>
      <trkpt lat="48.39413" lon="2.71653">
        <ele>109.6</ele>
        <time>2018-04-15T17:29:27Z</time>
      </trkpt>
      <trkpt lat="48.39411" lon="2.7166">
        <ele>109.5</ele>
        <time>2018-04-15T17:29:29Z</time>
      </trkpt>
      <trkpt lat="48.3941" lon="2.71665">
        <ele>109.5</ele>
        <time>2018-04-15T17:29:31Z</time>
      </trkpt>
      <trkpt lat="48.3941" lon="2.71671">
        <ele>109.4</ele>
        <time>2018-04-15T17:29:33Z</time>
      </trkpt>
      <trkpt lat="48.39409" lon="2.71677">
        <ele>109.4</ele>
        <time>2018-04-15T17:29:35Z</time>
      </trkpt>
      <trkpt lat="48.39408" lon="2.71682">
        <ele>109.3</ele>
        <time>2018-04-15T17:29:37Z</time>
      </trkpt>
      <trkpt lat="48.39407" lon="2.71686">
        <ele>109.4</ele>
        <time>2018-04-15T17:29:38Z</time>
      </trkpt>
      <trkpt lat="48.39406" lon="2.7169">
        <ele>109.4</ele>
        <time>2018-04-15T17:29:39Z</time>
      </trkpt>
      <trkpt lat="48.39405" lon="2.71697">
        <ele>109.6</ele>
        <time>2018-04-15T17:29:41Z</time>
      </trkpt>
      <trkpt lat="48.39403" lon="2.71702">
        <ele>109.7</ele>
        <time>2018-04-15T17:29:43Z</time>
      </trkpt>
      <trkpt lat="48.39402" lon="2.71706">
        <ele>109.7</ele>
        <time>2018-04-15T17:29:45Z</time>
      </trkpt>
      <trkpt lat="48.394" lon="2.71709">
        <ele>109.8</ele>
        <time>2018-04-15T17:29:47Z</time>
      </trkpt>
      <trkpt lat="48.39397" lon="2.71713">
        <ele>109.9</ele>
        <time>2018-04-15T17:29:49Z</time>
      </trkpt>
      <trkpt lat="48.39395" lon="2.71717">
        <ele>110</ele>
        <time>2018-04-15T17:29:52Z</time>
      </trkpt>
      <trkpt lat="48.39392" lon="2.7172">
        <ele>110.3</ele>
        <time>2018-04-15T17:29:55Z</time>
      </trkpt>
      <trkpt lat="48.39389" lon="2.71724">
        <ele>110.5</ele>
        <time>2018-04-15T17:29:57Z</time>
      </trkpt>
      <trkpt lat="48.39386" lon="2.71728">
        <ele>110.7</ele>
        <time>2018-04-15T17:29:59Z</time>
      </trkpt>
      <trkpt lat="48.39384" lon="2.7173">
        <ele>110.8</ele>
        <time>2018-04-15T17:30:01Z</time>
      </trkpt>
      <trkpt lat="48.39382" lon="2.71733">
        <ele>111</ele>
        <time>2018-04-15T17:30:03Z</time>
      </trkpt>
      <trkpt lat="48.39379" lon="2.71737">
        <ele>111.3</ele>
        <time>2018-04-15T17:30:06Z</time>
      </trkpt>
      <trkpt lat="48.39376" lon="2.71741">
        <ele>111.6</ele>
        <time>2018-04-15T17:30:08Z</time>
      </trkpt>
      <trkpt lat="48.39373" lon="2.71744">
        <ele>111.8</ele>
        <time>2018-04-15T17:30:12Z</time>
      </trkpt>
      <trkpt lat="48.3937" lon="2.71748">
        <ele>112</ele>
        <time>2018-04-15T17:30:15Z</time>
      </trkpt>
      <trkpt lat="48.39368" lon="2.7175">
        <ele>112.2</ele>
        <time>2018-04-15T17:30:16Z</time>
      </trkpt>
      <trkpt lat="48.39366" lon="2.71753">
        <ele>112.4</ele>
        <time>2018-04-15T17:30:18Z</time>
      </trkpt>
      <trkpt lat="48.39363" lon="2.71757">
        <ele>112.7</ele>
        <time>2018-04-15T17:30:20Z</time>
      </trkpt>
      <trkpt lat="48.39361" lon="2.71761">
        <ele>112.9</ele>
        <time>2018-04-15T17:30:22Z</time>
      </trkpt>
      <trkpt lat="48.39359" lon="2.71763">
        <ele>113</ele>
        <time>2018-04-15T17:30:24Z</time>
      </trkpt>
      <trkpt lat="48.39356" lon="2.71766">
        <ele>113.1</ele>
        <time>2018-04-15T17:30:27Z</time>
      </trkpt>
      <trkpt lat="48.39352" lon="2.71766">
        <ele>113.4</ele>
        <time>2018-04-15T17:30:29Z</time>
      </trkpt>
      <trkpt lat="48.39349" lon="2.71767">
        <ele>113.6</ele>
        <time>2018-04-15T17:30:31Z</time>
      </trkpt>
      <trkpt lat="48.39345" lon="2.71768">
        <ele>113.8</ele>
        <time>2018-04-15T17:30:33Z</time>
      </trkpt>
      <trkpt lat="48.39341" lon="2.71769">
        <ele>114</ele>
        <time>2018-04-15T17:30:35Z</time>
      </trkpt>
      <trkpt lat="48.39335" lon="2.7177">
        <ele>114</ele>
        <time>2018-04-15T17:30:38Z</time>
      </trkpt>
      <trkpt lat="48.39331" lon="2.71771">
        <ele>114</ele>
        <time>2018-04-15T17:30:40Z</time>
      </trkpt>
      <trkpt lat="48.39328" lon="2.71772">
        <ele>114.1</ele>
        <time>2018-04-15T17:30:42Z</time>
      </trkpt>
      <trkpt lat="48.39325" lon="2.71773">
        <ele>114.2</ele>
        <time>2018-04-15T17:30:44Z</time>
      </trkpt>
      <trkpt lat="48.39322" lon="2.71776">
        <ele>114.3</ele>
        <time>2018-04-15T17:30:45Z</time>
      </trkpt>
      <trkpt lat="48.3932" lon="2.71778">
        <ele>114.4</ele>
        <time>2018-04-15T17:30:48Z</time>
      </trkpt>
      <trkpt lat="48.39319" lon="2.71782">
        <ele>114.5</ele>
        <time>2018-04-15T17:30:50Z</time>
      </trkpt>
      <trkpt lat="48.39317" lon="2.71788">
        <ele>114.6</ele>
        <time>2018-04-15T17:30:53Z</time>
      </trkpt>
      <trkpt lat="48.39315" lon="2.71792">
        <ele>114.8</ele>
        <time>2018-04-15T17:30:55Z</time>
      </trkpt>
      <trkpt lat="48.39314" lon="2.71797">
        <ele>114.9</ele>
        <time>2018-04-15T17:30:57Z</time>
      </trkpt>
      <trkpt lat="48.39312" lon="2.71802">
        <ele>115</ele>
        <time>2018-04-15T17:30:59Z</time>
      </trkpt>
      <trkpt lat="48.39311" lon="2.71807">
        <ele>115.1</ele>
        <time>2018-04-15T17:31:01Z</time>
      </trkpt>
      <trkpt lat="48.3931" lon="2.71812">
        <ele>115.3</ele>
        <time>2018-04-15T17:31:03Z</time>
      </trkpt>
      <trkpt lat="48.39309" lon="2.71817">
        <ele>115.4</ele>
        <time>2018-04-15T17:31:05Z</time>
      </trkpt>
      <trkpt lat="48.39309" lon="2.71823">
        <ele>115.5</ele>
        <time>2018-04-15T17:31:08Z</time>
      </trkpt>
      <trkpt lat="48.39308" lon="2.71829">
        <ele>115.6</ele>
        <time>2018-04-15T17:31:10Z</time>
      </trkpt>
      <trkpt lat="48.39307" lon="2.71835">
        <ele>115.7</ele>
        <time>2018-04-15T17:31:12Z</time>
      </trkpt>
      <trkpt lat="48.39306" lon="2.71841">
        <ele>115.7</ele>
        <time>2018-04-15T17:31:14Z</time>
      </trkpt>
      <trkpt lat="48.39305" lon="2.71846">
        <ele>115.8</ele>
        <time>2018-04-15T17:31:16Z</time>
      </trkpt>
      <trkpt lat="48.39303" lon="2.7185">
        <ele>115.8</ele>
        <time>2018-04-15T17:31:18Z</time>
      </trkpt>
      <trkpt lat="48.39302" lon="2.71855">
        <ele>115.7</ele>
        <time>2018-04-15T17:31:21Z</time>
      </trkpt>
      <trkpt lat="48.39301" lon="2.7186">
        <ele>115.7</ele>
        <time>2018-04-15T17:31:23Z</time>
      </trkpt>
      <trkpt lat="48.393" lon="2.71865">
        <ele>115.7</ele>
        <time>2018-04-15T17:31:25Z</time>
      </trkpt>
      <trkpt lat="48.393" lon="2.71869">
        <ele>115.6</ele>
        <time>2018-04-15T17:31:27Z</time>
      </trkpt>
      <trkpt lat="48.39299" lon="2.71873">
        <ele>115.5</ele>
        <time>2018-04-15T17:31:29Z</time>
      </trkpt>
      <trkpt lat="48.39296" lon="2.71877">
        <ele>115.3</ele>
        <time>2018-04-15T17:31:32Z</time>
      </trkpt>
      <trkpt lat="48.39295" lon="2.71882">
        <ele>115.2</ele>
        <time>2018-04-15T17:31:34Z</time>
      </trkpt>
      <trkpt lat="48.39295" lon="2.71887">
        <ele>115</ele>
        <time>2018-04-15T17:31:36Z</time>
      </trkpt>
      <trkpt lat="48.39296" lon="2.71893">
        <ele>115.1</ele>
        <time>2018-04-15T17:31:39Z</time>
      </trkpt>
      <trkpt lat="48.39297" lon="2.71898">
        <ele>115.1</ele>
        <time>2018-04-15T17:31:41Z</time>
      </trkpt>
      <trkpt lat="48.39299" lon="2.71902">
        <ele>115.2</ele>
        <time>2018-04-15T17:31:45Z</time>
      </trkpt>
      <trkpt lat="48.393" lon="2.71906">
        <ele>115.2</ele>
        <time>2018-04-15T17:31:47Z</time>
      </trkpt>
      <trkpt lat="48.39303" lon="2.71912">
        <ele>115.2</ele>
        <time>2018-04-15T17:31:49Z</time>
      </trkpt>
      <trkpt lat="48.39304" lon="2.71917">
        <ele>115.2</ele>
        <time>2018-04-15T17:31:51Z</time>
      </trkpt>
      <trkpt lat="48.39306" lon="2.71923">
        <ele>115.2</ele>
        <time>2018-04-15T17:31:53Z</time>
      </trkpt>
      <trkpt lat="48.39308" lon="2.71927">
        <ele>115.2</ele>
        <time>2018-04-15T17:31:55Z</time>
      </trkpt>
      <trkpt lat="48.39309" lon="2.71932">
        <ele>115.2</ele>
        <time>2018-04-15T17:31:57Z</time>
      </trkpt>
      <trkpt lat="48.39309" lon="2.71936">
        <ele>115.2</ele>
        <time>2018-04-15T17:31:59Z</time>
      </trkpt>
      <trkpt lat="48.3931" lon="2.71943">
        <ele>115.1</ele>
        <time>2018-04-15T17:32:01Z</time>
      </trkpt>
      <trkpt lat="48.39311" lon="2.7195">
        <ele>115</ele>
        <time>2018-04-15T17:32:03Z</time>
      </trkpt>
      <trkpt lat="48.39313" lon="2.71955">
        <ele>114.9</ele>
        <time>2018-04-15T17:32:06Z</time>
      </trkpt>
      <trkpt lat="48.39313" lon="2.71962">
        <ele>114.7</ele>
        <time>2018-04-15T17:32:08Z</time>
      </trkpt>
      <trkpt lat="48.39313" lon="2.71969">
        <ele>114.5</ele>
        <time>2018-04-15T17:32:10Z</time>
      </trkpt>
      <trkpt lat="48.39313" lon="2.71974">
        <ele>114.3</ele>
        <time>2018-04-15T17:32:11Z</time>
      </trkpt>
      <trkpt lat="48.39313" lon="2.71982">
        <ele>112</ele>
        <time>2018-04-15T17:32:13Z</time>
      </trkpt>
      <trkpt lat="48.39313" lon="2.71986">
        <ele>112.3</ele>
        <time>2018-04-15T17:32:14Z</time>
      </trkpt>
      <trkpt lat="48.39312" lon="2.71992">
        <ele>112.8</ele>
        <time>2018-04-15T17:32:15Z</time>
      </trkpt>
      <trkpt lat="48.39311" lon="2.71996">
        <ele>113.4</ele>
        <time>2018-04-15T17:32:16Z</time>
      </trkpt>
      <trkpt lat="48.3931" lon="2.72003">
        <ele>114</ele>
        <time>2018-04-15T17:32:17Z</time>
      </trkpt>
      <trkpt lat="48.39309" lon="2.72007">
        <ele>114.5</ele>
        <time>2018-04-15T17:32:18Z</time>
      </trkpt>
      <trkpt lat="48.39307" lon="2.72013">
        <ele>115</ele>
        <time>2018-04-15T17:32:19Z</time>
      </trkpt>
      <trkpt lat="48.39303" lon="2.72019">
        <ele>115.7</ele>
        <time>2018-04-15T17:32:20Z</time>
      </trkpt>
      <trkpt lat="48.393" lon="2.72025">
        <ele>116</ele>
        <time>2018-04-15T17:32:21Z</time>
      </trkpt>
      <trkpt lat="48.39298" lon="2.7203">
        <ele>116.3</ele>
        <time>2018-04-15T17:32:22Z</time>
      </trkpt>
      <trkpt lat="48.39296" lon="2.72034">
        <ele>116.7</ele>
        <time>2018-04-15T17:32:23Z</time>
      </trkpt>
      <trkpt lat="48.39294" lon="2.72038">
        <ele>117</ele>
        <time>2018-04-15T17:32:24Z</time>
      </trkpt>
      <trkpt lat="48.39293" lon="2.72045">
        <ele>117.5</ele>
        <time>2018-04-15T17:32:26Z</time>
      </trkpt>
      <trkpt lat="48.39293" lon="2.72051">
        <ele>117.8</ele>
        <time>2018-04-15T17:32:28Z</time>
      </trkpt>
      <trkpt lat="48.39294" lon="2.72058">
        <ele>118.2</ele>
        <time>2018-04-15T17:32:31Z</time>
      </trkpt>
      <trkpt lat="48.39296" lon="2.72064">
        <ele>118.4</ele>
        <time>2018-04-15T17:32:33Z</time>
      </trkpt>
      <trkpt lat="48.39297" lon="2.72068">
        <ele>118.5</ele>
        <time>2018-04-15T17:32:35Z</time>
      </trkpt>
      <trkpt lat="48.39299" lon="2.72074">
        <ele>118.6</ele>
        <time>2018-04-15T17:32:37Z</time>
      </trkpt>
      <trkpt lat="48.393" lon="2.72079">
        <ele>118.8</ele>
        <time>2018-04-15T17:32:39Z</time>
      </trkpt>
      <trkpt lat="48.39302" lon="2.72083">
        <ele>118.9</ele>
        <time>2018-04-15T17:32:41Z</time>
      </trkpt>
      <trkpt lat="48.39303" lon="2.72086">
        <ele>119</ele>
        <time>2018-04-15T17:32:44Z</time>
      </trkpt>
      <trkpt lat="48.39305" lon="2.72093">
        <ele>119.1</ele>
        <time>2018-04-15T17:32:47Z</time>
      </trkpt>
      <trkpt lat="48.39306" lon="2.72102">
        <ele>119.2</ele>
        <time>2018-04-15T17:32:49Z</time>
      </trkpt>
      <trkpt lat="48.39306" lon="2.72109">
        <ele>119.3</ele>
        <time>2018-04-15T17:32:50Z</time>
      </trkpt>
      <trkpt lat="48.39306" lon="2.72113">
        <ele>119.3</ele>
        <time>2018-04-15T17:32:51Z</time>
      </trkpt>
      <trkpt lat="48.39304" lon="2.7212">
        <ele>119.3</ele>
        <time>2018-04-15T17:32:52Z</time>
      </trkpt>
      <trkpt lat="48.39303" lon="2.72125">
        <ele>119.3</ele>
        <time>2018-04-15T17:32:53Z</time>
      </trkpt>
      <trkpt lat="48.39302" lon="2.72129">
        <ele>119.3</ele>
        <time>2018-04-15T17:32:54Z</time>
      </trkpt>
      <trkpt lat="48.39301" lon="2.72134">
        <ele>119.3</ele>
        <time>2018-04-15T17:32:55Z</time>
      </trkpt>
      <trkpt lat="48.393" lon="2.72138">
        <ele>119.2</ele>
        <time>2018-04-15T17:32:56Z</time>
      </trkpt>
      <trkpt lat="48.39299" lon="2.72142">
        <ele>119</ele>
        <time>2018-04-15T17:32:57Z</time>
      </trkpt>
      <trkpt lat="48.39297" lon="2.72149">
        <ele>118.6</ele>
        <time>2018-04-15T17:32:59Z</time>
      </trkpt>
      <trkpt lat="48.39296" lon="2.72158">
        <ele>118.2</ele>
        <time>2018-04-15T17:33:01Z</time>
      </trkpt>
      <trkpt lat="48.39296" lon="2.72164">
        <ele>118.1</ele>
        <time>2018-04-15T17:33:02Z</time>
      </trkpt>
      <trkpt lat="48.39296" lon="2.72169">
        <ele>118</ele>
        <time>2018-04-15T17:33:03Z</time>
      </trkpt>
      <trkpt lat="48.39295" lon="2.72173">
        <ele>117.8</ele>
        <time>2018-04-15T17:33:04Z</time>
      </trkpt>
      <trkpt lat="48.39293" lon="2.7218">
        <ele>117.3</ele>
        <time>2018-04-15T17:33:05Z</time>
      </trkpt>
      <trkpt lat="48.39292" lon="2.72184">
        <ele>117</ele>
        <time>2018-04-15T17:33:06Z</time>
      </trkpt>
      <trkpt lat="48.39291" lon="2.72187">
        <ele>116.8</ele>
        <time>2018-04-15T17:33:07Z</time>
      </trkpt>
      <trkpt lat="48.39289" lon="2.72192">
        <ele>116.5</ele>
        <time>2018-04-15T17:33:08Z</time>
      </trkpt>
      <trkpt lat="48.39288" lon="2.72196">
        <ele>116.2</ele>
        <time>2018-04-15T17:33:09Z</time>
      </trkpt>
      <trkpt lat="48.39287" lon="2.72201">
        <ele>115.8</ele>
        <time>2018-04-15T17:33:10Z</time>
      </trkpt>
      <trkpt lat="48.39285" lon="2.72206">
        <ele>115.4</ele>
        <time>2018-04-15T17:33:11Z</time>
      </trkpt>
      <trkpt lat="48.39284" lon="2.72212">
        <ele>115.2</ele>
        <time>2018-04-15T17:33:12Z</time>
      </trkpt>
      <trkpt lat="48.39284" lon="2.72217">
        <ele>115.1</ele>
        <time>2018-04-15T17:33:13Z</time>
      </trkpt>
      <trkpt lat="48.39282" lon="2.72222">
        <ele>115.1</ele>
        <time>2018-04-15T17:33:14Z</time>
      </trkpt>
      <trkpt lat="48.39281" lon="2.72225">
        <ele>115</ele>
        <time>2018-04-15T17:33:15Z</time>
      </trkpt>
      <trkpt lat="48.39279" lon="2.72229">
        <ele>113.3</ele>
        <time>2018-04-15T17:33:16Z</time>
      </trkpt>
      <trkpt lat="48.39277" lon="2.72234">
        <ele>111.5</ele>
        <time>2018-04-15T17:33:17Z</time>
      </trkpt>
      <trkpt lat="48.39274" lon="2.72238">
        <ele>109.9</ele>
        <time>2018-04-15T17:33:18Z</time>
      </trkpt>
      <trkpt lat="48.39272" lon="2.72243">
        <ele>108.3</ele>
        <time>2018-04-15T17:33:19Z</time>
      </trkpt>
      <trkpt lat="48.39268" lon="2.72247">
        <ele>106.5</ele>
        <time>2018-04-15T17:33:20Z</time>
      </trkpt>
      <trkpt lat="48.39265" lon="2.72251">
        <ele>104.9</ele>
        <time>2018-04-15T17:33:21Z</time>
      </trkpt>
      <trkpt lat="48.39261" lon="2.72254">
        <ele>103.5</ele>
        <time>2018-04-15T17:33:22Z</time>
      </trkpt>
      <trkpt lat="48.39257" lon="2.72258">
        <ele>101.7</ele>
        <time>2018-04-15T17:33:23Z</time>
      </trkpt>
      <trkpt lat="48.39253" lon="2.72261">
        <ele>100.2</ele>
        <time>2018-04-15T17:33:24Z</time>
      </trkpt>
      <trkpt lat="48.3925" lon="2.72264">
        <ele>99</ele>
        <time>2018-04-15T17:33:25Z</time>
      </trkpt>
      <trkpt lat="48.39247" lon="2.72266">
        <ele>97.9</ele>
        <time>2018-04-15T17:33:26Z</time>
      </trkpt>
      <trkpt lat="48.39242" lon="2.72268">
        <ele>97.3</ele>
        <time>2018-04-15T17:33:27Z</time>
      </trkpt>
      <trkpt lat="48.39239" lon="2.72269">
        <ele>97</ele>
        <time>2018-04-15T17:33:28Z</time>
      </trkpt>
      <trkpt lat="48.39234" lon="2.7227">
        <ele>96.4</ele>
        <time>2018-04-15T17:33:29Z</time>
      </trkpt>
      <trkpt lat="48.39229" lon="2.72272">
        <ele>95.9</ele>
        <time>2018-04-15T17:33:30Z</time>
      </trkpt>
      <trkpt lat="48.39224" lon="2.72275">
        <ele>95.4</ele>
        <time>2018-04-15T17:33:31Z</time>
      </trkpt>
      <trkpt lat="48.39221" lon="2.72276">
        <ele>95</ele>
        <time>2018-04-15T17:33:32Z</time>
      </trkpt>
      <trkpt lat="48.39216" lon="2.72277">
        <ele>94.6</ele>
        <time>2018-04-15T17:33:33Z</time>
      </trkpt>
      <trkpt lat="48.39211" lon="2.72277">
        <ele>94.2</ele>
        <time>2018-04-15T17:33:34Z</time>
      </trkpt>
      <trkpt lat="48.39207" lon="2.72276">
        <ele>93.9</ele>
        <time>2018-04-15T17:33:35Z</time>
      </trkpt>
      <trkpt lat="48.39202" lon="2.72276">
        <ele>93.6</ele>
        <time>2018-04-15T17:33:36Z</time>
      </trkpt>
      <trkpt lat="48.39198" lon="2.72274">
        <ele>93.3</ele>
        <time>2018-04-15T17:33:37Z</time>
      </trkpt>
      <trkpt lat="48.39194" lon="2.72273">
        <ele>93</ele>
        <time>2018-04-15T17:33:38Z</time>
      </trkpt>
      <trkpt lat="48.3919" lon="2.72272">
        <ele>92.7</ele>
        <time>2018-04-15T17:33:39Z</time>
      </trkpt>
      <trkpt lat="48.39186" lon="2.7227">
        <ele>92.5</ele>
        <time>2018-04-15T17:33:40Z</time>
      </trkpt>
      <trkpt lat="48.39182" lon="2.72268">
        <ele>92.2</ele>
        <time>2018-04-15T17:33:41Z</time>
      </trkpt>
      <trkpt lat="48.39178" lon="2.72266">
        <ele>91.9</ele>
        <time>2018-04-15T17:33:42Z</time>
      </trkpt>
      <trkpt lat="48.39174" lon="2.72265">
        <ele>91.6</ele>
        <time>2018-04-15T17:33:43Z</time>
      </trkpt>
      <trkpt lat="48.39168" lon="2.72266">
        <ele>91.2</ele>
        <time>2018-04-15T17:33:44Z</time>
      </trkpt>
      <trkpt lat="48.39163" lon="2.72266">
        <ele>90.8</ele>
        <time>2018-04-15T17:33:45Z</time>
      </trkpt>
      <trkpt lat="48.39158" lon="2.72266">
        <ele>90.5</ele>
        <time>2018-04-15T17:33:46Z</time>
      </trkpt>
      <trkpt lat="48.39153" lon="2.72267">
        <ele>90.2</ele>
        <time>2018-04-15T17:33:47Z</time>
      </trkpt>
      <trkpt lat="48.39148" lon="2.7227">
        <ele>89.9</ele>
        <time>2018-04-15T17:33:48Z</time>
      </trkpt>
      <trkpt lat="48.39143" lon="2.72274">
        <ele>89.7</ele>
        <time>2018-04-15T17:33:49Z</time>
      </trkpt>
      <trkpt lat="48.39138" lon="2.72276">
        <ele>89.6</ele>
        <time>2018-04-15T17:33:50Z</time>
      </trkpt>
      <trkpt lat="48.39133" lon="2.72279">
        <ele>89.6</ele>
        <time>2018-04-15T17:33:51Z</time>
      </trkpt>
      <trkpt lat="48.39128" lon="2.72281">
        <ele>89.6</ele>
        <time>2018-04-15T17:33:52Z</time>
      </trkpt>
      <trkpt lat="48.39124" lon="2.72283">
        <ele>89.6</ele>
        <time>2018-04-15T17:33:53Z</time>
      </trkpt>
      <trkpt lat="48.39119" lon="2.72286">
        <ele>89.6</ele>
        <time>2018-04-15T17:33:54Z</time>
      </trkpt>
      <trkpt lat="48.39115" lon="2.7229">
        <ele>89.7</ele>
        <time>2018-04-15T17:33:55Z</time>
      </trkpt>
      <trkpt lat="48.3911" lon="2.72294">
        <ele>89.9</ele>
        <time>2018-04-15T17:33:56Z</time>
      </trkpt>
      <trkpt lat="48.39104" lon="2.72299">
        <ele>90.1</ele>
        <time>2018-04-15T17:33:57Z</time>
      </trkpt>
      <trkpt lat="48.39097" lon="2.72302">
        <ele>90.3</ele>
        <time>2018-04-15T17:33:58Z</time>
      </trkpt>
      <trkpt lat="48.39091" lon="2.72307">
        <ele>90.5</ele>
        <time>2018-04-15T17:33:59Z</time>
      </trkpt>
      <trkpt lat="48.39086" lon="2.7231">
        <ele>90.6</ele>
        <time>2018-04-15T17:34:00Z</time>
      </trkpt>
      <trkpt lat="48.3908" lon="2.72314">
        <ele>90.9</ele>
        <time>2018-04-15T17:34:01Z</time>
      </trkpt>
      <trkpt lat="48.39074" lon="2.72319">
        <ele>91.1</ele>
        <time>2018-04-15T17:34:02Z</time>
      </trkpt>
      <trkpt lat="48.39069" lon="2.72322">
        <ele>91.3</ele>
        <time>2018-04-15T17:34:03Z</time>
      </trkpt>
      <trkpt lat="48.39062" lon="2.72326">
        <ele>91.6</ele>
        <time>2018-04-15T17:34:04Z</time>
      </trkpt>
      <trkpt lat="48.39058" lon="2.72328">
        <ele>91.8</ele>
        <time>2018-04-15T17:34:05Z</time>
      </trkpt>
      <trkpt lat="48.39054" lon="2.72331">
        <ele>92</ele>
        <time>2018-04-15T17:34:06Z</time>
      </trkpt>
      <trkpt lat="48.39049" lon="2.72333">
        <ele>92.2</ele>
        <time>2018-04-15T17:34:07Z</time>
      </trkpt>
      <trkpt lat="48.39043" lon="2.72337">
        <ele>92.5</ele>
        <time>2018-04-15T17:34:08Z</time>
      </trkpt>
      <trkpt lat="48.3904" lon="2.72339">
        <ele>92.8</ele>
        <time>2018-04-15T17:34:09Z</time>
      </trkpt>
      <trkpt lat="48.39035" lon="2.72342">
        <ele>93</ele>
        <time>2018-04-15T17:34:10Z</time>
      </trkpt>
      <trkpt lat="48.39032" lon="2.72344">
        <ele>93</ele>
        <time>2018-04-15T17:34:11Z</time>
      </trkpt>
      <trkpt lat="48.39028" lon="2.72348">
        <ele>93</ele>
        <time>2018-04-15T17:34:12Z</time>
      </trkpt>
      <trkpt lat="48.39024" lon="2.7235">
        <ele>93.1</ele>
        <time>2018-04-15T17:34:13Z</time>
      </trkpt>
      <trkpt lat="48.3902" lon="2.72352">
        <ele>93.2</ele>
        <time>2018-04-15T17:34:14Z</time>
      </trkpt>
      <trkpt lat="48.39016" lon="2.72355">
        <ele>93.4</ele>
        <time>2018-04-15T17:34:15Z</time>
      </trkpt>
      <trkpt lat="48.39012" lon="2.72357">
        <ele>93.5</ele>
        <time>2018-04-15T17:34:16Z</time>
      </trkpt>
      <trkpt lat="48.39009" lon="2.7236">
        <ele>93.5</ele>
        <time>2018-04-15T17:34:17Z</time>
      </trkpt>
      <trkpt lat="48.39004" lon="2.72362">
        <ele>93.7</ele>
        <time>2018-04-15T17:34:18Z</time>
      </trkpt>
      <trkpt lat="48.38999" lon="2.72365">
        <ele>93.9</ele>
        <time>2018-04-15T17:34:19Z</time>
      </trkpt>
      <trkpt lat="48.38994" lon="2.72368">
        <ele>94.1</ele>
        <time>2018-04-15T17:34:20Z</time>
      </trkpt>
      <trkpt lat="48.38991" lon="2.7237">
        <ele>94.2</ele>
        <time>2018-04-15T17:34:21Z</time>
      </trkpt>
      <trkpt lat="48.38986" lon="2.72373">
        <ele>94.3</ele>
        <time>2018-04-15T17:34:22Z</time>
      </trkpt>
      <trkpt lat="48.38982" lon="2.72377">
        <ele>94.3</ele>
        <time>2018-04-15T17:34:23Z</time>
      </trkpt>
      <trkpt lat="48.38978" lon="2.72381">
        <ele>94.4</ele>
        <time>2018-04-15T17:34:24Z</time>
      </trkpt>
      <trkpt lat="48.38974" lon="2.72384">
        <ele>94.5</ele>
        <time>2018-04-15T17:34:25Z</time>
      </trkpt>
      <trkpt lat="48.38972" lon="2.72386">
        <ele>94.5</ele>
        <time>2018-04-15T17:34:26Z</time>
      </trkpt>
      <trkpt lat="48.38969" lon="2.72388">
        <ele>94.5</ele>
        <time>2018-04-15T17:34:27Z</time>
      </trkpt>
      <trkpt lat="48.38965" lon="2.72391">
        <ele>94.5</ele>
        <time>2018-04-15T17:34:28Z</time>
      </trkpt>
      <trkpt lat="48.38959" lon="2.72395">
        <ele>94.4</ele>
        <time>2018-04-15T17:34:29Z</time>
      </trkpt>
      <trkpt lat="48.38954" lon="2.72398">
        <ele>94.4</ele>
        <time>2018-04-15T17:34:30Z</time>
      </trkpt>
      <trkpt lat="48.38951" lon="2.724">
        <ele>94.4</ele>
        <time>2018-04-15T17:34:31Z</time>
      </trkpt>
      <trkpt lat="48.38947" lon="2.72404">
        <ele>94.4</ele>
        <time>2018-04-15T17:34:32Z</time>
      </trkpt>
      <trkpt lat="48.38944" lon="2.72406">
        <ele>94.4</ele>
        <time>2018-04-15T17:34:33Z</time>
      </trkpt>
      <trkpt lat="48.3894" lon="2.72409">
        <ele>94.4</ele>
        <time>2018-04-15T17:34:34Z</time>
      </trkpt>
      <trkpt lat="48.38937" lon="2.72411">
        <ele>94.4</ele>
        <time>2018-04-15T17:34:35Z</time>
      </trkpt>
      <trkpt lat="48.38934" lon="2.72413">
        <ele>94.4</ele>
        <time>2018-04-15T17:34:36Z</time>
      </trkpt>
      <trkpt lat="48.38931" lon="2.72415">
        <ele>94.4</ele>
        <time>2018-04-15T17:34:37Z</time>
      </trkpt>
      <trkpt lat="48.38928" lon="2.72417">
        <ele>94.3</ele>
        <time>2018-04-15T17:34:38Z</time>
      </trkpt>
      <trkpt lat="48.38925" lon="2.72419">
        <ele>94.3</ele>
        <time>2018-04-15T17:34:39Z</time>
      </trkpt>
      <trkpt lat="48.38921" lon="2.72421">
        <ele>94.2</ele>
        <time>2018-04-15T17:34:40Z</time>
      </trkpt>
      <trkpt lat="48.38918" lon="2.72423">
        <ele>94.2</ele>
        <time>2018-04-15T17:34:41Z</time>
      </trkpt>
      <trkpt lat="48.38916" lon="2.72425">
        <ele>94.1</ele>
        <time>2018-04-15T17:34:42Z</time>
      </trkpt>
      <trkpt lat="48.38911" lon="2.72428">
        <ele>94</ele>
        <time>2018-04-15T17:34:44Z</time>
      </trkpt>
      <trkpt lat="48.38908" lon="2.72431">
        <ele>93.9</ele>
        <time>2018-04-15T17:34:45Z</time>
      </trkpt>
      <trkpt lat="48.38905" lon="2.72433">
        <ele>93.8</ele>
        <time>2018-04-15T17:34:46Z</time>
      </trkpt>
      <trkpt lat="48.38902" lon="2.72435">
        <ele>93.7</ele>
        <time>2018-04-15T17:34:47Z</time>
      </trkpt>
      <trkpt lat="48.389" lon="2.72437">
        <ele>93.6</ele>
        <time>2018-04-15T17:34:48Z</time>
      </trkpt>
      <trkpt lat="48.38898" lon="2.7244">
        <ele>93.5</ele>
        <time>2018-04-15T17:34:49Z</time>
      </trkpt>
      <trkpt lat="48.38894" lon="2.72442">
        <ele>93.4</ele>
        <time>2018-04-15T17:34:50Z</time>
      </trkpt>
      <trkpt lat="48.38891" lon="2.72445">
        <ele>93.2</ele>
        <time>2018-04-15T17:34:51Z</time>
      </trkpt>
      <trkpt lat="48.38887" lon="2.72449">
        <ele>93</ele>
        <time>2018-04-15T17:34:52Z</time>
      </trkpt>
      <trkpt lat="48.38882" lon="2.72451">
        <ele>92.8</ele>
        <time>2018-04-15T17:34:53Z</time>
      </trkpt>
      <trkpt lat="48.38879" lon="2.72452">
        <ele>92.7</ele>
        <time>2018-04-15T17:34:54Z</time>
      </trkpt>
      <trkpt lat="48.38876" lon="2.72453">
        <ele>92.5</ele>
        <time>2018-04-15T17:34:55Z</time>
      </trkpt>
      <trkpt lat="48.38872" lon="2.72456">
        <ele>92.3</ele>
        <time>2018-04-15T17:34:56Z</time>
      </trkpt>
      <trkpt lat="48.38868" lon="2.72458">
        <ele>92.1</ele>
        <time>2018-04-15T17:34:57Z</time>
      </trkpt>
      <trkpt lat="48.38865" lon="2.7246">
        <ele>92</ele>
        <time>2018-04-15T17:34:58Z</time>
      </trkpt>
      <trkpt lat="48.38862" lon="2.72461">
        <ele>92</ele>
        <time>2018-04-15T17:34:59Z</time>
      </trkpt>
      <trkpt lat="48.38858" lon="2.72462">
        <ele>92</ele>
        <time>2018-04-15T17:35:00Z</time>
      </trkpt>
      <trkpt lat="48.38853" lon="2.72465">
        <ele>91.9</ele>
        <time>2018-04-15T17:35:01Z</time>
      </trkpt>
      <trkpt lat="48.3885" lon="2.72467">
        <ele>91.9</ele>
        <time>2018-04-15T17:35:02Z</time>
      </trkpt>
      <trkpt lat="48.38848" lon="2.72468">
        <ele>91.8</ele>
        <time>2018-04-15T17:35:03Z</time>
      </trkpt>
      <trkpt lat="48.38845" lon="2.7247">
        <ele>91.7</ele>
        <time>2018-04-15T17:35:04Z</time>
      </trkpt>
      <trkpt lat="48.38841" lon="2.72471">
        <ele>91.6</ele>
        <time>2018-04-15T17:35:05Z</time>
      </trkpt>
      <trkpt lat="48.38837" lon="2.72472">
        <ele>91.5</ele>
        <time>2018-04-15T17:35:06Z</time>
      </trkpt>
      <trkpt lat="48.38834" lon="2.72474">
        <ele>91.4</ele>
        <time>2018-04-15T17:35:07Z</time>
      </trkpt>
      <trkpt lat="48.38831" lon="2.72475">
        <ele>91.4</ele>
        <time>2018-04-15T17:35:08Z</time>
      </trkpt>
      <trkpt lat="48.38827" lon="2.72476">
        <ele>91.3</ele>
        <time>2018-04-15T17:35:09Z</time>
      </trkpt>
      <trkpt lat="48.38821" lon="2.7248">
        <ele>91.1</ele>
        <time>2018-04-15T17:35:11Z</time>
      </trkpt>
      <trkpt lat="48.38816" lon="2.72482">
        <ele>91</ele>
        <time>2018-04-15T17:35:12Z</time>
      </trkpt>
      <trkpt lat="48.38809" lon="2.72484">
        <ele>90.8</ele>
        <time>2018-04-15T17:35:14Z</time>
      </trkpt>
      <trkpt lat="48.38804" lon="2.72485">
        <ele>90.6</ele>
        <time>2018-04-15T17:35:15Z</time>
      </trkpt>
      <trkpt lat="48.38799" lon="2.72486">
        <ele>90.5</ele>
        <time>2018-04-15T17:35:16Z</time>
      </trkpt>
      <trkpt lat="48.38795" lon="2.72487">
        <ele>90.4</ele>
        <time>2018-04-15T17:35:17Z</time>
      </trkpt>
      <trkpt lat="48.38791" lon="2.72488">
        <ele>90.3</ele>
        <time>2018-04-15T17:35:18Z</time>
      </trkpt>
      <trkpt lat="48.38788" lon="2.7249">
        <ele>90.1</ele>
        <time>2018-04-15T17:35:19Z</time>
      </trkpt>
      <trkpt lat="48.38784" lon="2.72492">
        <ele>89.9</ele>
        <time>2018-04-15T17:35:20Z</time>
      </trkpt>
      <trkpt lat="48.38779" lon="2.72493">
        <ele>89.7</ele>
        <time>2018-04-15T17:35:21Z</time>
      </trkpt>
      <trkpt lat="48.38775" lon="2.72494">
        <ele>89.6</ele>
        <time>2018-04-15T17:35:22Z</time>
      </trkpt>
      <trkpt lat="48.3877" lon="2.72495">
        <ele>89.4</ele>
        <time>2018-04-15T17:35:23Z</time>
      </trkpt>
      <trkpt lat="48.38766" lon="2.72496">
        <ele>89.2</ele>
        <time>2018-04-15T17:35:24Z</time>
      </trkpt>
      <trkpt lat="48.38761" lon="2.72497">
        <ele>89.1</ele>
        <time>2018-04-15T17:35:25Z</time>
      </trkpt>
      <trkpt lat="48.38757" lon="2.72498">
        <ele>88.9</ele>
        <time>2018-04-15T17:35:26Z</time>
      </trkpt>
      <trkpt lat="48.38753" lon="2.72499">
        <ele>88.8</ele>
        <time>2018-04-15T17:35:27Z</time>
      </trkpt>
      <trkpt lat="48.38749" lon="2.725">
        <ele>88.6</ele>
        <time>2018-04-15T17:35:28Z</time>
      </trkpt>
      <trkpt lat="48.38745" lon="2.72502">
        <ele>88.5</ele>
        <time>2018-04-15T17:35:29Z</time>
      </trkpt>
      <trkpt lat="48.38741" lon="2.72504">
        <ele>88.3</ele>
        <time>2018-04-15T17:35:30Z</time>
      </trkpt>
      <trkpt lat="48.38738" lon="2.72505">
        <ele>88.1</ele>
        <time>2018-04-15T17:35:31Z</time>
      </trkpt>
      <trkpt lat="48.38732" lon="2.72509">
        <ele>87.8</ele>
        <time>2018-04-15T17:35:32Z</time>
      </trkpt>
      <trkpt lat="48.38729" lon="2.7251">
        <ele>87.7</ele>
        <time>2018-04-15T17:35:33Z</time>
      </trkpt>
      <trkpt lat="48.38724" lon="2.72512">
        <ele>87.6</ele>
        <time>2018-04-15T17:35:34Z</time>
      </trkpt>
      <trkpt lat="48.38718" lon="2.72514">
        <ele>87.4</ele>
        <time>2018-04-15T17:35:35Z</time>
      </trkpt>
      <trkpt lat="48.38714" lon="2.72517">
        <ele>87.3</ele>
        <time>2018-04-15T17:35:36Z</time>
      </trkpt>
      <trkpt lat="48.38709" lon="2.72519">
        <ele>87.1</ele>
        <time>2018-04-15T17:35:37Z</time>
      </trkpt>
      <trkpt lat="48.38704" lon="2.72521">
        <ele>87</ele>
        <time>2018-04-15T17:35:38Z</time>
      </trkpt>
      <trkpt lat="48.387" lon="2.72523">
        <ele>86.7</ele>
        <time>2018-04-15T17:35:39Z</time>
      </trkpt>
      <trkpt lat="48.38696" lon="2.72525">
        <ele>86.4</ele>
        <time>2018-04-15T17:35:40Z</time>
      </trkpt>
      <trkpt lat="48.38692" lon="2.72527">
        <ele>86.2</ele>
        <time>2018-04-15T17:35:41Z</time>
      </trkpt>
      <trkpt lat="48.38686" lon="2.72529">
        <ele>85.9</ele>
        <time>2018-04-15T17:35:42Z</time>
      </trkpt>
      <trkpt lat="48.38683" lon="2.72531">
        <ele>85.8</ele>
        <time>2018-04-15T17:35:43Z</time>
      </trkpt>
      <trkpt lat="48.38679" lon="2.72533">
        <ele>85.6</ele>
        <time>2018-04-15T17:35:44Z</time>
      </trkpt>
      <trkpt lat="48.38675" lon="2.72534">
        <ele>85.5</ele>
        <time>2018-04-15T17:35:45Z</time>
      </trkpt>
      <trkpt lat="48.38671" lon="2.72535">
        <ele>85.4</ele>
        <time>2018-04-15T17:35:46Z</time>
      </trkpt>
      <trkpt lat="48.38667" lon="2.72536">
        <ele>85.2</ele>
        <time>2018-04-15T17:35:47Z</time>
      </trkpt>
      <trkpt lat="48.38664" lon="2.72539">
        <ele>85.1</ele>
        <time>2018-04-15T17:35:48Z</time>
      </trkpt>
      <trkpt lat="48.38659" lon="2.72541">
        <ele>85</ele>
        <time>2018-04-15T17:35:49Z</time>
      </trkpt>
      <trkpt lat="48.38656" lon="2.72542">
        <ele>84.8</ele>
        <time>2018-04-15T17:35:50Z</time>
      </trkpt>
      <trkpt lat="48.38651" lon="2.72542">
        <ele>84.7</ele>
        <time>2018-04-15T17:35:51Z</time>
      </trkpt>
      <trkpt lat="48.38647" lon="2.72543">
        <ele>84.6</ele>
        <time>2018-04-15T17:35:52Z</time>
      </trkpt>
      <trkpt lat="48.38643" lon="2.72545">
        <ele>84.5</ele>
        <time>2018-04-15T17:35:53Z</time>
      </trkpt>
      <trkpt lat="48.38639" lon="2.72547">
        <ele>84.3</ele>
        <time>2018-04-15T17:35:54Z</time>
      </trkpt>
      <trkpt lat="48.38635" lon="2.72548">
        <ele>84</ele>
        <time>2018-04-15T17:35:55Z</time>
      </trkpt>
      <trkpt lat="48.38632" lon="2.72548">
        <ele>83.8</ele>
        <time>2018-04-15T17:35:56Z</time>
      </trkpt>
      <trkpt lat="48.38628" lon="2.7255">
        <ele>83.6</ele>
        <time>2018-04-15T17:35:57Z</time>
      </trkpt>
      <trkpt lat="48.38624" lon="2.72552">
        <ele>83.3</ele>
        <time>2018-04-15T17:35:58Z</time>
      </trkpt>
      <trkpt lat="48.38615" lon="2.72556">
        <ele>82.8</ele>
        <time>2018-04-15T17:36:00Z</time>
      </trkpt>
      <trkpt lat="48.3861" lon="2.72558">
        <ele>82.3</ele>
        <time>2018-04-15T17:36:01Z</time>
      </trkpt>
      <trkpt lat="48.38606" lon="2.72559">
        <ele>82</ele>
        <time>2018-04-15T17:36:02Z</time>
      </trkpt>
      <trkpt lat="48.38602" lon="2.7256">
        <ele>81.7</ele>
        <time>2018-04-15T17:36:03Z</time>
      </trkpt>
      <trkpt lat="48.38598" lon="2.72561">
        <ele>81.4</ele>
        <time>2018-04-15T17:36:04Z</time>
      </trkpt>
      <trkpt lat="48.38592" lon="2.72563">
        <ele>81.1</ele>
        <time>2018-04-15T17:36:05Z</time>
      </trkpt>
      <trkpt lat="48.38586" lon="2.72566">
        <ele>81.1</ele>
        <time>2018-04-15T17:36:06Z</time>
      </trkpt>
      <trkpt lat="48.38581" lon="2.72568">
        <ele>81.1</ele>
        <time>2018-04-15T17:36:07Z</time>
      </trkpt>
      <trkpt lat="48.38576" lon="2.7257">
        <ele>81.2</ele>
        <time>2018-04-15T17:36:08Z</time>
      </trkpt>
      <trkpt lat="48.3857" lon="2.72572">
        <ele>81.3</ele>
        <time>2018-04-15T17:36:09Z</time>
      </trkpt>
      <trkpt lat="48.38565" lon="2.72573">
        <ele>81.4</ele>
        <time>2018-04-15T17:36:10Z</time>
      </trkpt>
      <trkpt lat="48.38561" lon="2.72574">
        <ele>81.4</ele>
        <time>2018-04-15T17:36:11Z</time>
      </trkpt>
      <trkpt lat="48.38555" lon="2.72576">
        <ele>81.5</ele>
        <time>2018-04-15T17:36:12Z</time>
      </trkpt>
      <trkpt lat="48.38551" lon="2.72577">
        <ele>81.6</ele>
        <time>2018-04-15T17:36:13Z</time>
      </trkpt>
      <trkpt lat="48.38547" lon="2.72578">
        <ele>81.6</ele>
        <time>2018-04-15T17:36:14Z</time>
      </trkpt>
      <trkpt lat="48.38543" lon="2.7258">
        <ele>81.7</ele>
        <time>2018-04-15T17:36:15Z</time>
      </trkpt>
      <trkpt lat="48.3854" lon="2.72582">
        <ele>81.9</ele>
        <time>2018-04-15T17:36:16Z</time>
      </trkpt>
      <trkpt lat="48.38536" lon="2.72584">
        <ele>82</ele>
        <time>2018-04-15T17:36:17Z</time>
      </trkpt>
      <trkpt lat="48.38532" lon="2.72586">
        <ele>82.1</ele>
        <time>2018-04-15T17:36:18Z</time>
      </trkpt>
      <trkpt lat="48.38529" lon="2.72587">
        <ele>82.2</ele>
        <time>2018-04-15T17:36:19Z</time>
      </trkpt>
      <trkpt lat="48.38526" lon="2.72589">
        <ele>82.2</ele>
        <time>2018-04-15T17:36:20Z</time>
      </trkpt>
      <trkpt lat="48.38523" lon="2.7259">
        <ele>82.3</ele>
        <time>2018-04-15T17:36:21Z</time>
      </trkpt>
      <trkpt lat="48.38519" lon="2.72592">
        <ele>82.4</ele>
        <time>2018-04-15T17:36:22Z</time>
      </trkpt>
      <trkpt lat="48.38516" lon="2.72594">
        <ele>82.5</ele>
        <time>2018-04-15T17:36:23Z</time>
      </trkpt>
      <trkpt lat="48.38512" lon="2.72596">
        <ele>82.6</ele>
        <time>2018-04-15T17:36:25Z</time>
      </trkpt>
      <trkpt lat="48.38506" lon="2.72597">
        <ele>82.8</ele>
        <time>2018-04-15T17:36:27Z</time>
      </trkpt>
      <trkpt lat="48.38504" lon="2.72597">
        <ele>82.9</ele>
        <time>2018-04-15T17:36:28Z</time>
      </trkpt>
      <trkpt lat="48.385" lon="2.72599">
        <ele>83</ele>
        <time>2018-04-15T17:36:29Z</time>
      </trkpt>
      <trkpt lat="48.38497" lon="2.726">
        <ele>83</ele>
        <time>2018-04-15T17:36:30Z</time>
      </trkpt>
      <trkpt lat="48.38492" lon="2.72603">
        <ele>83.2</ele>
        <time>2018-04-15T17:36:32Z</time>
      </trkpt>
      <trkpt lat="48.38489" lon="2.72604">
        <ele>83.2</ele>
        <time>2018-04-15T17:36:33Z</time>
      </trkpt>
      <trkpt lat="48.38486" lon="2.72605">
        <ele>83.3</ele>
        <time>2018-04-15T17:36:34Z</time>
      </trkpt>
      <trkpt lat="48.38482" lon="2.72607">
        <ele>83.4</ele>
        <time>2018-04-15T17:36:35Z</time>
      </trkpt>
      <trkpt lat="48.38478" lon="2.72608">
        <ele>83.5</ele>
        <time>2018-04-15T17:36:36Z</time>
      </trkpt>
      <trkpt lat="48.38475" lon="2.7261">
        <ele>83.5</ele>
        <time>2018-04-15T17:36:37Z</time>
      </trkpt>
      <trkpt lat="48.38469" lon="2.72612">
        <ele>83.7</ele>
        <time>2018-04-15T17:36:39Z</time>
      </trkpt>
      <trkpt lat="48.38467" lon="2.72613">
        <ele>83.7</ele>
        <time>2018-04-15T17:36:40Z</time>
      </trkpt>
      <trkpt lat="48.38461" lon="2.72616">
        <ele>83.8</ele>
        <time>2018-04-15T17:36:42Z</time>
      </trkpt>
      <trkpt lat="48.38457" lon="2.72617">
        <ele>83.9</ele>
        <time>2018-04-15T17:36:43Z</time>
      </trkpt>
      <trkpt lat="48.38453" lon="2.72619">
        <ele>84</ele>
        <time>2018-04-15T17:36:44Z</time>
      </trkpt>
      <trkpt lat="48.38448" lon="2.72621">
        <ele>84.1</ele>
        <time>2018-04-15T17:36:45Z</time>
      </trkpt>
      <trkpt lat="48.38444" lon="2.72623">
        <ele>84.1</ele>
        <time>2018-04-15T17:36:46Z</time>
      </trkpt>
      <trkpt lat="48.38438" lon="2.72626">
        <ele>84.3</ele>
        <time>2018-04-15T17:36:47Z</time>
      </trkpt>
      <trkpt lat="48.38434" lon="2.72627">
        <ele>84.4</ele>
        <time>2018-04-15T17:36:48Z</time>
      </trkpt>
      <trkpt lat="48.38429" lon="2.72628">
        <ele>84.5</ele>
        <time>2018-04-15T17:36:49Z</time>
      </trkpt>
      <trkpt lat="48.38425" lon="2.7263">
        <ele>84.6</ele>
        <time>2018-04-15T17:36:50Z</time>
      </trkpt>
      <trkpt lat="48.38421" lon="2.72632">
        <ele>84.6</ele>
        <time>2018-04-15T17:36:51Z</time>
      </trkpt>
      <trkpt lat="48.38416" lon="2.72633">
        <ele>84.7</ele>
        <time>2018-04-15T17:36:52Z</time>
      </trkpt>
      <trkpt lat="48.38411" lon="2.72634">
        <ele>84.8</ele>
        <time>2018-04-15T17:36:53Z</time>
      </trkpt>
      <trkpt lat="48.38408" lon="2.72636">
        <ele>84.9</ele>
        <time>2018-04-15T17:36:54Z</time>
      </trkpt>
      <trkpt lat="48.38404" lon="2.72638">
        <ele>85</ele>
        <time>2018-04-15T17:36:55Z</time>
      </trkpt>
      <trkpt lat="48.384" lon="2.7264">
        <ele>85.3</ele>
        <time>2018-04-15T17:36:56Z</time>
      </trkpt>
      <trkpt lat="48.38396" lon="2.72642">
        <ele>85.6</ele>
        <time>2018-04-15T17:36:57Z</time>
      </trkpt>
      <trkpt lat="48.38393" lon="2.72643">
        <ele>85.8</ele>
        <time>2018-04-15T17:36:58Z</time>
      </trkpt>
      <trkpt lat="48.38389" lon="2.72645">
        <ele>86.1</ele>
        <time>2018-04-15T17:36:59Z</time>
      </trkpt>
      <trkpt lat="48.38385" lon="2.72647">
        <ele>86.3</ele>
        <time>2018-04-15T17:37:00Z</time>
      </trkpt>
      <trkpt lat="48.3838" lon="2.72648">
        <ele>86.6</ele>
        <time>2018-04-15T17:37:01Z</time>
      </trkpt>
      <trkpt lat="48.38373" lon="2.7265">
        <ele>86.9</ele>
        <time>2018-04-15T17:37:02Z</time>
      </trkpt>
      <trkpt lat="48.38368" lon="2.72651">
        <ele>87.2</ele>
        <time>2018-04-15T17:37:03Z</time>
      </trkpt>
      <trkpt lat="48.38363" lon="2.72653">
        <ele>87.4</ele>
        <time>2018-04-15T17:37:04Z</time>
      </trkpt>
      <trkpt lat="48.38359" lon="2.72655">
        <ele>87.6</ele>
        <time>2018-04-15T17:37:05Z</time>
      </trkpt>
      <trkpt lat="48.38354" lon="2.72655">
        <ele>87.9</ele>
        <time>2018-04-15T17:37:06Z</time>
      </trkpt>
      <trkpt lat="48.38351" lon="2.72657">
        <ele>88.1</ele>
        <time>2018-04-15T17:37:07Z</time>
      </trkpt>
      <trkpt lat="48.38347" lon="2.72659">
        <ele>88.3</ele>
        <time>2018-04-15T17:37:08Z</time>
      </trkpt>
      <trkpt lat="48.38343" lon="2.7266">
        <ele>88.5</ele>
        <time>2018-04-15T17:37:09Z</time>
      </trkpt>
      <trkpt lat="48.38339" lon="2.72662">
        <ele>88.7</ele>
        <time>2018-04-15T17:37:10Z</time>
      </trkpt>
      <trkpt lat="48.38335" lon="2.72663">
        <ele>88.9</ele>
        <time>2018-04-15T17:37:11Z</time>
      </trkpt>
      <trkpt lat="48.38332" lon="2.72664">
        <ele>89.1</ele>
        <time>2018-04-15T17:37:12Z</time>
      </trkpt>
      <trkpt lat="48.38326" lon="2.72666">
        <ele>89.3</ele>
        <time>2018-04-15T17:37:14Z</time>
      </trkpt>
      <trkpt lat="48.38322" lon="2.72668">
        <ele>89.5</ele>
        <time>2018-04-15T17:37:15Z</time>
      </trkpt>
      <trkpt lat="48.38318" lon="2.72669">
        <ele>89.7</ele>
        <time>2018-04-15T17:37:16Z</time>
      </trkpt>
      <trkpt lat="48.38314" lon="2.7267">
        <ele>89.9</ele>
        <time>2018-04-15T17:37:17Z</time>
      </trkpt>
      <trkpt lat="48.38309" lon="2.72672">
        <ele>90.1</ele>
        <time>2018-04-15T17:37:18Z</time>
      </trkpt>
      <trkpt lat="48.38306" lon="2.72673">
        <ele>90.4</ele>
        <time>2018-04-15T17:37:19Z</time>
      </trkpt>
      <trkpt lat="48.38302" lon="2.72675">
        <ele>90.7</ele>
        <time>2018-04-15T17:37:20Z</time>
      </trkpt>
      <trkpt lat="48.38296" lon="2.72677">
        <ele>91</ele>
        <time>2018-04-15T17:37:22Z</time>
      </trkpt>
      <trkpt lat="48.38293" lon="2.72678">
        <ele>91.2</ele>
        <time>2018-04-15T17:37:23Z</time>
      </trkpt>
      <trkpt lat="48.3829" lon="2.72679">
        <ele>91.3</ele>
        <time>2018-04-15T17:37:24Z</time>
      </trkpt>
      <trkpt lat="48.38287" lon="2.7268">
        <ele>91.5</ele>
        <time>2018-04-15T17:37:25Z</time>
      </trkpt>
      <trkpt lat="48.38284" lon="2.72681">
        <ele>91.6</ele>
        <time>2018-04-15T17:37:26Z</time>
      </trkpt>
      <trkpt lat="48.3828" lon="2.72681">
        <ele>91.9</ele>
        <time>2018-04-15T17:37:28Z</time>
      </trkpt>
      <trkpt lat="48.38275" lon="2.72683">
        <ele>92.2</ele>
        <time>2018-04-15T17:37:30Z</time>
      </trkpt>
      <trkpt lat="48.38272" lon="2.72684">
        <ele>92.4</ele>
        <time>2018-04-15T17:37:31Z</time>
      </trkpt>
      <trkpt lat="48.38269" lon="2.72686">
        <ele>92.7</ele>
        <time>2018-04-15T17:37:32Z</time>
      </trkpt>
      <trkpt lat="48.38266" lon="2.72688">
        <ele>93</ele>
        <time>2018-04-15T17:37:33Z</time>
      </trkpt>
      <trkpt lat="48.38263" lon="2.72689">
        <ele>93.5</ele>
        <time>2018-04-15T17:37:34Z</time>
      </trkpt>
      <trkpt lat="48.3826" lon="2.7269">
        <ele>93.8</ele>
        <time>2018-04-15T17:37:35Z</time>
      </trkpt>
      <trkpt lat="48.38255" lon="2.72693">
        <ele>94.3</ele>
        <time>2018-04-15T17:37:37Z</time>
      </trkpt>
      <trkpt lat="48.38252" lon="2.72695">
        <ele>94.6</ele>
        <time>2018-04-15T17:37:38Z</time>
      </trkpt>
      <trkpt lat="48.3825" lon="2.72697">
        <ele>94.7</ele>
        <time>2018-04-15T17:37:39Z</time>
      </trkpt>
      <trkpt lat="48.38247" lon="2.72699">
        <ele>94.5</ele>
        <time>2018-04-15T17:37:40Z</time>
      </trkpt>
      <trkpt lat="48.38244" lon="2.72703">
        <ele>94.3</ele>
        <time>2018-04-15T17:37:41Z</time>
      </trkpt>
      <trkpt lat="48.38241" lon="2.72707">
        <ele>93.9</ele>
        <time>2018-04-15T17:37:42Z</time>
      </trkpt>
      <trkpt lat="48.38238" lon="2.7271">
        <ele>93.5</ele>
        <time>2018-04-15T17:37:43Z</time>
      </trkpt>
      <trkpt lat="48.38237" lon="2.72714">
        <ele>92.8</ele>
        <time>2018-04-15T17:37:44Z</time>
      </trkpt>
      <trkpt lat="48.38235" lon="2.7272">
        <ele>92.2</ele>
        <time>2018-04-15T17:37:46Z</time>
      </trkpt>
      <trkpt lat="48.38237" lon="2.72727">
        <ele>91.9</ele>
        <time>2018-04-15T17:37:48Z</time>
      </trkpt>
      <trkpt lat="48.38237" lon="2.72732">
        <ele>91.7</ele>
        <time>2018-04-15T17:37:49Z</time>
      </trkpt>
      <trkpt lat="48.38237" lon="2.72737">
        <ele>91.6</ele>
        <time>2018-04-15T17:37:50Z</time>
      </trkpt>
      <trkpt lat="48.38237" lon="2.72742">
        <ele>91.4</ele>
        <time>2018-04-15T17:37:51Z</time>
      </trkpt>
      <trkpt lat="48.38237" lon="2.72747">
        <ele>91.3</ele>
        <time>2018-04-15T17:37:52Z</time>
      </trkpt>
      <trkpt lat="48.38237" lon="2.72752">
        <ele>91.2</ele>
        <time>2018-04-15T17:37:53Z</time>
      </trkpt>
      <trkpt lat="48.38236" lon="2.72758">
        <ele>91</ele>
        <time>2018-04-15T17:37:54Z</time>
      </trkpt>
      <trkpt lat="48.38236" lon="2.72763">
        <ele>90.9</ele>
        <time>2018-04-15T17:37:55Z</time>
      </trkpt>
      <trkpt lat="48.38236" lon="2.72769">
        <ele>90.8</ele>
        <time>2018-04-15T17:37:56Z</time>
      </trkpt>
      <trkpt lat="48.38235" lon="2.72774">
        <ele>90.7</ele>
        <time>2018-04-15T17:37:57Z</time>
      </trkpt>
      <trkpt lat="48.38235" lon="2.7278">
        <ele>90.6</ele>
        <time>2018-04-15T17:37:58Z</time>
      </trkpt>
      <trkpt lat="48.38234" lon="2.72786">
        <ele>90.4</ele>
        <time>2018-04-15T17:37:59Z</time>
      </trkpt>
      <trkpt lat="48.38234" lon="2.72793">
        <ele>90.3</ele>
        <time>2018-04-15T17:38:00Z</time>
      </trkpt>
      <trkpt lat="48.38233" lon="2.72799">
        <ele>90</ele>
        <time>2018-04-15T17:38:01Z</time>
      </trkpt>
      <trkpt lat="48.38232" lon="2.72806">
        <ele>89.7</ele>
        <time>2018-04-15T17:38:02Z</time>
      </trkpt>
      <trkpt lat="48.38231" lon="2.72813">
        <ele>89.3</ele>
        <time>2018-04-15T17:38:03Z</time>
      </trkpt>
      <trkpt lat="48.3823" lon="2.7282">
        <ele>88.8</ele>
        <time>2018-04-15T17:38:04Z</time>
      </trkpt>
      <trkpt lat="48.38229" lon="2.72827">
        <ele>88.4</ele>
        <time>2018-04-15T17:38:05Z</time>
      </trkpt>
      <trkpt lat="48.38229" lon="2.72833">
        <ele>88.1</ele>
        <time>2018-04-15T17:38:06Z</time>
      </trkpt>
      <trkpt lat="48.38228" lon="2.7284">
        <ele>87.9</ele>
        <time>2018-04-15T17:38:07Z</time>
      </trkpt>
      <trkpt lat="48.38227" lon="2.72846">
        <ele>87.7</ele>
        <time>2018-04-15T17:38:08Z</time>
      </trkpt>
      <trkpt lat="48.38226" lon="2.72853">
        <ele>87.6</ele>
        <time>2018-04-15T17:38:09Z</time>
      </trkpt>
      <trkpt lat="48.38225" lon="2.7286">
        <ele>87.6</ele>
        <time>2018-04-15T17:38:10Z</time>
      </trkpt>
      <trkpt lat="48.38224" lon="2.72867">
        <ele>87.5</ele>
        <time>2018-04-15T17:38:11Z</time>
      </trkpt>
      <trkpt lat="48.38224" lon="2.72875">
        <ele>87.4</ele>
        <time>2018-04-15T17:38:12Z</time>
      </trkpt>
      <trkpt lat="48.38223" lon="2.72882">
        <ele>87.3</ele>
        <time>2018-04-15T17:38:13Z</time>
      </trkpt>
      <trkpt lat="48.38222" lon="2.72889">
        <ele>87.2</ele>
        <time>2018-04-15T17:38:14Z</time>
      </trkpt>
      <trkpt lat="48.38221" lon="2.72896">
        <ele>87.1</ele>
        <time>2018-04-15T17:38:15Z</time>
      </trkpt>
      <trkpt lat="48.3822" lon="2.72903">
        <ele>87</ele>
        <time>2018-04-15T17:38:16Z</time>
      </trkpt>
      <trkpt lat="48.38219" lon="2.7291">
        <ele>86.9</ele>
        <time>2018-04-15T17:38:17Z</time>
      </trkpt>
      <trkpt lat="48.38218" lon="2.72917">
        <ele>86.9</ele>
        <time>2018-04-15T17:38:18Z</time>
      </trkpt>
      <trkpt lat="48.38217" lon="2.72924">
        <ele>86.8</ele>
        <time>2018-04-15T17:38:19Z</time>
      </trkpt>
      <trkpt lat="48.38217" lon="2.7293">
        <ele>86.7</ele>
        <time>2018-04-15T17:38:20Z</time>
      </trkpt>
      <trkpt lat="48.38216" lon="2.72937">
        <ele>86.6</ele>
        <time>2018-04-15T17:38:21Z</time>
      </trkpt>
      <trkpt lat="48.38215" lon="2.72943">
        <ele>86.6</ele>
        <time>2018-04-15T17:38:22Z</time>
      </trkpt>
      <trkpt lat="48.38215" lon="2.72949">
        <ele>86.5</ele>
        <time>2018-04-15T17:38:23Z</time>
      </trkpt>
      <trkpt lat="48.38214" lon="2.72955">
        <ele>86.4</ele>
        <time>2018-04-15T17:38:24Z</time>
      </trkpt>
      <trkpt lat="48.38214" lon="2.72961">
        <ele>86.3</ele>
        <time>2018-04-15T17:38:25Z</time>
      </trkpt>
      <trkpt lat="48.38213" lon="2.72966">
        <ele>86.3</ele>
        <time>2018-04-15T17:38:26Z</time>
      </trkpt>
      <trkpt lat="48.38212" lon="2.72972">
        <ele>86.2</ele>
        <time>2018-04-15T17:38:27Z</time>
      </trkpt>
      <trkpt lat="48.38211" lon="2.72977">
        <ele>86.2</ele>
        <time>2018-04-15T17:38:28Z</time>
      </trkpt>
      <trkpt lat="48.38211" lon="2.72982">
        <ele>86.1</ele>
        <time>2018-04-15T17:38:29Z</time>
      </trkpt>
      <trkpt lat="48.38211" lon="2.72987">
        <ele>86.1</ele>
        <time>2018-04-15T17:38:30Z</time>
      </trkpt>
      <trkpt lat="48.3821" lon="2.72991">
        <ele>86</ele>
        <time>2018-04-15T17:38:31Z</time>
      </trkpt>
      <trkpt lat="48.3821" lon="2.72996">
        <ele>85.9</ele>
        <time>2018-04-15T17:38:32Z</time>
      </trkpt>
      <trkpt lat="48.38209" lon="2.73002">
        <ele>85.8</ele>
        <time>2018-04-15T17:38:33Z</time>
      </trkpt>
      <trkpt lat="48.38209" lon="2.73007">
        <ele>85.7</ele>
        <time>2018-04-15T17:38:34Z</time>
      </trkpt>
      <trkpt lat="48.38208" lon="2.73012">
        <ele>85.7</ele>
        <time>2018-04-15T17:38:35Z</time>
      </trkpt>
      <trkpt lat="48.38208" lon="2.73017">
        <ele>85.6</ele>
        <time>2018-04-15T17:38:36Z</time>
      </trkpt>
      <trkpt lat="48.38207" lon="2.73023">
        <ele>85.6</ele>
        <time>2018-04-15T17:38:37Z</time>
      </trkpt>
      <trkpt lat="48.38206" lon="2.73029">
        <ele>85.6</ele>
        <time>2018-04-15T17:38:38Z</time>
      </trkpt>
      <trkpt lat="48.38206" lon="2.73035">
        <ele>85.5</ele>
        <time>2018-04-15T17:38:39Z</time>
      </trkpt>
      <trkpt lat="48.38205" lon="2.73041">
        <ele>85.5</ele>
        <time>2018-04-15T17:38:40Z</time>
      </trkpt>
      <trkpt lat="48.38204" lon="2.73047">
        <ele>85.4</ele>
        <time>2018-04-15T17:38:41Z</time>
      </trkpt>
      <trkpt lat="48.38202" lon="2.73053">
        <ele>85.3</ele>
        <time>2018-04-15T17:38:42Z</time>
      </trkpt>
      <trkpt lat="48.38202" lon="2.73058">
        <ele>85.2</ele>
        <time>2018-04-15T17:38:43Z</time>
      </trkpt>
      <trkpt lat="48.38201" lon="2.73064">
        <ele>85.1</ele>
        <time>2018-04-15T17:38:44Z</time>
      </trkpt>
      <trkpt lat="48.382" lon="2.7307">
        <ele>85.1</ele>
        <time>2018-04-15T17:38:45Z</time>
      </trkpt>
      <trkpt lat="48.382" lon="2.73075">
        <ele>85</ele>
        <time>2018-04-15T17:38:46Z</time>
      </trkpt>
      <trkpt lat="48.38199" lon="2.73081">
        <ele>84.9</ele>
        <time>2018-04-15T17:38:47Z</time>
      </trkpt>
      <trkpt lat="48.38198" lon="2.73088">
        <ele>84.8</ele>
        <time>2018-04-15T17:38:48Z</time>
      </trkpt>
      <trkpt lat="48.38197" lon="2.73094">
        <ele>84.8</ele>
        <time>2018-04-15T17:38:49Z</time>
      </trkpt>
      <trkpt lat="48.38197" lon="2.731">
        <ele>84.7</ele>
        <time>2018-04-15T17:38:50Z</time>
      </trkpt>
      <trkpt lat="48.38197" lon="2.73105">
        <ele>84.6</ele>
        <time>2018-04-15T17:38:51Z</time>
      </trkpt>
      <trkpt lat="48.38196" lon="2.73111">
        <ele>84.5</ele>
        <time>2018-04-15T17:38:52Z</time>
      </trkpt>
      <trkpt lat="48.38196" lon="2.73117">
        <ele>84.5</ele>
        <time>2018-04-15T17:38:53Z</time>
      </trkpt>
      <trkpt lat="48.38196" lon="2.73123">
        <ele>84.4</ele>
        <time>2018-04-15T17:38:54Z</time>
      </trkpt>
      <trkpt lat="48.38195" lon="2.73129">
        <ele>84.3</ele>
        <time>2018-04-15T17:38:55Z</time>
      </trkpt>
      <trkpt lat="48.38195" lon="2.73135">
        <ele>84.1</ele>
        <time>2018-04-15T17:38:56Z</time>
      </trkpt>
      <trkpt lat="48.38194" lon="2.7314">
        <ele>84</ele>
        <time>2018-04-15T17:38:57Z</time>
      </trkpt>
      <trkpt lat="48.38193" lon="2.73146">
        <ele>84</ele>
        <time>2018-04-15T17:38:58Z</time>
      </trkpt>
      <trkpt lat="48.38193" lon="2.73151">
        <ele>84.1</ele>
        <time>2018-04-15T17:38:59Z</time>
      </trkpt>
      <trkpt lat="48.38193" lon="2.73155">
        <ele>84.1</ele>
        <time>2018-04-15T17:39:00Z</time>
      </trkpt>
      <trkpt lat="48.38192" lon="2.7316">
        <ele>84.2</ele>
        <time>2018-04-15T17:39:01Z</time>
      </trkpt>
      <trkpt lat="48.38192" lon="2.73165">
        <ele>84.2</ele>
        <time>2018-04-15T17:39:02Z</time>
      </trkpt>
      <trkpt lat="48.38191" lon="2.73173">
        <ele>84.3</ele>
        <time>2018-04-15T17:39:04Z</time>
      </trkpt>
      <trkpt lat="48.38192" lon="2.73177">
        <ele>84.3</ele>
        <time>2018-04-15T17:39:06Z</time>
      </trkpt>
      <trkpt lat="48.38192" lon="2.73181">
        <ele>84.4</ele>
        <time>2018-04-15T17:39:17Z</time>
      </trkpt>
      <trkpt lat="48.38191" lon="2.73177">
        <ele>84.4</ele>
        <time>2018-04-15T17:40:19Z</time>
      </trkpt>
      <trkpt lat="48.3819" lon="2.73172">
        <ele>84.5</ele>
        <time>2018-04-15T17:40:31Z</time>
      </trkpt>
      <trkpt lat="48.3819" lon="2.73168">
        <ele>84.5</ele>
        <time>2018-04-15T17:40:45Z</time>
      </trkpt>
      <trkpt lat="48.38192" lon="2.73172">
        <ele>84.5</ele>
        <time>2018-04-15T17:40:52Z</time>
      </trkpt>
      <trkpt lat="48.38196" lon="2.73175">
        <ele>84.6</ele>
        <time>2018-04-15T17:40:57Z</time>
      </trkpt>
      <trkpt lat="48.38198" lon="2.7318">
        <ele>84.7</ele>
        <time>2018-04-15T17:41:05Z</time>
      </trkpt>
      <trkpt lat="48.38198" lon="2.73186">
        <ele>84.8</ele>
        <time>2018-04-15T17:41:07Z</time>
      </trkpt>
      <trkpt lat="48.38197" lon="2.73194">
        <ele>85</ele>
        <time>2018-04-15T17:41:09Z</time>
      </trkpt>
      <trkpt lat="48.38195" lon="2.73201">
        <ele>85.1</ele>
        <time>2018-04-15T17:41:11Z</time>
      </trkpt>
      <trkpt lat="48.38195" lon="2.73205">
        <ele>85.2</ele>
        <time>2018-04-15T17:41:12Z</time>
      </trkpt>
      <trkpt lat="48.38193" lon="2.73212">
        <ele>85.3</ele>
        <time>2018-04-15T17:41:14Z</time>
      </trkpt>
      <trkpt lat="48.38191" lon="2.73218">
        <ele>85.5</ele>
        <time>2018-04-15T17:41:16Z</time>
      </trkpt>
      <trkpt lat="48.38191" lon="2.73227">
        <ele>85.6</ele>
        <time>2018-04-15T17:41:18Z</time>
      </trkpt>
      <trkpt lat="48.38191" lon="2.73231">
        <ele>85.7</ele>
        <time>2018-04-15T17:41:19Z</time>
      </trkpt>
      <trkpt lat="48.3819" lon="2.73239">
        <ele>85.7</ele>
        <time>2018-04-15T17:41:21Z</time>
      </trkpt>
      <trkpt lat="48.38189" lon="2.73243">
        <ele>85.7</ele>
        <time>2018-04-15T17:41:22Z</time>
      </trkpt>
      <trkpt lat="48.38188" lon="2.73251">
        <ele>85.8</ele>
        <time>2018-04-15T17:41:24Z</time>
      </trkpt>
      <trkpt lat="48.38187" lon="2.73256">
        <ele>85.8</ele>
        <time>2018-04-15T17:41:25Z</time>
      </trkpt>
      <trkpt lat="48.38186" lon="2.73261">
        <ele>85.7</ele>
        <time>2018-04-15T17:41:26Z</time>
      </trkpt>
      <trkpt lat="48.38186" lon="2.73266">
        <ele>85.7</ele>
        <time>2018-04-15T17:41:27Z</time>
      </trkpt>
      <trkpt lat="48.38185" lon="2.7327">
        <ele>85.7</ele>
        <time>2018-04-15T17:41:28Z</time>
      </trkpt>
      <trkpt lat="48.38184" lon="2.73276">
        <ele>85.7</ele>
        <time>2018-04-15T17:41:29Z</time>
      </trkpt>
      <trkpt lat="48.38183" lon="2.73285">
        <ele>85.6</ele>
        <time>2018-04-15T17:41:31Z</time>
      </trkpt>
      <trkpt lat="48.38181" lon="2.73293">
        <ele>85.5</ele>
        <time>2018-04-15T17:41:33Z</time>
      </trkpt>
      <trkpt lat="48.3818" lon="2.73298">
        <ele>85.4</ele>
        <time>2018-04-15T17:41:34Z</time>
      </trkpt>
      <trkpt lat="48.38179" lon="2.73302">
        <ele>85.4</ele>
        <time>2018-04-15T17:41:35Z</time>
      </trkpt>
      <trkpt lat="48.38178" lon="2.73308">
        <ele>85.4</ele>
        <time>2018-04-15T17:41:36Z</time>
      </trkpt>
      <trkpt lat="48.38177" lon="2.73312">
        <ele>85.3</ele>
        <time>2018-04-15T17:41:37Z</time>
      </trkpt>
      <trkpt lat="48.38177" lon="2.73316">
        <ele>85.3</ele>
        <time>2018-04-15T17:41:38Z</time>
      </trkpt>
      <trkpt lat="48.38176" lon="2.73321">
        <ele>85.2</ele>
        <time>2018-04-15T17:41:39Z</time>
      </trkpt>
      <trkpt lat="48.38176" lon="2.73327">
        <ele>85.2</ele>
        <time>2018-04-15T17:41:40Z</time>
      </trkpt>
      <trkpt lat="48.38175" lon="2.73333">
        <ele>85.1</ele>
        <time>2018-04-15T17:41:41Z</time>
      </trkpt>
      <trkpt lat="48.38175" lon="2.73337">
        <ele>85.1</ele>
        <time>2018-04-15T17:41:42Z</time>
      </trkpt>
      <trkpt lat="48.38174" lon="2.73342">
        <ele>85.1</ele>
        <time>2018-04-15T17:41:43Z</time>
      </trkpt>
      <trkpt lat="48.38174" lon="2.73347">
        <ele>85</ele>
        <time>2018-04-15T17:41:44Z</time>
      </trkpt>
      <trkpt lat="48.38173" lon="2.73352">
        <ele>85</ele>
        <time>2018-04-15T17:41:45Z</time>
      </trkpt>
      <trkpt lat="48.38173" lon="2.73358">
        <ele>85</ele>
        <time>2018-04-15T17:41:46Z</time>
      </trkpt>
      <trkpt lat="48.38172" lon="2.73363">
        <ele>85</ele>
        <time>2018-04-15T17:41:47Z</time>
      </trkpt>
      <trkpt lat="48.38172" lon="2.73368">
        <ele>84.9</ele>
        <time>2018-04-15T17:41:48Z</time>
      </trkpt>
      <trkpt lat="48.38171" lon="2.73374">
        <ele>84.9</ele>
        <time>2018-04-15T17:41:49Z</time>
      </trkpt>
      <trkpt lat="48.38171" lon="2.73379">
        <ele>84.9</ele>
        <time>2018-04-15T17:41:50Z</time>
      </trkpt>
      <trkpt lat="48.3817" lon="2.73383">
        <ele>84.9</ele>
        <time>2018-04-15T17:41:51Z</time>
      </trkpt>
      <trkpt lat="48.3817" lon="2.73388">
        <ele>84.9</ele>
        <time>2018-04-15T17:41:52Z</time>
      </trkpt>
      <trkpt lat="48.38169" lon="2.73393">
        <ele>84.9</ele>
        <time>2018-04-15T17:41:53Z</time>
      </trkpt>
      <trkpt lat="48.38168" lon="2.73398">
        <ele>84.9</ele>
        <time>2018-04-15T17:41:54Z</time>
      </trkpt>
      <trkpt lat="48.38168" lon="2.73403">
        <ele>84.9</ele>
        <time>2018-04-15T17:41:55Z</time>
      </trkpt>
      <trkpt lat="48.38167" lon="2.73408">
        <ele>84.9</ele>
        <time>2018-04-15T17:41:56Z</time>
      </trkpt>
      <trkpt lat="48.38167" lon="2.73413">
        <ele>84.8</ele>
        <time>2018-04-15T17:41:57Z</time>
      </trkpt>
      <trkpt lat="48.38166" lon="2.73418">
        <ele>84.8</ele>
        <time>2018-04-15T17:41:58Z</time>
      </trkpt>
      <trkpt lat="48.38166" lon="2.73424">
        <ele>84.8</ele>
        <time>2018-04-15T17:41:59Z</time>
      </trkpt>
      <trkpt lat="48.38166" lon="2.73429">
        <ele>84.7</ele>
        <time>2018-04-15T17:42:00Z</time>
      </trkpt>
      <trkpt lat="48.38166" lon="2.73434">
        <ele>84.7</ele>
        <time>2018-04-15T17:42:01Z</time>
      </trkpt>
      <trkpt lat="48.38165" lon="2.73439">
        <ele>84.7</ele>
        <time>2018-04-15T17:42:02Z</time>
      </trkpt>
      <trkpt lat="48.38164" lon="2.73444">
        <ele>84.6</ele>
        <time>2018-04-15T17:42:03Z</time>
      </trkpt>
      <trkpt lat="48.38163" lon="2.73449">
        <ele>84.5</ele>
        <time>2018-04-15T17:42:04Z</time>
      </trkpt>
      <trkpt lat="48.38162" lon="2.73453">
        <ele>84.5</ele>
        <time>2018-04-15T17:42:05Z</time>
      </trkpt>
      <trkpt lat="48.38162" lon="2.73458">
        <ele>84.4</ele>
        <time>2018-04-15T17:42:06Z</time>
      </trkpt>
      <trkpt lat="48.38161" lon="2.73463">
        <ele>84.3</ele>
        <time>2018-04-15T17:42:07Z</time>
      </trkpt>
      <trkpt lat="48.3816" lon="2.73467">
        <ele>84.3</ele>
        <time>2018-04-15T17:42:08Z</time>
      </trkpt>
      <trkpt lat="48.3816" lon="2.73472">
        <ele>84.2</ele>
        <time>2018-04-15T17:42:09Z</time>
      </trkpt>
      <trkpt lat="48.38159" lon="2.73479">
        <ele>84.1</ele>
        <time>2018-04-15T17:42:11Z</time>
      </trkpt>
      <trkpt lat="48.38159" lon="2.73487">
        <ele>84</ele>
        <time>2018-04-15T17:42:13Z</time>
      </trkpt>
      <trkpt lat="48.38158" lon="2.73494">
        <ele>83.9</ele>
        <time>2018-04-15T17:42:15Z</time>
      </trkpt>
      <trkpt lat="48.38157" lon="2.73502">
        <ele>83.9</ele>
        <time>2018-04-15T17:42:17Z</time>
      </trkpt>
      <trkpt lat="48.38157" lon="2.73508">
        <ele>83.9</ele>
        <time>2018-04-15T17:42:19Z</time>
      </trkpt>
      <trkpt lat="48.38156" lon="2.73514">
        <ele>83.9</ele>
        <time>2018-04-15T17:42:20Z</time>
      </trkpt>
      <trkpt lat="48.38156" lon="2.73518">
        <ele>83.9</ele>
        <time>2018-04-15T17:42:21Z</time>
      </trkpt>
      <trkpt lat="48.38155" lon="2.73523">
        <ele>83.9</ele>
        <time>2018-04-15T17:42:22Z</time>
      </trkpt>
      <trkpt lat="48.38154" lon="2.73529">
        <ele>83.9</ele>
        <time>2018-04-15T17:42:24Z</time>
      </trkpt>
      <trkpt lat="48.38154" lon="2.73533">
        <ele>84</ele>
        <time>2018-04-15T17:42:25Z</time>
      </trkpt>
      <trkpt lat="48.38153" lon="2.7354">
        <ele>84</ele>
        <time>2018-04-15T17:42:27Z</time>
      </trkpt>
      <trkpt lat="48.38153" lon="2.73545">
        <ele>84</ele>
        <time>2018-04-15T17:42:29Z</time>
      </trkpt>
      <trkpt lat="48.38151" lon="2.73551">
        <ele>84</ele>
        <time>2018-04-15T17:42:31Z</time>
      </trkpt>
      <trkpt lat="48.38149" lon="2.73555">
        <ele>84</ele>
        <time>2018-04-15T17:42:33Z</time>
      </trkpt>
      <trkpt lat="48.38145" lon="2.7356">
        <ele>84</ele>
        <time>2018-04-15T17:42:36Z</time>
      </trkpt>
      <trkpt lat="48.38142" lon="2.73563">
        <ele>84</ele>
        <time>2018-04-15T17:42:38Z</time>
      </trkpt>
      <trkpt lat="48.38139" lon="2.73567">
        <ele>84.1</ele>
        <time>2018-04-15T17:42:39Z</time>
      </trkpt>
      <trkpt lat="48.38136" lon="2.7357">
        <ele>84.1</ele>
        <time>2018-04-15T17:42:40Z</time>
      </trkpt>
      <trkpt lat="48.38132" lon="2.73574">
        <ele>84.1</ele>
        <time>2018-04-15T17:42:42Z</time>
      </trkpt>
      <trkpt lat="48.38129" lon="2.73577">
        <ele>84.2</ele>
        <time>2018-04-15T17:42:44Z</time>
      </trkpt>
      <trkpt lat="48.38126" lon="2.73579">
        <ele>84.2</ele>
        <time>2018-04-15T17:42:46Z</time>
      </trkpt>
      <trkpt lat="48.38122" lon="2.73578">
        <ele>84.2</ele>
        <time>2018-04-15T17:43:03Z</time>
      </trkpt>
      <trkpt lat="48.38126" lon="2.73577">
        <ele>84.2</ele>
        <time>2018-04-15T17:43:27Z</time>
      </trkpt>
      <trkpt lat="48.38129" lon="2.73575">
        <ele>84.2</ele>
        <time>2018-04-15T17:43:29Z</time>
      </trkpt>
      <trkpt lat="48.38126" lon="2.73578">
        <ele>84.2</ele>
        <time>2018-04-15T17:43:48Z</time>
      </trkpt>
      <trkpt lat="48.38122" lon="2.73579">
        <ele>84.3</ele>
        <time>2018-04-15T17:43:52Z</time>
      </trkpt>
      <trkpt lat="48.38119" lon="2.73582">
        <ele>84.3</ele>
        <time>2018-04-15T17:44:00Z</time>
      </trkpt>
      <trkpt lat="48.38116" lon="2.73581">
        <ele>84.3</ele>
        <time>2018-04-15T17:44:03Z</time>
      </trkpt>
      <trkpt lat="48.38113" lon="2.7358">
        <ele>84.3</ele>
        <time>2018-04-15T17:44:06Z</time>
      </trkpt>
      <trkpt lat="48.38112" lon="2.73576">
        <ele>84.3</ele>
        <time>2018-04-15T17:44:11Z</time>
      </trkpt>
      <trkpt lat="48.38109" lon="2.73575">
        <ele>84.3</ele>
        <time>2018-04-15T17:44:14Z</time>
      </trkpt>
      <trkpt lat="48.38106" lon="2.73575">
        <ele>84.4</ele>
        <time>2018-04-15T17:44:17Z</time>
      </trkpt>
      <trkpt lat="48.38103" lon="2.73575">
        <ele>84.4</ele>
        <time>2018-04-15T17:44:20Z</time>
      </trkpt>
      <trkpt lat="48.38097" lon="2.73579">
        <ele>84.4</ele>
        <time>2018-04-15T17:56:27Z</time>
      </trkpt>
      <trkpt lat="48.38089" lon="2.73573">
        <ele>84.5</ele>
        <time>2018-04-15T17:56:29Z</time>
      </trkpt>
      <trkpt lat="48.3809" lon="2.73568">
        <ele>84.4</ele>
        <time>2018-04-15T17:56:33Z</time>
      </trkpt>
      <trkpt lat="48.38093" lon="2.73565">
        <ele>84.4</ele>
        <time>2018-04-15T17:56:35Z</time>
      </trkpt>
      <trkpt lat="48.38096" lon="2.73563">
        <ele>84.3</ele>
        <time>2018-04-15T17:56:37Z</time>
      </trkpt>
      <trkpt lat="48.38098" lon="2.73561">
        <ele>84.3</ele>
        <time>2018-04-15T17:56:38Z</time>
      </trkpt>
      <trkpt lat="48.38101" lon="2.73562">
        <ele>84.3</ele>
        <time>2018-04-15T17:56:41Z</time>
      </trkpt>
      <trkpt lat="48.38104" lon="2.73559">
        <ele>84.3</ele>
        <time>2018-04-15T17:56:46Z</time>
      </trkpt>
      <trkpt lat="48.38105" lon="2.73563">
        <ele>84.3</ele>
        <time>2018-04-15T17:56:49Z</time>
      </trkpt>
      <trkpt lat="48.38106" lon="2.73569">
        <ele>84.4</ele>
        <time>2018-04-15T17:56:51Z</time>
      </trkpt>
      <trkpt lat="48.38105" lon="2.73574">
        <ele>84.3</ele>
        <time>2018-04-15T17:56:55Z</time>
      </trkpt>
      <trkpt lat="48.38104" lon="2.73578">
        <ele>84.4</ele>
        <time>2018-04-15T17:56:59Z</time>
      </trkpt>
      <trkpt lat="48.38106" lon="2.73575">
        <ele>84.4</ele>
        <time>2018-04-15T17:57:11Z</time>
      </trkpt>
      <trkpt lat="48.38108" lon="2.73572">
        <ele>84.3</ele>
        <time>2018-04-15T17:57:14Z</time>
      </trkpt>
      <trkpt lat="48.3811" lon="2.73569">
        <ele>84.3</ele>
        <time>2018-04-15T17:57:28Z</time>
      </trkpt>
      <trkpt lat="48.38108" lon="2.7357">
        <ele>84.3</ele>
        <time>2018-04-15T17:57:36Z</time>
      </trkpt>
      <trkpt lat="48.38105" lon="2.7357">
        <ele>84.3</ele>
        <time>2018-04-15T17:57:41Z</time>
      </trkpt>
      <trkpt lat="48.38109" lon="2.73569">
        <ele>84.3</ele>
        <time>2018-04-15T17:57:48Z</time>
      </trkpt>
      <trkpt lat="48.38113" lon="2.73569">
        <ele>84.3</ele>
        <time>2018-04-15T17:57:50Z</time>
      </trkpt>
      <trkpt lat="48.38116" lon="2.73568">
        <ele>84.2</ele>
        <time>2018-04-15T17:57:57Z</time>
      </trkpt>
      <trkpt lat="48.3812" lon="2.73565">
        <ele>84.2</ele>
        <time>2018-04-15T17:57:59Z</time>
      </trkpt>
      <trkpt lat="48.38124" lon="2.73563">
        <ele>84.2</ele>
        <time>2018-04-15T17:58:01Z</time>
      </trkpt>
      <trkpt lat="48.38128" lon="2.73561">
        <ele>84.2</ele>
        <time>2018-04-15T17:58:03Z</time>
      </trkpt>
      <trkpt lat="48.38126" lon="2.73564">
        <ele>84.2</ele>
        <time>2018-04-15T17:58:06Z</time>
      </trkpt>
      <trkpt lat="48.38124" lon="2.73568">
        <ele>84.2</ele>
        <time>2018-04-15T17:58:09Z</time>
      </trkpt>
      <trkpt lat="48.3812" lon="2.7357">
        <ele>84.3</ele>
        <time>2018-04-15T17:58:30Z</time>
      </trkpt>
      <trkpt lat="48.38122" lon="2.73575">
        <ele>84.3</ele>
        <time>2018-04-15T17:58:33Z</time>
      </trkpt>
      <trkpt lat="48.38119" lon="2.73575">
        <ele>84.3</ele>
        <time>2018-04-15T17:58:38Z</time>
      </trkpt>
      <trkpt lat="48.38115" lon="2.73574">
        <ele>84.3</ele>
        <time>2018-04-15T17:58:40Z</time>
      </trkpt>
      <trkpt lat="48.38112" lon="2.73575">
        <ele>84.3</ele>
        <time>2018-04-15T17:58:56Z</time>
      </trkpt>
      <trkpt lat="48.38107" lon="2.73579">
        <ele>84.4</ele>
        <time>2018-04-15T17:58:58Z</time>
      </trkpt>
      <trkpt lat="48.38104" lon="2.73582">
        <ele>84.4</ele>
        <time>2018-04-15T17:58:59Z</time>
      </trkpt>
      <trkpt lat="48.38101" lon="2.73584">
        <ele>84.4</ele>
        <time>2018-04-15T17:59:00Z</time>
      </trkpt>
      <trkpt lat="48.38096" lon="2.73589">
        <ele>84.5</ele>
        <time>2018-04-15T17:59:02Z</time>
      </trkpt>
      <trkpt lat="48.38093" lon="2.73593">
        <ele>84.5</ele>
        <time>2018-04-15T17:59:04Z</time>
      </trkpt>
      <trkpt lat="48.3809" lon="2.73596">
        <ele>84.5</ele>
        <time>2018-04-15T17:59:06Z</time>
      </trkpt>
      <trkpt lat="48.38086" lon="2.73599">
        <ele>84.6</ele>
        <time>2018-04-15T17:59:08Z</time>
      </trkpt>
      <trkpt lat="48.38083" lon="2.73603">
        <ele>84.7</ele>
        <time>2018-04-15T17:59:10Z</time>
      </trkpt>
      <trkpt lat="48.3808" lon="2.73607">
        <ele>84.7</ele>
        <time>2018-04-15T17:59:12Z</time>
      </trkpt>
      <trkpt lat="48.38078" lon="2.7361">
        <ele>84.8</ele>
        <time>2018-04-15T17:59:13Z</time>
      </trkpt>
      <trkpt lat="48.38076" lon="2.73613">
        <ele>84.9</ele>
        <time>2018-04-15T17:59:15Z</time>
      </trkpt>
      <trkpt lat="48.38074" lon="2.73616">
        <ele>84.9</ele>
        <time>2018-04-15T17:59:17Z</time>
      </trkpt>
      <trkpt lat="48.38071" lon="2.7362">
        <ele>85</ele>
        <time>2018-04-15T17:59:19Z</time>
      </trkpt>
      <trkpt lat="48.38068" lon="2.73624">
        <ele>85.1</ele>
        <time>2018-04-15T17:59:22Z</time>
      </trkpt>
      <trkpt lat="48.38065" lon="2.73627">
        <ele>85.2</ele>
        <time>2018-04-15T17:59:24Z</time>
      </trkpt>
      <trkpt lat="48.38061" lon="2.7363">
        <ele>85.3</ele>
        <time>2018-04-15T17:59:26Z</time>
      </trkpt>
      <trkpt lat="48.38058" lon="2.73634">
        <ele>85.4</ele>
        <time>2018-04-15T17:59:28Z</time>
      </trkpt>
      <trkpt lat="48.38055" lon="2.73636">
        <ele>85.5</ele>
        <time>2018-04-15T17:59:30Z</time>
      </trkpt>
      <trkpt lat="48.38052" lon="2.73639">
        <ele>85.6</ele>
        <time>2018-04-15T17:59:32Z</time>
      </trkpt>
      <trkpt lat="48.38049" lon="2.73641">
        <ele>85.7</ele>
        <time>2018-04-15T17:59:34Z</time>
      </trkpt>
      <trkpt lat="48.38045" lon="2.73644">
        <ele>85.8</ele>
        <time>2018-04-15T17:59:36Z</time>
      </trkpt>
      <trkpt lat="48.38042" lon="2.73648">
        <ele>85.9</ele>
        <time>2018-04-15T17:59:38Z</time>
      </trkpt>
      <trkpt lat="48.38038" lon="2.73651">
        <ele>85.9</ele>
        <time>2018-04-15T17:59:40Z</time>
      </trkpt>
      <trkpt lat="48.38036" lon="2.73654">
        <ele>86</ele>
        <time>2018-04-15T17:59:42Z</time>
      </trkpt>
      <trkpt lat="48.38032" lon="2.7366">
        <ele>86.2</ele>
        <time>2018-04-15T17:59:44Z</time>
      </trkpt>
      <trkpt lat="48.38029" lon="2.73663">
        <ele>86.3</ele>
        <time>2018-04-15T17:59:47Z</time>
      </trkpt>
      <trkpt lat="48.38026" lon="2.73665">
        <ele>86.4</ele>
        <time>2018-04-15T17:59:49Z</time>
      </trkpt>
      <trkpt lat="48.38023" lon="2.73669">
        <ele>86.5</ele>
        <time>2018-04-15T17:59:51Z</time>
      </trkpt>
      <trkpt lat="48.3802" lon="2.73674">
        <ele>86.6</ele>
        <time>2018-04-15T17:59:53Z</time>
      </trkpt>
      <trkpt lat="48.38018" lon="2.73677">
        <ele>86.7</ele>
        <time>2018-04-15T17:59:54Z</time>
      </trkpt>
      <trkpt lat="48.38016" lon="2.73683">
        <ele>86.9</ele>
        <time>2018-04-15T17:59:56Z</time>
      </trkpt>
      <trkpt lat="48.38014" lon="2.73688">
        <ele>87</ele>
        <time>2018-04-15T17:59:58Z</time>
      </trkpt>
      <trkpt lat="48.38012" lon="2.73694">
        <ele>86.9</ele>
        <time>2018-04-15T18:00:00Z</time>
      </trkpt>
      <trkpt lat="48.38009" lon="2.737">
        <ele>86.8</ele>
        <time>2018-04-15T18:00:02Z</time>
      </trkpt>
      <trkpt lat="48.38008" lon="2.73704">
        <ele>86.7</ele>
        <time>2018-04-15T18:00:03Z</time>
      </trkpt>
      <trkpt lat="48.38008" lon="2.73708">
        <ele>86.6</ele>
        <time>2018-04-15T18:00:04Z</time>
      </trkpt>
      <trkpt lat="48.38007" lon="2.73712">
        <ele>86.5</ele>
        <time>2018-04-15T18:00:05Z</time>
      </trkpt>
      <trkpt lat="48.38006" lon="2.73717">
        <ele>86.3</ele>
        <time>2018-04-15T18:00:06Z</time>
      </trkpt>
      <trkpt lat="48.38006" lon="2.73721">
        <ele>86.2</ele>
        <time>2018-04-15T18:00:07Z</time>
      </trkpt>
      <trkpt lat="48.38005" lon="2.73726">
        <ele>86.1</ele>
        <time>2018-04-15T18:00:08Z</time>
      </trkpt>
      <trkpt lat="48.38004" lon="2.73731">
        <ele>86</ele>
        <time>2018-04-15T18:00:09Z</time>
      </trkpt>
      <trkpt lat="48.38003" lon="2.73735">
        <ele>85.8</ele>
        <time>2018-04-15T18:00:10Z</time>
      </trkpt>
      <trkpt lat="48.38003" lon="2.73739">
        <ele>85.7</ele>
        <time>2018-04-15T18:00:11Z</time>
      </trkpt>
      <trkpt lat="48.38002" lon="2.73744">
        <ele>85.6</ele>
        <time>2018-04-15T18:00:12Z</time>
      </trkpt>
      <trkpt lat="48.38001" lon="2.73751">
        <ele>85.5</ele>
        <time>2018-04-15T18:00:14Z</time>
      </trkpt>
      <trkpt lat="48.38" lon="2.73759">
        <ele>85.4</ele>
        <time>2018-04-15T18:00:16Z</time>
      </trkpt>
      <trkpt lat="48.37999" lon="2.73763">
        <ele>85.4</ele>
        <time>2018-04-15T18:00:17Z</time>
      </trkpt>
      <trkpt lat="48.37998" lon="2.73768">
        <ele>85.4</ele>
        <time>2018-04-15T18:00:18Z</time>
      </trkpt>
      <trkpt lat="48.37997" lon="2.73772">
        <ele>85.4</ele>
        <time>2018-04-15T18:00:19Z</time>
      </trkpt>
      <trkpt lat="48.37996" lon="2.73777">
        <ele>85.4</ele>
        <time>2018-04-15T18:00:20Z</time>
      </trkpt>
      <trkpt lat="48.37995" lon="2.73781">
        <ele>85.4</ele>
        <time>2018-04-15T18:00:21Z</time>
      </trkpt>
      <trkpt lat="48.37994" lon="2.73786">
        <ele>85.4</ele>
        <time>2018-04-15T18:00:22Z</time>
      </trkpt>
      <trkpt lat="48.37993" lon="2.73791">
        <ele>85.4</ele>
        <time>2018-04-15T18:00:23Z</time>
      </trkpt>
      <trkpt lat="48.37993" lon="2.73797">
        <ele>85.4</ele>
        <time>2018-04-15T18:00:24Z</time>
      </trkpt>
      <trkpt lat="48.37992" lon="2.73801">
        <ele>85.3</ele>
        <time>2018-04-15T18:00:25Z</time>
      </trkpt>
      <trkpt lat="48.37991" lon="2.73806">
        <ele>85.3</ele>
        <time>2018-04-15T18:00:26Z</time>
      </trkpt>
      <trkpt lat="48.37991" lon="2.73811">
        <ele>85.3</ele>
        <time>2018-04-15T18:00:27Z</time>
      </trkpt>
      <trkpt lat="48.3799" lon="2.73816">
        <ele>85.3</ele>
        <time>2018-04-15T18:00:28Z</time>
      </trkpt>
      <trkpt lat="48.37989" lon="2.7382">
        <ele>85.3</ele>
        <time>2018-04-15T18:00:29Z</time>
      </trkpt>
      <trkpt lat="48.37988" lon="2.73824">
        <ele>85.3</ele>
        <time>2018-04-15T18:00:30Z</time>
      </trkpt>
      <trkpt lat="48.37987" lon="2.73828">
        <ele>85.3</ele>
        <time>2018-04-15T18:00:31Z</time>
      </trkpt>
      <trkpt lat="48.37986" lon="2.73836">
        <ele>85.3</ele>
        <time>2018-04-15T18:00:33Z</time>
      </trkpt>
      <trkpt lat="48.37985" lon="2.7384">
        <ele>85.3</ele>
        <time>2018-04-15T18:00:34Z</time>
      </trkpt>
      <trkpt lat="48.37984" lon="2.73846">
        <ele>85.3</ele>
        <time>2018-04-15T18:00:36Z</time>
      </trkpt>
      <trkpt lat="48.37983" lon="2.73852">
        <ele>85.2</ele>
        <time>2018-04-15T18:00:37Z</time>
      </trkpt>
      <trkpt lat="48.37982" lon="2.73858">
        <ele>85.2</ele>
        <time>2018-04-15T18:00:38Z</time>
      </trkpt>
      <trkpt lat="48.37982" lon="2.73863">
        <ele>85.2</ele>
        <time>2018-04-15T18:00:39Z</time>
      </trkpt>
      <trkpt lat="48.37982" lon="2.73868">
        <ele>85.2</ele>
        <time>2018-04-15T18:00:40Z</time>
      </trkpt>
      <trkpt lat="48.37982" lon="2.73873">
        <ele>85.2</ele>
        <time>2018-04-15T18:00:41Z</time>
      </trkpt>
      <trkpt lat="48.37982" lon="2.73877">
        <ele>85.2</ele>
        <time>2018-04-15T18:00:42Z</time>
      </trkpt>
      <trkpt lat="48.37982" lon="2.73883">
        <ele>85.3</ele>
        <time>2018-04-15T18:00:44Z</time>
      </trkpt>
      <trkpt lat="48.37982" lon="2.73889">
        <ele>85.3</ele>
        <time>2018-04-15T18:00:46Z</time>
      </trkpt>
      <trkpt lat="48.37982" lon="2.73896">
        <ele>85.4</ele>
        <time>2018-04-15T18:00:48Z</time>
      </trkpt>
      <trkpt lat="48.37981" lon="2.73903">
        <ele>85.5</ele>
        <time>2018-04-15T18:00:50Z</time>
      </trkpt>
      <trkpt lat="48.37979" lon="2.7391">
        <ele>85.5</ele>
        <time>2018-04-15T18:00:52Z</time>
      </trkpt>
      <trkpt lat="48.37978" lon="2.73918">
        <ele>85.6</ele>
        <time>2018-04-15T18:00:54Z</time>
      </trkpt>
      <trkpt lat="48.37977" lon="2.73924">
        <ele>85.8</ele>
        <time>2018-04-15T18:00:56Z</time>
      </trkpt>
      <trkpt lat="48.37976" lon="2.73932">
        <ele>86</ele>
        <time>2018-04-15T18:00:58Z</time>
      </trkpt>
      <trkpt lat="48.37976" lon="2.7394">
        <ele>86.2</ele>
        <time>2018-04-15T18:01:00Z</time>
      </trkpt>
      <trkpt lat="48.37975" lon="2.73947">
        <ele>86.3</ele>
        <time>2018-04-15T18:01:02Z</time>
      </trkpt>
      <trkpt lat="48.37975" lon="2.73955">
        <ele>86.5</ele>
        <time>2018-04-15T18:01:04Z</time>
      </trkpt>
      <trkpt lat="48.37975" lon="2.73962">
        <ele>86.7</ele>
        <time>2018-04-15T18:01:06Z</time>
      </trkpt>
      <trkpt lat="48.37974" lon="2.7397">
        <ele>86.8</ele>
        <time>2018-04-15T18:01:08Z</time>
      </trkpt>
      <trkpt lat="48.37974" lon="2.73978">
        <ele>87</ele>
        <time>2018-04-15T18:01:10Z</time>
      </trkpt>
      <trkpt lat="48.37974" lon="2.73984">
        <ele>87.1</ele>
        <time>2018-04-15T18:01:12Z</time>
      </trkpt>
      <trkpt lat="48.37973" lon="2.73992">
        <ele>87.3</ele>
        <time>2018-04-15T18:01:14Z</time>
      </trkpt>
      <trkpt lat="48.37972" lon="2.73999">
        <ele>87.4</ele>
        <time>2018-04-15T18:01:16Z</time>
      </trkpt>
      <trkpt lat="48.37971" lon="2.74008">
        <ele>87.5</ele>
        <time>2018-04-15T18:01:18Z</time>
      </trkpt>
      <trkpt lat="48.37971" lon="2.74013">
        <ele>87.6</ele>
        <time>2018-04-15T18:01:19Z</time>
      </trkpt>
      <trkpt lat="48.37971" lon="2.74019">
        <ele>87.6</ele>
        <time>2018-04-15T18:01:20Z</time>
      </trkpt>
      <trkpt lat="48.37971" lon="2.74025">
        <ele>87.7</ele>
        <time>2018-04-15T18:01:21Z</time>
      </trkpt>
      <trkpt lat="48.37971" lon="2.74032">
        <ele>87.7</ele>
        <time>2018-04-15T18:01:22Z</time>
      </trkpt>
      <trkpt lat="48.3797" lon="2.74039">
        <ele>87.7</ele>
        <time>2018-04-15T18:01:23Z</time>
      </trkpt>
      <trkpt lat="48.3797" lon="2.74047">
        <ele>87.7</ele>
        <time>2018-04-15T18:01:24Z</time>
      </trkpt>
      <trkpt lat="48.37969" lon="2.74056">
        <ele>87.7</ele>
        <time>2018-04-15T18:01:25Z</time>
      </trkpt>
      <trkpt lat="48.37969" lon="2.74066">
        <ele>87.7</ele>
        <time>2018-04-15T18:01:26Z</time>
      </trkpt>
      <trkpt lat="48.37968" lon="2.74076">
        <ele>87.6</ele>
        <time>2018-04-15T18:01:27Z</time>
      </trkpt>
      <trkpt lat="48.37967" lon="2.74086">
        <ele>87.5</ele>
        <time>2018-04-15T18:01:28Z</time>
      </trkpt>
      <trkpt lat="48.37966" lon="2.74095">
        <ele>87.5</ele>
        <time>2018-04-15T18:01:29Z</time>
      </trkpt>
      <trkpt lat="48.37965" lon="2.74105">
        <ele>87.3</ele>
        <time>2018-04-15T18:01:30Z</time>
      </trkpt>
      <trkpt lat="48.37964" lon="2.74115">
        <ele>87.2</ele>
        <time>2018-04-15T18:01:31Z</time>
      </trkpt>
      <trkpt lat="48.37963" lon="2.74124">
        <ele>87</ele>
        <time>2018-04-15T18:01:32Z</time>
      </trkpt>
      <trkpt lat="48.37962" lon="2.74134">
        <ele>86.8</ele>
        <time>2018-04-15T18:01:33Z</time>
      </trkpt>
      <trkpt lat="48.37961" lon="2.74144">
        <ele>86.6</ele>
        <time>2018-04-15T18:01:34Z</time>
      </trkpt>
      <trkpt lat="48.3796" lon="2.74153">
        <ele>86.4</ele>
        <time>2018-04-15T18:01:35Z</time>
      </trkpt>
      <trkpt lat="48.37959" lon="2.74162">
        <ele>86.2</ele>
        <time>2018-04-15T18:01:36Z</time>
      </trkpt>
      <trkpt lat="48.37957" lon="2.7417">
        <ele>86.1</ele>
        <time>2018-04-15T18:01:37Z</time>
      </trkpt>
      <trkpt lat="48.37956" lon="2.74179">
        <ele>86</ele>
        <time>2018-04-15T18:01:38Z</time>
      </trkpt>
      <trkpt lat="48.37955" lon="2.74189">
        <ele>86</ele>
        <time>2018-04-15T18:01:39Z</time>
      </trkpt>
      <trkpt lat="48.37954" lon="2.74198">
        <ele>86</ele>
        <time>2018-04-15T18:01:40Z</time>
      </trkpt>
      <trkpt lat="48.37954" lon="2.74206">
        <ele>85.9</ele>
        <time>2018-04-15T18:01:41Z</time>
      </trkpt>
      <trkpt lat="48.37953" lon="2.74216">
        <ele>85.9</ele>
        <time>2018-04-15T18:01:42Z</time>
      </trkpt>
      <trkpt lat="48.37953" lon="2.74224">
        <ele>85.9</ele>
        <time>2018-04-15T18:01:43Z</time>
      </trkpt>
      <trkpt lat="48.37952" lon="2.74233">
        <ele>85.9</ele>
        <time>2018-04-15T18:01:44Z</time>
      </trkpt>
      <trkpt lat="48.37951" lon="2.74241">
        <ele>85.9</ele>
        <time>2018-04-15T18:01:45Z</time>
      </trkpt>
      <trkpt lat="48.3795" lon="2.7425">
        <ele>85.9</ele>
        <time>2018-04-15T18:01:46Z</time>
      </trkpt>
      <trkpt lat="48.37949" lon="2.74258">
        <ele>86</ele>
        <time>2018-04-15T18:01:47Z</time>
      </trkpt>
      <trkpt lat="48.37949" lon="2.74266">
        <ele>86.1</ele>
        <time>2018-04-15T18:01:48Z</time>
      </trkpt>
      <trkpt lat="48.37948" lon="2.74273">
        <ele>86.2</ele>
        <time>2018-04-15T18:01:49Z</time>
      </trkpt>
      <trkpt lat="48.37948" lon="2.74281">
        <ele>86.4</ele>
        <time>2018-04-15T18:01:50Z</time>
      </trkpt>
      <trkpt lat="48.37947" lon="2.74289">
        <ele>86.6</ele>
        <time>2018-04-15T18:01:51Z</time>
      </trkpt>
      <trkpt lat="48.37947" lon="2.74296">
        <ele>86.8</ele>
        <time>2018-04-15T18:01:52Z</time>
      </trkpt>
      <trkpt lat="48.37946" lon="2.74302">
        <ele>87</ele>
        <time>2018-04-15T18:01:53Z</time>
      </trkpt>
      <trkpt lat="48.37946" lon="2.74308">
        <ele>87</ele>
        <time>2018-04-15T18:01:54Z</time>
      </trkpt>
      <trkpt lat="48.37945" lon="2.74313">
        <ele>87.4</ele>
        <time>2018-04-15T18:01:55Z</time>
      </trkpt>
      <trkpt lat="48.37945" lon="2.74318">
        <ele>87.5</ele>
        <time>2018-04-15T18:01:56Z</time>
      </trkpt>
      <trkpt lat="48.37945" lon="2.74322">
        <ele>87.6</ele>
        <time>2018-04-15T18:01:57Z</time>
      </trkpt>
      <trkpt lat="48.37945" lon="2.74327">
        <ele>87.7</ele>
        <time>2018-04-15T18:01:58Z</time>
      </trkpt>
      <trkpt lat="48.37945" lon="2.74332">
        <ele>87.8</ele>
        <time>2018-04-15T18:01:59Z</time>
      </trkpt>
      <trkpt lat="48.37945" lon="2.7434">
        <ele>88</ele>
        <time>2018-04-15T18:02:01Z</time>
      </trkpt>
      <trkpt lat="48.37945" lon="2.74345">
        <ele>88.1</ele>
        <time>2018-04-15T18:02:02Z</time>
      </trkpt>
      <trkpt lat="48.37944" lon="2.74349">
        <ele>88.2</ele>
        <time>2018-04-15T18:02:03Z</time>
      </trkpt>
      <trkpt lat="48.37944" lon="2.74357">
        <ele>88.3</ele>
        <time>2018-04-15T18:02:05Z</time>
      </trkpt>
      <trkpt lat="48.37944" lon="2.74361">
        <ele>88.4</ele>
        <time>2018-04-15T18:02:06Z</time>
      </trkpt>
      <trkpt lat="48.37944" lon="2.74367">
        <ele>88.6</ele>
        <time>2018-04-15T18:02:07Z</time>
      </trkpt>
      <trkpt lat="48.37944" lon="2.74372">
        <ele>89.4</ele>
        <time>2018-04-15T18:02:08Z</time>
      </trkpt>
      <trkpt lat="48.37944" lon="2.74379">
        <ele>89.4</ele>
        <time>2018-04-15T18:02:09Z</time>
      </trkpt>
      <trkpt lat="48.37944" lon="2.74385">
        <ele>89.5</ele>
        <time>2018-04-15T18:02:10Z</time>
      </trkpt>
      <trkpt lat="48.37944" lon="2.7439">
        <ele>89.5</ele>
        <time>2018-04-15T18:02:11Z</time>
      </trkpt>
      <trkpt lat="48.37943" lon="2.74395">
        <ele>89.6</ele>
        <time>2018-04-15T18:02:12Z</time>
      </trkpt>
      <trkpt lat="48.37944" lon="2.744">
        <ele>89.6</ele>
        <time>2018-04-15T18:02:13Z</time>
      </trkpt>
      <trkpt lat="48.37943" lon="2.74406">
        <ele>89.7</ele>
        <time>2018-04-15T18:02:14Z</time>
      </trkpt>
      <trkpt lat="48.37943" lon="2.74411">
        <ele>89.7</ele>
        <time>2018-04-15T18:02:15Z</time>
      </trkpt>
      <trkpt lat="48.37942" lon="2.74416">
        <ele>89.8</ele>
        <time>2018-04-15T18:02:16Z</time>
      </trkpt>
      <trkpt lat="48.37942" lon="2.74423">
        <ele>89.8</ele>
        <time>2018-04-15T18:02:17Z</time>
      </trkpt>
      <trkpt lat="48.37942" lon="2.74428">
        <ele>89.9</ele>
        <time>2018-04-15T18:02:18Z</time>
      </trkpt>
      <trkpt lat="48.37941" lon="2.74433">
        <ele>89.9</ele>
        <time>2018-04-15T18:02:19Z</time>
      </trkpt>
      <trkpt lat="48.37941" lon="2.74439">
        <ele>90</ele>
        <time>2018-04-15T18:02:20Z</time>
      </trkpt>
      <trkpt lat="48.37941" lon="2.74444">
        <ele>90.1</ele>
        <time>2018-04-15T18:02:21Z</time>
      </trkpt>
      <trkpt lat="48.3794" lon="2.7445">
        <ele>90.1</ele>
        <time>2018-04-15T18:02:22Z</time>
      </trkpt>
      <trkpt lat="48.3794" lon="2.74456">
        <ele>90.2</ele>
        <time>2018-04-15T18:02:23Z</time>
      </trkpt>
      <trkpt lat="48.3794" lon="2.74461">
        <ele>90.2</ele>
        <time>2018-04-15T18:02:24Z</time>
      </trkpt>
      <trkpt lat="48.37939" lon="2.74466">
        <ele>90.3</ele>
        <time>2018-04-15T18:02:25Z</time>
      </trkpt>
      <trkpt lat="48.37938" lon="2.74472">
        <ele>90.3</ele>
        <time>2018-04-15T18:02:26Z</time>
      </trkpt>
      <trkpt lat="48.37938" lon="2.74478">
        <ele>90.4</ele>
        <time>2018-04-15T18:02:27Z</time>
      </trkpt>
      <trkpt lat="48.37937" lon="2.74484">
        <ele>90.5</ele>
        <time>2018-04-15T18:02:28Z</time>
      </trkpt>
      <trkpt lat="48.37937" lon="2.74491">
        <ele>90.6</ele>
        <time>2018-04-15T18:02:29Z</time>
      </trkpt>
      <trkpt lat="48.37937" lon="2.74497">
        <ele>90.7</ele>
        <time>2018-04-15T18:02:30Z</time>
      </trkpt>
      <trkpt lat="48.37936" lon="2.74502">
        <ele>90.8</ele>
        <time>2018-04-15T18:02:31Z</time>
      </trkpt>
      <trkpt lat="48.37937" lon="2.74508">
        <ele>91</ele>
        <time>2018-04-15T18:02:32Z</time>
      </trkpt>
      <trkpt lat="48.37936" lon="2.74514">
        <ele>91.3</ele>
        <time>2018-04-15T18:02:33Z</time>
      </trkpt>
      <trkpt lat="48.37935" lon="2.7452">
        <ele>91.5</ele>
        <time>2018-04-15T18:02:34Z</time>
      </trkpt>
      <trkpt lat="48.37935" lon="2.74525">
        <ele>91.7</ele>
        <time>2018-04-15T18:02:35Z</time>
      </trkpt>
      <trkpt lat="48.37935" lon="2.74533">
        <ele>91.9</ele>
        <time>2018-04-15T18:02:36Z</time>
      </trkpt>
      <trkpt lat="48.37934" lon="2.7454">
        <ele>92.1</ele>
        <time>2018-04-15T18:02:37Z</time>
      </trkpt>
      <trkpt lat="48.37933" lon="2.74547">
        <ele>92.2</ele>
        <time>2018-04-15T18:02:38Z</time>
      </trkpt>
      <trkpt lat="48.37933" lon="2.74553">
        <ele>92.3</ele>
        <time>2018-04-15T18:02:39Z</time>
      </trkpt>
      <trkpt lat="48.37931" lon="2.74559">
        <ele>92.4</ele>
        <time>2018-04-15T18:02:40Z</time>
      </trkpt>
      <trkpt lat="48.3793" lon="2.74565">
        <ele>92.5</ele>
        <time>2018-04-15T18:02:41Z</time>
      </trkpt>
      <trkpt lat="48.37929" lon="2.74571">
        <ele>92.5</ele>
        <time>2018-04-15T18:02:42Z</time>
      </trkpt>
      <trkpt lat="48.37929" lon="2.74575">
        <ele>92.6</ele>
        <time>2018-04-15T18:02:43Z</time>
      </trkpt>
      <trkpt lat="48.37929" lon="2.74581">
        <ele>92.7</ele>
        <time>2018-04-15T18:02:44Z</time>
      </trkpt>
      <trkpt lat="48.37928" lon="2.74587">
        <ele>92.8</ele>
        <time>2018-04-15T18:02:45Z</time>
      </trkpt>
      <trkpt lat="48.37928" lon="2.74592">
        <ele>92.8</ele>
        <time>2018-04-15T18:02:46Z</time>
      </trkpt>
      <trkpt lat="48.37928" lon="2.74598">
        <ele>92.9</ele>
        <time>2018-04-15T18:02:47Z</time>
      </trkpt>
      <trkpt lat="48.37928" lon="2.74605">
        <ele>93</ele>
        <time>2018-04-15T18:02:48Z</time>
      </trkpt>
      <trkpt lat="48.37928" lon="2.74612">
        <ele>93.1</ele>
        <time>2018-04-15T18:02:49Z</time>
      </trkpt>
      <trkpt lat="48.37928" lon="2.74619">
        <ele>93.2</ele>
        <time>2018-04-15T18:02:50Z</time>
      </trkpt>
      <trkpt lat="48.37928" lon="2.74625">
        <ele>93.3</ele>
        <time>2018-04-15T18:02:51Z</time>
      </trkpt>
      <trkpt lat="48.37928" lon="2.74631">
        <ele>93.4</ele>
        <time>2018-04-15T18:02:52Z</time>
      </trkpt>
      <trkpt lat="48.37928" lon="2.74636">
        <ele>93.6</ele>
        <time>2018-04-15T18:02:53Z</time>
      </trkpt>
      <trkpt lat="48.37927" lon="2.74642">
        <ele>93.7</ele>
        <time>2018-04-15T18:02:54Z</time>
      </trkpt>
      <trkpt lat="48.37926" lon="2.74646">
        <ele>93.9</ele>
        <time>2018-04-15T18:02:55Z</time>
      </trkpt>
      <trkpt lat="48.37926" lon="2.74652">
        <ele>94.1</ele>
        <time>2018-04-15T18:02:56Z</time>
      </trkpt>
      <trkpt lat="48.37925" lon="2.74657">
        <ele>94.3</ele>
        <time>2018-04-15T18:02:57Z</time>
      </trkpt>
      <trkpt lat="48.37924" lon="2.74662">
        <ele>94.5</ele>
        <time>2018-04-15T18:02:58Z</time>
      </trkpt>
      <trkpt lat="48.37923" lon="2.74667">
        <ele>94.6</ele>
        <time>2018-04-15T18:02:59Z</time>
      </trkpt>
      <trkpt lat="48.37922" lon="2.74672">
        <ele>94.7</ele>
        <time>2018-04-15T18:03:00Z</time>
      </trkpt>
      <trkpt lat="48.37922" lon="2.74676">
        <ele>94.8</ele>
        <time>2018-04-15T18:03:01Z</time>
      </trkpt>
      <trkpt lat="48.37921" lon="2.74681">
        <ele>94.9</ele>
        <time>2018-04-15T18:03:02Z</time>
      </trkpt>
      <trkpt lat="48.3792" lon="2.74686">
        <ele>95</ele>
        <time>2018-04-15T18:03:03Z</time>
      </trkpt>
      <trkpt lat="48.3792" lon="2.74691">
        <ele>95.1</ele>
        <time>2018-04-15T18:03:04Z</time>
      </trkpt>
      <trkpt lat="48.3792" lon="2.74696">
        <ele>95.2</ele>
        <time>2018-04-15T18:03:05Z</time>
      </trkpt>
      <trkpt lat="48.37919" lon="2.74701">
        <ele>95.4</ele>
        <time>2018-04-15T18:03:06Z</time>
      </trkpt>
      <trkpt lat="48.37919" lon="2.74706">
        <ele>95.5</ele>
        <time>2018-04-15T18:03:07Z</time>
      </trkpt>
      <trkpt lat="48.37919" lon="2.74711">
        <ele>95.7</ele>
        <time>2018-04-15T18:03:08Z</time>
      </trkpt>
      <trkpt lat="48.37918" lon="2.74716">
        <ele>95.9</ele>
        <time>2018-04-15T18:03:09Z</time>
      </trkpt>
      <trkpt lat="48.37918" lon="2.7472">
        <ele>96.1</ele>
        <time>2018-04-15T18:03:10Z</time>
      </trkpt>
      <trkpt lat="48.37918" lon="2.74724">
        <ele>96.2</ele>
        <time>2018-04-15T18:03:11Z</time>
      </trkpt>
      <trkpt lat="48.37917" lon="2.74729">
        <ele>96.4</ele>
        <time>2018-04-15T18:03:12Z</time>
      </trkpt>
      <trkpt lat="48.37917" lon="2.74734">
        <ele>96.6</ele>
        <time>2018-04-15T18:03:13Z</time>
      </trkpt>
      <trkpt lat="48.37916" lon="2.7474">
        <ele>96.8</ele>
        <time>2018-04-15T18:03:14Z</time>
      </trkpt>
      <trkpt lat="48.37916" lon="2.74745">
        <ele>97</ele>
        <time>2018-04-15T18:03:15Z</time>
      </trkpt>
      <trkpt lat="48.37915" lon="2.7475">
        <ele>97.1</ele>
        <time>2018-04-15T18:03:16Z</time>
      </trkpt>
      <trkpt lat="48.37915" lon="2.74754">
        <ele>97.2</ele>
        <time>2018-04-15T18:03:17Z</time>
      </trkpt>
      <trkpt lat="48.37914" lon="2.74759">
        <ele>97.3</ele>
        <time>2018-04-15T18:03:18Z</time>
      </trkpt>
      <trkpt lat="48.37914" lon="2.74764">
        <ele>97.4</ele>
        <time>2018-04-15T18:03:19Z</time>
      </trkpt>
      <trkpt lat="48.37913" lon="2.74769">
        <ele>97.5</ele>
        <time>2018-04-15T18:03:20Z</time>
      </trkpt>
      <trkpt lat="48.37912" lon="2.74778">
        <ele>97.6</ele>
        <time>2018-04-15T18:03:22Z</time>
      </trkpt>
      <trkpt lat="48.37911" lon="2.74782">
        <ele>97.7</ele>
        <time>2018-04-15T18:03:23Z</time>
      </trkpt>
      <trkpt lat="48.37911" lon="2.74787">
        <ele>97.8</ele>
        <time>2018-04-15T18:03:24Z</time>
      </trkpt>
      <trkpt lat="48.3791" lon="2.74792">
        <ele>98</ele>
        <time>2018-04-15T18:03:25Z</time>
      </trkpt>
      <trkpt lat="48.3791" lon="2.74796">
        <ele>98.2</ele>
        <time>2018-04-15T18:03:26Z</time>
      </trkpt>
      <trkpt lat="48.37909" lon="2.748">
        <ele>98.3</ele>
        <time>2018-04-15T18:03:27Z</time>
      </trkpt>
      <trkpt lat="48.37908" lon="2.74808">
        <ele>98.6</ele>
        <time>2018-04-15T18:03:29Z</time>
      </trkpt>
      <trkpt lat="48.37908" lon="2.74813">
        <ele>98.8</ele>
        <time>2018-04-15T18:03:30Z</time>
      </trkpt>
      <trkpt lat="48.37907" lon="2.74818">
        <ele>99</ele>
        <time>2018-04-15T18:03:31Z</time>
      </trkpt>
      <trkpt lat="48.37907" lon="2.74824">
        <ele>99.1</ele>
        <time>2018-04-15T18:03:32Z</time>
      </trkpt>
      <trkpt lat="48.37907" lon="2.74829">
        <ele>99.2</ele>
        <time>2018-04-15T18:03:33Z</time>
      </trkpt>
      <trkpt lat="48.37906" lon="2.74834">
        <ele>99.3</ele>
        <time>2018-04-15T18:03:34Z</time>
      </trkpt>
      <trkpt lat="48.37906" lon="2.74839">
        <ele>99.3</ele>
        <time>2018-04-15T18:03:35Z</time>
      </trkpt>
      <trkpt lat="48.37906" lon="2.74844">
        <ele>99.4</ele>
        <time>2018-04-15T18:03:36Z</time>
      </trkpt>
      <trkpt lat="48.37905" lon="2.7485">
        <ele>99.5</ele>
        <time>2018-04-15T18:03:37Z</time>
      </trkpt>
      <trkpt lat="48.37905" lon="2.74859">
        <ele>99.6</ele>
        <time>2018-04-15T18:03:39Z</time>
      </trkpt>
      <trkpt lat="48.37906" lon="2.74863">
        <ele>99.7</ele>
        <time>2018-04-15T18:03:40Z</time>
      </trkpt>
      <trkpt lat="48.37905" lon="2.74868">
        <ele>99.7</ele>
        <time>2018-04-15T18:03:41Z</time>
      </trkpt>
      <trkpt lat="48.37905" lon="2.74873">
        <ele>99.8</ele>
        <time>2018-04-15T18:03:42Z</time>
      </trkpt>
      <trkpt lat="48.37905" lon="2.74878">
        <ele>99.8</ele>
        <time>2018-04-15T18:03:43Z</time>
      </trkpt>
      <trkpt lat="48.37904" lon="2.74882">
        <ele>99.9</ele>
        <time>2018-04-15T18:03:44Z</time>
      </trkpt>
      <trkpt lat="48.37904" lon="2.74886">
        <ele>99.9</ele>
        <time>2018-04-15T18:03:45Z</time>
      </trkpt>
      <trkpt lat="48.37903" lon="2.74891">
        <ele>100</ele>
        <time>2018-04-15T18:03:46Z</time>
      </trkpt>
      <trkpt lat="48.37902" lon="2.74898">
        <ele>100.1</ele>
        <time>2018-04-15T18:03:48Z</time>
      </trkpt>
      <trkpt lat="48.379" lon="2.74905">
        <ele>100.2</ele>
        <time>2018-04-15T18:03:50Z</time>
      </trkpt>
      <trkpt lat="48.37898" lon="2.74911">
        <ele>100.3</ele>
        <time>2018-04-15T18:03:52Z</time>
      </trkpt>
      <trkpt lat="48.37897" lon="2.74915">
        <ele>100.4</ele>
        <time>2018-04-15T18:03:53Z</time>
      </trkpt>
      <trkpt lat="48.37896" lon="2.74919">
        <ele>100.5</ele>
        <time>2018-04-15T18:03:54Z</time>
      </trkpt>
      <trkpt lat="48.37894" lon="2.74923">
        <ele>100.6</ele>
        <time>2018-04-15T18:03:55Z</time>
      </trkpt>
      <trkpt lat="48.37892" lon="2.74928">
        <ele>100.7</ele>
        <time>2018-04-15T18:03:56Z</time>
      </trkpt>
      <trkpt lat="48.3789" lon="2.74931">
        <ele>100.7</ele>
        <time>2018-04-15T18:03:57Z</time>
      </trkpt>
      <trkpt lat="48.37888" lon="2.74935">
        <ele>100.8</ele>
        <time>2018-04-15T18:03:58Z</time>
      </trkpt>
      <trkpt lat="48.37886" lon="2.74939">
        <ele>100.9</ele>
        <time>2018-04-15T18:03:59Z</time>
      </trkpt>
      <trkpt lat="48.37884" lon="2.74943">
        <ele>101</ele>
        <time>2018-04-15T18:04:00Z</time>
      </trkpt>
      <trkpt lat="48.37882" lon="2.74947">
        <ele>101.1</ele>
        <time>2018-04-15T18:04:01Z</time>
      </trkpt>
      <trkpt lat="48.3788" lon="2.74951">
        <ele>101.2</ele>
        <time>2018-04-15T18:04:02Z</time>
      </trkpt>
      <trkpt lat="48.37878" lon="2.74955">
        <ele>101.3</ele>
        <time>2018-04-15T18:04:03Z</time>
      </trkpt>
      <trkpt lat="48.37875" lon="2.74959">
        <ele>101.4</ele>
        <time>2018-04-15T18:04:04Z</time>
      </trkpt>
      <trkpt lat="48.37873" lon="2.74963">
        <ele>101.4</ele>
        <time>2018-04-15T18:04:05Z</time>
      </trkpt>
      <trkpt lat="48.37871" lon="2.74967">
        <ele>101.5</ele>
        <time>2018-04-15T18:04:06Z</time>
      </trkpt>
      <trkpt lat="48.37868" lon="2.74972">
        <ele>101.5</ele>
        <time>2018-04-15T18:04:07Z</time>
      </trkpt>
      <trkpt lat="48.37866" lon="2.74976">
        <ele>101.6</ele>
        <time>2018-04-15T18:04:08Z</time>
      </trkpt>
      <trkpt lat="48.37863" lon="2.7498">
        <ele>101.6</ele>
        <time>2018-04-15T18:04:09Z</time>
      </trkpt>
      <trkpt lat="48.37861" lon="2.74984">
        <ele>101.6</ele>
        <time>2018-04-15T18:04:10Z</time>
      </trkpt>
      <trkpt lat="48.37858" lon="2.74988">
        <ele>101.6</ele>
        <time>2018-04-15T18:04:11Z</time>
      </trkpt>
      <trkpt lat="48.37855" lon="2.74992">
        <ele>101.5</ele>
        <time>2018-04-15T18:04:12Z</time>
      </trkpt>
      <trkpt lat="48.37852" lon="2.74995">
        <ele>101.5</ele>
        <time>2018-04-15T18:04:13Z</time>
      </trkpt>
      <trkpt lat="48.37848" lon="2.74999">
        <ele>101.3</ele>
        <time>2018-04-15T18:04:14Z</time>
      </trkpt>
      <trkpt lat="48.37845" lon="2.75004">
        <ele>101.2</ele>
        <time>2018-04-15T18:04:15Z</time>
      </trkpt>
      <trkpt lat="48.37842" lon="2.75009">
        <ele>101.1</ele>
        <time>2018-04-15T18:04:16Z</time>
      </trkpt>
      <trkpt lat="48.37838" lon="2.75013">
        <ele>100.9</ele>
        <time>2018-04-15T18:04:17Z</time>
      </trkpt>
      <trkpt lat="48.37835" lon="2.75017">
        <ele>100.8</ele>
        <time>2018-04-15T18:04:18Z</time>
      </trkpt>
      <trkpt lat="48.37832" lon="2.75021">
        <ele>100.6</ele>
        <time>2018-04-15T18:04:19Z</time>
      </trkpt>
      <trkpt lat="48.3783" lon="2.75025">
        <ele>100.4</ele>
        <time>2018-04-15T18:04:20Z</time>
      </trkpt>
      <trkpt lat="48.37829" lon="2.75029">
        <ele>100.4</ele>
        <time>2018-04-15T18:04:21Z</time>
      </trkpt>
      <trkpt lat="48.37827" lon="2.75035">
        <ele>100.2</ele>
        <time>2018-04-15T18:04:22Z</time>
      </trkpt>
      <trkpt lat="48.37826" lon="2.75041">
        <ele>99.9</ele>
        <time>2018-04-15T18:04:23Z</time>
      </trkpt>
      <trkpt lat="48.37824" lon="2.75048">
        <ele>99.9</ele>
        <time>2018-04-15T18:04:24Z</time>
      </trkpt>
      <trkpt lat="48.37823" lon="2.75055">
        <ele>99.6</ele>
        <time>2018-04-15T18:04:25Z</time>
      </trkpt>
      <trkpt lat="48.37821" lon="2.75061">
        <ele>99.6</ele>
        <time>2018-04-15T18:04:26Z</time>
      </trkpt>
      <trkpt lat="48.3782" lon="2.75067">
        <ele>99.4</ele>
        <time>2018-04-15T18:04:27Z</time>
      </trkpt>
      <trkpt lat="48.37819" lon="2.75074">
        <ele>99.3</ele>
        <time>2018-04-15T18:04:28Z</time>
      </trkpt>
      <trkpt lat="48.37817" lon="2.7508">
        <ele>99.1</ele>
        <time>2018-04-15T18:04:29Z</time>
      </trkpt>
      <trkpt lat="48.37816" lon="2.75087">
        <ele>99.1</ele>
        <time>2018-04-15T18:04:30Z</time>
      </trkpt>
      <trkpt lat="48.37814" lon="2.75094">
        <ele>98.9</ele>
        <time>2018-04-15T18:04:31Z</time>
      </trkpt>
      <trkpt lat="48.37813" lon="2.75101">
        <ele>98.9</ele>
        <time>2018-04-15T18:04:32Z</time>
      </trkpt>
      <trkpt lat="48.37811" lon="2.75107">
        <ele>98.9</ele>
        <time>2018-04-15T18:04:33Z</time>
      </trkpt>
      <trkpt lat="48.37809" lon="2.75114">
        <ele>99</ele>
        <time>2018-04-15T18:04:34Z</time>
      </trkpt>
      <trkpt lat="48.37808" lon="2.7512">
        <ele>99</ele>
        <time>2018-04-15T18:04:35Z</time>
      </trkpt>
      <trkpt lat="48.37807" lon="2.75126">
        <ele>99.1</ele>
        <time>2018-04-15T18:04:36Z</time>
      </trkpt>
      <trkpt lat="48.37805" lon="2.75133">
        <ele>99.1</ele>
        <time>2018-04-15T18:04:37Z</time>
      </trkpt>
      <trkpt lat="48.37804" lon="2.75139">
        <ele>99.3</ele>
        <time>2018-04-15T18:04:38Z</time>
      </trkpt>
      <trkpt lat="48.37803" lon="2.75146">
        <ele>99.3</ele>
        <time>2018-04-15T18:04:39Z</time>
      </trkpt>
      <trkpt lat="48.37802" lon="2.75152">
        <ele>99.4</ele>
        <time>2018-04-15T18:04:40Z</time>
      </trkpt>
      <trkpt lat="48.37802" lon="2.75158">
        <ele>99.5</ele>
        <time>2018-04-15T18:04:41Z</time>
      </trkpt>
      <trkpt lat="48.37801" lon="2.75165">
        <ele>99.7</ele>
        <time>2018-04-15T18:04:42Z</time>
      </trkpt>
      <trkpt lat="48.37801" lon="2.75171">
        <ele>99.7</ele>
        <time>2018-04-15T18:04:43Z</time>
      </trkpt>
      <trkpt lat="48.37801" lon="2.75177">
        <ele>99.8</ele>
        <time>2018-04-15T18:04:44Z</time>
      </trkpt>
      <trkpt lat="48.37801" lon="2.75183">
        <ele>99.9</ele>
        <time>2018-04-15T18:04:45Z</time>
      </trkpt>
      <trkpt lat="48.37801" lon="2.7519">
        <ele>100</ele>
        <time>2018-04-15T18:04:46Z</time>
      </trkpt>
      <trkpt lat="48.378" lon="2.75196">
        <ele>100</ele>
        <time>2018-04-15T18:04:47Z</time>
      </trkpt>
      <trkpt lat="48.378" lon="2.75203">
        <ele>99.9</ele>
        <time>2018-04-15T18:04:48Z</time>
      </trkpt>
      <trkpt lat="48.378" lon="2.75209">
        <ele>100.1</ele>
        <time>2018-04-15T18:04:49Z</time>
      </trkpt>
      <trkpt lat="48.37801" lon="2.75217">
        <ele>100.2</ele>
        <time>2018-04-15T18:04:50Z</time>
      </trkpt>
      <trkpt lat="48.37801" lon="2.75223">
        <ele>100.2</ele>
        <time>2018-04-15T18:04:51Z</time>
      </trkpt>
      <trkpt lat="48.37801" lon="2.75231">
        <ele>100.3</ele>
        <time>2018-04-15T18:04:52Z</time>
      </trkpt>
      <trkpt lat="48.37801" lon="2.75237">
        <ele>100.3</ele>
        <time>2018-04-15T18:04:53Z</time>
      </trkpt>
      <trkpt lat="48.37801" lon="2.75243">
        <ele>100.3</ele>
        <time>2018-04-15T18:04:54Z</time>
      </trkpt>
      <trkpt lat="48.37801" lon="2.75249">
        <ele>100.3</ele>
        <time>2018-04-15T18:04:55Z</time>
      </trkpt>
      <trkpt lat="48.37801" lon="2.75255">
        <ele>100.3</ele>
        <time>2018-04-15T18:04:56Z</time>
      </trkpt>
      <trkpt lat="48.37801" lon="2.7526">
        <ele>100.3</ele>
        <time>2018-04-15T18:04:57Z</time>
      </trkpt>
      <trkpt lat="48.37802" lon="2.75266">
        <ele>100.2</ele>
        <time>2018-04-15T18:04:58Z</time>
      </trkpt>
      <trkpt lat="48.37802" lon="2.75271">
        <ele>100.2</ele>
        <time>2018-04-15T18:04:59Z</time>
      </trkpt>
      <trkpt lat="48.37802" lon="2.75277">
        <ele>100.1</ele>
        <time>2018-04-15T18:05:00Z</time>
      </trkpt>
      <trkpt lat="48.37803" lon="2.75285">
        <ele>100.1</ele>
        <time>2018-04-15T18:05:01Z</time>
      </trkpt>
      <trkpt lat="48.37803" lon="2.75291">
        <ele>99.9</ele>
        <time>2018-04-15T18:05:02Z</time>
      </trkpt>
      <trkpt lat="48.37803" lon="2.75297">
        <ele>99.9</ele>
        <time>2018-04-15T18:05:03Z</time>
      </trkpt>
      <trkpt lat="48.37804" lon="2.75304">
        <ele>99.8</ele>
        <time>2018-04-15T18:05:04Z</time>
      </trkpt>
      <trkpt lat="48.37804" lon="2.75311">
        <ele>99.7</ele>
        <time>2018-04-15T18:05:05Z</time>
      </trkpt>
      <trkpt lat="48.37804" lon="2.75318">
        <ele>99.6</ele>
        <time>2018-04-15T18:05:06Z</time>
      </trkpt>
      <trkpt lat="48.37804" lon="2.75325">
        <ele>99.6</ele>
        <time>2018-04-15T18:05:07Z</time>
      </trkpt>
      <trkpt lat="48.37804" lon="2.75332">
        <ele>99.6</ele>
        <time>2018-04-15T18:05:08Z</time>
      </trkpt>
      <trkpt lat="48.37804" lon="2.75338">
        <ele>99.6</ele>
        <time>2018-04-15T18:05:09Z</time>
      </trkpt>
      <trkpt lat="48.37803" lon="2.75344">
        <ele>99.6</ele>
        <time>2018-04-15T18:05:10Z</time>
      </trkpt>
      <trkpt lat="48.37803" lon="2.75348">
        <ele>99.6</ele>
        <time>2018-04-15T18:05:11Z</time>
      </trkpt>
      <trkpt lat="48.37802" lon="2.75356">
        <ele>99.5</ele>
        <time>2018-04-15T18:05:13Z</time>
      </trkpt>
      <trkpt lat="48.37802" lon="2.7536">
        <ele>99.5</ele>
        <time>2018-04-15T18:05:14Z</time>
      </trkpt>
      <trkpt lat="48.37801" lon="2.75365">
        <ele>99.5</ele>
        <time>2018-04-15T18:05:15Z</time>
      </trkpt>
      <trkpt lat="48.378" lon="2.7537">
        <ele>99.5</ele>
        <time>2018-04-15T18:05:16Z</time>
      </trkpt>
      <trkpt lat="48.37799" lon="2.75375">
        <ele>99.4</ele>
        <time>2018-04-15T18:05:17Z</time>
      </trkpt>
      <trkpt lat="48.37797" lon="2.7538">
        <ele>99.3</ele>
        <time>2018-04-15T18:05:18Z</time>
      </trkpt>
      <trkpt lat="48.37796" lon="2.75385">
        <ele>99.2</ele>
        <time>2018-04-15T18:05:19Z</time>
      </trkpt>
      <trkpt lat="48.37793" lon="2.75391">
        <ele>99.2</ele>
        <time>2018-04-15T18:05:20Z</time>
      </trkpt>
      <trkpt lat="48.37791" lon="2.75396">
        <ele>99.1</ele>
        <time>2018-04-15T18:05:21Z</time>
      </trkpt>
      <trkpt lat="48.37789" lon="2.75402">
        <ele>99</ele>
        <time>2018-04-15T18:05:22Z</time>
      </trkpt>
      <trkpt lat="48.37787" lon="2.75408">
        <ele>99</ele>
        <time>2018-04-15T18:05:23Z</time>
      </trkpt>
      <trkpt lat="48.37785" lon="2.75413">
        <ele>99</ele>
        <time>2018-04-15T18:05:24Z</time>
      </trkpt>
      <trkpt lat="48.37783" lon="2.75419">
        <ele>99</ele>
        <time>2018-04-15T18:05:25Z</time>
      </trkpt>
      <trkpt lat="48.37781" lon="2.75425">
        <ele>99</ele>
        <time>2018-04-15T18:05:26Z</time>
      </trkpt>
      <trkpt lat="48.37778" lon="2.75431">
        <ele>99</ele>
        <time>2018-04-15T18:05:27Z</time>
      </trkpt>
      <trkpt lat="48.37776" lon="2.75438">
        <ele>99.1</ele>
        <time>2018-04-15T18:05:28Z</time>
      </trkpt>
      <trkpt lat="48.37773" lon="2.75444">
        <ele>99.1</ele>
        <time>2018-04-15T18:05:29Z</time>
      </trkpt>
      <trkpt lat="48.37771" lon="2.7545">
        <ele>99.2</ele>
        <time>2018-04-15T18:05:30Z</time>
      </trkpt>
      <trkpt lat="48.37768" lon="2.75456">
        <ele>99.2</ele>
        <time>2018-04-15T18:05:31Z</time>
      </trkpt>
      <trkpt lat="48.37766" lon="2.75462">
        <ele>99.3</ele>
        <time>2018-04-15T18:05:32Z</time>
      </trkpt>
      <trkpt lat="48.37763" lon="2.75467">
        <ele>99.3</ele>
        <time>2018-04-15T18:05:33Z</time>
      </trkpt>
      <trkpt lat="48.37761" lon="2.75473">
        <ele>99.3</ele>
        <time>2018-04-15T18:05:34Z</time>
      </trkpt>
      <trkpt lat="48.37758" lon="2.75479">
        <ele>99.3</ele>
        <time>2018-04-15T18:05:35Z</time>
      </trkpt>
      <trkpt lat="48.37757" lon="2.75486">
        <ele>99.3</ele>
        <time>2018-04-15T18:05:36Z</time>
      </trkpt>
      <trkpt lat="48.37756" lon="2.75493">
        <ele>99.3</ele>
        <time>2018-04-15T18:05:37Z</time>
      </trkpt>
      <trkpt lat="48.37754" lon="2.75499">
        <ele>99.3</ele>
        <time>2018-04-15T18:05:38Z</time>
      </trkpt>
      <trkpt lat="48.37753" lon="2.75505">
        <ele>99.3</ele>
        <time>2018-04-15T18:05:39Z</time>
      </trkpt>
      <trkpt lat="48.37753" lon="2.75512">
        <ele>99.3</ele>
        <time>2018-04-15T18:05:40Z</time>
      </trkpt>
      <trkpt lat="48.37752" lon="2.75519">
        <ele>99.4</ele>
        <time>2018-04-15T18:05:41Z</time>
      </trkpt>
      <trkpt lat="48.37751" lon="2.75524">
        <ele>99.4</ele>
        <time>2018-04-15T18:05:42Z</time>
      </trkpt>
      <trkpt lat="48.3775" lon="2.75531">
        <ele>99.5</ele>
        <time>2018-04-15T18:05:43Z</time>
      </trkpt>
      <trkpt lat="48.37749" lon="2.75538">
        <ele>99.5</ele>
        <time>2018-04-15T18:05:44Z</time>
      </trkpt>
      <trkpt lat="48.37748" lon="2.75546">
        <ele>99.5</ele>
        <time>2018-04-15T18:05:45Z</time>
      </trkpt>
      <trkpt lat="48.37747" lon="2.75554">
        <ele>99.6</ele>
        <time>2018-04-15T18:05:46Z</time>
      </trkpt>
      <trkpt lat="48.37746" lon="2.75561">
        <ele>99.6</ele>
        <time>2018-04-15T18:05:47Z</time>
      </trkpt>
      <trkpt lat="48.37744" lon="2.75569">
        <ele>99.7</ele>
        <time>2018-04-15T18:05:48Z</time>
      </trkpt>
      <trkpt lat="48.37743" lon="2.75577">
        <ele>99.7</ele>
        <time>2018-04-15T18:05:49Z</time>
      </trkpt>
      <trkpt lat="48.37742" lon="2.75586">
        <ele>99.7</ele>
        <time>2018-04-15T18:05:50Z</time>
      </trkpt>
      <trkpt lat="48.3774" lon="2.75594">
        <ele>99.9</ele>
        <time>2018-04-15T18:05:51Z</time>
      </trkpt>
      <trkpt lat="48.37739" lon="2.75602">
        <ele>100.1</ele>
        <time>2018-04-15T18:05:52Z</time>
      </trkpt>
      <trkpt lat="48.37738" lon="2.75608">
        <ele>100.2</ele>
        <time>2018-04-15T18:05:53Z</time>
      </trkpt>
      <trkpt lat="48.37737" lon="2.75616">
        <ele>100.6</ele>
        <time>2018-04-15T18:05:54Z</time>
      </trkpt>
      <trkpt lat="48.37736" lon="2.75624">
        <ele>100.9</ele>
        <time>2018-04-15T18:05:55Z</time>
      </trkpt>
      <trkpt lat="48.37734" lon="2.75632">
        <ele>101.2</ele>
        <time>2018-04-15T18:05:56Z</time>
      </trkpt>
      <trkpt lat="48.37733" lon="2.7564">
        <ele>101.5</ele>
        <time>2018-04-15T18:05:57Z</time>
      </trkpt>
      <trkpt lat="48.37731" lon="2.75647">
        <ele>101.6</ele>
        <time>2018-04-15T18:05:58Z</time>
      </trkpt>
      <trkpt lat="48.3773" lon="2.75656">
        <ele>101.7</ele>
        <time>2018-04-15T18:05:59Z</time>
      </trkpt>
      <trkpt lat="48.37728" lon="2.75664">
        <ele>101.8</ele>
        <time>2018-04-15T18:06:00Z</time>
      </trkpt>
      <trkpt lat="48.37726" lon="2.75672">
        <ele>101.8</ele>
        <time>2018-04-15T18:06:01Z</time>
      </trkpt>
      <trkpt lat="48.37724" lon="2.75679">
        <ele>101.9</ele>
        <time>2018-04-15T18:06:02Z</time>
      </trkpt>
      <trkpt lat="48.37721" lon="2.75685">
        <ele>101.9</ele>
        <time>2018-04-15T18:06:03Z</time>
      </trkpt>
      <trkpt lat="48.37718" lon="2.75693">
        <ele>102</ele>
        <time>2018-04-15T18:06:04Z</time>
      </trkpt>
      <trkpt lat="48.37715" lon="2.75699">
        <ele>102</ele>
        <time>2018-04-15T18:06:05Z</time>
      </trkpt>
      <trkpt lat="48.37711" lon="2.75706">
        <ele>102</ele>
        <time>2018-04-15T18:06:06Z</time>
      </trkpt>
      <trkpt lat="48.37708" lon="2.75712">
        <ele>102.1</ele>
        <time>2018-04-15T18:06:07Z</time>
      </trkpt>
      <trkpt lat="48.37704" lon="2.75719">
        <ele>102.2</ele>
        <time>2018-04-15T18:06:08Z</time>
      </trkpt>
      <trkpt lat="48.37701" lon="2.75726">
        <ele>102.2</ele>
        <time>2018-04-15T18:06:09Z</time>
      </trkpt>
      <trkpt lat="48.37698" lon="2.75732">
        <ele>102.2</ele>
        <time>2018-04-15T18:06:10Z</time>
      </trkpt>
      <trkpt lat="48.37695" lon="2.75739">
        <ele>102.2</ele>
        <time>2018-04-15T18:06:11Z</time>
      </trkpt>
      <trkpt lat="48.37692" lon="2.75746">
        <ele>102.2</ele>
        <time>2018-04-15T18:06:12Z</time>
      </trkpt>
      <trkpt lat="48.37689" lon="2.75753">
        <ele>102.2</ele>
        <time>2018-04-15T18:06:13Z</time>
      </trkpt>
      <trkpt lat="48.37686" lon="2.7576">
        <ele>102.2</ele>
        <time>2018-04-15T18:06:14Z</time>
      </trkpt>
      <trkpt lat="48.37684" lon="2.75767">
        <ele>102.1</ele>
        <time>2018-04-15T18:06:15Z</time>
      </trkpt>
      <trkpt lat="48.37681" lon="2.75774">
        <ele>102</ele>
        <time>2018-04-15T18:06:16Z</time>
      </trkpt>
      <trkpt lat="48.37679" lon="2.7578">
        <ele>102</ele>
        <time>2018-04-15T18:06:17Z</time>
      </trkpt>
      <trkpt lat="48.37677" lon="2.75786">
        <ele>102</ele>
        <time>2018-04-15T18:06:18Z</time>
      </trkpt>
      <trkpt lat="48.37675" lon="2.75792">
        <ele>102</ele>
        <time>2018-04-15T18:06:19Z</time>
      </trkpt>
      <trkpt lat="48.37673" lon="2.75797">
        <ele>102</ele>
        <time>2018-04-15T18:06:20Z</time>
      </trkpt>
      <trkpt lat="48.37671" lon="2.75804">
        <ele>102</ele>
        <time>2018-04-15T18:06:21Z</time>
      </trkpt>
      <trkpt lat="48.37669" lon="2.7581">
        <ele>101.9</ele>
        <time>2018-04-15T18:06:22Z</time>
      </trkpt>
      <trkpt lat="48.37668" lon="2.75815">
        <ele>101.8</ele>
        <time>2018-04-15T18:06:23Z</time>
      </trkpt>
      <trkpt lat="48.37667" lon="2.7582">
        <ele>101.8</ele>
        <time>2018-04-15T18:06:24Z</time>
      </trkpt>
      <trkpt lat="48.37666" lon="2.75826">
        <ele>101.7</ele>
        <time>2018-04-15T18:06:25Z</time>
      </trkpt>
      <trkpt lat="48.37665" lon="2.75832">
        <ele>101.7</ele>
        <time>2018-04-15T18:06:26Z</time>
      </trkpt>
      <trkpt lat="48.37665" lon="2.75839">
        <ele>101.6</ele>
        <time>2018-04-15T18:06:27Z</time>
      </trkpt>
      <trkpt lat="48.37665" lon="2.75845">
        <ele>101.6</ele>
        <time>2018-04-15T18:06:28Z</time>
      </trkpt>
      <trkpt lat="48.37665" lon="2.75851">
        <ele>101.6</ele>
        <time>2018-04-15T18:06:29Z</time>
      </trkpt>
      <trkpt lat="48.37664" lon="2.75859">
        <ele>101.6</ele>
        <time>2018-04-15T18:06:30Z</time>
      </trkpt>
      <trkpt lat="48.37664" lon="2.75865">
        <ele>101.6</ele>
        <time>2018-04-15T18:06:31Z</time>
      </trkpt>
      <trkpt lat="48.37664" lon="2.75871">
        <ele>101.6</ele>
        <time>2018-04-15T18:06:32Z</time>
      </trkpt>
      <trkpt lat="48.37664" lon="2.75879">
        <ele>101.6</ele>
        <time>2018-04-15T18:06:33Z</time>
      </trkpt>
      <trkpt lat="48.37663" lon="2.75887">
        <ele>101.6</ele>
        <time>2018-04-15T18:06:34Z</time>
      </trkpt>
      <trkpt lat="48.37663" lon="2.75894">
        <ele>101.7</ele>
        <time>2018-04-15T18:06:35Z</time>
      </trkpt>
      <trkpt lat="48.37663" lon="2.75902">
        <ele>101.7</ele>
        <time>2018-04-15T18:06:36Z</time>
      </trkpt>
      <trkpt lat="48.37663" lon="2.75909">
        <ele>101.7</ele>
        <time>2018-04-15T18:06:37Z</time>
      </trkpt>
      <trkpt lat="48.37662" lon="2.75916">
        <ele>101.8</ele>
        <time>2018-04-15T18:06:38Z</time>
      </trkpt>
      <trkpt lat="48.37662" lon="2.75923">
        <ele>101.8</ele>
        <time>2018-04-15T18:06:39Z</time>
      </trkpt>
      <trkpt lat="48.37662" lon="2.7593">
        <ele>101.9</ele>
        <time>2018-04-15T18:06:40Z</time>
      </trkpt>
      <trkpt lat="48.37662" lon="2.75937">
        <ele>101.9</ele>
        <time>2018-04-15T18:06:41Z</time>
      </trkpt>
      <trkpt lat="48.37661" lon="2.75944">
        <ele>102</ele>
        <time>2018-04-15T18:06:42Z</time>
      </trkpt>
      <trkpt lat="48.37661" lon="2.75951">
        <ele>102.1</ele>
        <time>2018-04-15T18:06:43Z</time>
      </trkpt>
      <trkpt lat="48.37661" lon="2.75958">
        <ele>102.2</ele>
        <time>2018-04-15T18:06:44Z</time>
      </trkpt>
      <trkpt lat="48.3766" lon="2.75963">
        <ele>102.3</ele>
        <time>2018-04-15T18:06:45Z</time>
      </trkpt>
      <trkpt lat="48.37658" lon="2.75969">
        <ele>102.3</ele>
        <time>2018-04-15T18:06:46Z</time>
      </trkpt>
      <trkpt lat="48.37657" lon="2.75974">
        <ele>102.4</ele>
        <time>2018-04-15T18:06:47Z</time>
      </trkpt>
      <trkpt lat="48.37656" lon="2.7598">
        <ele>102.5</ele>
        <time>2018-04-15T18:06:48Z</time>
      </trkpt>
      <trkpt lat="48.37655" lon="2.75986">
        <ele>102.6</ele>
        <time>2018-04-15T18:06:49Z</time>
      </trkpt>
      <trkpt lat="48.37655" lon="2.75993">
        <ele>102.7</ele>
        <time>2018-04-15T18:06:50Z</time>
      </trkpt>
      <trkpt lat="48.37656" lon="2.75999">
        <ele>102.8</ele>
        <time>2018-04-15T18:06:51Z</time>
      </trkpt>
      <trkpt lat="48.37657" lon="2.76005">
        <ele>102.8</ele>
        <time>2018-04-15T18:06:52Z</time>
      </trkpt>
      <trkpt lat="48.37658" lon="2.7601">
        <ele>102.9</ele>
        <time>2018-04-15T18:06:53Z</time>
      </trkpt>
      <trkpt lat="48.37659" lon="2.76016">
        <ele>102.9</ele>
        <time>2018-04-15T18:06:54Z</time>
      </trkpt>
      <trkpt lat="48.3766" lon="2.76022">
        <ele>103</ele>
        <time>2018-04-15T18:06:55Z</time>
      </trkpt>
      <trkpt lat="48.37661" lon="2.76028">
        <ele>103</ele>
        <time>2018-04-15T18:06:56Z</time>
      </trkpt>
      <trkpt lat="48.37662" lon="2.76034">
        <ele>103</ele>
        <time>2018-04-15T18:06:57Z</time>
      </trkpt>
      <trkpt lat="48.37663" lon="2.76039">
        <ele>103</ele>
        <time>2018-04-15T18:06:58Z</time>
      </trkpt>
      <trkpt lat="48.37664" lon="2.76045">
        <ele>103</ele>
        <time>2018-04-15T18:06:59Z</time>
      </trkpt>
      <trkpt lat="48.37665" lon="2.76051">
        <ele>103.1</ele>
        <time>2018-04-15T18:07:00Z</time>
      </trkpt>
      <trkpt lat="48.37665" lon="2.76058">
        <ele>103.1</ele>
        <time>2018-04-15T18:07:01Z</time>
      </trkpt>
      <trkpt lat="48.37665" lon="2.76063">
        <ele>103.1</ele>
        <time>2018-04-15T18:07:02Z</time>
      </trkpt>
      <trkpt lat="48.37666" lon="2.76069">
        <ele>103.2</ele>
        <time>2018-04-15T18:07:03Z</time>
      </trkpt>
      <trkpt lat="48.37666" lon="2.76076">
        <ele>103.2</ele>
        <time>2018-04-15T18:07:04Z</time>
      </trkpt>
      <trkpt lat="48.37666" lon="2.76083">
        <ele>103.3</ele>
        <time>2018-04-15T18:07:05Z</time>
      </trkpt>
      <trkpt lat="48.37665" lon="2.76091">
        <ele>103.3</ele>
        <time>2018-04-15T18:07:06Z</time>
      </trkpt>
      <trkpt lat="48.37665" lon="2.76101">
        <ele>103.4</ele>
        <time>2018-04-15T18:07:07Z</time>
      </trkpt>
      <trkpt lat="48.37665" lon="2.76109">
        <ele>103.4</ele>
        <time>2018-04-15T18:07:08Z</time>
      </trkpt>
      <trkpt lat="48.37664" lon="2.76118">
        <ele>103.4</ele>
        <time>2018-04-15T18:07:09Z</time>
      </trkpt>
      <trkpt lat="48.37663" lon="2.76127">
        <ele>103.5</ele>
        <time>2018-04-15T18:07:10Z</time>
      </trkpt>
      <trkpt lat="48.37663" lon="2.76134">
        <ele>103.5</ele>
        <time>2018-04-15T18:07:11Z</time>
      </trkpt>
      <trkpt lat="48.37663" lon="2.7614">
        <ele>103.5</ele>
        <time>2018-04-15T18:07:12Z</time>
      </trkpt>
      <trkpt lat="48.37662" lon="2.76147">
        <ele>103.5</ele>
        <time>2018-04-15T18:07:13Z</time>
      </trkpt>
      <trkpt lat="48.37661" lon="2.76155">
        <ele>103.6</ele>
        <time>2018-04-15T18:07:14Z</time>
      </trkpt>
      <trkpt lat="48.3766" lon="2.76164">
        <ele>103.6</ele>
        <time>2018-04-15T18:07:15Z</time>
      </trkpt>
      <trkpt lat="48.3766" lon="2.76174">
        <ele>103.6</ele>
        <time>2018-04-15T18:07:16Z</time>
      </trkpt>
      <trkpt lat="48.37659" lon="2.76182">
        <ele>103.7</ele>
        <time>2018-04-15T18:07:17Z</time>
      </trkpt>
      <trkpt lat="48.37659" lon="2.76191">
        <ele>103.7</ele>
        <time>2018-04-15T18:07:18Z</time>
      </trkpt>
      <trkpt lat="48.37659" lon="2.76201">
        <ele>103.7</ele>
        <time>2018-04-15T18:07:19Z</time>
      </trkpt>
      <trkpt lat="48.37659" lon="2.7621">
        <ele>103.8</ele>
        <time>2018-04-15T18:07:20Z</time>
      </trkpt>
      <trkpt lat="48.37658" lon="2.76219">
        <ele>103.8</ele>
        <time>2018-04-15T18:07:21Z</time>
      </trkpt>
      <trkpt lat="48.37658" lon="2.76228">
        <ele>103.8</ele>
        <time>2018-04-15T18:07:22Z</time>
      </trkpt>
      <trkpt lat="48.37657" lon="2.76237">
        <ele>103.8</ele>
        <time>2018-04-15T18:07:23Z</time>
      </trkpt>
      <trkpt lat="48.37657" lon="2.76245">
        <ele>103.9</ele>
        <time>2018-04-15T18:07:24Z</time>
      </trkpt>
      <trkpt lat="48.37658" lon="2.76254">
        <ele>103.9</ele>
        <time>2018-04-15T18:07:25Z</time>
      </trkpt>
      <trkpt lat="48.37659" lon="2.76264">
        <ele>103.9</ele>
        <time>2018-04-15T18:07:26Z</time>
      </trkpt>
      <trkpt lat="48.37659" lon="2.76274">
        <ele>104</ele>
        <time>2018-04-15T18:07:27Z</time>
      </trkpt>
      <trkpt lat="48.37659" lon="2.76283">
        <ele>104</ele>
        <time>2018-04-15T18:07:28Z</time>
      </trkpt>
      <trkpt lat="48.37659" lon="2.76292">
        <ele>103.9</ele>
        <time>2018-04-15T18:07:29Z</time>
      </trkpt>
      <trkpt lat="48.37658" lon="2.763">
        <ele>103.9</ele>
        <time>2018-04-15T18:07:30Z</time>
      </trkpt>
      <trkpt lat="48.37656" lon="2.76309">
        <ele>103.8</ele>
        <time>2018-04-15T18:07:31Z</time>
      </trkpt>
      <trkpt lat="48.37655" lon="2.76317">
        <ele>103.7</ele>
        <time>2018-04-15T18:07:32Z</time>
      </trkpt>
      <trkpt lat="48.37653" lon="2.76324">
        <ele>103.7</ele>
        <time>2018-04-15T18:07:33Z</time>
      </trkpt>
      <trkpt lat="48.37649" lon="2.76329">
        <ele>103.6</ele>
        <time>2018-04-15T18:07:34Z</time>
      </trkpt>
      <trkpt lat="48.37646" lon="2.76336">
        <ele>103.6</ele>
        <time>2018-04-15T18:07:35Z</time>
      </trkpt>
      <trkpt lat="48.37642" lon="2.76342">
        <ele>103.5</ele>
        <time>2018-04-15T18:07:36Z</time>
      </trkpt>
      <trkpt lat="48.37638" lon="2.76347">
        <ele>103.5</ele>
        <time>2018-04-15T18:07:37Z</time>
      </trkpt>
      <trkpt lat="48.37635" lon="2.76352">
        <ele>103.5</ele>
        <time>2018-04-15T18:07:38Z</time>
      </trkpt>
      <trkpt lat="48.37632" lon="2.76358">
        <ele>103.6</ele>
        <time>2018-04-15T18:07:39Z</time>
      </trkpt>
      <trkpt lat="48.37628" lon="2.76363">
        <ele>103.6</ele>
        <time>2018-04-15T18:07:40Z</time>
      </trkpt>
      <trkpt lat="48.37624" lon="2.76369">
        <ele>103.7</ele>
        <time>2018-04-15T18:07:41Z</time>
      </trkpt>
      <trkpt lat="48.37621" lon="2.76374">
        <ele>103.8</ele>
        <time>2018-04-15T18:07:42Z</time>
      </trkpt>
      <trkpt lat="48.37617" lon="2.76381">
        <ele>103.9</ele>
        <time>2018-04-15T18:07:43Z</time>
      </trkpt>
      <trkpt lat="48.37614" lon="2.76388">
        <ele>104</ele>
        <time>2018-04-15T18:07:44Z</time>
      </trkpt>
      <trkpt lat="48.37611" lon="2.76396">
        <ele>104</ele>
        <time>2018-04-15T18:07:45Z</time>
      </trkpt>
      <trkpt lat="48.3761" lon="2.76405">
        <ele>104.1</ele>
        <time>2018-04-15T18:07:46Z</time>
      </trkpt>
      <trkpt lat="48.37609" lon="2.76413">
        <ele>104.2</ele>
        <time>2018-04-15T18:07:47Z</time>
      </trkpt>
      <trkpt lat="48.37608" lon="2.76421">
        <ele>104.2</ele>
        <time>2018-04-15T18:07:48Z</time>
      </trkpt>
      <trkpt lat="48.37607" lon="2.7643">
        <ele>104.2</ele>
        <time>2018-04-15T18:07:49Z</time>
      </trkpt>
      <trkpt lat="48.37606" lon="2.76438">
        <ele>104.2</ele>
        <time>2018-04-15T18:07:50Z</time>
      </trkpt>
      <trkpt lat="48.37605" lon="2.76446">
        <ele>104.3</ele>
        <time>2018-04-15T18:07:51Z</time>
      </trkpt>
      <trkpt lat="48.37604" lon="2.76453">
        <ele>104.3</ele>
        <time>2018-04-15T18:07:52Z</time>
      </trkpt>
      <trkpt lat="48.37603" lon="2.7646">
        <ele>104.3</ele>
        <time>2018-04-15T18:07:53Z</time>
      </trkpt>
      <trkpt lat="48.37601" lon="2.76469">
        <ele>104.3</ele>
        <time>2018-04-15T18:07:54Z</time>
      </trkpt>
      <trkpt lat="48.376" lon="2.76475">
        <ele>104.3</ele>
        <time>2018-04-15T18:07:55Z</time>
      </trkpt>
      <trkpt lat="48.37599" lon="2.76483">
        <ele>104.4</ele>
        <time>2018-04-15T18:07:56Z</time>
      </trkpt>
      <trkpt lat="48.37597" lon="2.76491">
        <ele>104.4</ele>
        <time>2018-04-15T18:07:57Z</time>
      </trkpt>
      <trkpt lat="48.37596" lon="2.76498">
        <ele>104.4</ele>
        <time>2018-04-15T18:07:58Z</time>
      </trkpt>
      <trkpt lat="48.37595" lon="2.76505">
        <ele>104.4</ele>
        <time>2018-04-15T18:07:59Z</time>
      </trkpt>
      <trkpt lat="48.37593" lon="2.76511">
        <ele>104.4</ele>
        <time>2018-04-15T18:08:00Z</time>
      </trkpt>
      <trkpt lat="48.37591" lon="2.76519">
        <ele>104.5</ele>
        <time>2018-04-15T18:08:01Z</time>
      </trkpt>
      <trkpt lat="48.37589" lon="2.76525">
        <ele>104.5</ele>
        <time>2018-04-15T18:08:02Z</time>
      </trkpt>
      <trkpt lat="48.37588" lon="2.76532">
        <ele>104.5</ele>
        <time>2018-04-15T18:08:03Z</time>
      </trkpt>
      <trkpt lat="48.37588" lon="2.7654">
        <ele>104.5</ele>
        <time>2018-04-15T18:08:04Z</time>
      </trkpt>
      <trkpt lat="48.37586" lon="2.76549">
        <ele>104.5</ele>
        <time>2018-04-15T18:08:05Z</time>
      </trkpt>
      <trkpt lat="48.37585" lon="2.76557">
        <ele>104.6</ele>
        <time>2018-04-15T18:08:06Z</time>
      </trkpt>
      <trkpt lat="48.37584" lon="2.76565">
        <ele>104.6</ele>
        <time>2018-04-15T18:08:07Z</time>
      </trkpt>
      <trkpt lat="48.37582" lon="2.76574">
        <ele>104.7</ele>
        <time>2018-04-15T18:08:08Z</time>
      </trkpt>
      <trkpt lat="48.37581" lon="2.76582">
        <ele>104.7</ele>
        <time>2018-04-15T18:08:09Z</time>
      </trkpt>
      <trkpt lat="48.3758" lon="2.7659">
        <ele>104.7</ele>
        <time>2018-04-15T18:08:10Z</time>
      </trkpt>
      <trkpt lat="48.37579" lon="2.76597">
        <ele>104.7</ele>
        <time>2018-04-15T18:08:11Z</time>
      </trkpt>
      <trkpt lat="48.37578" lon="2.76605">
        <ele>104.7</ele>
        <time>2018-04-15T18:08:12Z</time>
      </trkpt>
      <trkpt lat="48.37578" lon="2.76611">
        <ele>104.8</ele>
        <time>2018-04-15T18:08:13Z</time>
      </trkpt>
      <trkpt lat="48.37576" lon="2.76618">
        <ele>104.8</ele>
        <time>2018-04-15T18:08:14Z</time>
      </trkpt>
      <trkpt lat="48.37575" lon="2.76625">
        <ele>104.8</ele>
        <time>2018-04-15T18:08:15Z</time>
      </trkpt>
      <trkpt lat="48.37573" lon="2.76633">
        <ele>104.9</ele>
        <time>2018-04-15T18:08:16Z</time>
      </trkpt>
      <trkpt lat="48.37572" lon="2.76641">
        <ele>104.9</ele>
        <time>2018-04-15T18:08:17Z</time>
      </trkpt>
      <trkpt lat="48.37571" lon="2.76648">
        <ele>105</ele>
        <time>2018-04-15T18:08:18Z</time>
      </trkpt>
      <trkpt lat="48.37569" lon="2.76656">
        <ele>105</ele>
        <time>2018-04-15T18:08:19Z</time>
      </trkpt>
      <trkpt lat="48.37568" lon="2.76663">
        <ele>105.1</ele>
        <time>2018-04-15T18:08:20Z</time>
      </trkpt>
      <trkpt lat="48.37567" lon="2.76671">
        <ele>105.2</ele>
        <time>2018-04-15T18:08:21Z</time>
      </trkpt>
      <trkpt lat="48.37567" lon="2.7668">
        <ele>105.3</ele>
        <time>2018-04-15T18:08:22Z</time>
      </trkpt>
      <trkpt lat="48.37568" lon="2.76686">
        <ele>105.4</ele>
        <time>2018-04-15T18:08:23Z</time>
      </trkpt>
      <trkpt lat="48.37569" lon="2.76692">
        <ele>105.5</ele>
        <time>2018-04-15T18:08:24Z</time>
      </trkpt>
      <trkpt lat="48.3757" lon="2.76698">
        <ele>105.7</ele>
        <time>2018-04-15T18:08:25Z</time>
      </trkpt>
      <trkpt lat="48.37572" lon="2.76704">
        <ele>106</ele>
        <time>2018-04-15T18:08:26Z</time>
      </trkpt>
      <trkpt lat="48.37574" lon="2.7671">
        <ele>105.2</ele>
        <time>2018-04-15T18:08:27Z</time>
      </trkpt>
      <trkpt lat="48.37577" lon="2.76717">
        <ele>104.1</ele>
        <time>2018-04-15T18:08:28Z</time>
      </trkpt>
      <trkpt lat="48.37582" lon="2.76724">
        <ele>103</ele>
        <time>2018-04-15T18:08:29Z</time>
      </trkpt>
      <trkpt lat="48.37585" lon="2.76731">
        <ele>101.9</ele>
        <time>2018-04-15T18:08:30Z</time>
      </trkpt>
      <trkpt lat="48.37589" lon="2.76739">
        <ele>100.9</ele>
        <time>2018-04-15T18:08:31Z</time>
      </trkpt>
      <trkpt lat="48.37591" lon="2.7675">
        <ele>99.8</ele>
        <time>2018-04-15T18:08:32Z</time>
      </trkpt>
      <trkpt lat="48.37591" lon="2.76758">
        <ele>98.8</ele>
        <time>2018-04-15T18:08:33Z</time>
      </trkpt>
      <trkpt lat="48.37591" lon="2.76764">
        <ele>98</ele>
        <time>2018-04-15T18:08:34Z</time>
      </trkpt>
      <trkpt lat="48.3759" lon="2.76769">
        <ele>98.4</ele>
        <time>2018-04-15T18:08:36Z</time>
      </trkpt>
      <trkpt lat="48.37587" lon="2.76773">
        <ele>98.6</ele>
        <time>2018-04-15T18:08:38Z</time>
      </trkpt>
      <trkpt lat="48.37582" lon="2.76776">
        <ele>98.8</ele>
        <time>2018-04-15T18:08:40Z</time>
      </trkpt>
      <trkpt lat="48.37578" lon="2.76779">
        <ele>98.9</ele>
        <time>2018-04-15T18:08:41Z</time>
      </trkpt>
      <trkpt lat="48.37573" lon="2.76784">
        <ele>99.1</ele>
        <time>2018-04-15T18:08:42Z</time>
      </trkpt>
      <trkpt lat="48.37569" lon="2.76789">
        <ele>99.3</ele>
        <time>2018-04-15T18:08:43Z</time>
      </trkpt>
      <trkpt lat="48.37566" lon="2.76796">
        <ele>100</ele>
        <time>2018-04-15T18:08:44Z</time>
      </trkpt>
      <trkpt lat="48.37564" lon="2.76806">
        <ele>100</ele>
        <time>2018-04-15T18:08:45Z</time>
      </trkpt>
      <trkpt lat="48.37562" lon="2.76814">
        <ele>101.7</ele>
        <time>2018-04-15T18:08:46Z</time>
      </trkpt>
      <trkpt lat="48.37561" lon="2.76821">
        <ele>101.8</ele>
        <time>2018-04-15T18:08:47Z</time>
      </trkpt>
      <trkpt lat="48.37559" lon="2.7683">
        <ele>101.7</ele>
        <time>2018-04-15T18:08:48Z</time>
      </trkpt>
      <trkpt lat="48.37558" lon="2.76838">
        <ele>101.5</ele>
        <time>2018-04-15T18:08:49Z</time>
      </trkpt>
      <trkpt lat="48.37556" lon="2.76846">
        <ele>101.5</ele>
        <time>2018-04-15T18:08:50Z</time>
      </trkpt>
      <trkpt lat="48.37555" lon="2.76856">
        <ele>101.5</ele>
        <time>2018-04-15T18:08:51Z</time>
      </trkpt>
      <trkpt lat="48.37553" lon="2.76865">
        <ele>102.5</ele>
        <time>2018-04-15T18:08:52Z</time>
      </trkpt>
      <trkpt lat="48.37552" lon="2.76874">
        <ele>102.5</ele>
        <time>2018-04-15T18:08:53Z</time>
      </trkpt>
      <trkpt lat="48.37552" lon="2.76882">
        <ele>102.3</ele>
        <time>2018-04-15T18:08:54Z</time>
      </trkpt>
      <trkpt lat="48.37552" lon="2.76892">
        <ele>102.2</ele>
        <time>2018-04-15T18:08:55Z</time>
      </trkpt>
      <trkpt lat="48.37551" lon="2.76902">
        <ele>102.2</ele>
        <time>2018-04-15T18:08:56Z</time>
      </trkpt>
      <trkpt lat="48.37549" lon="2.76911">
        <ele>102.2</ele>
        <time>2018-04-15T18:08:57Z</time>
      </trkpt>
      <trkpt lat="48.37547" lon="2.76921">
        <ele>102.4</ele>
        <time>2018-04-15T18:08:58Z</time>
      </trkpt>
      <trkpt lat="48.37546" lon="2.76931">
        <ele>102.6</ele>
        <time>2018-04-15T18:08:59Z</time>
      </trkpt>
      <trkpt lat="48.37544" lon="2.76941">
        <ele>102.7</ele>
        <time>2018-04-15T18:09:00Z</time>
      </trkpt>
      <trkpt lat="48.37542" lon="2.7695">
        <ele>102.9</ele>
        <time>2018-04-15T18:09:01Z</time>
      </trkpt>
      <trkpt lat="48.37541" lon="2.76958">
        <ele>103</ele>
        <time>2018-04-15T18:09:02Z</time>
      </trkpt>
      <trkpt lat="48.3754" lon="2.76967">
        <ele>102.9</ele>
        <time>2018-04-15T18:09:03Z</time>
      </trkpt>
      <trkpt lat="48.37539" lon="2.76976">
        <ele>102.9</ele>
        <time>2018-04-15T18:09:04Z</time>
      </trkpt>
      <trkpt lat="48.37537" lon="2.76984">
        <ele>102.9</ele>
        <time>2018-04-15T18:09:05Z</time>
      </trkpt>
      <trkpt lat="48.37534" lon="2.76992">
        <ele>103</ele>
        <time>2018-04-15T18:09:06Z</time>
      </trkpt>
      <trkpt lat="48.37533" lon="2.77001">
        <ele>102.9</ele>
        <time>2018-04-15T18:09:07Z</time>
      </trkpt>
      <trkpt lat="48.37531" lon="2.7701">
        <ele>102.9</ele>
        <time>2018-04-15T18:09:08Z</time>
      </trkpt>
      <trkpt lat="48.3753" lon="2.77019">
        <ele>102.8</ele>
        <time>2018-04-15T18:09:09Z</time>
      </trkpt>
      <trkpt lat="48.37528" lon="2.77028">
        <ele>102.9</ele>
        <time>2018-04-15T18:09:10Z</time>
      </trkpt>
      <trkpt lat="48.37526" lon="2.77038">
        <ele>102.9</ele>
        <time>2018-04-15T18:09:11Z</time>
      </trkpt>
      <trkpt lat="48.37524" lon="2.77047">
        <ele>102.8</ele>
        <time>2018-04-15T18:09:12Z</time>
      </trkpt>
      <trkpt lat="48.37523" lon="2.77056">
        <ele>102.9</ele>
        <time>2018-04-15T18:09:13Z</time>
      </trkpt>
      <trkpt lat="48.37522" lon="2.77064">
        <ele>102.8</ele>
        <time>2018-04-15T18:09:14Z</time>
      </trkpt>
      <trkpt lat="48.37521" lon="2.77073">
        <ele>102.8</ele>
        <time>2018-04-15T18:09:15Z</time>
      </trkpt>
      <trkpt lat="48.3752" lon="2.77082">
        <ele>102.8</ele>
        <time>2018-04-15T18:09:16Z</time>
      </trkpt>
      <trkpt lat="48.37519" lon="2.7709">
        <ele>102.8</ele>
        <time>2018-04-15T18:09:17Z</time>
      </trkpt>
      <trkpt lat="48.37517" lon="2.77097">
        <ele>102.8</ele>
        <time>2018-04-15T18:09:18Z</time>
      </trkpt>
      <trkpt lat="48.37517" lon="2.77104">
        <ele>102.9</ele>
        <time>2018-04-15T18:09:19Z</time>
      </trkpt>
      <trkpt lat="48.37517" lon="2.77112">
        <ele>103</ele>
        <time>2018-04-15T18:09:20Z</time>
      </trkpt>
      <trkpt lat="48.37516" lon="2.77119">
        <ele>103.1</ele>
        <time>2018-04-15T18:09:21Z</time>
      </trkpt>
      <trkpt lat="48.37516" lon="2.77126">
        <ele>103.2</ele>
        <time>2018-04-15T18:09:22Z</time>
      </trkpt>
      <trkpt lat="48.37515" lon="2.77134">
        <ele>103.4</ele>
        <time>2018-04-15T18:09:23Z</time>
      </trkpt>
      <trkpt lat="48.37514" lon="2.77143">
        <ele>103.6</ele>
        <time>2018-04-15T18:09:24Z</time>
      </trkpt>
      <trkpt lat="48.37513" lon="2.77152">
        <ele>103.7</ele>
        <time>2018-04-15T18:09:25Z</time>
      </trkpt>
      <trkpt lat="48.37511" lon="2.77161">
        <ele>103.8</ele>
        <time>2018-04-15T18:09:26Z</time>
      </trkpt>
      <trkpt lat="48.3751" lon="2.77172">
        <ele>103.9</ele>
        <time>2018-04-15T18:09:27Z</time>
      </trkpt>
      <trkpt lat="48.37509" lon="2.77182">
        <ele>103.9</ele>
        <time>2018-04-15T18:09:28Z</time>
      </trkpt>
      <trkpt lat="48.37507" lon="2.7719">
        <ele>103.9</ele>
        <time>2018-04-15T18:09:29Z</time>
      </trkpt>
      <trkpt lat="48.37505" lon="2.77199">
        <ele>103.8</ele>
        <time>2018-04-15T18:09:30Z</time>
      </trkpt>
      <trkpt lat="48.37504" lon="2.77208">
        <ele>103.8</ele>
        <time>2018-04-15T18:09:31Z</time>
      </trkpt>
      <trkpt lat="48.37503" lon="2.77216">
        <ele>103.6</ele>
        <time>2018-04-15T18:09:32Z</time>
      </trkpt>
      <trkpt lat="48.37502" lon="2.77224">
        <ele>103.6</ele>
        <time>2018-04-15T18:09:33Z</time>
      </trkpt>
      <trkpt lat="48.37501" lon="2.77228">
        <ele>103.6</ele>
        <time>2018-04-15T18:09:34Z</time>
      </trkpt>
      <trkpt lat="48.37501" lon="2.77233">
        <ele>103.6</ele>
        <time>2018-04-15T18:09:36Z</time>
      </trkpt>
      <trkpt lat="48.37503" lon="2.77238">
        <ele>103.5</ele>
        <time>2018-04-15T18:09:41Z</time>
      </trkpt>
      <trkpt lat="48.37508" lon="2.77238">
        <ele>103.4</ele>
        <time>2018-04-15T18:09:43Z</time>
      </trkpt>
      <trkpt lat="48.37512" lon="2.77238">
        <ele>103.4</ele>
        <time>2018-04-15T18:09:44Z</time>
      </trkpt>
      <trkpt lat="48.37517" lon="2.77238">
        <ele>103.3</ele>
        <time>2018-04-15T18:09:45Z</time>
      </trkpt>
      <trkpt lat="48.37521" lon="2.77238">
        <ele>103.2</ele>
        <time>2018-04-15T18:09:46Z</time>
      </trkpt>
      <trkpt lat="48.37526" lon="2.77239">
        <ele>103.1</ele>
        <time>2018-04-15T18:09:47Z</time>
      </trkpt>
      <trkpt lat="48.37531" lon="2.77239">
        <ele>103</ele>
        <time>2018-04-15T18:09:48Z</time>
      </trkpt>
      <trkpt lat="48.37536" lon="2.7724">
        <ele>103</ele>
        <time>2018-04-15T18:09:49Z</time>
      </trkpt>
      <trkpt lat="48.37541" lon="2.77242">
        <ele>102.9</ele>
        <time>2018-04-15T18:09:50Z</time>
      </trkpt>
      <trkpt lat="48.37545" lon="2.77242">
        <ele>102.8</ele>
        <time>2018-04-15T18:09:51Z</time>
      </trkpt>
      <trkpt lat="48.37549" lon="2.77242">
        <ele>102.8</ele>
        <time>2018-04-15T18:09:52Z</time>
      </trkpt>
      <trkpt lat="48.37554" lon="2.77243">
        <ele>102.7</ele>
        <time>2018-04-15T18:09:53Z</time>
      </trkpt>
      <trkpt lat="48.37558" lon="2.77242">
        <ele>102.6</ele>
        <time>2018-04-15T18:09:54Z</time>
      </trkpt>
      <trkpt lat="48.37562" lon="2.77243">
        <ele>102.5</ele>
        <time>2018-04-15T18:09:55Z</time>
      </trkpt>
      <trkpt lat="48.37566" lon="2.77244">
        <ele>102.5</ele>
        <time>2018-04-15T18:09:56Z</time>
      </trkpt>
      <trkpt lat="48.3757" lon="2.77246">
        <ele>102.4</ele>
        <time>2018-04-15T18:09:57Z</time>
      </trkpt>
      <trkpt lat="48.37574" lon="2.77249">
        <ele>102.3</ele>
        <time>2018-04-15T18:09:58Z</time>
      </trkpt>
      <trkpt lat="48.37576" lon="2.77255">
        <ele>102.2</ele>
        <time>2018-04-15T18:09:59Z</time>
      </trkpt>
      <trkpt lat="48.37577" lon="2.77261">
        <ele>102.1</ele>
        <time>2018-04-15T18:10:00Z</time>
      </trkpt>
      <trkpt lat="48.37578" lon="2.77268">
        <ele>102</ele>
        <time>2018-04-15T18:10:01Z</time>
      </trkpt>
      <trkpt lat="48.37577" lon="2.77274">
        <ele>102</ele>
        <time>2018-04-15T18:10:02Z</time>
      </trkpt>
      <trkpt lat="48.37576" lon="2.77282">
        <ele>102.1</ele>
        <time>2018-04-15T18:10:03Z</time>
      </trkpt>
      <trkpt lat="48.37576" lon="2.77291">
        <ele>102.2</ele>
        <time>2018-04-15T18:10:04Z</time>
      </trkpt>
      <trkpt lat="48.37575" lon="2.77299">
        <ele>102.2</ele>
        <time>2018-04-15T18:10:05Z</time>
      </trkpt>
      <trkpt lat="48.37573" lon="2.77305">
        <ele>102.2</ele>
        <time>2018-04-15T18:10:06Z</time>
      </trkpt>
      <trkpt lat="48.37571" lon="2.77311">
        <ele>102.2</ele>
        <time>2018-04-15T18:10:07Z</time>
      </trkpt>
      <trkpt lat="48.37568" lon="2.77314">
        <ele>102.2</ele>
        <time>2018-04-15T18:10:08Z</time>
      </trkpt>
      <trkpt lat="48.37565" lon="2.77318">
        <ele>102.2</ele>
        <time>2018-04-15T18:10:09Z</time>
      </trkpt>
      <trkpt lat="48.37561" lon="2.77321">
        <ele>102.1</ele>
        <time>2018-04-15T18:10:10Z</time>
      </trkpt>
      <trkpt lat="48.37558" lon="2.77324">
        <ele>102</ele>
        <time>2018-04-15T18:10:11Z</time>
      </trkpt>
      <trkpt lat="48.37555" lon="2.77329">
        <ele>101.9</ele>
        <time>2018-04-15T18:10:12Z</time>
      </trkpt>
      <trkpt lat="48.3755" lon="2.77337">
        <ele>101.8</ele>
        <time>2018-04-15T18:10:13Z</time>
      </trkpt>
      <trkpt lat="48.37547" lon="2.77343">
        <ele>101.7</ele>
        <time>2018-04-15T18:10:14Z</time>
      </trkpt>
      <trkpt lat="48.37545" lon="2.77347">
        <ele>101.6</ele>
        <time>2018-04-15T18:10:15Z</time>
      </trkpt>
      <trkpt lat="48.37542" lon="2.77354">
        <ele>101.6</ele>
        <time>2018-04-15T18:10:16Z</time>
      </trkpt>
      <trkpt lat="48.37539" lon="2.77361">
        <ele>101.6</ele>
        <time>2018-04-15T18:10:17Z</time>
      </trkpt>
      <trkpt lat="48.37535" lon="2.77366">
        <ele>101.6</ele>
        <time>2018-04-15T18:10:18Z</time>
      </trkpt>
      <trkpt lat="48.37532" lon="2.77372">
        <ele>101.6</ele>
        <time>2018-04-15T18:10:19Z</time>
      </trkpt>
      <trkpt lat="48.37529" lon="2.77378">
        <ele>101.6</ele>
        <time>2018-04-15T18:10:20Z</time>
      </trkpt>
      <trkpt lat="48.37526" lon="2.77383">
        <ele>101.6</ele>
        <time>2018-04-15T18:10:21Z</time>
      </trkpt>
      <trkpt lat="48.37523" lon="2.77389">
        <ele>101.7</ele>
        <time>2018-04-15T18:10:22Z</time>
      </trkpt>
      <trkpt lat="48.3752" lon="2.77395">
        <ele>101.7</ele>
        <time>2018-04-15T18:10:23Z</time>
      </trkpt>
      <trkpt lat="48.37517" lon="2.77401">
        <ele>101.7</ele>
        <time>2018-04-15T18:10:24Z</time>
      </trkpt>
      <trkpt lat="48.37514" lon="2.77407">
        <ele>101.7</ele>
        <time>2018-04-15T18:10:25Z</time>
      </trkpt>
      <trkpt lat="48.37511" lon="2.77412">
        <ele>101.7</ele>
        <time>2018-04-15T18:10:26Z</time>
      </trkpt>
      <trkpt lat="48.37508" lon="2.77418">
        <ele>101.7</ele>
        <time>2018-04-15T18:10:27Z</time>
      </trkpt>
      <trkpt lat="48.37504" lon="2.77424">
        <ele>101.7</ele>
        <time>2018-04-15T18:10:28Z</time>
      </trkpt>
      <trkpt lat="48.37501" lon="2.77431">
        <ele>101.7</ele>
        <time>2018-04-15T18:10:29Z</time>
      </trkpt>
      <trkpt lat="48.37499" lon="2.77439">
        <ele>101.8</ele>
        <time>2018-04-15T18:10:30Z</time>
      </trkpt>
      <trkpt lat="48.37497" lon="2.77446">
        <ele>101.8</ele>
        <time>2018-04-15T18:10:31Z</time>
      </trkpt>
      <trkpt lat="48.37495" lon="2.77453">
        <ele>101.9</ele>
        <time>2018-04-15T18:10:32Z</time>
      </trkpt>
      <trkpt lat="48.37493" lon="2.77461">
        <ele>102</ele>
        <time>2018-04-15T18:10:33Z</time>
      </trkpt>
      <trkpt lat="48.37493" lon="2.77469">
        <ele>102.1</ele>
        <time>2018-04-15T18:10:34Z</time>
      </trkpt>
      <trkpt lat="48.37492" lon="2.77476">
        <ele>102.2</ele>
        <time>2018-04-15T18:10:35Z</time>
      </trkpt>
      <trkpt lat="48.3749" lon="2.77483">
        <ele>102.3</ele>
        <time>2018-04-15T18:10:36Z</time>
      </trkpt>
      <trkpt lat="48.37489" lon="2.7749">
        <ele>102.4</ele>
        <time>2018-04-15T18:10:37Z</time>
      </trkpt>
      <trkpt lat="48.37488" lon="2.77498">
        <ele>102.5</ele>
        <time>2018-04-15T18:10:38Z</time>
      </trkpt>
      <trkpt lat="48.37488" lon="2.77505">
        <ele>102.6</ele>
        <time>2018-04-15T18:10:39Z</time>
      </trkpt>
      <trkpt lat="48.37487" lon="2.77512">
        <ele>102.7</ele>
        <time>2018-04-15T18:10:40Z</time>
      </trkpt>
      <trkpt lat="48.37486" lon="2.7752">
        <ele>102.7</ele>
        <time>2018-04-15T18:10:41Z</time>
      </trkpt>
      <trkpt lat="48.37485" lon="2.77528">
        <ele>102.8</ele>
        <time>2018-04-15T18:10:42Z</time>
      </trkpt>
      <trkpt lat="48.37484" lon="2.77537">
        <ele>102.8</ele>
        <time>2018-04-15T18:10:43Z</time>
      </trkpt>
      <trkpt lat="48.37483" lon="2.77545">
        <ele>102.8</ele>
        <time>2018-04-15T18:10:44Z</time>
      </trkpt>
      <trkpt lat="48.37483" lon="2.77553">
        <ele>102.8</ele>
        <time>2018-04-15T18:10:45Z</time>
      </trkpt>
      <trkpt lat="48.37483" lon="2.77561">
        <ele>102.8</ele>
        <time>2018-04-15T18:10:46Z</time>
      </trkpt>
      <trkpt lat="48.37484" lon="2.7757">
        <ele>102.8</ele>
        <time>2018-04-15T18:10:47Z</time>
      </trkpt>
      <trkpt lat="48.37484" lon="2.77578">
        <ele>102.8</ele>
        <time>2018-04-15T18:10:48Z</time>
      </trkpt>
      <trkpt lat="48.37484" lon="2.77586">
        <ele>102.7</ele>
        <time>2018-04-15T18:10:49Z</time>
      </trkpt>
      <trkpt lat="48.37485" lon="2.77593">
        <ele>102.7</ele>
        <time>2018-04-15T18:10:50Z</time>
      </trkpt>
      <trkpt lat="48.37486" lon="2.77602">
        <ele>102.7</ele>
        <time>2018-04-15T18:10:51Z</time>
      </trkpt>
      <trkpt lat="48.37486" lon="2.77611">
        <ele>102.6</ele>
        <time>2018-04-15T18:10:52Z</time>
      </trkpt>
      <trkpt lat="48.37487" lon="2.77621">
        <ele>102.6</ele>
        <time>2018-04-15T18:10:53Z</time>
      </trkpt>
      <trkpt lat="48.37488" lon="2.77629">
        <ele>102.5</ele>
        <time>2018-04-15T18:10:54Z</time>
      </trkpt>
      <trkpt lat="48.37489" lon="2.77638">
        <ele>102.5</ele>
        <time>2018-04-15T18:10:55Z</time>
      </trkpt>
      <trkpt lat="48.37489" lon="2.77647">
        <ele>102.4</ele>
        <time>2018-04-15T18:10:56Z</time>
      </trkpt>
      <trkpt lat="48.3749" lon="2.77657">
        <ele>102.3</ele>
        <time>2018-04-15T18:10:57Z</time>
      </trkpt>
      <trkpt lat="48.37491" lon="2.77667">
        <ele>102.2</ele>
        <time>2018-04-15T18:10:58Z</time>
      </trkpt>
      <trkpt lat="48.37493" lon="2.77676">
        <ele>102.2</ele>
        <time>2018-04-15T18:10:59Z</time>
      </trkpt>
      <trkpt lat="48.37495" lon="2.77685">
        <ele>102.1</ele>
        <time>2018-04-15T18:11:00Z</time>
      </trkpt>
      <trkpt lat="48.37496" lon="2.77695">
        <ele>102.1</ele>
        <time>2018-04-15T18:11:01Z</time>
      </trkpt>
      <trkpt lat="48.37495" lon="2.77704">
        <ele>102</ele>
        <time>2018-04-15T18:11:02Z</time>
      </trkpt>
      <trkpt lat="48.37495" lon="2.77711">
        <ele>102</ele>
        <time>2018-04-15T18:11:03Z</time>
      </trkpt>
      <trkpt lat="48.37494" lon="2.77719">
        <ele>102</ele>
        <time>2018-04-15T18:11:04Z</time>
      </trkpt>
      <trkpt lat="48.37493" lon="2.77727">
        <ele>101.9</ele>
        <time>2018-04-15T18:11:05Z</time>
      </trkpt>
      <trkpt lat="48.37492" lon="2.77735">
        <ele>101.8</ele>
        <time>2018-04-15T18:11:06Z</time>
      </trkpt>
      <trkpt lat="48.37491" lon="2.77743">
        <ele>101.6</ele>
        <time>2018-04-15T18:11:07Z</time>
      </trkpt>
      <trkpt lat="48.37489" lon="2.77751">
        <ele>101.5</ele>
        <time>2018-04-15T18:11:08Z</time>
      </trkpt>
      <trkpt lat="48.37488" lon="2.77759">
        <ele>101.4</ele>
        <time>2018-04-15T18:11:09Z</time>
      </trkpt>
      <trkpt lat="48.37486" lon="2.77767">
        <ele>101.3</ele>
        <time>2018-04-15T18:11:10Z</time>
      </trkpt>
      <trkpt lat="48.37484" lon="2.77775">
        <ele>101.2</ele>
        <time>2018-04-15T18:11:11Z</time>
      </trkpt>
      <trkpt lat="48.37481" lon="2.77783">
        <ele>101.1</ele>
        <time>2018-04-15T18:11:12Z</time>
      </trkpt>
      <trkpt lat="48.37479" lon="2.7779">
        <ele>101</ele>
        <time>2018-04-15T18:11:13Z</time>
      </trkpt>
      <trkpt lat="48.37478" lon="2.77797">
        <ele>101</ele>
        <time>2018-04-15T18:11:14Z</time>
      </trkpt>
      <trkpt lat="48.37475" lon="2.77804">
        <ele>101</ele>
        <time>2018-04-15T18:11:15Z</time>
      </trkpt>
      <trkpt lat="48.37473" lon="2.77811">
        <ele>100.9</ele>
        <time>2018-04-15T18:11:16Z</time>
      </trkpt>
      <trkpt lat="48.37471" lon="2.7782">
        <ele>100.9</ele>
        <time>2018-04-15T18:11:17Z</time>
      </trkpt>
      <trkpt lat="48.37468" lon="2.77827">
        <ele>100.9</ele>
        <time>2018-04-15T18:11:18Z</time>
      </trkpt>
      <trkpt lat="48.37467" lon="2.77833">
        <ele>100.9</ele>
        <time>2018-04-15T18:11:19Z</time>
      </trkpt>
      <trkpt lat="48.37464" lon="2.77841">
        <ele>100.9</ele>
        <time>2018-04-15T18:11:20Z</time>
      </trkpt>
      <trkpt lat="48.37461" lon="2.77849">
        <ele>100.9</ele>
        <time>2018-04-15T18:11:21Z</time>
      </trkpt>
      <trkpt lat="48.37459" lon="2.77856">
        <ele>100.9</ele>
        <time>2018-04-15T18:11:22Z</time>
      </trkpt>
      <trkpt lat="48.37456" lon="2.77863">
        <ele>100.9</ele>
        <time>2018-04-15T18:11:23Z</time>
      </trkpt>
      <trkpt lat="48.37452" lon="2.77871">
        <ele>100.9</ele>
        <time>2018-04-15T18:11:24Z</time>
      </trkpt>
      <trkpt lat="48.3745" lon="2.77881">
        <ele>101</ele>
        <time>2018-04-15T18:11:25Z</time>
      </trkpt>
      <trkpt lat="48.37447" lon="2.7789">
        <ele>101.1</ele>
        <time>2018-04-15T18:11:26Z</time>
      </trkpt>
      <trkpt lat="48.37444" lon="2.77897">
        <ele>101.1</ele>
        <time>2018-04-15T18:11:27Z</time>
      </trkpt>
      <trkpt lat="48.37441" lon="2.77904">
        <ele>101.2</ele>
        <time>2018-04-15T18:11:28Z</time>
      </trkpt>
      <trkpt lat="48.37438" lon="2.77912">
        <ele>101.2</ele>
        <time>2018-04-15T18:11:29Z</time>
      </trkpt>
      <trkpt lat="48.37436" lon="2.77918">
        <ele>101.2</ele>
        <time>2018-04-15T18:11:30Z</time>
      </trkpt>
      <trkpt lat="48.37433" lon="2.77925">
        <ele>101.3</ele>
        <time>2018-04-15T18:11:31Z</time>
      </trkpt>
      <trkpt lat="48.37431" lon="2.77933">
        <ele>101.3</ele>
        <time>2018-04-15T18:11:32Z</time>
      </trkpt>
      <trkpt lat="48.37428" lon="2.7794">
        <ele>101.3</ele>
        <time>2018-04-15T18:11:33Z</time>
      </trkpt>
      <trkpt lat="48.37426" lon="2.77948">
        <ele>101.3</ele>
        <time>2018-04-15T18:11:34Z</time>
      </trkpt>
      <trkpt lat="48.37423" lon="2.77956">
        <ele>101.3</ele>
        <time>2018-04-15T18:11:35Z</time>
      </trkpt>
      <trkpt lat="48.37421" lon="2.77964">
        <ele>101.2</ele>
        <time>2018-04-15T18:11:36Z</time>
      </trkpt>
      <trkpt lat="48.37418" lon="2.77972">
        <ele>101.2</ele>
        <time>2018-04-15T18:11:37Z</time>
      </trkpt>
      <trkpt lat="48.37416" lon="2.77979">
        <ele>101.1</ele>
        <time>2018-04-15T18:11:38Z</time>
      </trkpt>
      <trkpt lat="48.37413" lon="2.77986">
        <ele>101.1</ele>
        <time>2018-04-15T18:11:39Z</time>
      </trkpt>
      <trkpt lat="48.37411" lon="2.77992">
        <ele>101</ele>
        <time>2018-04-15T18:11:40Z</time>
      </trkpt>
      <trkpt lat="48.37408" lon="2.78001">
        <ele>101</ele>
        <time>2018-04-15T18:11:41Z</time>
      </trkpt>
      <trkpt lat="48.37405" lon="2.78008">
        <ele>101</ele>
        <time>2018-04-15T18:11:42Z</time>
      </trkpt>
      <trkpt lat="48.37403" lon="2.78016">
        <ele>101</ele>
        <time>2018-04-15T18:11:43Z</time>
      </trkpt>
      <trkpt lat="48.374" lon="2.78025">
        <ele>101</ele>
        <time>2018-04-15T18:11:44Z</time>
      </trkpt>
      <trkpt lat="48.37398" lon="2.78033">
        <ele>101</ele>
        <time>2018-04-15T18:11:45Z</time>
      </trkpt>
      <trkpt lat="48.37395" lon="2.78042">
        <ele>101.1</ele>
        <time>2018-04-15T18:11:46Z</time>
      </trkpt>
      <trkpt lat="48.37392" lon="2.78051">
        <ele>101</ele>
        <time>2018-04-15T18:11:47Z</time>
      </trkpt>
      <trkpt lat="48.3739" lon="2.78058">
        <ele>101</ele>
        <time>2018-04-15T18:11:48Z</time>
      </trkpt>
      <trkpt lat="48.37388" lon="2.78065">
        <ele>101</ele>
        <time>2018-04-15T18:11:49Z</time>
      </trkpt>
      <trkpt lat="48.37385" lon="2.78072">
        <ele>100.9</ele>
        <time>2018-04-15T18:11:50Z</time>
      </trkpt>
      <trkpt lat="48.37383" lon="2.7808">
        <ele>100.9</ele>
        <time>2018-04-15T18:11:51Z</time>
      </trkpt>
      <trkpt lat="48.3738" lon="2.78087">
        <ele>101</ele>
        <time>2018-04-15T18:11:52Z</time>
      </trkpt>
      <trkpt lat="48.37378" lon="2.78095">
        <ele>101</ele>
        <time>2018-04-15T18:11:53Z</time>
      </trkpt>
      <trkpt lat="48.37376" lon="2.78102">
        <ele>101</ele>
        <time>2018-04-15T18:11:54Z</time>
      </trkpt>
      <trkpt lat="48.37374" lon="2.78108">
        <ele>101</ele>
        <time>2018-04-15T18:11:55Z</time>
      </trkpt>
      <trkpt lat="48.37372" lon="2.78114">
        <ele>101</ele>
        <time>2018-04-15T18:11:56Z</time>
      </trkpt>
      <trkpt lat="48.37371" lon="2.7812">
        <ele>101</ele>
        <time>2018-04-15T18:11:57Z</time>
      </trkpt>
      <trkpt lat="48.37369" lon="2.78125">
        <ele>101</ele>
        <time>2018-04-15T18:11:58Z</time>
      </trkpt>
      <trkpt lat="48.37367" lon="2.78129">
        <ele>101</ele>
        <time>2018-04-15T18:11:59Z</time>
      </trkpt>
      <trkpt lat="48.37365" lon="2.78135">
        <ele>101</ele>
        <time>2018-04-15T18:12:00Z</time>
      </trkpt>
      <trkpt lat="48.37364" lon="2.7814">
        <ele>101</ele>
        <time>2018-04-15T18:12:01Z</time>
      </trkpt>
      <trkpt lat="48.37362" lon="2.78146">
        <ele>101</ele>
        <time>2018-04-15T18:12:02Z</time>
      </trkpt>
      <trkpt lat="48.3736" lon="2.78153">
        <ele>101.1</ele>
        <time>2018-04-15T18:12:03Z</time>
      </trkpt>
      <trkpt lat="48.37358" lon="2.78159">
        <ele>101.2</ele>
        <time>2018-04-15T18:12:04Z</time>
      </trkpt>
      <trkpt lat="48.37358" lon="2.78163">
        <ele>101.3</ele>
        <time>2018-04-15T18:12:05Z</time>
      </trkpt>
      <trkpt lat="48.37357" lon="2.78168">
        <ele>101.4</ele>
        <time>2018-04-15T18:12:06Z</time>
      </trkpt>
      <trkpt lat="48.37355" lon="2.78173">
        <ele>101.5</ele>
        <time>2018-04-15T18:12:07Z</time>
      </trkpt>
      <trkpt lat="48.37354" lon="2.78178">
        <ele>101.6</ele>
        <time>2018-04-15T18:12:08Z</time>
      </trkpt>
      <trkpt lat="48.37353" lon="2.78183">
        <ele>101.7</ele>
        <time>2018-04-15T18:12:09Z</time>
      </trkpt>
      <trkpt lat="48.37352" lon="2.78187">
        <ele>101.8</ele>
        <time>2018-04-15T18:12:10Z</time>
      </trkpt>
      <trkpt lat="48.37351" lon="2.78194">
        <ele>102</ele>
        <time>2018-04-15T18:12:11Z</time>
      </trkpt>
      <trkpt lat="48.37349" lon="2.78201">
        <ele>101.8</ele>
        <time>2018-04-15T18:12:12Z</time>
      </trkpt>
      <trkpt lat="48.37348" lon="2.78208">
        <ele>101.7</ele>
        <time>2018-04-15T18:12:13Z</time>
      </trkpt>
      <trkpt lat="48.37347" lon="2.78214">
        <ele>101.6</ele>
        <time>2018-04-15T18:12:14Z</time>
      </trkpt>
      <trkpt lat="48.37347" lon="2.78219">
        <ele>101.5</ele>
        <time>2018-04-15T18:12:15Z</time>
      </trkpt>
      <trkpt lat="48.37346" lon="2.78225">
        <ele>101.4</ele>
        <time>2018-04-15T18:12:16Z</time>
      </trkpt>
      <trkpt lat="48.37346" lon="2.78232">
        <ele>101.1</ele>
        <time>2018-04-15T18:12:17Z</time>
      </trkpt>
      <trkpt lat="48.37345" lon="2.7824">
        <ele>100.8</ele>
        <time>2018-04-15T18:12:18Z</time>
      </trkpt>
      <trkpt lat="48.37344" lon="2.78247">
        <ele>100.4</ele>
        <time>2018-04-15T18:12:19Z</time>
      </trkpt>
      <trkpt lat="48.37343" lon="2.78255">
        <ele>100</ele>
        <time>2018-04-15T18:12:20Z</time>
      </trkpt>
      <trkpt lat="48.37341" lon="2.78264">
        <ele>99.7</ele>
        <time>2018-04-15T18:12:21Z</time>
      </trkpt>
      <trkpt lat="48.37339" lon="2.78273">
        <ele>99.5</ele>
        <time>2018-04-15T18:12:22Z</time>
      </trkpt>
      <trkpt lat="48.37338" lon="2.78283">
        <ele>99.3</ele>
        <time>2018-04-15T18:12:23Z</time>
      </trkpt>
      <trkpt lat="48.37336" lon="2.78292">
        <ele>99.2</ele>
        <time>2018-04-15T18:12:24Z</time>
      </trkpt>
      <trkpt lat="48.37334" lon="2.78303">
        <ele>99.1</ele>
        <time>2018-04-15T18:12:25Z</time>
      </trkpt>
      <trkpt lat="48.37333" lon="2.78314">
        <ele>99.1</ele>
        <time>2018-04-15T18:12:26Z</time>
      </trkpt>
      <trkpt lat="48.37332" lon="2.78326">
        <ele>99</ele>
        <time>2018-04-15T18:12:27Z</time>
      </trkpt>
      <trkpt lat="48.37331" lon="2.78337">
        <ele>98.9</ele>
        <time>2018-04-15T18:12:28Z</time>
      </trkpt>
      <trkpt lat="48.3733" lon="2.78347">
        <ele>98.8</ele>
        <time>2018-04-15T18:12:29Z</time>
      </trkpt>
      <trkpt lat="48.37329" lon="2.78356">
        <ele>98.8</ele>
        <time>2018-04-15T18:12:30Z</time>
      </trkpt>
      <trkpt lat="48.37328" lon="2.78365">
        <ele>98.7</ele>
        <time>2018-04-15T18:12:31Z</time>
      </trkpt>
      <trkpt lat="48.37326" lon="2.78375">
        <ele>98.7</ele>
        <time>2018-04-15T18:12:32Z</time>
      </trkpt>
      <trkpt lat="48.37324" lon="2.78386">
        <ele>98.6</ele>
        <time>2018-04-15T18:12:33Z</time>
      </trkpt>
      <trkpt lat="48.37323" lon="2.78395">
        <ele>98.6</ele>
        <time>2018-04-15T18:12:34Z</time>
      </trkpt>
      <trkpt lat="48.37323" lon="2.78405">
        <ele>98.5</ele>
        <time>2018-04-15T18:12:35Z</time>
      </trkpt>
      <trkpt lat="48.37322" lon="2.78415">
        <ele>98.5</ele>
        <time>2018-04-15T18:12:36Z</time>
      </trkpt>
      <trkpt lat="48.37321" lon="2.78426">
        <ele>98.5</ele>
        <time>2018-04-15T18:12:37Z</time>
      </trkpt>
      <trkpt lat="48.37319" lon="2.78435">
        <ele>98.4</ele>
        <time>2018-04-15T18:12:38Z</time>
      </trkpt>
      <trkpt lat="48.37318" lon="2.78446">
        <ele>98.4</ele>
        <time>2018-04-15T18:12:39Z</time>
      </trkpt>
      <trkpt lat="48.37317" lon="2.78455">
        <ele>98.3</ele>
        <time>2018-04-15T18:12:40Z</time>
      </trkpt>
      <trkpt lat="48.37316" lon="2.78464">
        <ele>98.3</ele>
        <time>2018-04-15T18:12:41Z</time>
      </trkpt>
      <trkpt lat="48.37314" lon="2.78473">
        <ele>98.3</ele>
        <time>2018-04-15T18:12:42Z</time>
      </trkpt>
      <trkpt lat="48.37313" lon="2.7848">
        <ele>98.3</ele>
        <time>2018-04-15T18:12:43Z</time>
      </trkpt>
      <trkpt lat="48.37312" lon="2.78491">
        <ele>98.2</ele>
        <time>2018-04-15T18:12:44Z</time>
      </trkpt>
      <trkpt lat="48.37311" lon="2.785">
        <ele>98.2</ele>
        <time>2018-04-15T18:12:45Z</time>
      </trkpt>
      <trkpt lat="48.37309" lon="2.78508">
        <ele>98.2</ele>
        <time>2018-04-15T18:12:46Z</time>
      </trkpt>
      <trkpt lat="48.37307" lon="2.78516">
        <ele>98.1</ele>
        <time>2018-04-15T18:12:47Z</time>
      </trkpt>
      <trkpt lat="48.37305" lon="2.78525">
        <ele>98.1</ele>
        <time>2018-04-15T18:12:48Z</time>
      </trkpt>
      <trkpt lat="48.37304" lon="2.78535">
        <ele>98.1</ele>
        <time>2018-04-15T18:12:49Z</time>
      </trkpt>
      <trkpt lat="48.37302" lon="2.78543">
        <ele>98.2</ele>
        <time>2018-04-15T18:12:50Z</time>
      </trkpt>
      <trkpt lat="48.37302" lon="2.78551">
        <ele>98.4</ele>
        <time>2018-04-15T18:12:51Z</time>
      </trkpt>
      <trkpt lat="48.37303" lon="2.78559">
        <ele>98.6</ele>
        <time>2018-04-15T18:12:52Z</time>
      </trkpt>
      <trkpt lat="48.37304" lon="2.78565">
        <ele>98.9</ele>
        <time>2018-04-15T18:12:53Z</time>
      </trkpt>
      <trkpt lat="48.37305" lon="2.78574">
        <ele>99.1</ele>
        <time>2018-04-15T18:12:54Z</time>
      </trkpt>
      <trkpt lat="48.37307" lon="2.78583">
        <ele>99.3</ele>
        <time>2018-04-15T18:12:55Z</time>
      </trkpt>
      <trkpt lat="48.37308" lon="2.78591">
        <ele>99.4</ele>
        <time>2018-04-15T18:12:56Z</time>
      </trkpt>
      <trkpt lat="48.3731" lon="2.78599">
        <ele>99.5</ele>
        <time>2018-04-15T18:12:57Z</time>
      </trkpt>
      <trkpt lat="48.37312" lon="2.78607">
        <ele>99.6</ele>
        <time>2018-04-15T18:12:58Z</time>
      </trkpt>
      <trkpt lat="48.37315" lon="2.78615">
        <ele>99.7</ele>
        <time>2018-04-15T18:12:59Z</time>
      </trkpt>
      <trkpt lat="48.37316" lon="2.78623">
        <ele>99.8</ele>
        <time>2018-04-15T18:13:00Z</time>
      </trkpt>
      <trkpt lat="48.37317" lon="2.78631">
        <ele>99.9</ele>
        <time>2018-04-15T18:13:01Z</time>
      </trkpt>
      <trkpt lat="48.37319" lon="2.78639">
        <ele>100</ele>
        <time>2018-04-15T18:13:02Z</time>
      </trkpt>
      <trkpt lat="48.37321" lon="2.78647">
        <ele>99.9</ele>
        <time>2018-04-15T18:13:03Z</time>
      </trkpt>
      <trkpt lat="48.37322" lon="2.78654">
        <ele>99.8</ele>
        <time>2018-04-15T18:13:04Z</time>
      </trkpt>
      <trkpt lat="48.37324" lon="2.7866">
        <ele>99.8</ele>
        <time>2018-04-15T18:13:05Z</time>
      </trkpt>
      <trkpt lat="48.37325" lon="2.78665">
        <ele>99.7</ele>
        <time>2018-04-15T18:13:06Z</time>
      </trkpt>
      <trkpt lat="48.37326" lon="2.7867">
        <ele>99.7</ele>
        <time>2018-04-15T18:13:07Z</time>
      </trkpt>
      <trkpt lat="48.37328" lon="2.78675">
        <ele>99.6</ele>
        <time>2018-04-15T18:13:08Z</time>
      </trkpt>
      <trkpt lat="48.37331" lon="2.78681">
        <ele>99.5</ele>
        <time>2018-04-15T18:13:09Z</time>
      </trkpt>
      <trkpt lat="48.37333" lon="2.78688">
        <ele>99.5</ele>
        <time>2018-04-15T18:13:10Z</time>
      </trkpt>
      <trkpt lat="48.37335" lon="2.78692">
        <ele>99.4</ele>
        <time>2018-04-15T18:13:11Z</time>
      </trkpt>
      <trkpt lat="48.37336" lon="2.78697">
        <ele>99.4</ele>
        <time>2018-04-15T18:13:12Z</time>
      </trkpt>
      <trkpt lat="48.37337" lon="2.78702">
        <ele>99.3</ele>
        <time>2018-04-15T18:13:13Z</time>
      </trkpt>
      <trkpt lat="48.37339" lon="2.78707">
        <ele>99.3</ele>
        <time>2018-04-15T18:13:14Z</time>
      </trkpt>
      <trkpt lat="48.37341" lon="2.78712">
        <ele>99.2</ele>
        <time>2018-04-15T18:13:15Z</time>
      </trkpt>
      <trkpt lat="48.37343" lon="2.78717">
        <ele>99.2</ele>
        <time>2018-04-15T18:13:16Z</time>
      </trkpt>
      <trkpt lat="48.37344" lon="2.78721">
        <ele>99.2</ele>
        <time>2018-04-15T18:13:17Z</time>
      </trkpt>
      <trkpt lat="48.37346" lon="2.78725">
        <ele>99.1</ele>
        <time>2018-04-15T18:13:18Z</time>
      </trkpt>
      <trkpt lat="48.37349" lon="2.78732">
        <ele>99</ele>
        <time>2018-04-15T18:13:19Z</time>
      </trkpt>
      <trkpt lat="48.3735" lon="2.78737">
        <ele>99</ele>
        <time>2018-04-15T18:13:20Z</time>
      </trkpt>
      <trkpt lat="48.37351" lon="2.78744">
        <ele>99</ele>
        <time>2018-04-15T18:13:22Z</time>
      </trkpt>
      <trkpt lat="48.37351" lon="2.78749">
        <ele>98.4</ele>
        <time>2018-04-15T18:13:25Z</time>
      </trkpt>
      <trkpt lat="48.37349" lon="2.78754">
        <ele>97.8</ele>
        <time>2018-04-15T18:13:28Z</time>
      </trkpt>
      <trkpt lat="48.37353" lon="2.78765">
        <ele>96.1</ele>
        <time>2018-04-15T18:13:35Z</time>
      </trkpt>
      <trkpt lat="48.37353" lon="2.78772">
        <ele>95</ele>
        <time>2018-04-15T18:13:38Z</time>
      </trkpt>
      <trkpt lat="48.37351" lon="2.78775">
        <ele>95</ele>
        <time>2018-04-15T18:13:40Z</time>
      </trkpt>
      <trkpt lat="48.3735" lon="2.7878">
        <ele>95</ele>
        <time>2018-04-15T18:13:43Z</time>
      </trkpt>
      <trkpt lat="48.37353" lon="2.78781">
        <ele>95</ele>
        <time>2018-04-15T18:13:52Z</time>
      </trkpt>
      <trkpt lat="48.37355" lon="2.78785">
        <ele>95.1</ele>
        <time>2018-04-15T18:14:33Z</time>
      </trkpt>
      <trkpt lat="48.37355" lon="2.78791">
        <ele>95.1</ele>
        <time>2018-04-15T18:14:37Z</time>
      </trkpt>
      <trkpt lat="48.37355" lon="2.78796">
        <ele>95.2</ele>
        <time>2018-04-15T18:14:39Z</time>
      </trkpt>
      <trkpt lat="48.37354" lon="2.78801">
        <ele>95.2</ele>
        <time>2018-04-15T18:14:41Z</time>
      </trkpt>
      <trkpt lat="48.37352" lon="2.78806">
        <ele>95.4</ele>
        <time>2018-04-15T18:14:43Z</time>
      </trkpt>
      <trkpt lat="48.3735" lon="2.78811">
        <ele>95.5</ele>
        <time>2018-04-15T18:14:45Z</time>
      </trkpt>
      <trkpt lat="48.37348" lon="2.78815">
        <ele>95.6</ele>
        <time>2018-04-15T18:14:47Z</time>
      </trkpt>
      <trkpt lat="48.37346" lon="2.78818">
        <ele>95.7</ele>
        <time>2018-04-15T18:14:49Z</time>
      </trkpt>
      <trkpt lat="48.37344" lon="2.78822">
        <ele>95.9</ele>
        <time>2018-04-15T18:14:51Z</time>
      </trkpt>
      <trkpt lat="48.3734" lon="2.78827">
        <ele>96</ele>
        <time>2018-04-15T18:14:53Z</time>
      </trkpt>
      <trkpt lat="48.37338" lon="2.7883">
        <ele>96.1</ele>
        <time>2018-04-15T18:14:54Z</time>
      </trkpt>
      <trkpt lat="48.37335" lon="2.78835">
        <ele>96.2</ele>
        <time>2018-04-15T18:14:56Z</time>
      </trkpt>
      <trkpt lat="48.37331" lon="2.78841">
        <ele>96.3</ele>
        <time>2018-04-15T18:14:58Z</time>
      </trkpt>
      <trkpt lat="48.37329" lon="2.78845">
        <ele>96.4</ele>
        <time>2018-04-15T18:14:59Z</time>
      </trkpt>
      <trkpt lat="48.37325" lon="2.7885">
        <ele>96.5</ele>
        <time>2018-04-15T18:15:00Z</time>
      </trkpt>
      <trkpt lat="48.37323" lon="2.78853">
        <ele>96.6</ele>
        <time>2018-04-15T18:15:01Z</time>
      </trkpt>
      <trkpt lat="48.3732" lon="2.78856">
        <ele>96.8</ele>
        <time>2018-04-15T18:15:02Z</time>
      </trkpt>
      <trkpt lat="48.37317" lon="2.7886">
        <ele>97</ele>
        <time>2018-04-15T18:15:03Z</time>
      </trkpt>
      <trkpt lat="48.37314" lon="2.78862">
        <ele>97.1</ele>
        <time>2018-04-15T18:15:04Z</time>
      </trkpt>
      <trkpt lat="48.37311" lon="2.78865">
        <ele>97.3</ele>
        <time>2018-04-15T18:15:05Z</time>
      </trkpt>
      <trkpt lat="48.37309" lon="2.78867">
        <ele>97.4</ele>
        <time>2018-04-15T18:15:06Z</time>
      </trkpt>
      <trkpt lat="48.37306" lon="2.7887">
        <ele>97.6</ele>
        <time>2018-04-15T18:15:07Z</time>
      </trkpt>
      <trkpt lat="48.37304" lon="2.78873">
        <ele>97.7</ele>
        <time>2018-04-15T18:15:08Z</time>
      </trkpt>
      <trkpt lat="48.37302" lon="2.78876">
        <ele>97.9</ele>
        <time>2018-04-15T18:15:09Z</time>
      </trkpt>
      <trkpt lat="48.37299" lon="2.78881">
        <ele>98</ele>
        <time>2018-04-15T18:15:10Z</time>
      </trkpt>
      <trkpt lat="48.37296" lon="2.78887">
        <ele>98.3</ele>
        <time>2018-04-15T18:15:12Z</time>
      </trkpt>
      <trkpt lat="48.37295" lon="2.7889">
        <ele>98.5</ele>
        <time>2018-04-15T18:15:13Z</time>
      </trkpt>
      <trkpt lat="48.37293" lon="2.78893">
        <ele>98.6</ele>
        <time>2018-04-15T18:15:14Z</time>
      </trkpt>
      <trkpt lat="48.37289" lon="2.78899">
        <ele>98.9</ele>
        <time>2018-04-15T18:15:16Z</time>
      </trkpt>
      <trkpt lat="48.37286" lon="2.78904">
        <ele>99.2</ele>
        <time>2018-04-15T18:15:17Z</time>
      </trkpt>
      <trkpt lat="48.37283" lon="2.78909">
        <ele>99.4</ele>
        <time>2018-04-15T18:15:18Z</time>
      </trkpt>
      <trkpt lat="48.37278" lon="2.78915">
        <ele>99.7</ele>
        <time>2018-04-15T18:15:19Z</time>
      </trkpt>
      <trkpt lat="48.37274" lon="2.7892">
        <ele>99.8</ele>
        <time>2018-04-15T18:15:20Z</time>
      </trkpt>
      <trkpt lat="48.37271" lon="2.78924">
        <ele>99.9</ele>
        <time>2018-04-15T18:15:21Z</time>
      </trkpt>
      <trkpt lat="48.37268" lon="2.78929">
        <ele>100</ele>
        <time>2018-04-15T18:15:22Z</time>
      </trkpt>
      <trkpt lat="48.37266" lon="2.78933">
        <ele>100.1</ele>
        <time>2018-04-15T18:15:23Z</time>
      </trkpt>
      <trkpt lat="48.37263" lon="2.78937">
        <ele>100.2</ele>
        <time>2018-04-15T18:15:24Z</time>
      </trkpt>
      <trkpt lat="48.3726" lon="2.7894">
        <ele>100.3</ele>
        <time>2018-04-15T18:15:25Z</time>
      </trkpt>
      <trkpt lat="48.37257" lon="2.78946">
        <ele>100.4</ele>
        <time>2018-04-15T18:15:26Z</time>
      </trkpt>
      <trkpt lat="48.37254" lon="2.7895">
        <ele>100.5</ele>
        <time>2018-04-15T18:15:27Z</time>
      </trkpt>
      <trkpt lat="48.37251" lon="2.78954">
        <ele>100.5</ele>
        <time>2018-04-15T18:15:28Z</time>
      </trkpt>
      <trkpt lat="48.37248" lon="2.78959">
        <ele>100.6</ele>
        <time>2018-04-15T18:15:29Z</time>
      </trkpt>
      <trkpt lat="48.37245" lon="2.78964">
        <ele>100.6</ele>
        <time>2018-04-15T18:15:30Z</time>
      </trkpt>
      <trkpt lat="48.37242" lon="2.78969">
        <ele>100.8</ele>
        <time>2018-04-15T18:15:31Z</time>
      </trkpt>
      <trkpt lat="48.37238" lon="2.78973">
        <ele>100.9</ele>
        <time>2018-04-15T18:15:32Z</time>
      </trkpt>
      <trkpt lat="48.37236" lon="2.78977">
        <ele>101</ele>
        <time>2018-04-15T18:15:33Z</time>
      </trkpt>
      <trkpt lat="48.37233" lon="2.78983">
        <ele>101.2</ele>
        <time>2018-04-15T18:15:34Z</time>
      </trkpt>
      <trkpt lat="48.3723" lon="2.78988">
        <ele>101.3</ele>
        <time>2018-04-15T18:15:35Z</time>
      </trkpt>
      <trkpt lat="48.37227" lon="2.78994">
        <ele>101.5</ele>
        <time>2018-04-15T18:15:36Z</time>
      </trkpt>
      <trkpt lat="48.37223" lon="2.78998">
        <ele>101.6</ele>
        <time>2018-04-15T18:15:37Z</time>
      </trkpt>
      <trkpt lat="48.37221" lon="2.79">
        <ele>101.7</ele>
        <time>2018-04-15T18:15:38Z</time>
      </trkpt>
      <trkpt lat="48.37218" lon="2.79004">
        <ele>101.8</ele>
        <time>2018-04-15T18:15:39Z</time>
      </trkpt>
      <trkpt lat="48.37214" lon="2.79009">
        <ele>101.9</ele>
        <time>2018-04-15T18:15:40Z</time>
      </trkpt>
      <trkpt lat="48.37212" lon="2.79013">
        <ele>102</ele>
        <time>2018-04-15T18:15:41Z</time>
      </trkpt>
      <trkpt lat="48.3721" lon="2.79018">
        <ele>102</ele>
        <time>2018-04-15T18:15:42Z</time>
      </trkpt>
      <trkpt lat="48.37208" lon="2.79022">
        <ele>102</ele>
        <time>2018-04-15T18:15:43Z</time>
      </trkpt>
      <trkpt lat="48.37205" lon="2.79027">
        <ele>102</ele>
        <time>2018-04-15T18:15:44Z</time>
      </trkpt>
      <trkpt lat="48.37201" lon="2.79033">
        <ele>102.1</ele>
        <time>2018-04-15T18:15:45Z</time>
      </trkpt>
      <trkpt lat="48.37198" lon="2.79038">
        <ele>102.2</ele>
        <time>2018-04-15T18:15:46Z</time>
      </trkpt>
      <trkpt lat="48.37194" lon="2.79043">
        <ele>102.3</ele>
        <time>2018-04-15T18:15:47Z</time>
      </trkpt>
      <trkpt lat="48.37191" lon="2.79047">
        <ele>102.5</ele>
        <time>2018-04-15T18:15:48Z</time>
      </trkpt>
      <trkpt lat="48.37188" lon="2.79053">
        <ele>102.6</ele>
        <time>2018-04-15T18:15:49Z</time>
      </trkpt>
      <trkpt lat="48.37185" lon="2.79057">
        <ele>102.7</ele>
        <time>2018-04-15T18:15:50Z</time>
      </trkpt>
      <trkpt lat="48.37182" lon="2.79061">
        <ele>102.8</ele>
        <time>2018-04-15T18:15:51Z</time>
      </trkpt>
      <trkpt lat="48.37179" lon="2.79066">
        <ele>103</ele>
        <time>2018-04-15T18:15:52Z</time>
      </trkpt>
      <trkpt lat="48.37176" lon="2.7907">
        <ele>103.1</ele>
        <time>2018-04-15T18:15:53Z</time>
      </trkpt>
      <trkpt lat="48.37172" lon="2.79074">
        <ele>103.2</ele>
        <time>2018-04-15T18:15:54Z</time>
      </trkpt>
      <trkpt lat="48.37169" lon="2.79079">
        <ele>103.3</ele>
        <time>2018-04-15T18:15:55Z</time>
      </trkpt>
      <trkpt lat="48.37165" lon="2.79085">
        <ele>103.4</ele>
        <time>2018-04-15T18:15:56Z</time>
      </trkpt>
      <trkpt lat="48.37162" lon="2.79088">
        <ele>103.4</ele>
        <time>2018-04-15T18:15:57Z</time>
      </trkpt>
      <trkpt lat="48.37158" lon="2.79094">
        <ele>103.5</ele>
        <time>2018-04-15T18:15:58Z</time>
      </trkpt>
      <trkpt lat="48.37155" lon="2.791">
        <ele>103.4</ele>
        <time>2018-04-15T18:15:59Z</time>
      </trkpt>
      <trkpt lat="48.37151" lon="2.79105">
        <ele>103.4</ele>
        <time>2018-04-15T18:16:00Z</time>
      </trkpt>
      <trkpt lat="48.37148" lon="2.79113">
        <ele>103.2</ele>
        <time>2018-04-15T18:16:01Z</time>
      </trkpt>
      <trkpt lat="48.37144" lon="2.79122">
        <ele>103.1</ele>
        <time>2018-04-15T18:16:02Z</time>
      </trkpt>
      <trkpt lat="48.37142" lon="2.79128">
        <ele>103.1</ele>
        <time>2018-04-15T18:16:03Z</time>
      </trkpt>
      <trkpt lat="48.37139" lon="2.79132">
        <ele>102.9</ele>
        <time>2018-04-15T18:16:04Z</time>
      </trkpt>
      <trkpt lat="48.37134" lon="2.79137">
        <ele>102.8</ele>
        <time>2018-04-15T18:16:05Z</time>
      </trkpt>
      <trkpt lat="48.37132" lon="2.79141">
        <ele>102.6</ele>
        <time>2018-04-15T18:16:06Z</time>
      </trkpt>
      <trkpt lat="48.37129" lon="2.79145">
        <ele>102.5</ele>
        <time>2018-04-15T18:16:07Z</time>
      </trkpt>
      <trkpt lat="48.37126" lon="2.7915">
        <ele>102.3</ele>
        <time>2018-04-15T18:16:08Z</time>
      </trkpt>
      <trkpt lat="48.37122" lon="2.79156">
        <ele>102</ele>
        <time>2018-04-15T18:16:09Z</time>
      </trkpt>
      <trkpt lat="48.37118" lon="2.79161">
        <ele>101.8</ele>
        <time>2018-04-15T18:16:10Z</time>
      </trkpt>
      <trkpt lat="48.37115" lon="2.79166">
        <ele>101.6</ele>
        <time>2018-04-15T18:16:11Z</time>
      </trkpt>
      <trkpt lat="48.3711" lon="2.79173">
        <ele>101.4</ele>
        <time>2018-04-15T18:16:12Z</time>
      </trkpt>
      <trkpt lat="48.37106" lon="2.7918">
        <ele>101.2</ele>
        <time>2018-04-15T18:16:13Z</time>
      </trkpt>
      <trkpt lat="48.37103" lon="2.79186">
        <ele>101.1</ele>
        <time>2018-04-15T18:16:14Z</time>
      </trkpt>
      <trkpt lat="48.37101" lon="2.79192">
        <ele>101</ele>
        <time>2018-04-15T18:16:15Z</time>
      </trkpt>
      <trkpt lat="48.37098" lon="2.79201">
        <ele>101</ele>
        <time>2018-04-15T18:16:16Z</time>
      </trkpt>
      <trkpt lat="48.37096" lon="2.79209">
        <ele>100.7</ele>
        <time>2018-04-15T18:16:17Z</time>
      </trkpt>
      <trkpt lat="48.37093" lon="2.79217">
        <ele>100.4</ele>
        <time>2018-04-15T18:16:18Z</time>
      </trkpt>
      <trkpt lat="48.37091" lon="2.79223">
        <ele>100.3</ele>
        <time>2018-04-15T18:16:19Z</time>
      </trkpt>
      <trkpt lat="48.37089" lon="2.79229">
        <ele>100.1</ele>
        <time>2018-04-15T18:16:20Z</time>
      </trkpt>
      <trkpt lat="48.37087" lon="2.79235">
        <ele>100</ele>
        <time>2018-04-15T18:16:21Z</time>
      </trkpt>
      <trkpt lat="48.37087" lon="2.79241">
        <ele>99.9</ele>
        <time>2018-04-15T18:16:22Z</time>
      </trkpt>
      <trkpt lat="48.37086" lon="2.79245">
        <ele>99.8</ele>
        <time>2018-04-15T18:16:23Z</time>
      </trkpt>
      <trkpt lat="48.37085" lon="2.79251">
        <ele>99.6</ele>
        <time>2018-04-15T18:16:24Z</time>
      </trkpt>
      <trkpt lat="48.37084" lon="2.79257">
        <ele>99.5</ele>
        <time>2018-04-15T18:16:25Z</time>
      </trkpt>
      <trkpt lat="48.37083" lon="2.79263">
        <ele>99.4</ele>
        <time>2018-04-15T18:16:26Z</time>
      </trkpt>
      <trkpt lat="48.37081" lon="2.7927">
        <ele>99.3</ele>
        <time>2018-04-15T18:16:27Z</time>
      </trkpt>
      <trkpt lat="48.37079" lon="2.79275">
        <ele>99.3</ele>
        <time>2018-04-15T18:16:28Z</time>
      </trkpt>
      <trkpt lat="48.37078" lon="2.79279">
        <ele>99.1</ele>
        <time>2018-04-15T18:16:29Z</time>
      </trkpt>
      <trkpt lat="48.37077" lon="2.79286">
        <ele>99</ele>
        <time>2018-04-15T18:16:30Z</time>
      </trkpt>
      <trkpt lat="48.37075" lon="2.79291">
        <ele>99</ele>
        <time>2018-04-15T18:16:31Z</time>
      </trkpt>
      <trkpt lat="48.37073" lon="2.79298">
        <ele>98.9</ele>
        <time>2018-04-15T18:16:32Z</time>
      </trkpt>
      <trkpt lat="48.37071" lon="2.79303">
        <ele>98.8</ele>
        <time>2018-04-15T18:16:33Z</time>
      </trkpt>
      <trkpt lat="48.3707" lon="2.79312">
        <ele>98.8</ele>
        <time>2018-04-15T18:16:34Z</time>
      </trkpt>
      <trkpt lat="48.37069" lon="2.79319">
        <ele>99</ele>
        <time>2018-04-15T18:16:35Z</time>
      </trkpt>
      <trkpt lat="48.37068" lon="2.79328">
        <ele>99.1</ele>
        <time>2018-04-15T18:16:36Z</time>
      </trkpt>
      <trkpt lat="48.37066" lon="2.79336">
        <ele>99.2</ele>
        <time>2018-04-15T18:16:37Z</time>
      </trkpt>
      <trkpt lat="48.37063" lon="2.79344">
        <ele>99.2</ele>
        <time>2018-04-15T18:16:38Z</time>
      </trkpt>
      <trkpt lat="48.37061" lon="2.79352">
        <ele>99.1</ele>
        <time>2018-04-15T18:16:39Z</time>
      </trkpt>
      <trkpt lat="48.37059" lon="2.79358">
        <ele>99.1</ele>
        <time>2018-04-15T18:16:40Z</time>
      </trkpt>
      <trkpt lat="48.37057" lon="2.79365">
        <ele>99</ele>
        <time>2018-04-15T18:16:41Z</time>
      </trkpt>
      <trkpt lat="48.37055" lon="2.79371">
        <ele>99</ele>
        <time>2018-04-15T18:16:42Z</time>
      </trkpt>
      <trkpt lat="48.37053" lon="2.79376">
        <ele>99</ele>
        <time>2018-04-15T18:16:43Z</time>
      </trkpt>
      <trkpt lat="48.3705" lon="2.79382">
        <ele>98.9</ele>
        <time>2018-04-15T18:16:44Z</time>
      </trkpt>
      <trkpt lat="48.37047" lon="2.79387">
        <ele>98.8</ele>
        <time>2018-04-15T18:16:45Z</time>
      </trkpt>
      <trkpt lat="48.37045" lon="2.79393">
        <ele>98.7</ele>
        <time>2018-04-15T18:16:46Z</time>
      </trkpt>
      <trkpt lat="48.37041" lon="2.79399">
        <ele>98.4</ele>
        <time>2018-04-15T18:16:47Z</time>
      </trkpt>
      <trkpt lat="48.37037" lon="2.79405">
        <ele>98.2</ele>
        <time>2018-04-15T18:16:48Z</time>
      </trkpt>
      <trkpt lat="48.37034" lon="2.79412">
        <ele>97.9</ele>
        <time>2018-04-15T18:16:49Z</time>
      </trkpt>
      <trkpt lat="48.3703" lon="2.79419">
        <ele>97.7</ele>
        <time>2018-04-15T18:16:50Z</time>
      </trkpt>
      <trkpt lat="48.37028" lon="2.79426">
        <ele>97.5</ele>
        <time>2018-04-15T18:16:51Z</time>
      </trkpt>
      <trkpt lat="48.37025" lon="2.79435">
        <ele>97.3</ele>
        <time>2018-04-15T18:16:52Z</time>
      </trkpt>
      <trkpt lat="48.37022" lon="2.79443">
        <ele>97.1</ele>
        <time>2018-04-15T18:16:53Z</time>
      </trkpt>
      <trkpt lat="48.37019" lon="2.7945">
        <ele>97</ele>
        <time>2018-04-15T18:16:54Z</time>
      </trkpt>
      <trkpt lat="48.37015" lon="2.79455">
        <ele>96.9</ele>
        <time>2018-04-15T18:16:55Z</time>
      </trkpt>
      <trkpt lat="48.37011" lon="2.79464">
        <ele>96.8</ele>
        <time>2018-04-15T18:16:56Z</time>
      </trkpt>
      <trkpt lat="48.37006" lon="2.79471">
        <ele>96.8</ele>
        <time>2018-04-15T18:16:57Z</time>
      </trkpt>
      <trkpt lat="48.37003" lon="2.79477">
        <ele>96.8</ele>
        <time>2018-04-15T18:16:58Z</time>
      </trkpt>
      <trkpt lat="48.36999" lon="2.79483">
        <ele>96.8</ele>
        <time>2018-04-15T18:16:59Z</time>
      </trkpt>
      <trkpt lat="48.36995" lon="2.79489">
        <ele>96.9</ele>
        <time>2018-04-15T18:17:00Z</time>
      </trkpt>
      <trkpt lat="48.3699" lon="2.79494">
        <ele>96.9</ele>
        <time>2018-04-15T18:17:01Z</time>
      </trkpt>
      <trkpt lat="48.36986" lon="2.795">
        <ele>96.9</ele>
        <time>2018-04-15T18:17:02Z</time>
      </trkpt>
      <trkpt lat="48.3698" lon="2.79504">
        <ele>97</ele>
        <time>2018-04-15T18:17:03Z</time>
      </trkpt>
      <trkpt lat="48.36976" lon="2.79512">
        <ele>97</ele>
        <time>2018-04-15T18:17:04Z</time>
      </trkpt>
      <trkpt lat="48.36972" lon="2.7952">
        <ele>97.1</ele>
        <time>2018-04-15T18:17:05Z</time>
      </trkpt>
      <trkpt lat="48.3697" lon="2.79528">
        <ele>97.2</ele>
        <time>2018-04-15T18:17:06Z</time>
      </trkpt>
      <trkpt lat="48.36968" lon="2.79537">
        <ele>97.4</ele>
        <time>2018-04-15T18:17:07Z</time>
      </trkpt>
      <trkpt lat="48.36967" lon="2.79545">
        <ele>97.6</ele>
        <time>2018-04-15T18:17:08Z</time>
      </trkpt>
      <trkpt lat="48.36966" lon="2.79553">
        <ele>97.8</ele>
        <time>2018-04-15T18:17:09Z</time>
      </trkpt>
      <trkpt lat="48.36964" lon="2.79561">
        <ele>98.1</ele>
        <time>2018-04-15T18:17:10Z</time>
      </trkpt>
      <trkpt lat="48.36962" lon="2.7957">
        <ele>98.4</ele>
        <time>2018-04-15T18:17:11Z</time>
      </trkpt>
      <trkpt lat="48.3696" lon="2.79578">
        <ele>98.8</ele>
        <time>2018-04-15T18:17:12Z</time>
      </trkpt>
      <trkpt lat="48.36958" lon="2.79587">
        <ele>99.1</ele>
        <time>2018-04-15T18:17:13Z</time>
      </trkpt>
      <trkpt lat="48.36956" lon="2.79598">
        <ele>99.4</ele>
        <time>2018-04-15T18:17:14Z</time>
      </trkpt>
      <trkpt lat="48.36954" lon="2.79606">
        <ele>99.6</ele>
        <time>2018-04-15T18:17:15Z</time>
      </trkpt>
      <trkpt lat="48.36953" lon="2.79615">
        <ele>99.5</ele>
        <time>2018-04-15T18:17:16Z</time>
      </trkpt>
      <trkpt lat="48.3695" lon="2.79625">
        <ele>99.4</ele>
        <time>2018-04-15T18:17:17Z</time>
      </trkpt>
      <trkpt lat="48.36948" lon="2.79634">
        <ele>99.1</ele>
        <time>2018-04-15T18:17:18Z</time>
      </trkpt>
      <trkpt lat="48.36946" lon="2.79643">
        <ele>98.9</ele>
        <time>2018-04-15T18:17:19Z</time>
      </trkpt>
      <trkpt lat="48.36945" lon="2.79652">
        <ele>98.8</ele>
        <time>2018-04-15T18:17:20Z</time>
      </trkpt>
      <trkpt lat="48.36943" lon="2.7966">
        <ele>98.6</ele>
        <time>2018-04-15T18:17:21Z</time>
      </trkpt>
      <trkpt lat="48.36941" lon="2.79668">
        <ele>98.5</ele>
        <time>2018-04-15T18:17:22Z</time>
      </trkpt>
      <trkpt lat="48.36939" lon="2.79678">
        <ele>98.3</ele>
        <time>2018-04-15T18:17:23Z</time>
      </trkpt>
      <trkpt lat="48.36938" lon="2.79688">
        <ele>98.3</ele>
        <time>2018-04-15T18:17:24Z</time>
      </trkpt>
      <trkpt lat="48.36937" lon="2.79697">
        <ele>98.2</ele>
        <time>2018-04-15T18:17:25Z</time>
      </trkpt>
      <trkpt lat="48.36935" lon="2.79705">
        <ele>98.2</ele>
        <time>2018-04-15T18:17:26Z</time>
      </trkpt>
      <trkpt lat="48.36933" lon="2.79715">
        <ele>98.3</ele>
        <time>2018-04-15T18:17:27Z</time>
      </trkpt>
      <trkpt lat="48.36931" lon="2.79723">
        <ele>98.4</ele>
        <time>2018-04-15T18:17:28Z</time>
      </trkpt>
      <trkpt lat="48.3693" lon="2.79731">
        <ele>98.4</ele>
        <time>2018-04-15T18:17:29Z</time>
      </trkpt>
      <trkpt lat="48.36928" lon="2.79742">
        <ele>98.4</ele>
        <time>2018-04-15T18:17:30Z</time>
      </trkpt>
      <trkpt lat="48.36925" lon="2.79752">
        <ele>98.4</ele>
        <time>2018-04-15T18:17:31Z</time>
      </trkpt>
      <trkpt lat="48.36923" lon="2.79762">
        <ele>98.4</ele>
        <time>2018-04-15T18:17:32Z</time>
      </trkpt>
      <trkpt lat="48.3692" lon="2.79773">
        <ele>98.4</ele>
        <time>2018-04-15T18:17:33Z</time>
      </trkpt>
      <trkpt lat="48.36918" lon="2.79782">
        <ele>98.3</ele>
        <time>2018-04-15T18:17:34Z</time>
      </trkpt>
      <trkpt lat="48.36916" lon="2.79792">
        <ele>98.2</ele>
        <time>2018-04-15T18:17:35Z</time>
      </trkpt>
      <trkpt lat="48.36914" lon="2.79802">
        <ele>98.1</ele>
        <time>2018-04-15T18:17:36Z</time>
      </trkpt>
      <trkpt lat="48.36911" lon="2.79811">
        <ele>98.1</ele>
        <time>2018-04-15T18:17:37Z</time>
      </trkpt>
      <trkpt lat="48.36909" lon="2.7982">
        <ele>98</ele>
        <time>2018-04-15T18:17:38Z</time>
      </trkpt>
      <trkpt lat="48.36907" lon="2.7983">
        <ele>98</ele>
        <time>2018-04-15T18:17:39Z</time>
      </trkpt>
      <trkpt lat="48.36906" lon="2.79838">
        <ele>98.3</ele>
        <time>2018-04-15T18:17:40Z</time>
      </trkpt>
      <trkpt lat="48.36905" lon="2.79848">
        <ele>98.5</ele>
        <time>2018-04-15T18:17:41Z</time>
      </trkpt>
      <trkpt lat="48.36902" lon="2.79857">
        <ele>98.8</ele>
        <time>2018-04-15T18:17:42Z</time>
      </trkpt>
      <trkpt lat="48.369" lon="2.79866">
        <ele>99</ele>
        <time>2018-04-15T18:17:43Z</time>
      </trkpt>
      <trkpt lat="48.36898" lon="2.79877">
        <ele>99.1</ele>
        <time>2018-04-15T18:17:44Z</time>
      </trkpt>
      <trkpt lat="48.36897" lon="2.79885">
        <ele>99.2</ele>
        <time>2018-04-15T18:17:45Z</time>
      </trkpt>
      <trkpt lat="48.36895" lon="2.79892">
        <ele>99.3</ele>
        <time>2018-04-15T18:17:46Z</time>
      </trkpt>
      <trkpt lat="48.36894" lon="2.79898">
        <ele>99.3</ele>
        <time>2018-04-15T18:17:47Z</time>
      </trkpt>
      <trkpt lat="48.36892" lon="2.79906">
        <ele>99.4</ele>
        <time>2018-04-15T18:17:48Z</time>
      </trkpt>
      <trkpt lat="48.36891" lon="2.79913">
        <ele>99.5</ele>
        <time>2018-04-15T18:17:49Z</time>
      </trkpt>
      <trkpt lat="48.36889" lon="2.79922">
        <ele>99.6</ele>
        <time>2018-04-15T18:17:50Z</time>
      </trkpt>
      <trkpt lat="48.36888" lon="2.79929">
        <ele>99.7</ele>
        <time>2018-04-15T18:17:51Z</time>
      </trkpt>
      <trkpt lat="48.36887" lon="2.79934">
        <ele>99.7</ele>
        <time>2018-04-15T18:17:52Z</time>
      </trkpt>
      <trkpt lat="48.36886" lon="2.79939">
        <ele>99.8</ele>
        <time>2018-04-15T18:17:53Z</time>
      </trkpt>
      <trkpt lat="48.36886" lon="2.79943">
        <ele>99.8</ele>
        <time>2018-04-15T18:17:54Z</time>
      </trkpt>
      <trkpt lat="48.36886" lon="2.79949">
        <ele>100</ele>
        <time>2018-04-15T18:17:55Z</time>
      </trkpt>
      <trkpt lat="48.36888" lon="2.79955">
        <ele>99.9</ele>
        <time>2018-04-15T18:17:56Z</time>
      </trkpt>
      <trkpt lat="48.3689" lon="2.79962">
        <ele>99.9</ele>
        <time>2018-04-15T18:17:57Z</time>
      </trkpt>
      <trkpt lat="48.36892" lon="2.79968">
        <ele>99.9</ele>
        <time>2018-04-15T18:17:58Z</time>
      </trkpt>
      <trkpt lat="48.36895" lon="2.79974">
        <ele>99.8</ele>
        <time>2018-04-15T18:17:59Z</time>
      </trkpt>
      <trkpt lat="48.36899" lon="2.7998">
        <ele>99.8</ele>
        <time>2018-04-15T18:18:00Z</time>
      </trkpt>
      <trkpt lat="48.36902" lon="2.79986">
        <ele>99.8</ele>
        <time>2018-04-15T18:18:01Z</time>
      </trkpt>
      <trkpt lat="48.36904" lon="2.79991">
        <ele>99.7</ele>
        <time>2018-04-15T18:18:02Z</time>
      </trkpt>
      <trkpt lat="48.36908" lon="2.79997">
        <ele>99.7</ele>
        <time>2018-04-15T18:18:03Z</time>
      </trkpt>
      <trkpt lat="48.3691" lon="2.80003">
        <ele>99.7</ele>
        <time>2018-04-15T18:18:04Z</time>
      </trkpt>
      <trkpt lat="48.36914" lon="2.8001">
        <ele>99.6</ele>
        <time>2018-04-15T18:18:05Z</time>
      </trkpt>
      <trkpt lat="48.36917" lon="2.80018">
        <ele>99.5</ele>
        <time>2018-04-15T18:18:06Z</time>
      </trkpt>
      <trkpt lat="48.36921" lon="2.80028">
        <ele>99.4</ele>
        <time>2018-04-15T18:18:07Z</time>
      </trkpt>
      <trkpt lat="48.36922" lon="2.8004">
        <ele>99.4</ele>
        <time>2018-04-15T18:18:08Z</time>
      </trkpt>
      <trkpt lat="48.36923" lon="2.8005">
        <ele>99.3</ele>
        <time>2018-04-15T18:18:09Z</time>
      </trkpt>
      <trkpt lat="48.36923" lon="2.8006">
        <ele>99.3</ele>
        <time>2018-04-15T18:18:10Z</time>
      </trkpt>
      <trkpt lat="48.36923" lon="2.8007">
        <ele>99.3</ele>
        <time>2018-04-15T18:18:11Z</time>
      </trkpt>
      <trkpt lat="48.36924" lon="2.80077">
        <ele>99.4</ele>
        <time>2018-04-15T18:18:12Z</time>
      </trkpt>
      <trkpt lat="48.36926" lon="2.80085">
        <ele>99.4</ele>
        <time>2018-04-15T18:18:13Z</time>
      </trkpt>
      <trkpt lat="48.36927" lon="2.80093">
        <ele>99.4</ele>
        <time>2018-04-15T18:18:14Z</time>
      </trkpt>
      <trkpt lat="48.36929" lon="2.80101">
        <ele>99.5</ele>
        <time>2018-04-15T18:18:15Z</time>
      </trkpt>
      <trkpt lat="48.3693" lon="2.80108">
        <ele>99.5</ele>
        <time>2018-04-15T18:18:16Z</time>
      </trkpt>
      <trkpt lat="48.3693" lon="2.80112">
        <ele>99.6</ele>
        <time>2018-04-15T18:18:17Z</time>
      </trkpt>
      <trkpt lat="48.36931" lon="2.80118">
        <ele>99.6</ele>
        <time>2018-04-15T18:18:18Z</time>
      </trkpt>
      <trkpt lat="48.36932" lon="2.80124">
        <ele>99.6</ele>
        <time>2018-04-15T18:18:19Z</time>
      </trkpt>
      <trkpt lat="48.36933" lon="2.8013">
        <ele>99.6</ele>
        <time>2018-04-15T18:18:20Z</time>
      </trkpt>
      <trkpt lat="48.36934" lon="2.80139">
        <ele>99.7</ele>
        <time>2018-04-15T18:18:21Z</time>
      </trkpt>
      <trkpt lat="48.36935" lon="2.80145">
        <ele>99.8</ele>
        <time>2018-04-15T18:18:22Z</time>
      </trkpt>
      <trkpt lat="48.36936" lon="2.80154">
        <ele>99.9</ele>
        <time>2018-04-15T18:18:23Z</time>
      </trkpt>
      <trkpt lat="48.36937" lon="2.80161">
        <ele>100</ele>
        <time>2018-04-15T18:18:24Z</time>
      </trkpt>
      <trkpt lat="48.36939" lon="2.80168">
        <ele>99.9</ele>
        <time>2018-04-15T18:18:25Z</time>
      </trkpt>
      <trkpt lat="48.36939" lon="2.80173">
        <ele>99.8</ele>
        <time>2018-04-15T18:18:26Z</time>
      </trkpt>
      <trkpt lat="48.36941" lon="2.80181">
        <ele>99.6</ele>
        <time>2018-04-15T18:18:27Z</time>
      </trkpt>
      <trkpt lat="48.36943" lon="2.8019">
        <ele>99.5</ele>
        <time>2018-04-15T18:18:28Z</time>
      </trkpt>
      <trkpt lat="48.36945" lon="2.80197">
        <ele>99.3</ele>
        <time>2018-04-15T18:18:29Z</time>
      </trkpt>
      <trkpt lat="48.36946" lon="2.80203">
        <ele>99.2</ele>
        <time>2018-04-15T18:18:30Z</time>
      </trkpt>
      <trkpt lat="48.36948" lon="2.80209">
        <ele>99.1</ele>
        <time>2018-04-15T18:18:31Z</time>
      </trkpt>
      <trkpt lat="48.36949" lon="2.80214">
        <ele>99</ele>
        <time>2018-04-15T18:18:32Z</time>
      </trkpt>
      <trkpt lat="48.36951" lon="2.80221">
        <ele>98.9</ele>
        <time>2018-04-15T18:18:34Z</time>
      </trkpt>
      <trkpt lat="48.36952" lon="2.80225">
        <ele>98</ele>
        <time>2018-04-15T18:18:35Z</time>
      </trkpt>
      <trkpt lat="48.36955" lon="2.8023">
        <ele>98</ele>
        <time>2018-04-15T18:18:36Z</time>
      </trkpt>
      <trkpt lat="48.36959" lon="2.80234">
        <ele>98</ele>
        <time>2018-04-15T18:18:37Z</time>
      </trkpt>
      <trkpt lat="48.36962" lon="2.80238">
        <ele>98</ele>
        <time>2018-04-15T18:18:38Z</time>
      </trkpt>
      <trkpt lat="48.36964" lon="2.80241">
        <ele>98.2</ele>
        <time>2018-04-15T18:18:39Z</time>
      </trkpt>
      <trkpt lat="48.36968" lon="2.80243">
        <ele>98.8</ele>
        <time>2018-04-15T18:18:40Z</time>
      </trkpt>
      <trkpt lat="48.36972" lon="2.80245">
        <ele>99.2</ele>
        <time>2018-04-15T18:18:41Z</time>
      </trkpt>
      <trkpt lat="48.36977" lon="2.80248">
        <ele>99.5</ele>
        <time>2018-04-15T18:18:42Z</time>
      </trkpt>
      <trkpt lat="48.3698" lon="2.8025">
        <ele>99.6</ele>
        <time>2018-04-15T18:18:43Z</time>
      </trkpt>
      <trkpt lat="48.36985" lon="2.80254">
        <ele>99.9</ele>
        <time>2018-04-15T18:18:45Z</time>
      </trkpt>
      <trkpt lat="48.36989" lon="2.80258">
        <ele>100.1</ele>
        <time>2018-04-15T18:18:46Z</time>
      </trkpt>
      <trkpt lat="48.36996" lon="2.80263">
        <ele>100.4</ele>
        <time>2018-04-15T18:18:47Z</time>
      </trkpt>
      <trkpt lat="48.37002" lon="2.80266">
        <ele>100.4</ele>
        <time>2018-04-15T18:18:48Z</time>
      </trkpt>
      <trkpt lat="48.37009" lon="2.80272">
        <ele>99.9</ele>
        <time>2018-04-15T18:18:49Z</time>
      </trkpt>
      <trkpt lat="48.37015" lon="2.80278">
        <ele>99.1</ele>
        <time>2018-04-15T18:18:50Z</time>
      </trkpt>
      <trkpt lat="48.3702" lon="2.80282">
        <ele>98.3</ele>
        <time>2018-04-15T18:18:51Z</time>
      </trkpt>
      <trkpt lat="48.37024" lon="2.80282">
        <ele>97.8</ele>
        <time>2018-04-15T18:18:52Z</time>
      </trkpt>
      <trkpt lat="48.37028" lon="2.80279">
        <ele>97.4</ele>
        <time>2018-04-15T18:18:53Z</time>
      </trkpt>
      <trkpt lat="48.37033" lon="2.80277">
        <ele>97.3</ele>
        <time>2018-04-15T18:18:54Z</time>
      </trkpt>
      <trkpt lat="48.37038" lon="2.80276">
        <ele>97.1</ele>
        <time>2018-04-15T18:18:55Z</time>
      </trkpt>
      <trkpt lat="48.37042" lon="2.80274">
        <ele>97</ele>
        <time>2018-04-15T18:18:56Z</time>
      </trkpt>
      <trkpt lat="48.37046" lon="2.80272">
        <ele>96.9</ele>
        <time>2018-04-15T18:18:57Z</time>
      </trkpt>
      <trkpt lat="48.3705" lon="2.8027">
        <ele>96.8</ele>
        <time>2018-04-15T18:18:58Z</time>
      </trkpt>
      <trkpt lat="48.37055" lon="2.80269">
        <ele>96.8</ele>
        <time>2018-04-15T18:18:59Z</time>
      </trkpt>
      <trkpt lat="48.3706" lon="2.80269">
        <ele>96.6</ele>
        <time>2018-04-15T18:19:00Z</time>
      </trkpt>
      <trkpt lat="48.37065" lon="2.80271">
        <ele>96.6</ele>
        <time>2018-04-15T18:19:01Z</time>
      </trkpt>
      <trkpt lat="48.37073" lon="2.80275">
        <ele>96.8</ele>
        <time>2018-04-15T18:19:03Z</time>
      </trkpt>
      <trkpt lat="48.37077" lon="2.8028">
        <ele>97</ele>
        <time>2018-04-15T18:19:04Z</time>
      </trkpt>
      <trkpt lat="48.3708" lon="2.80287">
        <ele>95.8</ele>
        <time>2018-04-15T18:19:05Z</time>
      </trkpt>
      <trkpt lat="48.37082" lon="2.80294">
        <ele>93.9</ele>
        <time>2018-04-15T18:19:06Z</time>
      </trkpt>
      <trkpt lat="48.37084" lon="2.80301">
        <ele>91.9</ele>
        <time>2018-04-15T18:19:07Z</time>
      </trkpt>
      <trkpt lat="48.37086" lon="2.8031">
        <ele>89.4</ele>
        <time>2018-04-15T18:19:08Z</time>
      </trkpt>
      <trkpt lat="48.37087" lon="2.80319">
        <ele>86.9</ele>
        <time>2018-04-15T18:19:09Z</time>
      </trkpt>
      <trkpt lat="48.37088" lon="2.80325">
        <ele>85.2</ele>
        <time>2018-04-15T18:19:10Z</time>
      </trkpt>
      <trkpt lat="48.37089" lon="2.8033">
        <ele>83.7</ele>
        <time>2018-04-15T18:19:11Z</time>
      </trkpt>
      <trkpt lat="48.37091" lon="2.80334">
        <ele>82.5</ele>
        <time>2018-04-15T18:19:12Z</time>
      </trkpt>
      <trkpt lat="48.37093" lon="2.80337">
        <ele>79.9</ele>
        <time>2018-04-15T18:19:14Z</time>
      </trkpt>
      <trkpt lat="48.37096" lon="2.80339">
        <ele>79.8</ele>
        <time>2018-04-15T18:19:16Z</time>
      </trkpt>
      <trkpt lat="48.37099" lon="2.80344">
        <ele>79.8</ele>
        <time>2018-04-15T18:19:19Z</time>
      </trkpt>
      <trkpt lat="48.37102" lon="2.8035">
        <ele>79.8</ele>
        <time>2018-04-15T18:19:21Z</time>
      </trkpt>
      <trkpt lat="48.37104" lon="2.80356">
        <ele>79.7</ele>
        <time>2018-04-15T18:19:23Z</time>
      </trkpt>
      <trkpt lat="48.37104" lon="2.80361">
        <ele>79.7</ele>
        <time>2018-04-15T18:19:30Z</time>
      </trkpt>
      <trkpt lat="48.37102" lon="2.80363">
        <ele>79.7</ele>
        <time>2018-04-15T18:19:35Z</time>
      </trkpt>
      <trkpt lat="48.37103" lon="2.80366">
        <ele>79.6</ele>
        <time>2018-04-15T18:19:42Z</time>
      </trkpt>
    </trkseg>
  </trk>
</gpx>